<?xml version='1.0' encoding='UTF-8'?><gpx version="1.1" creator="JPX - https://github.com/jenetics/jpx" xmlns="http://www.topografix.com/GPX/1/1"><trk><trkseg><trkpt lat="46.8312584" lon="10.5133619"><ele>1514.0</ele><time>2026-03-24T08:55:09.367Z</time></trkpt><trkpt lat="46.8312363" lon="10.5134618"><ele>1514.0</ele><time>2026-03-24T08:56:54.358Z</time></trkpt><trkpt lat="46.8312229" lon="10.5135931"><ele>1514.0</ele><time>2026-03-24T08:56:57.355Z</time></trkpt><trkpt lat="46.8312085" lon="10.5136898"><ele>1514.0</ele><time>2026-03-24T08:56:59.362Z</time></trkpt><trkpt lat="46.8310392" lon="10.5137816"><ele>1514.0</ele><time>2026-03-24T08:57:01.362Z</time></trkpt><trkpt lat="46.8309177" lon="10.5138166"><ele>1513.8000000000002</ele><time>2026-03-24T08:57:02.363Z</time></trkpt><trkpt lat="46.8308587" lon="10.513855"><ele>1513.6000000000001</ele><time>2026-03-24T08:57:03.363Z</time></trkpt><trkpt lat="46.8307808" lon="10.5139505"><ele>1513.4</ele><time>2026-03-24T08:57:05.365Z</time></trkpt><trkpt lat="46.8307117" lon="10.5140498"><ele>1513.2</ele><time>2026-03-24T08:57:07.357Z</time></trkpt><trkpt lat="46.8306444" lon="10.5141487"><ele>1513.0</ele><time>2026-03-24T08:57:09.36Z</time></trkpt><trkpt lat="46.8305776" lon="10.5142463"><ele>1513.0</ele><time>2026-03-24T08:57:11.359Z</time></trkpt><trkpt lat="46.8305114" lon="10.5143465"><ele>1513.0</ele><time>2026-03-24T08:57:13.361Z</time></trkpt><trkpt lat="46.830447" lon="10.5144494"><ele>1513.0</ele><time>2026-03-24T08:57:15.361Z</time></trkpt><trkpt lat="46.8303852" lon="10.5145549"><ele>1513.0</ele><time>2026-03-24T08:57:17.352Z</time></trkpt><trkpt lat="46.8303258" lon="10.5146635"><ele>1513.0</ele><time>2026-03-24T08:57:19.375Z</time></trkpt><trkpt lat="46.8302691" lon="10.5147736"><ele>1513.4</ele><time>2026-03-24T08:57:21.373Z</time></trkpt><trkpt lat="46.8302129" lon="10.5148847"><ele>1513.8000000000002</ele><time>2026-03-24T08:57:23.368Z</time></trkpt><trkpt lat="46.830159" lon="10.5149969"><ele>1514.2</ele><time>2026-03-24T08:57:25.36Z</time></trkpt><trkpt lat="46.8301062" lon="10.5151113"><ele>1514.6</ele><time>2026-03-24T08:57:27.365Z</time></trkpt><trkpt lat="46.8300566" lon="10.515228"><ele>1515.0</ele><time>2026-03-24T08:57:29.367Z</time></trkpt><trkpt lat="46.8300099" lon="10.5153442"><ele>1515.5</ele><time>2026-03-24T08:57:31.373Z</time></trkpt><trkpt lat="46.8299624" lon="10.5154559"><ele>1516.0</ele><time>2026-03-24T08:57:33.366Z</time></trkpt><trkpt lat="46.8299171" lon="10.5155684"><ele>1516.5</ele><time>2026-03-24T08:57:35.361Z</time></trkpt><trkpt lat="46.8298715" lon="10.5156775"><ele>1517.0</ele><time>2026-03-24T08:57:37.362Z</time></trkpt><trkpt lat="46.8298289" lon="10.5157837"><ele>1517.5</ele><time>2026-03-24T08:57:39.367Z</time></trkpt><trkpt lat="46.8297826" lon="10.5158917"><ele>1518.0</ele><time>2026-03-24T08:57:41.362Z</time></trkpt><trkpt lat="46.8297378" lon="10.516001"><ele>1518.0</ele><time>2026-03-24T08:57:43.365Z</time></trkpt><trkpt lat="46.8296922" lon="10.5161089"><ele>1518.0</ele><time>2026-03-24T08:57:45.363Z</time></trkpt><trkpt lat="46.8296471" lon="10.5162197"><ele>1518.0</ele><time>2026-03-24T08:57:47.364Z</time></trkpt><trkpt lat="46.8296033" lon="10.5163325"><ele>1518.0</ele><time>2026-03-24T08:57:49.365Z</time></trkpt><trkpt lat="46.8295565" lon="10.5164432"><ele>1518.0</ele><time>2026-03-24T08:57:51.362Z</time></trkpt><trkpt lat="46.8295094" lon="10.5165541"><ele>1518.0</ele><time>2026-03-24T08:57:53.358Z</time></trkpt><trkpt lat="46.8294652" lon="10.516666"><ele>1518.5</ele><time>2026-03-24T08:57:55.358Z</time></trkpt><trkpt lat="46.8294211" lon="10.5167769"><ele>1519.0</ele><time>2026-03-24T08:57:57.368Z</time></trkpt><trkpt lat="46.8293753" lon="10.5168856"><ele>1519.5</ele><time>2026-03-24T08:57:59.368Z</time></trkpt><trkpt lat="46.8293305" lon="10.5169962"><ele>1520.0</ele><time>2026-03-24T08:58:01.363Z</time></trkpt><trkpt lat="46.8292843" lon="10.5171098"><ele>1520.5</ele><time>2026-03-24T08:58:03.355Z</time></trkpt><trkpt lat="46.8292347" lon="10.5172211"><ele>1521.0</ele><time>2026-03-24T08:58:05.367Z</time></trkpt><trkpt lat="46.8291884" lon="10.5173355"><ele>1521.0</ele><time>2026-03-24T08:58:07.364Z</time></trkpt><trkpt lat="46.8291431" lon="10.5174498"><ele>1521.0</ele><time>2026-03-24T08:58:09.361Z</time></trkpt><trkpt lat="46.829099" lon="10.5175626"><ele>1521.0</ele><time>2026-03-24T08:58:11.362Z</time></trkpt><trkpt lat="46.8290553" lon="10.5176735"><ele>1521.0</ele><time>2026-03-24T08:58:13.373Z</time></trkpt><trkpt lat="46.8290198" lon="10.517789"><ele>1521.0</ele><time>2026-03-24T08:58:15.37Z</time></trkpt><trkpt lat="46.828982" lon="10.5179019"><ele>1521.0</ele><time>2026-03-24T08:58:17.358Z</time></trkpt><trkpt lat="46.8289321" lon="10.5180094"><ele>1521.8</ele><time>2026-03-24T08:58:19.359Z</time></trkpt><trkpt lat="46.8288769" lon="10.5181159"><ele>1522.6</ele><time>2026-03-24T08:58:21.353Z</time></trkpt><trkpt lat="46.8288245" lon="10.5182278"><ele>1523.4</ele><time>2026-03-24T08:58:23.359Z</time></trkpt><trkpt lat="46.8287765" lon="10.5183467"><ele>1524.2</ele><time>2026-03-24T08:58:25.36Z</time></trkpt><trkpt lat="46.828727" lon="10.518467"><ele>1525.0</ele><time>2026-03-24T08:58:27.363Z</time></trkpt><trkpt lat="46.8286784" lon="10.5185939"><ele>1525.0</ele><time>2026-03-24T08:58:29.377Z</time></trkpt><trkpt lat="46.8286287" lon="10.5187243"><ele>1525.0</ele><time>2026-03-24T08:58:31.36Z</time></trkpt><trkpt lat="46.8285778" lon="10.5188533"><ele>1525.0</ele><time>2026-03-24T08:58:33.369Z</time></trkpt><trkpt lat="46.8285235" lon="10.5189803"><ele>1525.0</ele><time>2026-03-24T08:58:35.369Z</time></trkpt><trkpt lat="46.8284722" lon="10.519103"><ele>1525.0</ele><time>2026-03-24T08:58:37.367Z</time></trkpt><trkpt lat="46.8284219" lon="10.5192338"><ele>1525.0</ele><time>2026-03-24T08:58:39.359Z</time></trkpt><trkpt lat="46.8283678" lon="10.5193696"><ele>1525.0</ele><time>2026-03-24T08:58:41.355Z</time></trkpt><trkpt lat="46.8283087" lon="10.5195137"><ele>1525.0</ele><time>2026-03-24T08:58:43.367Z</time></trkpt><trkpt lat="46.8282452" lon="10.5196659"><ele>1525.0</ele><time>2026-03-24T08:58:45.361Z</time></trkpt><trkpt lat="46.8281793" lon="10.5198237"><ele>1525.0</ele><time>2026-03-24T08:58:47.376Z</time></trkpt><trkpt lat="46.8281447" lon="10.519903"><ele>1525.0</ele><time>2026-03-24T08:58:48.364Z</time></trkpt><trkpt lat="46.8281101" lon="10.5199849"><ele>1525.0</ele><time>2026-03-24T08:58:49.36Z</time></trkpt><trkpt lat="46.8280749" lon="10.5200699"><ele>1525.0</ele><time>2026-03-24T08:58:50.362Z</time></trkpt><trkpt lat="46.8280391" lon="10.5201576"><ele>1525.0</ele><time>2026-03-24T08:58:51.361Z</time></trkpt><trkpt lat="46.8280023" lon="10.5202458"><ele>1525.0</ele><time>2026-03-24T08:58:52.367Z</time></trkpt><trkpt lat="46.8279652" lon="10.5203345"><ele>1525.0</ele><time>2026-03-24T08:58:53.365Z</time></trkpt><trkpt lat="46.827928" lon="10.5204236"><ele>1525.4285714285713</ele><time>2026-03-24T08:58:54.363Z</time></trkpt><trkpt lat="46.8278913" lon="10.5205133"><ele>1525.8571428571427</ele><time>2026-03-24T08:58:55.356Z</time></trkpt><trkpt lat="46.8278514" lon="10.520602"><ele>1526.2857142857142</ele><time>2026-03-24T08:58:56.361Z</time></trkpt><trkpt lat="46.8278082" lon="10.5206891"><ele>1526.7142857142858</ele><time>2026-03-24T08:58:57.365Z</time></trkpt><trkpt lat="46.8277607" lon="10.5207725"><ele>1527.142857142857</ele><time>2026-03-24T08:58:58.359Z</time></trkpt><trkpt lat="46.8277072" lon="10.5208517"><ele>1527.5714285714287</ele><time>2026-03-24T08:58:59.366Z</time></trkpt><trkpt lat="46.8276491" lon="10.5209259"><ele>1528.0</ele><time>2026-03-24T08:59:00.368Z</time></trkpt><trkpt lat="46.8275866" lon="10.5209957"><ele>1526.0</ele><time>2026-03-24T08:59:01.365Z</time></trkpt><trkpt lat="46.8275224" lon="10.5210612"><ele>1524.0</ele><time>2026-03-24T08:59:02.359Z</time></trkpt><trkpt lat="46.8274555" lon="10.5211222"><ele>1522.0</ele><time>2026-03-24T08:59:03.36Z</time></trkpt><trkpt lat="46.8273871" lon="10.5211774"><ele>1520.0</ele><time>2026-03-24T08:59:04.356Z</time></trkpt><trkpt lat="46.8273166" lon="10.5212247"><ele>1518.0</ele><time>2026-03-24T08:59:05.356Z</time></trkpt><trkpt lat="46.8272442" lon="10.5212648"><ele>1516.0</ele><time>2026-03-24T08:59:06.364Z</time></trkpt><trkpt lat="46.8271693" lon="10.5212988"><ele>1516.0</ele><time>2026-03-24T08:59:07.364Z</time></trkpt><trkpt lat="46.8270928" lon="10.521327"><ele>1516.0</ele><time>2026-03-24T08:59:08.359Z</time></trkpt><trkpt lat="46.827014" lon="10.5213478"><ele>1516.0</ele><time>2026-03-24T08:59:09.37Z</time></trkpt><trkpt lat="46.8269347" lon="10.5213626"><ele>1516.0</ele><time>2026-03-24T08:59:10.361Z</time></trkpt><trkpt lat="46.8268547" lon="10.5213711"><ele>1516.0</ele><time>2026-03-24T08:59:11.361Z</time></trkpt><trkpt lat="46.8267742" lon="10.5213737"><ele>1516.0</ele><time>2026-03-24T08:59:12.362Z</time></trkpt><trkpt lat="46.8266932" lon="10.521375"><ele>1515.8333333333333</ele><time>2026-03-24T08:59:13.36Z</time></trkpt><trkpt lat="46.8266123" lon="10.521378"><ele>1515.6666666666665</ele><time>2026-03-24T08:59:14.361Z</time></trkpt><trkpt lat="46.8265311" lon="10.5213806"><ele>1515.5</ele><time>2026-03-24T08:59:15.359Z</time></trkpt><trkpt lat="46.8264499" lon="10.5213826"><ele>1515.3333333333333</ele><time>2026-03-24T08:59:16.351Z</time></trkpt><trkpt lat="46.8263681" lon="10.5213832"><ele>1515.1666666666667</ele><time>2026-03-24T08:59:17.36Z</time></trkpt><trkpt lat="46.826286" lon="10.5213845"><ele>1515.0</ele><time>2026-03-24T08:59:18.364Z</time></trkpt><trkpt lat="46.8262039" lon="10.5213856"><ele>1515.0</ele><time>2026-03-24T08:59:19.357Z</time></trkpt><trkpt lat="46.8261214" lon="10.5213863"><ele>1515.0</ele><time>2026-03-24T08:59:20.366Z</time></trkpt><trkpt lat="46.8260392" lon="10.5213871"><ele>1515.0</ele><time>2026-03-24T08:59:21.361Z</time></trkpt><trkpt lat="46.8259563" lon="10.5213889"><ele>1515.0</ele><time>2026-03-24T08:59:22.363Z</time></trkpt><trkpt lat="46.8258739" lon="10.5213913"><ele>1515.0</ele><time>2026-03-24T08:59:23.358Z</time></trkpt><trkpt lat="46.8257905" lon="10.5213928"><ele>1515.0</ele><time>2026-03-24T08:59:24.354Z</time></trkpt><trkpt lat="46.8257063" lon="10.5213936"><ele>1514.5</ele><time>2026-03-24T08:59:25.36Z</time></trkpt><trkpt lat="46.8256219" lon="10.5213951"><ele>1514.0</ele><time>2026-03-24T08:59:26.365Z</time></trkpt><trkpt lat="46.825536" lon="10.5213973"><ele>1513.5</ele><time>2026-03-24T08:59:27.36Z</time></trkpt><trkpt lat="46.8254496" lon="10.5213998"><ele>1513.0</ele><time>2026-03-24T08:59:28.365Z</time></trkpt><trkpt lat="46.8253623" lon="10.5214019"><ele>1512.5</ele><time>2026-03-24T08:59:29.359Z</time></trkpt><trkpt lat="46.8252735" lon="10.5214046"><ele>1512.0</ele><time>2026-03-24T08:59:30.364Z</time></trkpt><trkpt lat="46.8251828" lon="10.5214057"><ele>1512.1999999999998</ele><time>2026-03-24T08:59:31.359Z</time></trkpt><trkpt lat="46.8250918" lon="10.5214069"><ele>1512.4</ele><time>2026-03-24T08:59:32.354Z</time></trkpt><trkpt lat="46.8250002" lon="10.521409"><ele>1512.6</ele><time>2026-03-24T08:59:33.363Z</time></trkpt><trkpt lat="46.8249087" lon="10.5214109"><ele>1512.8000000000002</ele><time>2026-03-24T08:59:34.362Z</time></trkpt><trkpt lat="46.8248172" lon="10.5214125"><ele>1513.0</ele><time>2026-03-24T08:59:35.373Z</time></trkpt><trkpt lat="46.824726" lon="10.5214143"><ele>1513.0</ele><time>2026-03-24T08:59:36.364Z</time></trkpt><trkpt lat="46.8246333" lon="10.5214162"><ele>1513.0</ele><time>2026-03-24T08:59:37.367Z</time></trkpt><trkpt lat="46.8245422" lon="10.5214182"><ele>1513.0</ele><time>2026-03-24T08:59:38.366Z</time></trkpt><trkpt lat="46.8244496" lon="10.521421"><ele>1513.0</ele><time>2026-03-24T08:59:39.363Z</time></trkpt><trkpt lat="46.8243572" lon="10.5214215"><ele>1513.0</ele><time>2026-03-24T08:59:40.371Z</time></trkpt><trkpt lat="46.8242673" lon="10.5214226"><ele>1512.5</ele><time>2026-03-24T08:59:41.37Z</time></trkpt><trkpt lat="46.8241777" lon="10.521425"><ele>1512.0</ele><time>2026-03-24T08:59:42.363Z</time></trkpt><trkpt lat="46.8240896" lon="10.521427"><ele>1511.5</ele><time>2026-03-24T08:59:43.367Z</time></trkpt><trkpt lat="46.8240012" lon="10.5214276"><ele>1511.0</ele><time>2026-03-24T08:59:44.367Z</time></trkpt><trkpt lat="46.8239137" lon="10.5214257"><ele>1510.5</ele><time>2026-03-24T08:59:45.366Z</time></trkpt><trkpt lat="46.8238267" lon="10.5214254"><ele>1510.0</ele><time>2026-03-24T08:59:46.36Z</time></trkpt><trkpt lat="46.8237411" lon="10.5214265"><ele>1510.0</ele><time>2026-03-24T08:59:47.362Z</time></trkpt><trkpt lat="46.8236575" lon="10.5214292"><ele>1510.0</ele><time>2026-03-24T08:59:48.368Z</time></trkpt><trkpt lat="46.823574" lon="10.5214329"><ele>1510.0</ele><time>2026-03-24T08:59:49.365Z</time></trkpt><trkpt lat="46.8234927" lon="10.5214396"><ele>1510.0</ele><time>2026-03-24T08:59:50.376Z</time></trkpt><trkpt lat="46.8234126" lon="10.5214493"><ele>1510.0</ele><time>2026-03-24T08:59:51.351Z</time></trkpt><trkpt lat="46.8233321" lon="10.5214617"><ele>1510.0</ele><time>2026-03-24T08:59:52.356Z</time></trkpt><trkpt lat="46.8232514" lon="10.5214789"><ele>1509.0</ele><time>2026-03-24T08:59:53.364Z</time></trkpt><trkpt lat="46.8231711" lon="10.5214987"><ele>1508.0</ele><time>2026-03-24T08:59:54.354Z</time></trkpt><trkpt lat="46.8230903" lon="10.5215204"><ele>1507.0</ele><time>2026-03-24T08:59:55.357Z</time></trkpt><trkpt lat="46.8230086" lon="10.5215458"><ele>1506.0</ele><time>2026-03-24T08:59:56.364Z</time></trkpt><trkpt lat="46.8229265" lon="10.5215769"><ele>1505.0</ele><time>2026-03-24T08:59:57.367Z</time></trkpt><trkpt lat="46.8228441" lon="10.5216122"><ele>1504.0</ele><time>2026-03-24T08:59:58.359Z</time></trkpt><trkpt lat="46.8227633" lon="10.5216518"><ele>1504.0</ele><time>2026-03-24T08:59:59.362Z</time></trkpt><trkpt lat="46.8226835" lon="10.5216947"><ele>1504.0</ele><time>2026-03-24T09:00:00.367Z</time></trkpt><trkpt lat="46.8226049" lon="10.5217411"><ele>1504.0</ele><time>2026-03-24T09:00:01.357Z</time></trkpt><trkpt lat="46.8225274" lon="10.5217911"><ele>1504.0</ele><time>2026-03-24T09:00:02.36Z</time></trkpt><trkpt lat="46.8224512" lon="10.5218438"><ele>1504.0</ele><time>2026-03-24T09:00:03.374Z</time></trkpt><trkpt lat="46.8223759" lon="10.5218999"><ele>1504.0</ele><time>2026-03-24T09:00:04.367Z</time></trkpt><trkpt lat="46.8223016" lon="10.5219576"><ele>1504.8333333333333</ele><time>2026-03-24T09:00:05.359Z</time></trkpt><trkpt lat="46.822228" lon="10.5220152"><ele>1505.6666666666665</ele><time>2026-03-24T09:00:06.363Z</time></trkpt><trkpt lat="46.8221554" lon="10.5220713"><ele>1506.5</ele><time>2026-03-24T09:00:07.362Z</time></trkpt><trkpt lat="46.8220839" lon="10.5221267"><ele>1507.3333333333333</ele><time>2026-03-24T09:00:08.365Z</time></trkpt><trkpt lat="46.8220139" lon="10.5221807"><ele>1508.1666666666667</ele><time>2026-03-24T09:00:09.367Z</time></trkpt><trkpt lat="46.821945" lon="10.5222342"><ele>1509.0</ele><time>2026-03-24T09:00:10.36Z</time></trkpt><trkpt lat="46.8218775" lon="10.5222879"><ele>1506.3333333333333</ele><time>2026-03-24T09:00:11.363Z</time></trkpt><trkpt lat="46.8218095" lon="10.5223404"><ele>1503.6666666666667</ele><time>2026-03-24T09:00:12.364Z</time></trkpt><trkpt lat="46.821743" lon="10.5223916"><ele>1501.0</ele><time>2026-03-24T09:00:13.366Z</time></trkpt><trkpt lat="46.8216761" lon="10.5224427"><ele>1498.3333333333335</ele><time>2026-03-24T09:00:14.361Z</time></trkpt><trkpt lat="46.8216096" lon="10.5224942"><ele>1495.6666666666667</ele><time>2026-03-24T09:00:15.375Z</time></trkpt><trkpt lat="46.8215435" lon="10.522545"><ele>1493.0</ele><time>2026-03-24T09:00:16.366Z</time></trkpt><trkpt lat="46.8214774" lon="10.5225961"><ele>1493.0</ele><time>2026-03-24T09:00:17.369Z</time></trkpt><trkpt lat="46.8214118" lon="10.5226479"><ele>1493.0</ele><time>2026-03-24T09:00:18.362Z</time></trkpt><trkpt lat="46.8213461" lon="10.5227"><ele>1493.0</ele><time>2026-03-24T09:00:19.362Z</time></trkpt><trkpt lat="46.8212804" lon="10.5227512"><ele>1493.0</ele><time>2026-03-24T09:00:20.356Z</time></trkpt><trkpt lat="46.821215" lon="10.5228024"><ele>1493.0</ele><time>2026-03-24T09:00:21.367Z</time></trkpt><trkpt lat="46.8211511" lon="10.5228545"><ele>1493.0</ele><time>2026-03-24T09:00:22.365Z</time></trkpt><trkpt lat="46.821087" lon="10.5229055"><ele>1493.0</ele><time>2026-03-24T09:00:23.367Z</time></trkpt><trkpt lat="46.8210243" lon="10.5229562"><ele>1493.857142857143</ele><time>2026-03-24T09:00:24.365Z</time></trkpt><trkpt lat="46.8209619" lon="10.5230084"><ele>1494.7142857142856</ele><time>2026-03-24T09:00:25.372Z</time></trkpt><trkpt lat="46.8208999" lon="10.5230621"><ele>1495.5714285714284</ele><time>2026-03-24T09:00:26.369Z</time></trkpt><trkpt lat="46.8208386" lon="10.5231172"><ele>1496.4285714285716</ele><time>2026-03-24T09:00:27.361Z</time></trkpt><trkpt lat="46.8207788" lon="10.5231766"><ele>1497.2857142857142</ele><time>2026-03-24T09:00:28.364Z</time></trkpt><trkpt lat="46.8207196" lon="10.5232392"><ele>1498.142857142857</ele><time>2026-03-24T09:00:29.352Z</time></trkpt><trkpt lat="46.8206603" lon="10.5233033"><ele>1499.0</ele><time>2026-03-24T09:00:30.364Z</time></trkpt><trkpt lat="46.8206024" lon="10.5233704"><ele>1499.0</ele><time>2026-03-24T09:00:31.36Z</time></trkpt><trkpt lat="46.8205452" lon="10.5234389"><ele>1499.0</ele><time>2026-03-24T09:00:32.358Z</time></trkpt><trkpt lat="46.8204891" lon="10.5235095"><ele>1499.0</ele><time>2026-03-24T09:00:33.361Z</time></trkpt><trkpt lat="46.820434" lon="10.5235814"><ele>1499.0</ele><time>2026-03-24T09:00:34.364Z</time></trkpt><trkpt lat="46.8203804" lon="10.5236549"><ele>1499.0</ele><time>2026-03-24T09:00:35.364Z</time></trkpt><trkpt lat="46.8203274" lon="10.5237296"><ele>1499.0</ele><time>2026-03-24T09:00:36.36Z</time></trkpt><trkpt lat="46.8202764" lon="10.5238001"><ele>1499.0</ele><time>2026-03-24T09:00:37.368Z</time></trkpt><trkpt lat="46.8202245" lon="10.5238735"><ele>1498.7142857142858</ele><time>2026-03-24T09:00:38.371Z</time></trkpt><trkpt lat="46.8201722" lon="10.5239469"><ele>1498.4285714285716</ele><time>2026-03-24T09:00:39.366Z</time></trkpt><trkpt lat="46.8201197" lon="10.5240216"><ele>1498.142857142857</ele><time>2026-03-24T09:00:40.366Z</time></trkpt><trkpt lat="46.8200668" lon="10.5240951"><ele>1497.857142857143</ele><time>2026-03-24T09:00:41.367Z</time></trkpt><trkpt lat="46.8200133" lon="10.5241686"><ele>1497.5714285714284</ele><time>2026-03-24T09:00:42.367Z</time></trkpt><trkpt lat="46.8199602" lon="10.5242421"><ele>1497.2857142857142</ele><time>2026-03-24T09:00:43.364Z</time></trkpt><trkpt lat="46.8199075" lon="10.5243168"><ele>1497.0</ele><time>2026-03-24T09:00:44.372Z</time></trkpt><trkpt lat="46.8198565" lon="10.5243908"><ele>1497.0</ele><time>2026-03-24T09:00:45.358Z</time></trkpt><trkpt lat="46.8198051" lon="10.524465"><ele>1497.0</ele><time>2026-03-24T09:00:46.366Z</time></trkpt><trkpt lat="46.8197533" lon="10.5245387"><ele>1497.0</ele><time>2026-03-24T09:00:47.375Z</time></trkpt><trkpt lat="46.8197029" lon="10.5246129"><ele>1497.0</ele><time>2026-03-24T09:00:48.373Z</time></trkpt><trkpt lat="46.8196523" lon="10.5246872"><ele>1497.0</ele><time>2026-03-24T09:00:49.364Z</time></trkpt><trkpt lat="46.8196027" lon="10.5247624"><ele>1497.0</ele><time>2026-03-24T09:00:50.364Z</time></trkpt><trkpt lat="46.819555" lon="10.524839"><ele>1497.0</ele><time>2026-03-24T09:00:51.373Z</time></trkpt><trkpt lat="46.8195082" lon="10.5249178"><ele>1497.142857142857</ele><time>2026-03-24T09:00:52.365Z</time></trkpt><trkpt lat="46.8194618" lon="10.524999"><ele>1497.2857142857142</ele><time>2026-03-24T09:00:53.367Z</time></trkpt><trkpt lat="46.8194171" lon="10.5250825"><ele>1497.4285714285716</ele><time>2026-03-24T09:00:54.358Z</time></trkpt><trkpt lat="46.8193741" lon="10.5251676"><ele>1497.5714285714284</ele><time>2026-03-24T09:00:55.364Z</time></trkpt><trkpt lat="46.8193344" lon="10.5252558"><ele>1497.7142857142858</ele><time>2026-03-24T09:00:56.371Z</time></trkpt><trkpt lat="46.8192961" lon="10.525345"><ele>1497.857142857143</ele><time>2026-03-24T09:00:57.368Z</time></trkpt><trkpt lat="46.8192607" lon="10.5254367"><ele>1498.0</ele><time>2026-03-24T09:00:58.363Z</time></trkpt><trkpt lat="46.819225" lon="10.5255284"><ele>1498.0</ele><time>2026-03-24T09:00:59.353Z</time></trkpt><trkpt lat="46.8191888" lon="10.5256209"><ele>1498.0</ele><time>2026-03-24T09:01:00.374Z</time></trkpt><trkpt lat="46.8191518" lon="10.5257127"><ele>1498.0</ele><time>2026-03-24T09:01:01.371Z</time></trkpt><trkpt lat="46.8191154" lon="10.5258045"><ele>1498.0</ele><time>2026-03-24T09:01:02.365Z</time></trkpt><trkpt lat="46.8190777" lon="10.5258961"><ele>1498.0</ele><time>2026-03-24T09:01:03.367Z</time></trkpt><trkpt lat="46.8190409" lon="10.5259885"><ele>1498.0</ele><time>2026-03-24T09:01:04.354Z</time></trkpt><trkpt lat="46.8190053" lon="10.5260826"><ele>1498.0</ele><time>2026-03-24T09:01:05.361Z</time></trkpt><trkpt lat="46.8189696" lon="10.5261766"><ele>1498.5714285714287</ele><time>2026-03-24T09:01:06.361Z</time></trkpt><trkpt lat="46.8189338" lon="10.5262711"><ele>1499.142857142857</ele><time>2026-03-24T09:01:07.364Z</time></trkpt><trkpt lat="46.8188967" lon="10.526365"><ele>1499.7142857142858</ele><time>2026-03-24T09:01:08.364Z</time></trkpt><trkpt lat="46.8188601" lon="10.5264592"><ele>1500.2857142857142</ele><time>2026-03-24T09:01:09.362Z</time></trkpt><trkpt lat="46.8188244" lon="10.5265532"><ele>1500.857142857143</ele><time>2026-03-24T09:01:10.358Z</time></trkpt><trkpt lat="46.8187906" lon="10.5266471"><ele>1501.4285714285716</ele><time>2026-03-24T09:01:11.366Z</time></trkpt><trkpt lat="46.8187574" lon="10.5267412"><ele>1502.0</ele><time>2026-03-24T09:01:12.358Z</time></trkpt><trkpt lat="46.8187253" lon="10.5268355"><ele>1502.0000000000002</ele><time>2026-03-24T09:01:13.359Z</time></trkpt><trkpt lat="46.8186949" lon="10.5269303"><ele>1502.0</ele><time>2026-03-24T09:01:14.37Z</time></trkpt><trkpt lat="46.8186657" lon="10.527025"><ele>1502.0</ele><time>2026-03-24T09:01:15.366Z</time></trkpt><trkpt lat="46.8186382" lon="10.5271197"><ele>1502.0</ele><time>2026-03-24T09:01:16.357Z</time></trkpt><trkpt lat="46.8186131" lon="10.5272153"><ele>1502.0</ele><time>2026-03-24T09:01:17.359Z</time></trkpt><trkpt lat="46.8185903" lon="10.5273117"><ele>1502.0000000000002</ele><time>2026-03-24T09:01:18.366Z</time></trkpt><trkpt lat="46.81857" lon="10.5274082"><ele>1502.0</ele><time>2026-03-24T09:01:19.374Z</time></trkpt><trkpt lat="46.8185511" lon="10.5275055"><ele>1501.857142857143</ele><time>2026-03-24T09:01:20.352Z</time></trkpt><trkpt lat="46.8185342" lon="10.5276043"><ele>1501.7142857142858</ele><time>2026-03-24T09:01:21.361Z</time></trkpt><trkpt lat="46.8185178" lon="10.5277026"><ele>1501.5714285714284</ele><time>2026-03-24T09:01:22.366Z</time></trkpt><trkpt lat="46.8185035" lon="10.5278008"><ele>1501.4285714285716</ele><time>2026-03-24T09:01:23.362Z</time></trkpt><trkpt lat="46.8184882" lon="10.5278993"><ele>1501.2857142857142</ele><time>2026-03-24T09:01:24.38Z</time></trkpt><trkpt lat="46.8184743" lon="10.5279983"><ele>1501.142857142857</ele><time>2026-03-24T09:01:25.364Z</time></trkpt><trkpt lat="46.8184608" lon="10.528097"><ele>1501.0</ele><time>2026-03-24T09:01:26.361Z</time></trkpt><trkpt lat="46.8184483" lon="10.528195"><ele>1500.9999999999998</ele><time>2026-03-24T09:01:27.382Z</time></trkpt><trkpt lat="46.8184367" lon="10.5282928"><ele>1501.0</ele><time>2026-03-24T09:01:28.366Z</time></trkpt><trkpt lat="46.8184256" lon="10.5283904"><ele>1501.0</ele><time>2026-03-24T09:01:29.368Z</time></trkpt><trkpt lat="46.818413" lon="10.5284874"><ele>1501.0</ele><time>2026-03-24T09:01:30.355Z</time></trkpt><trkpt lat="46.8184004" lon="10.5285843"><ele>1501.0</ele><time>2026-03-24T09:01:31.366Z</time></trkpt><trkpt lat="46.8183881" lon="10.5286811"><ele>1500.9999999999998</ele><time>2026-03-24T09:01:32.36Z</time></trkpt><trkpt lat="46.8183762" lon="10.5287781"><ele>1501.0</ele><time>2026-03-24T09:01:33.369Z</time></trkpt><trkpt lat="46.8183639" lon="10.5288752"><ele>1501.2857142857142</ele><time>2026-03-24T09:01:34.361Z</time></trkpt><trkpt lat="46.8183517" lon="10.5289734"><ele>1501.5714285714284</ele><time>2026-03-24T09:01:35.369Z</time></trkpt><trkpt lat="46.818339" lon="10.5290715"><ele>1501.8571428571427</ele><time>2026-03-24T09:01:36.372Z</time></trkpt><trkpt lat="46.8183275" lon="10.5291651"><ele>1502.142857142857</ele><time>2026-03-24T09:01:37.374Z</time></trkpt><trkpt lat="46.8183161" lon="10.5292595"><ele>1502.4285714285716</ele><time>2026-03-24T09:01:38.369Z</time></trkpt><trkpt lat="46.8183037" lon="10.5293562"><ele>1502.7142857142856</ele><time>2026-03-24T09:01:39.364Z</time></trkpt><trkpt lat="46.8182898" lon="10.5294519"><ele>1503.0</ele><time>2026-03-24T09:01:40.368Z</time></trkpt><trkpt lat="46.8182736" lon="10.5295487"><ele>1503.5714285714284</ele><time>2026-03-24T09:01:41.383Z</time></trkpt><trkpt lat="46.8182536" lon="10.5296443"><ele>1504.1428571428573</ele><time>2026-03-24T09:01:42.361Z</time></trkpt><trkpt lat="46.8182284" lon="10.5297381"><ele>1504.7142857142858</ele><time>2026-03-24T09:01:43.369Z</time></trkpt><trkpt lat="46.8181976" lon="10.5298295"><ele>1505.2857142857142</ele><time>2026-03-24T09:01:44.367Z</time></trkpt><trkpt lat="46.818164" lon="10.5299184"><ele>1505.8571428571427</ele><time>2026-03-24T09:01:45.368Z</time></trkpt><trkpt lat="46.8181228" lon="10.5300019"><ele>1506.4285714285716</ele><time>2026-03-24T09:01:46.367Z</time></trkpt><trkpt lat="46.818076" lon="10.5300802"><ele>1507.0</ele><time>2026-03-24T09:01:47.365Z</time></trkpt><trkpt lat="46.8180266" lon="10.5301541"><ele>1507.0</ele><time>2026-03-24T09:01:48.362Z</time></trkpt><trkpt lat="46.8179732" lon="10.5302234"><ele>1507.0</ele><time>2026-03-24T09:01:49.368Z</time></trkpt><trkpt lat="46.8179159" lon="10.5302867"><ele>1507.0</ele><time>2026-03-24T09:01:50.362Z</time></trkpt><trkpt lat="46.8178549" lon="10.5303416"><ele>1507.0</ele><time>2026-03-24T09:01:51.358Z</time></trkpt><trkpt lat="46.8177905" lon="10.530387"><ele>1507.0</ele><time>2026-03-24T09:01:52.364Z</time></trkpt><trkpt lat="46.8177243" lon="10.5304264"><ele>1507.0</ele><time>2026-03-24T09:01:53.37Z</time></trkpt><trkpt lat="46.8176568" lon="10.5304608"><ele>1507.0</ele><time>2026-03-24T09:01:54.359Z</time></trkpt><trkpt lat="46.8175882" lon="10.5304902"><ele>1508.4285714285716</ele><time>2026-03-24T09:01:55.366Z</time></trkpt><trkpt lat="46.817519" lon="10.5305176"><ele>1509.8571428571427</ele><time>2026-03-24T09:01:56.38Z</time></trkpt><trkpt lat="46.817448" lon="10.5305476"><ele>1511.2857142857142</ele><time>2026-03-24T09:01:57.373Z</time></trkpt><trkpt lat="46.8173766" lon="10.5305734"><ele>1512.7142857142858</ele><time>2026-03-24T09:01:58.369Z</time></trkpt><trkpt lat="46.8173062" lon="10.530599"><ele>1514.1428571428573</ele><time>2026-03-24T09:01:59.365Z</time></trkpt><trkpt lat="46.8172356" lon="10.5306249"><ele>1515.5714285714284</ele><time>2026-03-24T09:02:00.362Z</time></trkpt><trkpt lat="46.8171663" lon="10.5306522"><ele>1517.0</ele><time>2026-03-24T09:02:01.359Z</time></trkpt><trkpt lat="46.8170957" lon="10.5306782"><ele>1517.0</ele><time>2026-03-24T09:02:02.359Z</time></trkpt><trkpt lat="46.8170262" lon="10.5307038"><ele>1517.0</ele><time>2026-03-24T09:02:03.364Z</time></trkpt><trkpt lat="46.8169574" lon="10.5307278"><ele>1517.0</ele><time>2026-03-24T09:02:04.365Z</time></trkpt><trkpt lat="46.8168895" lon="10.5307546"><ele>1517.0</ele><time>2026-03-24T09:02:05.358Z</time></trkpt><trkpt lat="46.8168224" lon="10.5307839"><ele>1517.0</ele><time>2026-03-24T09:02:06.36Z</time></trkpt><trkpt lat="46.8167571" lon="10.5308149"><ele>1517.0</ele><time>2026-03-24T09:02:07.361Z</time></trkpt><trkpt lat="46.8166918" lon="10.5308475"><ele>1517.0</ele><time>2026-03-24T09:02:08.363Z</time></trkpt><trkpt lat="46.8166276" lon="10.5308829"><ele>1513.857142857143</ele><time>2026-03-24T09:02:09.366Z</time></trkpt><trkpt lat="46.8165645" lon="10.5309208"><ele>1510.7142857142858</ele><time>2026-03-24T09:02:10.367Z</time></trkpt><trkpt lat="46.8165021" lon="10.5309622"><ele>1507.5714285714287</ele><time>2026-03-24T09:02:11.375Z</time></trkpt><trkpt lat="46.8164397" lon="10.5310051"><ele>1504.4285714285716</ele><time>2026-03-24T09:02:12.355Z</time></trkpt><trkpt lat="46.8163785" lon="10.5310492"><ele>1501.2857142857142</ele><time>2026-03-24T09:02:13.367Z</time></trkpt><trkpt lat="46.8163157" lon="10.5310942"><ele>1498.1428571428573</ele><time>2026-03-24T09:02:14.372Z</time></trkpt><trkpt lat="46.8162501" lon="10.531142"><ele>1495.0</ele><time>2026-03-24T09:02:15.365Z</time></trkpt><trkpt lat="46.8161861" lon="10.5311932"><ele>1497.4285714285716</ele><time>2026-03-24T09:02:16.361Z</time></trkpt><trkpt lat="46.8161224" lon="10.5312419"><ele>1499.857142857143</ele><time>2026-03-24T09:02:17.362Z</time></trkpt><trkpt lat="46.8160569" lon="10.5312857"><ele>1502.2857142857142</ele><time>2026-03-24T09:02:18.354Z</time></trkpt><trkpt lat="46.8159941" lon="10.5313317"><ele>1504.7142857142858</ele><time>2026-03-24T09:02:19.359Z</time></trkpt><trkpt lat="46.8159316" lon="10.531379"><ele>1507.142857142857</ele><time>2026-03-24T09:02:20.369Z</time></trkpt><trkpt lat="46.8158695" lon="10.531427"><ele>1509.5714285714287</ele><time>2026-03-24T09:02:21.367Z</time></trkpt><trkpt lat="46.8158071" lon="10.5314727"><ele>1512.0</ele><time>2026-03-24T09:02:22.362Z</time></trkpt><trkpt lat="46.8157441" lon="10.5315174"><ele>1512.0</ele><time>2026-03-24T09:02:23.361Z</time></trkpt><trkpt lat="46.8156812" lon="10.5315636"><ele>1512.0</ele><time>2026-03-24T09:02:24.353Z</time></trkpt><trkpt lat="46.8156206" lon="10.5316111"><ele>1512.0</ele><time>2026-03-24T09:02:25.352Z</time></trkpt><trkpt lat="46.815559" lon="10.5316575"><ele>1512.0</ele><time>2026-03-24T09:02:26.355Z</time></trkpt><trkpt lat="46.815498" lon="10.5317027"><ele>1512.0</ele><time>2026-03-24T09:02:27.355Z</time></trkpt><trkpt lat="46.8154355" lon="10.5317474"><ele>1512.0</ele><time>2026-03-24T09:02:28.366Z</time></trkpt><trkpt lat="46.8153731" lon="10.5317926"><ele>1512.0</ele><time>2026-03-24T09:02:29.363Z</time></trkpt><trkpt lat="46.8153101" lon="10.5318384"><ele>1512.0</ele><time>2026-03-24T09:02:30.373Z</time></trkpt><trkpt lat="46.8152467" lon="10.5318855"><ele>1512.0</ele><time>2026-03-24T09:02:31.353Z</time></trkpt><trkpt lat="46.8151837" lon="10.5319329"><ele>1512.0</ele><time>2026-03-24T09:02:32.357Z</time></trkpt><trkpt lat="46.8151207" lon="10.5319822"><ele>1512.0</ele><time>2026-03-24T09:02:33.376Z</time></trkpt><trkpt lat="46.8150586" lon="10.5320296"><ele>1512.0</ele><time>2026-03-24T09:02:34.364Z</time></trkpt><trkpt lat="46.8149942" lon="10.5320776"><ele>1512.0</ele><time>2026-03-24T09:02:35.362Z</time></trkpt><trkpt lat="46.8149323" lon="10.5321264"><ele>1512.0</ele><time>2026-03-24T09:02:36.368Z</time></trkpt><trkpt lat="46.8148689" lon="10.5321779"><ele>1513.0</ele><time>2026-03-24T09:02:37.365Z</time></trkpt><trkpt lat="46.8148078" lon="10.5322285"><ele>1514.0</ele><time>2026-03-24T09:02:38.366Z</time></trkpt><trkpt lat="46.8147496" lon="10.5322814"><ele>1515.0</ele><time>2026-03-24T09:02:39.369Z</time></trkpt><trkpt lat="46.8146936" lon="10.5323381"><ele>1516.0</ele><time>2026-03-24T09:02:40.364Z</time></trkpt><trkpt lat="46.8146392" lon="10.5323996"><ele>1517.0</ele><time>2026-03-24T09:02:41.367Z</time></trkpt><trkpt lat="46.8145878" lon="10.5324657"><ele>1518.0</ele><time>2026-03-24T09:02:42.361Z</time></trkpt><trkpt lat="46.8145378" lon="10.5325341"><ele>1519.0</ele><time>2026-03-24T09:02:43.353Z</time></trkpt><trkpt lat="46.8144904" lon="10.5326003"><ele>1519.0</ele><time>2026-03-24T09:02:44.354Z</time></trkpt><trkpt lat="46.8144498" lon="10.5326711"><ele>1519.0</ele><time>2026-03-24T09:02:45.359Z</time></trkpt><trkpt lat="46.8144072" lon="10.5327499"><ele>1519.0</ele><time>2026-03-24T09:02:46.359Z</time></trkpt><trkpt lat="46.8143624" lon="10.5328277"><ele>1519.0</ele><time>2026-03-24T09:02:47.372Z</time></trkpt><trkpt lat="46.8143169" lon="10.5329065"><ele>1519.0</ele><time>2026-03-24T09:02:48.374Z</time></trkpt><trkpt lat="46.8142709" lon="10.5329848"><ele>1519.0</ele><time>2026-03-24T09:02:49.363Z</time></trkpt><trkpt lat="46.8142255" lon="10.5330633"><ele>1519.0</ele><time>2026-03-24T09:02:50.373Z</time></trkpt><trkpt lat="46.8141815" lon="10.5331434"><ele>1517.142857142857</ele><time>2026-03-24T09:02:51.372Z</time></trkpt><trkpt lat="46.8141383" lon="10.5332217"><ele>1515.2857142857142</ele><time>2026-03-24T09:02:52.369Z</time></trkpt><trkpt lat="46.8140934" lon="10.5332983"><ele>1513.4285714285716</ele><time>2026-03-24T09:02:53.362Z</time></trkpt><trkpt lat="46.8140477" lon="10.5333761"><ele>1511.5714285714284</ele><time>2026-03-24T09:02:54.374Z</time></trkpt><trkpt lat="46.8140015" lon="10.5334527"><ele>1509.7142857142858</ele><time>2026-03-24T09:02:55.362Z</time></trkpt><trkpt lat="46.8139586" lon="10.5335262"><ele>1507.857142857143</ele><time>2026-03-24T09:02:56.36Z</time></trkpt><trkpt lat="46.8139135" lon="10.5336009"><ele>1506.0</ele><time>2026-03-24T09:02:57.366Z</time></trkpt><trkpt lat="46.8138675" lon="10.533679"><ele>1510.5714285714287</ele><time>2026-03-24T09:02:58.363Z</time></trkpt><trkpt lat="46.8138214" lon="10.5337554"><ele>1515.1428571428573</ele><time>2026-03-24T09:02:59.358Z</time></trkpt><trkpt lat="46.8137754" lon="10.5338345"><ele>1519.7142857142858</ele><time>2026-03-24T09:03:00.369Z</time></trkpt><trkpt lat="46.8137292" lon="10.5339132"><ele>1524.2857142857142</ele><time>2026-03-24T09:03:01.365Z</time></trkpt><trkpt lat="46.8136835" lon="10.5339893"><ele>1528.857142857143</ele><time>2026-03-24T09:03:02.36Z</time></trkpt><trkpt lat="46.8136376" lon="10.534065"><ele>1533.4285714285713</ele><time>2026-03-24T09:03:03.366Z</time></trkpt><trkpt lat="46.8135909" lon="10.5341393"><ele>1538.0</ele><time>2026-03-24T09:03:04.365Z</time></trkpt><trkpt lat="46.8135432" lon="10.534213"><ele>1538.0</ele><time>2026-03-24T09:03:05.363Z</time></trkpt><trkpt lat="46.8134944" lon="10.5342861"><ele>1538.0</ele><time>2026-03-24T09:03:06.361Z</time></trkpt><trkpt lat="46.8134481" lon="10.5343562"><ele>1538.0</ele><time>2026-03-24T09:03:07.366Z</time></trkpt><trkpt lat="46.8133935" lon="10.5344248"><ele>1538.0</ele><time>2026-03-24T09:03:08.364Z</time></trkpt><trkpt lat="46.8133382" lon="10.534493"><ele>1538.0</ele><time>2026-03-24T09:03:09.37Z</time></trkpt><trkpt lat="46.8132803" lon="10.5345583"><ele>1538.0</ele><time>2026-03-24T09:03:10.367Z</time></trkpt><trkpt lat="46.8132239" lon="10.534624"><ele>1538.0</ele><time>2026-03-24T09:03:11.378Z</time></trkpt><trkpt lat="46.8131662" lon="10.5346883"><ele>1536.2857142857142</ele><time>2026-03-24T09:03:12.361Z</time></trkpt><trkpt lat="46.8131074" lon="10.534752"><ele>1534.5714285714287</ele><time>2026-03-24T09:03:13.369Z</time></trkpt><trkpt lat="46.8130497" lon="10.5348156"><ele>1532.857142857143</ele><time>2026-03-24T09:03:14.361Z</time></trkpt><trkpt lat="46.8129932" lon="10.5348779"><ele>1531.142857142857</ele><time>2026-03-24T09:03:15.37Z</time></trkpt><trkpt lat="46.8129361" lon="10.5349416"><ele>1529.4285714285716</ele><time>2026-03-24T09:03:16.363Z</time></trkpt><trkpt lat="46.8128794" lon="10.5350034"><ele>1527.7142857142858</ele><time>2026-03-24T09:03:17.365Z</time></trkpt><trkpt lat="46.812822" lon="10.5350649"><ele>1526.0</ele><time>2026-03-24T09:03:18.373Z</time></trkpt><trkpt lat="46.8127655" lon="10.535127"><ele>1526.0</ele><time>2026-03-24T09:03:19.362Z</time></trkpt><trkpt lat="46.8127075" lon="10.5351881"><ele>1526.0</ele><time>2026-03-24T09:03:20.371Z</time></trkpt><trkpt lat="46.8126508" lon="10.5352502"><ele>1526.0</ele><time>2026-03-24T09:03:21.368Z</time></trkpt><trkpt lat="46.8125944" lon="10.5353119"><ele>1526.0</ele><time>2026-03-24T09:03:22.362Z</time></trkpt><trkpt lat="46.8125386" lon="10.5353743"><ele>1526.0</ele><time>2026-03-24T09:03:23.37Z</time></trkpt><trkpt lat="46.8124825" lon="10.5354375"><ele>1526.0</ele><time>2026-03-24T09:03:24.359Z</time></trkpt><trkpt lat="46.8124272" lon="10.5355013"><ele>1526.0</ele><time>2026-03-24T09:03:25.362Z</time></trkpt><trkpt lat="46.8123722" lon="10.5355662"><ele>1525.7142857142858</ele><time>2026-03-24T09:03:26.362Z</time></trkpt><trkpt lat="46.8123171" lon="10.5356317"><ele>1525.4285714285716</ele><time>2026-03-24T09:03:27.37Z</time></trkpt><trkpt lat="46.8122642" lon="10.5357006"><ele>1525.142857142857</ele><time>2026-03-24T09:03:28.368Z</time></trkpt><trkpt lat="46.8122111" lon="10.5357717"><ele>1524.857142857143</ele><time>2026-03-24T09:03:29.362Z</time></trkpt><trkpt lat="46.8121583" lon="10.5358426"><ele>1524.5714285714287</ele><time>2026-03-24T09:03:30.368Z</time></trkpt><trkpt lat="46.8121065" lon="10.5359157"><ele>1524.2857142857142</ele><time>2026-03-24T09:03:31.369Z</time></trkpt><trkpt lat="46.8120568" lon="10.5359926"><ele>1524.0</ele><time>2026-03-24T09:03:32.369Z</time></trkpt><trkpt lat="46.8120102" lon="10.5360717"><ele>1524.0</ele><time>2026-03-24T09:03:33.368Z</time></trkpt><trkpt lat="46.811966" lon="10.5361535"><ele>1524.0</ele><time>2026-03-24T09:03:34.359Z</time></trkpt><trkpt lat="46.8119235" lon="10.5362359"><ele>1524.0</ele><time>2026-03-24T09:03:35.361Z</time></trkpt><trkpt lat="46.8118841" lon="10.5363224"><ele>1524.0</ele><time>2026-03-24T09:03:36.371Z</time></trkpt><trkpt lat="46.8118476" lon="10.5364031"><ele>1524.0</ele><time>2026-03-24T09:03:37.38Z</time></trkpt><trkpt lat="46.811814" lon="10.5364901"><ele>1524.0</ele><time>2026-03-24T09:03:38.362Z</time></trkpt><trkpt lat="46.8117819" lon="10.5365772"><ele>1524.0</ele><time>2026-03-24T09:03:39.361Z</time></trkpt><trkpt lat="46.8117477" lon="10.5366651"><ele>1523.2857142857142</ele><time>2026-03-24T09:03:40.365Z</time></trkpt><trkpt lat="46.8117132" lon="10.5367545"><ele>1522.5714285714287</ele><time>2026-03-24T09:03:41.369Z</time></trkpt><trkpt lat="46.8116773" lon="10.536846"><ele>1521.857142857143</ele><time>2026-03-24T09:03:42.367Z</time></trkpt><trkpt lat="46.8116437" lon="10.536937"><ele>1521.142857142857</ele><time>2026-03-24T09:03:43.369Z</time></trkpt><trkpt lat="46.8116096" lon="10.5370278"><ele>1520.4285714285716</ele><time>2026-03-24T09:03:44.365Z</time></trkpt><trkpt lat="46.8115758" lon="10.5371181"><ele>1519.7142857142858</ele><time>2026-03-24T09:03:45.362Z</time></trkpt><trkpt lat="46.8115431" lon="10.5372087"><ele>1519.0</ele><time>2026-03-24T09:03:46.371Z</time></trkpt><trkpt lat="46.8115087" lon="10.5372995"><ele>1519.0</ele><time>2026-03-24T09:03:47.367Z</time></trkpt><trkpt lat="46.8114724" lon="10.5373895"><ele>1519.0</ele><time>2026-03-24T09:03:48.37Z</time></trkpt><trkpt lat="46.8114353" lon="10.5374789"><ele>1519.0</ele><time>2026-03-24T09:03:49.358Z</time></trkpt><trkpt lat="46.8113893" lon="10.5375628"><ele>1519.0</ele><time>2026-03-24T09:03:50.376Z</time></trkpt><trkpt lat="46.8113354" lon="10.5376386"><ele>1519.0</ele><time>2026-03-24T09:03:51.369Z</time></trkpt><trkpt lat="46.8112763" lon="10.5377086"><ele>1519.0</ele><time>2026-03-24T09:03:52.377Z</time></trkpt><trkpt lat="46.8112168" lon="10.5377795"><ele>1519.0</ele><time>2026-03-24T09:03:53.366Z</time></trkpt><trkpt lat="46.8111595" lon="10.5378526"><ele>1518.1666666666665</ele><time>2026-03-24T09:03:54.37Z</time></trkpt><trkpt lat="46.8111046" lon="10.537929"><ele>1517.3333333333333</ele><time>2026-03-24T09:03:55.374Z</time></trkpt><trkpt lat="46.81105" lon="10.5380061"><ele>1516.5</ele><time>2026-03-24T09:03:56.362Z</time></trkpt><trkpt lat="46.8109953" lon="10.538082"><ele>1515.6666666666667</ele><time>2026-03-24T09:03:57.367Z</time></trkpt><trkpt lat="46.8109412" lon="10.5381598"><ele>1514.8333333333335</ele><time>2026-03-24T09:03:58.368Z</time></trkpt><trkpt lat="46.8108905" lon="10.5382388"><ele>1514.0</ele><time>2026-03-24T09:03:59.362Z</time></trkpt><trkpt lat="46.8108388" lon="10.5383196"><ele>1514.0</ele><time>2026-03-24T09:04:00.362Z</time></trkpt><trkpt lat="46.8107878" lon="10.5383989"><ele>1514.0</ele><time>2026-03-24T09:04:01.366Z</time></trkpt><trkpt lat="46.810728" lon="10.5384642"><ele>1514.0</ele><time>2026-03-24T09:04:02.366Z</time></trkpt><trkpt lat="46.8106666" lon="10.5385237"><ele>1514.0</ele><time>2026-03-24T09:04:03.365Z</time></trkpt><trkpt lat="46.8106062" lon="10.5385822"><ele>1514.0</ele><time>2026-03-24T09:04:04.362Z</time></trkpt><trkpt lat="46.8105464" lon="10.5386426"><ele>1514.0</ele><time>2026-03-24T09:04:05.371Z</time></trkpt><trkpt lat="46.8104872" lon="10.5387002"><ele>1514.0</ele><time>2026-03-24T09:04:06.371Z</time></trkpt><trkpt lat="46.8104276" lon="10.5387598"><ele>1515.2857142857144</ele><time>2026-03-24T09:04:07.369Z</time></trkpt><trkpt lat="46.8103663" lon="10.5388211"><ele>1516.5714285714284</ele><time>2026-03-24T09:04:08.363Z</time></trkpt><trkpt lat="46.8103021" lon="10.5388848"><ele>1517.857142857143</ele><time>2026-03-24T09:04:09.37Z</time></trkpt><trkpt lat="46.810242" lon="10.5389461"><ele>1519.1428571428573</ele><time>2026-03-24T09:04:10.37Z</time></trkpt><trkpt lat="46.8101867" lon="10.5390044"><ele>1520.4285714285716</ele><time>2026-03-24T09:04:11.358Z</time></trkpt><trkpt lat="46.8101323" lon="10.5390648"><ele>1521.7142857142858</ele><time>2026-03-24T09:04:12.358Z</time></trkpt><trkpt lat="46.8100814" lon="10.5391225"><ele>1523.0</ele><time>2026-03-24T09:04:13.363Z</time></trkpt><trkpt lat="46.8099819" lon="10.539233"><ele>1523.0</ele><time>2026-03-24T09:04:15.355Z</time></trkpt><trkpt lat="46.809893" lon="10.5393432"><ele>1523.0</ele><time>2026-03-24T09:04:17.358Z</time></trkpt><trkpt lat="46.80951" lon="10.5398376"><ele>1522.25</ele><time>2026-03-24T09:04:24.347Z</time></trkpt><trkpt lat="46.809414" lon="10.5400407"><ele>1521.5</ele><time>2026-03-24T09:04:26.371Z</time></trkpt><trkpt lat="46.8093303" lon="10.540115"><ele>1520.75</ele><time>2026-03-24T09:04:27.364Z</time></trkpt><trkpt lat="46.8092611" lon="10.5402116"><ele>1520.0</ele><time>2026-03-24T09:04:28.362Z</time></trkpt><trkpt lat="46.8091889" lon="10.5402923"><ele>1520.0</ele><time>2026-03-24T09:04:29.351Z</time></trkpt><trkpt lat="46.8091326" lon="10.5403762"><ele>1520.0</ele><time>2026-03-24T09:04:30.35Z</time></trkpt><trkpt lat="46.8090672" lon="10.5404409"><ele>1520.0</ele><time>2026-03-24T09:04:31.357Z</time></trkpt><trkpt lat="46.8089941" lon="10.5405035"><ele>1520.0</ele><time>2026-03-24T09:04:32.356Z</time></trkpt><trkpt lat="46.8088816" lon="10.5405722"><ele>1520.0</ele><time>2026-03-24T09:04:33.343Z</time></trkpt><trkpt lat="46.8087577" lon="10.5405758"><ele>1519.6</ele><time>2026-03-24T09:04:34.354Z</time></trkpt><trkpt lat="46.8086576" lon="10.5405945"><ele>1519.2</ele><time>2026-03-24T09:04:35.367Z</time></trkpt><trkpt lat="46.8085649" lon="10.5406137"><ele>1518.8000000000002</ele><time>2026-03-24T09:04:36.364Z</time></trkpt><trkpt lat="46.8084784" lon="10.5406544"><ele>1518.4</ele><time>2026-03-24T09:04:37.36Z</time></trkpt><trkpt lat="46.8084046" lon="10.5406903"><ele>1518.0</ele><time>2026-03-24T09:04:38.351Z</time></trkpt><trkpt lat="46.8083006" lon="10.5407933"><ele>1516.142857142857</ele><time>2026-03-24T09:04:40.38Z</time></trkpt><trkpt lat="46.8082363" lon="10.5408386"><ele>1514.2857142857142</ele><time>2026-03-24T09:04:41.358Z</time></trkpt><trkpt lat="46.8081753" lon="10.5408917"><ele>1512.4285714285716</ele><time>2026-03-24T09:04:42.354Z</time></trkpt><trkpt lat="46.8081175" lon="10.5409439"><ele>1510.5714285714284</ele><time>2026-03-24T09:04:43.37Z</time></trkpt><trkpt lat="46.8080551" lon="10.540996"><ele>1508.7142857142858</ele><time>2026-03-24T09:04:44.36Z</time></trkpt><trkpt lat="46.8079927" lon="10.5410492"><ele>1506.857142857143</ele><time>2026-03-24T09:04:45.354Z</time></trkpt><trkpt lat="46.8079303" lon="10.5411032"><ele>1505.0</ele><time>2026-03-24T09:04:46.364Z</time></trkpt><trkpt lat="46.8078722" lon="10.5411584"><ele>1505.0</ele><time>2026-03-24T09:04:47.361Z</time></trkpt><trkpt lat="46.8078128" lon="10.541212"><ele>1505.0</ele><time>2026-03-24T09:04:48.36Z</time></trkpt><trkpt lat="46.807753" lon="10.5412667"><ele>1505.0</ele><time>2026-03-24T09:04:49.36Z</time></trkpt><trkpt lat="46.8076926" lon="10.5413213"><ele>1505.0</ele><time>2026-03-24T09:04:50.368Z</time></trkpt><trkpt lat="46.8076308" lon="10.5413733"><ele>1505.0</ele><time>2026-03-24T09:04:51.362Z</time></trkpt><trkpt lat="46.8075708" lon="10.5414294"><ele>1505.0</ele><time>2026-03-24T09:04:52.366Z</time></trkpt><trkpt lat="46.8075101" lon="10.5414823"><ele>1505.0</ele><time>2026-03-24T09:04:53.371Z</time></trkpt><trkpt lat="46.8074482" lon="10.5415335"><ele>1505.7142857142858</ele><time>2026-03-24T09:04:54.362Z</time></trkpt><trkpt lat="46.8073858" lon="10.5415837"><ele>1506.4285714285716</ele><time>2026-03-24T09:04:55.353Z</time></trkpt><trkpt lat="46.8073239" lon="10.5416315"><ele>1507.142857142857</ele><time>2026-03-24T09:04:56.365Z</time></trkpt><trkpt lat="46.80726" lon="10.5416763"><ele>1507.857142857143</ele><time>2026-03-24T09:04:57.367Z</time></trkpt><trkpt lat="46.8071951" lon="10.5417163"><ele>1508.5714285714287</ele><time>2026-03-24T09:04:58.366Z</time></trkpt><trkpt lat="46.807131" lon="10.5417512"><ele>1509.2857142857142</ele><time>2026-03-24T09:04:59.358Z</time></trkpt><trkpt lat="46.8070657" lon="10.5417823"><ele>1510.0</ele><time>2026-03-24T09:05:00.356Z</time></trkpt><trkpt lat="46.8070002" lon="10.5418093"><ele>1510.0</ele><time>2026-03-24T09:05:01.359Z</time></trkpt><trkpt lat="46.8069349" lon="10.5418336"><ele>1510.0</ele><time>2026-03-24T09:05:02.351Z</time></trkpt><trkpt lat="46.8068685" lon="10.541851"><ele>1510.0</ele><time>2026-03-24T09:05:03.372Z</time></trkpt><trkpt lat="46.8068037" lon="10.541864"><ele>1510.0</ele><time>2026-03-24T09:05:04.36Z</time></trkpt><trkpt lat="46.806739" lon="10.541875"><ele>1510.0</ele><time>2026-03-24T09:05:05.355Z</time></trkpt><trkpt lat="46.8066754" lon="10.5418855"><ele>1510.0</ele><time>2026-03-24T09:05:06.358Z</time></trkpt><trkpt lat="46.8066121" lon="10.5418913"><ele>1510.0</ele><time>2026-03-24T09:05:07.358Z</time></trkpt><trkpt lat="46.8065479" lon="10.5418935"><ele>1508.5714285714284</ele><time>2026-03-24T09:05:08.359Z</time></trkpt><trkpt lat="46.8064846" lon="10.5418928"><ele>1507.1428571428573</ele><time>2026-03-24T09:05:09.364Z</time></trkpt><trkpt lat="46.8064206" lon="10.5418892"><ele>1505.7142857142858</ele><time>2026-03-24T09:05:10.358Z</time></trkpt><trkpt lat="46.8063566" lon="10.5418811"><ele>1504.2857142857142</ele><time>2026-03-24T09:05:11.359Z</time></trkpt><trkpt lat="46.8062921" lon="10.5418718"><ele>1502.8571428571427</ele><time>2026-03-24T09:05:12.37Z</time></trkpt><trkpt lat="46.8062277" lon="10.541861"><ele>1501.4285714285716</ele><time>2026-03-24T09:05:13.358Z</time></trkpt><trkpt lat="46.806164" lon="10.5418452"><ele>1500.0</ele><time>2026-03-24T09:05:14.358Z</time></trkpt><trkpt lat="46.8060981" lon="10.5418291"><ele>1500.0</ele><time>2026-03-24T09:05:15.353Z</time></trkpt><trkpt lat="46.8060333" lon="10.5418051"><ele>1500.0</ele><time>2026-03-24T09:05:16.373Z</time></trkpt><trkpt lat="46.80597" lon="10.541776"><ele>1500.0</ele><time>2026-03-24T09:05:17.36Z</time></trkpt><trkpt lat="46.8059077" lon="10.541744"><ele>1500.0</ele><time>2026-03-24T09:05:18.356Z</time></trkpt><trkpt lat="46.8058444" lon="10.5417136"><ele>1500.0</ele><time>2026-03-24T09:05:19.365Z</time></trkpt><trkpt lat="46.8057817" lon="10.5416846"><ele>1500.0</ele><time>2026-03-24T09:05:20.375Z</time></trkpt><trkpt lat="46.8057199" lon="10.5416534"><ele>1500.0</ele><time>2026-03-24T09:05:21.36Z</time></trkpt><trkpt lat="46.8056581" lon="10.5416224"><ele>1499.857142857143</ele><time>2026-03-24T09:05:22.363Z</time></trkpt><trkpt lat="46.8055964" lon="10.5415919"><ele>1499.7142857142856</ele><time>2026-03-24T09:05:23.358Z</time></trkpt><trkpt lat="46.805534" lon="10.5415597"><ele>1499.5714285714284</ele><time>2026-03-24T09:05:24.359Z</time></trkpt><trkpt lat="46.8054711" lon="10.5415289"><ele>1499.4285714285716</ele><time>2026-03-24T09:05:25.371Z</time></trkpt><trkpt lat="46.8054083" lon="10.5414976"><ele>1499.2857142857142</ele><time>2026-03-24T09:05:26.365Z</time></trkpt><trkpt lat="46.805345" lon="10.541466"><ele>1499.142857142857</ele><time>2026-03-24T09:05:27.364Z</time></trkpt><trkpt lat="46.8052827" lon="10.5414342"><ele>1499.0</ele><time>2026-03-24T09:05:28.369Z</time></trkpt><trkpt lat="46.8052201" lon="10.5414026"><ele>1499.2857142857142</ele><time>2026-03-24T09:05:29.364Z</time></trkpt><trkpt lat="46.8051577" lon="10.5413722"><ele>1499.5714285714287</ele><time>2026-03-24T09:05:30.359Z</time></trkpt><trkpt lat="46.8050957" lon="10.541341"><ele>1499.8571428571427</ele><time>2026-03-24T09:05:31.367Z</time></trkpt><trkpt lat="46.8050339" lon="10.5413102"><ele>1500.142857142857</ele><time>2026-03-24T09:05:32.366Z</time></trkpt><trkpt lat="46.8049727" lon="10.5412799"><ele>1500.4285714285713</ele><time>2026-03-24T09:05:33.355Z</time></trkpt><trkpt lat="46.8049108" lon="10.5412497"><ele>1500.7142857142856</ele><time>2026-03-24T09:05:34.361Z</time></trkpt><trkpt lat="46.8048494" lon="10.54122"><ele>1501.0</ele><time>2026-03-24T09:05:35.368Z</time></trkpt><trkpt lat="46.8047877" lon="10.5411893"><ele>1500.9999999999998</ele><time>2026-03-24T09:05:36.357Z</time></trkpt><trkpt lat="46.8047268" lon="10.5411585"><ele>1501.0</ele><time>2026-03-24T09:05:37.361Z</time></trkpt><trkpt lat="46.8046652" lon="10.541128"><ele>1501.0</ele><time>2026-03-24T09:05:38.361Z</time></trkpt><trkpt lat="46.8046042" lon="10.5410977"><ele>1501.0</ele><time>2026-03-24T09:05:39.353Z</time></trkpt><trkpt lat="46.8045416" lon="10.5410672"><ele>1501.0</ele><time>2026-03-24T09:05:40.368Z</time></trkpt><trkpt lat="46.8044799" lon="10.5410375"><ele>1500.9999999999998</ele><time>2026-03-24T09:05:41.375Z</time></trkpt><trkpt lat="46.8044176" lon="10.5410054"><ele>1501.0</ele><time>2026-03-24T09:05:42.355Z</time></trkpt><trkpt lat="46.8043548" lon="10.5409725"><ele>1503.9999999999998</ele><time>2026-03-24T09:05:43.347Z</time></trkpt><trkpt lat="46.8042948" lon="10.5409379"><ele>1507.0</ele><time>2026-03-24T09:05:44.355Z</time></trkpt><trkpt lat="46.8042323" lon="10.5409009"><ele>1510.0</ele><time>2026-03-24T09:05:45.354Z</time></trkpt><trkpt lat="46.8041702" lon="10.5408565"><ele>1513.0</ele><time>2026-03-24T09:05:46.361Z</time></trkpt><trkpt lat="46.8041116" lon="10.5408054"><ele>1516.0</ele><time>2026-03-24T09:05:47.367Z</time></trkpt><trkpt lat="46.8040535" lon="10.5407494"><ele>1518.9999999999998</ele><time>2026-03-24T09:05:48.364Z</time></trkpt><trkpt lat="46.803999" lon="10.5406876"><ele>1522.0</ele><time>2026-03-24T09:05:49.354Z</time></trkpt><trkpt lat="46.8039467" lon="10.5406264"><ele>1521.9999999999998</ele><time>2026-03-24T09:05:50.362Z</time></trkpt><trkpt lat="46.8039024" lon="10.5405572"><ele>1522.0</ele><time>2026-03-24T09:05:51.36Z</time></trkpt><trkpt lat="46.8038597" lon="10.5404845"><ele>1522.0</ele><time>2026-03-24T09:05:52.361Z</time></trkpt><trkpt lat="46.8038166" lon="10.5404083"><ele>1522.0</ele><time>2026-03-24T09:05:53.365Z</time></trkpt><trkpt lat="46.8037746" lon="10.5403351"><ele>1522.0</ele><time>2026-03-24T09:05:54.361Z</time></trkpt><trkpt lat="46.8037312" lon="10.5402605"><ele>1521.9999999999998</ele><time>2026-03-24T09:05:55.363Z</time></trkpt><trkpt lat="46.8036889" lon="10.540189"><ele>1522.0</ele><time>2026-03-24T09:05:56.37Z</time></trkpt><trkpt lat="46.8036018" lon="10.5400578"><ele>1523.0</ele><time>2026-03-24T09:05:58.362Z</time></trkpt><trkpt lat="46.8035517" lon="10.5399993"><ele>1524.0</ele><time>2026-03-24T09:05:59.367Z</time></trkpt><trkpt lat="46.8034445" lon="10.5398965"><ele>1525.0</ele><time>2026-03-24T09:06:01.358Z</time></trkpt><trkpt lat="46.8033852" lon="10.5398488"><ele>1526.0</ele><time>2026-03-24T09:06:02.359Z</time></trkpt><trkpt lat="46.8033238" lon="10.5398076"><ele>1527.0</ele><time>2026-03-24T09:06:03.358Z</time></trkpt><trkpt lat="46.8032629" lon="10.5397759"><ele>1528.0</ele><time>2026-03-24T09:06:04.352Z</time></trkpt><trkpt lat="46.803201" lon="10.5397492"><ele>1528.0</ele><time>2026-03-24T09:06:05.356Z</time></trkpt><trkpt lat="46.803138" lon="10.5397269"><ele>1528.0</ele><time>2026-03-24T09:06:06.356Z</time></trkpt><trkpt lat="46.8030737" lon="10.539711"><ele>1528.0</ele><time>2026-03-24T09:06:07.358Z</time></trkpt><trkpt lat="46.8030079" lon="10.5396979"><ele>1528.0</ele><time>2026-03-24T09:06:08.363Z</time></trkpt><trkpt lat="46.8029418" lon="10.5396935"><ele>1528.0</ele><time>2026-03-24T09:06:09.363Z</time></trkpt><trkpt lat="46.8028742" lon="10.5396878"><ele>1528.0</ele><time>2026-03-24T09:06:10.356Z</time></trkpt><trkpt lat="46.8028085" lon="10.5396929"><ele>1528.0</ele><time>2026-03-24T09:06:11.368Z</time></trkpt><trkpt lat="46.8027404" lon="10.5397055"><ele>1528.0</ele><time>2026-03-24T09:06:12.36Z</time></trkpt><trkpt lat="46.802674" lon="10.5397189"><ele>1528.0</ele><time>2026-03-24T09:06:13.355Z</time></trkpt><trkpt lat="46.8026077" lon="10.5397327"><ele>1528.0</ele><time>2026-03-24T09:06:14.356Z</time></trkpt><trkpt lat="46.8025389" lon="10.5397456"><ele>1528.0</ele><time>2026-03-24T09:06:15.36Z</time></trkpt><trkpt lat="46.8024714" lon="10.5397613"><ele>1528.0</ele><time>2026-03-24T09:06:16.349Z</time></trkpt><trkpt lat="46.802403" lon="10.5397774"><ele>1528.0</ele><time>2026-03-24T09:06:17.364Z</time></trkpt><trkpt lat="46.8023343" lon="10.5397924"><ele>1528.0</ele><time>2026-03-24T09:06:18.352Z</time></trkpt><trkpt lat="46.8022676" lon="10.5398088"><ele>1526.7142857142858</ele><time>2026-03-24T09:06:19.353Z</time></trkpt><trkpt lat="46.8022005" lon="10.5398244"><ele>1525.4285714285713</ele><time>2026-03-24T09:06:20.355Z</time></trkpt><trkpt lat="46.8021323" lon="10.5398398"><ele>1524.142857142857</ele><time>2026-03-24T09:06:21.362Z</time></trkpt><trkpt lat="46.8020647" lon="10.5398548"><ele>1522.857142857143</ele><time>2026-03-24T09:06:22.357Z</time></trkpt><trkpt lat="46.8019987" lon="10.5398699"><ele>1521.5714285714284</ele><time>2026-03-24T09:06:23.367Z</time></trkpt><trkpt lat="46.8019316" lon="10.5398845"><ele>1520.2857142857142</ele><time>2026-03-24T09:06:24.361Z</time></trkpt><trkpt lat="46.801863" lon="10.5399004"><ele>1519.0</ele><time>2026-03-24T09:06:25.363Z</time></trkpt><trkpt lat="46.8017953" lon="10.5399179"><ele>1519.0</ele><time>2026-03-24T09:06:26.354Z</time></trkpt><trkpt lat="46.8017277" lon="10.5399345"><ele>1519.0</ele><time>2026-03-24T09:06:27.366Z</time></trkpt><trkpt lat="46.8016608" lon="10.5399509"><ele>1519.0</ele><time>2026-03-24T09:06:28.364Z</time></trkpt><trkpt lat="46.8015929" lon="10.5399674"><ele>1519.0</ele><time>2026-03-24T09:06:29.368Z</time></trkpt><trkpt lat="46.801525" lon="10.5399818"><ele>1519.0</ele><time>2026-03-24T09:06:30.372Z</time></trkpt><trkpt lat="46.8014565" lon="10.539996"><ele>1519.0</ele><time>2026-03-24T09:06:31.362Z</time></trkpt><trkpt lat="46.8013872" lon="10.5400118"><ele>1519.0</ele><time>2026-03-24T09:06:32.362Z</time></trkpt><trkpt lat="46.8013179" lon="10.5400284"><ele>1519.0</ele><time>2026-03-24T09:06:33.364Z</time></trkpt><trkpt lat="46.8012489" lon="10.5400445"><ele>1519.0</ele><time>2026-03-24T09:06:34.367Z</time></trkpt><trkpt lat="46.8011799" lon="10.5400596"><ele>1519.0</ele><time>2026-03-24T09:06:35.357Z</time></trkpt><trkpt lat="46.8011115" lon="10.5400762"><ele>1519.0</ele><time>2026-03-24T09:06:36.363Z</time></trkpt><trkpt lat="46.8010443" lon="10.5400937"><ele>1519.0</ele><time>2026-03-24T09:06:37.362Z</time></trkpt><trkpt lat="46.8009769" lon="10.5401119"><ele>1519.0</ele><time>2026-03-24T09:06:38.36Z</time></trkpt><trkpt lat="46.8009143" lon="10.5401337"><ele>1519.0</ele><time>2026-03-24T09:06:39.355Z</time></trkpt><trkpt lat="46.8008527" lon="10.5401603"><ele>1518.142857142857</ele><time>2026-03-24T09:06:40.36Z</time></trkpt><trkpt lat="46.8007871" lon="10.5401874"><ele>1517.2857142857142</ele><time>2026-03-24T09:06:41.357Z</time></trkpt><trkpt lat="46.8007199" lon="10.5402133"><ele>1516.4285714285716</ele><time>2026-03-24T09:06:42.368Z</time></trkpt><trkpt lat="46.8006532" lon="10.5402405"><ele>1515.5714285714284</ele><time>2026-03-24T09:06:43.356Z</time></trkpt><trkpt lat="46.8005873" lon="10.5402719"><ele>1514.7142857142858</ele><time>2026-03-24T09:06:44.353Z</time></trkpt><trkpt lat="46.8005204" lon="10.5403048"><ele>1513.857142857143</ele><time>2026-03-24T09:06:45.354Z</time></trkpt><trkpt lat="46.8004539" lon="10.5403412"><ele>1513.0</ele><time>2026-03-24T09:06:46.356Z</time></trkpt><trkpt lat="46.8003899" lon="10.5403798"><ele>1514.5714285714287</ele><time>2026-03-24T09:06:47.356Z</time></trkpt><trkpt lat="46.8003264" lon="10.5404194"><ele>1516.1428571428573</ele><time>2026-03-24T09:06:48.353Z</time></trkpt><trkpt lat="46.8002642" lon="10.5404612"><ele>1517.7142857142858</ele><time>2026-03-24T09:06:49.357Z</time></trkpt><trkpt lat="46.8001992" lon="10.5405039"><ele>1519.2857142857142</ele><time>2026-03-24T09:06:50.361Z</time></trkpt><trkpt lat="46.8001352" lon="10.5405457"><ele>1520.857142857143</ele><time>2026-03-24T09:06:51.363Z</time></trkpt><trkpt lat="46.8000711" lon="10.5405873"><ele>1522.4285714285713</ele><time>2026-03-24T09:06:52.365Z</time></trkpt><trkpt lat="46.8000055" lon="10.5406296"><ele>1524.0</ele><time>2026-03-24T09:06:53.366Z</time></trkpt><trkpt lat="46.7999428" lon="10.5406731"><ele>1524.0</ele><time>2026-03-24T09:06:54.358Z</time></trkpt><trkpt lat="46.79988" lon="10.5407163"><ele>1524.0</ele><time>2026-03-24T09:06:55.362Z</time></trkpt><trkpt lat="46.799817" lon="10.54076"><ele>1524.0</ele><time>2026-03-24T09:06:56.363Z</time></trkpt><trkpt lat="46.7997552" lon="10.5408053"><ele>1524.0</ele><time>2026-03-24T09:06:57.357Z</time></trkpt><trkpt lat="46.799692" lon="10.5408493"><ele>1524.0</ele><time>2026-03-24T09:06:58.372Z</time></trkpt><trkpt lat="46.7996276" lon="10.5408928"><ele>1524.0</ele><time>2026-03-24T09:06:59.364Z</time></trkpt><trkpt lat="46.7995633" lon="10.5409365"><ele>1524.0</ele><time>2026-03-24T09:07:00.359Z</time></trkpt><trkpt lat="46.7994993" lon="10.5409823"><ele>1524.0</ele><time>2026-03-24T09:07:01.369Z</time></trkpt><trkpt lat="46.7994399" lon="10.5410244"><ele>1524.0</ele><time>2026-03-24T09:07:02.361Z</time></trkpt><trkpt lat="46.7993787" lon="10.5410658"><ele>1524.0</ele><time>2026-03-24T09:07:03.37Z</time></trkpt><trkpt lat="46.7993147" lon="10.5411077"><ele>1524.0</ele><time>2026-03-24T09:07:04.368Z</time></trkpt><trkpt lat="46.7992487" lon="10.5411497"><ele>1524.0</ele><time>2026-03-24T09:07:05.363Z</time></trkpt><trkpt lat="46.7991824" lon="10.5411874"><ele>1524.0</ele><time>2026-03-24T09:07:06.365Z</time></trkpt><trkpt lat="46.799122" lon="10.5412195"><ele>1524.0</ele><time>2026-03-24T09:07:07.361Z</time></trkpt><trkpt lat="46.7990569" lon="10.5412522"><ele>1527.142857142857</ele><time>2026-03-24T09:07:08.361Z</time></trkpt><trkpt lat="46.7989921" lon="10.5412856"><ele>1530.2857142857144</ele><time>2026-03-24T09:07:09.359Z</time></trkpt><trkpt lat="46.7989209" lon="10.541315"><ele>1533.4285714285716</ele><time>2026-03-24T09:07:10.364Z</time></trkpt><trkpt lat="46.7988455" lon="10.5413402"><ele>1536.5714285714284</ele><time>2026-03-24T09:07:11.361Z</time></trkpt><trkpt lat="46.7987765" lon="10.5413629"><ele>1539.7142857142858</ele><time>2026-03-24T09:07:12.357Z</time></trkpt><trkpt lat="46.7987076" lon="10.5413845"><ele>1542.857142857143</ele><time>2026-03-24T09:07:13.349Z</time></trkpt><trkpt lat="46.7986382" lon="10.5414066"><ele>1546.0</ele><time>2026-03-24T09:07:14.361Z</time></trkpt><trkpt lat="46.7985684" lon="10.5414261"><ele>1543.0</ele><time>2026-03-24T09:07:15.358Z</time></trkpt><trkpt lat="46.7984982" lon="10.5414482"><ele>1540.0</ele><time>2026-03-24T09:07:16.367Z</time></trkpt><trkpt lat="46.7984303" lon="10.54147"><ele>1537.0</ele><time>2026-03-24T09:07:17.365Z</time></trkpt><trkpt lat="46.7983609" lon="10.5414919"><ele>1534.0</ele><time>2026-03-24T09:07:18.357Z</time></trkpt><trkpt lat="46.7982899" lon="10.5415165"><ele>1531.0</ele><time>2026-03-24T09:07:19.361Z</time></trkpt><trkpt lat="46.798221" lon="10.5415363"><ele>1528.0</ele><time>2026-03-24T09:07:20.372Z</time></trkpt><trkpt lat="46.7981516" lon="10.541556"><ele>1525.0</ele><time>2026-03-24T09:07:21.363Z</time></trkpt><trkpt lat="46.7980835" lon="10.5415784"><ele>1525.0</ele><time>2026-03-24T09:07:22.368Z</time></trkpt><trkpt lat="46.7980159" lon="10.5416024"><ele>1525.0</ele><time>2026-03-24T09:07:23.36Z</time></trkpt><trkpt lat="46.7979469" lon="10.5416288"><ele>1525.0</ele><time>2026-03-24T09:07:24.365Z</time></trkpt><trkpt lat="46.7978816" lon="10.5416527"><ele>1525.0</ele><time>2026-03-24T09:07:25.359Z</time></trkpt><trkpt lat="46.7978134" lon="10.5416758"><ele>1525.0</ele><time>2026-03-24T09:07:26.353Z</time></trkpt><trkpt lat="46.7977464" lon="10.5416968"><ele>1525.0</ele><time>2026-03-24T09:07:27.363Z</time></trkpt><trkpt lat="46.7976794" lon="10.5417159"><ele>1525.0</ele><time>2026-03-24T09:07:28.36Z</time></trkpt><trkpt lat="46.7976113" lon="10.5417369"><ele>1522.7142857142858</ele><time>2026-03-24T09:07:29.367Z</time></trkpt><trkpt lat="46.7975426" lon="10.5417581"><ele>1520.4285714285713</ele><time>2026-03-24T09:07:30.348Z</time></trkpt><trkpt lat="46.7974741" lon="10.5417798"><ele>1518.1428571428573</ele><time>2026-03-24T09:07:31.364Z</time></trkpt><trkpt lat="46.7974025" lon="10.5417997"><ele>1515.857142857143</ele><time>2026-03-24T09:07:32.351Z</time></trkpt><trkpt lat="46.797331" lon="10.5418177"><ele>1513.5714285714287</ele><time>2026-03-24T09:07:33.358Z</time></trkpt><trkpt lat="46.7972615" lon="10.5418401"><ele>1511.2857142857144</ele><time>2026-03-24T09:07:34.358Z</time></trkpt><trkpt lat="46.797192" lon="10.5418608"><ele>1509.0</ele><time>2026-03-24T09:07:35.367Z</time></trkpt><trkpt lat="46.797124" lon="10.5418815"><ele>1509.0000000000002</ele><time>2026-03-24T09:07:36.357Z</time></trkpt><trkpt lat="46.7970568" lon="10.5419026"><ele>1509.0</ele><time>2026-03-24T09:07:37.369Z</time></trkpt><trkpt lat="46.7969894" lon="10.541922"><ele>1509.0</ele><time>2026-03-24T09:07:38.365Z</time></trkpt><trkpt lat="46.7969231" lon="10.5419421"><ele>1509.0</ele><time>2026-03-24T09:07:39.367Z</time></trkpt><trkpt lat="46.7968578" lon="10.5419633"><ele>1509.0</ele><time>2026-03-24T09:07:40.364Z</time></trkpt><trkpt lat="46.79679" lon="10.5419819"><ele>1509.0000000000002</ele><time>2026-03-24T09:07:41.358Z</time></trkpt><trkpt lat="46.7967208" lon="10.5420023"><ele>1509.0</ele><time>2026-03-24T09:07:42.367Z</time></trkpt><trkpt lat="46.7966522" lon="10.5420212"><ele>1508.5714285714287</ele><time>2026-03-24T09:07:43.361Z</time></trkpt><trkpt lat="46.7965849" lon="10.5420403"><ele>1508.142857142857</ele><time>2026-03-24T09:07:44.356Z</time></trkpt><trkpt lat="46.7965151" lon="10.5420542"><ele>1507.7142857142858</ele><time>2026-03-24T09:07:45.367Z</time></trkpt><trkpt lat="46.7964453" lon="10.5420659"><ele>1507.2857142857142</ele><time>2026-03-24T09:07:46.354Z</time></trkpt><trkpt lat="46.796376" lon="10.5420802"><ele>1506.857142857143</ele><time>2026-03-24T09:07:47.364Z</time></trkpt><trkpt lat="46.7963064" lon="10.5420877"><ele>1506.4285714285716</ele><time>2026-03-24T09:07:48.36Z</time></trkpt><trkpt lat="46.7962361" lon="10.5420939"><ele>1506.0</ele><time>2026-03-24T09:07:49.363Z</time></trkpt><trkpt lat="46.7961635" lon="10.5420916"><ele>1505.4285714285716</ele><time>2026-03-24T09:07:50.361Z</time></trkpt><trkpt lat="46.7960917" lon="10.5420855"><ele>1504.857142857143</ele><time>2026-03-24T09:07:51.358Z</time></trkpt><trkpt lat="46.7960219" lon="10.5420829"><ele>1504.2857142857142</ele><time>2026-03-24T09:07:52.355Z</time></trkpt><trkpt lat="46.7959482" lon="10.5420756"><ele>1503.7142857142858</ele><time>2026-03-24T09:07:53.365Z</time></trkpt><trkpt lat="46.7958751" lon="10.5420628"><ele>1503.142857142857</ele><time>2026-03-24T09:07:54.354Z</time></trkpt><trkpt lat="46.7958039" lon="10.5420416"><ele>1502.5714285714287</ele><time>2026-03-24T09:07:55.353Z</time></trkpt><trkpt lat="46.7957335" lon="10.5420213"><ele>1502.0</ele><time>2026-03-24T09:07:56.361Z</time></trkpt><trkpt lat="46.7956616" lon="10.5419966"><ele>1502.0000000000002</ele><time>2026-03-24T09:07:57.359Z</time></trkpt><trkpt lat="46.7955941" lon="10.5419692"><ele>1502.0</ele><time>2026-03-24T09:07:58.349Z</time></trkpt><trkpt lat="46.7955242" lon="10.5419436"><ele>1502.0</ele><time>2026-03-24T09:07:59.362Z</time></trkpt><trkpt lat="46.7954552" lon="10.5419172"><ele>1502.0</ele><time>2026-03-24T09:08:00.367Z</time></trkpt><trkpt lat="46.7953869" lon="10.5418891"><ele>1502.0</ele><time>2026-03-24T09:08:01.357Z</time></trkpt><trkpt lat="46.795319" lon="10.5418618"><ele>1502.0000000000002</ele><time>2026-03-24T09:08:02.371Z</time></trkpt><trkpt lat="46.7952533" lon="10.541835"><ele>1502.0</ele><time>2026-03-24T09:08:03.368Z</time></trkpt><trkpt lat="46.7951863" lon="10.5418078"><ele>1502.857142857143</ele><time>2026-03-24T09:08:04.361Z</time></trkpt><trkpt lat="46.795119" lon="10.541782"><ele>1503.7142857142858</ele><time>2026-03-24T09:08:05.366Z</time></trkpt><trkpt lat="46.7950519" lon="10.5417576"><ele>1504.5714285714284</ele><time>2026-03-24T09:08:06.36Z</time></trkpt><trkpt lat="46.7949858" lon="10.5417329"><ele>1505.4285714285716</ele><time>2026-03-24T09:08:07.357Z</time></trkpt><trkpt lat="46.7949183" lon="10.5417094"><ele>1506.2857142857142</ele><time>2026-03-24T09:08:08.365Z</time></trkpt><trkpt lat="46.7948518" lon="10.5416911"><ele>1507.142857142857</ele><time>2026-03-24T09:08:09.353Z</time></trkpt><trkpt lat="46.7947847" lon="10.541671"><ele>1508.0</ele><time>2026-03-24T09:08:10.362Z</time></trkpt><trkpt lat="46.7947183" lon="10.5416463"><ele>1507.9999999999998</ele><time>2026-03-24T09:08:11.361Z</time></trkpt><trkpt lat="46.7946495" lon="10.5416235"><ele>1508.0</ele><time>2026-03-24T09:08:12.36Z</time></trkpt><trkpt lat="46.7945814" lon="10.5416035"><ele>1508.0</ele><time>2026-03-24T09:08:13.36Z</time></trkpt><trkpt lat="46.7945133" lon="10.5415835"><ele>1508.0</ele><time>2026-03-24T09:08:14.367Z</time></trkpt><trkpt lat="46.7944465" lon="10.5415603"><ele>1508.0</ele><time>2026-03-24T09:08:15.355Z</time></trkpt><trkpt lat="46.7943796" lon="10.5415375"><ele>1507.9999999999998</ele><time>2026-03-24T09:08:16.358Z</time></trkpt><trkpt lat="46.7943139" lon="10.541515"><ele>1508.0</ele><time>2026-03-24T09:08:17.362Z</time></trkpt><trkpt lat="46.7942475" lon="10.5414992"><ele>1507.9999999999998</ele><time>2026-03-24T09:08:18.373Z</time></trkpt><trkpt lat="46.7941812" lon="10.5414857"><ele>1508.0</ele><time>2026-03-24T09:08:19.365Z</time></trkpt><trkpt lat="46.7941153" lon="10.5414872"><ele>1508.0</ele><time>2026-03-24T09:08:20.364Z</time></trkpt><trkpt lat="46.7940482" lon="10.5414912"><ele>1508.0</ele><time>2026-03-24T09:08:21.354Z</time></trkpt><trkpt lat="46.7939821" lon="10.5415001"><ele>1508.0</ele><time>2026-03-24T09:08:22.35Z</time></trkpt><trkpt lat="46.7939184" lon="10.5415124"><ele>1507.9999999999998</ele><time>2026-03-24T09:08:23.347Z</time></trkpt><trkpt lat="46.7938567" lon="10.5415319"><ele>1508.0</ele><time>2026-03-24T09:08:24.36Z</time></trkpt><trkpt lat="46.7937356" lon="10.5415763"><ele>1508.0</ele><time>2026-03-24T09:08:26.359Z</time></trkpt><trkpt lat="46.7936052" lon="10.5416124"><ele>1508.0</ele><time>2026-03-24T09:08:28.357Z</time></trkpt><trkpt lat="46.7935412" lon="10.5416359"><ele>1508.0</ele><time>2026-03-24T09:08:29.36Z</time></trkpt><trkpt lat="46.7934697" lon="10.541662"><ele>1508.0</ele><time>2026-03-24T09:08:30.362Z</time></trkpt><trkpt lat="46.7934042" lon="10.5416912"><ele>1508.0</ele><time>2026-03-24T09:08:31.37Z</time></trkpt><trkpt lat="46.7933438" lon="10.5417249"><ele>1508.0</ele><time>2026-03-24T09:08:32.353Z</time></trkpt><trkpt lat="46.7932747" lon="10.5417505"><ele>1508.4285714285713</ele><time>2026-03-24T09:08:33.357Z</time></trkpt><trkpt lat="46.7931996" lon="10.541773"><ele>1508.857142857143</ele><time>2026-03-24T09:08:34.361Z</time></trkpt><trkpt lat="46.7931268" lon="10.5417936"><ele>1509.2857142857142</ele><time>2026-03-24T09:08:35.376Z</time></trkpt><trkpt lat="46.7930551" lon="10.5418038"><ele>1509.7142857142858</ele><time>2026-03-24T09:08:36.357Z</time></trkpt><trkpt lat="46.7929852" lon="10.5418145"><ele>1510.142857142857</ele><time>2026-03-24T09:08:37.355Z</time></trkpt><trkpt lat="46.7929124" lon="10.5418062"><ele>1510.5714285714284</ele><time>2026-03-24T09:08:38.368Z</time></trkpt><trkpt lat="46.7928418" lon="10.5417952"><ele>1511.0</ele><time>2026-03-24T09:08:39.362Z</time></trkpt><trkpt lat="46.7927717" lon="10.5417863"><ele>1511.0</ele><time>2026-03-24T09:08:40.369Z</time></trkpt><trkpt lat="46.7927016" lon="10.5417802"><ele>1511.0</ele><time>2026-03-24T09:08:41.356Z</time></trkpt><trkpt lat="46.7926254" lon="10.5417776"><ele>1511.0</ele><time>2026-03-24T09:08:42.356Z</time></trkpt><trkpt lat="46.7925514" lon="10.5417583"><ele>1511.0</ele><time>2026-03-24T09:08:43.354Z</time></trkpt><trkpt lat="46.792466" lon="10.541733"><ele>1511.0</ele><time>2026-03-24T09:08:44.355Z</time></trkpt><trkpt lat="46.7923983" lon="10.541705"><ele>1511.0</ele><time>2026-03-24T09:08:45.365Z</time></trkpt><trkpt lat="46.7923362" lon="10.5416665"><ele>1511.0</ele><time>2026-03-24T09:08:46.371Z</time></trkpt><trkpt lat="46.7922674" lon="10.5416436"><ele>1511.0</ele><time>2026-03-24T09:08:47.362Z</time></trkpt><trkpt lat="46.7922009" lon="10.5416222"><ele>1511.0</ele><time>2026-03-24T09:08:48.373Z</time></trkpt><trkpt lat="46.792132" lon="10.5416204"><ele>1511.0</ele><time>2026-03-24T09:08:49.362Z</time></trkpt><trkpt lat="46.7920649" lon="10.5416242"><ele>1511.0</ele><time>2026-03-24T09:08:50.356Z</time></trkpt><trkpt lat="46.7919961" lon="10.5416289"><ele>1511.0</ele><time>2026-03-24T09:08:51.364Z</time></trkpt><trkpt lat="46.7919265" lon="10.5416346"><ele>1511.0</ele><time>2026-03-24T09:08:52.358Z</time></trkpt><trkpt lat="46.791853" lon="10.5416434"><ele>1511.0</ele><time>2026-03-24T09:08:53.358Z</time></trkpt><trkpt lat="46.7917817" lon="10.5416541"><ele>1511.0</ele><time>2026-03-24T09:08:54.36Z</time></trkpt><trkpt lat="46.7917099" lon="10.541663"><ele>1511.0</ele><time>2026-03-24T09:08:55.359Z</time></trkpt><trkpt lat="46.7916377" lon="10.5416713"><ele>1511.0</ele><time>2026-03-24T09:08:56.365Z</time></trkpt><trkpt lat="46.7915676" lon="10.5416796"><ele>1511.0</ele><time>2026-03-24T09:08:57.367Z</time></trkpt><trkpt lat="46.7915012" lon="10.5416848"><ele>1511.0</ele><time>2026-03-24T09:08:58.364Z</time></trkpt><trkpt lat="46.7913869" lon="10.5417009"><ele>1511.0</ele><time>2026-03-24T09:09:00.361Z</time></trkpt><trkpt lat="46.7913238" lon="10.5417146"><ele>1511.0</ele><time>2026-03-24T09:09:01.36Z</time></trkpt><trkpt lat="46.7912444" lon="10.5417354"><ele>1511.0</ele><time>2026-03-24T09:09:02.347Z</time></trkpt><trkpt lat="46.7911641" lon="10.5417664"><ele>1511.0</ele><time>2026-03-24T09:09:03.362Z</time></trkpt><trkpt lat="46.7910889" lon="10.5417826"><ele>1511.0</ele><time>2026-03-24T09:09:04.363Z</time></trkpt><trkpt lat="46.7910233" lon="10.5417739"><ele>1511.0</ele><time>2026-03-24T09:09:05.357Z</time></trkpt><trkpt lat="46.7909433" lon="10.5417672"><ele>1511.0</ele><time>2026-03-24T09:09:06.363Z</time></trkpt><trkpt lat="46.7908655" lon="10.541751"><ele>1510.5</ele><time>2026-03-24T09:09:07.362Z</time></trkpt><trkpt lat="46.7907894" lon="10.5417331"><ele>1510.0</ele><time>2026-03-24T09:09:08.358Z</time></trkpt><trkpt lat="46.790717" lon="10.5417174"><ele>1509.5</ele><time>2026-03-24T09:09:09.361Z</time></trkpt><trkpt lat="46.7906448" lon="10.541709"><ele>1509.0</ele><time>2026-03-24T09:09:10.354Z</time></trkpt><trkpt lat="46.7905779" lon="10.5416928"><ele>1508.5</ele><time>2026-03-24T09:09:11.348Z</time></trkpt><trkpt lat="46.7904583" lon="10.5417076"><ele>1508.0</ele><time>2026-03-24T09:09:13.357Z</time></trkpt><trkpt lat="46.7903622" lon="10.5417066"><ele>1508.0</ele><time>2026-03-24T09:09:14.365Z</time></trkpt><trkpt lat="46.7902954" lon="10.5416805"><ele>1508.0</ele><time>2026-03-24T09:09:15.361Z</time></trkpt><trkpt lat="46.7902279" lon="10.5416496"><ele>1508.0</ele><time>2026-03-24T09:09:16.365Z</time></trkpt><trkpt lat="46.790157" lon="10.5416151"><ele>1508.0</ele><time>2026-03-24T09:09:17.356Z</time></trkpt><trkpt lat="46.7900403" lon="10.5415695"><ele>1508.0</ele><time>2026-03-24T09:09:19.354Z</time></trkpt><trkpt lat="46.7899666" lon="10.5415566"><ele>1508.0</ele><time>2026-03-24T09:09:20.366Z</time></trkpt><trkpt lat="46.7898986" lon="10.5415358"><ele>1508.5</ele><time>2026-03-24T09:09:21.361Z</time></trkpt><trkpt lat="46.7898365" lon="10.5415058"><ele>1509.0</ele><time>2026-03-24T09:09:22.349Z</time></trkpt><trkpt lat="46.7897187" lon="10.5414392"><ele>1509.5</ele><time>2026-03-24T09:09:24.363Z</time></trkpt><trkpt lat="46.7896512" lon="10.5414228"><ele>1510.0</ele><time>2026-03-24T09:09:25.36Z</time></trkpt><trkpt lat="46.7895864" lon="10.541412"><ele>1510.5</ele><time>2026-03-24T09:09:26.351Z</time></trkpt><trkpt lat="46.7895158" lon="10.5413991"><ele>1511.0</ele><time>2026-03-24T09:09:27.352Z</time></trkpt><trkpt lat="46.7893712" lon="10.5413827"><ele>1512.1666666666667</ele><time>2026-03-24T09:09:29.356Z</time></trkpt><trkpt lat="46.7892963" lon="10.5413683"><ele>1513.3333333333335</ele><time>2026-03-24T09:09:30.36Z</time></trkpt><trkpt lat="46.7892157" lon="10.5413551"><ele>1514.5</ele><time>2026-03-24T09:09:31.356Z</time></trkpt><trkpt lat="46.7891332" lon="10.5413521"><ele>1515.6666666666667</ele><time>2026-03-24T09:09:32.361Z</time></trkpt><trkpt lat="46.7890446" lon="10.5413669"><ele>1516.8333333333333</ele><time>2026-03-24T09:09:33.368Z</time></trkpt><trkpt lat="46.7889589" lon="10.5413665"><ele>1518.0</ele><time>2026-03-24T09:09:34.362Z</time></trkpt><trkpt lat="46.7888546" lon="10.5413682"><ele>1518.0</ele><time>2026-03-24T09:09:35.364Z</time></trkpt><trkpt lat="46.7887828" lon="10.5413849"><ele>1518.0</ele><time>2026-03-24T09:09:36.357Z</time></trkpt><trkpt lat="46.7887048" lon="10.5414025"><ele>1518.0</ele><time>2026-03-24T09:09:37.38Z</time></trkpt><trkpt lat="46.7886314" lon="10.5414112"><ele>1518.0</ele><time>2026-03-24T09:09:38.353Z</time></trkpt><trkpt lat="46.7885569" lon="10.5414179"><ele>1518.0</ele><time>2026-03-24T09:09:39.359Z</time></trkpt><trkpt lat="46.7884839" lon="10.5414254"><ele>1518.0</ele><time>2026-03-24T09:09:40.365Z</time></trkpt><trkpt lat="46.7884098" lon="10.5414333"><ele>1518.0</ele><time>2026-03-24T09:09:41.357Z</time></trkpt><trkpt lat="46.7883422" lon="10.5414469"><ele>1517.0</ele><time>2026-03-24T09:09:42.364Z</time></trkpt><trkpt lat="46.7882718" lon="10.5414657"><ele>1516.0</ele><time>2026-03-24T09:09:43.363Z</time></trkpt><trkpt lat="46.7882036" lon="10.5414819"><ele>1515.0</ele><time>2026-03-24T09:09:44.356Z</time></trkpt><trkpt lat="46.7880803" lon="10.5415114"><ele>1514.0</ele><time>2026-03-24T09:09:46.353Z</time></trkpt><trkpt lat="46.7880133" lon="10.5415306"><ele>1513.0</ele><time>2026-03-24T09:09:47.357Z</time></trkpt><trkpt lat="46.7879391" lon="10.5415512"><ele>1512.0</ele><time>2026-03-24T09:09:48.358Z</time></trkpt><trkpt lat="46.7878606" lon="10.5415715"><ele>1512.0</ele><time>2026-03-24T09:09:49.363Z</time></trkpt><trkpt lat="46.7877846" lon="10.5415984"><ele>1512.0</ele><time>2026-03-24T09:09:50.362Z</time></trkpt><trkpt lat="46.7877077" lon="10.5416219"><ele>1512.0</ele><time>2026-03-24T09:09:51.36Z</time></trkpt><trkpt lat="46.7876418" lon="10.5416416"><ele>1512.0</ele><time>2026-03-24T09:09:52.363Z</time></trkpt><trkpt lat="46.7875595" lon="10.5416596"><ele>1512.0</ele><time>2026-03-24T09:09:53.349Z</time></trkpt><trkpt lat="46.7874768" lon="10.5416731"><ele>1512.0</ele><time>2026-03-24T09:09:54.351Z</time></trkpt><trkpt lat="46.7873975" lon="10.541691"><ele>1510.857142857143</ele><time>2026-03-24T09:09:55.362Z</time></trkpt><trkpt lat="46.7873204" lon="10.5417146"><ele>1509.7142857142858</ele><time>2026-03-24T09:09:56.355Z</time></trkpt><trkpt lat="46.7872414" lon="10.5417395"><ele>1508.5714285714284</ele><time>2026-03-24T09:09:57.345Z</time></trkpt><trkpt lat="46.7871787" lon="10.5417566"><ele>1507.4285714285716</ele><time>2026-03-24T09:09:58.366Z</time></trkpt><trkpt lat="46.7871145" lon="10.5417729"><ele>1506.2857142857142</ele><time>2026-03-24T09:09:59.365Z</time></trkpt><trkpt lat="46.7870411" lon="10.5417866"><ele>1505.142857142857</ele><time>2026-03-24T09:10:00.351Z</time></trkpt><trkpt lat="46.7869642" lon="10.5418079"><ele>1504.0</ele><time>2026-03-24T09:10:01.35Z</time></trkpt><trkpt lat="46.7868849" lon="10.5418341"><ele>1502.857142857143</ele><time>2026-03-24T09:10:02.352Z</time></trkpt><trkpt lat="46.7868111" lon="10.5418587"><ele>1501.7142857142858</ele><time>2026-03-24T09:10:03.364Z</time></trkpt><trkpt lat="46.7867383" lon="10.5418711"><ele>1500.5714285714284</ele><time>2026-03-24T09:10:04.36Z</time></trkpt><trkpt lat="46.7866659" lon="10.5418785"><ele>1499.4285714285716</ele><time>2026-03-24T09:10:05.361Z</time></trkpt><trkpt lat="46.7865924" lon="10.5418814"><ele>1498.2857142857144</ele><time>2026-03-24T09:10:06.342Z</time></trkpt><trkpt lat="46.7865178" lon="10.5418898"><ele>1497.142857142857</ele><time>2026-03-24T09:10:07.353Z</time></trkpt><trkpt lat="46.7864435" lon="10.5418992"><ele>1496.0</ele><time>2026-03-24T09:10:08.364Z</time></trkpt><trkpt lat="46.7863676" lon="10.5419145"><ele>1496.0</ele><time>2026-03-24T09:10:09.358Z</time></trkpt><trkpt lat="46.786296" lon="10.5419386"><ele>1496.0</ele><time>2026-03-24T09:10:10.36Z</time></trkpt><trkpt lat="46.7862267" lon="10.541969"><ele>1496.0</ele><time>2026-03-24T09:10:11.36Z</time></trkpt><trkpt lat="46.7861594" lon="10.5419917"><ele>1496.0</ele><time>2026-03-24T09:10:12.36Z</time></trkpt><trkpt lat="46.7860869" lon="10.5420066"><ele>1496.0</ele><time>2026-03-24T09:10:13.358Z</time></trkpt><trkpt lat="46.7860121" lon="10.5420436"><ele>1496.0</ele><time>2026-03-24T09:10:14.361Z</time></trkpt><trkpt lat="46.7859316" lon="10.5420758"><ele>1498.5714285714284</ele><time>2026-03-24T09:10:15.35Z</time></trkpt><trkpt lat="46.7858626" lon="10.5421014"><ele>1501.1428571428573</ele><time>2026-03-24T09:10:16.357Z</time></trkpt><trkpt lat="46.7857851" lon="10.5421211"><ele>1503.7142857142858</ele><time>2026-03-24T09:10:17.358Z</time></trkpt><trkpt lat="46.7857092" lon="10.5421426"><ele>1506.2857142857142</ele><time>2026-03-24T09:10:18.36Z</time></trkpt><trkpt lat="46.7856402" lon="10.5421646"><ele>1508.8571428571427</ele><time>2026-03-24T09:10:19.368Z</time></trkpt><trkpt lat="46.7855727" lon="10.5421844"><ele>1511.4285714285716</ele><time>2026-03-24T09:10:20.355Z</time></trkpt><trkpt lat="46.7855054" lon="10.5422092"><ele>1514.0</ele><time>2026-03-24T09:10:21.361Z</time></trkpt><trkpt lat="46.7854377" lon="10.54223"><ele>1514.0</ele><time>2026-03-24T09:10:22.362Z</time></trkpt><trkpt lat="46.7853716" lon="10.5422528"><ele>1514.0</ele><time>2026-03-24T09:10:23.367Z</time></trkpt><trkpt lat="46.7853026" lon="10.5422714"><ele>1514.0</ele><time>2026-03-24T09:10:24.35Z</time></trkpt><trkpt lat="46.7852359" lon="10.5422902"><ele>1514.0</ele><time>2026-03-24T09:10:25.374Z</time></trkpt><trkpt lat="46.7851683" lon="10.5423089"><ele>1514.0</ele><time>2026-03-24T09:10:26.371Z</time></trkpt><trkpt lat="46.7851019" lon="10.5423274"><ele>1514.0</ele><time>2026-03-24T09:10:27.359Z</time></trkpt><trkpt lat="46.7850357" lon="10.5423464"><ele>1514.0</ele><time>2026-03-24T09:10:28.369Z</time></trkpt><trkpt lat="46.7849681" lon="10.5423658"><ele>1513.857142857143</ele><time>2026-03-24T09:10:29.366Z</time></trkpt><trkpt lat="46.7848998" lon="10.5423865"><ele>1513.7142857142856</ele><time>2026-03-24T09:10:30.363Z</time></trkpt><trkpt lat="46.7848315" lon="10.5424059"><ele>1513.5714285714284</ele><time>2026-03-24T09:10:31.357Z</time></trkpt><trkpt lat="46.7847645" lon="10.5424252"><ele>1513.4285714285716</ele><time>2026-03-24T09:10:32.358Z</time></trkpt><trkpt lat="46.7846983" lon="10.5424451"><ele>1513.2857142857142</ele><time>2026-03-24T09:10:33.359Z</time></trkpt><trkpt lat="46.7846316" lon="10.5424642"><ele>1513.142857142857</ele><time>2026-03-24T09:10:34.357Z</time></trkpt><trkpt lat="46.7845663" lon="10.5424802"><ele>1513.0</ele><time>2026-03-24T09:10:35.355Z</time></trkpt><trkpt lat="46.7845024" lon="10.5424936"><ele>1513.0</ele><time>2026-03-24T09:10:36.347Z</time></trkpt><trkpt lat="46.7843794" lon="10.5424912"><ele>1513.0</ele><time>2026-03-24T09:10:38.354Z</time></trkpt><trkpt lat="46.7843189" lon="10.5424656"><ele>1513.0</ele><time>2026-03-24T09:10:39.353Z</time></trkpt><trkpt lat="46.7842361" lon="10.5424258"><ele>1513.0</ele><time>2026-03-24T09:10:40.358Z</time></trkpt><trkpt lat="46.7841613" lon="10.5423766"><ele>1513.0</ele><time>2026-03-24T09:10:41.363Z</time></trkpt><trkpt lat="46.7840925" lon="10.5423177"><ele>1513.0</ele><time>2026-03-24T09:10:42.346Z</time></trkpt><trkpt lat="46.7840272" lon="10.5422559"><ele>1512.0</ele><time>2026-03-24T09:10:43.357Z</time></trkpt><trkpt lat="46.7839683" lon="10.5421909"><ele>1511.0</ele><time>2026-03-24T09:10:44.357Z</time></trkpt><trkpt lat="46.7839105" lon="10.5421244"><ele>1510.0</ele><time>2026-03-24T09:10:45.365Z</time></trkpt><trkpt lat="46.7838532" lon="10.5420589"><ele>1509.0</ele><time>2026-03-24T09:10:46.36Z</time></trkpt><trkpt lat="46.7837953" lon="10.541993"><ele>1508.0</ele><time>2026-03-24T09:10:47.361Z</time></trkpt><trkpt lat="46.7837372" lon="10.5419268"><ele>1507.0</ele><time>2026-03-24T09:10:48.363Z</time></trkpt><trkpt lat="46.7836809" lon="10.5418615"><ele>1506.0</ele><time>2026-03-24T09:10:49.37Z</time></trkpt><trkpt lat="46.7836243" lon="10.5417949"><ele>1505.2857142857142</ele><time>2026-03-24T09:10:50.351Z</time></trkpt><trkpt lat="46.7835681" lon="10.5417317"><ele>1504.5714285714287</ele><time>2026-03-24T09:10:51.358Z</time></trkpt><trkpt lat="46.7835098" lon="10.5416683"><ele>1503.8571428571427</ele><time>2026-03-24T09:10:52.37Z</time></trkpt><trkpt lat="46.7834521" lon="10.541605"><ele>1503.142857142857</ele><time>2026-03-24T09:10:53.353Z</time></trkpt><trkpt lat="46.783394" lon="10.5415406"><ele>1502.4285714285713</ele><time>2026-03-24T09:10:54.358Z</time></trkpt><trkpt lat="46.7833364" lon="10.5414763"><ele>1501.7142857142856</ele><time>2026-03-24T09:10:55.354Z</time></trkpt><trkpt lat="46.7832779" lon="10.5414116"><ele>1501.0</ele><time>2026-03-24T09:10:56.355Z</time></trkpt><trkpt lat="46.783219" lon="10.5413474"><ele>1500.9999999999998</ele><time>2026-03-24T09:10:57.357Z</time></trkpt><trkpt lat="46.7831612" lon="10.541284"><ele>1501.0</ele><time>2026-03-24T09:10:58.365Z</time></trkpt><trkpt lat="46.7831039" lon="10.5412203"><ele>1501.0</ele><time>2026-03-24T09:10:59.368Z</time></trkpt><trkpt lat="46.7830461" lon="10.5411581"><ele>1501.0</ele><time>2026-03-24T09:11:00.364Z</time></trkpt><trkpt lat="46.7829881" lon="10.5410968"><ele>1501.0</ele><time>2026-03-24T09:11:01.355Z</time></trkpt><trkpt lat="46.7829292" lon="10.5410341"><ele>1500.9999999999998</ele><time>2026-03-24T09:11:02.359Z</time></trkpt><trkpt lat="46.782871" lon="10.5409717"><ele>1501.0</ele><time>2026-03-24T09:11:03.36Z</time></trkpt><trkpt lat="46.7828131" lon="10.5409092"><ele>1501.2857142857142</ele><time>2026-03-24T09:11:04.362Z</time></trkpt><trkpt lat="46.7827541" lon="10.5408449"><ele>1501.5714285714284</ele><time>2026-03-24T09:11:05.361Z</time></trkpt><trkpt lat="46.782696" lon="10.5407809"><ele>1501.8571428571427</ele><time>2026-03-24T09:11:06.357Z</time></trkpt><trkpt lat="46.7826384" lon="10.5407159"><ele>1502.142857142857</ele><time>2026-03-24T09:11:07.357Z</time></trkpt><trkpt lat="46.7825805" lon="10.5406519"><ele>1502.4285714285716</ele><time>2026-03-24T09:11:08.353Z</time></trkpt><trkpt lat="46.7825233" lon="10.5405909"><ele>1502.7142857142856</ele><time>2026-03-24T09:11:09.361Z</time></trkpt><trkpt lat="46.7824647" lon="10.5405298"><ele>1503.0</ele><time>2026-03-24T09:11:10.366Z</time></trkpt><trkpt lat="46.7824049" lon="10.5404691"><ele>1503.0</ele><time>2026-03-24T09:11:11.364Z</time></trkpt><trkpt lat="46.782346" lon="10.54041"><ele>1503.0</ele><time>2026-03-24T09:11:12.365Z</time></trkpt><trkpt lat="46.7822891" lon="10.5403474"><ele>1503.0</ele><time>2026-03-24T09:11:13.36Z</time></trkpt><trkpt lat="46.7822327" lon="10.5402854"><ele>1503.0</ele><time>2026-03-24T09:11:14.359Z</time></trkpt><trkpt lat="46.7821758" lon="10.5402217"><ele>1503.0</ele><time>2026-03-24T09:11:15.364Z</time></trkpt><trkpt lat="46.7821187" lon="10.5401576"><ele>1503.0</ele><time>2026-03-24T09:11:16.367Z</time></trkpt><trkpt lat="46.7820608" lon="10.5400947"><ele>1503.0</ele><time>2026-03-24T09:11:17.362Z</time></trkpt><trkpt lat="46.7820034" lon="10.5400322"><ele>1501.857142857143</ele><time>2026-03-24T09:11:18.366Z</time></trkpt><trkpt lat="46.7819471" lon="10.5399694"><ele>1500.7142857142858</ele><time>2026-03-24T09:11:19.358Z</time></trkpt><trkpt lat="46.7818923" lon="10.5399067"><ele>1499.5714285714287</ele><time>2026-03-24T09:11:20.362Z</time></trkpt><trkpt lat="46.7818357" lon="10.5398443"><ele>1498.4285714285716</ele><time>2026-03-24T09:11:21.362Z</time></trkpt><trkpt lat="46.7817809" lon="10.5397813"><ele>1497.2857142857142</ele><time>2026-03-24T09:11:22.359Z</time></trkpt><trkpt lat="46.7817266" lon="10.5397186"><ele>1496.1428571428573</ele><time>2026-03-24T09:11:23.361Z</time></trkpt><trkpt lat="46.7816731" lon="10.5396521"><ele>1495.0</ele><time>2026-03-24T09:11:24.366Z</time></trkpt><trkpt lat="46.7816212" lon="10.539584"><ele>1496.2857142857144</ele><time>2026-03-24T09:11:25.364Z</time></trkpt><trkpt lat="46.7815701" lon="10.5395141"><ele>1497.5714285714287</ele><time>2026-03-24T09:11:26.361Z</time></trkpt><trkpt lat="46.7815211" lon="10.5394424"><ele>1498.857142857143</ele><time>2026-03-24T09:11:27.357Z</time></trkpt><trkpt lat="46.7814729" lon="10.5393691"><ele>1500.1428571428573</ele><time>2026-03-24T09:11:28.36Z</time></trkpt><trkpt lat="46.7814252" lon="10.5392946"><ele>1501.4285714285713</ele><time>2026-03-24T09:11:29.349Z</time></trkpt><trkpt lat="46.7813793" lon="10.5392195"><ele>1502.7142857142858</ele><time>2026-03-24T09:11:30.363Z</time></trkpt><trkpt lat="46.7813333" lon="10.5391421"><ele>1504.0</ele><time>2026-03-24T09:11:31.365Z</time></trkpt><trkpt lat="46.7812893" lon="10.539064"><ele>1504.0</ele><time>2026-03-24T09:11:32.367Z</time></trkpt><trkpt lat="46.7812453" lon="10.5389856"><ele>1504.0</ele><time>2026-03-24T09:11:33.368Z</time></trkpt><trkpt lat="46.781202" lon="10.538906"><ele>1504.0</ele><time>2026-03-24T09:11:34.362Z</time></trkpt><trkpt lat="46.7811585" lon="10.5388265"><ele>1504.0</ele><time>2026-03-24T09:11:35.346Z</time></trkpt><trkpt lat="46.7811157" lon="10.5387456"><ele>1504.0</ele><time>2026-03-24T09:11:36.358Z</time></trkpt><trkpt lat="46.7810737" lon="10.538666"><ele>1504.0</ele><time>2026-03-24T09:11:37.353Z</time></trkpt><trkpt lat="46.781032" lon="10.538589"><ele>1504.0</ele><time>2026-03-24T09:11:38.365Z</time></trkpt><trkpt lat="46.7809882" lon="10.5385098"><ele>1505.0</ele><time>2026-03-24T09:11:39.362Z</time></trkpt><trkpt lat="46.7809443" lon="10.5384344"><ele>1506.0</ele><time>2026-03-24T09:11:40.367Z</time></trkpt><trkpt lat="46.7808995" lon="10.5383591"><ele>1507.0</ele><time>2026-03-24T09:11:41.366Z</time></trkpt><trkpt lat="46.7808543" lon="10.5382873"><ele>1508.0</ele><time>2026-03-24T09:11:42.355Z</time></trkpt><trkpt lat="46.7808059" lon="10.5382187"><ele>1509.0</ele><time>2026-03-24T09:11:43.362Z</time></trkpt><trkpt lat="46.7807584" lon="10.5381537"><ele>1510.0</ele><time>2026-03-24T09:11:44.359Z</time></trkpt><trkpt lat="46.7807115" lon="10.5380852"><ele>1511.0</ele><time>2026-03-24T09:11:45.346Z</time></trkpt><trkpt lat="46.7806623" lon="10.5380176"><ele>1511.0</ele><time>2026-03-24T09:11:46.36Z</time></trkpt><trkpt lat="46.7806137" lon="10.5379517"><ele>1511.0</ele><time>2026-03-24T09:11:47.352Z</time></trkpt><trkpt lat="46.7805631" lon="10.5378868"><ele>1511.0</ele><time>2026-03-24T09:11:48.36Z</time></trkpt><trkpt lat="46.7805085" lon="10.5378248"><ele>1511.0</ele><time>2026-03-24T09:11:49.354Z</time></trkpt><trkpt lat="46.7804547" lon="10.5377656"><ele>1511.0</ele><time>2026-03-24T09:11:50.368Z</time></trkpt><trkpt lat="46.7803997" lon="10.5377075"><ele>1511.0</ele><time>2026-03-24T09:11:51.367Z</time></trkpt><trkpt lat="46.780344" lon="10.5376491"><ele>1511.0</ele><time>2026-03-24T09:11:52.374Z</time></trkpt><trkpt lat="46.7802854" lon="10.5375923"><ele>1511.7142857142858</ele><time>2026-03-24T09:11:53.366Z</time></trkpt><trkpt lat="46.7802264" lon="10.5375375"><ele>1512.4285714285713</ele><time>2026-03-24T09:11:54.362Z</time></trkpt><trkpt lat="46.780167" lon="10.5374857"><ele>1513.1428571428573</ele><time>2026-03-24T09:11:55.345Z</time></trkpt><trkpt lat="46.7801061" lon="10.537436"><ele>1513.857142857143</ele><time>2026-03-24T09:11:56.36Z</time></trkpt><trkpt lat="46.7800451" lon="10.5373881"><ele>1514.5714285714287</ele><time>2026-03-24T09:11:57.35Z</time></trkpt><trkpt lat="46.779982" lon="10.5373429"><ele>1515.2857142857144</ele><time>2026-03-24T09:11:58.359Z</time></trkpt><trkpt lat="46.7799193" lon="10.5372946"><ele>1516.0</ele><time>2026-03-24T09:11:59.362Z</time></trkpt><trkpt lat="46.7798557" lon="10.5372463"><ele>1516.0000000000002</ele><time>2026-03-24T09:12:00.359Z</time></trkpt><trkpt lat="46.7797921" lon="10.5371966"><ele>1516.0</ele><time>2026-03-24T09:12:01.358Z</time></trkpt><trkpt lat="46.7797291" lon="10.5371485"><ele>1516.0</ele><time>2026-03-24T09:12:02.354Z</time></trkpt><trkpt lat="46.7796644" lon="10.5371009"><ele>1516.0</ele><time>2026-03-24T09:12:03.362Z</time></trkpt><trkpt lat="46.7796012" lon="10.5370516"><ele>1516.0</ele><time>2026-03-24T09:12:04.368Z</time></trkpt><trkpt lat="46.7795391" lon="10.537002"><ele>1516.0000000000002</ele><time>2026-03-24T09:12:05.357Z</time></trkpt><trkpt lat="46.7794763" lon="10.5369542"><ele>1516.0</ele><time>2026-03-24T09:12:06.361Z</time></trkpt><trkpt lat="46.779414" lon="10.5369043"><ele>1514.4285714285716</ele><time>2026-03-24T09:12:07.354Z</time></trkpt><trkpt lat="46.7793518" lon="10.5368537"><ele>1512.857142857143</ele><time>2026-03-24T09:12:08.362Z</time></trkpt><trkpt lat="46.7792899" lon="10.5368033"><ele>1511.2857142857142</ele><time>2026-03-24T09:12:09.37Z</time></trkpt><trkpt lat="46.7792305" lon="10.5367548"><ele>1509.7142857142858</ele><time>2026-03-24T09:12:10.365Z</time></trkpt><trkpt lat="46.779169" lon="10.5367059"><ele>1508.142857142857</ele><time>2026-03-24T09:12:11.362Z</time></trkpt><trkpt lat="46.7791075" lon="10.5366571"><ele>1506.5714285714287</ele><time>2026-03-24T09:12:12.367Z</time></trkpt><trkpt lat="46.7790467" lon="10.5366085"><ele>1505.0</ele><time>2026-03-24T09:12:13.352Z</time></trkpt><trkpt lat="46.7789865" lon="10.5365604"><ele>1505.0</ele><time>2026-03-24T09:12:14.367Z</time></trkpt><trkpt lat="46.7789264" lon="10.5365118"><ele>1505.0</ele><time>2026-03-24T09:12:15.361Z</time></trkpt><trkpt lat="46.7788664" lon="10.5364641"><ele>1505.0</ele><time>2026-03-24T09:12:16.349Z</time></trkpt><trkpt lat="46.7788052" lon="10.5364174"><ele>1505.0</ele><time>2026-03-24T09:12:17.358Z</time></trkpt><trkpt lat="46.7787447" lon="10.5363705"><ele>1505.0</ele><time>2026-03-24T09:12:18.354Z</time></trkpt><trkpt lat="46.7786867" lon="10.5363253"><ele>1505.0</ele><time>2026-03-24T09:12:19.35Z</time></trkpt><trkpt lat="46.7786281" lon="10.5362807"><ele>1505.0</ele><time>2026-03-24T09:12:20.371Z</time></trkpt><trkpt lat="46.7785694" lon="10.5362361"><ele>1504.4285714285713</ele><time>2026-03-24T09:12:21.356Z</time></trkpt><trkpt lat="46.7785112" lon="10.5361933"><ele>1503.857142857143</ele><time>2026-03-24T09:12:22.348Z</time></trkpt><trkpt lat="46.7784504" lon="10.5361514"><ele>1503.2857142857142</ele><time>2026-03-24T09:12:23.362Z</time></trkpt><trkpt lat="46.7783912" lon="10.5361118"><ele>1502.7142857142858</ele><time>2026-03-24T09:12:24.356Z</time></trkpt><trkpt lat="46.77833" lon="10.5360744"><ele>1502.142857142857</ele><time>2026-03-24T09:12:25.358Z</time></trkpt><trkpt lat="46.7782662" lon="10.5360411"><ele>1501.5714285714284</ele><time>2026-03-24T09:12:26.366Z</time></trkpt><trkpt lat="46.7782016" lon="10.5360092"><ele>1501.0</ele><time>2026-03-24T09:12:27.359Z</time></trkpt><trkpt lat="46.7781367" lon="10.5359773"><ele>1500.9999999999998</ele><time>2026-03-24T09:12:28.35Z</time></trkpt><trkpt lat="46.7780705" lon="10.535947"><ele>1501.0</ele><time>2026-03-24T09:12:29.338Z</time></trkpt><trkpt lat="46.7780037" lon="10.5359145"><ele>1501.0</ele><time>2026-03-24T09:12:30.347Z</time></trkpt><trkpt lat="46.7779368" lon="10.5358821"><ele>1501.0</ele><time>2026-03-24T09:12:31.346Z</time></trkpt><trkpt lat="46.7778691" lon="10.5358508"><ele>1501.0</ele><time>2026-03-24T09:12:32.354Z</time></trkpt><trkpt lat="46.7778005" lon="10.5358179"><ele>1500.9999999999998</ele><time>2026-03-24T09:12:33.357Z</time></trkpt><trkpt lat="46.7777324" lon="10.5357842"><ele>1501.0</ele><time>2026-03-24T09:12:34.354Z</time></trkpt><trkpt lat="46.7776649" lon="10.535751"><ele>1501.2857142857142</ele><time>2026-03-24T09:12:35.349Z</time></trkpt><trkpt lat="46.7775983" lon="10.5357173"><ele>1501.5714285714284</ele><time>2026-03-24T09:12:36.363Z</time></trkpt><trkpt lat="46.777534" lon="10.535685"><ele>1501.8571428571427</ele><time>2026-03-24T09:12:37.348Z</time></trkpt><trkpt lat="46.7774673" lon="10.5356513"><ele>1502.142857142857</ele><time>2026-03-24T09:12:38.373Z</time></trkpt><trkpt lat="46.7774029" lon="10.5356171"><ele>1502.4285714285716</ele><time>2026-03-24T09:12:39.357Z</time></trkpt><trkpt lat="46.7773366" lon="10.5355836"><ele>1502.7142857142856</ele><time>2026-03-24T09:12:40.36Z</time></trkpt><trkpt lat="46.7772712" lon="10.5355496"><ele>1503.0</ele><time>2026-03-24T09:12:41.353Z</time></trkpt><trkpt lat="46.777205" lon="10.535516"><ele>1503.0</ele><time>2026-03-24T09:12:42.363Z</time></trkpt><trkpt lat="46.7771384" lon="10.5354834"><ele>1503.0</ele><time>2026-03-24T09:12:43.368Z</time></trkpt><trkpt lat="46.7770716" lon="10.5354498"><ele>1503.0</ele><time>2026-03-24T09:12:44.357Z</time></trkpt><trkpt lat="46.7770049" lon="10.5354158"><ele>1503.0</ele><time>2026-03-24T09:12:45.353Z</time></trkpt><trkpt lat="46.7769378" lon="10.5353818"><ele>1503.0</ele><time>2026-03-24T09:12:46.349Z</time></trkpt><trkpt lat="46.7768702" lon="10.5353487"><ele>1503.0</ele><time>2026-03-24T09:12:47.355Z</time></trkpt><trkpt lat="46.7768014" lon="10.5353169"><ele>1503.0</ele><time>2026-03-24T09:12:48.355Z</time></trkpt><trkpt lat="46.7767335" lon="10.5352848"><ele>1502.142857142857</ele><time>2026-03-24T09:12:49.351Z</time></trkpt><trkpt lat="46.7766663" lon="10.5352514"><ele>1501.2857142857144</ele><time>2026-03-24T09:12:50.354Z</time></trkpt><trkpt lat="46.776599" lon="10.5352195"><ele>1500.4285714285716</ele><time>2026-03-24T09:12:51.354Z</time></trkpt><trkpt lat="46.7765328" lon="10.5351864"><ele>1499.5714285714284</ele><time>2026-03-24T09:12:52.362Z</time></trkpt><trkpt lat="46.7764661" lon="10.5351534"><ele>1498.7142857142858</ele><time>2026-03-24T09:12:53.35Z</time></trkpt><trkpt lat="46.776399" lon="10.5351214"><ele>1497.857142857143</ele><time>2026-03-24T09:12:54.348Z</time></trkpt><trkpt lat="46.7763331" lon="10.5350925"><ele>1497.0</ele><time>2026-03-24T09:12:55.356Z</time></trkpt><trkpt lat="46.776266" lon="10.5350642"><ele>1497.0</ele><time>2026-03-24T09:12:56.348Z</time></trkpt><trkpt lat="46.7761989" lon="10.5350385"><ele>1497.0</ele><time>2026-03-24T09:12:57.359Z</time></trkpt><trkpt lat="46.776131" lon="10.5350145"><ele>1497.0</ele><time>2026-03-24T09:12:58.36Z</time></trkpt><trkpt lat="46.7760628" lon="10.5349945"><ele>1497.0</ele><time>2026-03-24T09:12:59.357Z</time></trkpt><trkpt lat="46.7759937" lon="10.534978"><ele>1497.0</ele><time>2026-03-24T09:13:00.358Z</time></trkpt><trkpt lat="46.775924" lon="10.5349627"><ele>1497.0</ele><time>2026-03-24T09:13:01.361Z</time></trkpt><trkpt lat="46.7758541" lon="10.534951"><ele>1497.0</ele><time>2026-03-24T09:13:02.361Z</time></trkpt><trkpt lat="46.775784" lon="10.5349427"><ele>1497.2857142857142</ele><time>2026-03-24T09:13:03.353Z</time></trkpt><trkpt lat="46.7757131" lon="10.5349355"><ele>1497.5714285714284</ele><time>2026-03-24T09:13:04.349Z</time></trkpt><trkpt lat="46.775642" lon="10.5349304"><ele>1497.857142857143</ele><time>2026-03-24T09:13:05.357Z</time></trkpt><trkpt lat="46.7755706" lon="10.5349267"><ele>1498.142857142857</ele><time>2026-03-24T09:13:06.354Z</time></trkpt><trkpt lat="46.7754987" lon="10.5349239"><ele>1498.4285714285716</ele><time>2026-03-24T09:13:07.355Z</time></trkpt><trkpt lat="46.7754258" lon="10.5349235"><ele>1498.7142857142858</ele><time>2026-03-24T09:13:08.358Z</time></trkpt><trkpt lat="46.7753528" lon="10.5349221"><ele>1499.0</ele><time>2026-03-24T09:13:09.35Z</time></trkpt><trkpt lat="46.7752799" lon="10.5349196"><ele>1499.0</ele><time>2026-03-24T09:13:10.367Z</time></trkpt><trkpt lat="46.7752075" lon="10.5349185"><ele>1499.0</ele><time>2026-03-24T09:13:11.374Z</time></trkpt><trkpt lat="46.7751345" lon="10.5349166"><ele>1499.0</ele><time>2026-03-24T09:13:12.355Z</time></trkpt><trkpt lat="46.7750608" lon="10.5349143"><ele>1499.0</ele><time>2026-03-24T09:13:13.349Z</time></trkpt><trkpt lat="46.7749885" lon="10.5349134"><ele>1499.0</ele><time>2026-03-24T09:13:14.355Z</time></trkpt><trkpt lat="46.7749166" lon="10.5349113"><ele>1499.0</ele><time>2026-03-24T09:13:15.357Z</time></trkpt><trkpt lat="46.7748446" lon="10.5349101"><ele>1499.0</ele><time>2026-03-24T09:13:16.361Z</time></trkpt><trkpt lat="46.774772" lon="10.5349106"><ele>1499.2857142857142</ele><time>2026-03-24T09:13:17.368Z</time></trkpt><trkpt lat="46.7747015" lon="10.53491"><ele>1499.5714285714287</ele><time>2026-03-24T09:13:18.356Z</time></trkpt><trkpt lat="46.7746305" lon="10.5349085"><ele>1499.8571428571427</ele><time>2026-03-24T09:13:19.352Z</time></trkpt><trkpt lat="46.77456" lon="10.5349067"><ele>1500.142857142857</ele><time>2026-03-24T09:13:20.36Z</time></trkpt><trkpt lat="46.7744903" lon="10.5349045"><ele>1500.4285714285713</ele><time>2026-03-24T09:13:21.361Z</time></trkpt><trkpt lat="46.7744215" lon="10.534901"><ele>1500.7142857142856</ele><time>2026-03-24T09:13:22.363Z</time></trkpt><trkpt lat="46.7743532" lon="10.5348996"><ele>1501.0</ele><time>2026-03-24T09:13:23.349Z</time></trkpt><trkpt lat="46.7742858" lon="10.5348973"><ele>1500.9999999999998</ele><time>2026-03-24T09:13:24.355Z</time></trkpt><trkpt lat="46.7742179" lon="10.5348967"><ele>1501.0</ele><time>2026-03-24T09:13:25.358Z</time></trkpt><trkpt lat="46.7741499" lon="10.5348952"><ele>1501.0</ele><time>2026-03-24T09:13:26.351Z</time></trkpt><trkpt lat="46.7740826" lon="10.5348916"><ele>1501.0</ele><time>2026-03-24T09:13:27.365Z</time></trkpt><trkpt lat="46.7740149" lon="10.534888"><ele>1501.0</ele><time>2026-03-24T09:13:28.365Z</time></trkpt><trkpt lat="46.7739471" lon="10.5348814"><ele>1500.9999999999998</ele><time>2026-03-24T09:13:29.351Z</time></trkpt><trkpt lat="46.7738782" lon="10.5348745"><ele>1501.0</ele><time>2026-03-24T09:13:30.358Z</time></trkpt><trkpt lat="46.7738094" lon="10.5348655"><ele>1501.0</ele><time>2026-03-24T09:13:31.353Z</time></trkpt><trkpt lat="46.7737389" lon="10.5348526"><ele>1501.0</ele><time>2026-03-24T09:13:32.362Z</time></trkpt><trkpt lat="46.7736671" lon="10.5348357"><ele>1501.0</ele><time>2026-03-24T09:13:33.359Z</time></trkpt><trkpt lat="46.7735936" lon="10.5348148"><ele>1501.0</ele><time>2026-03-24T09:13:34.352Z</time></trkpt><trkpt lat="46.7735183" lon="10.5347895"><ele>1501.0</ele><time>2026-03-24T09:13:35.362Z</time></trkpt><trkpt lat="46.7734417" lon="10.5347589"><ele>1501.0</ele><time>2026-03-24T09:13:36.366Z</time></trkpt><trkpt lat="46.7733627" lon="10.5347289"><ele>1501.0</ele><time>2026-03-24T09:13:37.368Z</time></trkpt><trkpt lat="46.7732811" lon="10.5346966"><ele>1501.0</ele><time>2026-03-24T09:13:38.357Z</time></trkpt><trkpt lat="46.7731998" lon="10.534667"><ele>1501.0</ele><time>2026-03-24T09:13:39.358Z</time></trkpt><trkpt lat="46.7731153" lon="10.534633"><ele>1501.0</ele><time>2026-03-24T09:13:40.353Z</time></trkpt><trkpt lat="46.773029" lon="10.5345996"><ele>1501.0</ele><time>2026-03-24T09:13:41.369Z</time></trkpt><trkpt lat="46.7729421" lon="10.5345655"><ele>1501.0</ele><time>2026-03-24T09:13:42.362Z</time></trkpt><trkpt lat="46.772853" lon="10.5345303"><ele>1500.1999999999998</ele><time>2026-03-24T09:13:43.36Z</time></trkpt><trkpt lat="46.7727619" lon="10.5344911"><ele>1499.3999999999999</ele><time>2026-03-24T09:13:44.371Z</time></trkpt><trkpt lat="46.7726729" lon="10.5344528"><ele>1498.6</ele><time>2026-03-24T09:13:45.367Z</time></trkpt><trkpt lat="46.7725826" lon="10.5344165"><ele>1497.8</ele><time>2026-03-24T09:13:46.362Z</time></trkpt><trkpt lat="46.7724908" lon="10.5343808"><ele>1497.0</ele><time>2026-03-24T09:13:47.357Z</time></trkpt><trkpt lat="46.7723996" lon="10.5343434"><ele>1497.0</ele><time>2026-03-24T09:13:48.362Z</time></trkpt><trkpt lat="46.7723066" lon="10.5343051"><ele>1497.0</ele><time>2026-03-24T09:13:49.352Z</time></trkpt><trkpt lat="46.7722124" lon="10.5342679"><ele>1497.0</ele><time>2026-03-24T09:13:50.371Z</time></trkpt><trkpt lat="46.7721169" lon="10.5342312"><ele>1497.0</ele><time>2026-03-24T09:13:51.354Z</time></trkpt><trkpt lat="46.772021" lon="10.5341912"><ele>1497.0</ele><time>2026-03-24T09:13:52.354Z</time></trkpt><trkpt lat="46.7719251" lon="10.5341521"><ele>1496.3999999999999</ele><time>2026-03-24T09:13:53.366Z</time></trkpt><trkpt lat="46.7718294" lon="10.5341129"><ele>1495.8</ele><time>2026-03-24T09:13:54.353Z</time></trkpt><trkpt lat="46.7717333" lon="10.5340732"><ele>1495.2</ele><time>2026-03-24T09:13:55.355Z</time></trkpt><trkpt lat="46.771637" lon="10.5340347"><ele>1494.6</ele><time>2026-03-24T09:13:56.362Z</time></trkpt><trkpt lat="46.7715402" lon="10.5339953"><ele>1494.0</ele><time>2026-03-24T09:13:57.365Z</time></trkpt><trkpt lat="46.7714429" lon="10.5339562"><ele>1494.0</ele><time>2026-03-24T09:13:58.356Z</time></trkpt><trkpt lat="46.7713447" lon="10.5339189"><ele>1494.0</ele><time>2026-03-24T09:13:59.364Z</time></trkpt><trkpt lat="46.7712461" lon="10.5338806"><ele>1494.0</ele><time>2026-03-24T09:14:00.354Z</time></trkpt><trkpt lat="46.7711463" lon="10.53384"><ele>1494.0</ele><time>2026-03-24T09:14:01.366Z</time></trkpt><trkpt lat="46.7710472" lon="10.5337972"><ele>1494.0</ele><time>2026-03-24T09:14:02.363Z</time></trkpt><trkpt lat="46.7709473" lon="10.5337558"><ele>1492.8000000000002</ele><time>2026-03-24T09:14:03.356Z</time></trkpt><trkpt lat="46.7708472" lon="10.5337143"><ele>1491.6000000000001</ele><time>2026-03-24T09:14:04.35Z</time></trkpt><trkpt lat="46.7707464" lon="10.5336731"><ele>1490.4</ele><time>2026-03-24T09:14:05.354Z</time></trkpt><trkpt lat="46.7706452" lon="10.5336311"><ele>1489.2</ele><time>2026-03-24T09:14:06.359Z</time></trkpt><trkpt lat="46.770543" lon="10.5335902"><ele>1488.0</ele><time>2026-03-24T09:14:07.352Z</time></trkpt><trkpt lat="46.7704398" lon="10.5335496"><ele>1488.0</ele><time>2026-03-24T09:14:08.356Z</time></trkpt><trkpt lat="46.7703362" lon="10.5335095"><ele>1488.0</ele><time>2026-03-24T09:14:09.364Z</time></trkpt><trkpt lat="46.7702329" lon="10.5334679"><ele>1488.0</ele><time>2026-03-24T09:14:10.365Z</time></trkpt><trkpt lat="46.7701299" lon="10.5334245"><ele>1488.0</ele><time>2026-03-24T09:14:11.346Z</time></trkpt><trkpt lat="46.7700262" lon="10.5333829"><ele>1488.0</ele><time>2026-03-24T09:14:12.367Z</time></trkpt><trkpt lat="46.7699223" lon="10.5333422"><ele>1487.6000000000001</ele><time>2026-03-24T09:14:13.358Z</time></trkpt><trkpt lat="46.7698182" lon="10.5333"><ele>1487.2</ele><time>2026-03-24T09:14:14.358Z</time></trkpt><trkpt lat="46.7697137" lon="10.5332586"><ele>1486.8</ele><time>2026-03-24T09:14:15.356Z</time></trkpt><trkpt lat="46.7696096" lon="10.5332166"><ele>1486.4</ele><time>2026-03-24T09:14:16.349Z</time></trkpt><trkpt lat="46.7695056" lon="10.5331734"><ele>1486.0</ele><time>2026-03-24T09:14:17.353Z</time></trkpt><trkpt lat="46.7694015" lon="10.5331295"><ele>1485.1999999999998</ele><time>2026-03-24T09:14:18.355Z</time></trkpt><trkpt lat="46.7692965" lon="10.5330872"><ele>1484.3999999999999</ele><time>2026-03-24T09:14:19.369Z</time></trkpt><trkpt lat="46.7691912" lon="10.5330447"><ele>1483.6</ele><time>2026-03-24T09:14:20.355Z</time></trkpt><trkpt lat="46.7690858" lon="10.5330018"><ele>1482.8</ele><time>2026-03-24T09:14:21.362Z</time></trkpt><trkpt lat="46.7689801" lon="10.5329603"><ele>1482.0</ele><time>2026-03-24T09:14:22.368Z</time></trkpt><trkpt lat="46.7688738" lon="10.5329243"><ele>1482.0</ele><time>2026-03-24T09:14:23.361Z</time></trkpt><trkpt lat="46.768767" lon="10.5328952"><ele>1482.0</ele><time>2026-03-24T09:14:24.355Z</time></trkpt><trkpt lat="46.7686598" lon="10.532873"><ele>1482.0</ele><time>2026-03-24T09:14:25.363Z</time></trkpt><trkpt lat="46.7685524" lon="10.5328553"><ele>1482.0</ele><time>2026-03-24T09:14:26.359Z</time></trkpt><trkpt lat="46.7684452" lon="10.5328433"><ele>1482.0</ele><time>2026-03-24T09:14:27.358Z</time></trkpt><trkpt lat="46.7683394" lon="10.5328338"><ele>1481.8</ele><time>2026-03-24T09:14:28.368Z</time></trkpt><trkpt lat="46.7682364" lon="10.5328303"><ele>1481.6</ele><time>2026-03-24T09:14:29.363Z</time></trkpt><trkpt lat="46.7681352" lon="10.5328373"><ele>1481.3999999999999</ele><time>2026-03-24T09:14:30.37Z</time></trkpt><trkpt lat="46.7680363" lon="10.5328531"><ele>1481.1999999999998</ele><time>2026-03-24T09:14:31.351Z</time></trkpt><trkpt lat="46.767944" lon="10.5328756"><ele>1481.0</ele><time>2026-03-24T09:14:32.354Z</time></trkpt><trkpt lat="46.7678631" lon="10.5328989"><ele>1481.0</ele><time>2026-03-24T09:14:33.368Z</time></trkpt><trkpt lat="46.7677968" lon="10.5329208"><ele>1481.0</ele><time>2026-03-24T09:14:34.351Z</time></trkpt><trkpt lat="46.7676893" lon="10.5329378"><ele>1481.0</ele><time>2026-03-24T09:14:36.357Z</time></trkpt><trkpt lat="46.7676202" lon="10.5328869"><ele>1481.0</ele><time>2026-03-24T09:14:38.365Z</time></trkpt><trkpt lat="46.7675797" lon="10.5327677"><ele>1481.0</ele><time>2026-03-24T09:14:40.367Z</time></trkpt><trkpt lat="46.7675227" lon="10.5326509"><ele>1481.0</ele><time>2026-03-24T09:14:42.358Z</time></trkpt><trkpt lat="46.7674378" lon="10.5325195"><ele>1479.8</ele><time>2026-03-24T09:14:44.366Z</time></trkpt><trkpt lat="46.7673462" lon="10.532402"><ele>1478.6</ele><time>2026-03-24T09:14:46.365Z</time></trkpt><trkpt lat="46.7672946" lon="10.5323489"><ele>1477.4</ele><time>2026-03-24T09:14:47.358Z</time></trkpt><trkpt lat="46.767182" lon="10.5322726"><ele>1476.2</ele><time>2026-03-24T09:14:49.348Z</time></trkpt><trkpt lat="46.767081" lon="10.532215"><ele>1475.0</ele><time>2026-03-24T09:14:51.363Z</time></trkpt><trkpt lat="46.7669951" lon="10.5321007"><ele>1474.142857142857</ele><time>2026-03-24T09:14:53.358Z</time></trkpt><trkpt lat="46.7669482" lon="10.532033"><ele>1473.2857142857144</ele><time>2026-03-24T09:14:54.353Z</time></trkpt><trkpt lat="46.7668967" lon="10.5319714"><ele>1472.4285714285716</ele><time>2026-03-24T09:14:55.353Z</time></trkpt><trkpt lat="46.7668407" lon="10.5319204"><ele>1471.5714285714284</ele><time>2026-03-24T09:14:56.361Z</time></trkpt><trkpt lat="46.7667764" lon="10.5318889"><ele>1470.7142857142858</ele><time>2026-03-24T09:14:57.36Z</time></trkpt><trkpt lat="46.7667084" lon="10.5318661"><ele>1469.857142857143</ele><time>2026-03-24T09:14:58.352Z</time></trkpt><trkpt lat="46.7666409" lon="10.5318458"><ele>1469.0</ele><time>2026-03-24T09:14:59.366Z</time></trkpt><trkpt lat="46.7665626" lon="10.5318423"><ele>1468.7142857142858</ele><time>2026-03-24T09:15:00.364Z</time></trkpt><trkpt lat="46.7664809" lon="10.5318377"><ele>1468.4285714285713</ele><time>2026-03-24T09:15:01.356Z</time></trkpt><trkpt lat="46.7664017" lon="10.5318441"><ele>1468.1428571428573</ele><time>2026-03-24T09:15:02.356Z</time></trkpt><trkpt lat="46.7663262" lon="10.5318562"><ele>1467.857142857143</ele><time>2026-03-24T09:15:03.354Z</time></trkpt><trkpt lat="46.7662553" lon="10.5318727"><ele>1467.5714285714287</ele><time>2026-03-24T09:15:04.355Z</time></trkpt><trkpt lat="46.7661878" lon="10.5318906"><ele>1467.2857142857144</ele><time>2026-03-24T09:15:05.355Z</time></trkpt><trkpt lat="46.7661233" lon="10.5319123"><ele>1467.0</ele><time>2026-03-24T09:15:06.359Z</time></trkpt><trkpt lat="46.7660588" lon="10.5319382"><ele>1466.5714285714287</ele><time>2026-03-24T09:15:07.35Z</time></trkpt><trkpt lat="46.765998" lon="10.5319691"><ele>1466.142857142857</ele><time>2026-03-24T09:15:08.351Z</time></trkpt><trkpt lat="46.765936" lon="10.5319979"><ele>1465.7142857142858</ele><time>2026-03-24T09:15:09.37Z</time></trkpt><trkpt lat="46.7658661" lon="10.5320188"><ele>1465.2857142857142</ele><time>2026-03-24T09:15:10.36Z</time></trkpt><trkpt lat="46.7657953" lon="10.5320292"><ele>1464.857142857143</ele><time>2026-03-24T09:15:11.354Z</time></trkpt><trkpt lat="46.7657255" lon="10.5320392"><ele>1464.4285714285716</ele><time>2026-03-24T09:15:12.369Z</time></trkpt><trkpt lat="46.7656522" lon="10.5320546"><ele>1464.0</ele><time>2026-03-24T09:15:13.357Z</time></trkpt><trkpt lat="46.7655787" lon="10.5320777"><ele>1464.142857142857</ele><time>2026-03-24T09:15:14.362Z</time></trkpt><trkpt lat="46.7655056" lon="10.5320939"><ele>1464.2857142857142</ele><time>2026-03-24T09:15:15.373Z</time></trkpt><trkpt lat="46.7654336" lon="10.5321112"><ele>1464.4285714285716</ele><time>2026-03-24T09:15:16.353Z</time></trkpt><trkpt lat="46.7653624" lon="10.5321348"><ele>1464.5714285714284</ele><time>2026-03-24T09:15:17.357Z</time></trkpt><trkpt lat="46.7652947" lon="10.5321623"><ele>1464.7142857142856</ele><time>2026-03-24T09:15:18.356Z</time></trkpt><trkpt lat="46.7652282" lon="10.5321944"><ele>1464.857142857143</ele><time>2026-03-24T09:15:19.359Z</time></trkpt><trkpt lat="46.7651633" lon="10.532226"><ele>1465.0</ele><time>2026-03-24T09:15:20.362Z</time></trkpt><trkpt lat="46.765099" lon="10.532255"><ele>1465.0</ele><time>2026-03-24T09:15:21.365Z</time></trkpt><trkpt lat="46.7650396" lon="10.5322893"><ele>1465.0</ele><time>2026-03-24T09:15:22.364Z</time></trkpt><trkpt lat="46.7649814" lon="10.5323297"><ele>1465.0</ele><time>2026-03-24T09:15:23.359Z</time></trkpt><trkpt lat="46.7648714" lon="10.5324067"><ele>1465.0</ele><time>2026-03-24T09:15:25.357Z</time></trkpt><trkpt lat="46.7647646" lon="10.5324825"><ele>1465.0</ele><time>2026-03-24T09:15:27.349Z</time></trkpt><trkpt lat="46.7646618" lon="10.5325476"><ele>1465.0</ele><time>2026-03-24T09:15:29.36Z</time></trkpt><trkpt lat="46.7645726" lon="10.5326076"><ele>1465.0</ele><time>2026-03-24T09:15:31.376Z</time></trkpt><trkpt lat="46.7644988" lon="10.5326619"><ele>1465.0</ele><time>2026-03-24T09:15:33.352Z</time></trkpt><trkpt lat="46.7644313" lon="10.5327312"><ele>1465.0</ele><time>2026-03-24T09:15:35.347Z</time></trkpt><trkpt lat="46.764362" lon="10.5328029"><ele>1465.0</ele><time>2026-03-24T09:15:37.365Z</time></trkpt><trkpt lat="46.7642975" lon="10.532893"><ele>1465.0</ele><time>2026-03-24T09:15:39.354Z</time></trkpt><trkpt lat="46.7642484" lon="10.5329884"><ele>1465.1666666666665</ele><time>2026-03-24T09:15:41.362Z</time></trkpt><trkpt lat="46.7642044" lon="10.533108"><ele>1465.3333333333333</ele><time>2026-03-24T09:15:43.354Z</time></trkpt><trkpt lat="46.7641687" lon="10.5332371"><ele>1465.5</ele><time>2026-03-24T09:15:45.362Z</time></trkpt><trkpt lat="46.7641396" lon="10.533355"><ele>1465.6666666666667</ele><time>2026-03-24T09:15:47.358Z</time></trkpt><trkpt lat="46.7641123" lon="10.5334665"><ele>1465.8333333333335</ele><time>2026-03-24T09:15:49.353Z</time></trkpt><trkpt lat="46.7640819" lon="10.5335629"><ele>1466.0</ele><time>2026-03-24T09:15:51.369Z</time></trkpt><trkpt lat="46.7640543" lon="10.5336551"><ele>1466.6666666666667</ele><time>2026-03-24T09:15:53.354Z</time></trkpt><trkpt lat="46.7640023" lon="10.5337408"><ele>1467.3333333333335</ele><time>2026-03-24T09:15:55.348Z</time></trkpt><trkpt lat="46.7639138" lon="10.5337787"><ele>1468.0</ele><time>2026-03-24T09:15:57.358Z</time></trkpt><trkpt lat="46.7638168" lon="10.5338049"><ele>1468.6666666666667</ele><time>2026-03-24T09:15:59.351Z</time></trkpt><trkpt lat="46.7637304" lon="10.5338281"><ele>1469.3333333333333</ele><time>2026-03-24T09:16:01.358Z</time></trkpt><trkpt lat="46.7636608" lon="10.5338412"><ele>1470.0</ele><time>2026-03-24T09:16:03.356Z</time></trkpt><trkpt lat="46.7635695" lon="10.5338453"><ele>1469.8333333333333</ele><time>2026-03-24T09:16:06.361Z</time></trkpt><trkpt lat="46.7634876" lon="10.5338562"><ele>1469.6666666666667</ele><time>2026-03-24T09:16:09.366Z</time></trkpt><trkpt lat="46.7634238" lon="10.5338725"><ele>1469.5</ele><time>2026-03-24T09:16:11.359Z</time></trkpt><trkpt lat="46.7633452" lon="10.5338956"><ele>1469.3333333333335</ele><time>2026-03-24T09:16:13.349Z</time></trkpt><trkpt lat="46.7632533" lon="10.5339245"><ele>1469.1666666666667</ele><time>2026-03-24T09:16:15.351Z</time></trkpt><trkpt lat="46.7631547" lon="10.5339638"><ele>1469.0</ele><time>2026-03-24T09:16:17.34Z</time></trkpt><trkpt lat="46.7630458" lon="10.5339982"><ele>1469.0</ele><time>2026-03-24T09:16:19.368Z</time></trkpt><trkpt lat="46.7629298" lon="10.5340436"><ele>1469.0</ele><time>2026-03-24T09:16:21.356Z</time></trkpt><trkpt lat="46.7628691" lon="10.5340691"><ele>1469.0</ele><time>2026-03-24T09:16:22.349Z</time></trkpt><trkpt lat="46.7628054" lon="10.5340921"><ele>1469.0</ele><time>2026-03-24T09:16:23.359Z</time></trkpt><trkpt lat="46.76274" lon="10.5341129"><ele>1469.0</ele><time>2026-03-24T09:16:24.358Z</time></trkpt><trkpt lat="46.762673" lon="10.5341341"><ele>1469.0</ele><time>2026-03-24T09:16:25.364Z</time></trkpt><trkpt lat="46.762605" lon="10.5341588"><ele>1467.857142857143</ele><time>2026-03-24T09:16:26.363Z</time></trkpt><trkpt lat="46.7625366" lon="10.5341841"><ele>1466.7142857142858</ele><time>2026-03-24T09:16:27.369Z</time></trkpt><trkpt lat="46.7624673" lon="10.5342109"><ele>1465.5714285714284</ele><time>2026-03-24T09:16:28.364Z</time></trkpt><trkpt lat="46.7623966" lon="10.5342362"><ele>1464.4285714285716</ele><time>2026-03-24T09:16:29.364Z</time></trkpt><trkpt lat="46.7623236" lon="10.5342608"><ele>1463.2857142857144</ele><time>2026-03-24T09:16:30.358Z</time></trkpt><trkpt lat="46.7622499" lon="10.5342859"><ele>1462.142857142857</ele><time>2026-03-24T09:16:31.37Z</time></trkpt><trkpt lat="46.7621762" lon="10.5343121"><ele>1461.0</ele><time>2026-03-24T09:16:32.364Z</time></trkpt><trkpt lat="46.7621022" lon="10.5343391"><ele>1461.0</ele><time>2026-03-24T09:16:33.368Z</time></trkpt><trkpt lat="46.7620276" lon="10.5343655"><ele>1461.0</ele><time>2026-03-24T09:16:34.36Z</time></trkpt><trkpt lat="46.7619523" lon="10.534391"><ele>1461.0</ele><time>2026-03-24T09:16:35.359Z</time></trkpt><trkpt lat="46.7618766" lon="10.5344171"><ele>1461.0</ele><time>2026-03-24T09:16:36.368Z</time></trkpt><trkpt lat="46.7617989" lon="10.5344439"><ele>1461.0</ele><time>2026-03-24T09:16:37.357Z</time></trkpt><trkpt lat="46.7617207" lon="10.5344763"><ele>1461.0</ele><time>2026-03-24T09:16:38.361Z</time></trkpt><trkpt lat="46.7616439" lon="10.5345108"><ele>1461.3333333333333</ele><time>2026-03-24T09:16:39.358Z</time></trkpt><trkpt lat="46.7615696" lon="10.5345495"><ele>1461.6666666666667</ele><time>2026-03-24T09:16:40.37Z</time></trkpt><trkpt lat="46.7614978" lon="10.5345935"><ele>1462.0</ele><time>2026-03-24T09:16:41.368Z</time></trkpt><trkpt lat="46.7614256" lon="10.5346405"><ele>1462.3333333333335</ele><time>2026-03-24T09:16:42.362Z</time></trkpt><trkpt lat="46.7613563" lon="10.5346924"><ele>1462.6666666666667</ele><time>2026-03-24T09:16:43.363Z</time></trkpt><trkpt lat="46.7612878" lon="10.5347471"><ele>1463.0</ele><time>2026-03-24T09:16:44.38Z</time></trkpt><trkpt lat="46.7612211" lon="10.5348004"><ele>1463.0</ele><time>2026-03-24T09:16:45.363Z</time></trkpt><trkpt lat="46.7611544" lon="10.5348555"><ele>1463.0</ele><time>2026-03-24T09:16:46.358Z</time></trkpt><trkpt lat="46.7610897" lon="10.5349122"><ele>1463.0</ele><time>2026-03-24T09:16:47.36Z</time></trkpt><trkpt lat="46.7610268" lon="10.5349722"><ele>1463.0</ele><time>2026-03-24T09:16:48.367Z</time></trkpt><trkpt lat="46.7609636" lon="10.5350334"><ele>1463.0</ele><time>2026-03-24T09:16:49.373Z</time></trkpt><trkpt lat="46.7609004" lon="10.5350951"><ele>1463.0</ele><time>2026-03-24T09:16:50.353Z</time></trkpt><trkpt lat="46.7608394" lon="10.5351579"><ele>1462.5714285714287</ele><time>2026-03-24T09:16:51.369Z</time></trkpt><trkpt lat="46.76078" lon="10.5352188"><ele>1462.142857142857</ele><time>2026-03-24T09:16:52.372Z</time></trkpt><trkpt lat="46.760721" lon="10.5352806"><ele>1461.7142857142858</ele><time>2026-03-24T09:16:53.363Z</time></trkpt><trkpt lat="46.7606621" lon="10.5353432"><ele>1461.2857142857142</ele><time>2026-03-24T09:16:54.372Z</time></trkpt><trkpt lat="46.7606031" lon="10.5354041"><ele>1460.857142857143</ele><time>2026-03-24T09:16:55.363Z</time></trkpt><trkpt lat="46.7605436" lon="10.5354632"><ele>1460.4285714285716</ele><time>2026-03-24T09:16:56.374Z</time></trkpt><trkpt lat="46.760485" lon="10.5355239"><ele>1460.0</ele><time>2026-03-24T09:16:57.372Z</time></trkpt><trkpt lat="46.7604272" lon="10.5355846"><ele>1460.0000000000002</ele><time>2026-03-24T09:16:58.361Z</time></trkpt><trkpt lat="46.7603716" lon="10.5356474"><ele>1460.0</ele><time>2026-03-24T09:16:59.37Z</time></trkpt><trkpt lat="46.7603158" lon="10.5357129"><ele>1460.0</ele><time>2026-03-24T09:17:00.355Z</time></trkpt><trkpt lat="46.7602609" lon="10.53578"><ele>1460.0</ele><time>2026-03-24T09:17:01.367Z</time></trkpt><trkpt lat="46.7602061" lon="10.5358458"><ele>1460.0</ele><time>2026-03-24T09:17:02.357Z</time></trkpt><trkpt lat="46.760152" lon="10.5359144"><ele>1460.0000000000002</ele><time>2026-03-24T09:17:03.36Z</time></trkpt><trkpt lat="46.7600996" lon="10.535984"><ele>1460.0</ele><time>2026-03-24T09:17:04.371Z</time></trkpt><trkpt lat="46.760047" lon="10.5360509"><ele>1460.0000000000002</ele><time>2026-03-24T09:17:05.366Z</time></trkpt><trkpt lat="46.7599941" lon="10.5361177"><ele>1460.0</ele><time>2026-03-24T09:17:06.36Z</time></trkpt><trkpt lat="46.7599424" lon="10.5361842"><ele>1460.0</ele><time>2026-03-24T09:17:07.363Z</time></trkpt><trkpt lat="46.7598912" lon="10.5362506"><ele>1460.0</ele><time>2026-03-24T09:17:08.375Z</time></trkpt><trkpt lat="46.759841" lon="10.5363166"><ele>1460.0</ele><time>2026-03-24T09:17:09.365Z</time></trkpt><trkpt lat="46.7597907" lon="10.53638"><ele>1460.0000000000002</ele><time>2026-03-24T09:17:10.365Z</time></trkpt><trkpt lat="46.7597415" lon="10.5364425"><ele>1460.0</ele><time>2026-03-24T09:17:11.37Z</time></trkpt><trkpt lat="46.7596555" lon="10.5365513"><ele>1460.0</ele><time>2026-03-24T09:17:13.371Z</time></trkpt><trkpt lat="46.7595948" lon="10.5366075"><ele>1460.0</ele><time>2026-03-24T09:17:15.368Z</time></trkpt><trkpt lat="46.7595304" lon="10.5366944"><ele>1460.0</ele><time>2026-03-24T09:17:18.359Z</time></trkpt><trkpt lat="46.7594641" lon="10.5367246"><ele>1460.0</ele><time>2026-03-24T09:18:27.355Z</time></trkpt><trkpt lat="46.7594031" lon="10.5368036"><ele>1460.0</ele><time>2026-03-24T09:18:31.361Z</time></trkpt><trkpt lat="46.7593562" lon="10.5368668"><ele>1460.0</ele><time>2026-03-24T09:18:33.365Z</time></trkpt><trkpt lat="46.7593031" lon="10.5369555"><ele>1459.4</ele><time>2026-03-24T09:18:35.367Z</time></trkpt><trkpt lat="46.7592395" lon="10.5370495"><ele>1458.8</ele><time>2026-03-24T09:18:37.36Z</time></trkpt><trkpt lat="46.7591574" lon="10.5371447"><ele>1458.1999999999998</ele><time>2026-03-24T09:18:39.369Z</time></trkpt><trkpt lat="46.7590651" lon="10.5372432"><ele>1457.6</ele><time>2026-03-24T09:18:41.362Z</time></trkpt><trkpt lat="46.7589646" lon="10.5373302"><ele>1457.0</ele><time>2026-03-24T09:18:43.358Z</time></trkpt><trkpt lat="46.7588559" lon="10.537404"><ele>1457.0</ele><time>2026-03-24T09:18:45.367Z</time></trkpt><trkpt lat="46.7587414" lon="10.5374685"><ele>1457.0</ele><time>2026-03-24T09:18:47.366Z</time></trkpt><trkpt lat="46.7586215" lon="10.5375182"><ele>1457.0</ele><time>2026-03-24T09:18:49.357Z</time></trkpt><trkpt lat="46.7585591" lon="10.5375378"><ele>1457.0</ele><time>2026-03-24T09:18:50.365Z</time></trkpt><trkpt lat="46.7584966" lon="10.5375526"><ele>1457.0</ele><time>2026-03-24T09:18:51.375Z</time></trkpt><trkpt lat="46.7584333" lon="10.537563"><ele>1457.0</ele><time>2026-03-24T09:18:52.358Z</time></trkpt><trkpt lat="46.758369" lon="10.5375691"><ele>1456.7142857142858</ele><time>2026-03-24T09:18:53.362Z</time></trkpt><trkpt lat="46.7583032" lon="10.5375705"><ele>1456.4285714285716</ele><time>2026-03-24T09:18:54.362Z</time></trkpt><trkpt lat="46.7582377" lon="10.5375648"><ele>1456.142857142857</ele><time>2026-03-24T09:18:55.375Z</time></trkpt><trkpt lat="46.7581716" lon="10.5375555"><ele>1455.857142857143</ele><time>2026-03-24T09:18:56.368Z</time></trkpt><trkpt lat="46.7581042" lon="10.5375438"><ele>1455.5714285714284</ele><time>2026-03-24T09:18:57.36Z</time></trkpt><trkpt lat="46.7580371" lon="10.5375295"><ele>1455.2857142857142</ele><time>2026-03-24T09:18:58.37Z</time></trkpt><trkpt lat="46.7579692" lon="10.5375115"><ele>1455.0</ele><time>2026-03-24T09:18:59.367Z</time></trkpt><trkpt lat="46.7579016" lon="10.5374888"><ele>1455.0</ele><time>2026-03-24T09:19:00.371Z</time></trkpt><trkpt lat="46.7578338" lon="10.5374633"><ele>1455.0</ele><time>2026-03-24T09:19:01.364Z</time></trkpt><trkpt lat="46.757766" lon="10.5374404"><ele>1455.0</ele><time>2026-03-24T09:19:02.367Z</time></trkpt><trkpt lat="46.7576973" lon="10.5374161"><ele>1455.0</ele><time>2026-03-24T09:19:03.372Z</time></trkpt><trkpt lat="46.7576289" lon="10.5373903"><ele>1455.0</ele><time>2026-03-24T09:19:04.368Z</time></trkpt><trkpt lat="46.7575604" lon="10.5373666"><ele>1455.0</ele><time>2026-03-24T09:19:05.374Z</time></trkpt><trkpt lat="46.7574915" lon="10.537344"><ele>1455.0</ele><time>2026-03-24T09:19:06.354Z</time></trkpt><trkpt lat="46.7574226" lon="10.5373212"><ele>1454.7142857142858</ele><time>2026-03-24T09:19:07.356Z</time></trkpt><trkpt lat="46.757354" lon="10.537299"><ele>1454.4285714285713</ele><time>2026-03-24T09:19:08.373Z</time></trkpt><trkpt lat="46.7572857" lon="10.5372775"><ele>1454.1428571428573</ele><time>2026-03-24T09:19:09.358Z</time></trkpt><trkpt lat="46.7572181" lon="10.5372545"><ele>1453.857142857143</ele><time>2026-03-24T09:19:10.372Z</time></trkpt><trkpt lat="46.7571516" lon="10.5372315"><ele>1453.5714285714287</ele><time>2026-03-24T09:19:11.362Z</time></trkpt><trkpt lat="46.7570857" lon="10.53721"><ele>1453.2857142857144</ele><time>2026-03-24T09:19:12.36Z</time></trkpt><trkpt lat="46.7570207" lon="10.5371893"><ele>1453.0</ele><time>2026-03-24T09:19:13.373Z</time></trkpt><trkpt lat="46.7569554" lon="10.5371692"><ele>1453.0000000000002</ele><time>2026-03-24T09:19:14.374Z</time></trkpt><trkpt lat="46.7568908" lon="10.5371478"><ele>1453.0</ele><time>2026-03-24T09:19:15.37Z</time></trkpt><trkpt lat="46.7568269" lon="10.5371272"><ele>1453.0</ele><time>2026-03-24T09:19:16.371Z</time></trkpt><trkpt lat="46.7567629" lon="10.5371072"><ele>1453.0</ele><time>2026-03-24T09:19:17.352Z</time></trkpt><trkpt lat="46.7566982" lon="10.5370888"><ele>1453.0</ele><time>2026-03-24T09:19:18.357Z</time></trkpt><trkpt lat="46.7566344" lon="10.5370723"><ele>1453.0000000000002</ele><time>2026-03-24T09:19:19.363Z</time></trkpt><trkpt lat="46.7565708" lon="10.537055"><ele>1453.0</ele><time>2026-03-24T09:19:20.355Z</time></trkpt><trkpt lat="46.7565083" lon="10.5370393"><ele>1452.6666666666665</ele><time>2026-03-24T09:19:21.37Z</time></trkpt><trkpt lat="46.7564455" lon="10.5370241"><ele>1452.3333333333333</ele><time>2026-03-24T09:19:22.374Z</time></trkpt><trkpt lat="46.7563826" lon="10.5370091"><ele>1452.0</ele><time>2026-03-24T09:19:23.37Z</time></trkpt><trkpt lat="46.7563203" lon="10.5369948"><ele>1451.6666666666667</ele><time>2026-03-24T09:19:24.366Z</time></trkpt><trkpt lat="46.756197" lon="10.5369726"><ele>1451.3333333333335</ele><time>2026-03-24T09:19:26.382Z</time></trkpt><trkpt lat="46.7560729" lon="10.5369515"><ele>1451.0</ele><time>2026-03-24T09:19:28.36Z</time></trkpt><trkpt lat="46.7559492" lon="10.5369295"><ele>1451.5714285714287</ele><time>2026-03-24T09:19:30.367Z</time></trkpt><trkpt lat="46.7558867" lon="10.536918"><ele>1452.142857142857</ele><time>2026-03-24T09:19:31.365Z</time></trkpt><trkpt lat="46.7558239" lon="10.5369067"><ele>1452.7142857142858</ele><time>2026-03-24T09:19:32.374Z</time></trkpt><trkpt lat="46.755761" lon="10.5368958"><ele>1453.2857142857142</ele><time>2026-03-24T09:19:33.366Z</time></trkpt><trkpt lat="46.7556358" lon="10.5368751"><ele>1453.8571428571427</ele><time>2026-03-24T09:19:35.37Z</time></trkpt><trkpt lat="46.7555719" lon="10.5368633"><ele>1454.4285714285713</ele><time>2026-03-24T09:19:36.372Z</time></trkpt><trkpt lat="46.7555094" lon="10.5368517"><ele>1455.0</ele><time>2026-03-24T09:19:37.359Z</time></trkpt><trkpt lat="46.7554467" lon="10.5368408"><ele>1455.0</ele><time>2026-03-24T09:19:38.381Z</time></trkpt><trkpt lat="46.7553842" lon="10.536829"><ele>1455.0</ele><time>2026-03-24T09:19:39.358Z</time></trkpt><trkpt lat="46.7553195" lon="10.5368162"><ele>1455.0</ele><time>2026-03-24T09:19:40.366Z</time></trkpt><trkpt lat="46.755255" lon="10.536804"><ele>1455.0</ele><time>2026-03-24T09:19:41.364Z</time></trkpt><trkpt lat="46.7551906" lon="10.5367939"><ele>1455.0</ele><time>2026-03-24T09:19:42.374Z</time></trkpt><trkpt lat="46.7551256" lon="10.5367823"><ele>1455.0</ele><time>2026-03-24T09:19:43.372Z</time></trkpt><trkpt lat="46.7550608" lon="10.5367707"><ele>1455.0</ele><time>2026-03-24T09:19:44.373Z</time></trkpt><trkpt lat="46.7549976" lon="10.5367589"><ele>1455.0</ele><time>2026-03-24T09:19:45.364Z</time></trkpt><trkpt lat="46.754934" lon="10.5367468"><ele>1455.0</ele><time>2026-03-24T09:19:46.36Z</time></trkpt><trkpt lat="46.7548696" lon="10.5367351"><ele>1455.0</ele><time>2026-03-24T09:19:47.362Z</time></trkpt><trkpt lat="46.7548051" lon="10.5367237"><ele>1455.0</ele><time>2026-03-24T09:19:48.357Z</time></trkpt><trkpt lat="46.7547415" lon="10.5367135"><ele>1455.0</ele><time>2026-03-24T09:19:49.356Z</time></trkpt><trkpt lat="46.7546784" lon="10.5367015"><ele>1455.0</ele><time>2026-03-24T09:19:50.364Z</time></trkpt><trkpt lat="46.7546154" lon="10.5366884"><ele>1455.0</ele><time>2026-03-24T09:19:51.371Z</time></trkpt><trkpt lat="46.7545525" lon="10.5366764"><ele>1455.0</ele><time>2026-03-24T09:19:52.362Z</time></trkpt><trkpt lat="46.7544895" lon="10.5366653"><ele>1455.0</ele><time>2026-03-24T09:19:53.368Z</time></trkpt><trkpt lat="46.7544259" lon="10.5366541"><ele>1455.0</ele><time>2026-03-24T09:19:54.372Z</time></trkpt><trkpt lat="46.7543621" lon="10.536643"><ele>1455.0</ele><time>2026-03-24T09:19:55.36Z</time></trkpt><trkpt lat="46.7542976" lon="10.5366294"><ele>1455.0</ele><time>2026-03-24T09:19:56.366Z</time></trkpt><trkpt lat="46.7542334" lon="10.5366169"><ele>1455.0</ele><time>2026-03-24T09:19:57.36Z</time></trkpt><trkpt lat="46.7541692" lon="10.5366041"><ele>1455.0</ele><time>2026-03-24T09:19:58.364Z</time></trkpt><trkpt lat="46.7541044" lon="10.5365907"><ele>1455.0</ele><time>2026-03-24T09:19:59.37Z</time></trkpt><trkpt lat="46.7540404" lon="10.536576"><ele>1455.0</ele><time>2026-03-24T09:20:00.362Z</time></trkpt><trkpt lat="46.7539763" lon="10.5365629"><ele>1455.0</ele><time>2026-03-24T09:20:01.37Z</time></trkpt><trkpt lat="46.7539121" lon="10.5365486"><ele>1455.0</ele><time>2026-03-24T09:20:02.364Z</time></trkpt><trkpt lat="46.7538481" lon="10.5365325"><ele>1455.0</ele><time>2026-03-24T09:20:03.368Z</time></trkpt><trkpt lat="46.7537841" lon="10.5365165"><ele>1455.0</ele><time>2026-03-24T09:20:04.366Z</time></trkpt><trkpt lat="46.7537193" lon="10.5364995"><ele>1455.0</ele><time>2026-03-24T09:20:05.362Z</time></trkpt><trkpt lat="46.7536541" lon="10.5364806"><ele>1455.0</ele><time>2026-03-24T09:20:06.361Z</time></trkpt><trkpt lat="46.7535885" lon="10.5364606"><ele>1455.4285714285713</ele><time>2026-03-24T09:20:07.367Z</time></trkpt><trkpt lat="46.7535215" lon="10.5364441"><ele>1455.8571428571427</ele><time>2026-03-24T09:20:08.355Z</time></trkpt><trkpt lat="46.7534535" lon="10.5364235"><ele>1456.2857142857142</ele><time>2026-03-24T09:20:09.377Z</time></trkpt><trkpt lat="46.7533869" lon="10.5363976"><ele>1456.7142857142858</ele><time>2026-03-24T09:20:10.362Z</time></trkpt><trkpt lat="46.7533188" lon="10.5363742"><ele>1457.142857142857</ele><time>2026-03-24T09:20:11.37Z</time></trkpt><trkpt lat="46.7532499" lon="10.5363513"><ele>1457.5714285714287</ele><time>2026-03-24T09:20:12.363Z</time></trkpt><trkpt lat="46.7531823" lon="10.5363286"><ele>1458.0</ele><time>2026-03-24T09:20:13.378Z</time></trkpt><trkpt lat="46.7531149" lon="10.5363054"><ele>1458.0</ele><time>2026-03-24T09:20:14.369Z</time></trkpt><trkpt lat="46.7530472" lon="10.5362825"><ele>1458.0</ele><time>2026-03-24T09:20:15.366Z</time></trkpt><trkpt lat="46.7529804" lon="10.5362596"><ele>1458.0</ele><time>2026-03-24T09:20:16.358Z</time></trkpt><trkpt lat="46.7529134" lon="10.5362375"><ele>1458.0</ele><time>2026-03-24T09:20:17.353Z</time></trkpt><trkpt lat="46.7528464" lon="10.5362143"><ele>1458.0</ele><time>2026-03-24T09:20:18.362Z</time></trkpt><trkpt lat="46.7527799" lon="10.5361894"><ele>1458.0</ele><time>2026-03-24T09:20:19.369Z</time></trkpt><trkpt lat="46.7527129" lon="10.536165"><ele>1458.0</ele><time>2026-03-24T09:20:20.369Z</time></trkpt><trkpt lat="46.7526457" lon="10.5361417"><ele>1457.2857142857144</ele><time>2026-03-24T09:20:21.361Z</time></trkpt><trkpt lat="46.7525788" lon="10.5361199"><ele>1456.5714285714284</ele><time>2026-03-24T09:20:22.364Z</time></trkpt><trkpt lat="46.7525118" lon="10.5360986"><ele>1455.857142857143</ele><time>2026-03-24T09:20:23.374Z</time></trkpt><trkpt lat="46.7524448" lon="10.5360773"><ele>1455.1428571428573</ele><time>2026-03-24T09:20:24.367Z</time></trkpt><trkpt lat="46.7523777" lon="10.5360539"><ele>1454.4285714285716</ele><time>2026-03-24T09:20:25.364Z</time></trkpt><trkpt lat="46.7523105" lon="10.5360289"><ele>1453.7142857142858</ele><time>2026-03-24T09:20:26.363Z</time></trkpt><trkpt lat="46.752243" lon="10.5360066"><ele>1453.0</ele><time>2026-03-24T09:20:27.364Z</time></trkpt><trkpt lat="46.7521752" lon="10.5359843"><ele>1453.0000000000002</ele><time>2026-03-24T09:20:28.36Z</time></trkpt><trkpt lat="46.7521073" lon="10.5359604"><ele>1453.0</ele><time>2026-03-24T09:20:29.356Z</time></trkpt><trkpt lat="46.7520399" lon="10.5359373"><ele>1453.0</ele><time>2026-03-24T09:20:30.364Z</time></trkpt><trkpt lat="46.7519721" lon="10.5359145"><ele>1453.0</ele><time>2026-03-24T09:20:31.365Z</time></trkpt><trkpt lat="46.7519039" lon="10.5358902"><ele>1453.0</ele><time>2026-03-24T09:20:32.364Z</time></trkpt><trkpt lat="46.7518363" lon="10.535866"><ele>1453.0000000000002</ele><time>2026-03-24T09:20:33.363Z</time></trkpt><trkpt lat="46.7517688" lon="10.5358404"><ele>1453.0</ele><time>2026-03-24T09:20:34.363Z</time></trkpt><trkpt lat="46.7517009" lon="10.5358164"><ele>1453.1428571428573</ele><time>2026-03-24T09:20:35.357Z</time></trkpt><trkpt lat="46.7516326" lon="10.5357941"><ele>1453.2857142857142</ele><time>2026-03-24T09:20:36.355Z</time></trkpt><trkpt lat="46.7515657" lon="10.5357716"><ele>1453.4285714285716</ele><time>2026-03-24T09:20:37.358Z</time></trkpt><trkpt lat="46.7514985" lon="10.5357506"><ele>1453.5714285714287</ele><time>2026-03-24T09:20:38.366Z</time></trkpt><trkpt lat="46.7514317" lon="10.5357318"><ele>1453.7142857142858</ele><time>2026-03-24T09:20:39.372Z</time></trkpt><trkpt lat="46.7513657" lon="10.5357139"><ele>1453.857142857143</ele><time>2026-03-24T09:20:40.364Z</time></trkpt><trkpt lat="46.7513001" lon="10.5356988"><ele>1454.0</ele><time>2026-03-24T09:20:41.365Z</time></trkpt><trkpt lat="46.7512323" lon="10.5356866"><ele>1454.0</ele><time>2026-03-24T09:20:42.366Z</time></trkpt><trkpt lat="46.7511648" lon="10.5356737"><ele>1454.0</ele><time>2026-03-24T09:20:43.363Z</time></trkpt><trkpt lat="46.7510965" lon="10.5356647"><ele>1454.0</ele><time>2026-03-24T09:20:44.372Z</time></trkpt><trkpt lat="46.7510281" lon="10.5356577"><ele>1454.0</ele><time>2026-03-24T09:20:45.37Z</time></trkpt><trkpt lat="46.750959" lon="10.5356524"><ele>1454.0</ele><time>2026-03-24T09:20:46.369Z</time></trkpt><trkpt lat="46.750891" lon="10.5356497"><ele>1454.0</ele><time>2026-03-24T09:20:47.369Z</time></trkpt><trkpt lat="46.7508221" lon="10.5356476"><ele>1454.0</ele><time>2026-03-24T09:20:48.371Z</time></trkpt><trkpt lat="46.750752" lon="10.535648"><ele>1454.142857142857</ele><time>2026-03-24T09:20:49.363Z</time></trkpt><trkpt lat="46.7506827" lon="10.5356533"><ele>1454.2857142857144</ele><time>2026-03-24T09:20:50.368Z</time></trkpt><trkpt lat="46.7506127" lon="10.535662"><ele>1454.4285714285716</ele><time>2026-03-24T09:20:51.371Z</time></trkpt><trkpt lat="46.7505415" lon="10.5356722"><ele>1454.5714285714284</ele><time>2026-03-24T09:20:52.371Z</time></trkpt><trkpt lat="46.7504686" lon="10.5356824"><ele>1454.7142857142858</ele><time>2026-03-24T09:20:53.36Z</time></trkpt><trkpt lat="46.750395" lon="10.5356939"><ele>1454.857142857143</ele><time>2026-03-24T09:20:54.371Z</time></trkpt><trkpt lat="46.7503215" lon="10.5357076"><ele>1455.0</ele><time>2026-03-24T09:20:55.369Z</time></trkpt><trkpt lat="46.7502459" lon="10.5357221"><ele>1454.8333333333333</ele><time>2026-03-24T09:20:56.364Z</time></trkpt><trkpt lat="46.7501697" lon="10.5357361"><ele>1454.6666666666667</ele><time>2026-03-24T09:20:57.367Z</time></trkpt><trkpt lat="46.7500921" lon="10.5357504"><ele>1454.5</ele><time>2026-03-24T09:20:58.365Z</time></trkpt><trkpt lat="46.7500134" lon="10.5357662"><ele>1454.3333333333335</ele><time>2026-03-24T09:20:59.364Z</time></trkpt><trkpt lat="46.7499339" lon="10.5357801"><ele>1454.1666666666667</ele><time>2026-03-24T09:21:00.37Z</time></trkpt><trkpt lat="46.7498534" lon="10.5357913"><ele>1454.0</ele><time>2026-03-24T09:21:01.369Z</time></trkpt><trkpt lat="46.7497724" lon="10.535801"><ele>1454.0</ele><time>2026-03-24T09:21:02.363Z</time></trkpt><trkpt lat="46.7496898" lon="10.5358079"><ele>1454.0</ele><time>2026-03-24T09:21:03.366Z</time></trkpt><trkpt lat="46.7496069" lon="10.535807"><ele>1454.0</ele><time>2026-03-24T09:21:04.353Z</time></trkpt><trkpt lat="46.7495251" lon="10.5357961"><ele>1454.0</ele><time>2026-03-24T09:21:05.355Z</time></trkpt><trkpt lat="46.7494445" lon="10.5357818"><ele>1454.0</ele><time>2026-03-24T09:21:06.361Z</time></trkpt><trkpt lat="46.7493654" lon="10.5357638"><ele>1454.0</ele><time>2026-03-24T09:21:07.367Z</time></trkpt><trkpt lat="46.7492885" lon="10.5357415"><ele>1453.857142857143</ele><time>2026-03-24T09:21:08.364Z</time></trkpt><trkpt lat="46.7492136" lon="10.5357204"><ele>1453.7142857142858</ele><time>2026-03-24T09:21:09.365Z</time></trkpt><trkpt lat="46.7491399" lon="10.5356986"><ele>1453.5714285714287</ele><time>2026-03-24T09:21:10.369Z</time></trkpt><trkpt lat="46.7490671" lon="10.5356796"><ele>1453.4285714285716</ele><time>2026-03-24T09:21:11.368Z</time></trkpt><trkpt lat="46.748996" lon="10.5356595"><ele>1453.2857142857142</ele><time>2026-03-24T09:21:12.373Z</time></trkpt><trkpt lat="46.7489253" lon="10.5356389"><ele>1453.1428571428573</ele><time>2026-03-24T09:21:13.368Z</time></trkpt><trkpt lat="46.7488557" lon="10.5356173"><ele>1453.0</ele><time>2026-03-24T09:21:14.367Z</time></trkpt><trkpt lat="46.748787" lon="10.5355979"><ele>1453.0000000000002</ele><time>2026-03-24T09:21:15.372Z</time></trkpt><trkpt lat="46.7487185" lon="10.5355767"><ele>1453.0</ele><time>2026-03-24T09:21:16.373Z</time></trkpt><trkpt lat="46.7486502" lon="10.5355565"><ele>1453.0</ele><time>2026-03-24T09:21:17.363Z</time></trkpt><trkpt lat="46.748582" lon="10.5355386"><ele>1453.0</ele><time>2026-03-24T09:21:18.362Z</time></trkpt><trkpt lat="46.7485149" lon="10.5355226"><ele>1453.0</ele><time>2026-03-24T09:21:19.364Z</time></trkpt><trkpt lat="46.7484481" lon="10.5355091"><ele>1453.0000000000002</ele><time>2026-03-24T09:21:20.371Z</time></trkpt><trkpt lat="46.748381" lon="10.5355004"><ele>1453.0</ele><time>2026-03-24T09:21:21.368Z</time></trkpt><trkpt lat="46.748314" lon="10.5354954"><ele>1453.5714285714287</ele><time>2026-03-24T09:21:22.357Z</time></trkpt><trkpt lat="46.748247" lon="10.5354944"><ele>1454.142857142857</ele><time>2026-03-24T09:21:23.369Z</time></trkpt><trkpt lat="46.7481808" lon="10.5354923"><ele>1454.7142857142858</ele><time>2026-03-24T09:21:24.364Z</time></trkpt><trkpt lat="46.7481151" lon="10.5354902"><ele>1455.2857142857142</ele><time>2026-03-24T09:21:25.369Z</time></trkpt><trkpt lat="46.7480495" lon="10.5354907"><ele>1455.857142857143</ele><time>2026-03-24T09:21:26.36Z</time></trkpt><trkpt lat="46.7479849" lon="10.5354935"><ele>1456.4285714285716</ele><time>2026-03-24T09:21:27.361Z</time></trkpt><trkpt lat="46.7479211" lon="10.5354967"><ele>1457.0</ele><time>2026-03-24T09:21:28.373Z</time></trkpt><trkpt lat="46.747857" lon="10.5354982"><ele>1457.0</ele><time>2026-03-24T09:21:29.367Z</time></trkpt><trkpt lat="46.7477934" lon="10.5354979"><ele>1457.0</ele><time>2026-03-24T09:21:30.375Z</time></trkpt><trkpt lat="46.7476686" lon="10.5355007"><ele>1457.0</ele><time>2026-03-24T09:21:32.347Z</time></trkpt><trkpt lat="46.7475446" lon="10.5355067"><ele>1457.0</ele><time>2026-03-24T09:21:34.365Z</time></trkpt><trkpt lat="46.7474206" lon="10.5355136"><ele>1457.0</ele><time>2026-03-24T09:21:36.36Z</time></trkpt><trkpt lat="46.7472973" lon="10.5355201"><ele>1456.857142857143</ele><time>2026-03-24T09:21:38.369Z</time></trkpt><trkpt lat="46.7471717" lon="10.5355243"><ele>1456.7142857142858</ele><time>2026-03-24T09:21:40.37Z</time></trkpt><trkpt lat="46.7471083" lon="10.5355241"><ele>1456.5714285714284</ele><time>2026-03-24T09:21:41.378Z</time></trkpt><trkpt lat="46.747045" lon="10.5355238"><ele>1456.4285714285716</ele><time>2026-03-24T09:21:42.364Z</time></trkpt><trkpt lat="46.7469813" lon="10.535523"><ele>1456.2857142857142</ele><time>2026-03-24T09:21:43.368Z</time></trkpt><trkpt lat="46.7469179" lon="10.5355204"><ele>1456.142857142857</ele><time>2026-03-24T09:21:44.364Z</time></trkpt><trkpt lat="46.7468543" lon="10.5355157"><ele>1456.0</ele><time>2026-03-24T09:21:45.367Z</time></trkpt><trkpt lat="46.7467912" lon="10.535509"><ele>1456.5714285714287</ele><time>2026-03-24T09:21:46.369Z</time></trkpt><trkpt lat="46.7467275" lon="10.5355015"><ele>1457.142857142857</ele><time>2026-03-24T09:21:47.375Z</time></trkpt><trkpt lat="46.7466637" lon="10.5354955"><ele>1457.7142857142858</ele><time>2026-03-24T09:21:48.372Z</time></trkpt><trkpt lat="46.7466001" lon="10.5354898"><ele>1458.2857142857142</ele><time>2026-03-24T09:21:49.366Z</time></trkpt><trkpt lat="46.7465353" lon="10.5354825"><ele>1458.857142857143</ele><time>2026-03-24T09:21:50.37Z</time></trkpt><trkpt lat="46.7464701" lon="10.5354741"><ele>1459.4285714285716</ele><time>2026-03-24T09:21:51.369Z</time></trkpt><trkpt lat="46.7464052" lon="10.5354658"><ele>1460.0</ele><time>2026-03-24T09:21:52.374Z</time></trkpt><trkpt lat="46.7463396" lon="10.5354575"><ele>1460.0000000000002</ele><time>2026-03-24T09:21:53.363Z</time></trkpt><trkpt lat="46.7462732" lon="10.5354482"><ele>1460.0</ele><time>2026-03-24T09:21:54.372Z</time></trkpt><trkpt lat="46.7462074" lon="10.5354391"><ele>1460.0</ele><time>2026-03-24T09:21:55.363Z</time></trkpt><trkpt lat="46.7461416" lon="10.5354324"><ele>1460.0</ele><time>2026-03-24T09:21:56.37Z</time></trkpt><trkpt lat="46.746075" lon="10.5354233"><ele>1460.0</ele><time>2026-03-24T09:21:57.376Z</time></trkpt><trkpt lat="46.7460088" lon="10.5354123"><ele>1460.0000000000002</ele><time>2026-03-24T09:21:58.369Z</time></trkpt><trkpt lat="46.7459425" lon="10.5354035"><ele>1460.0</ele><time>2026-03-24T09:21:59.371Z</time></trkpt><trkpt lat="46.7458758" lon="10.5353943"><ele>1459.2857142857144</ele><time>2026-03-24T09:22:00.365Z</time></trkpt><trkpt lat="46.7458086" lon="10.5353847"><ele>1458.5714285714287</ele><time>2026-03-24T09:22:01.363Z</time></trkpt><trkpt lat="46.7457417" lon="10.5353761"><ele>1457.857142857143</ele><time>2026-03-24T09:22:02.361Z</time></trkpt><trkpt lat="46.7456739" lon="10.5353678"><ele>1457.1428571428573</ele><time>2026-03-24T09:22:03.375Z</time></trkpt><trkpt lat="46.7456055" lon="10.5353585"><ele>1456.4285714285713</ele><time>2026-03-24T09:22:04.363Z</time></trkpt><trkpt lat="46.7455381" lon="10.5353487"><ele>1455.7142857142858</ele><time>2026-03-24T09:22:05.362Z</time></trkpt><trkpt lat="46.7454699" lon="10.5353398"><ele>1455.0</ele><time>2026-03-24T09:22:06.36Z</time></trkpt><trkpt lat="46.7454019" lon="10.5353301"><ele>1455.0</ele><time>2026-03-24T09:22:07.362Z</time></trkpt><trkpt lat="46.7453341" lon="10.5353212"><ele>1455.0</ele><time>2026-03-24T09:22:08.364Z</time></trkpt><trkpt lat="46.7452659" lon="10.5353113"><ele>1455.0</ele><time>2026-03-24T09:22:09.366Z</time></trkpt><trkpt lat="46.7451976" lon="10.5353007"><ele>1455.0</ele><time>2026-03-24T09:22:10.367Z</time></trkpt><trkpt lat="46.7451299" lon="10.5352912"><ele>1455.0</ele><time>2026-03-24T09:22:11.36Z</time></trkpt><trkpt lat="46.7450618" lon="10.5352826"><ele>1455.0</ele><time>2026-03-24T09:22:12.367Z</time></trkpt><trkpt lat="46.7449933" lon="10.5352749"><ele>1455.0</ele><time>2026-03-24T09:22:13.361Z</time></trkpt><trkpt lat="46.7449253" lon="10.5352667"><ele>1455.142857142857</ele><time>2026-03-24T09:22:14.366Z</time></trkpt><trkpt lat="46.7448568" lon="10.5352577"><ele>1455.2857142857142</ele><time>2026-03-24T09:22:15.365Z</time></trkpt><trkpt lat="46.7447878" lon="10.5352472"><ele>1455.4285714285716</ele><time>2026-03-24T09:22:16.375Z</time></trkpt><trkpt lat="46.7447194" lon="10.5352389"><ele>1455.5714285714284</ele><time>2026-03-24T09:22:17.373Z</time></trkpt><trkpt lat="46.7446504" lon="10.5352302"><ele>1455.7142857142858</ele><time>2026-03-24T09:22:18.364Z</time></trkpt><trkpt lat="46.7445818" lon="10.5352212"><ele>1455.857142857143</ele><time>2026-03-24T09:22:19.358Z</time></trkpt><trkpt lat="46.7445138" lon="10.5352127"><ele>1456.0</ele><time>2026-03-24T09:22:20.369Z</time></trkpt><trkpt lat="46.7444457" lon="10.5352034"><ele>1456.0</ele><time>2026-03-24T09:22:21.374Z</time></trkpt><trkpt lat="46.7443783" lon="10.5351939"><ele>1456.0</ele><time>2026-03-24T09:22:22.365Z</time></trkpt><trkpt lat="46.7443116" lon="10.5351844"><ele>1456.0</ele><time>2026-03-24T09:22:23.36Z</time></trkpt><trkpt lat="46.7442443" lon="10.5351748"><ele>1456.0</ele><time>2026-03-24T09:22:24.366Z</time></trkpt><trkpt lat="46.7441778" lon="10.5351653"><ele>1456.0</ele><time>2026-03-24T09:22:25.365Z</time></trkpt><trkpt lat="46.7441119" lon="10.5351566"><ele>1456.0</ele><time>2026-03-24T09:22:26.367Z</time></trkpt><trkpt lat="46.7440456" lon="10.5351487"><ele>1456.0</ele><time>2026-03-24T09:22:27.36Z</time></trkpt><trkpt lat="46.7439789" lon="10.5351401"><ele>1456.0</ele><time>2026-03-24T09:22:28.358Z</time></trkpt><trkpt lat="46.7439121" lon="10.5351311"><ele>1456.0</ele><time>2026-03-24T09:22:29.364Z</time></trkpt><trkpt lat="46.7438449" lon="10.5351218"><ele>1456.0</ele><time>2026-03-24T09:22:30.367Z</time></trkpt><trkpt lat="46.7437773" lon="10.5351121"><ele>1456.0</ele><time>2026-03-24T09:22:31.375Z</time></trkpt><trkpt lat="46.7437096" lon="10.5351025"><ele>1456.0</ele><time>2026-03-24T09:22:32.364Z</time></trkpt><trkpt lat="46.7436416" lon="10.5350916"><ele>1456.0</ele><time>2026-03-24T09:22:33.361Z</time></trkpt><trkpt lat="46.7435733" lon="10.5350789"><ele>1456.0</ele><time>2026-03-24T09:22:34.366Z</time></trkpt><trkpt lat="46.7435052" lon="10.5350658"><ele>1455.7142857142858</ele><time>2026-03-24T09:22:35.364Z</time></trkpt><trkpt lat="46.7434375" lon="10.5350503"><ele>1455.4285714285716</ele><time>2026-03-24T09:22:36.367Z</time></trkpt><trkpt lat="46.7433695" lon="10.5350351"><ele>1455.142857142857</ele><time>2026-03-24T09:22:37.367Z</time></trkpt><trkpt lat="46.7433015" lon="10.535018"><ele>1454.857142857143</ele><time>2026-03-24T09:22:38.361Z</time></trkpt><trkpt lat="46.7432346" lon="10.5349987"><ele>1454.5714285714287</ele><time>2026-03-24T09:22:39.367Z</time></trkpt><trkpt lat="46.7431669" lon="10.5349776"><ele>1454.2857142857142</ele><time>2026-03-24T09:22:40.365Z</time></trkpt><trkpt lat="46.7430986" lon="10.5349541"><ele>1454.0</ele><time>2026-03-24T09:22:41.368Z</time></trkpt><trkpt lat="46.7430295" lon="10.5349315"><ele>1454.0</ele><time>2026-03-24T09:22:42.364Z</time></trkpt><trkpt lat="46.742962" lon="10.5349085"><ele>1454.0</ele><time>2026-03-24T09:22:43.364Z</time></trkpt><trkpt lat="46.742896" lon="10.5348844"><ele>1454.0</ele><time>2026-03-24T09:22:44.369Z</time></trkpt><trkpt lat="46.7428316" lon="10.5348496"><ele>1454.0</ele><time>2026-03-24T09:22:45.37Z</time></trkpt><trkpt lat="46.7427698" lon="10.5348066"><ele>1454.0</ele><time>2026-03-24T09:22:46.375Z</time></trkpt><trkpt lat="46.7427072" lon="10.534759"><ele>1454.0</ele><time>2026-03-24T09:22:47.362Z</time></trkpt><trkpt lat="46.7426393" lon="10.5347098"><ele>1454.0</ele><time>2026-03-24T09:22:48.372Z</time></trkpt><trkpt lat="46.7425726" lon="10.5346574"><ele>1454.142857142857</ele><time>2026-03-24T09:22:49.372Z</time></trkpt><trkpt lat="46.7425091" lon="10.5346011"><ele>1454.2857142857144</ele><time>2026-03-24T09:22:50.368Z</time></trkpt><trkpt lat="46.7424509" lon="10.5345399"><ele>1454.4285714285716</ele><time>2026-03-24T09:22:51.369Z</time></trkpt><trkpt lat="46.7423952" lon="10.5344783"><ele>1454.5714285714284</ele><time>2026-03-24T09:22:52.373Z</time></trkpt><trkpt lat="46.7423408" lon="10.5344176"><ele>1454.7142857142858</ele><time>2026-03-24T09:22:53.364Z</time></trkpt><trkpt lat="46.7422864" lon="10.5343565"><ele>1454.857142857143</ele><time>2026-03-24T09:22:54.367Z</time></trkpt><trkpt lat="46.7422291" lon="10.5342918"><ele>1455.0</ele><time>2026-03-24T09:22:55.377Z</time></trkpt><trkpt lat="46.7421703" lon="10.534223"><ele>1455.0</ele><time>2026-03-24T09:22:56.362Z</time></trkpt><trkpt lat="46.742109" lon="10.5341549"><ele>1455.0</ele><time>2026-03-24T09:22:57.364Z</time></trkpt><trkpt lat="46.7420473" lon="10.5340848"><ele>1455.0</ele><time>2026-03-24T09:22:58.369Z</time></trkpt><trkpt lat="46.7419841" lon="10.5340138"><ele>1455.0</ele><time>2026-03-24T09:22:59.359Z</time></trkpt><trkpt lat="46.7419214" lon="10.5339433"><ele>1455.0</ele><time>2026-03-24T09:23:00.36Z</time></trkpt><trkpt lat="46.7418557" lon="10.5338742"><ele>1455.0</ele><time>2026-03-24T09:23:01.361Z</time></trkpt><trkpt lat="46.7417912" lon="10.5338036"><ele>1455.0</ele><time>2026-03-24T09:23:02.359Z</time></trkpt><trkpt lat="46.7417266" lon="10.5337303"><ele>1455.0</ele><time>2026-03-24T09:23:03.37Z</time></trkpt><trkpt lat="46.7416621" lon="10.5336576"><ele>1455.0</ele><time>2026-03-24T09:23:04.372Z</time></trkpt><trkpt lat="46.7415965" lon="10.5335866"><ele>1455.0</ele><time>2026-03-24T09:23:05.363Z</time></trkpt><trkpt lat="46.7415319" lon="10.5335139"><ele>1455.0</ele><time>2026-03-24T09:23:06.357Z</time></trkpt><trkpt lat="46.7414688" lon="10.5334405"><ele>1455.0</ele><time>2026-03-24T09:23:07.378Z</time></trkpt><trkpt lat="46.7414062" lon="10.5333652"><ele>1454.5</ele><time>2026-03-24T09:23:08.373Z</time></trkpt><trkpt lat="46.7413422" lon="10.5332874"><ele>1454.0</ele><time>2026-03-24T09:23:09.366Z</time></trkpt><trkpt lat="46.7412746" lon="10.5332134"><ele>1453.5</ele><time>2026-03-24T09:23:10.371Z</time></trkpt><trkpt lat="46.7412028" lon="10.5331439"><ele>1453.0</ele><time>2026-03-24T09:23:11.376Z</time></trkpt><trkpt lat="46.7411284" lon="10.5330758"><ele>1452.5</ele><time>2026-03-24T09:23:12.366Z</time></trkpt><trkpt lat="46.7410527" lon="10.5330089"><ele>1452.0</ele><time>2026-03-24T09:23:13.37Z</time></trkpt><trkpt lat="46.7409757" lon="10.5329446"><ele>1452.0</ele><time>2026-03-24T09:23:14.368Z</time></trkpt><trkpt lat="46.7408983" lon="10.5328803"><ele>1452.0</ele><time>2026-03-24T09:23:15.359Z</time></trkpt><trkpt lat="46.7408205" lon="10.5328186"><ele>1452.0</ele><time>2026-03-24T09:23:16.371Z</time></trkpt><trkpt lat="46.7407419" lon="10.5327597"><ele>1452.0</ele><time>2026-03-24T09:23:17.369Z</time></trkpt><trkpt lat="46.7406617" lon="10.532704"><ele>1452.0</ele><time>2026-03-24T09:23:18.374Z</time></trkpt><trkpt lat="46.7405811" lon="10.5326489"><ele>1452.0</ele><time>2026-03-24T09:23:19.363Z</time></trkpt><trkpt lat="46.7405014" lon="10.5325925"><ele>1452.0</ele><time>2026-03-24T09:23:20.367Z</time></trkpt><trkpt lat="46.7404217" lon="10.5325423"><ele>1452.0</ele><time>2026-03-24T09:23:21.354Z</time></trkpt><trkpt lat="46.7403439" lon="10.5324888"><ele>1452.0</ele><time>2026-03-24T09:23:22.373Z</time></trkpt><trkpt lat="46.7402757" lon="10.532431"><ele>1452.0</ele><time>2026-03-24T09:23:23.362Z</time></trkpt><trkpt lat="46.7402209" lon="10.5323686"><ele>1452.0</ele><time>2026-03-24T09:23:24.364Z</time></trkpt><trkpt lat="46.740157" lon="10.5322454"><ele>1452.0</ele><time>2026-03-24T09:23:26.37Z</time></trkpt><trkpt lat="46.7401029" lon="10.5321575"><ele>1453.1999999999998</ele><time>2026-03-24T09:23:28.364Z</time></trkpt><trkpt lat="46.740022" lon="10.5321755"><ele>1454.4</ele><time>2026-03-24T09:23:30.385Z</time></trkpt><trkpt lat="46.7399454" lon="10.5322446"><ele>1455.6</ele><time>2026-03-24T09:23:32.368Z</time></trkpt><trkpt lat="46.7398598" lon="10.5323384"><ele>1456.8000000000002</ele><time>2026-03-24T09:23:34.373Z</time></trkpt><trkpt lat="46.7397654" lon="10.5324507"><ele>1458.0</ele><time>2026-03-24T09:23:36.363Z</time></trkpt><trkpt lat="46.7397176" lon="10.5325112"><ele>1458.0</ele><time>2026-03-24T09:23:37.366Z</time></trkpt><trkpt lat="46.7396645" lon="10.5325708"><ele>1458.0</ele><time>2026-03-24T09:23:38.372Z</time></trkpt><trkpt lat="46.7396106" lon="10.5326304"><ele>1458.0</ele><time>2026-03-24T09:23:39.367Z</time></trkpt><trkpt lat="46.7395554" lon="10.5326916"><ele>1458.0</ele><time>2026-03-24T09:23:40.366Z</time></trkpt><trkpt lat="46.7394965" lon="10.5327459"><ele>1458.0</ele><time>2026-03-24T09:23:41.369Z</time></trkpt><trkpt lat="46.7394322" lon="10.5327865"><ele>1458.0</ele><time>2026-03-24T09:23:42.356Z</time></trkpt><trkpt lat="46.7393637" lon="10.5328103"><ele>1458.0</ele><time>2026-03-24T09:23:43.367Z</time></trkpt><trkpt lat="46.739294" lon="10.5328358"><ele>1459.4285714285716</ele><time>2026-03-24T09:23:44.375Z</time></trkpt><trkpt lat="46.7392231" lon="10.5328373"><ele>1460.8571428571427</ele><time>2026-03-24T09:23:45.363Z</time></trkpt><trkpt lat="46.7391502" lon="10.5328286"><ele>1462.2857142857142</ele><time>2026-03-24T09:23:46.369Z</time></trkpt><trkpt lat="46.7390808" lon="10.5328079"><ele>1463.7142857142858</ele><time>2026-03-24T09:23:47.363Z</time></trkpt><trkpt lat="46.7390134" lon="10.5327843"><ele>1465.1428571428573</ele><time>2026-03-24T09:23:48.37Z</time></trkpt><trkpt lat="46.7389444" lon="10.5327645"><ele>1466.5714285714284</ele><time>2026-03-24T09:23:49.362Z</time></trkpt><trkpt lat="46.7388751" lon="10.5327515"><ele>1468.0</ele><time>2026-03-24T09:23:50.359Z</time></trkpt><trkpt lat="46.7388046" lon="10.5327475"><ele>1468.0</ele><time>2026-03-24T09:23:51.359Z</time></trkpt><trkpt lat="46.7387336" lon="10.5327561"><ele>1468.0</ele><time>2026-03-24T09:23:52.369Z</time></trkpt><trkpt lat="46.7386593" lon="10.5327747"><ele>1468.0</ele><time>2026-03-24T09:23:53.365Z</time></trkpt><trkpt lat="46.7385821" lon="10.5327987"><ele>1468.0</ele><time>2026-03-24T09:23:54.359Z</time></trkpt><trkpt lat="46.7385042" lon="10.5328241"><ele>1468.0</ele><time>2026-03-24T09:23:55.367Z</time></trkpt><trkpt lat="46.7384254" lon="10.53285"><ele>1468.0</ele><time>2026-03-24T09:23:56.369Z</time></trkpt><trkpt lat="46.7383451" lon="10.532871"><ele>1464.1666666666665</ele><time>2026-03-24T09:23:57.368Z</time></trkpt><trkpt lat="46.7382635" lon="10.5328927"><ele>1460.3333333333333</ele><time>2026-03-24T09:23:58.365Z</time></trkpt><trkpt lat="46.7381815" lon="10.5329106"><ele>1456.5</ele><time>2026-03-24T09:23:59.367Z</time></trkpt><trkpt lat="46.7380977" lon="10.5329266"><ele>1452.6666666666667</ele><time>2026-03-24T09:24:00.359Z</time></trkpt><trkpt lat="46.7380084" lon="10.5329446"><ele>1448.8333333333335</ele><time>2026-03-24T09:24:01.365Z</time></trkpt><trkpt lat="46.7379145" lon="10.5329575"><ele>1445.0</ele><time>2026-03-24T09:24:02.365Z</time></trkpt><trkpt lat="46.7378171" lon="10.5329707"><ele>1444.8</ele><time>2026-03-24T09:24:03.378Z</time></trkpt><trkpt lat="46.737715" lon="10.5329881"><ele>1444.6</ele><time>2026-03-24T09:24:04.364Z</time></trkpt><trkpt lat="46.7376111" lon="10.5330019"><ele>1444.4</ele><time>2026-03-24T09:24:05.368Z</time></trkpt><trkpt lat="46.7375079" lon="10.5330105"><ele>1444.2</ele><time>2026-03-24T09:24:06.371Z</time></trkpt><trkpt lat="46.7374052" lon="10.5330222"><ele>1444.0</ele><time>2026-03-24T09:24:07.369Z</time></trkpt><trkpt lat="46.7373041" lon="10.5330437"><ele>1444.0</ele><time>2026-03-24T09:24:08.371Z</time></trkpt><trkpt lat="46.7372042" lon="10.5330732"><ele>1444.0</ele><time>2026-03-24T09:24:09.361Z</time></trkpt><trkpt lat="46.7371064" lon="10.5331094"><ele>1444.0</ele><time>2026-03-24T09:24:10.369Z</time></trkpt><trkpt lat="46.7370114" lon="10.5331475"><ele>1444.0</ele><time>2026-03-24T09:24:11.366Z</time></trkpt><trkpt lat="46.736917" lon="10.533183"><ele>1444.0</ele><time>2026-03-24T09:24:12.374Z</time></trkpt><trkpt lat="46.736825" lon="10.5332186"><ele>1444.3333333333333</ele><time>2026-03-24T09:24:13.374Z</time></trkpt><trkpt lat="46.736742" lon="10.5332448"><ele>1444.6666666666665</ele><time>2026-03-24T09:24:14.359Z</time></trkpt><trkpt lat="46.7366615" lon="10.533253"><ele>1445.0</ele><time>2026-03-24T09:24:15.374Z</time></trkpt><trkpt lat="46.7365782" lon="10.533236"><ele>1445.3333333333333</ele><time>2026-03-24T09:24:16.361Z</time></trkpt><trkpt lat="46.736491" lon="10.533199"><ele>1445.6666666666667</ele><time>2026-03-24T09:24:17.362Z</time></trkpt><trkpt lat="46.7364015" lon="10.5331494"><ele>1446.0</ele><time>2026-03-24T09:24:18.368Z</time></trkpt><trkpt lat="46.7363073" lon="10.5330985"><ele>1446.0</ele><time>2026-03-24T09:24:19.37Z</time></trkpt><trkpt lat="46.7362093" lon="10.5330517"><ele>1446.0</ele><time>2026-03-24T09:24:20.363Z</time></trkpt><trkpt lat="46.736108" lon="10.5330109"><ele>1446.0</ele><time>2026-03-24T09:24:21.373Z</time></trkpt><trkpt lat="46.7360056" lon="10.532978"><ele>1446.0</ele><time>2026-03-24T09:24:22.367Z</time></trkpt><trkpt lat="46.7359038" lon="10.5329536"><ele>1446.0</ele><time>2026-03-24T09:24:23.368Z</time></trkpt><trkpt lat="46.7358007" lon="10.5329322"><ele>1443.6</ele><time>2026-03-24T09:24:24.364Z</time></trkpt><trkpt lat="46.7356973" lon="10.5329133"><ele>1441.1999999999998</ele><time>2026-03-24T09:24:25.373Z</time></trkpt><trkpt lat="46.7355926" lon="10.5328916"><ele>1438.8000000000002</ele><time>2026-03-24T09:24:26.363Z</time></trkpt><trkpt lat="46.7354871" lon="10.5328661"><ele>1436.4</ele><time>2026-03-24T09:24:27.366Z</time></trkpt><trkpt lat="46.7353803" lon="10.5328443"><ele>1434.0</ele><time>2026-03-24T09:24:28.372Z</time></trkpt><trkpt lat="46.7352733" lon="10.5328163"><ele>1435.6</ele><time>2026-03-24T09:24:29.361Z</time></trkpt><trkpt lat="46.735169" lon="10.5327792"><ele>1437.2</ele><time>2026-03-24T09:24:30.365Z</time></trkpt><trkpt lat="46.7350684" lon="10.5327233"><ele>1438.8</ele><time>2026-03-24T09:24:31.371Z</time></trkpt><trkpt lat="46.7349747" lon="10.5326568"><ele>1440.3999999999999</ele><time>2026-03-24T09:24:32.358Z</time></trkpt><trkpt lat="46.7348822" lon="10.5326027"><ele>1442.0</ele><time>2026-03-24T09:24:33.375Z</time></trkpt><trkpt lat="46.7347931" lon="10.5325531"><ele>1442.0</ele><time>2026-03-24T09:24:34.37Z</time></trkpt><trkpt lat="46.7346991" lon="10.5325454"><ele>1442.0</ele><time>2026-03-24T09:24:35.364Z</time></trkpt><trkpt lat="46.7346076" lon="10.5325411"><ele>1442.0</ele><time>2026-03-24T09:24:36.37Z</time></trkpt><trkpt lat="46.7345126" lon="10.532533"><ele>1442.0</ele><time>2026-03-24T09:24:37.369Z</time></trkpt><trkpt lat="46.7344168" lon="10.5324983"><ele>1442.0</ele><time>2026-03-24T09:24:38.362Z</time></trkpt><trkpt lat="46.7343243" lon="10.5324482"><ele>1438.3999999999999</ele><time>2026-03-24T09:24:39.366Z</time></trkpt><trkpt lat="46.7342317" lon="10.5323929"><ele>1434.8</ele><time>2026-03-24T09:24:40.364Z</time></trkpt><trkpt lat="46.7341356" lon="10.5323504"><ele>1431.2</ele><time>2026-03-24T09:24:41.362Z</time></trkpt><trkpt lat="46.7340395" lon="10.5323378"><ele>1427.6</ele><time>2026-03-24T09:24:42.363Z</time></trkpt><trkpt lat="46.7339432" lon="10.5323499"><ele>1424.0</ele><time>2026-03-24T09:24:43.368Z</time></trkpt><trkpt lat="46.733847" lon="10.5323657"><ele>1424.0</ele><time>2026-03-24T09:24:44.369Z</time></trkpt><trkpt lat="46.7337534" lon="10.5323633"><ele>1424.0</ele><time>2026-03-24T09:24:45.37Z</time></trkpt><trkpt lat="46.7336664" lon="10.5323415"><ele>1424.0</ele><time>2026-03-24T09:24:46.374Z</time></trkpt><trkpt lat="46.7335763" lon="10.5323065"><ele>1424.0</ele><time>2026-03-24T09:24:47.37Z</time></trkpt><trkpt lat="46.7334887" lon="10.5322672"><ele>1424.0</ele><time>2026-03-24T09:24:48.371Z</time></trkpt><trkpt lat="46.7334069" lon="10.5322201"><ele>1422.4</ele><time>2026-03-24T09:24:49.368Z</time></trkpt><trkpt lat="46.7333388" lon="10.5321604"><ele>1420.8000000000002</ele><time>2026-03-24T09:24:50.362Z</time></trkpt><trkpt lat="46.7332848" lon="10.5320952"><ele>1419.1999999999998</ele><time>2026-03-24T09:24:51.369Z</time></trkpt><trkpt lat="46.7331958" lon="10.5319817"><ele>1417.6</ele><time>2026-03-24T09:24:53.361Z</time></trkpt><trkpt lat="46.7330916" lon="10.5318895"><ele>1416.0</ele><time>2026-03-24T09:24:55.368Z</time></trkpt><trkpt lat="46.7329877" lon="10.53182"><ele>1416.6</ele><time>2026-03-24T09:24:57.365Z</time></trkpt><trkpt lat="46.7328995" lon="10.5317642"><ele>1417.1999999999998</ele><time>2026-03-24T09:24:59.369Z</time></trkpt><trkpt lat="46.7327959" lon="10.5317178"><ele>1417.8000000000002</ele><time>2026-03-24T09:25:01.366Z</time></trkpt><trkpt lat="46.7326869" lon="10.5316677"><ele>1418.4</ele><time>2026-03-24T09:25:03.364Z</time></trkpt><trkpt lat="46.7325748" lon="10.5316174"><ele>1419.0</ele><time>2026-03-24T09:25:05.366Z</time></trkpt><trkpt lat="46.7324608" lon="10.5315823"><ele>1419.0</ele><time>2026-03-24T09:25:07.366Z</time></trkpt><trkpt lat="46.7323602" lon="10.5315574"><ele>1419.0</ele><time>2026-03-24T09:25:09.369Z</time></trkpt><trkpt lat="46.7322806" lon="10.5315486"><ele>1419.0</ele><time>2026-03-24T09:25:11.368Z</time></trkpt><trkpt lat="46.7322124" lon="10.5315641"><ele>1419.0</ele><time>2026-03-24T09:25:14.36Z</time></trkpt><trkpt lat="46.7321354" lon="10.5315368"><ele>1419.0</ele><time>2026-03-24T09:27:15.359Z</time></trkpt><trkpt lat="46.7320651" lon="10.5315303"><ele>1419.0</ele><time>2026-03-24T09:27:17.366Z</time></trkpt><trkpt lat="46.7319778" lon="10.5315306"><ele>1417.6666666666667</ele><time>2026-03-24T09:27:19.363Z</time></trkpt><trkpt lat="46.7318692" lon="10.5315389"><ele>1416.3333333333333</ele><time>2026-03-24T09:27:21.362Z</time></trkpt><trkpt lat="46.7318062" lon="10.5315406"><ele>1415.0</ele><time>2026-03-24T09:27:22.358Z</time></trkpt><trkpt lat="46.731737" lon="10.5315412"><ele>1413.6666666666665</ele><time>2026-03-24T09:27:23.361Z</time></trkpt><trkpt lat="46.7316646" lon="10.531537"><ele>1412.3333333333333</ele><time>2026-03-24T09:27:24.36Z</time></trkpt><trkpt lat="46.7315894" lon="10.5315346"><ele>1411.0</ele><time>2026-03-24T09:27:25.354Z</time></trkpt><trkpt lat="46.7315114" lon="10.5315195"><ele>1411.0</ele><time>2026-03-24T09:27:26.364Z</time></trkpt><trkpt lat="46.7314269" lon="10.5315062"><ele>1411.0</ele><time>2026-03-24T09:27:27.36Z</time></trkpt><trkpt lat="46.7313469" lon="10.5314896"><ele>1411.0</ele><time>2026-03-24T09:27:28.362Z</time></trkpt><trkpt lat="46.7312665" lon="10.5314602"><ele>1411.0</ele><time>2026-03-24T09:27:29.358Z</time></trkpt><trkpt lat="46.7311878" lon="10.5314194"><ele>1411.0</ele><time>2026-03-24T09:27:30.356Z</time></trkpt><trkpt lat="46.7311057" lon="10.5313751"><ele>1411.0</ele><time>2026-03-24T09:27:31.37Z</time></trkpt><trkpt lat="46.7310245" lon="10.5313161"><ele>1413.0</ele><time>2026-03-24T09:27:32.37Z</time></trkpt><trkpt lat="46.7309443" lon="10.5312551"><ele>1415.0</ele><time>2026-03-24T09:27:33.364Z</time></trkpt><trkpt lat="46.7308576" lon="10.5311949"><ele>1417.0</ele><time>2026-03-24T09:27:34.361Z</time></trkpt><trkpt lat="46.7307674" lon="10.5311362"><ele>1419.0</ele><time>2026-03-24T09:27:35.365Z</time></trkpt><trkpt lat="46.7306751" lon="10.5310807"><ele>1421.0</ele><time>2026-03-24T09:27:36.377Z</time></trkpt><trkpt lat="46.7305833" lon="10.5310258"><ele>1421.0</ele><time>2026-03-24T09:27:37.365Z</time></trkpt><trkpt lat="46.7304895" lon="10.5309773"><ele>1421.0</ele><time>2026-03-24T09:27:38.355Z</time></trkpt><trkpt lat="46.7303986" lon="10.530931"><ele>1421.0</ele><time>2026-03-24T09:27:39.359Z</time></trkpt><trkpt lat="46.7303076" lon="10.530884"><ele>1421.0</ele><time>2026-03-24T09:27:40.375Z</time></trkpt><trkpt lat="46.7302115" lon="10.5308409"><ele>1421.0</ele><time>2026-03-24T09:27:41.367Z</time></trkpt><trkpt lat="46.7301103" lon="10.5307919"><ele>1413.5</ele><time>2026-03-24T09:27:42.377Z</time></trkpt><trkpt lat="46.7299915" lon="10.5307347"><ele>1406.0</ele><time>2026-03-24T09:27:43.371Z</time></trkpt><trkpt lat="46.7298779" lon="10.5306734"><ele>1398.5</ele><time>2026-03-24T09:27:44.37Z</time></trkpt><trkpt lat="46.7297617" lon="10.5306205"><ele>1391.0</ele><time>2026-03-24T09:27:45.369Z</time></trkpt><trkpt lat="46.7296383" lon="10.5305736"><ele>1391.0</ele><time>2026-03-24T09:27:46.374Z</time></trkpt><trkpt lat="46.7295069" lon="10.5305276"><ele>1391.0</ele><time>2026-03-24T09:27:47.38Z</time></trkpt><trkpt lat="46.7293726" lon="10.5304707"><ele>1391.0</ele><time>2026-03-24T09:27:48.374Z</time></trkpt><trkpt lat="46.7292412" lon="10.5303993"><ele>1391.0</ele><time>2026-03-24T09:27:49.367Z</time></trkpt><trkpt lat="46.7291127" lon="10.5303189"><ele>1392.25</ele><time>2026-03-24T09:27:50.375Z</time></trkpt><trkpt lat="46.7289846" lon="10.5302385"><ele>1393.5</ele><time>2026-03-24T09:27:51.367Z</time></trkpt><trkpt lat="46.7288603" lon="10.5301606"><ele>1394.75</ele><time>2026-03-24T09:27:52.364Z</time></trkpt><trkpt lat="46.7287348" lon="10.5300907"><ele>1396.0</ele><time>2026-03-24T09:27:53.358Z</time></trkpt><trkpt lat="46.7286112" lon="10.5300221"><ele>1390.75</ele><time>2026-03-24T09:27:54.356Z</time></trkpt><trkpt lat="46.7284941" lon="10.5299553"><ele>1385.5</ele><time>2026-03-24T09:27:55.353Z</time></trkpt><trkpt lat="46.7283786" lon="10.5298977"><ele>1380.25</ele><time>2026-03-24T09:27:56.378Z</time></trkpt><trkpt lat="46.7282663" lon="10.529835"><ele>1375.0</ele><time>2026-03-24T09:27:57.364Z</time></trkpt><trkpt lat="46.7281523" lon="10.5297774"><ele>1375.0</ele><time>2026-03-24T09:27:58.37Z</time></trkpt><trkpt lat="46.7280342" lon="10.5297401"><ele>1375.0</ele><time>2026-03-24T09:27:59.368Z</time></trkpt><trkpt lat="46.727911" lon="10.5297242"><ele>1375.0</ele><time>2026-03-24T09:28:00.367Z</time></trkpt><trkpt lat="46.727785" lon="10.5297244"><ele>1375.0</ele><time>2026-03-24T09:28:01.354Z</time></trkpt><trkpt lat="46.7276605" lon="10.5297349"><ele>1373.0</ele><time>2026-03-24T09:28:02.36Z</time></trkpt><trkpt lat="46.7275316" lon="10.5297547"><ele>1371.0</ele><time>2026-03-24T09:28:03.36Z</time></trkpt><trkpt lat="46.7274009" lon="10.5297676"><ele>1369.0</ele><time>2026-03-24T09:28:04.36Z</time></trkpt><trkpt lat="46.7272655" lon="10.5297674"><ele>1367.0</ele><time>2026-03-24T09:28:05.364Z</time></trkpt><trkpt lat="46.7271282" lon="10.5297485"><ele>1367.0</ele><time>2026-03-24T09:28:06.374Z</time></trkpt><trkpt lat="46.726992" lon="10.5297109"><ele>1367.0</ele><time>2026-03-24T09:28:07.37Z</time></trkpt><trkpt lat="46.7268552" lon="10.5296684"><ele>1367.0</ele><time>2026-03-24T09:28:08.362Z</time></trkpt><trkpt lat="46.7267181" lon="10.5296389"><ele>1367.0</ele><time>2026-03-24T09:28:09.377Z</time></trkpt><trkpt lat="46.7265812" lon="10.5296367"><ele>1367.25</ele><time>2026-03-24T09:28:10.365Z</time></trkpt><trkpt lat="46.7264481" lon="10.5296596"><ele>1367.5</ele><time>2026-03-24T09:28:11.363Z</time></trkpt><trkpt lat="46.7263178" lon="10.529691"><ele>1367.75</ele><time>2026-03-24T09:28:12.374Z</time></trkpt><trkpt lat="46.726189" lon="10.5297225"><ele>1368.0</ele><time>2026-03-24T09:28:13.361Z</time></trkpt><trkpt lat="46.7260649" lon="10.5297625"><ele>1367.5</ele><time>2026-03-24T09:28:14.363Z</time></trkpt><trkpt lat="46.7259418" lon="10.5298094"><ele>1367.0</ele><time>2026-03-24T09:28:15.363Z</time></trkpt><trkpt lat="46.7258254" lon="10.5298608"><ele>1366.5</ele><time>2026-03-24T09:28:16.375Z</time></trkpt><trkpt lat="46.7257094" lon="10.5299295"><ele>1366.0</ele><time>2026-03-24T09:28:17.372Z</time></trkpt><trkpt lat="46.7255953" lon="10.530001"><ele>1366.0</ele><time>2026-03-24T09:28:18.367Z</time></trkpt><trkpt lat="46.7254788" lon="10.5300667"><ele>1366.0</ele><time>2026-03-24T09:28:19.373Z</time></trkpt><trkpt lat="46.7253574" lon="10.5301187"><ele>1366.0</ele><time>2026-03-24T09:28:20.368Z</time></trkpt><trkpt lat="46.7252334" lon="10.530164"><ele>1366.0</ele><time>2026-03-24T09:28:21.358Z</time></trkpt><trkpt lat="46.7251077" lon="10.5302114"><ele>1366.25</ele><time>2026-03-24T09:28:22.37Z</time></trkpt><trkpt lat="46.7249818" lon="10.5302615"><ele>1366.5</ele><time>2026-03-24T09:28:23.369Z</time></trkpt><trkpt lat="46.7248544" lon="10.5303038"><ele>1366.75</ele><time>2026-03-24T09:28:24.372Z</time></trkpt><trkpt lat="46.7247224" lon="10.5303277"><ele>1367.0</ele><time>2026-03-24T09:28:25.366Z</time></trkpt><trkpt lat="46.7245859" lon="10.5303407"><ele>1367.0</ele><time>2026-03-24T09:28:26.362Z</time></trkpt><trkpt lat="46.7244477" lon="10.5303515"><ele>1367.0</ele><time>2026-03-24T09:28:27.361Z</time></trkpt><trkpt lat="46.7243087" lon="10.5303168"><ele>1367.0</ele><time>2026-03-24T09:28:28.372Z</time></trkpt><trkpt lat="46.7241659" lon="10.5302805"><ele>1367.0</ele><time>2026-03-24T09:28:29.375Z</time></trkpt><trkpt lat="46.7240299" lon="10.5302299"><ele>1365.25</ele><time>2026-03-24T09:28:30.359Z</time></trkpt><trkpt lat="46.7239015" lon="10.530188"><ele>1363.5</ele><time>2026-03-24T09:28:31.366Z</time></trkpt><trkpt lat="46.7237775" lon="10.5301408"><ele>1361.75</ele><time>2026-03-24T09:28:32.366Z</time></trkpt><trkpt lat="46.7236583" lon="10.5300726"><ele>1360.0</ele><time>2026-03-24T09:28:33.37Z</time></trkpt><trkpt lat="46.7235401" lon="10.5299965"><ele>1355.0</ele><time>2026-03-24T09:28:34.372Z</time></trkpt><trkpt lat="46.7234186" lon="10.5299284"><ele>1350.0</ele><time>2026-03-24T09:28:35.368Z</time></trkpt><trkpt lat="46.723297" lon="10.5298715"><ele>1345.0</ele><time>2026-03-24T09:28:36.367Z</time></trkpt><trkpt lat="46.7231838" lon="10.5298032"><ele>1340.0</ele><time>2026-03-24T09:28:37.373Z</time></trkpt><trkpt lat="46.7230695" lon="10.5297185"><ele>1340.0</ele><time>2026-03-24T09:28:38.366Z</time></trkpt><trkpt lat="46.7229534" lon="10.5296398"><ele>1340.0</ele><time>2026-03-24T09:28:39.355Z</time></trkpt><trkpt lat="46.72284" lon="10.5295582"><ele>1340.0</ele><time>2026-03-24T09:28:40.341Z</time></trkpt><trkpt lat="46.7227142" lon="10.5295102"><ele>1340.0</ele><time>2026-03-24T09:28:41.361Z</time></trkpt><trkpt lat="46.7225838" lon="10.5294662"><ele>1344.0</ele><time>2026-03-24T09:28:42.366Z</time></trkpt><trkpt lat="46.7224528" lon="10.5294251"><ele>1348.0</ele><time>2026-03-24T09:28:43.365Z</time></trkpt><trkpt lat="46.7223218" lon="10.5294042"><ele>1352.0</ele><time>2026-03-24T09:28:44.362Z</time></trkpt><trkpt lat="46.7221967" lon="10.5293871"><ele>1356.0</ele><time>2026-03-24T09:28:45.365Z</time></trkpt><trkpt lat="46.7220744" lon="10.5293797"><ele>1356.0</ele><time>2026-03-24T09:28:46.358Z</time></trkpt><trkpt lat="46.7219531" lon="10.5293429"><ele>1356.0</ele><time>2026-03-24T09:28:47.365Z</time></trkpt><trkpt lat="46.721827" lon="10.5292856"><ele>1356.0</ele><time>2026-03-24T09:28:48.369Z</time></trkpt><trkpt lat="46.7217014" lon="10.5292242"><ele>1356.0</ele><time>2026-03-24T09:28:49.359Z</time></trkpt><trkpt lat="46.721576" lon="10.529177"><ele>1352.75</ele><time>2026-03-24T09:28:50.374Z</time></trkpt><trkpt lat="46.721447" lon="10.529129"><ele>1349.5</ele><time>2026-03-24T09:28:51.369Z</time></trkpt><trkpt lat="46.7213198" lon="10.5291172"><ele>1346.25</ele><time>2026-03-24T09:28:52.368Z</time></trkpt><trkpt lat="46.7211994" lon="10.5291214"><ele>1343.0</ele><time>2026-03-24T09:28:53.36Z</time></trkpt><trkpt lat="46.7210837" lon="10.5291328"><ele>1340.0</ele><time>2026-03-24T09:28:54.371Z</time></trkpt><trkpt lat="46.720972" lon="10.5291401"><ele>1337.0</ele><time>2026-03-24T09:28:55.367Z</time></trkpt><trkpt lat="46.7208609" lon="10.5291482"><ele>1334.0</ele><time>2026-03-24T09:28:56.371Z</time></trkpt><trkpt lat="46.7207442" lon="10.5291643"><ele>1331.0</ele><time>2026-03-24T09:28:57.361Z</time></trkpt><trkpt lat="46.7206239" lon="10.5291862"><ele>1331.0</ele><time>2026-03-24T09:28:58.37Z</time></trkpt><trkpt lat="46.7205003" lon="10.5292166"><ele>1331.0</ele><time>2026-03-24T09:28:59.367Z</time></trkpt><trkpt lat="46.7203745" lon="10.5292608"><ele>1331.0</ele><time>2026-03-24T09:29:00.37Z</time></trkpt><trkpt lat="46.7202486" lon="10.5293141"><ele>1331.0</ele><time>2026-03-24T09:29:01.37Z</time></trkpt><trkpt lat="46.7201225" lon="10.5293715"><ele>1328.5</ele><time>2026-03-24T09:29:02.374Z</time></trkpt><trkpt lat="46.7199917" lon="10.5294264"><ele>1326.0</ele><time>2026-03-24T09:29:03.362Z</time></trkpt><trkpt lat="46.7198557" lon="10.5294651"><ele>1323.5</ele><time>2026-03-24T09:29:04.352Z</time></trkpt><trkpt lat="46.7197147" lon="10.529489"><ele>1321.0</ele><time>2026-03-24T09:29:05.369Z</time></trkpt><trkpt lat="46.7195694" lon="10.5295026"><ele>1321.0</ele><time>2026-03-24T09:29:06.364Z</time></trkpt><trkpt lat="46.7194234" lon="10.5295101"><ele>1321.0</ele><time>2026-03-24T09:29:07.37Z</time></trkpt><trkpt lat="46.719276" lon="10.5295163"><ele>1321.0</ele><time>2026-03-24T09:29:08.369Z</time></trkpt><trkpt lat="46.7191274" lon="10.5295145"><ele>1321.0</ele><time>2026-03-24T09:29:09.363Z</time></trkpt><trkpt lat="46.7189787" lon="10.5295118"><ele>1319.25</ele><time>2026-03-24T09:29:10.356Z</time></trkpt><trkpt lat="46.7188305" lon="10.5295088"><ele>1317.5</ele><time>2026-03-24T09:29:11.374Z</time></trkpt><trkpt lat="46.7186833" lon="10.529509"><ele>1315.75</ele><time>2026-03-24T09:29:12.368Z</time></trkpt><trkpt lat="46.7185381" lon="10.5295096"><ele>1314.0</ele><time>2026-03-24T09:29:13.37Z</time></trkpt><trkpt lat="46.7184001" lon="10.529515"><ele>1314.0</ele><time>2026-03-24T09:29:14.366Z</time></trkpt><trkpt lat="46.7182623" lon="10.5295258"><ele>1314.0</ele><time>2026-03-24T09:29:15.365Z</time></trkpt><trkpt lat="46.7181293" lon="10.5295368"><ele>1314.0</ele><time>2026-03-24T09:29:16.373Z</time></trkpt><trkpt lat="46.7180048" lon="10.5295473"><ele>1314.0</ele><time>2026-03-24T09:29:17.369Z</time></trkpt><trkpt lat="46.7178967" lon="10.5295649"><ele>1310.4</ele><time>2026-03-24T09:29:18.366Z</time></trkpt><trkpt lat="46.7177989" lon="10.5295943"><ele>1306.8000000000002</ele><time>2026-03-24T09:29:19.376Z</time></trkpt><trkpt lat="46.7177073" lon="10.5296217"><ele>1303.1999999999998</ele><time>2026-03-24T09:29:20.361Z</time></trkpt><trkpt lat="46.7176144" lon="10.5296452"><ele>1299.6</ele><time>2026-03-24T09:29:21.369Z</time></trkpt><trkpt lat="46.7175142" lon="10.5296373"><ele>1296.0</ele><time>2026-03-24T09:29:22.355Z</time></trkpt><trkpt lat="46.7174125" lon="10.5296135"><ele>1296.4</ele><time>2026-03-24T09:29:23.371Z</time></trkpt><trkpt lat="46.7173091" lon="10.529592"><ele>1296.8</ele><time>2026-03-24T09:29:24.362Z</time></trkpt><trkpt lat="46.7172037" lon="10.5295731"><ele>1297.2</ele><time>2026-03-24T09:29:25.374Z</time></trkpt><trkpt lat="46.7170945" lon="10.5295614"><ele>1297.6000000000001</ele><time>2026-03-24T09:29:26.361Z</time></trkpt><trkpt lat="46.7169862" lon="10.5295493"><ele>1298.0</ele><time>2026-03-24T09:29:27.373Z</time></trkpt><trkpt lat="46.7168688" lon="10.5295565"><ele>1294.75</ele><time>2026-03-24T09:29:28.36Z</time></trkpt><trkpt lat="46.716748" lon="10.5295787"><ele>1291.5</ele><time>2026-03-24T09:29:29.371Z</time></trkpt><trkpt lat="46.7166295" lon="10.5296025"><ele>1288.25</ele><time>2026-03-24T09:29:30.36Z</time></trkpt><trkpt lat="46.7165102" lon="10.5296476"><ele>1285.0</ele><time>2026-03-24T09:29:31.389Z</time></trkpt><trkpt lat="46.7163911" lon="10.5296918"><ele>1285.0</ele><time>2026-03-24T09:29:32.362Z</time></trkpt><trkpt lat="46.71627" lon="10.5297429"><ele>1285.0</ele><time>2026-03-24T09:29:33.36Z</time></trkpt><trkpt lat="46.7161468" lon="10.5297956"><ele>1285.0</ele><time>2026-03-24T09:29:34.367Z</time></trkpt><trkpt lat="46.7160235" lon="10.5298483"><ele>1285.0</ele><time>2026-03-24T09:29:35.357Z</time></trkpt><trkpt lat="46.7158997" lon="10.5298982"><ele>1284.25</ele><time>2026-03-24T09:29:36.36Z</time></trkpt><trkpt lat="46.7157805" lon="10.5299501"><ele>1283.5</ele><time>2026-03-24T09:29:37.362Z</time></trkpt><trkpt lat="46.7156609" lon="10.5299865"><ele>1282.75</ele><time>2026-03-24T09:29:38.364Z</time></trkpt><trkpt lat="46.715552" lon="10.530031"><ele>1282.0</ele><time>2026-03-24T09:29:39.365Z</time></trkpt><trkpt lat="46.7154451" lon="10.5300773"><ele>1282.0</ele><time>2026-03-24T09:29:40.361Z</time></trkpt><trkpt lat="46.7153708" lon="10.5301492"><ele>1282.0</ele><time>2026-03-24T09:29:41.361Z</time></trkpt><trkpt lat="46.7152949" lon="10.530226"><ele>1282.0</ele><time>2026-03-24T09:29:42.368Z</time></trkpt><trkpt lat="46.7152439" lon="10.5303362"><ele>1282.0</ele><time>2026-03-24T09:29:43.372Z</time></trkpt><trkpt lat="46.715191" lon="10.530444"><ele>1282.0</ele><time>2026-03-24T09:29:44.37Z</time></trkpt><trkpt lat="46.7151285" lon="10.5305434"><ele>1279.0</ele><time>2026-03-24T09:29:45.363Z</time></trkpt><trkpt lat="46.7150627" lon="10.5306362"><ele>1276.0</ele><time>2026-03-24T09:29:46.368Z</time></trkpt><trkpt lat="46.7149924" lon="10.5307311"><ele>1273.0</ele><time>2026-03-24T09:29:47.365Z</time></trkpt><trkpt lat="46.7149219" lon="10.5308273"><ele>1270.0</ele><time>2026-03-24T09:29:48.359Z</time></trkpt><trkpt lat="46.7148452" lon="10.530931"><ele>1267.0</ele><time>2026-03-24T09:29:49.366Z</time></trkpt><trkpt lat="46.714743" lon="10.5310026"><ele>1267.0</ele><time>2026-03-24T09:29:50.376Z</time></trkpt><trkpt lat="46.714628" lon="10.5310508"><ele>1267.0</ele><time>2026-03-24T09:29:51.359Z</time></trkpt><trkpt lat="46.7145049" lon="10.5310887"><ele>1267.0</ele><time>2026-03-24T09:29:52.36Z</time></trkpt><trkpt lat="46.7143762" lon="10.5311218"><ele>1267.0</ele><time>2026-03-24T09:29:53.37Z</time></trkpt><trkpt lat="46.7142444" lon="10.5311416"><ele>1264.5</ele><time>2026-03-24T09:29:54.364Z</time></trkpt><trkpt lat="46.714114" lon="10.5311404"><ele>1262.0</ele><time>2026-03-24T09:29:55.371Z</time></trkpt><trkpt lat="46.713992" lon="10.5311282"><ele>1259.5</ele><time>2026-03-24T09:29:56.363Z</time></trkpt><trkpt lat="46.713878" lon="10.5311146"><ele>1257.0</ele><time>2026-03-24T09:29:57.373Z</time></trkpt><trkpt lat="46.7137725" lon="10.5311037"><ele>1257.0</ele><time>2026-03-24T09:29:58.377Z</time></trkpt><trkpt lat="46.7136685" lon="10.531095"><ele>1257.0</ele><time>2026-03-24T09:29:59.374Z</time></trkpt><trkpt lat="46.7135722" lon="10.5310858"><ele>1257.0</ele><time>2026-03-24T09:30:00.368Z</time></trkpt><trkpt lat="46.7134811" lon="10.5310789"><ele>1257.0</ele><time>2026-03-24T09:30:01.366Z</time></trkpt><trkpt lat="46.7133933" lon="10.5310555"><ele>1257.0</ele><time>2026-03-24T09:30:02.371Z</time></trkpt><trkpt lat="46.713305" lon="10.5310279"><ele>1255.5714285714287</ele><time>2026-03-24T09:30:03.363Z</time></trkpt><trkpt lat="46.713224" lon="10.5309881"><ele>1254.142857142857</ele><time>2026-03-24T09:30:04.364Z</time></trkpt><trkpt lat="46.7131457" lon="10.5309499"><ele>1252.7142857142858</ele><time>2026-03-24T09:30:05.363Z</time></trkpt><trkpt lat="46.7130739" lon="10.5309245"><ele>1251.2857142857142</ele><time>2026-03-24T09:30:06.372Z</time></trkpt><trkpt lat="46.7130078" lon="10.5309"><ele>1249.857142857143</ele><time>2026-03-24T09:30:07.375Z</time></trkpt><trkpt lat="46.7129459" lon="10.5308738"><ele>1248.4285714285716</ele><time>2026-03-24T09:30:08.373Z</time></trkpt><trkpt lat="46.712888" lon="10.5308351"><ele>1247.0</ele><time>2026-03-24T09:30:09.362Z</time></trkpt><trkpt lat="46.7127858" lon="10.5307492"><ele>1245.0</ele><time>2026-03-24T09:30:11.358Z</time></trkpt><trkpt lat="46.7127185" lon="10.5306848"><ele>1243.0</ele><time>2026-03-24T09:30:13.367Z</time></trkpt><trkpt lat="46.7126692" lon="10.5305898"><ele>1241.0</ele><time>2026-03-24T09:30:15.378Z</time></trkpt><trkpt lat="46.7126192" lon="10.5304952"><ele>1239.0</ele><time>2026-03-24T09:30:17.362Z</time></trkpt><trkpt lat="46.7125182" lon="10.5304229"><ele>1237.0</ele><time>2026-03-24T09:30:19.366Z</time></trkpt><trkpt lat="46.7124179" lon="10.5303915"><ele>1237.0</ele><time>2026-03-24T09:30:21.372Z</time></trkpt><trkpt lat="46.712346" lon="10.5303892"><ele>1237.0</ele><time>2026-03-24T09:30:23.353Z</time></trkpt><trkpt lat="46.7122745" lon="10.5304413"><ele>1237.0</ele><time>2026-03-24T09:30:59.364Z</time></trkpt><trkpt lat="46.7122261" lon="10.5303543"><ele>1237.0</ele><time>2026-03-24T09:31:03.36Z</time></trkpt><trkpt lat="46.7121793" lon="10.530256"><ele>1237.0</ele><time>2026-03-24T09:31:06.361Z</time></trkpt><trkpt lat="46.7121292" lon="10.5301527"><ele>1237.0</ele><time>2026-03-24T09:31:09.367Z</time></trkpt><trkpt lat="46.7120815" lon="10.5300688"><ele>1237.4285714285713</ele><time>2026-03-24T09:31:11.358Z</time></trkpt><trkpt lat="46.7120296" lon="10.529991"><ele>1237.857142857143</ele><time>2026-03-24T09:31:13.36Z</time></trkpt><trkpt lat="46.7119758" lon="10.5299037"><ele>1238.2857142857142</ele><time>2026-03-24T09:31:16.367Z</time></trkpt><trkpt lat="46.7120261" lon="10.5299675"><ele>1238.7142857142858</ele><time>2026-03-24T09:31:36.357Z</time></trkpt><trkpt lat="46.7120893" lon="10.5300066"><ele>1239.142857142857</ele><time>2026-03-24T09:31:41.36Z</time></trkpt><trkpt lat="46.7121582" lon="10.5300488"><ele>1239.5714285714287</ele><time>2026-03-24T09:31:52.376Z</time></trkpt><trkpt lat="46.7122037" lon="10.5301129"><ele>1240.0</ele><time>2026-03-24T09:31:55.377Z</time></trkpt><trkpt lat="46.7122535" lon="10.5302095"><ele>1240.0</ele><time>2026-03-24T09:31:58.377Z</time></trkpt><trkpt lat="46.7122941" lon="10.5303089"><ele>1240.0</ele><time>2026-03-24T09:32:01.367Z</time></trkpt><trkpt lat="46.7123037" lon="10.5304012"><ele>1240.0</ele><time>2026-03-24T09:32:03.364Z</time></trkpt><trkpt lat="46.7122958" lon="10.5305223"><ele>1240.0</ele><time>2026-03-24T09:32:05.36Z</time></trkpt><trkpt lat="46.7122698" lon="10.5306489"><ele>1240.0</ele><time>2026-03-24T09:32:07.363Z</time></trkpt><trkpt lat="46.712232" lon="10.5307815"><ele>1240.0</ele><time>2026-03-24T09:32:09.374Z</time></trkpt><trkpt lat="46.712189" lon="10.5309098"><ele>1239.5</ele><time>2026-03-24T09:32:11.376Z</time></trkpt><trkpt lat="46.7121312" lon="10.5310253"><ele>1239.0</ele><time>2026-03-24T09:32:13.366Z</time></trkpt><trkpt lat="46.7120535" lon="10.5310888"><ele>1238.5</ele><time>2026-03-24T09:32:15.379Z</time></trkpt><trkpt lat="46.7119739" lon="10.5311061"><ele>1238.0</ele><time>2026-03-24T09:32:17.365Z</time></trkpt><trkpt lat="46.7118972" lon="10.5311053"><ele>1237.5</ele><time>2026-03-24T09:32:19.357Z</time></trkpt><trkpt lat="46.7118189" lon="10.5310981"><ele>1237.0</ele><time>2026-03-24T09:32:21.36Z</time></trkpt><trkpt lat="46.7117409" lon="10.5310965"><ele>1237.4285714285713</ele><time>2026-03-24T09:32:23.371Z</time></trkpt><trkpt lat="46.71167" lon="10.531121"><ele>1237.857142857143</ele><time>2026-03-24T09:32:25.369Z</time></trkpt><trkpt lat="46.7116132" lon="10.5311695"><ele>1238.2857142857142</ele><time>2026-03-24T09:32:27.371Z</time></trkpt><trkpt lat="46.7115585" lon="10.5312668"><ele>1238.7142857142858</ele><time>2026-03-24T09:32:30.369Z</time></trkpt><trkpt lat="46.7115184" lon="10.5313713"><ele>1239.142857142857</ele><time>2026-03-24T09:32:33.353Z</time></trkpt><trkpt lat="46.7114905" lon="10.5314684"><ele>1239.5714285714287</ele><time>2026-03-24T09:32:36.362Z</time></trkpt><trkpt lat="46.7114812" lon="10.5315613"><ele>1240.0</ele><time>2026-03-24T09:32:39.357Z</time></trkpt><trkpt lat="46.7114841" lon="10.5316562"><ele>1240.0</ele><time>2026-03-24T09:32:42.37Z</time></trkpt><trkpt lat="46.7114843" lon="10.53176"><ele>1240.0</ele><time>2026-03-24T09:32:45.366Z</time></trkpt><trkpt lat="46.7114994" lon="10.5318583"><ele>1240.0</ele><time>2026-03-24T09:32:48.367Z</time></trkpt><trkpt lat="46.7115071" lon="10.5319591"><ele>1240.0</ele><time>2026-03-24T09:32:51.363Z</time></trkpt><trkpt lat="46.7115198" lon="10.5320875"><ele>1240.0</ele><time>2026-03-24T09:32:54.354Z</time></trkpt><trkpt lat="46.7115332" lon="10.53221"><ele>1240.0</ele><time>2026-03-24T09:32:57.358Z</time></trkpt><trkpt lat="46.7115433" lon="10.5323353"><ele>1241.5</ele><time>2026-03-24T09:33:00.355Z</time></trkpt><trkpt lat="46.7115352" lon="10.5324583"><ele>1243.0</ele><time>2026-03-24T09:33:03.363Z</time></trkpt><trkpt lat="46.7115139" lon="10.532571"><ele>1244.5</ele><time>2026-03-24T09:33:06.357Z</time></trkpt><trkpt lat="46.7114893" lon="10.5326854"><ele>1246.0</ele><time>2026-03-24T09:33:09.364Z</time></trkpt><trkpt lat="46.7114616" lon="10.5328055"><ele>1247.5</ele><time>2026-03-24T09:33:12.366Z</time></trkpt><trkpt lat="46.7114362" lon="10.5329189"><ele>1249.0</ele><time>2026-03-24T09:33:15.365Z</time></trkpt><trkpt lat="46.7114046" lon="10.5330246"><ele>1249.5</ele><time>2026-03-24T09:33:18.367Z</time></trkpt><trkpt lat="46.7113715" lon="10.5331327"><ele>1250.0</ele><time>2026-03-24T09:33:21.362Z</time></trkpt><trkpt lat="46.7113414" lon="10.5332304"><ele>1250.5</ele><time>2026-03-24T09:33:24.362Z</time></trkpt><trkpt lat="46.7113193" lon="10.5333295"><ele>1251.0</ele><time>2026-03-24T09:33:27.364Z</time></trkpt><trkpt lat="46.711301" lon="10.5334348"><ele>1251.5</ele><time>2026-03-24T09:33:30.369Z</time></trkpt><trkpt lat="46.7112875" lon="10.5335436"><ele>1252.0</ele><time>2026-03-24T09:33:33.362Z</time></trkpt><trkpt lat="46.7112734" lon="10.5336491"><ele>1252.6666666666665</ele><time>2026-03-24T09:33:36.368Z</time></trkpt><trkpt lat="46.7112665" lon="10.5337511"><ele>1253.3333333333333</ele><time>2026-03-24T09:33:39.358Z</time></trkpt><trkpt lat="46.7112709" lon="10.5338728"><ele>1254.0</ele><time>2026-03-24T09:33:43.363Z</time></trkpt><trkpt lat="46.7113068" lon="10.5339813"><ele>1254.6666666666667</ele><time>2026-03-24T09:33:47.37Z</time></trkpt><trkpt lat="46.7113446" lon="10.5340599"><ele>1255.3333333333335</ele><time>2026-03-24T09:33:50.361Z</time></trkpt><trkpt lat="46.7113946" lon="10.5341405"><ele>1256.0</ele><time>2026-03-24T09:33:54.363Z</time></trkpt><trkpt lat="46.7114401" lon="10.5342331"><ele>1256.0</ele><time>2026-03-24T09:33:59.366Z</time></trkpt><trkpt lat="46.7114773" lon="10.5343487"><ele>1256.0</ele><time>2026-03-24T09:34:03.367Z</time></trkpt><trkpt lat="46.7114834" lon="10.5344407"><ele>1256.0</ele><time>2026-03-24T09:34:05.362Z</time></trkpt><trkpt lat="46.7114727" lon="10.534564"><ele>1256.0</ele><time>2026-03-24T09:34:07.365Z</time></trkpt><trkpt lat="46.7114381" lon="10.5347039"><ele>1256.0</ele><time>2026-03-24T09:34:09.371Z</time></trkpt><trkpt lat="46.7113772" lon="10.5348449"><ele>1256.0</ele><time>2026-03-24T09:34:11.372Z</time></trkpt><trkpt lat="46.7113025" lon="10.5349874"><ele>1256.0</ele><time>2026-03-24T09:34:13.362Z</time></trkpt><trkpt lat="46.7112555" lon="10.5350522"><ele>1256.0</ele><time>2026-03-24T09:34:14.362Z</time></trkpt><trkpt lat="46.7112018" lon="10.535114"><ele>1256.0</ele><time>2026-03-24T09:34:15.364Z</time></trkpt><trkpt lat="46.7111453" lon="10.5351732"><ele>1256.0</ele><time>2026-03-24T09:34:16.357Z</time></trkpt><trkpt lat="46.7110872" lon="10.5352357"><ele>1256.0</ele><time>2026-03-24T09:34:17.363Z</time></trkpt><trkpt lat="46.7110265" lon="10.5352978"><ele>1255.0</ele><time>2026-03-24T09:34:18.363Z</time></trkpt><trkpt lat="46.7109612" lon="10.5353536"><ele>1254.0</ele><time>2026-03-24T09:34:19.364Z</time></trkpt><trkpt lat="46.7108919" lon="10.5354071"><ele>1253.0</ele><time>2026-03-24T09:34:20.364Z</time></trkpt><trkpt lat="46.710821" lon="10.5354591"><ele>1252.0</ele><time>2026-03-24T09:34:21.366Z</time></trkpt><trkpt lat="46.7107475" lon="10.5355092"><ele>1251.0</ele><time>2026-03-24T09:34:22.371Z</time></trkpt><trkpt lat="46.7106717" lon="10.5355568"><ele>1250.0</ele><time>2026-03-24T09:34:23.364Z</time></trkpt><trkpt lat="46.7105932" lon="10.5356036"><ele>1250.0</ele><time>2026-03-24T09:34:24.362Z</time></trkpt><trkpt lat="46.7105131" lon="10.5356507"><ele>1250.0</ele><time>2026-03-24T09:34:25.364Z</time></trkpt><trkpt lat="46.7104315" lon="10.5357002"><ele>1250.0</ele><time>2026-03-24T09:34:26.371Z</time></trkpt><trkpt lat="46.7103474" lon="10.5357512"><ele>1250.0</ele><time>2026-03-24T09:34:27.371Z</time></trkpt><trkpt lat="46.7102609" lon="10.5358026"><ele>1250.0</ele><time>2026-03-24T09:34:28.366Z</time></trkpt><trkpt lat="46.7101719" lon="10.535856"><ele>1248.6</ele><time>2026-03-24T09:34:29.373Z</time></trkpt><trkpt lat="46.7100809" lon="10.5359113"><ele>1247.2</ele><time>2026-03-24T09:34:30.37Z</time></trkpt><trkpt lat="46.7099875" lon="10.5359673"><ele>1245.8</ele><time>2026-03-24T09:34:31.368Z</time></trkpt><trkpt lat="46.7098925" lon="10.5360257"><ele>1244.4</ele><time>2026-03-24T09:34:32.356Z</time></trkpt><trkpt lat="46.7097954" lon="10.5360842"><ele>1243.0</ele><time>2026-03-24T09:34:33.366Z</time></trkpt><trkpt lat="46.7096972" lon="10.5361443"><ele>1243.0</ele><time>2026-03-24T09:34:34.361Z</time></trkpt><trkpt lat="46.7095965" lon="10.5362063"><ele>1243.0</ele><time>2026-03-24T09:34:35.371Z</time></trkpt><trkpt lat="46.709494" lon="10.5362694"><ele>1243.0</ele><time>2026-03-24T09:34:36.369Z</time></trkpt><trkpt lat="46.7093897" lon="10.5363342"><ele>1243.0</ele><time>2026-03-24T09:34:37.366Z</time></trkpt><trkpt lat="46.7092844" lon="10.5363985"><ele>1243.0</ele><time>2026-03-24T09:34:38.378Z</time></trkpt><trkpt lat="46.7091789" lon="10.5364637"><ele>1242.25</ele><time>2026-03-24T09:34:39.364Z</time></trkpt><trkpt lat="46.7090735" lon="10.536529"><ele>1241.5</ele><time>2026-03-24T09:34:40.369Z</time></trkpt><trkpt lat="46.7089658" lon="10.5365938"><ele>1240.75</ele><time>2026-03-24T09:34:41.365Z</time></trkpt><trkpt lat="46.7088587" lon="10.5366581"><ele>1240.0</ele><time>2026-03-24T09:34:42.363Z</time></trkpt><trkpt lat="46.7087524" lon="10.536721"><ele>1240.0</ele><time>2026-03-24T09:34:43.365Z</time></trkpt><trkpt lat="46.7086422" lon="10.5367762"><ele>1240.0</ele><time>2026-03-24T09:34:44.365Z</time></trkpt><trkpt lat="46.7085285" lon="10.5368166"><ele>1240.0</ele><time>2026-03-24T09:34:45.361Z</time></trkpt><trkpt lat="46.7084138" lon="10.5368558"><ele>1240.0</ele><time>2026-03-24T09:34:46.364Z</time></trkpt><trkpt lat="46.7082957" lon="10.5368661"><ele>1237.75</ele><time>2026-03-24T09:34:47.361Z</time></trkpt><trkpt lat="46.7081747" lon="10.5368746"><ele>1235.5</ele><time>2026-03-24T09:34:48.367Z</time></trkpt><trkpt lat="46.7080556" lon="10.5368898"><ele>1233.25</ele><time>2026-03-24T09:34:49.368Z</time></trkpt><trkpt lat="46.7079377" lon="10.5369176"><ele>1231.0</ele><time>2026-03-24T09:34:50.369Z</time></trkpt><trkpt lat="46.7078194" lon="10.5369467"><ele>1229.5</ele><time>2026-03-24T09:34:51.367Z</time></trkpt><trkpt lat="46.7077042" lon="10.5370022"><ele>1228.0</ele><time>2026-03-24T09:34:52.364Z</time></trkpt><trkpt lat="46.7075924" lon="10.5370675"><ele>1226.5</ele><time>2026-03-24T09:34:53.363Z</time></trkpt><trkpt lat="46.7074853" lon="10.5371427"><ele>1225.0</ele><time>2026-03-24T09:34:54.357Z</time></trkpt><trkpt lat="46.7073827" lon="10.5372294"><ele>1225.0</ele><time>2026-03-24T09:34:55.358Z</time></trkpt><trkpt lat="46.7072838" lon="10.5373229"><ele>1225.0</ele><time>2026-03-24T09:34:56.364Z</time></trkpt><trkpt lat="46.7071889" lon="10.5374234"><ele>1225.0</ele><time>2026-03-24T09:34:57.356Z</time></trkpt><trkpt lat="46.7070969" lon="10.5375258"><ele>1225.0</ele><time>2026-03-24T09:34:58.367Z</time></trkpt><trkpt lat="46.7070048" lon="10.5376297"><ele>1225.0</ele><time>2026-03-24T09:34:59.368Z</time></trkpt><trkpt lat="46.7069124" lon="10.537731"><ele>1225.0</ele><time>2026-03-24T09:35:00.366Z</time></trkpt><trkpt lat="46.7068195" lon="10.5378311"><ele>1225.0</ele><time>2026-03-24T09:35:01.368Z</time></trkpt><trkpt lat="46.7067267" lon="10.5379318"><ele>1225.0</ele><time>2026-03-24T09:35:02.368Z</time></trkpt><trkpt lat="46.7066352" lon="10.5380325"><ele>1224.25</ele><time>2026-03-24T09:35:03.371Z</time></trkpt><trkpt lat="46.7065426" lon="10.5381324"><ele>1223.5</ele><time>2026-03-24T09:35:04.36Z</time></trkpt><trkpt lat="46.7064497" lon="10.5382333"><ele>1222.75</ele><time>2026-03-24T09:35:05.367Z</time></trkpt><trkpt lat="46.7063578" lon="10.538334"><ele>1222.0</ele><time>2026-03-24T09:35:06.362Z</time></trkpt><trkpt lat="46.7062646" lon="10.5384344"><ele>1222.0</ele><time>2026-03-24T09:35:07.365Z</time></trkpt><trkpt lat="46.7061731" lon="10.5385352"><ele>1222.0</ele><time>2026-03-24T09:35:08.368Z</time></trkpt><trkpt lat="46.7060822" lon="10.5386364"><ele>1222.0</ele><time>2026-03-24T09:35:09.363Z</time></trkpt><trkpt lat="46.7059911" lon="10.5387367"><ele>1222.0</ele><time>2026-03-24T09:35:10.367Z</time></trkpt><trkpt lat="46.7058998" lon="10.5388384"><ele>1220.0</ele><time>2026-03-24T09:35:11.363Z</time></trkpt><trkpt lat="46.705809" lon="10.5389407"><ele>1218.0</ele><time>2026-03-24T09:35:12.362Z</time></trkpt><trkpt lat="46.7057174" lon="10.5390428"><ele>1216.0</ele><time>2026-03-24T09:35:13.362Z</time></trkpt><trkpt lat="46.7056248" lon="10.5391431"><ele>1214.0</ele><time>2026-03-24T09:35:14.36Z</time></trkpt><trkpt lat="46.7055315" lon="10.5392429"><ele>1214.0</ele><time>2026-03-24T09:35:15.371Z</time></trkpt><trkpt lat="46.705439" lon="10.5393445"><ele>1214.0</ele><time>2026-03-24T09:35:16.364Z</time></trkpt><trkpt lat="46.7053469" lon="10.5394467"><ele>1214.0</ele><time>2026-03-24T09:35:17.361Z</time></trkpt><trkpt lat="46.7052551" lon="10.53955"><ele>1214.0</ele><time>2026-03-24T09:35:18.356Z</time></trkpt><trkpt lat="46.7051629" lon="10.5396515"><ele>1212.5</ele><time>2026-03-24T09:35:19.363Z</time></trkpt><trkpt lat="46.7050714" lon="10.5397521"><ele>1211.0</ele><time>2026-03-24T09:35:20.368Z</time></trkpt><trkpt lat="46.7049812" lon="10.5398553"><ele>1209.5</ele><time>2026-03-24T09:35:21.363Z</time></trkpt><trkpt lat="46.7048898" lon="10.5399615"><ele>1208.0</ele><time>2026-03-24T09:35:22.367Z</time></trkpt><trkpt lat="46.7047989" lon="10.5400677"><ele>1208.0</ele><time>2026-03-24T09:35:23.369Z</time></trkpt><trkpt lat="46.7047064" lon="10.5401746"><ele>1208.0</ele><time>2026-03-24T09:35:24.371Z</time></trkpt><trkpt lat="46.7046135" lon="10.5402715"><ele>1208.0</ele><time>2026-03-24T09:35:25.362Z</time></trkpt><trkpt lat="46.7045138" lon="10.5403402"><ele>1208.0</ele><time>2026-03-24T09:35:26.361Z</time></trkpt><trkpt lat="46.7044042" lon="10.5403663"><ele>1206.4</ele><time>2026-03-24T09:35:27.361Z</time></trkpt><trkpt lat="46.7042946" lon="10.5403405"><ele>1204.8</ele><time>2026-03-24T09:35:28.365Z</time></trkpt><trkpt lat="46.7041974" lon="10.540263"><ele>1203.2</ele><time>2026-03-24T09:35:29.361Z</time></trkpt><trkpt lat="46.7041242" lon="10.5401444"><ele>1201.6</ele><time>2026-03-24T09:35:30.368Z</time></trkpt><trkpt lat="46.7040787" lon="10.5400012"><ele>1200.0</ele><time>2026-03-24T09:35:31.366Z</time></trkpt><trkpt lat="46.704069" lon="10.539846"><ele>1200.0</ele><time>2026-03-24T09:35:32.368Z</time></trkpt><trkpt lat="46.7040959" lon="10.5396958"><ele>1200.0</ele><time>2026-03-24T09:35:33.363Z</time></trkpt><trkpt lat="46.7041408" lon="10.5395567"><ele>1200.0</ele><time>2026-03-24T09:35:34.361Z</time></trkpt><trkpt lat="46.7041827" lon="10.5394165"><ele>1200.0</ele><time>2026-03-24T09:35:35.367Z</time></trkpt><trkpt lat="46.7042199" lon="10.5392727"><ele>1200.0</ele><time>2026-03-24T09:35:36.362Z</time></trkpt><trkpt lat="46.7042567" lon="10.5391296"><ele>1199.2</ele><time>2026-03-24T09:35:37.368Z</time></trkpt><trkpt lat="46.7042753" lon="10.5389802"><ele>1198.4</ele><time>2026-03-24T09:35:38.361Z</time></trkpt><trkpt lat="46.7042819" lon="10.5388283"><ele>1197.6</ele><time>2026-03-24T09:35:39.36Z</time></trkpt><trkpt lat="46.7042776" lon="10.5386748"><ele>1196.8</ele><time>2026-03-24T09:35:40.363Z</time></trkpt><trkpt lat="46.7042697" lon="10.5385204"><ele>1196.0</ele><time>2026-03-24T09:35:41.368Z</time></trkpt><trkpt lat="46.7042622" lon="10.5383669"><ele>1195.2</ele><time>2026-03-24T09:35:42.365Z</time></trkpt><trkpt lat="46.704244" lon="10.5382207"><ele>1194.3999999999999</ele><time>2026-03-24T09:35:43.362Z</time></trkpt><trkpt lat="46.7042272" lon="10.5380643"><ele>1193.6</ele><time>2026-03-24T09:35:44.359Z</time></trkpt><trkpt lat="46.704209" lon="10.5379125"><ele>1192.8</ele><time>2026-03-24T09:35:45.368Z</time></trkpt><trkpt lat="46.7041906" lon="10.5377587"><ele>1192.0</ele><time>2026-03-24T09:35:46.363Z</time></trkpt><trkpt lat="46.7041748" lon="10.5376009"><ele>1191.8</ele><time>2026-03-24T09:35:47.374Z</time></trkpt><trkpt lat="46.7041587" lon="10.5374446"><ele>1191.6</ele><time>2026-03-24T09:35:48.379Z</time></trkpt><trkpt lat="46.7041416" lon="10.537288"><ele>1191.3999999999999</ele><time>2026-03-24T09:35:49.37Z</time></trkpt><trkpt lat="46.7041247" lon="10.5371316"><ele>1191.2</ele><time>2026-03-24T09:35:50.367Z</time></trkpt><trkpt lat="46.7041056" lon="10.5369741"><ele>1191.0</ele><time>2026-03-24T09:35:51.361Z</time></trkpt><trkpt lat="46.704086" lon="10.5368172"><ele>1191.0</ele><time>2026-03-24T09:35:52.364Z</time></trkpt><trkpt lat="46.7040674" lon="10.5366589"><ele>1191.0</ele><time>2026-03-24T09:35:53.366Z</time></trkpt><trkpt lat="46.7040502" lon="10.5364987"><ele>1191.0</ele><time>2026-03-24T09:35:54.364Z</time></trkpt><trkpt lat="46.7040322" lon="10.5363388"><ele>1191.0</ele><time>2026-03-24T09:35:55.363Z</time></trkpt><trkpt lat="46.704014" lon="10.5361778"><ele>1191.0</ele><time>2026-03-24T09:35:56.376Z</time></trkpt><trkpt lat="46.7039957" lon="10.536016"><ele>1190.75</ele><time>2026-03-24T09:35:57.371Z</time></trkpt><trkpt lat="46.7039775" lon="10.5358522"><ele>1190.5</ele><time>2026-03-24T09:35:58.362Z</time></trkpt><trkpt lat="46.7039596" lon="10.5356872"><ele>1190.25</ele><time>2026-03-24T09:35:59.372Z</time></trkpt><trkpt lat="46.7039394" lon="10.535522"><ele>1190.0</ele><time>2026-03-24T09:36:00.362Z</time></trkpt><trkpt lat="46.7039201" lon="10.5353549"><ele>1190.0</ele><time>2026-03-24T09:36:01.374Z</time></trkpt><trkpt lat="46.7039007" lon="10.5351866"><ele>1190.0</ele><time>2026-03-24T09:36:02.365Z</time></trkpt><trkpt lat="46.7038831" lon="10.53502"><ele>1190.0</ele><time>2026-03-24T09:36:03.367Z</time></trkpt><trkpt lat="46.7038645" lon="10.5348496"><ele>1190.0</ele><time>2026-03-24T09:36:04.367Z</time></trkpt><trkpt lat="46.703845" lon="10.5346803"><ele>1188.75</ele><time>2026-03-24T09:36:05.367Z</time></trkpt><trkpt lat="46.7038251" lon="10.5345077"><ele>1187.5</ele><time>2026-03-24T09:36:06.353Z</time></trkpt><trkpt lat="46.7038045" lon="10.5343355"><ele>1186.25</ele><time>2026-03-24T09:36:07.364Z</time></trkpt><trkpt lat="46.7037861" lon="10.5341627"><ele>1185.0</ele><time>2026-03-24T09:36:08.381Z</time></trkpt><trkpt lat="46.7037708" lon="10.5339861"><ele>1185.0</ele><time>2026-03-24T09:36:09.386Z</time></trkpt><trkpt lat="46.7037565" lon="10.5338077"><ele>1185.0</ele><time>2026-03-24T09:36:10.37Z</time></trkpt><trkpt lat="46.7037494" lon="10.5336295"><ele>1185.0</ele><time>2026-03-24T09:36:11.381Z</time></trkpt><trkpt lat="46.7037587" lon="10.5334518"><ele>1185.0</ele><time>2026-03-24T09:36:12.37Z</time></trkpt><trkpt lat="46.7037806" lon="10.5332776"><ele>1184.0</ele><time>2026-03-24T09:36:13.375Z</time></trkpt><trkpt lat="46.7038033" lon="10.5331018"><ele>1183.0</ele><time>2026-03-24T09:36:14.365Z</time></trkpt><trkpt lat="46.7038397" lon="10.5329387"><ele>1182.0</ele><time>2026-03-24T09:36:15.368Z</time></trkpt><trkpt lat="46.7038738" lon="10.5327799"><ele>1181.0</ele><time>2026-03-24T09:36:16.366Z</time></trkpt><trkpt lat="46.7039025" lon="10.5326221"><ele>1181.0</ele><time>2026-03-24T09:36:17.367Z</time></trkpt><trkpt lat="46.7039211" lon="10.5324717"><ele>1181.0</ele><time>2026-03-24T09:36:18.367Z</time></trkpt><trkpt lat="46.7039232" lon="10.5323259"><ele>1181.0</ele><time>2026-03-24T09:36:19.373Z</time></trkpt><trkpt lat="46.7039048" lon="10.5321917"><ele>1181.0</ele><time>2026-03-24T09:36:20.364Z</time></trkpt><trkpt lat="46.7038622" lon="10.5320758"><ele>1181.0</ele><time>2026-03-24T09:36:21.372Z</time></trkpt><trkpt lat="46.7037962" lon="10.5319859"><ele>1180.6</ele><time>2026-03-24T09:36:22.368Z</time></trkpt><trkpt lat="46.7037122" lon="10.5319306"><ele>1180.1999999999998</ele><time>2026-03-24T09:36:23.366Z</time></trkpt><trkpt lat="46.7036181" lon="10.5319077"><ele>1179.8000000000002</ele><time>2026-03-24T09:36:24.363Z</time></trkpt><trkpt lat="46.7035215" lon="10.5319166"><ele>1179.4</ele><time>2026-03-24T09:36:25.37Z</time></trkpt><trkpt lat="46.7034264" lon="10.5319497"><ele>1179.0</ele><time>2026-03-24T09:36:26.378Z</time></trkpt><trkpt lat="46.703336" lon="10.5320051"><ele>1177.8</ele><time>2026-03-24T09:36:27.363Z</time></trkpt><trkpt lat="46.7032462" lon="10.5320615"><ele>1176.6000000000001</ele><time>2026-03-24T09:36:28.374Z</time></trkpt><trkpt lat="46.7031611" lon="10.5321361"><ele>1175.4</ele><time>2026-03-24T09:36:29.367Z</time></trkpt><trkpt lat="46.7030759" lon="10.5322111"><ele>1174.2</ele><time>2026-03-24T09:36:30.361Z</time></trkpt><trkpt lat="46.7029898" lon="10.5322854"><ele>1173.0</ele><time>2026-03-24T09:36:31.36Z</time></trkpt><trkpt lat="46.7029042" lon="10.5323642"><ele>1173.0</ele><time>2026-03-24T09:36:32.358Z</time></trkpt><trkpt lat="46.7028183" lon="10.5324429"><ele>1173.0</ele><time>2026-03-24T09:36:33.369Z</time></trkpt><trkpt lat="46.7027303" lon="10.5325194"><ele>1173.0</ele><time>2026-03-24T09:36:34.378Z</time></trkpt><trkpt lat="46.7026428" lon="10.5325955"><ele>1173.0</ele><time>2026-03-24T09:36:35.37Z</time></trkpt><trkpt lat="46.7025571" lon="10.5326728"><ele>1173.0</ele><time>2026-03-24T09:36:36.368Z</time></trkpt><trkpt lat="46.7024737" lon="10.5327508"><ele>1172.4</ele><time>2026-03-24T09:36:37.371Z</time></trkpt><trkpt lat="46.7023888" lon="10.5328301"><ele>1171.8</ele><time>2026-03-24T09:36:38.371Z</time></trkpt><trkpt lat="46.7023034" lon="10.5329097"><ele>1171.2</ele><time>2026-03-24T09:36:39.362Z</time></trkpt><trkpt lat="46.7022195" lon="10.5329963"><ele>1170.6</ele><time>2026-03-24T09:36:40.365Z</time></trkpt><trkpt lat="46.7021389" lon="10.53309"><ele>1170.0</ele><time>2026-03-24T09:36:41.365Z</time></trkpt><trkpt lat="46.7020586" lon="10.533193"><ele>1170.0</ele><time>2026-03-24T09:36:42.365Z</time></trkpt><trkpt lat="46.701978" lon="10.5333003"><ele>1170.0</ele><time>2026-03-24T09:36:43.358Z</time></trkpt><trkpt lat="46.7018948" lon="10.5334028"><ele>1170.0</ele><time>2026-03-24T09:36:44.36Z</time></trkpt><trkpt lat="46.7018116" lon="10.5335035"><ele>1170.0</ele><time>2026-03-24T09:36:45.362Z</time></trkpt><trkpt lat="46.7017241" lon="10.5336007"><ele>1170.0</ele><time>2026-03-24T09:36:46.374Z</time></trkpt><trkpt lat="46.7016345" lon="10.5336925"><ele>1168.8</ele><time>2026-03-24T09:36:47.372Z</time></trkpt><trkpt lat="46.701544" lon="10.5337805"><ele>1167.6</ele><time>2026-03-24T09:36:48.365Z</time></trkpt><trkpt lat="46.7014545" lon="10.533868"><ele>1166.4</ele><time>2026-03-24T09:36:49.363Z</time></trkpt><trkpt lat="46.7013621" lon="10.533952"><ele>1165.2</ele><time>2026-03-24T09:36:50.372Z</time></trkpt><trkpt lat="46.7012685" lon="10.534038"><ele>1164.0</ele><time>2026-03-24T09:36:51.369Z</time></trkpt><trkpt lat="46.7011747" lon="10.5341246"><ele>1162.4</ele><time>2026-03-24T09:36:52.368Z</time></trkpt><trkpt lat="46.7010819" lon="10.5342079"><ele>1160.8000000000002</ele><time>2026-03-24T09:36:53.374Z</time></trkpt><trkpt lat="46.7009916" lon="10.5342905"><ele>1159.1999999999998</ele><time>2026-03-24T09:36:54.362Z</time></trkpt><trkpt lat="46.7009043" lon="10.534374"><ele>1157.6</ele><time>2026-03-24T09:36:55.372Z</time></trkpt><trkpt lat="46.7008187" lon="10.5344547"><ele>1156.0</ele><time>2026-03-24T09:36:56.373Z</time></trkpt><trkpt lat="46.7007354" lon="10.5345371"><ele>1156.3999999999999</ele><time>2026-03-24T09:36:57.371Z</time></trkpt><trkpt lat="46.7006564" lon="10.5346198"><ele>1156.8</ele><time>2026-03-24T09:36:58.361Z</time></trkpt><trkpt lat="46.7005814" lon="10.5347095"><ele>1157.1999999999998</ele><time>2026-03-24T09:36:59.367Z</time></trkpt><trkpt lat="46.7005106" lon="10.5348055"><ele>1157.6</ele><time>2026-03-24T09:37:00.363Z</time></trkpt><trkpt lat="46.7004402" lon="10.5349028"><ele>1158.0</ele><time>2026-03-24T09:37:01.363Z</time></trkpt><trkpt lat="46.7003706" lon="10.5350022"><ele>1158.0</ele><time>2026-03-24T09:37:02.38Z</time></trkpt><trkpt lat="46.7002983" lon="10.5351015"><ele>1158.0</ele><time>2026-03-24T09:37:03.366Z</time></trkpt><trkpt lat="46.700224" lon="10.5351973"><ele>1158.0</ele><time>2026-03-24T09:37:04.368Z</time></trkpt><trkpt lat="46.7001461" lon="10.5352893"><ele>1158.0</ele><time>2026-03-24T09:37:05.368Z</time></trkpt><trkpt lat="46.7000695" lon="10.535378"><ele>1158.0</ele><time>2026-03-24T09:37:06.367Z</time></trkpt><trkpt lat="46.6999864" lon="10.5354601"><ele>1156.8</ele><time>2026-03-24T09:37:07.361Z</time></trkpt><trkpt lat="46.6999016" lon="10.5355397"><ele>1155.6</ele><time>2026-03-24T09:37:08.365Z</time></trkpt><trkpt lat="46.6998167" lon="10.5356133"><ele>1154.4</ele><time>2026-03-24T09:37:09.376Z</time></trkpt><trkpt lat="46.6997256" lon="10.5356819"><ele>1153.2</ele><time>2026-03-24T09:37:10.37Z</time></trkpt><trkpt lat="46.6996321" lon="10.5357456"><ele>1152.0</ele><time>2026-03-24T09:37:11.373Z</time></trkpt><trkpt lat="46.6995391" lon="10.5358073"><ele>1152.0</ele><time>2026-03-24T09:37:12.364Z</time></trkpt><trkpt lat="46.6994426" lon="10.5358651"><ele>1152.0</ele><time>2026-03-24T09:37:13.36Z</time></trkpt><trkpt lat="46.6993452" lon="10.5359235"><ele>1152.0</ele><time>2026-03-24T09:37:14.359Z</time></trkpt><trkpt lat="46.6992469" lon="10.5359831"><ele>1152.0</ele><time>2026-03-24T09:37:15.372Z</time></trkpt><trkpt lat="46.6991479" lon="10.5360454"><ele>1152.0</ele><time>2026-03-24T09:37:16.367Z</time></trkpt><trkpt lat="46.6990465" lon="10.5361065"><ele>1150.0</ele><time>2026-03-24T09:37:17.371Z</time></trkpt><trkpt lat="46.6989423" lon="10.5361683"><ele>1148.0</ele><time>2026-03-24T09:37:18.364Z</time></trkpt><trkpt lat="46.698837" lon="10.5362287"><ele>1146.0</ele><time>2026-03-24T09:37:19.364Z</time></trkpt><trkpt lat="46.698729" lon="10.5362904"><ele>1144.0</ele><time>2026-03-24T09:37:20.367Z</time></trkpt><trkpt lat="46.698619" lon="10.5363541"><ele>1142.5</ele><time>2026-03-24T09:37:21.37Z</time></trkpt><trkpt lat="46.6985066" lon="10.5364094"><ele>1141.0</ele><time>2026-03-24T09:37:22.364Z</time></trkpt><trkpt lat="46.6983865" lon="10.5364315"><ele>1139.5</ele><time>2026-03-24T09:37:23.37Z</time></trkpt><trkpt lat="46.6982623" lon="10.5364255"><ele>1138.0</ele><time>2026-03-24T09:37:24.361Z</time></trkpt><trkpt lat="46.698137" lon="10.5363993"><ele>1138.0</ele><time>2026-03-24T09:37:25.363Z</time></trkpt><trkpt lat="46.6980137" lon="10.5363495"><ele>1138.0</ele><time>2026-03-24T09:37:26.377Z</time></trkpt><trkpt lat="46.6978944" lon="10.5362809"><ele>1138.0</ele><time>2026-03-24T09:37:27.364Z</time></trkpt><trkpt lat="46.6977758" lon="10.5362019"><ele>1138.0</ele><time>2026-03-24T09:37:28.368Z</time></trkpt><trkpt lat="46.6976613" lon="10.5361292"><ele>1136.0</ele><time>2026-03-24T09:37:29.375Z</time></trkpt><trkpt lat="46.6975414" lon="10.536067"><ele>1134.0</ele><time>2026-03-24T09:37:30.366Z</time></trkpt><trkpt lat="46.6974155" lon="10.5360163"><ele>1132.0</ele><time>2026-03-24T09:37:31.365Z</time></trkpt><trkpt lat="46.6972859" lon="10.5359903"><ele>1130.0</ele><time>2026-03-24T09:37:32.372Z</time></trkpt><trkpt lat="46.697155" lon="10.5359888"><ele>1130.0</ele><time>2026-03-24T09:37:33.372Z</time></trkpt><trkpt lat="46.6970249" lon="10.5360089"><ele>1130.0</ele><time>2026-03-24T09:37:34.363Z</time></trkpt><trkpt lat="46.696898" lon="10.5360587"><ele>1130.0</ele><time>2026-03-24T09:37:35.363Z</time></trkpt><trkpt lat="46.6967751" lon="10.5361308"><ele>1130.0</ele><time>2026-03-24T09:37:36.361Z</time></trkpt><trkpt lat="46.6966586" lon="10.536226"><ele>1128.25</ele><time>2026-03-24T09:37:37.365Z</time></trkpt><trkpt lat="46.6965496" lon="10.5363422"><ele>1126.5</ele><time>2026-03-24T09:37:38.374Z</time></trkpt><trkpt lat="46.6964486" lon="10.5364739"><ele>1124.75</ele><time>2026-03-24T09:37:39.368Z</time></trkpt><trkpt lat="46.696355" lon="10.5366164"><ele>1123.0</ele><time>2026-03-24T09:37:40.359Z</time></trkpt><trkpt lat="46.6962613" lon="10.5367595"><ele>1123.0</ele><time>2026-03-24T09:37:41.358Z</time></trkpt><trkpt lat="46.6961665" lon="10.5369013"><ele>1123.0</ele><time>2026-03-24T09:37:42.364Z</time></trkpt><trkpt lat="46.6960735" lon="10.5370465"><ele>1123.0</ele><time>2026-03-24T09:37:43.363Z</time></trkpt><trkpt lat="46.6959801" lon="10.5371915"><ele>1123.0</ele><time>2026-03-24T09:37:44.367Z</time></trkpt><trkpt lat="46.6958868" lon="10.5373338"><ele>1121.25</ele><time>2026-03-24T09:37:45.369Z</time></trkpt><trkpt lat="46.6957934" lon="10.5374758"><ele>1119.5</ele><time>2026-03-24T09:37:46.368Z</time></trkpt><trkpt lat="46.6957003" lon="10.5376185"><ele>1117.75</ele><time>2026-03-24T09:37:47.362Z</time></trkpt><trkpt lat="46.6956066" lon="10.5377612"><ele>1116.0</ele><time>2026-03-24T09:37:48.359Z</time></trkpt><trkpt lat="46.6955141" lon="10.5379045"><ele>1115.25</ele><time>2026-03-24T09:37:49.362Z</time></trkpt><trkpt lat="46.6954212" lon="10.5380474"><ele>1114.5</ele><time>2026-03-24T09:37:50.366Z</time></trkpt><trkpt lat="46.695328" lon="10.5381915"><ele>1113.75</ele><time>2026-03-24T09:37:51.365Z</time></trkpt><trkpt lat="46.6952348" lon="10.5383359"><ele>1113.0</ele><time>2026-03-24T09:37:52.365Z</time></trkpt><trkpt lat="46.6951428" lon="10.5384777"><ele>1111.25</ele><time>2026-03-24T09:37:53.356Z</time></trkpt><trkpt lat="46.6950492" lon="10.5386239"><ele>1109.5</ele><time>2026-03-24T09:37:54.351Z</time></trkpt><trkpt lat="46.6949579" lon="10.5387673"><ele>1107.75</ele><time>2026-03-24T09:37:55.366Z</time></trkpt><trkpt lat="46.694866" lon="10.5389118"><ele>1106.0</ele><time>2026-03-24T09:37:56.37Z</time></trkpt><trkpt lat="46.6947714" lon="10.5390568"><ele>1106.0</ele><time>2026-03-24T09:37:57.366Z</time></trkpt><trkpt lat="46.6946751" lon="10.5391979"><ele>1106.0</ele><time>2026-03-24T09:37:58.371Z</time></trkpt><trkpt lat="46.694582" lon="10.5393398"><ele>1106.0</ele><time>2026-03-24T09:37:59.36Z</time></trkpt><trkpt lat="46.6944907" lon="10.5394782"><ele>1106.0</ele><time>2026-03-24T09:38:00.358Z</time></trkpt><trkpt lat="46.6943998" lon="10.5396172"><ele>1103.75</ele><time>2026-03-24T09:38:01.379Z</time></trkpt><trkpt lat="46.6943101" lon="10.539758"><ele>1101.5</ele><time>2026-03-24T09:38:02.362Z</time></trkpt><trkpt lat="46.6942184" lon="10.5399013"><ele>1099.25</ele><time>2026-03-24T09:38:03.375Z</time></trkpt><trkpt lat="46.6941254" lon="10.5400459"><ele>1097.0</ele><time>2026-03-24T09:38:04.372Z</time></trkpt><trkpt lat="46.6940328" lon="10.5401887"><ele>1097.0</ele><time>2026-03-24T09:38:05.374Z</time></trkpt><trkpt lat="46.6939368" lon="10.540332"><ele>1097.0</ele><time>2026-03-24T09:38:06.36Z</time></trkpt><trkpt lat="46.6938408" lon="10.5404773"><ele>1097.0</ele><time>2026-03-24T09:38:07.371Z</time></trkpt><trkpt lat="46.6937358" lon="10.5406092"><ele>1097.0</ele><time>2026-03-24T09:38:08.377Z</time></trkpt><trkpt lat="46.6936179" lon="10.5407132"><ele>1094.75</ele><time>2026-03-24T09:38:09.356Z</time></trkpt><trkpt lat="46.6934867" lon="10.5407849"><ele>1092.5</ele><time>2026-03-24T09:38:10.358Z</time></trkpt><trkpt lat="46.6933482" lon="10.540818"><ele>1090.25</ele><time>2026-03-24T09:38:11.362Z</time></trkpt><trkpt lat="46.6932057" lon="10.5408171"><ele>1088.0</ele><time>2026-03-24T09:38:12.362Z</time></trkpt><trkpt lat="46.6930665" lon="10.5407742"><ele>1088.0</ele><time>2026-03-24T09:38:13.371Z</time></trkpt><trkpt lat="46.692937" lon="10.540691"><ele>1088.0</ele><time>2026-03-24T09:38:14.38Z</time></trkpt><trkpt lat="46.6928202" lon="10.540582"><ele>1088.0</ele><time>2026-03-24T09:38:15.374Z</time></trkpt><trkpt lat="46.6927141" lon="10.5404553"><ele>1088.0</ele><time>2026-03-24T09:38:16.363Z</time></trkpt><trkpt lat="46.6926099" lon="10.5403268"><ele>1086.25</ele><time>2026-03-24T09:38:17.369Z</time></trkpt><trkpt lat="46.6925045" lon="10.5401999"><ele>1084.5</ele><time>2026-03-24T09:38:18.367Z</time></trkpt><trkpt lat="46.6924016" lon="10.5400722"><ele>1082.75</ele><time>2026-03-24T09:38:19.365Z</time></trkpt><trkpt lat="46.6922982" lon="10.5399442"><ele>1081.0</ele><time>2026-03-24T09:38:20.366Z</time></trkpt><trkpt lat="46.6921963" lon="10.539815"><ele>1081.0</ele><time>2026-03-24T09:38:21.37Z</time></trkpt><trkpt lat="46.6920934" lon="10.5396909"><ele>1081.0</ele><time>2026-03-24T09:38:22.37Z</time></trkpt><trkpt lat="46.6919933" lon="10.5395643"><ele>1081.0</ele><time>2026-03-24T09:38:23.371Z</time></trkpt><trkpt lat="46.6918925" lon="10.5394394"><ele>1081.0</ele><time>2026-03-24T09:38:24.364Z</time></trkpt><trkpt lat="46.6917927" lon="10.5393146"><ele>1079.25</ele><time>2026-03-24T09:38:25.372Z</time></trkpt><trkpt lat="46.6916926" lon="10.5391896"><ele>1077.5</ele><time>2026-03-24T09:38:26.37Z</time></trkpt><trkpt lat="46.6915941" lon="10.5390644"><ele>1075.75</ele><time>2026-03-24T09:38:27.358Z</time></trkpt><trkpt lat="46.691496" lon="10.5389397"><ele>1074.0</ele><time>2026-03-24T09:38:28.365Z</time></trkpt><trkpt lat="46.6913983" lon="10.5388151"><ele>1074.25</ele><time>2026-03-24T09:38:29.366Z</time></trkpt><trkpt lat="46.6913003" lon="10.5386909"><ele>1074.5</ele><time>2026-03-24T09:38:30.371Z</time></trkpt><trkpt lat="46.691203" lon="10.5385666"><ele>1074.75</ele><time>2026-03-24T09:38:31.364Z</time></trkpt><trkpt lat="46.6911054" lon="10.5384419"><ele>1075.0</ele><time>2026-03-24T09:38:32.366Z</time></trkpt><trkpt lat="46.691012" lon="10.5383217"><ele>1073.8</ele><time>2026-03-24T09:38:33.355Z</time></trkpt><trkpt lat="46.6909229" lon="10.5382073"><ele>1072.6</ele><time>2026-03-24T09:38:34.365Z</time></trkpt><trkpt lat="46.6908421" lon="10.5381021"><ele>1071.4</ele><time>2026-03-24T09:38:35.369Z</time></trkpt><trkpt lat="46.6907674" lon="10.5380183"><ele>1070.2</ele><time>2026-03-24T09:38:36.369Z</time></trkpt><trkpt lat="46.6906994" lon="10.5379367"><ele>1069.0</ele><time>2026-03-24T09:38:37.357Z</time></trkpt><trkpt lat="46.6906462" lon="10.5378665"><ele>1068.8</ele><time>2026-03-24T09:38:38.375Z</time></trkpt><trkpt lat="46.6905944" lon="10.5377918"><ele>1068.6000000000001</ele><time>2026-03-24T09:38:39.369Z</time></trkpt><trkpt lat="46.6905028" lon="10.5376978"><ele>1068.4</ele><time>2026-03-24T09:38:41.365Z</time></trkpt><trkpt lat="46.6904336" lon="10.5376151"><ele>1068.2</ele><time>2026-03-24T09:38:43.368Z</time></trkpt><trkpt lat="46.6904132" lon="10.5374824"><ele>1068.0</ele><time>2026-03-24T09:38:45.352Z</time></trkpt><trkpt lat="46.6904343" lon="10.5373516"><ele>1068.0</ele><time>2026-03-24T09:38:47.363Z</time></trkpt><trkpt lat="46.6904526" lon="10.5372215"><ele>1068.0</ele><time>2026-03-24T09:38:49.365Z</time></trkpt><trkpt lat="46.690471" lon="10.5371048"><ele>1068.0</ele><time>2026-03-24T09:38:51.366Z</time></trkpt><trkpt lat="46.6904849" lon="10.5369881"><ele>1068.0</ele><time>2026-03-24T09:38:53.367Z</time></trkpt><trkpt lat="46.6904957" lon="10.5368603"><ele>1068.0</ele><time>2026-03-24T09:38:55.366Z</time></trkpt><trkpt lat="46.6905054" lon="10.5367237"><ele>1068.0</ele><time>2026-03-24T09:38:57.358Z</time></trkpt><trkpt lat="46.6905209" lon="10.5365843"><ele>1067.8</ele><time>2026-03-24T09:38:59.369Z</time></trkpt><trkpt lat="46.6905404" lon="10.5364394"><ele>1067.6</ele><time>2026-03-24T09:39:01.364Z</time></trkpt><trkpt lat="46.6905566" lon="10.53629"><ele>1067.4</ele><time>2026-03-24T09:39:03.37Z</time></trkpt><trkpt lat="46.6905748" lon="10.5361405"><ele>1067.2</ele><time>2026-03-24T09:39:05.364Z</time></trkpt><trkpt lat="46.6905986" lon="10.5359874"><ele>1067.0</ele><time>2026-03-24T09:39:07.363Z</time></trkpt><trkpt lat="46.6906234" lon="10.5358324"><ele>1067.0</ele><time>2026-03-24T09:39:09.37Z</time></trkpt><trkpt lat="46.6906474" lon="10.5356749"><ele>1067.0</ele><time>2026-03-24T09:39:11.372Z</time></trkpt><trkpt lat="46.6906737" lon="10.535515"><ele>1067.0</ele><time>2026-03-24T09:39:13.358Z</time></trkpt><trkpt lat="46.6906956" lon="10.5353463"><ele>1067.0</ele><time>2026-03-24T09:39:15.365Z</time></trkpt><trkpt lat="46.6907179" lon="10.5351783"><ele>1067.0</ele><time>2026-03-24T09:39:17.368Z</time></trkpt><trkpt lat="46.6907397" lon="10.535014"><ele>1067.0</ele><time>2026-03-24T09:39:19.374Z</time></trkpt><trkpt lat="46.6907651" lon="10.5348477"><ele>1067.0</ele><time>2026-03-24T09:39:21.367Z</time></trkpt><trkpt lat="46.6907941" lon="10.5346832"><ele>1067.0</ele><time>2026-03-24T09:39:23.352Z</time></trkpt><trkpt lat="46.6908247" lon="10.5345196"><ele>1066.25</ele><time>2026-03-24T09:39:25.372Z</time></trkpt><trkpt lat="46.6908531" lon="10.5343535"><ele>1065.5</ele><time>2026-03-24T09:39:27.367Z</time></trkpt><trkpt lat="46.6908835" lon="10.5341876"><ele>1064.75</ele><time>2026-03-24T09:39:29.375Z</time></trkpt><trkpt lat="46.6909133" lon="10.5340173"><ele>1064.0</ele><time>2026-03-24T09:39:31.362Z</time></trkpt><trkpt lat="46.6909392" lon="10.5338418"><ele>1064.25</ele><time>2026-03-24T09:39:33.367Z</time></trkpt><trkpt lat="46.6909548" lon="10.5336647"><ele>1064.5</ele><time>2026-03-24T09:39:35.376Z</time></trkpt><trkpt lat="46.6909592" lon="10.5334883"><ele>1064.75</ele><time>2026-03-24T09:39:37.367Z</time></trkpt><trkpt lat="46.6909622" lon="10.5333035"><ele>1065.0</ele><time>2026-03-24T09:39:39.364Z</time></trkpt><trkpt lat="46.6909585" lon="10.5331222"><ele>1065.0</ele><time>2026-03-24T09:39:41.366Z</time></trkpt><trkpt lat="46.6909554" lon="10.5330287"><ele>1065.0</ele><time>2026-03-24T09:39:42.362Z</time></trkpt><trkpt lat="46.6909558" lon="10.5329349"><ele>1065.0</ele><time>2026-03-24T09:39:43.365Z</time></trkpt><trkpt lat="46.6909585" lon="10.5328413"><ele>1065.0</ele><time>2026-03-24T09:39:44.368Z</time></trkpt><trkpt lat="46.6909628" lon="10.5327468"><ele>1065.0</ele><time>2026-03-24T09:39:45.369Z</time></trkpt><trkpt lat="46.6909685" lon="10.5326519"><ele>1065.0</ele><time>2026-03-24T09:39:46.366Z</time></trkpt><trkpt lat="46.690976" lon="10.5325568"><ele>1065.0</ele><time>2026-03-24T09:39:47.371Z</time></trkpt><trkpt lat="46.6909831" lon="10.5324609"><ele>1064.857142857143</ele><time>2026-03-24T09:39:48.37Z</time></trkpt><trkpt lat="46.6909935" lon="10.5323641"><ele>1064.7142857142858</ele><time>2026-03-24T09:39:49.364Z</time></trkpt><trkpt lat="46.6910048" lon="10.5322657"><ele>1064.5714285714284</ele><time>2026-03-24T09:39:50.363Z</time></trkpt><trkpt lat="46.6910154" lon="10.5321667"><ele>1064.4285714285716</ele><time>2026-03-24T09:39:51.376Z</time></trkpt><trkpt lat="46.6910217" lon="10.5320668"><ele>1064.2857142857142</ele><time>2026-03-24T09:39:52.37Z</time></trkpt><trkpt lat="46.6910299" lon="10.5319681"><ele>1064.142857142857</ele><time>2026-03-24T09:39:53.374Z</time></trkpt><trkpt lat="46.6910391" lon="10.5318682"><ele>1064.0</ele><time>2026-03-24T09:39:54.356Z</time></trkpt><trkpt lat="46.6910481" lon="10.5317691"><ele>1063.7142857142858</ele><time>2026-03-24T09:39:55.372Z</time></trkpt><trkpt lat="46.6910575" lon="10.5316716"><ele>1063.4285714285716</ele><time>2026-03-24T09:39:56.377Z</time></trkpt><trkpt lat="46.6910665" lon="10.531573"><ele>1063.142857142857</ele><time>2026-03-24T09:39:57.372Z</time></trkpt><trkpt lat="46.6910761" lon="10.531474"><ele>1062.857142857143</ele><time>2026-03-24T09:39:58.362Z</time></trkpt><trkpt lat="46.6910871" lon="10.5313741"><ele>1062.5714285714287</ele><time>2026-03-24T09:39:59.368Z</time></trkpt><trkpt lat="46.6910982" lon="10.5312753"><ele>1062.2857142857142</ele><time>2026-03-24T09:40:00.365Z</time></trkpt><trkpt lat="46.6911085" lon="10.5311757"><ele>1062.0</ele><time>2026-03-24T09:40:01.367Z</time></trkpt><trkpt lat="46.6911199" lon="10.5310748"><ele>1062.5714285714287</ele><time>2026-03-24T09:40:02.366Z</time></trkpt><trkpt lat="46.6911327" lon="10.5309737"><ele>1063.1428571428573</ele><time>2026-03-24T09:40:03.363Z</time></trkpt><trkpt lat="46.6911461" lon="10.5308726"><ele>1063.7142857142858</ele><time>2026-03-24T09:40:04.374Z</time></trkpt><trkpt lat="46.6911613" lon="10.5307727"><ele>1064.2857142857142</ele><time>2026-03-24T09:40:05.378Z</time></trkpt><trkpt lat="46.6911764" lon="10.5306731"><ele>1064.8571428571427</ele><time>2026-03-24T09:40:06.37Z</time></trkpt><trkpt lat="46.6911899" lon="10.5305742"><ele>1065.4285714285713</ele><time>2026-03-24T09:40:07.366Z</time></trkpt><trkpt lat="46.6912049" lon="10.5304741"><ele>1066.0</ele><time>2026-03-24T09:40:08.367Z</time></trkpt><trkpt lat="46.6912203" lon="10.5303744"><ele>1066.0</ele><time>2026-03-24T09:40:09.369Z</time></trkpt><trkpt lat="46.6912359" lon="10.5302762"><ele>1066.0</ele><time>2026-03-24T09:40:10.368Z</time></trkpt><trkpt lat="46.6912526" lon="10.5301788"><ele>1066.0</ele><time>2026-03-24T09:40:11.372Z</time></trkpt><trkpt lat="46.691268" lon="10.5300817"><ele>1066.0</ele><time>2026-03-24T09:40:12.374Z</time></trkpt><trkpt lat="46.6912846" lon="10.5299846"><ele>1066.0</ele><time>2026-03-24T09:40:13.361Z</time></trkpt><trkpt lat="46.6913053" lon="10.5298895"><ele>1066.0</ele><time>2026-03-24T09:40:14.375Z</time></trkpt><trkpt lat="46.6913248" lon="10.5297956"><ele>1066.0</ele><time>2026-03-24T09:40:15.364Z</time></trkpt><trkpt lat="46.691343" lon="10.529702"><ele>1066.0</ele><time>2026-03-24T09:40:16.362Z</time></trkpt><trkpt lat="46.6913617" lon="10.5296091"><ele>1066.0</ele><time>2026-03-24T09:40:17.374Z</time></trkpt><trkpt lat="46.6913804" lon="10.5295163"><ele>1066.0</ele><time>2026-03-24T09:40:18.356Z</time></trkpt><trkpt lat="46.6914008" lon="10.5294249"><ele>1066.0</ele><time>2026-03-24T09:40:19.366Z</time></trkpt><trkpt lat="46.6914213" lon="10.529334"><ele>1066.0</ele><time>2026-03-24T09:40:20.37Z</time></trkpt><trkpt lat="46.6914406" lon="10.5292427"><ele>1066.0</ele><time>2026-03-24T09:40:21.37Z</time></trkpt><trkpt lat="46.6914602" lon="10.5291525"><ele>1066.0</ele><time>2026-03-24T09:40:22.361Z</time></trkpt><trkpt lat="46.6914798" lon="10.5290631"><ele>1066.3999999999999</ele><time>2026-03-24T09:40:23.361Z</time></trkpt><trkpt lat="46.6914998" lon="10.5289736"><ele>1066.8</ele><time>2026-03-24T09:40:24.37Z</time></trkpt><trkpt lat="46.6915366" lon="10.5287968"><ele>1067.1999999999998</ele><time>2026-03-24T09:40:26.37Z</time></trkpt><trkpt lat="46.6915551" lon="10.5287087"><ele>1067.6</ele><time>2026-03-24T09:40:27.363Z</time></trkpt><trkpt lat="46.6915919" lon="10.5285345"><ele>1068.0</ele><time>2026-03-24T09:40:29.362Z</time></trkpt><trkpt lat="46.6916238" lon="10.5283569"><ele>1068.0000000000002</ele><time>2026-03-24T09:40:31.356Z</time></trkpt><trkpt lat="46.6916365" lon="10.5282656"><ele>1068.0</ele><time>2026-03-24T09:40:32.368Z</time></trkpt><trkpt lat="46.6916474" lon="10.5281733"><ele>1068.0</ele><time>2026-03-24T09:40:33.366Z</time></trkpt><trkpt lat="46.6916566" lon="10.528081"><ele>1068.0</ele><time>2026-03-24T09:40:34.367Z</time></trkpt><trkpt lat="46.6916655" lon="10.5279877"><ele>1068.0</ele><time>2026-03-24T09:40:35.372Z</time></trkpt><trkpt lat="46.6916739" lon="10.5278943"><ele>1068.0000000000002</ele><time>2026-03-24T09:40:36.371Z</time></trkpt><trkpt lat="46.6916831" lon="10.5278027"><ele>1068.0</ele><time>2026-03-24T09:40:37.358Z</time></trkpt><trkpt lat="46.6916903" lon="10.5277081"><ele>1067.7142857142858</ele><time>2026-03-24T09:40:38.372Z</time></trkpt><trkpt lat="46.6916978" lon="10.5276139"><ele>1067.4285714285716</ele><time>2026-03-24T09:40:39.375Z</time></trkpt><trkpt lat="46.6917055" lon="10.5275216"><ele>1067.142857142857</ele><time>2026-03-24T09:40:40.36Z</time></trkpt><trkpt lat="46.6917143" lon="10.52743"><ele>1066.857142857143</ele><time>2026-03-24T09:40:41.372Z</time></trkpt><trkpt lat="46.6917234" lon="10.5273351"><ele>1066.5714285714284</ele><time>2026-03-24T09:40:42.364Z</time></trkpt><trkpt lat="46.6917331" lon="10.5272418"><ele>1066.2857142857142</ele><time>2026-03-24T09:40:43.366Z</time></trkpt><trkpt lat="46.6917448" lon="10.5271464"><ele>1066.0</ele><time>2026-03-24T09:40:44.367Z</time></trkpt><trkpt lat="46.6917567" lon="10.5270529"><ele>1065.875</ele><time>2026-03-24T09:40:45.359Z</time></trkpt><trkpt lat="46.6917723" lon="10.5269632"><ele>1065.75</ele><time>2026-03-24T09:40:46.377Z</time></trkpt><trkpt lat="46.6917896" lon="10.5268727"><ele>1065.625</ele><time>2026-03-24T09:40:47.365Z</time></trkpt><trkpt lat="46.6918074" lon="10.5267844"><ele>1065.5</ele><time>2026-03-24T09:40:48.369Z</time></trkpt><trkpt lat="46.6918236" lon="10.5266955"><ele>1065.375</ele><time>2026-03-24T09:40:49.367Z</time></trkpt><trkpt lat="46.6918429" lon="10.5266071"><ele>1065.25</ele><time>2026-03-24T09:40:50.364Z</time></trkpt><trkpt lat="46.691862" lon="10.5265189"><ele>1065.125</ele><time>2026-03-24T09:40:51.368Z</time></trkpt><trkpt lat="46.6918806" lon="10.5264305"><ele>1065.0</ele><time>2026-03-24T09:40:52.364Z</time></trkpt><trkpt lat="46.6919017" lon="10.5263425"><ele>1066.4</ele><time>2026-03-24T09:40:53.367Z</time></trkpt><trkpt lat="46.6919259" lon="10.5262566"><ele>1067.8</ele><time>2026-03-24T09:40:54.359Z</time></trkpt><trkpt lat="46.6919499" lon="10.5261711"><ele>1069.2</ele><time>2026-03-24T09:40:55.373Z</time></trkpt><trkpt lat="46.6919951" lon="10.5260012"><ele>1070.6</ele><time>2026-03-24T09:40:57.369Z</time></trkpt><trkpt lat="46.6920418" lon="10.5258307"><ele>1072.0</ele><time>2026-03-24T09:40:59.366Z</time></trkpt><trkpt lat="46.6921017" lon="10.5256702"><ele>1072.0</ele><time>2026-03-24T09:41:01.371Z</time></trkpt><trkpt lat="46.6921687" lon="10.5255191"><ele>1072.0</ele><time>2026-03-24T09:41:03.369Z</time></trkpt><trkpt lat="46.6922349" lon="10.5253714"><ele>1072.0</ele><time>2026-03-24T09:41:05.36Z</time></trkpt><trkpt lat="46.692291" lon="10.5252145"><ele>1072.0</ele><time>2026-03-24T09:41:07.367Z</time></trkpt><trkpt lat="46.6923308" lon="10.5250423"><ele>1071.8333333333333</ele><time>2026-03-24T09:41:09.376Z</time></trkpt><trkpt lat="46.6923455" lon="10.5249503"><ele>1071.6666666666665</ele><time>2026-03-24T09:41:10.372Z</time></trkpt><trkpt lat="46.6923517" lon="10.5248582"><ele>1071.5</ele><time>2026-03-24T09:41:11.377Z</time></trkpt><trkpt lat="46.692362" lon="10.5246775"><ele>1071.3333333333333</ele><time>2026-03-24T09:41:13.367Z</time></trkpt><trkpt lat="46.6923762" lon="10.5245005"><ele>1071.1666666666667</ele><time>2026-03-24T09:41:15.362Z</time></trkpt><trkpt lat="46.69239" lon="10.5244095"><ele>1071.0</ele><time>2026-03-24T09:41:16.37Z</time></trkpt><trkpt lat="46.6924169" lon="10.5242414"><ele>1070.3999999999999</ele><time>2026-03-24T09:41:18.37Z</time></trkpt><trkpt lat="46.6924366" lon="10.5240776"><ele>1069.8</ele><time>2026-03-24T09:41:20.365Z</time></trkpt><trkpt lat="46.6924541" lon="10.523924"><ele>1069.1999999999998</ele><time>2026-03-24T09:41:22.354Z</time></trkpt><trkpt lat="46.6924643" lon="10.523781"><ele>1068.6</ele><time>2026-03-24T09:41:24.359Z</time></trkpt><trkpt lat="46.6924703" lon="10.5236507"><ele>1068.0</ele><time>2026-03-24T09:41:26.363Z</time></trkpt><trkpt lat="46.6924684" lon="10.5235442"><ele>1067.5</ele><time>2026-03-24T09:41:28.36Z</time></trkpt><trkpt lat="46.6924623" lon="10.5234364"><ele>1067.0</ele><time>2026-03-24T09:41:31.369Z</time></trkpt><trkpt lat="46.6924694" lon="10.5233367"><ele>1066.5</ele><time>2026-03-24T09:41:35.373Z</time></trkpt><trkpt lat="46.6924541" lon="10.5234496"><ele>1066.0</ele><time>2026-03-24T09:41:50.359Z</time></trkpt><trkpt lat="46.6924878" lon="10.5235397"><ele>1065.5</ele><time>2026-03-24T09:41:56.364Z</time></trkpt><trkpt lat="46.6924813" lon="10.5234253"><ele>1065.0</ele><time>2026-03-24T09:42:04.373Z</time></trkpt><trkpt lat="46.6924863" lon="10.523284"><ele>1065.0</ele><time>2026-03-24T09:42:07.366Z</time></trkpt><trkpt lat="46.6925031" lon="10.5231659"><ele>1065.0</ele><time>2026-03-24T09:42:09.36Z</time></trkpt><trkpt lat="46.692519" lon="10.5230429"><ele>1065.0</ele><time>2026-03-24T09:42:11.368Z</time></trkpt><trkpt lat="46.6925256" lon="10.5228941"><ele>1065.0</ele><time>2026-03-24T09:42:13.369Z</time></trkpt><trkpt lat="46.6925369" lon="10.522727"><ele>1065.0</ele><time>2026-03-24T09:42:15.369Z</time></trkpt><trkpt lat="46.6925692" lon="10.5225666"><ele>1064.0</ele><time>2026-03-24T09:42:17.366Z</time></trkpt><trkpt lat="46.6926285" lon="10.5224293"><ele>1063.0</ele><time>2026-03-24T09:42:19.36Z</time></trkpt><trkpt lat="46.6927167" lon="10.5223382"><ele>1062.0</ele><time>2026-03-24T09:42:21.358Z</time></trkpt><trkpt lat="46.692824" lon="10.522258"><ele>1061.0</ele><time>2026-03-24T09:42:23.368Z</time></trkpt><trkpt lat="46.6928902" lon="10.5221239"><ele>1061.0</ele><time>2026-03-24T09:42:25.372Z</time></trkpt><trkpt lat="46.6929518" lon="10.5219924"><ele>1061.0</ele><time>2026-03-24T09:42:27.368Z</time></trkpt><trkpt lat="46.6929975" lon="10.5218667"><ele>1061.0</ele><time>2026-03-24T09:42:29.362Z</time></trkpt><trkpt lat="46.6930404" lon="10.5217444"><ele>1061.0</ele><time>2026-03-24T09:42:31.37Z</time></trkpt><trkpt lat="46.6930623" lon="10.5216189"><ele>1061.0</ele><time>2026-03-24T09:42:33.372Z</time></trkpt><trkpt lat="46.6930313" lon="10.5215232"><ele>1061.0</ele><time>2026-03-24T09:42:35.372Z</time></trkpt><trkpt lat="46.6929718" lon="10.5214105"><ele>1061.0</ele><time>2026-03-24T09:42:38.354Z</time></trkpt><trkpt lat="46.6929437" lon="10.5213042"><ele>1061.0</ele><time>2026-03-24T09:42:40.37Z</time></trkpt><trkpt lat="46.6929395" lon="10.5212008"><ele>1061.0</ele><time>2026-03-24T09:42:42.367Z</time></trkpt><trkpt lat="46.6929422" lon="10.5210979"><ele>1061.0</ele><time>2026-03-24T09:42:44.368Z</time></trkpt><trkpt lat="46.6929334" lon="10.5209743"><ele>1061.0</ele><time>2026-03-24T09:42:46.36Z</time></trkpt><trkpt lat="46.6929166" lon="10.5208519"><ele>1061.1666666666667</ele><time>2026-03-24T09:42:48.365Z</time></trkpt><trkpt lat="46.6928913" lon="10.520724"><ele>1061.3333333333335</ele><time>2026-03-24T09:42:50.367Z</time></trkpt><trkpt lat="46.6928737" lon="10.5206072"><ele>1061.5</ele><time>2026-03-24T09:42:52.368Z</time></trkpt><trkpt lat="46.6928567" lon="10.5205125"><ele>1061.6666666666667</ele><time>2026-03-24T09:43:56.356Z</time></trkpt><trkpt lat="46.6928456" lon="10.5204048"><ele>1061.8333333333333</ele><time>2026-03-24T09:44:00.373Z</time></trkpt><trkpt lat="46.6928267" lon="10.5202967"><ele>1062.0</ele><time>2026-03-24T09:44:04.368Z</time></trkpt><trkpt lat="46.6927624" lon="10.5202911"><ele>1063.2</ele><time>2026-03-24T09:44:07.373Z</time></trkpt><trkpt lat="46.6926933" lon="10.5203088"><ele>1064.4</ele><time>2026-03-24T09:44:09.359Z</time></trkpt><trkpt lat="46.692595" lon="10.520339"><ele>1065.6</ele><time>2026-03-24T09:44:11.365Z</time></trkpt><trkpt lat="46.6924946" lon="10.5203695"><ele>1066.8</ele><time>2026-03-24T09:44:13.361Z</time></trkpt><trkpt lat="46.6923855" lon="10.5204095"><ele>1068.0</ele><time>2026-03-24T09:44:15.36Z</time></trkpt><trkpt lat="46.6922699" lon="10.5204594"><ele>1067.1666666666667</ele><time>2026-03-24T09:44:17.371Z</time></trkpt><trkpt lat="46.6922118" lon="10.5204995"><ele>1066.3333333333333</ele><time>2026-03-24T09:44:18.369Z</time></trkpt><trkpt lat="46.69215" lon="10.5205448"><ele>1065.5</ele><time>2026-03-24T09:44:19.36Z</time></trkpt><trkpt lat="46.6920851" lon="10.5205977"><ele>1064.6666666666665</ele><time>2026-03-24T09:44:20.366Z</time></trkpt><trkpt lat="46.6920177" lon="10.5206624"><ele>1063.8333333333333</ele><time>2026-03-24T09:44:21.367Z</time></trkpt><trkpt lat="46.6919475" lon="10.5207316"><ele>1063.0</ele><time>2026-03-24T09:44:22.378Z</time></trkpt><trkpt lat="46.69188" lon="10.5208028"><ele>1063.0</ele><time>2026-03-24T09:44:23.358Z</time></trkpt><trkpt lat="46.6918161" lon="10.5208686"><ele>1063.0</ele><time>2026-03-24T09:44:24.362Z</time></trkpt><trkpt lat="46.6917529" lon="10.5209396"><ele>1063.0</ele><time>2026-03-24T09:44:25.359Z</time></trkpt><trkpt lat="46.6916944" lon="10.5210079"><ele>1063.0</ele><time>2026-03-24T09:44:26.372Z</time></trkpt><trkpt lat="46.6916336" lon="10.5210655"><ele>1063.0</ele><time>2026-03-24T09:44:27.371Z</time></trkpt><trkpt lat="46.6915737" lon="10.5211154"><ele>1063.0</ele><time>2026-03-24T09:44:28.371Z</time></trkpt><trkpt lat="46.6915112" lon="10.5212229"><ele>1060.4</ele><time>2026-03-24T09:44:30.363Z</time></trkpt><trkpt lat="46.6915334" lon="10.5213394"><ele>1057.8</ele><time>2026-03-24T09:44:32.37Z</time></trkpt><trkpt lat="46.6915821" lon="10.5214253"><ele>1055.2</ele><time>2026-03-24T09:44:34.374Z</time></trkpt><trkpt lat="46.6916232" lon="10.5215364"><ele>1052.6</ele><time>2026-03-24T09:44:36.371Z</time></trkpt><trkpt lat="46.6915536" lon="10.5216518"><ele>1050.0</ele><time>2026-03-24T09:44:38.377Z</time></trkpt><trkpt lat="46.6914521" lon="10.521719"><ele>1050.0</ele><time>2026-03-24T09:44:40.38Z</time></trkpt><trkpt lat="46.6913352" lon="10.5217885"><ele>1050.0</ele><time>2026-03-24T09:44:42.36Z</time></trkpt><trkpt lat="46.6912728" lon="10.5218254"><ele>1050.0</ele><time>2026-03-24T09:44:43.369Z</time></trkpt><trkpt lat="46.6912083" lon="10.5218675"><ele>1050.0</ele><time>2026-03-24T09:44:44.375Z</time></trkpt><trkpt lat="46.6911417" lon="10.521912"><ele>1050.0</ele><time>2026-03-24T09:44:45.368Z</time></trkpt><trkpt lat="46.6910729" lon="10.5219613"><ele>1050.0</ele><time>2026-03-24T09:44:46.376Z</time></trkpt><trkpt lat="46.6910063" lon="10.5220262"><ele>1049.0</ele><time>2026-03-24T09:44:47.369Z</time></trkpt><trkpt lat="46.6909376" lon="10.5220952"><ele>1048.0</ele><time>2026-03-24T09:44:48.373Z</time></trkpt><trkpt lat="46.6908774" lon="10.5221882"><ele>1047.0</ele><time>2026-03-24T09:44:49.365Z</time></trkpt><trkpt lat="46.6908149" lon="10.5222842"><ele>1046.0</ele><time>2026-03-24T09:44:50.371Z</time></trkpt><trkpt lat="46.6907472" lon="10.5223776"><ele>1045.0</ele><time>2026-03-24T09:44:51.369Z</time></trkpt><trkpt lat="46.6906727" lon="10.5224661"><ele>1045.0</ele><time>2026-03-24T09:44:52.372Z</time></trkpt><trkpt lat="46.6905925" lon="10.5225478"><ele>1045.0</ele><time>2026-03-24T09:44:53.363Z</time></trkpt><trkpt lat="46.6905084" lon="10.522622"><ele>1045.0</ele><time>2026-03-24T09:44:54.372Z</time></trkpt><trkpt lat="46.6904231" lon="10.5226922"><ele>1045.0</ele><time>2026-03-24T09:44:55.36Z</time></trkpt><trkpt lat="46.6903354" lon="10.5227613"><ele>1045.0</ele><time>2026-03-24T09:44:56.368Z</time></trkpt><trkpt lat="46.6902483" lon="10.5228327"><ele>1044.2</ele><time>2026-03-24T09:44:57.365Z</time></trkpt><trkpt lat="46.6901631" lon="10.5229075"><ele>1043.4</ele><time>2026-03-24T09:44:58.366Z</time></trkpt><trkpt lat="46.6900785" lon="10.5229867"><ele>1042.6</ele><time>2026-03-24T09:44:59.367Z</time></trkpt><trkpt lat="46.6899953" lon="10.5230684"><ele>1041.8</ele><time>2026-03-24T09:45:00.362Z</time></trkpt><trkpt lat="46.6899107" lon="10.5231508"><ele>1041.0</ele><time>2026-03-24T09:45:01.365Z</time></trkpt><trkpt lat="46.6898279" lon="10.5232338"><ele>1041.0</ele><time>2026-03-24T09:45:02.366Z</time></trkpt><trkpt lat="46.6897422" lon="10.5233135"><ele>1041.0</ele><time>2026-03-24T09:45:03.371Z</time></trkpt><trkpt lat="46.6896563" lon="10.5233925"><ele>1041.0</ele><time>2026-03-24T09:45:04.361Z</time></trkpt><trkpt lat="46.6895738" lon="10.5234732"><ele>1041.0</ele><time>2026-03-24T09:45:05.362Z</time></trkpt><trkpt lat="46.6894942" lon="10.5235561"><ele>1041.0</ele><time>2026-03-24T09:45:06.36Z</time></trkpt><trkpt lat="46.6894155" lon="10.5236381"><ele>1041.0</ele><time>2026-03-24T09:45:07.365Z</time></trkpt><trkpt lat="46.6893397" lon="10.5237207"><ele>1041.0</ele><time>2026-03-24T09:45:08.362Z</time></trkpt><trkpt lat="46.6892622" lon="10.5238024"><ele>1041.0</ele><time>2026-03-24T09:45:09.36Z</time></trkpt><trkpt lat="46.6891854" lon="10.5238865"><ele>1041.0</ele><time>2026-03-24T09:45:10.357Z</time></trkpt><trkpt lat="46.6891099" lon="10.5239731"><ele>1041.0</ele><time>2026-03-24T09:45:11.369Z</time></trkpt><trkpt lat="46.6890339" lon="10.5240604"><ele>1039.8</ele><time>2026-03-24T09:45:12.37Z</time></trkpt><trkpt lat="46.6889587" lon="10.5241494"><ele>1038.6</ele><time>2026-03-24T09:45:13.37Z</time></trkpt><trkpt lat="46.6888827" lon="10.5242369"><ele>1037.4</ele><time>2026-03-24T09:45:14.374Z</time></trkpt><trkpt lat="46.6888056" lon="10.5243219"><ele>1036.2</ele><time>2026-03-24T09:45:15.373Z</time></trkpt><trkpt lat="46.6887291" lon="10.5244058"><ele>1035.0</ele><time>2026-03-24T09:45:16.364Z</time></trkpt><trkpt lat="46.6886505" lon="10.5244886"><ele>1034.2</ele><time>2026-03-24T09:45:17.361Z</time></trkpt><trkpt lat="46.6885721" lon="10.5245714"><ele>1033.4</ele><time>2026-03-24T09:45:18.358Z</time></trkpt><trkpt lat="46.6884935" lon="10.524654"><ele>1032.6</ele><time>2026-03-24T09:45:19.371Z</time></trkpt><trkpt lat="46.6884128" lon="10.5247393"><ele>1031.8</ele><time>2026-03-24T09:45:20.36Z</time></trkpt><trkpt lat="46.6883341" lon="10.5248308"><ele>1031.0</ele><time>2026-03-24T09:45:21.356Z</time></trkpt><trkpt lat="46.688253" lon="10.5249198"><ele>1031.0</ele><time>2026-03-24T09:45:22.366Z</time></trkpt><trkpt lat="46.6881632" lon="10.5250072"><ele>1031.0</ele><time>2026-03-24T09:45:23.358Z</time></trkpt><trkpt lat="46.6880701" lon="10.525089"><ele>1031.0</ele><time>2026-03-24T09:45:24.363Z</time></trkpt><trkpt lat="46.6879796" lon="10.5251662"><ele>1031.0</ele><time>2026-03-24T09:45:25.37Z</time></trkpt><trkpt lat="46.6878848" lon="10.525259"><ele>1031.0</ele><time>2026-03-24T09:45:26.363Z</time></trkpt><trkpt lat="46.6877957" lon="10.5253659"><ele>1030.0</ele><time>2026-03-24T09:45:27.36Z</time></trkpt><trkpt lat="46.6877123" lon="10.525475"><ele>1029.0</ele><time>2026-03-24T09:45:28.373Z</time></trkpt><trkpt lat="46.6876301" lon="10.5255772"><ele>1028.0</ele><time>2026-03-24T09:45:29.367Z</time></trkpt><trkpt lat="46.6875446" lon="10.5256691"><ele>1027.0</ele><time>2026-03-24T09:45:30.365Z</time></trkpt><trkpt lat="46.6874631" lon="10.5257587"><ele>1026.0</ele><time>2026-03-24T09:45:31.363Z</time></trkpt><trkpt lat="46.6873848" lon="10.5258477"><ele>1026.0</ele><time>2026-03-24T09:45:32.367Z</time></trkpt><trkpt lat="46.687311" lon="10.5259297"><ele>1026.0</ele><time>2026-03-24T09:45:33.361Z</time></trkpt><trkpt lat="46.6872393" lon="10.5260059"><ele>1026.0</ele><time>2026-03-24T09:45:34.361Z</time></trkpt><trkpt lat="46.6871582" lon="10.5260656"><ele>1026.0</ele><time>2026-03-24T09:45:35.369Z</time></trkpt><trkpt lat="46.687075" lon="10.5261307"><ele>1026.0</ele><time>2026-03-24T09:45:36.361Z</time></trkpt><trkpt lat="46.6869911" lon="10.5261958"><ele>1024.8</ele><time>2026-03-24T09:45:37.365Z</time></trkpt><trkpt lat="46.686911" lon="10.5262804"><ele>1023.5999999999999</ele><time>2026-03-24T09:45:38.371Z</time></trkpt><trkpt lat="46.6868257" lon="10.5263695"><ele>1022.4</ele><time>2026-03-24T09:45:39.368Z</time></trkpt><trkpt lat="46.6867427" lon="10.5264552"><ele>1021.2</ele><time>2026-03-24T09:45:40.367Z</time></trkpt><trkpt lat="46.6866597" lon="10.5265427"><ele>1020.0</ele><time>2026-03-24T09:45:41.367Z</time></trkpt><trkpt lat="46.6865774" lon="10.5266394"><ele>1020.0</ele><time>2026-03-24T09:45:42.363Z</time></trkpt><trkpt lat="46.6864954" lon="10.5267364"><ele>1020.0</ele><time>2026-03-24T09:45:43.368Z</time></trkpt><trkpt lat="46.6864248" lon="10.5268422"><ele>1020.0</ele><time>2026-03-24T09:45:44.362Z</time></trkpt><trkpt lat="46.6863557" lon="10.5269513"><ele>1020.0</ele><time>2026-03-24T09:45:45.376Z</time></trkpt><trkpt lat="46.6862845" lon="10.5270526"><ele>1020.0</ele><time>2026-03-24T09:45:46.363Z</time></trkpt><trkpt lat="46.6862105" lon="10.5271394"><ele>1020.8</ele><time>2026-03-24T09:45:47.371Z</time></trkpt><trkpt lat="46.6861349" lon="10.5272055"><ele>1021.6</ele><time>2026-03-24T09:45:48.37Z</time></trkpt><trkpt lat="46.6860488" lon="10.5272414"><ele>1022.4000000000001</ele><time>2026-03-24T09:45:49.357Z</time></trkpt><trkpt lat="46.6859566" lon="10.5272687"><ele>1023.2</ele><time>2026-03-24T09:45:50.363Z</time></trkpt><trkpt lat="46.6858602" lon="10.5273026"><ele>1024.0</ele><time>2026-03-24T09:45:51.366Z</time></trkpt><trkpt lat="46.6857596" lon="10.5273432"><ele>1021.5</ele><time>2026-03-24T09:45:52.362Z</time></trkpt><trkpt lat="46.6856577" lon="10.5273934"><ele>1019.0</ele><time>2026-03-24T09:45:53.361Z</time></trkpt><trkpt lat="46.6855511" lon="10.5274463"><ele>1016.5</ele><time>2026-03-24T09:45:54.36Z</time></trkpt><trkpt lat="46.6854482" lon="10.5275281"><ele>1014.0</ele><time>2026-03-24T09:45:55.363Z</time></trkpt><trkpt lat="46.6853471" lon="10.5276169"><ele>1014.0</ele><time>2026-03-24T09:45:56.366Z</time></trkpt><trkpt lat="46.6852496" lon="10.5277153"><ele>1014.0</ele><time>2026-03-24T09:45:57.361Z</time></trkpt><trkpt lat="46.6851547" lon="10.5278186"><ele>1014.0</ele><time>2026-03-24T09:45:58.364Z</time></trkpt><trkpt lat="46.6850627" lon="10.5279299"><ele>1014.0</ele><time>2026-03-24T09:45:59.367Z</time></trkpt><trkpt lat="46.6849725" lon="10.5280449"><ele>1012.75</ele><time>2026-03-24T09:46:00.366Z</time></trkpt><trkpt lat="46.6848822" lon="10.5281461"><ele>1011.5</ele><time>2026-03-24T09:46:01.369Z</time></trkpt><trkpt lat="46.6847892" lon="10.5282306"><ele>1010.25</ele><time>2026-03-24T09:46:02.366Z</time></trkpt><trkpt lat="46.6846926" lon="10.5283149"><ele>1009.0</ele><time>2026-03-24T09:46:03.356Z</time></trkpt><trkpt lat="46.684594" lon="10.5283984"><ele>1009.0</ele><time>2026-03-24T09:46:04.363Z</time></trkpt><trkpt lat="46.6844966" lon="10.5284878"><ele>1009.0</ele><time>2026-03-24T09:46:05.37Z</time></trkpt><trkpt lat="46.6844012" lon="10.5285778"><ele>1009.0</ele><time>2026-03-24T09:46:06.366Z</time></trkpt><trkpt lat="46.6843036" lon="10.5286668"><ele>1009.0</ele><time>2026-03-24T09:46:07.36Z</time></trkpt><trkpt lat="46.684209" lon="10.5287483"><ele>1007.8000000000001</ele><time>2026-03-24T09:46:08.365Z</time></trkpt><trkpt lat="46.6841148" lon="10.5288283"><ele>1006.6000000000001</ele><time>2026-03-24T09:46:09.357Z</time></trkpt><trkpt lat="46.6840203" lon="10.528908"><ele>1005.4</ele><time>2026-03-24T09:46:10.361Z</time></trkpt><trkpt lat="46.6839355" lon="10.5289786"><ele>1004.2</ele><time>2026-03-24T09:46:11.369Z</time></trkpt><trkpt lat="46.6838572" lon="10.5290379"><ele>1003.0</ele><time>2026-03-24T09:46:12.357Z</time></trkpt><trkpt lat="46.6837781" lon="10.5290881"><ele>1003.0</ele><time>2026-03-24T09:46:13.359Z</time></trkpt><trkpt lat="46.6836948" lon="10.5291353"><ele>1003.0</ele><time>2026-03-24T09:46:14.358Z</time></trkpt><trkpt lat="46.6836099" lon="10.529182"><ele>1003.0</ele><time>2026-03-24T09:46:15.36Z</time></trkpt><trkpt lat="46.6835248" lon="10.5292276"><ele>1003.0</ele><time>2026-03-24T09:46:16.364Z</time></trkpt><trkpt lat="46.6834419" lon="10.5292762"><ele>1003.0</ele><time>2026-03-24T09:46:17.367Z</time></trkpt><trkpt lat="46.6833586" lon="10.5293289"><ele>1002.2</ele><time>2026-03-24T09:46:18.362Z</time></trkpt><trkpt lat="46.6832714" lon="10.5293807"><ele>1001.4</ele><time>2026-03-24T09:46:19.357Z</time></trkpt><trkpt lat="46.6831851" lon="10.5294351"><ele>1000.6000000000001</ele><time>2026-03-24T09:46:20.356Z</time></trkpt><trkpt lat="46.6830969" lon="10.529487"><ele>999.8000000000001</ele><time>2026-03-24T09:46:21.363Z</time></trkpt><trkpt lat="46.6830071" lon="10.5295391"><ele>999.0</ele><time>2026-03-24T09:46:22.366Z</time></trkpt><trkpt lat="46.6829192" lon="10.5295973"><ele>998.8000000000001</ele><time>2026-03-24T09:46:23.369Z</time></trkpt><trkpt lat="46.6828278" lon="10.5296607"><ele>998.6000000000001</ele><time>2026-03-24T09:46:24.368Z</time></trkpt><trkpt lat="46.6827349" lon="10.5297261"><ele>998.4</ele><time>2026-03-24T09:46:25.368Z</time></trkpt><trkpt lat="46.682642" lon="10.5297881"><ele>998.2</ele><time>2026-03-24T09:46:26.373Z</time></trkpt><trkpt lat="46.6825488" lon="10.5298499"><ele>998.0</ele><time>2026-03-24T09:46:27.377Z</time></trkpt><trkpt lat="46.6824549" lon="10.5299049"><ele>995.8</ele><time>2026-03-24T09:46:28.37Z</time></trkpt><trkpt lat="46.6823543" lon="10.5299501"><ele>993.5999999999999</ele><time>2026-03-24T09:46:29.373Z</time></trkpt><trkpt lat="46.6822557" lon="10.5300038"><ele>991.4000000000001</ele><time>2026-03-24T09:46:30.364Z</time></trkpt><trkpt lat="46.6821598" lon="10.5300706"><ele>989.2</ele><time>2026-03-24T09:46:31.367Z</time></trkpt><trkpt lat="46.6820641" lon="10.5301448"><ele>987.0</ele><time>2026-03-24T09:46:32.363Z</time></trkpt><trkpt lat="46.6819741" lon="10.5302235"><ele>986.8</ele><time>2026-03-24T09:46:33.367Z</time></trkpt><trkpt lat="46.6818826" lon="10.5303024"><ele>986.6</ele><time>2026-03-24T09:46:34.376Z</time></trkpt><trkpt lat="46.6817853" lon="10.5303616"><ele>986.3999999999999</ele><time>2026-03-24T09:46:35.362Z</time></trkpt><trkpt lat="46.6816836" lon="10.5304082"><ele>986.1999999999999</ele><time>2026-03-24T09:46:36.369Z</time></trkpt><trkpt lat="46.6815819" lon="10.530454"><ele>986.0</ele><time>2026-03-24T09:46:37.372Z</time></trkpt><trkpt lat="46.6814826" lon="10.5305207"><ele>986.0</ele><time>2026-03-24T09:46:38.367Z</time></trkpt><trkpt lat="46.6813908" lon="10.5305965"><ele>985.9999999999999</ele><time>2026-03-24T09:46:39.365Z</time></trkpt><trkpt lat="46.6812969" lon="10.5306742"><ele>985.9999999999999</ele><time>2026-03-24T09:46:40.363Z</time></trkpt><trkpt lat="46.6812036" lon="10.5307532"><ele>986.0</ele><time>2026-03-24T09:46:41.364Z</time></trkpt><trkpt lat="46.6811099" lon="10.5308257"><ele>986.0</ele><time>2026-03-24T09:46:42.356Z</time></trkpt><trkpt lat="46.6810109" lon="10.5308898"><ele>984.8</ele><time>2026-03-24T09:46:43.366Z</time></trkpt><trkpt lat="46.6809106" lon="10.5309463"><ele>983.5999999999999</ele><time>2026-03-24T09:46:44.366Z</time></trkpt><trkpt lat="46.6808123" lon="10.5310018"><ele>982.4</ele><time>2026-03-24T09:46:45.362Z</time></trkpt><trkpt lat="46.6807168" lon="10.5310512"><ele>981.2</ele><time>2026-03-24T09:46:46.362Z</time></trkpt><trkpt lat="46.6806246" lon="10.5311091"><ele>980.0</ele><time>2026-03-24T09:46:47.368Z</time></trkpt><trkpt lat="46.6805363" lon="10.5311728"><ele>980.6</ele><time>2026-03-24T09:46:48.367Z</time></trkpt><trkpt lat="46.6804564" lon="10.5312397"><ele>981.2</ele><time>2026-03-24T09:46:49.362Z</time></trkpt><trkpt lat="46.6803779" lon="10.5313026"><ele>981.8</ele><time>2026-03-24T09:46:50.364Z</time></trkpt><trkpt lat="46.6803061" lon="10.531376"><ele>982.4</ele><time>2026-03-24T09:46:51.355Z</time></trkpt><trkpt lat="46.6802294" lon="10.5314456"><ele>983.0</ele><time>2026-03-24T09:46:52.366Z</time></trkpt><trkpt lat="46.6801439" lon="10.5314961"><ele>981.8</ele><time>2026-03-24T09:46:53.364Z</time></trkpt><trkpt lat="46.6800536" lon="10.5315363"><ele>980.5999999999999</ele><time>2026-03-24T09:46:54.373Z</time></trkpt><trkpt lat="46.6799637" lon="10.531577"><ele>979.4000000000001</ele><time>2026-03-24T09:46:55.366Z</time></trkpt><trkpt lat="46.6798823" lon="10.5316222"><ele>978.2</ele><time>2026-03-24T09:46:56.367Z</time></trkpt><trkpt lat="46.6798113" lon="10.5316632"><ele>977.0</ele><time>2026-03-24T09:46:57.361Z</time></trkpt><trkpt lat="46.679727" lon="10.5317364"><ele>977.0</ele><time>2026-03-24T09:46:59.367Z</time></trkpt><trkpt lat="46.6796667" lon="10.5317986"><ele>977.0</ele><time>2026-03-24T09:47:02.364Z</time></trkpt><trkpt lat="46.6796015" lon="10.531852"><ele>977.0</ele><time>2026-03-24T09:47:05.363Z</time></trkpt><trkpt lat="46.6795394" lon="10.5319127"><ele>977.0</ele><time>2026-03-24T09:47:07.359Z</time></trkpt><trkpt lat="46.67945" lon="10.5320101"><ele>977.0</ele><time>2026-03-24T09:47:09.362Z</time></trkpt><trkpt lat="46.6793485" lon="10.5321117"><ele>976.4000000000001</ele><time>2026-03-24T09:47:11.364Z</time></trkpt><trkpt lat="46.6792534" lon="10.5322209"><ele>975.8000000000001</ele><time>2026-03-24T09:47:13.371Z</time></trkpt><trkpt lat="46.679202" lon="10.5322743"><ele>975.2</ele><time>2026-03-24T09:47:14.373Z</time></trkpt><trkpt lat="46.6791037" lon="10.5323911"><ele>974.6</ele><time>2026-03-24T09:47:16.366Z</time></trkpt><trkpt lat="46.6790517" lon="10.5324584"><ele>974.0</ele><time>2026-03-24T09:47:17.362Z</time></trkpt><trkpt lat="46.6789997" lon="10.5325273"><ele>974.0000000000001</ele><time>2026-03-24T09:47:18.361Z</time></trkpt><trkpt lat="46.6789474" lon="10.532602"><ele>974.0</ele><time>2026-03-24T09:47:19.375Z</time></trkpt><trkpt lat="46.6788898" lon="10.5326811"><ele>974.0</ele><time>2026-03-24T09:47:20.369Z</time></trkpt><trkpt lat="46.6788277" lon="10.5327623"><ele>974.0</ele><time>2026-03-24T09:47:21.374Z</time></trkpt><trkpt lat="46.6787618" lon="10.5328431"><ele>974.0000000000001</ele><time>2026-03-24T09:47:22.363Z</time></trkpt><trkpt lat="46.6786941" lon="10.5329239"><ele>974.0</ele><time>2026-03-24T09:47:23.372Z</time></trkpt><trkpt lat="46.6786232" lon="10.5330028"><ele>972.4000000000001</ele><time>2026-03-24T09:47:24.366Z</time></trkpt><trkpt lat="46.6785516" lon="10.5330848"><ele>970.8000000000001</ele><time>2026-03-24T09:47:25.371Z</time></trkpt><trkpt lat="46.6784836" lon="10.533171"><ele>969.1999999999999</ele><time>2026-03-24T09:47:26.37Z</time></trkpt><trkpt lat="46.6784176" lon="10.5332615"><ele>967.5999999999999</ele><time>2026-03-24T09:47:27.376Z</time></trkpt><trkpt lat="46.6783531" lon="10.533353"><ele>966.0</ele><time>2026-03-24T09:47:28.372Z</time></trkpt><trkpt lat="46.6782885" lon="10.5334412"><ele>966.0</ele><time>2026-03-24T09:47:29.366Z</time></trkpt><trkpt lat="46.6782256" lon="10.5335318"><ele>965.9999999999999</ele><time>2026-03-24T09:47:30.365Z</time></trkpt><trkpt lat="46.6781637" lon="10.533626"><ele>965.9999999999999</ele><time>2026-03-24T09:47:31.363Z</time></trkpt><trkpt lat="46.6781042" lon="10.5337215"><ele>966.0</ele><time>2026-03-24T09:47:32.364Z</time></trkpt><trkpt lat="46.6780438" lon="10.5338196"><ele>966.0</ele><time>2026-03-24T09:47:33.36Z</time></trkpt><trkpt lat="46.6779821" lon="10.5339211"><ele>966.1999999999999</ele><time>2026-03-24T09:47:34.366Z</time></trkpt><trkpt lat="46.6779194" lon="10.5340259"><ele>966.3999999999999</ele><time>2026-03-24T09:47:35.372Z</time></trkpt><trkpt lat="46.6778573" lon="10.5341296"><ele>966.6</ele><time>2026-03-24T09:47:36.368Z</time></trkpt><trkpt lat="46.6777936" lon="10.5342335"><ele>966.8</ele><time>2026-03-24T09:47:37.37Z</time></trkpt><trkpt lat="46.6777253" lon="10.5343343"><ele>967.0</ele><time>2026-03-24T09:47:38.375Z</time></trkpt><trkpt lat="46.6776607" lon="10.5344344"><ele>965.4000000000001</ele><time>2026-03-24T09:47:39.368Z</time></trkpt><trkpt lat="46.6775966" lon="10.5345334"><ele>963.8000000000001</ele><time>2026-03-24T09:47:40.367Z</time></trkpt><trkpt lat="46.6775301" lon="10.5346285"><ele>962.2</ele><time>2026-03-24T09:47:41.36Z</time></trkpt><trkpt lat="46.677457" lon="10.5347188"><ele>960.6</ele><time>2026-03-24T09:47:42.37Z</time></trkpt><trkpt lat="46.6773832" lon="10.5348064"><ele>959.0</ele><time>2026-03-24T09:47:43.37Z</time></trkpt><trkpt lat="46.6773111" lon="10.5348963"><ele>959.0</ele><time>2026-03-24T09:47:44.365Z</time></trkpt><trkpt lat="46.6772385" lon="10.5349877"><ele>959.0000000000001</ele><time>2026-03-24T09:47:45.378Z</time></trkpt><trkpt lat="46.6771799" lon="10.535089"><ele>959.0000000000001</ele><time>2026-03-24T09:47:46.362Z</time></trkpt><trkpt lat="46.6771288" lon="10.5351916"><ele>959.0</ele><time>2026-03-24T09:47:47.373Z</time></trkpt><trkpt lat="46.677073" lon="10.5352891"><ele>959.0</ele><time>2026-03-24T09:47:48.37Z</time></trkpt><trkpt lat="46.6770149" lon="10.5353881"><ele>959.8000000000001</ele><time>2026-03-24T09:47:49.37Z</time></trkpt><trkpt lat="46.6769526" lon="10.5354925"><ele>960.6000000000001</ele><time>2026-03-24T09:47:50.365Z</time></trkpt><trkpt lat="46.6768934" lon="10.5355966"><ele>961.4</ele><time>2026-03-24T09:47:51.364Z</time></trkpt><trkpt lat="46.6768309" lon="10.5356962"><ele>962.2</ele><time>2026-03-24T09:47:52.375Z</time></trkpt><trkpt lat="46.6767646" lon="10.5357855"><ele>963.0</ele><time>2026-03-24T09:47:53.365Z</time></trkpt><trkpt lat="46.6766931" lon="10.5358692"><ele>961.8333333333334</ele><time>2026-03-24T09:47:54.371Z</time></trkpt><trkpt lat="46.6766256" lon="10.5359588"><ele>960.6666666666667</ele><time>2026-03-24T09:47:55.369Z</time></trkpt><trkpt lat="46.6765566" lon="10.5360466"><ele>959.5</ele><time>2026-03-24T09:47:56.367Z</time></trkpt><trkpt lat="46.6764953" lon="10.5361391"><ele>958.3333333333334</ele><time>2026-03-24T09:47:57.359Z</time></trkpt><trkpt lat="46.6764374" lon="10.5362366"><ele>957.1666666666667</ele><time>2026-03-24T09:47:58.363Z</time></trkpt><trkpt lat="46.6763814" lon="10.5363389"><ele>956.0</ele><time>2026-03-24T09:47:59.366Z</time></trkpt><trkpt lat="46.6763264" lon="10.536442"><ele>956.0</ele><time>2026-03-24T09:48:00.371Z</time></trkpt><trkpt lat="46.6762696" lon="10.5365462"><ele>955.9999999999999</ele><time>2026-03-24T09:48:01.363Z</time></trkpt><trkpt lat="46.676211" lon="10.5366512"><ele>955.9999999999999</ele><time>2026-03-24T09:48:02.365Z</time></trkpt><trkpt lat="46.6761467" lon="10.5367527"><ele>956.0</ele><time>2026-03-24T09:48:03.362Z</time></trkpt><trkpt lat="46.6760771" lon="10.5368512"><ele>956.0</ele><time>2026-03-24T09:48:04.36Z</time></trkpt><trkpt lat="46.676003" lon="10.5369455"><ele>955.0</ele><time>2026-03-24T09:48:05.362Z</time></trkpt><trkpt lat="46.6759264" lon="10.5370375"><ele>953.9999999999999</ele><time>2026-03-24T09:48:06.365Z</time></trkpt><trkpt lat="46.6758463" lon="10.5371276"><ele>952.9999999999999</ele><time>2026-03-24T09:48:07.37Z</time></trkpt><trkpt lat="46.6757666" lon="10.5372189"><ele>952.0</ele><time>2026-03-24T09:48:08.364Z</time></trkpt><trkpt lat="46.6756909" lon="10.5373166"><ele>951.0</ele><time>2026-03-24T09:48:09.352Z</time></trkpt><trkpt lat="46.6756192" lon="10.5374208"><ele>951.0</ele><time>2026-03-24T09:48:10.371Z</time></trkpt><trkpt lat="46.6755508" lon="10.5375276"><ele>950.9999999999999</ele><time>2026-03-24T09:48:11.366Z</time></trkpt><trkpt lat="46.6754854" lon="10.537636"><ele>950.9999999999999</ele><time>2026-03-24T09:48:12.362Z</time></trkpt><trkpt lat="46.6754206" lon="10.5377464"><ele>951.0</ele><time>2026-03-24T09:48:13.362Z</time></trkpt><trkpt lat="46.6753554" lon="10.5378555"><ele>951.0</ele><time>2026-03-24T09:48:14.376Z</time></trkpt><trkpt lat="46.6752881" lon="10.5379645"><ele>949.5999999999999</ele><time>2026-03-24T09:48:15.365Z</time></trkpt><trkpt lat="46.6752219" lon="10.5380735"><ele>948.1999999999999</ele><time>2026-03-24T09:48:16.367Z</time></trkpt><trkpt lat="46.6751547" lon="10.5381819"><ele>946.8000000000001</ele><time>2026-03-24T09:48:17.363Z</time></trkpt><trkpt lat="46.675087" lon="10.5382898"><ele>945.4000000000001</ele><time>2026-03-24T09:48:18.366Z</time></trkpt><trkpt lat="46.6750196" lon="10.5383991"><ele>944.0</ele><time>2026-03-24T09:48:19.369Z</time></trkpt><trkpt lat="46.6749521" lon="10.5385096"><ele>944.0</ele><time>2026-03-24T09:48:20.37Z</time></trkpt><trkpt lat="46.6748823" lon="10.5386177"><ele>944.0000000000001</ele><time>2026-03-24T09:48:21.362Z</time></trkpt><trkpt lat="46.6748144" lon="10.5387293"><ele>944.0000000000001</ele><time>2026-03-24T09:48:22.377Z</time></trkpt><trkpt lat="46.6747454" lon="10.5388436"><ele>944.0</ele><time>2026-03-24T09:48:23.36Z</time></trkpt><trkpt lat="46.6746756" lon="10.5389587"><ele>944.0</ele><time>2026-03-24T09:48:24.363Z</time></trkpt><trkpt lat="46.6746049" lon="10.5390748"><ele>944.0</ele><time>2026-03-24T09:48:25.374Z</time></trkpt><trkpt lat="46.6745303" lon="10.5391916"><ele>944.0000000000001</ele><time>2026-03-24T09:48:26.359Z</time></trkpt><trkpt lat="46.6744556" lon="10.5393096"><ele>944.0000000000001</ele><time>2026-03-24T09:48:27.363Z</time></trkpt><trkpt lat="46.6743794" lon="10.5394268"><ele>944.0</ele><time>2026-03-24T09:48:28.364Z</time></trkpt><trkpt lat="46.6743012" lon="10.5395387"><ele>944.0</ele><time>2026-03-24T09:48:29.361Z</time></trkpt><trkpt lat="46.6742249" lon="10.5396478"><ele>943.0</ele><time>2026-03-24T09:48:30.358Z</time></trkpt><trkpt lat="46.6741505" lon="10.5397547"><ele>942.0000000000001</ele><time>2026-03-24T09:48:31.367Z</time></trkpt><trkpt lat="46.6740793" lon="10.539864"><ele>941.0000000000001</ele><time>2026-03-24T09:48:32.365Z</time></trkpt><trkpt lat="46.6740069" lon="10.5399721"><ele>940.0</ele><time>2026-03-24T09:48:33.367Z</time></trkpt><trkpt lat="46.6739317" lon="10.5400783"><ele>939.0</ele><time>2026-03-24T09:48:34.373Z</time></trkpt><trkpt lat="46.6738648" lon="10.5401908"><ele>939.0</ele><time>2026-03-24T09:48:35.364Z</time></trkpt><trkpt lat="46.6738152" lon="10.5403163"><ele>939.0000000000001</ele><time>2026-03-24T09:48:36.364Z</time></trkpt><trkpt lat="46.6737803" lon="10.5404461"><ele>939.0000000000001</ele><time>2026-03-24T09:48:37.357Z</time></trkpt><trkpt lat="46.6737485" lon="10.5405748"><ele>939.0</ele><time>2026-03-24T09:48:38.368Z</time></trkpt><trkpt lat="46.6737098" lon="10.5406977"><ele>939.0</ele><time>2026-03-24T09:48:39.368Z</time></trkpt><trkpt lat="46.6736688" lon="10.5408155"><ele>938.6666666666666</ele><time>2026-03-24T09:48:40.363Z</time></trkpt><trkpt lat="46.673625" lon="10.5409288"><ele>938.3333333333333</ele><time>2026-03-24T09:48:41.372Z</time></trkpt><trkpt lat="46.6735827" lon="10.5410374"><ele>938.0</ele><time>2026-03-24T09:48:42.366Z</time></trkpt><trkpt lat="46.6735423" lon="10.5411426"><ele>937.6666666666666</ele><time>2026-03-24T09:48:43.362Z</time></trkpt><trkpt lat="46.6735134" lon="10.5412574"><ele>937.3333333333333</ele><time>2026-03-24T09:48:44.36Z</time></trkpt><trkpt lat="46.6734823" lon="10.5413819"><ele>937.0</ele><time>2026-03-24T09:48:45.364Z</time></trkpt><trkpt lat="46.6734535" lon="10.5414966"><ele>936.8571428571429</ele><time>2026-03-24T09:48:46.359Z</time></trkpt><trkpt lat="46.6734229" lon="10.5415971"><ele>936.7142857142858</ele><time>2026-03-24T09:48:47.36Z</time></trkpt><trkpt lat="46.6733988" lon="10.5416855"><ele>936.5714285714287</ele><time>2026-03-24T09:48:48.361Z</time></trkpt><trkpt lat="46.6733596" lon="10.5418119"><ele>936.4285714285714</ele><time>2026-03-24T09:48:50.363Z</time></trkpt><trkpt lat="46.6733288" lon="10.5419109"><ele>936.2857142857144</ele><time>2026-03-24T09:48:52.363Z</time></trkpt><trkpt lat="46.6733244" lon="10.542019"><ele>936.1428571428572</ele><time>2026-03-24T09:49:01.382Z</time></trkpt><trkpt lat="46.6733084" lon="10.5421084"><ele>936.0</ele><time>2026-03-24T09:49:04.364Z</time></trkpt><trkpt lat="46.673273" lon="10.5421937"><ele>936.0</ele><time>2026-03-24T09:49:07.37Z</time></trkpt><trkpt lat="46.6732326" lon="10.5422687"><ele>936.0</ele><time>2026-03-24T09:49:15.365Z</time></trkpt><trkpt lat="46.6731851" lon="10.5423334"><ele>936.0</ele><time>2026-03-24T09:49:17.362Z</time></trkpt><trkpt lat="46.6731508" lon="10.5424175"><ele>936.0</ele><time>2026-03-24T09:49:19.356Z</time></trkpt><trkpt lat="46.6731152" lon="10.5425427"><ele>936.0</ele><time>2026-03-24T09:49:22.363Z</time></trkpt><trkpt lat="46.6730598" lon="10.54266"><ele>936.0</ele><time>2026-03-24T09:49:24.362Z</time></trkpt><trkpt lat="46.6730007" lon="10.5427019"><ele>936.0</ele><time>2026-03-24T09:49:25.357Z</time></trkpt><trkpt lat="46.6728935" lon="10.542784"><ele>935.9999999999999</ele><time>2026-03-24T09:49:27.367Z</time></trkpt><trkpt lat="46.6727753" lon="10.5428667"><ele>935.9999999999999</ele><time>2026-03-24T09:49:29.36Z</time></trkpt><trkpt lat="46.6727148" lon="10.5429132"><ele>936.0</ele><time>2026-03-24T09:49:30.36Z</time></trkpt><trkpt lat="46.6726432" lon="10.5429626"><ele>936.0</ele><time>2026-03-24T09:49:31.367Z</time></trkpt><trkpt lat="46.6725735" lon="10.5430137"><ele>935.3333333333334</ele><time>2026-03-24T09:49:32.367Z</time></trkpt><trkpt lat="46.6725066" lon="10.5430687"><ele>934.6666666666667</ele><time>2026-03-24T09:49:33.371Z</time></trkpt><trkpt lat="46.6724389" lon="10.5431257"><ele>934.0</ele><time>2026-03-24T09:49:34.363Z</time></trkpt><trkpt lat="46.6723642" lon="10.5431772"><ele>933.3333333333334</ele><time>2026-03-24T09:49:35.367Z</time></trkpt><trkpt lat="46.6722938" lon="10.5432313"><ele>932.6666666666667</ele><time>2026-03-24T09:49:36.372Z</time></trkpt><trkpt lat="46.6722219" lon="10.5432754"><ele>932.0</ele><time>2026-03-24T09:49:37.364Z</time></trkpt><trkpt lat="46.6721508" lon="10.5433177"><ele>932.0000000000001</ele><time>2026-03-24T09:49:38.356Z</time></trkpt><trkpt lat="46.6720818" lon="10.5433662"><ele>932.0</ele><time>2026-03-24T09:49:39.355Z</time></trkpt><trkpt lat="46.67201" lon="10.5434127"><ele>932.0</ele><time>2026-03-24T09:49:40.359Z</time></trkpt><trkpt lat="46.6719363" lon="10.5434627"><ele>932.0</ele><time>2026-03-24T09:49:41.365Z</time></trkpt><trkpt lat="46.6718634" lon="10.5435155"><ele>932.0000000000001</ele><time>2026-03-24T09:49:42.355Z</time></trkpt><trkpt lat="46.6717876" lon="10.5435663"><ele>932.0</ele><time>2026-03-24T09:49:43.367Z</time></trkpt><trkpt lat="46.6717147" lon="10.5436177"><ele>931.3333333333334</ele><time>2026-03-24T09:49:44.365Z</time></trkpt><trkpt lat="46.6716415" lon="10.5436743"><ele>930.6666666666667</ele><time>2026-03-24T09:49:45.372Z</time></trkpt><trkpt lat="46.6715715" lon="10.5437414"><ele>930.0</ele><time>2026-03-24T09:49:46.363Z</time></trkpt><trkpt lat="46.6715067" lon="10.54382"><ele>929.3333333333333</ele><time>2026-03-24T09:49:47.369Z</time></trkpt><trkpt lat="46.6714437" lon="10.5439047"><ele>928.6666666666666</ele><time>2026-03-24T09:49:48.355Z</time></trkpt><trkpt lat="46.6713824" lon="10.543992"><ele>928.0</ele><time>2026-03-24T09:49:49.367Z</time></trkpt><trkpt lat="46.6713212" lon="10.544085"><ele>927.8333333333333</ele><time>2026-03-24T09:49:50.372Z</time></trkpt><trkpt lat="46.6712621" lon="10.5441804"><ele>927.6666666666666</ele><time>2026-03-24T09:49:51.365Z</time></trkpt><trkpt lat="46.6712034" lon="10.5442748"><ele>927.5</ele><time>2026-03-24T09:49:52.366Z</time></trkpt><trkpt lat="46.671148" lon="10.5443713"><ele>927.3333333333333</ele><time>2026-03-24T09:49:53.364Z</time></trkpt><trkpt lat="46.6710945" lon="10.5444604"><ele>927.1666666666666</ele><time>2026-03-24T09:49:54.367Z</time></trkpt><trkpt lat="46.6710411" lon="10.5445459"><ele>927.0</ele><time>2026-03-24T09:49:55.373Z</time></trkpt><trkpt lat="46.6709827" lon="10.5446283"><ele>926.3333333333334</ele><time>2026-03-24T09:49:56.368Z</time></trkpt><trkpt lat="46.6709269" lon="10.5447139"><ele>925.6666666666667</ele><time>2026-03-24T09:49:57.368Z</time></trkpt><trkpt lat="46.6708758" lon="10.5448037"><ele>925.0</ele><time>2026-03-24T09:49:58.369Z</time></trkpt><trkpt lat="46.6708319" lon="10.5449003"><ele>924.3333333333334</ele><time>2026-03-24T09:49:59.356Z</time></trkpt><trkpt lat="46.6707931" lon="10.545003"><ele>923.6666666666667</ele><time>2026-03-24T09:50:00.369Z</time></trkpt><trkpt lat="46.6707582" lon="10.5451099"><ele>923.0</ele><time>2026-03-24T09:50:01.37Z</time></trkpt><trkpt lat="46.6707199" lon="10.5452127"><ele>923.0000000000001</ele><time>2026-03-24T09:50:02.369Z</time></trkpt><trkpt lat="46.6706908" lon="10.5453237"><ele>923.0</ele><time>2026-03-24T09:50:03.368Z</time></trkpt><trkpt lat="46.6706629" lon="10.5454349"><ele>923.0</ele><time>2026-03-24T09:50:04.359Z</time></trkpt><trkpt lat="46.670634" lon="10.5455471"><ele>923.0</ele><time>2026-03-24T09:50:05.367Z</time></trkpt><trkpt lat="46.6706043" lon="10.5456601"><ele>923.0000000000001</ele><time>2026-03-24T09:50:06.37Z</time></trkpt><trkpt lat="46.6705747" lon="10.5457722"><ele>923.0</ele><time>2026-03-24T09:50:07.358Z</time></trkpt><trkpt lat="46.6705494" lon="10.5458896"><ele>922.8333333333334</ele><time>2026-03-24T09:50:08.353Z</time></trkpt><trkpt lat="46.6705322" lon="10.5460112"><ele>922.6666666666667</ele><time>2026-03-24T09:50:09.36Z</time></trkpt><trkpt lat="46.670515" lon="10.5461312"><ele>922.5</ele><time>2026-03-24T09:50:10.36Z</time></trkpt><trkpt lat="46.6704962" lon="10.5462509"><ele>922.3333333333333</ele><time>2026-03-24T09:50:11.368Z</time></trkpt><trkpt lat="46.6704854" lon="10.5463693"><ele>922.1666666666666</ele><time>2026-03-24T09:50:12.361Z</time></trkpt><trkpt lat="46.6704697" lon="10.5464854"><ele>922.0</ele><time>2026-03-24T09:50:13.361Z</time></trkpt><trkpt lat="46.6704618" lon="10.5466003"><ele>921.9999999999999</ele><time>2026-03-24T09:50:14.361Z</time></trkpt><trkpt lat="46.6704556" lon="10.5467193"><ele>922.0</ele><time>2026-03-24T09:50:15.356Z</time></trkpt><trkpt lat="46.6704467" lon="10.5468389"><ele>922.0</ele><time>2026-03-24T09:50:16.36Z</time></trkpt><trkpt lat="46.6704401" lon="10.5469602"><ele>922.0</ele><time>2026-03-24T09:50:17.357Z</time></trkpt><trkpt lat="46.6704317" lon="10.5470845"><ele>921.9999999999999</ele><time>2026-03-24T09:50:18.362Z</time></trkpt><trkpt lat="46.6704247" lon="10.5472082"><ele>922.0</ele><time>2026-03-24T09:50:19.366Z</time></trkpt><trkpt lat="46.6704213" lon="10.5473297"><ele>921.3333333333333</ele><time>2026-03-24T09:50:20.369Z</time></trkpt><trkpt lat="46.6704181" lon="10.547449"><ele>920.6666666666666</ele><time>2026-03-24T09:50:21.353Z</time></trkpt><trkpt lat="46.6704135" lon="10.5475701"><ele>920.0</ele><time>2026-03-24T09:50:22.353Z</time></trkpt><trkpt lat="46.6704069" lon="10.5476908"><ele>919.3333333333333</ele><time>2026-03-24T09:50:23.355Z</time></trkpt><trkpt lat="46.6704043" lon="10.5478112"><ele>918.6666666666666</ele><time>2026-03-24T09:50:24.36Z</time></trkpt><trkpt lat="46.670402" lon="10.5479299"><ele>918.0</ele><time>2026-03-24T09:50:25.362Z</time></trkpt><trkpt lat="46.6704023" lon="10.5480474"><ele>917.5</ele><time>2026-03-24T09:50:26.357Z</time></trkpt><trkpt lat="46.6704023" lon="10.5481611"><ele>917.0</ele><time>2026-03-24T09:50:27.362Z</time></trkpt><trkpt lat="46.6704023" lon="10.5482682"><ele>916.5</ele><time>2026-03-24T09:50:28.366Z</time></trkpt><trkpt lat="46.670402" lon="10.5483706"><ele>916.0</ele><time>2026-03-24T09:50:29.366Z</time></trkpt><trkpt lat="46.6703935" lon="10.5484832"><ele>915.5</ele><time>2026-03-24T09:50:30.363Z</time></trkpt><trkpt lat="46.6703866" lon="10.5485963"><ele>915.0</ele><time>2026-03-24T09:50:31.358Z</time></trkpt><trkpt lat="46.6703789" lon="10.5487141"><ele>914.8333333333334</ele><time>2026-03-24T09:50:32.373Z</time></trkpt><trkpt lat="46.6703702" lon="10.5488298"><ele>914.6666666666667</ele><time>2026-03-24T09:50:33.361Z</time></trkpt><trkpt lat="46.6703598" lon="10.548947"><ele>914.5</ele><time>2026-03-24T09:50:34.367Z</time></trkpt><trkpt lat="46.6703515" lon="10.5490609"><ele>914.3333333333334</ele><time>2026-03-24T09:50:35.369Z</time></trkpt><trkpt lat="46.6703417" lon="10.5491716"><ele>914.1666666666667</ele><time>2026-03-24T09:50:36.369Z</time></trkpt><trkpt lat="46.6703297" lon="10.5492824"><ele>914.0</ele><time>2026-03-24T09:50:37.364Z</time></trkpt><trkpt lat="46.6703231" lon="10.5494006"><ele>914.0000000000001</ele><time>2026-03-24T09:50:38.358Z</time></trkpt><trkpt lat="46.6703196" lon="10.5495203"><ele>914.0</ele><time>2026-03-24T09:50:39.362Z</time></trkpt><trkpt lat="46.6703146" lon="10.5496415"><ele>914.0</ele><time>2026-03-24T09:50:40.373Z</time></trkpt><trkpt lat="46.6703082" lon="10.5497629"><ele>914.0</ele><time>2026-03-24T09:50:41.362Z</time></trkpt><trkpt lat="46.6703045" lon="10.5498841"><ele>914.0000000000001</ele><time>2026-03-24T09:50:42.372Z</time></trkpt><trkpt lat="46.6702976" lon="10.5500064"><ele>914.0</ele><time>2026-03-24T09:50:43.358Z</time></trkpt><trkpt lat="46.6702958" lon="10.5501282"><ele>914.0000000000001</ele><time>2026-03-24T09:50:44.353Z</time></trkpt><trkpt lat="46.6702861" lon="10.5502451"><ele>914.0</ele><time>2026-03-24T09:50:45.369Z</time></trkpt><trkpt lat="46.6702797" lon="10.5503627"><ele>914.0</ele><time>2026-03-24T09:50:46.361Z</time></trkpt><trkpt lat="46.6702728" lon="10.5504805"><ele>914.0</ele><time>2026-03-24T09:50:47.361Z</time></trkpt><trkpt lat="46.6702647" lon="10.5505964"><ele>914.0000000000001</ele><time>2026-03-24T09:50:48.36Z</time></trkpt><trkpt lat="46.6702579" lon="10.5507096"><ele>914.0</ele><time>2026-03-24T09:50:49.366Z</time></trkpt><trkpt lat="46.6702564" lon="10.5508224"><ele>914.4285714285716</ele><time>2026-03-24T09:50:50.37Z</time></trkpt><trkpt lat="46.6702524" lon="10.5509313"><ele>914.8571428571429</ele><time>2026-03-24T09:50:51.36Z</time></trkpt><trkpt lat="46.6702461" lon="10.5510391"><ele>915.2857142857143</ele><time>2026-03-24T09:50:52.367Z</time></trkpt><trkpt lat="46.6702376" lon="10.5511465"><ele>915.7142857142858</ele><time>2026-03-24T09:50:53.359Z</time></trkpt><trkpt lat="46.6702285" lon="10.5512512"><ele>916.1428571428571</ele><time>2026-03-24T09:50:54.361Z</time></trkpt><trkpt lat="46.6702208" lon="10.5513486"><ele>916.5714285714286</ele><time>2026-03-24T09:50:55.359Z</time></trkpt><trkpt lat="46.6702132" lon="10.5514425"><ele>917.0</ele><time>2026-03-24T09:50:56.354Z</time></trkpt><trkpt lat="46.6702058" lon="10.5515423"><ele>917.1428571428571</ele><time>2026-03-24T09:50:57.354Z</time></trkpt><trkpt lat="46.6702049" lon="10.551651"><ele>917.2857142857142</ele><time>2026-03-24T09:50:58.363Z</time></trkpt><trkpt lat="46.6702009" lon="10.5517628"><ele>917.4285714285714</ele><time>2026-03-24T09:50:59.361Z</time></trkpt><trkpt lat="46.6702001" lon="10.5518754"><ele>917.5714285714286</ele><time>2026-03-24T09:51:00.363Z</time></trkpt><trkpt lat="46.6701991" lon="10.5519816"><ele>917.7142857142857</ele><time>2026-03-24T09:51:01.37Z</time></trkpt><trkpt lat="46.6701974" lon="10.5520846"><ele>917.8571428571429</ele><time>2026-03-24T09:51:02.363Z</time></trkpt><trkpt lat="46.6701911" lon="10.552185"><ele>918.0</ele><time>2026-03-24T09:51:03.375Z</time></trkpt><trkpt lat="46.670186" lon="10.5522864"><ele>917.6666666666666</ele><time>2026-03-24T09:51:04.355Z</time></trkpt><trkpt lat="46.6701769" lon="10.5523865"><ele>917.3333333333333</ele><time>2026-03-24T09:51:05.36Z</time></trkpt><trkpt lat="46.6701671" lon="10.5524872"><ele>917.0</ele><time>2026-03-24T09:51:06.361Z</time></trkpt><trkpt lat="46.6701574" lon="10.5525865"><ele>916.6666666666666</ele><time>2026-03-24T09:51:07.369Z</time></trkpt><trkpt lat="46.6701492" lon="10.5526839"><ele>916.3333333333333</ele><time>2026-03-24T09:51:08.359Z</time></trkpt><trkpt lat="46.6701141" lon="10.5528451"><ele>916.0</ele><time>2026-03-24T09:51:10.36Z</time></trkpt><trkpt lat="46.6700877" lon="10.5529387"><ele>915.7142857142857</ele><time>2026-03-24T09:51:12.367Z</time></trkpt><trkpt lat="46.6700715" lon="10.5530297"><ele>915.4285714285716</ele><time>2026-03-24T09:51:15.363Z</time></trkpt><trkpt lat="46.6700267" lon="10.553096"><ele>915.1428571428572</ele><time>2026-03-24T09:51:19.367Z</time></trkpt><trkpt lat="46.6699617" lon="10.5531327"><ele>914.8571428571429</ele><time>2026-03-24T09:51:27.361Z</time></trkpt><trkpt lat="46.6698901" lon="10.5531221"><ele>914.5714285714287</ele><time>2026-03-24T09:51:32.373Z</time></trkpt><trkpt lat="46.6698352" lon="10.55307"><ele>914.2857142857144</ele><time>2026-03-24T09:51:38.368Z</time></trkpt><trkpt lat="46.6697892" lon="10.5529915"><ele>914.0000000000001</ele><time>2026-03-24T09:51:50.367Z</time></trkpt><trkpt lat="46.6697259" lon="10.5529532"><ele>914.0000000000001</ele><time>2026-03-24T09:51:56.368Z</time></trkpt><trkpt lat="46.6696782" lon="10.5528926"><ele>914.0</ele><time>2026-03-24T09:53:06.37Z</time></trkpt><trkpt lat="46.6697387" lon="10.5529236"><ele>914.0</ele><time>2026-03-24T09:53:51.358Z</time></trkpt><trkpt lat="46.6698186" lon="10.5529829"><ele>914.0</ele><time>2026-03-24T09:54:38.35Z</time></trkpt><trkpt lat="46.6698879" lon="10.5529835"><ele>914.0000000000001</ele><time>2026-03-24T09:55:06.362Z</time></trkpt><trkpt lat="46.669954" lon="10.5529949"><ele>914.0</ele><time>2026-03-24T09:55:10.357Z</time></trkpt><trkpt lat="46.6700371" lon="10.5530947"><ele>914.0000000000001</ele><time>2026-03-24T09:55:42.377Z</time></trkpt><trkpt lat="46.6699844" lon="10.5531561"><ele>914.0</ele><time>2026-03-24T09:56:06.498Z</time></trkpt><trkpt lat="46.6699258" lon="10.5532005"><ele>914.0000000000001</ele><time>2026-03-24T09:56:16.376Z</time></trkpt><trkpt lat="46.6699788" lon="10.5531474"><ele>914.0000000000001</ele><time>2026-03-24T09:56:39.369Z</time></trkpt><trkpt lat="46.6700368" lon="10.5530918"><ele>914.0</ele><time>2026-03-24T09:56:45.349Z</time></trkpt><trkpt lat="46.6701294" lon="10.5530777"><ele>914.0000000000001</ele><time>2026-03-24T09:57:40.35Z</time></trkpt><trkpt lat="46.6702089" lon="10.5530494"><ele>914.0000000000001</ele><time>2026-03-24T09:57:42.349Z</time></trkpt><trkpt lat="46.6702939" lon="10.552994"><ele>914.0000000000001</ele><time>2026-03-24T09:57:44.349Z</time></trkpt><trkpt lat="46.6703801" lon="10.5529537"><ele>914.0</ele><time>2026-03-24T09:57:46.358Z</time></trkpt><trkpt lat="46.6704593" lon="10.5529419"><ele>914.0</ele><time>2026-03-24T09:57:48.358Z</time></trkpt><trkpt lat="46.670531" lon="10.5529321"><ele>914.0</ele><time>2026-03-24T09:57:50.355Z</time></trkpt><trkpt lat="46.6705952" lon="10.5529809"><ele>914.0000000000001</ele><time>2026-03-24T09:57:52.367Z</time></trkpt><trkpt lat="46.6706234" lon="10.5530835"><ele>914.0</ele><time>2026-03-24T09:57:54.354Z</time></trkpt><trkpt lat="46.6706605" lon="10.5531893"><ele>914.0000000000001</ele><time>2026-03-24T09:57:56.365Z</time></trkpt><trkpt lat="46.6707013" lon="10.5532978"><ele>914.0</ele><time>2026-03-24T09:57:58.36Z</time></trkpt><trkpt lat="46.670757" lon="10.5533702"><ele>914.0</ele><time>2026-03-24T09:58:00.351Z</time></trkpt><trkpt lat="46.67082" lon="10.5534223"><ele>914.0</ele><time>2026-03-24T09:58:02.36Z</time></trkpt><trkpt lat="46.6708613" lon="10.5535092"><ele>914.0000000000001</ele><time>2026-03-24T09:58:04.361Z</time></trkpt><trkpt lat="46.6708796" lon="10.5535986"><ele>914.0</ele><time>2026-03-24T09:58:06.363Z</time></trkpt><trkpt lat="46.6708628" lon="10.5537147"><ele>914.0000000000001</ele><time>2026-03-24T09:58:09.362Z</time></trkpt><trkpt lat="46.6707883" lon="10.5537394"><ele>914.0</ele><time>2026-03-24T09:58:12.35Z</time></trkpt><trkpt lat="46.6706974" lon="10.5537314"><ele>914.0</ele><time>2026-03-24T09:58:15.362Z</time></trkpt><trkpt lat="46.6706346" lon="10.5536803"><ele>914.0</ele><time>2026-03-24T09:58:18.372Z</time></trkpt><trkpt lat="46.6706427" lon="10.5535731"><ele>914.0000000000001</ele><time>2026-03-24T09:58:21.348Z</time></trkpt><trkpt lat="46.6706787" lon="10.5534719"><ele>914.0</ele><time>2026-03-24T09:58:24.37Z</time></trkpt><trkpt lat="46.6706706" lon="10.5533641"><ele>914.0000000000001</ele><time>2026-03-24T10:02:15.371Z</time></trkpt><trkpt lat="46.6706485" lon="10.5532738"><ele>914.0</ele><time>2026-03-24T10:02:18.365Z</time></trkpt><trkpt lat="46.6706227" lon="10.5531861"><ele>914.0</ele><time>2026-03-24T10:02:21.368Z</time></trkpt><trkpt lat="46.6705923" lon="10.553074"><ele>914.0</ele><time>2026-03-24T10:02:24.362Z</time></trkpt><trkpt lat="46.670538" lon="10.5529729"><ele>914.0000000000001</ele><time>2026-03-24T10:02:27.372Z</time></trkpt><trkpt lat="46.6704564" lon="10.5529341"><ele>914.0</ele><time>2026-03-24T10:02:30.358Z</time></trkpt><trkpt lat="46.6703687" lon="10.5529215"><ele>914.0000000000001</ele><time>2026-03-24T10:02:33.364Z</time></trkpt><trkpt lat="46.6703009" lon="10.5529544"><ele>914.0</ele><time>2026-03-24T10:02:35.37Z</time></trkpt><trkpt lat="46.6702401" lon="10.5529975"><ele>914.0000000000001</ele><time>2026-03-24T10:02:37.378Z</time></trkpt><trkpt lat="46.6701727" lon="10.5530413"><ele>914.0000000000001</ele><time>2026-03-24T10:02:40.362Z</time></trkpt><trkpt lat="46.6700958" lon="10.5530723"><ele>914.0</ele><time>2026-03-24T10:02:43.361Z</time></trkpt><trkpt lat="46.6700314" lon="10.5531233"><ele>914.0000000000001</ele><time>2026-03-24T10:02:46.352Z</time></trkpt><trkpt lat="46.6699668" lon="10.5531964"><ele>914.0000000000001</ele><time>2026-03-24T10:02:49.365Z</time></trkpt><trkpt lat="46.6699186" lon="10.5532682"><ele>914.0</ele><time>2026-03-24T10:02:51.359Z</time></trkpt><trkpt lat="46.6698638" lon="10.5533532"><ele>914.0000000000001</ele><time>2026-03-24T10:02:53.36Z</time></trkpt><trkpt lat="46.6698071" lon="10.553449"><ele>914.0000000000001</ele><time>2026-03-24T10:02:55.37Z</time></trkpt><trkpt lat="46.6697411" lon="10.5535494"><ele>914.0</ele><time>2026-03-24T10:02:57.364Z</time></trkpt><trkpt lat="46.6696729" lon="10.5536553"><ele>914.0</ele><time>2026-03-24T10:02:59.362Z</time></trkpt><trkpt lat="46.6696055" lon="10.5537587"><ele>913.8000000000001</ele><time>2026-03-24T10:03:01.356Z</time></trkpt><trkpt lat="46.6695369" lon="10.5538657"><ele>913.6000000000001</ele><time>2026-03-24T10:03:03.367Z</time></trkpt><trkpt lat="46.6694714" lon="10.5539694"><ele>913.4</ele><time>2026-03-24T10:03:05.369Z</time></trkpt><trkpt lat="46.6694105" lon="10.5540757"><ele>913.2</ele><time>2026-03-24T10:03:07.371Z</time></trkpt><trkpt lat="46.6693443" lon="10.5542016"><ele>913.0</ele><time>2026-03-24T10:03:09.367Z</time></trkpt><trkpt lat="46.6692714" lon="10.5543274"><ele>912.75</ele><time>2026-03-24T10:03:11.373Z</time></trkpt><trkpt lat="46.6691997" lon="10.5544611"><ele>912.5</ele><time>2026-03-24T10:03:13.36Z</time></trkpt><trkpt lat="46.6691232" lon="10.5546028"><ele>912.25</ele><time>2026-03-24T10:03:15.366Z</time></trkpt><trkpt lat="46.6690459" lon="10.5547438"><ele>912.0</ele><time>2026-03-24T10:03:17.365Z</time></trkpt><trkpt lat="46.6689725" lon="10.5548834"><ele>911.5714285714286</ele><time>2026-03-24T10:03:19.372Z</time></trkpt><trkpt lat="46.6688965" lon="10.5550293"><ele>911.1428571428571</ele><time>2026-03-24T10:03:21.37Z</time></trkpt><trkpt lat="46.668857" lon="10.5551045"><ele>910.7142857142857</ele><time>2026-03-24T10:03:22.352Z</time></trkpt><trkpt lat="46.6688176" lon="10.5551775"><ele>910.2857142857142</ele><time>2026-03-24T10:03:23.369Z</time></trkpt><trkpt lat="46.6687782" lon="10.5552499"><ele>909.8571428571429</ele><time>2026-03-24T10:03:24.368Z</time></trkpt><trkpt lat="46.6687406" lon="10.5553236"><ele>909.4285714285713</ele><time>2026-03-24T10:03:25.362Z</time></trkpt><trkpt lat="46.668702" lon="10.555398"><ele>909.0</ele><time>2026-03-24T10:03:26.363Z</time></trkpt><trkpt lat="46.6686598" lon="10.5554768"><ele>909.0</ele><time>2026-03-24T10:03:27.37Z</time></trkpt><trkpt lat="46.6686216" lon="10.5555543"><ele>909.0</ele><time>2026-03-24T10:03:28.365Z</time></trkpt><trkpt lat="46.6685821" lon="10.5556302"><ele>909.0</ele><time>2026-03-24T10:03:29.37Z</time></trkpt><trkpt lat="46.6685391" lon="10.5557054"><ele>909.0</ele><time>2026-03-24T10:03:30.362Z</time></trkpt><trkpt lat="46.6684986" lon="10.5557761"><ele>909.0</ele><time>2026-03-24T10:03:31.373Z</time></trkpt><trkpt lat="46.6684561" lon="10.5558479"><ele>909.0</ele><time>2026-03-24T10:03:32.369Z</time></trkpt><trkpt lat="46.6684119" lon="10.5559195"><ele>909.0</ele><time>2026-03-24T10:03:33.356Z</time></trkpt><trkpt lat="46.6683658" lon="10.5559914"><ele>909.0</ele><time>2026-03-24T10:03:34.374Z</time></trkpt><trkpt lat="46.6683217" lon="10.5560674"><ele>909.0</ele><time>2026-03-24T10:03:35.36Z</time></trkpt><trkpt lat="46.6682788" lon="10.5561447"><ele>909.0</ele><time>2026-03-24T10:03:36.372Z</time></trkpt><trkpt lat="46.668236" lon="10.5562207"><ele>909.0</ele><time>2026-03-24T10:03:37.362Z</time></trkpt><trkpt lat="46.6681936" lon="10.556297"><ele>909.0</ele><time>2026-03-24T10:03:38.369Z</time></trkpt><trkpt lat="46.6681507" lon="10.5563743"><ele>909.0</ele><time>2026-03-24T10:03:39.37Z</time></trkpt><trkpt lat="46.6681076" lon="10.5564528"><ele>909.0</ele><time>2026-03-24T10:03:40.368Z</time></trkpt><trkpt lat="46.6680663" lon="10.5565313"><ele>908.8571428571429</ele><time>2026-03-24T10:03:41.379Z</time></trkpt><trkpt lat="46.6680256" lon="10.556611"><ele>908.7142857142858</ele><time>2026-03-24T10:03:42.375Z</time></trkpt><trkpt lat="46.6679859" lon="10.5566899"><ele>908.5714285714287</ele><time>2026-03-24T10:03:43.372Z</time></trkpt><trkpt lat="46.6679469" lon="10.5567671"><ele>908.4285714285714</ele><time>2026-03-24T10:03:44.37Z</time></trkpt><trkpt lat="46.6679094" lon="10.556842"><ele>908.2857142857144</ele><time>2026-03-24T10:03:45.368Z</time></trkpt><trkpt lat="46.6678704" lon="10.5569148"><ele>908.1428571428572</ele><time>2026-03-24T10:03:46.364Z</time></trkpt><trkpt lat="46.6678319" lon="10.5569895"><ele>908.0</ele><time>2026-03-24T10:03:47.364Z</time></trkpt><trkpt lat="46.6677948" lon="10.5570639"><ele>908.0</ele><time>2026-03-24T10:03:48.365Z</time></trkpt><trkpt lat="46.6677251" lon="10.557212"><ele>908.0</ele><time>2026-03-24T10:03:50.372Z</time></trkpt><trkpt lat="46.6676601" lon="10.557348"><ele>908.0</ele><time>2026-03-24T10:03:52.365Z</time></trkpt><trkpt lat="46.6676118" lon="10.5574632"><ele>908.0</ele><time>2026-03-24T10:03:54.368Z</time></trkpt><trkpt lat="46.667572" lon="10.557556"><ele>908.0</ele><time>2026-03-24T10:03:56.367Z</time></trkpt><trkpt lat="46.6675342" lon="10.557647"><ele>908.0</ele><time>2026-03-24T10:03:59.366Z</time></trkpt><trkpt lat="46.6674971" lon="10.5577365"><ele>908.0000000000001</ele><time>2026-03-24T10:04:03.364Z</time></trkpt><trkpt lat="46.6674595" lon="10.5578118"><ele>908.0</ele><time>2026-03-24T10:04:13.362Z</time></trkpt><trkpt lat="46.6674087" lon="10.5578676"><ele>908.0</ele><time>2026-03-24T10:04:23.367Z</time></trkpt><trkpt lat="46.6673601" lon="10.5579701"><ele>908.0000000000001</ele><time>2026-03-24T10:04:26.366Z</time></trkpt><trkpt lat="46.6673154" lon="10.5580621"><ele>908.0</ele><time>2026-03-24T10:04:28.362Z</time></trkpt><trkpt lat="46.6672622" lon="10.5581628"><ele>908.0</ele><time>2026-03-24T10:04:30.367Z</time></trkpt><trkpt lat="46.6672072" lon="10.5582729"><ele>907.5999999999999</ele><time>2026-03-24T10:04:32.372Z</time></trkpt><trkpt lat="46.6671457" lon="10.5583897"><ele>907.1999999999999</ele><time>2026-03-24T10:04:34.362Z</time></trkpt><trkpt lat="46.6670818" lon="10.558512"><ele>906.8</ele><time>2026-03-24T10:04:36.366Z</time></trkpt><trkpt lat="46.667019" lon="10.5586383"><ele>906.4</ele><time>2026-03-24T10:04:38.372Z</time></trkpt><trkpt lat="46.6669525" lon="10.5587717"><ele>906.0</ele><time>2026-03-24T10:04:40.371Z</time></trkpt><trkpt lat="46.6668817" lon="10.5589056"><ele>905.5</ele><time>2026-03-24T10:04:42.371Z</time></trkpt><trkpt lat="46.6668008" lon="10.5590436"><ele>905.0</ele><time>2026-03-24T10:04:44.372Z</time></trkpt><trkpt lat="46.6667242" lon="10.5591903"><ele>904.5</ele><time>2026-03-24T10:04:46.375Z</time></trkpt><trkpt lat="46.666685" lon="10.5592654"><ele>904.0</ele><time>2026-03-24T10:04:47.367Z</time></trkpt><trkpt lat="46.6666445" lon="10.5593408"><ele>903.5</ele><time>2026-03-24T10:04:48.362Z</time></trkpt><trkpt lat="46.6666038" lon="10.5594163"><ele>903.0</ele><time>2026-03-24T10:04:49.373Z</time></trkpt><trkpt lat="46.6665638" lon="10.5594938"><ele>902.7142857142858</ele><time>2026-03-24T10:04:50.367Z</time></trkpt><trkpt lat="46.6665245" lon="10.5595721"><ele>902.4285714285714</ele><time>2026-03-24T10:04:51.37Z</time></trkpt><trkpt lat="46.6664847" lon="10.5596495"><ele>902.1428571428571</ele><time>2026-03-24T10:04:52.364Z</time></trkpt><trkpt lat="46.6664446" lon="10.5597278"><ele>901.8571428571429</ele><time>2026-03-24T10:04:53.366Z</time></trkpt><trkpt lat="46.6664039" lon="10.5598049"><ele>901.5714285714287</ele><time>2026-03-24T10:04:54.377Z</time></trkpt><trkpt lat="46.6663638" lon="10.5598819"><ele>901.2857142857143</ele><time>2026-03-24T10:04:55.379Z</time></trkpt><trkpt lat="46.6663239" lon="10.5599596"><ele>901.0</ele><time>2026-03-24T10:04:56.369Z</time></trkpt><trkpt lat="46.6662837" lon="10.560037"><ele>901.0</ele><time>2026-03-24T10:04:57.371Z</time></trkpt><trkpt lat="46.6662435" lon="10.5601153"><ele>901.0000000000001</ele><time>2026-03-24T10:04:58.382Z</time></trkpt><trkpt lat="46.6662039" lon="10.5601961"><ele>901.0</ele><time>2026-03-24T10:04:59.367Z</time></trkpt><trkpt lat="46.6661647" lon="10.5602751"><ele>901.0</ele><time>2026-03-24T10:05:00.383Z</time></trkpt><trkpt lat="46.6661227" lon="10.5603556"><ele>901.0000000000001</ele><time>2026-03-24T10:05:01.371Z</time></trkpt><trkpt lat="46.6660819" lon="10.5604365"><ele>901.0</ele><time>2026-03-24T10:05:02.372Z</time></trkpt><trkpt lat="46.6660401" lon="10.5605189"><ele>901.0</ele><time>2026-03-24T10:05:03.372Z</time></trkpt><trkpt lat="46.6659974" lon="10.5606017"><ele>901.4285714285714</ele><time>2026-03-24T10:05:04.372Z</time></trkpt><trkpt lat="46.6659535" lon="10.5606825"><ele>901.8571428571429</ele><time>2026-03-24T10:05:05.373Z</time></trkpt><trkpt lat="46.6659078" lon="10.5607625"><ele>902.2857142857143</ele><time>2026-03-24T10:05:06.358Z</time></trkpt><trkpt lat="46.6658621" lon="10.5608418"><ele>902.7142857142858</ele><time>2026-03-24T10:05:07.357Z</time></trkpt><trkpt lat="46.6658137" lon="10.5609199"><ele>903.1428571428571</ele><time>2026-03-24T10:05:08.372Z</time></trkpt><trkpt lat="46.6657636" lon="10.5609984"><ele>903.5714285714287</ele><time>2026-03-24T10:05:09.37Z</time></trkpt><trkpt lat="46.6657123" lon="10.5610768"><ele>904.0</ele><time>2026-03-24T10:05:10.363Z</time></trkpt><trkpt lat="46.6656584" lon="10.5611526"><ele>904.1428571428571</ele><time>2026-03-24T10:05:11.374Z</time></trkpt><trkpt lat="46.6656018" lon="10.5612244"><ele>904.2857142857142</ele><time>2026-03-24T10:05:12.368Z</time></trkpt><trkpt lat="46.6655421" lon="10.5612899"><ele>904.4285714285713</ele><time>2026-03-24T10:05:13.372Z</time></trkpt><trkpt lat="46.6654818" lon="10.5613543"><ele>904.5714285714286</ele><time>2026-03-24T10:05:14.361Z</time></trkpt><trkpt lat="46.66542" lon="10.5614128"><ele>904.7142857142856</ele><time>2026-03-24T10:05:15.37Z</time></trkpt><trkpt lat="46.6653577" lon="10.5614682"><ele>904.8571428571428</ele><time>2026-03-24T10:05:16.366Z</time></trkpt><trkpt lat="46.6652947" lon="10.5615222"><ele>905.0</ele><time>2026-03-24T10:05:17.367Z</time></trkpt><trkpt lat="46.6652319" lon="10.5615759"><ele>904.7142857142857</ele><time>2026-03-24T10:05:18.362Z</time></trkpt><trkpt lat="46.6651686" lon="10.5616284"><ele>904.4285714285713</ele><time>2026-03-24T10:05:19.371Z</time></trkpt><trkpt lat="46.6651049" lon="10.5616809"><ele>904.1428571428571</ele><time>2026-03-24T10:05:20.365Z</time></trkpt><trkpt lat="46.6650421" lon="10.5617312"><ele>903.8571428571429</ele><time>2026-03-24T10:05:21.361Z</time></trkpt><trkpt lat="46.6649764" lon="10.5617806"><ele>903.5714285714286</ele><time>2026-03-24T10:05:22.367Z</time></trkpt><trkpt lat="46.6649109" lon="10.5618278"><ele>903.2857142857142</ele><time>2026-03-24T10:05:23.368Z</time></trkpt><trkpt lat="46.664846" lon="10.5618739"><ele>903.0</ele><time>2026-03-24T10:05:24.359Z</time></trkpt><trkpt lat="46.6647809" lon="10.5619187"><ele>903.0</ele><time>2026-03-24T10:05:25.377Z</time></trkpt><trkpt lat="46.6647148" lon="10.5619642"><ele>903.0</ele><time>2026-03-24T10:05:26.359Z</time></trkpt><trkpt lat="46.6646493" lon="10.5620085"><ele>903.0</ele><time>2026-03-24T10:05:27.368Z</time></trkpt><trkpt lat="46.6645853" lon="10.5620505"><ele>903.0</ele><time>2026-03-24T10:05:28.368Z</time></trkpt><trkpt lat="46.66452" lon="10.562099"><ele>903.0</ele><time>2026-03-24T10:05:29.365Z</time></trkpt><trkpt lat="46.664455" lon="10.5621469"><ele>903.0</ele><time>2026-03-24T10:05:30.371Z</time></trkpt><trkpt lat="46.6643899" lon="10.5621952"><ele>903.0</ele><time>2026-03-24T10:05:31.364Z</time></trkpt><trkpt lat="46.6643268" lon="10.5622446"><ele>903.0</ele><time>2026-03-24T10:05:32.36Z</time></trkpt><trkpt lat="46.6642637" lon="10.5622936"><ele>903.0</ele><time>2026-03-24T10:05:33.381Z</time></trkpt><trkpt lat="46.6642004" lon="10.562343"><ele>903.0</ele><time>2026-03-24T10:05:34.366Z</time></trkpt><trkpt lat="46.6641393" lon="10.5623941"><ele>903.0</ele><time>2026-03-24T10:05:35.361Z</time></trkpt><trkpt lat="46.6640789" lon="10.5624456"><ele>903.0</ele><time>2026-03-24T10:05:36.373Z</time></trkpt><trkpt lat="46.6640186" lon="10.562496"><ele>903.0</ele><time>2026-03-24T10:05:37.371Z</time></trkpt><trkpt lat="46.6639549" lon="10.5625473"><ele>903.0</ele><time>2026-03-24T10:05:38.37Z</time></trkpt><trkpt lat="46.6638922" lon="10.5626005"><ele>903.0</ele><time>2026-03-24T10:05:39.371Z</time></trkpt><trkpt lat="46.6638311" lon="10.562653"><ele>903.0</ele><time>2026-03-24T10:05:40.377Z</time></trkpt><trkpt lat="46.6637682" lon="10.5627076"><ele>903.0</ele><time>2026-03-24T10:05:41.37Z</time></trkpt><trkpt lat="46.6637036" lon="10.5627617"><ele>903.0</ele><time>2026-03-24T10:05:42.368Z</time></trkpt><trkpt lat="46.6636403" lon="10.5628162"><ele>903.0</ele><time>2026-03-24T10:05:43.354Z</time></trkpt><trkpt lat="46.6635773" lon="10.5628715"><ele>903.0</ele><time>2026-03-24T10:05:44.366Z</time></trkpt><trkpt lat="46.6635135" lon="10.5629286"><ele>903.0</ele><time>2026-03-24T10:05:45.367Z</time></trkpt><trkpt lat="46.6634503" lon="10.5629842"><ele>902.5714285714286</ele><time>2026-03-24T10:05:46.368Z</time></trkpt><trkpt lat="46.6633879" lon="10.5630397"><ele>902.1428571428571</ele><time>2026-03-24T10:05:47.371Z</time></trkpt><trkpt lat="46.6633255" lon="10.5630947"><ele>901.7142857142858</ele><time>2026-03-24T10:05:48.37Z</time></trkpt><trkpt lat="46.6632635" lon="10.5631497"><ele>901.2857142857143</ele><time>2026-03-24T10:05:49.365Z</time></trkpt><trkpt lat="46.6632015" lon="10.563204"><ele>900.8571428571429</ele><time>2026-03-24T10:05:50.373Z</time></trkpt><trkpt lat="46.6631387" lon="10.5632584"><ele>900.4285714285716</ele><time>2026-03-24T10:05:51.362Z</time></trkpt><trkpt lat="46.6630766" lon="10.5633141"><ele>900.0000000000001</ele><time>2026-03-24T10:05:52.368Z</time></trkpt><trkpt lat="46.6630144" lon="10.5633698"><ele>900.0000000000001</ele><time>2026-03-24T10:05:53.377Z</time></trkpt><trkpt lat="46.6629529" lon="10.563426"><ele>900.0</ele><time>2026-03-24T10:05:54.365Z</time></trkpt><trkpt lat="46.6628919" lon="10.5634824"><ele>900.0000000000001</ele><time>2026-03-24T10:05:55.357Z</time></trkpt><trkpt lat="46.662831" lon="10.5635388"><ele>900.0000000000001</ele><time>2026-03-24T10:05:56.366Z</time></trkpt><trkpt lat="46.6627712" lon="10.5635957"><ele>900.0</ele><time>2026-03-24T10:05:57.369Z</time></trkpt><trkpt lat="46.6627144" lon="10.5636555"><ele>900.0000000000001</ele><time>2026-03-24T10:05:58.36Z</time></trkpt><trkpt lat="46.6626558" lon="10.5637115"><ele>900.0000000000001</ele><time>2026-03-24T10:05:59.367Z</time></trkpt><trkpt lat="46.6625972" lon="10.563767"><ele>899.7142857142858</ele><time>2026-03-24T10:06:00.359Z</time></trkpt><trkpt lat="46.6625372" lon="10.5638195"><ele>899.4285714285714</ele><time>2026-03-24T10:06:01.368Z</time></trkpt><trkpt lat="46.6624778" lon="10.5638723"><ele>899.1428571428571</ele><time>2026-03-24T10:06:02.37Z</time></trkpt><trkpt lat="46.6624186" lon="10.5639278"><ele>898.8571428571429</ele><time>2026-03-24T10:06:03.367Z</time></trkpt><trkpt lat="46.6623587" lon="10.563982"><ele>898.5714285714284</ele><time>2026-03-24T10:06:04.382Z</time></trkpt><trkpt lat="46.6622988" lon="10.5640342"><ele>898.2857142857142</ele><time>2026-03-24T10:06:05.366Z</time></trkpt><trkpt lat="46.6622377" lon="10.5640847"><ele>898.0</ele><time>2026-03-24T10:06:06.368Z</time></trkpt><trkpt lat="46.6621773" lon="10.5641352"><ele>898.0</ele><time>2026-03-24T10:06:07.366Z</time></trkpt><trkpt lat="46.6621163" lon="10.5641849"><ele>897.9999999999999</ele><time>2026-03-24T10:06:08.364Z</time></trkpt><trkpt lat="46.6620561" lon="10.5642366"><ele>898.0</ele><time>2026-03-24T10:06:09.37Z</time></trkpt><trkpt lat="46.6619959" lon="10.5642888"><ele>898.0</ele><time>2026-03-24T10:06:10.368Z</time></trkpt><trkpt lat="46.6619355" lon="10.5643408"><ele>897.9999999999999</ele><time>2026-03-24T10:06:11.365Z</time></trkpt><trkpt lat="46.6618752" lon="10.5643952"><ele>898.0</ele><time>2026-03-24T10:06:12.366Z</time></trkpt><trkpt lat="46.6618139" lon="10.5644483"><ele>898.0</ele><time>2026-03-24T10:06:13.373Z</time></trkpt><trkpt lat="46.6617528" lon="10.5645013"><ele>898.0</ele><time>2026-03-24T10:06:14.37Z</time></trkpt><trkpt lat="46.661693" lon="10.5645563"><ele>897.9999999999999</ele><time>2026-03-24T10:06:15.366Z</time></trkpt><trkpt lat="46.6616336" lon="10.5646135"><ele>898.0</ele><time>2026-03-24T10:06:16.366Z</time></trkpt><trkpt lat="46.6615741" lon="10.5646712"><ele>898.0</ele><time>2026-03-24T10:06:17.349Z</time></trkpt><trkpt lat="46.6615144" lon="10.5647288"><ele>897.9999999999999</ele><time>2026-03-24T10:06:18.363Z</time></trkpt><trkpt lat="46.6614541" lon="10.5647842"><ele>898.0</ele><time>2026-03-24T10:06:19.366Z</time></trkpt><trkpt lat="46.6613935" lon="10.5648399"><ele>898.0</ele><time>2026-03-24T10:06:20.362Z</time></trkpt><trkpt lat="46.6613324" lon="10.5648934"><ele>898.0</ele><time>2026-03-24T10:06:21.355Z</time></trkpt><trkpt lat="46.6612705" lon="10.5649448"><ele>897.9999999999999</ele><time>2026-03-24T10:06:22.359Z</time></trkpt><trkpt lat="46.6612083" lon="10.5649958"><ele>898.0</ele><time>2026-03-24T10:06:23.387Z</time></trkpt><trkpt lat="46.6611455" lon="10.5650462"><ele>898.0</ele><time>2026-03-24T10:06:24.361Z</time></trkpt><trkpt lat="46.6610827" lon="10.5650965"><ele>897.9999999999999</ele><time>2026-03-24T10:06:25.361Z</time></trkpt><trkpt lat="46.6610206" lon="10.5651485"><ele>898.0</ele><time>2026-03-24T10:06:26.364Z</time></trkpt><trkpt lat="46.6609598" lon="10.5652021"><ele>898.0</ele><time>2026-03-24T10:06:27.362Z</time></trkpt><trkpt lat="46.6609" lon="10.5652579"><ele>897.9999999999999</ele><time>2026-03-24T10:06:28.367Z</time></trkpt><trkpt lat="46.6608438" lon="10.5653139"><ele>898.0</ele><time>2026-03-24T10:06:29.369Z</time></trkpt><trkpt lat="46.660791" lon="10.5653714"><ele>898.0</ele><time>2026-03-24T10:06:30.369Z</time></trkpt><trkpt lat="46.6607383" lon="10.5654245"><ele>898.0</ele><time>2026-03-24T10:06:31.364Z</time></trkpt><trkpt lat="46.6606319" lon="10.565457"><ele>897.9999999999999</ele><time>2026-03-24T10:06:33.364Z</time></trkpt><trkpt lat="46.6605469" lon="10.5653658"><ele>898.0</ele><time>2026-03-24T10:06:35.368Z</time></trkpt><trkpt lat="46.6604687" lon="10.565281"><ele>898.0</ele><time>2026-03-24T10:06:37.369Z</time></trkpt><trkpt lat="46.6603949" lon="10.5652962"><ele>898.0</ele><time>2026-03-24T10:06:39.367Z</time></trkpt><trkpt lat="46.6603062" lon="10.565399"><ele>898.0</ele><time>2026-03-24T10:06:41.374Z</time></trkpt><trkpt lat="46.6602104" lon="10.5655022"><ele>898.0</ele><time>2026-03-24T10:06:43.366Z</time></trkpt><trkpt lat="46.6601033" lon="10.5655958"><ele>898.0</ele><time>2026-03-24T10:06:45.374Z</time></trkpt><trkpt lat="46.6600488" lon="10.5656422"><ele>898.4285714285713</ele><time>2026-03-24T10:06:46.365Z</time></trkpt><trkpt lat="46.6599947" lon="10.5656916"><ele>898.8571428571428</ele><time>2026-03-24T10:06:47.365Z</time></trkpt><trkpt lat="46.6599404" lon="10.5657435"><ele>899.2857142857142</ele><time>2026-03-24T10:06:48.361Z</time></trkpt><trkpt lat="46.6598854" lon="10.5657944"><ele>899.7142857142858</ele><time>2026-03-24T10:06:49.37Z</time></trkpt><trkpt lat="46.6598296" lon="10.5658441"><ele>900.1428571428572</ele><time>2026-03-24T10:06:50.368Z</time></trkpt><trkpt lat="46.6597721" lon="10.5658936"><ele>900.5714285714287</ele><time>2026-03-24T10:06:51.365Z</time></trkpt><trkpt lat="46.6597138" lon="10.5659453"><ele>901.0</ele><time>2026-03-24T10:06:52.364Z</time></trkpt><trkpt lat="46.659655" lon="10.5659968"><ele>901.0</ele><time>2026-03-24T10:06:53.367Z</time></trkpt><trkpt lat="46.6595965" lon="10.5660496"><ele>901.0000000000001</ele><time>2026-03-24T10:06:54.36Z</time></trkpt><trkpt lat="46.6595384" lon="10.5661034"><ele>901.0</ele><time>2026-03-24T10:06:55.364Z</time></trkpt><trkpt lat="46.6594792" lon="10.5661568"><ele>901.0</ele><time>2026-03-24T10:06:56.374Z</time></trkpt><trkpt lat="46.6594183" lon="10.5662078"><ele>901.0000000000001</ele><time>2026-03-24T10:06:57.374Z</time></trkpt><trkpt lat="46.6593592" lon="10.5662593"><ele>901.0</ele><time>2026-03-24T10:06:58.373Z</time></trkpt><trkpt lat="46.6592996" lon="10.5663119"><ele>901.0</ele><time>2026-03-24T10:06:59.368Z</time></trkpt><trkpt lat="46.6592414" lon="10.5663641"><ele>901.0</ele><time>2026-03-24T10:07:00.369Z</time></trkpt><trkpt lat="46.6591812" lon="10.5664202"><ele>901.0000000000001</ele><time>2026-03-24T10:07:01.38Z</time></trkpt><trkpt lat="46.6591215" lon="10.5664745"><ele>901.0</ele><time>2026-03-24T10:07:02.37Z</time></trkpt><trkpt lat="46.6590642" lon="10.5665268"><ele>901.0</ele><time>2026-03-24T10:07:03.372Z</time></trkpt><trkpt lat="46.6590054" lon="10.5665779"><ele>901.0000000000001</ele><time>2026-03-24T10:07:04.374Z</time></trkpt><trkpt lat="46.6589444" lon="10.5666303"><ele>901.0</ele><time>2026-03-24T10:07:05.372Z</time></trkpt><trkpt lat="46.6588832" lon="10.5666822"><ele>901.0</ele><time>2026-03-24T10:07:06.375Z</time></trkpt><trkpt lat="46.6588211" lon="10.5667345"><ele>901.0</ele><time>2026-03-24T10:07:07.366Z</time></trkpt><trkpt lat="46.6587595" lon="10.5667883"><ele>901.0000000000001</ele><time>2026-03-24T10:07:08.366Z</time></trkpt><trkpt lat="46.6586991" lon="10.5668402"><ele>901.0</ele><time>2026-03-24T10:07:09.362Z</time></trkpt><trkpt lat="46.6586376" lon="10.5668924"><ele>901.0</ele><time>2026-03-24T10:07:10.361Z</time></trkpt><trkpt lat="46.6585762" lon="10.566945"><ele>901.0000000000001</ele><time>2026-03-24T10:07:11.375Z</time></trkpt><trkpt lat="46.6585161" lon="10.5669974"><ele>901.0</ele><time>2026-03-24T10:07:12.369Z</time></trkpt><trkpt lat="46.6584573" lon="10.5670492"><ele>901.0</ele><time>2026-03-24T10:07:13.363Z</time></trkpt><trkpt lat="46.6583983" lon="10.5671006"><ele>901.1428571428572</ele><time>2026-03-24T10:07:14.373Z</time></trkpt><trkpt lat="46.6583377" lon="10.5671531"><ele>901.2857142857144</ele><time>2026-03-24T10:07:15.371Z</time></trkpt><trkpt lat="46.6582777" lon="10.5672055"><ele>901.4285714285714</ele><time>2026-03-24T10:07:16.37Z</time></trkpt><trkpt lat="46.6582168" lon="10.567259"><ele>901.5714285714287</ele><time>2026-03-24T10:07:17.369Z</time></trkpt><trkpt lat="46.6581574" lon="10.5673166"><ele>901.7142857142858</ele><time>2026-03-24T10:07:18.368Z</time></trkpt><trkpt lat="46.6580972" lon="10.567374"><ele>901.8571428571429</ele><time>2026-03-24T10:07:19.367Z</time></trkpt><trkpt lat="46.6580351" lon="10.5674305"><ele>902.0</ele><time>2026-03-24T10:07:20.364Z</time></trkpt><trkpt lat="46.6579719" lon="10.5674869"><ele>902.0000000000001</ele><time>2026-03-24T10:07:21.365Z</time></trkpt><trkpt lat="46.657908" lon="10.5675443"><ele>902.0</ele><time>2026-03-24T10:07:22.373Z</time></trkpt><trkpt lat="46.6578421" lon="10.5676018"><ele>902.0</ele><time>2026-03-24T10:07:23.368Z</time></trkpt><trkpt lat="46.657774" lon="10.5676693"><ele>902.0</ele><time>2026-03-24T10:07:24.369Z</time></trkpt><trkpt lat="46.6577066" lon="10.5677339"><ele>902.0000000000001</ele><time>2026-03-24T10:07:25.37Z</time></trkpt><trkpt lat="46.6576377" lon="10.5677984"><ele>902.0</ele><time>2026-03-24T10:07:26.367Z</time></trkpt><trkpt lat="46.6575699" lon="10.5678619"><ele>901.5000000000001</ele><time>2026-03-24T10:07:27.363Z</time></trkpt><trkpt lat="46.6575015" lon="10.5679229"><ele>901.0</ele><time>2026-03-24T10:07:28.365Z</time></trkpt><trkpt lat="46.6574335" lon="10.5679819"><ele>900.5</ele><time>2026-03-24T10:07:29.37Z</time></trkpt><trkpt lat="46.6573666" lon="10.5680416"><ele>900.0</ele><time>2026-03-24T10:07:30.367Z</time></trkpt><trkpt lat="46.6573026" lon="10.5681013"><ele>899.5000000000001</ele><time>2026-03-24T10:07:31.371Z</time></trkpt><trkpt lat="46.6572361" lon="10.5681628"><ele>899.0</ele><time>2026-03-24T10:07:32.368Z</time></trkpt><trkpt lat="46.6571699" lon="10.5682246"><ele>899.0000000000001</ele><time>2026-03-24T10:07:33.37Z</time></trkpt><trkpt lat="46.657103" lon="10.5682877"><ele>899.0</ele><time>2026-03-24T10:07:34.365Z</time></trkpt><trkpt lat="46.6570357" lon="10.5683488"><ele>899.0</ele><time>2026-03-24T10:07:35.373Z</time></trkpt><trkpt lat="46.656969" lon="10.5684113"><ele>899.0</ele><time>2026-03-24T10:07:36.366Z</time></trkpt><trkpt lat="46.6569022" lon="10.5684725"><ele>899.0000000000001</ele><time>2026-03-24T10:07:37.375Z</time></trkpt><trkpt lat="46.6568347" lon="10.5685354"><ele>899.0</ele><time>2026-03-24T10:07:38.372Z</time></trkpt><trkpt lat="46.6567692" lon="10.5685964"><ele>898.8333333333334</ele><time>2026-03-24T10:07:39.368Z</time></trkpt><trkpt lat="46.6567025" lon="10.568657"><ele>898.6666666666667</ele><time>2026-03-24T10:07:40.38Z</time></trkpt><trkpt lat="46.6566374" lon="10.5687169"><ele>898.5</ele><time>2026-03-24T10:07:41.362Z</time></trkpt><trkpt lat="46.6565748" lon="10.5687746"><ele>898.3333333333333</ele><time>2026-03-24T10:07:42.362Z</time></trkpt><trkpt lat="46.6565118" lon="10.5688332"><ele>898.1666666666666</ele><time>2026-03-24T10:07:43.365Z</time></trkpt><trkpt lat="46.6564478" lon="10.5688913"><ele>898.0</ele><time>2026-03-24T10:07:44.365Z</time></trkpt><trkpt lat="46.6563791" lon="10.5689494"><ele>898.0</ele><time>2026-03-24T10:07:45.372Z</time></trkpt><trkpt lat="46.6563144" lon="10.569008"><ele>897.9999999999999</ele><time>2026-03-24T10:07:46.366Z</time></trkpt><trkpt lat="46.6562526" lon="10.5690683"><ele>898.0</ele><time>2026-03-24T10:07:47.361Z</time></trkpt><trkpt lat="46.6561924" lon="10.5691255"><ele>898.0</ele><time>2026-03-24T10:07:48.362Z</time></trkpt><trkpt lat="46.6561352" lon="10.5691801"><ele>897.9999999999999</ele><time>2026-03-24T10:07:49.35Z</time></trkpt><trkpt lat="46.6560798" lon="10.5692274"><ele>898.0</ele><time>2026-03-24T10:07:50.367Z</time></trkpt><trkpt lat="46.6560189" lon="10.569276"><ele>898.0</ele><time>2026-03-24T10:07:51.356Z</time></trkpt><trkpt lat="46.655954" lon="10.5693302"><ele>898.0</ele><time>2026-03-24T10:07:52.358Z</time></trkpt><trkpt lat="46.6558921" lon="10.5693842"><ele>897.9999999999999</ele><time>2026-03-24T10:07:53.361Z</time></trkpt><trkpt lat="46.6558295" lon="10.5694411"><ele>898.0</ele><time>2026-03-24T10:07:54.358Z</time></trkpt><trkpt lat="46.6557682" lon="10.5694967"><ele>898.0</ele><time>2026-03-24T10:07:55.373Z</time></trkpt><trkpt lat="46.6557035" lon="10.5695492"><ele>897.9999999999999</ele><time>2026-03-24T10:07:56.37Z</time></trkpt><trkpt lat="46.6556442" lon="10.5696024"><ele>898.0</ele><time>2026-03-24T10:07:57.367Z</time></trkpt><trkpt lat="46.6555846" lon="10.5696576"><ele>898.0</ele><time>2026-03-24T10:07:58.374Z</time></trkpt><trkpt lat="46.6555235" lon="10.5697118"><ele>898.0</ele><time>2026-03-24T10:07:59.37Z</time></trkpt><trkpt lat="46.6554613" lon="10.5697671"><ele>897.9999999999999</ele><time>2026-03-24T10:08:00.371Z</time></trkpt><trkpt lat="46.6554008" lon="10.5698218"><ele>898.0</ele><time>2026-03-24T10:08:01.366Z</time></trkpt><trkpt lat="46.6553406" lon="10.5698757"><ele>898.0</ele><time>2026-03-24T10:08:02.371Z</time></trkpt><trkpt lat="46.6552791" lon="10.5699328"><ele>897.9999999999999</ele><time>2026-03-24T10:08:03.376Z</time></trkpt><trkpt lat="46.6552176" lon="10.5699867"><ele>898.0</ele><time>2026-03-24T10:08:04.37Z</time></trkpt><trkpt lat="46.6551551" lon="10.5700394"><ele>898.0</ele><time>2026-03-24T10:08:05.378Z</time></trkpt><trkpt lat="46.655093" lon="10.5700927"><ele>898.0</ele><time>2026-03-24T10:08:06.375Z</time></trkpt><trkpt lat="46.6550311" lon="10.5701464"><ele>897.9999999999999</ele><time>2026-03-24T10:08:07.371Z</time></trkpt><trkpt lat="46.6549693" lon="10.570201"><ele>898.0</ele><time>2026-03-24T10:08:08.363Z</time></trkpt><trkpt lat="46.6549069" lon="10.5702551"><ele>898.0</ele><time>2026-03-24T10:08:09.374Z</time></trkpt><trkpt lat="46.6548452" lon="10.5703107"><ele>897.9999999999999</ele><time>2026-03-24T10:08:10.368Z</time></trkpt><trkpt lat="46.6547828" lon="10.5703658"><ele>898.0</ele><time>2026-03-24T10:08:11.359Z</time></trkpt><trkpt lat="46.6547203" lon="10.5704196"><ele>898.0</ele><time>2026-03-24T10:08:12.359Z</time></trkpt><trkpt lat="46.6546547" lon="10.5704762"><ele>897.8571428571428</ele><time>2026-03-24T10:08:13.369Z</time></trkpt><trkpt lat="46.6545944" lon="10.5705292"><ele>897.7142857142856</ele><time>2026-03-24T10:08:14.368Z</time></trkpt><trkpt lat="46.6545337" lon="10.5705817"><ele>897.5714285714286</ele><time>2026-03-24T10:08:15.366Z</time></trkpt><trkpt lat="46.6544733" lon="10.570635"><ele>897.4285714285713</ele><time>2026-03-24T10:08:16.368Z</time></trkpt><trkpt lat="46.6544146" lon="10.570688"><ele>897.2857142857142</ele><time>2026-03-24T10:08:17.372Z</time></trkpt><trkpt lat="46.6543538" lon="10.5707423"><ele>897.1428571428571</ele><time>2026-03-24T10:08:18.375Z</time></trkpt><trkpt lat="46.6542937" lon="10.5707977"><ele>897.0</ele><time>2026-03-24T10:08:19.36Z</time></trkpt><trkpt lat="46.6542331" lon="10.5708521"><ele>897.0</ele><time>2026-03-24T10:08:20.359Z</time></trkpt><trkpt lat="46.6541722" lon="10.5709058"><ele>897.0</ele><time>2026-03-24T10:08:21.361Z</time></trkpt><trkpt lat="46.6541105" lon="10.5709607"><ele>897.0</ele><time>2026-03-24T10:08:22.367Z</time></trkpt><trkpt lat="46.6540488" lon="10.5710155"><ele>897.0</ele><time>2026-03-24T10:08:23.374Z</time></trkpt><trkpt lat="46.6539897" lon="10.5710667"><ele>897.0</ele><time>2026-03-24T10:08:24.366Z</time></trkpt><trkpt lat="46.6539278" lon="10.5711197"><ele>897.0</ele><time>2026-03-24T10:08:25.364Z</time></trkpt><trkpt lat="46.6538667" lon="10.5711746"><ele>897.0</ele><time>2026-03-24T10:08:26.356Z</time></trkpt><trkpt lat="46.6538058" lon="10.571232"><ele>897.0</ele><time>2026-03-24T10:08:27.365Z</time></trkpt><trkpt lat="46.6537434" lon="10.5712886"><ele>897.0</ele><time>2026-03-24T10:08:28.362Z</time></trkpt><trkpt lat="46.6536811" lon="10.5713449"><ele>897.0</ele><time>2026-03-24T10:08:29.369Z</time></trkpt><trkpt lat="46.6536192" lon="10.5714003"><ele>897.0</ele><time>2026-03-24T10:08:30.365Z</time></trkpt><trkpt lat="46.6535573" lon="10.5714567"><ele>897.0</ele><time>2026-03-24T10:08:31.372Z</time></trkpt><trkpt lat="46.6534934" lon="10.5715143"><ele>897.0</ele><time>2026-03-24T10:08:32.365Z</time></trkpt><trkpt lat="46.6534292" lon="10.5715722"><ele>897.0</ele><time>2026-03-24T10:08:33.374Z</time></trkpt><trkpt lat="46.653366" lon="10.5716288"><ele>897.0</ele><time>2026-03-24T10:08:34.364Z</time></trkpt><trkpt lat="46.6533014" lon="10.5716888"><ele>897.0</ele><time>2026-03-24T10:08:35.375Z</time></trkpt><trkpt lat="46.6532375" lon="10.5717446"><ele>897.0</ele><time>2026-03-24T10:08:36.372Z</time></trkpt><trkpt lat="46.6531727" lon="10.5718018"><ele>897.0</ele><time>2026-03-24T10:08:37.366Z</time></trkpt><trkpt lat="46.6531072" lon="10.5718604"><ele>897.0</ele><time>2026-03-24T10:08:38.367Z</time></trkpt><trkpt lat="46.6530459" lon="10.5719144"><ele>897.0</ele><time>2026-03-24T10:08:39.366Z</time></trkpt><trkpt lat="46.6529815" lon="10.5719739"><ele>896.7142857142858</ele><time>2026-03-24T10:08:40.376Z</time></trkpt><trkpt lat="46.6529187" lon="10.5720303"><ele>896.4285714285713</ele><time>2026-03-24T10:08:41.361Z</time></trkpt><trkpt lat="46.6528542" lon="10.5720868"><ele>896.1428571428571</ele><time>2026-03-24T10:08:42.366Z</time></trkpt><trkpt lat="46.6527876" lon="10.57215"><ele>895.8571428571429</ele><time>2026-03-24T10:08:43.365Z</time></trkpt><trkpt lat="46.6527266" lon="10.5722098"><ele>895.5714285714287</ele><time>2026-03-24T10:08:44.377Z</time></trkpt><trkpt lat="46.6526626" lon="10.5722652"><ele>895.2857142857142</ele><time>2026-03-24T10:08:45.368Z</time></trkpt><trkpt lat="46.6525976" lon="10.5723127"><ele>895.0</ele><time>2026-03-24T10:08:46.361Z</time></trkpt><trkpt lat="46.6525348" lon="10.5723584"><ele>895.0</ele><time>2026-03-24T10:08:47.364Z</time></trkpt><trkpt lat="46.6524737" lon="10.5724052"><ele>895.0</ele><time>2026-03-24T10:08:48.368Z</time></trkpt><trkpt lat="46.6523744" lon="10.5724719"><ele>895.0</ele><time>2026-03-24T10:08:50.36Z</time></trkpt><trkpt lat="46.6522936" lon="10.5725452"><ele>895.0</ele><time>2026-03-24T10:08:52.368Z</time></trkpt><trkpt lat="46.6522143" lon="10.572652"><ele>895.0</ele><time>2026-03-24T10:08:54.37Z</time></trkpt><trkpt lat="46.6521161" lon="10.5727489"><ele>895.0</ele><time>2026-03-24T10:08:56.367Z</time></trkpt><trkpt lat="46.6520608" lon="10.572797"><ele>895.0</ele><time>2026-03-24T10:08:57.372Z</time></trkpt><trkpt lat="46.6520041" lon="10.5728492"><ele>895.0</ele><time>2026-03-24T10:08:58.366Z</time></trkpt><trkpt lat="46.6519471" lon="10.5728997"><ele>895.0</ele><time>2026-03-24T10:08:59.367Z</time></trkpt><trkpt lat="46.6518888" lon="10.5729517"><ele>895.0</ele><time>2026-03-24T10:09:00.367Z</time></trkpt><trkpt lat="46.6518323" lon="10.5730011"><ele>895.0</ele><time>2026-03-24T10:09:01.367Z</time></trkpt><trkpt lat="46.6517727" lon="10.5730536"><ele>895.0</ele><time>2026-03-24T10:09:02.362Z</time></trkpt><trkpt lat="46.6517109" lon="10.573108"><ele>895.1428571428571</ele><time>2026-03-24T10:09:03.372Z</time></trkpt><trkpt lat="46.6516474" lon="10.5731639"><ele>895.2857142857143</ele><time>2026-03-24T10:09:04.363Z</time></trkpt><trkpt lat="46.6515846" lon="10.5732199"><ele>895.4285714285714</ele><time>2026-03-24T10:09:05.363Z</time></trkpt><trkpt lat="46.6515229" lon="10.5732753"><ele>895.5714285714286</ele><time>2026-03-24T10:09:06.365Z</time></trkpt><trkpt lat="46.6514604" lon="10.5733333"><ele>895.7142857142858</ele><time>2026-03-24T10:09:07.366Z</time></trkpt><trkpt lat="46.651397" lon="10.5733879"><ele>895.8571428571429</ele><time>2026-03-24T10:09:08.369Z</time></trkpt><trkpt lat="46.651334" lon="10.5734414"><ele>896.0</ele><time>2026-03-24T10:09:09.374Z</time></trkpt><trkpt lat="46.6512715" lon="10.5734941"><ele>896.0</ele><time>2026-03-24T10:09:10.368Z</time></trkpt><trkpt lat="46.6512089" lon="10.5735515"><ele>896.0</ele><time>2026-03-24T10:09:11.369Z</time></trkpt><trkpt lat="46.651147" lon="10.573607"><ele>896.0</ele><time>2026-03-24T10:09:12.362Z</time></trkpt><trkpt lat="46.6510857" lon="10.5736655"><ele>896.0</ele><time>2026-03-24T10:09:13.367Z</time></trkpt><trkpt lat="46.6510224" lon="10.5737215"><ele>896.0</ele><time>2026-03-24T10:09:14.373Z</time></trkpt><trkpt lat="46.6509607" lon="10.5737758"><ele>896.0</ele><time>2026-03-24T10:09:15.361Z</time></trkpt><trkpt lat="46.6509001" lon="10.573829"><ele>896.0</ele><time>2026-03-24T10:09:16.356Z</time></trkpt><trkpt lat="46.6508368" lon="10.5738826"><ele>895.7142857142857</ele><time>2026-03-24T10:09:17.365Z</time></trkpt><trkpt lat="46.6507749" lon="10.5739397"><ele>895.4285714285714</ele><time>2026-03-24T10:09:18.364Z</time></trkpt><trkpt lat="46.6507157" lon="10.5739941"><ele>895.1428571428571</ele><time>2026-03-24T10:09:19.369Z</time></trkpt><trkpt lat="46.6506602" lon="10.5740467"><ele>894.8571428571429</ele><time>2026-03-24T10:09:20.369Z</time></trkpt><trkpt lat="46.650603" lon="10.5740992"><ele>894.5714285714286</ele><time>2026-03-24T10:09:21.37Z</time></trkpt><trkpt lat="46.6505447" lon="10.5741522"><ele>894.2857142857142</ele><time>2026-03-24T10:09:22.365Z</time></trkpt><trkpt lat="46.6504887" lon="10.574208"><ele>894.0</ele><time>2026-03-24T10:09:23.371Z</time></trkpt><trkpt lat="46.650427" lon="10.5742635"><ele>894.0</ele><time>2026-03-24T10:09:24.37Z</time></trkpt><trkpt lat="46.6503651" lon="10.5743197"><ele>894.0</ele><time>2026-03-24T10:09:25.355Z</time></trkpt><trkpt lat="46.650305" lon="10.5743758"><ele>894.0</ele><time>2026-03-24T10:09:26.367Z</time></trkpt><trkpt lat="46.6502395" lon="10.5744355"><ele>894.0</ele><time>2026-03-24T10:09:27.368Z</time></trkpt><trkpt lat="46.6501741" lon="10.5745016"><ele>894.0</ele><time>2026-03-24T10:09:28.37Z</time></trkpt><trkpt lat="46.6501036" lon="10.5745643"><ele>894.0</ele><time>2026-03-24T10:09:29.365Z</time></trkpt><trkpt lat="46.650036" lon="10.5746267"><ele>894.5</ele><time>2026-03-24T10:09:30.355Z</time></trkpt><trkpt lat="46.6499704" lon="10.5746876"><ele>895.0</ele><time>2026-03-24T10:09:31.368Z</time></trkpt><trkpt lat="46.6499048" lon="10.5747396"><ele>895.5</ele><time>2026-03-24T10:09:32.373Z</time></trkpt><trkpt lat="46.6498391" lon="10.5747927"><ele>896.0</ele><time>2026-03-24T10:09:33.374Z</time></trkpt><trkpt lat="46.6497741" lon="10.5748507"><ele>896.5</ele><time>2026-03-24T10:09:34.363Z</time></trkpt><trkpt lat="46.6497116" lon="10.5749056"><ele>897.0</ele><time>2026-03-24T10:09:35.377Z</time></trkpt><trkpt lat="46.6496479" lon="10.5749628"><ele>897.0</ele><time>2026-03-24T10:09:36.372Z</time></trkpt><trkpt lat="46.6495827" lon="10.5750196"><ele>897.0</ele><time>2026-03-24T10:09:37.371Z</time></trkpt><trkpt lat="46.6495197" lon="10.5750752"><ele>897.0</ele><time>2026-03-24T10:09:38.375Z</time></trkpt><trkpt lat="46.6494606" lon="10.5751303"><ele>897.0</ele><time>2026-03-24T10:09:39.354Z</time></trkpt><trkpt lat="46.6493988" lon="10.5751847"><ele>897.0</ele><time>2026-03-24T10:09:40.361Z</time></trkpt><trkpt lat="46.6493363" lon="10.5752388"><ele>897.0</ele><time>2026-03-24T10:09:41.365Z</time></trkpt><trkpt lat="46.6492738" lon="10.5752944"><ele>897.0</ele><time>2026-03-24T10:09:42.354Z</time></trkpt><trkpt lat="46.6492123" lon="10.5753494"><ele>897.1666666666666</ele><time>2026-03-24T10:09:43.363Z</time></trkpt><trkpt lat="46.649146" lon="10.5754082"><ele>897.3333333333333</ele><time>2026-03-24T10:09:44.36Z</time></trkpt><trkpt lat="46.6490773" lon="10.5754692"><ele>897.5</ele><time>2026-03-24T10:09:45.36Z</time></trkpt><trkpt lat="46.6490083" lon="10.5755313"><ele>897.6666666666666</ele><time>2026-03-24T10:09:46.368Z</time></trkpt><trkpt lat="46.6489417" lon="10.5755872"><ele>897.8333333333333</ele><time>2026-03-24T10:09:47.37Z</time></trkpt><trkpt lat="46.6488788" lon="10.5756414"><ele>898.0</ele><time>2026-03-24T10:09:48.362Z</time></trkpt><trkpt lat="46.6488148" lon="10.5756971"><ele>897.9999999999999</ele><time>2026-03-24T10:09:49.359Z</time></trkpt><trkpt lat="46.6487457" lon="10.5757542"><ele>898.0</ele><time>2026-03-24T10:09:50.368Z</time></trkpt><trkpt lat="46.6486814" lon="10.5758095"><ele>898.0</ele><time>2026-03-24T10:09:51.371Z</time></trkpt><trkpt lat="46.6486175" lon="10.575869"><ele>898.0</ele><time>2026-03-24T10:09:52.368Z</time></trkpt><trkpt lat="46.6485536" lon="10.5759262"><ele>897.9999999999999</ele><time>2026-03-24T10:09:53.372Z</time></trkpt><trkpt lat="46.6484895" lon="10.5759821"><ele>898.0</ele><time>2026-03-24T10:09:54.368Z</time></trkpt><trkpt lat="46.6484282" lon="10.5760348"><ele>897.5714285714286</ele><time>2026-03-24T10:09:55.371Z</time></trkpt><trkpt lat="46.6483636" lon="10.5760941"><ele>897.1428571428571</ele><time>2026-03-24T10:09:56.372Z</time></trkpt><trkpt lat="46.6483008" lon="10.5761497"><ele>896.7142857142857</ele><time>2026-03-24T10:09:57.377Z</time></trkpt><trkpt lat="46.6482361" lon="10.5762064"><ele>896.2857142857142</ele><time>2026-03-24T10:09:58.368Z</time></trkpt><trkpt lat="46.648173" lon="10.5762608"><ele>895.8571428571429</ele><time>2026-03-24T10:09:59.36Z</time></trkpt><trkpt lat="46.6481114" lon="10.5763132"><ele>895.4285714285713</ele><time>2026-03-24T10:10:00.375Z</time></trkpt><trkpt lat="46.6480508" lon="10.576364"><ele>895.0</ele><time>2026-03-24T10:10:01.384Z</time></trkpt><trkpt lat="46.6479913" lon="10.5764167"><ele>895.0</ele><time>2026-03-24T10:10:02.366Z</time></trkpt><trkpt lat="46.647933" lon="10.5764721"><ele>895.0</ele><time>2026-03-24T10:10:03.356Z</time></trkpt><trkpt lat="46.6478755" lon="10.5765262"><ele>895.0</ele><time>2026-03-24T10:10:04.371Z</time></trkpt><trkpt lat="46.6478191" lon="10.5765832"><ele>895.0</ele><time>2026-03-24T10:10:05.371Z</time></trkpt><trkpt lat="46.6477618" lon="10.5766404"><ele>895.0</ele><time>2026-03-24T10:10:06.374Z</time></trkpt><trkpt lat="46.6477051" lon="10.5767013"><ele>895.0</ele><time>2026-03-24T10:10:07.379Z</time></trkpt><trkpt lat="46.6476482" lon="10.5767646"><ele>895.0</ele><time>2026-03-24T10:10:08.369Z</time></trkpt><trkpt lat="46.6475902" lon="10.5768263"><ele>895.1428571428571</ele><time>2026-03-24T10:10:09.374Z</time></trkpt><trkpt lat="46.6475329" lon="10.57689"><ele>895.2857142857143</ele><time>2026-03-24T10:10:10.365Z</time></trkpt><trkpt lat="46.6474758" lon="10.5769545"><ele>895.4285714285714</ele><time>2026-03-24T10:10:11.361Z</time></trkpt><trkpt lat="46.6474203" lon="10.5770191"><ele>895.5714285714286</ele><time>2026-03-24T10:10:12.359Z</time></trkpt><trkpt lat="46.6473655" lon="10.5770862"><ele>895.7142857142858</ele><time>2026-03-24T10:10:13.372Z</time></trkpt><trkpt lat="46.64731" lon="10.577153"><ele>895.8571428571429</ele><time>2026-03-24T10:10:14.356Z</time></trkpt><trkpt lat="46.6472533" lon="10.5772199"><ele>896.0</ele><time>2026-03-24T10:10:15.364Z</time></trkpt><trkpt lat="46.6471977" lon="10.5772864"><ele>896.0</ele><time>2026-03-24T10:10:16.368Z</time></trkpt><trkpt lat="46.647143" lon="10.5773533"><ele>896.0</ele><time>2026-03-24T10:10:17.366Z</time></trkpt><trkpt lat="46.6470884" lon="10.5774211"><ele>896.0</ele><time>2026-03-24T10:10:18.372Z</time></trkpt><trkpt lat="46.6470347" lon="10.5774897"><ele>896.0</ele><time>2026-03-24T10:10:19.364Z</time></trkpt><trkpt lat="46.6469806" lon="10.5775582"><ele>896.0</ele><time>2026-03-24T10:10:20.363Z</time></trkpt><trkpt lat="46.6469263" lon="10.5776266"><ele>896.0</ele><time>2026-03-24T10:10:21.364Z</time></trkpt><trkpt lat="46.6468727" lon="10.5776968"><ele>896.0</ele><time>2026-03-24T10:10:22.37Z</time></trkpt><trkpt lat="46.6468197" lon="10.5777689"><ele>895.8571428571429</ele><time>2026-03-24T10:10:23.381Z</time></trkpt><trkpt lat="46.6467687" lon="10.5778361"><ele>895.7142857142858</ele><time>2026-03-24T10:10:24.365Z</time></trkpt><trkpt lat="46.6467154" lon="10.5779076"><ele>895.5714285714286</ele><time>2026-03-24T10:10:25.377Z</time></trkpt><trkpt lat="46.6466637" lon="10.5779826"><ele>895.4285714285714</ele><time>2026-03-24T10:10:26.362Z</time></trkpt><trkpt lat="46.6466111" lon="10.5780594"><ele>895.2857142857143</ele><time>2026-03-24T10:10:27.376Z</time></trkpt><trkpt lat="46.6465596" lon="10.5781376"><ele>895.1428571428571</ele><time>2026-03-24T10:10:28.362Z</time></trkpt><trkpt lat="46.6465067" lon="10.5782179"><ele>895.0</ele><time>2026-03-24T10:10:29.365Z</time></trkpt><trkpt lat="46.6464562" lon="10.5782985"><ele>895.0</ele><time>2026-03-24T10:10:30.377Z</time></trkpt><trkpt lat="46.6464092" lon="10.5783709"><ele>895.0</ele><time>2026-03-24T10:10:31.367Z</time></trkpt><trkpt lat="46.6463639" lon="10.5784438"><ele>895.0</ele><time>2026-03-24T10:10:32.373Z</time></trkpt><trkpt lat="46.6463164" lon="10.5785216"><ele>895.0</ele><time>2026-03-24T10:10:33.363Z</time></trkpt><trkpt lat="46.6462643" lon="10.5786078"><ele>895.0</ele><time>2026-03-24T10:10:34.373Z</time></trkpt><trkpt lat="46.6462124" lon="10.5786926"><ele>895.0</ele><time>2026-03-24T10:10:35.365Z</time></trkpt><trkpt lat="46.646159" lon="10.578775"><ele>895.0</ele><time>2026-03-24T10:10:36.371Z</time></trkpt><trkpt lat="46.6461105" lon="10.5788515"><ele>894.8571428571428</ele><time>2026-03-24T10:10:37.363Z</time></trkpt><trkpt lat="46.6460635" lon="10.5789344"><ele>894.7142857142858</ele><time>2026-03-24T10:10:38.364Z</time></trkpt><trkpt lat="46.6460178" lon="10.5790157"><ele>894.5714285714286</ele><time>2026-03-24T10:10:39.369Z</time></trkpt><trkpt lat="46.6459725" lon="10.5791015"><ele>894.4285714285713</ele><time>2026-03-24T10:10:40.365Z</time></trkpt><trkpt lat="46.6459299" lon="10.5791883"><ele>894.2857142857142</ele><time>2026-03-24T10:10:41.36Z</time></trkpt><trkpt lat="46.6458889" lon="10.5792746"><ele>894.1428571428571</ele><time>2026-03-24T10:10:42.364Z</time></trkpt><trkpt lat="46.6458482" lon="10.5793609"><ele>894.0</ele><time>2026-03-24T10:10:43.368Z</time></trkpt><trkpt lat="46.6458091" lon="10.5794476"><ele>893.9999999999999</ele><time>2026-03-24T10:10:44.37Z</time></trkpt><trkpt lat="46.645769" lon="10.5795344"><ele>894.0</ele><time>2026-03-24T10:10:45.368Z</time></trkpt><trkpt lat="46.6457274" lon="10.5796207"><ele>894.0</ele><time>2026-03-24T10:10:46.37Z</time></trkpt><trkpt lat="46.6456869" lon="10.5797086"><ele>894.0</ele><time>2026-03-24T10:10:47.365Z</time></trkpt><trkpt lat="46.6456467" lon="10.5797981"><ele>894.0</ele><time>2026-03-24T10:10:48.373Z</time></trkpt><trkpt lat="46.6456056" lon="10.5798872"><ele>893.9999999999999</ele><time>2026-03-24T10:10:49.362Z</time></trkpt><trkpt lat="46.6455653" lon="10.5799763"><ele>894.0</ele><time>2026-03-24T10:10:50.369Z</time></trkpt><trkpt lat="46.6455248" lon="10.5800666"><ele>893.9999999999999</ele><time>2026-03-24T10:10:51.367Z</time></trkpt><trkpt lat="46.6454858" lon="10.5801592"><ele>894.0</ele><time>2026-03-24T10:10:52.367Z</time></trkpt><trkpt lat="46.6454483" lon="10.5802524"><ele>894.0</ele><time>2026-03-24T10:10:53.368Z</time></trkpt><trkpt lat="46.645411" lon="10.5803452"><ele>894.0</ele><time>2026-03-24T10:10:54.363Z</time></trkpt><trkpt lat="46.6453759" lon="10.580438"><ele>894.0</ele><time>2026-03-24T10:10:55.367Z</time></trkpt><trkpt lat="46.6453396" lon="10.5805315"><ele>893.9999999999999</ele><time>2026-03-24T10:10:56.368Z</time></trkpt><trkpt lat="46.6453035" lon="10.5806259"><ele>894.0</ele><time>2026-03-24T10:10:57.364Z</time></trkpt><trkpt lat="46.6452667" lon="10.5807207"><ele>893.8571428571428</ele><time>2026-03-24T10:10:58.385Z</time></trkpt><trkpt lat="46.6452302" lon="10.5808141"><ele>893.7142857142857</ele><time>2026-03-24T10:10:59.371Z</time></trkpt><trkpt lat="46.6451926" lon="10.5809081"><ele>893.5714285714286</ele><time>2026-03-24T10:11:00.366Z</time></trkpt><trkpt lat="46.6451573" lon="10.5810028"><ele>893.4285714285713</ele><time>2026-03-24T10:11:01.366Z</time></trkpt><trkpt lat="46.6451212" lon="10.5810983"><ele>893.2857142857143</ele><time>2026-03-24T10:11:02.363Z</time></trkpt><trkpt lat="46.645085" lon="10.581194"><ele>893.1428571428571</ele><time>2026-03-24T10:11:03.373Z</time></trkpt><trkpt lat="46.6450475" lon="10.5812892"><ele>893.0</ele><time>2026-03-24T10:11:04.369Z</time></trkpt><trkpt lat="46.6450106" lon="10.5813841"><ele>893.0000000000001</ele><time>2026-03-24T10:11:05.373Z</time></trkpt><trkpt lat="46.644973" lon="10.5814794"><ele>893.0</ele><time>2026-03-24T10:11:06.372Z</time></trkpt><trkpt lat="46.6449347" lon="10.5815749"><ele>893.0</ele><time>2026-03-24T10:11:07.378Z</time></trkpt><trkpt lat="46.6448967" lon="10.5816708"><ele>893.0</ele><time>2026-03-24T10:11:08.37Z</time></trkpt><trkpt lat="46.6448584" lon="10.5817654"><ele>893.0000000000001</ele><time>2026-03-24T10:11:09.365Z</time></trkpt><trkpt lat="46.6448202" lon="10.5818595"><ele>893.0</ele><time>2026-03-24T10:11:10.369Z</time></trkpt><trkpt lat="46.6447822" lon="10.5819554"><ele>893.3333333333334</ele><time>2026-03-24T10:11:11.374Z</time></trkpt><trkpt lat="46.6447422" lon="10.5820523"><ele>893.6666666666667</ele><time>2026-03-24T10:11:12.367Z</time></trkpt><trkpt lat="46.6447037" lon="10.5821491"><ele>894.0</ele><time>2026-03-24T10:11:13.367Z</time></trkpt><trkpt lat="46.6446665" lon="10.5822443"><ele>894.3333333333333</ele><time>2026-03-24T10:11:14.377Z</time></trkpt><trkpt lat="46.6446298" lon="10.5823415"><ele>894.6666666666666</ele><time>2026-03-24T10:11:15.369Z</time></trkpt><trkpt lat="46.6445918" lon="10.5824387"><ele>895.0</ele><time>2026-03-24T10:11:16.375Z</time></trkpt><trkpt lat="46.6445548" lon="10.5825348"><ele>894.9999999999999</ele><time>2026-03-24T10:11:17.373Z</time></trkpt><trkpt lat="46.6445172" lon="10.5826291"><ele>895.0</ele><time>2026-03-24T10:11:18.363Z</time></trkpt><trkpt lat="46.6444806" lon="10.5827255"><ele>895.0</ele><time>2026-03-24T10:11:19.36Z</time></trkpt><trkpt lat="46.644443" lon="10.5828217"><ele>895.0</ele><time>2026-03-24T10:11:20.37Z</time></trkpt><trkpt lat="46.6444055" lon="10.5829168"><ele>894.9999999999999</ele><time>2026-03-24T10:11:21.387Z</time></trkpt><trkpt lat="46.6443676" lon="10.5830123"><ele>895.0</ele><time>2026-03-24T10:11:22.372Z</time></trkpt><trkpt lat="46.6443291" lon="10.5831069"><ele>894.8571428571428</ele><time>2026-03-24T10:11:23.374Z</time></trkpt><trkpt lat="46.6442925" lon="10.5832016"><ele>894.7142857142858</ele><time>2026-03-24T10:11:24.366Z</time></trkpt><trkpt lat="46.6442558" lon="10.5832959"><ele>894.5714285714286</ele><time>2026-03-24T10:11:25.365Z</time></trkpt><trkpt lat="46.6442177" lon="10.5833888"><ele>894.4285714285713</ele><time>2026-03-24T10:11:26.36Z</time></trkpt><trkpt lat="46.64418" lon="10.5834809"><ele>894.2857142857142</ele><time>2026-03-24T10:11:27.367Z</time></trkpt><trkpt lat="46.6441411" lon="10.5835731"><ele>894.1428571428571</ele><time>2026-03-24T10:11:28.368Z</time></trkpt><trkpt lat="46.6441044" lon="10.583666"><ele>894.0</ele><time>2026-03-24T10:11:29.372Z</time></trkpt><trkpt lat="46.6440683" lon="10.5837595"><ele>893.9999999999999</ele><time>2026-03-24T10:11:30.369Z</time></trkpt><trkpt lat="46.6440317" lon="10.5838535"><ele>894.0</ele><time>2026-03-24T10:11:31.368Z</time></trkpt><trkpt lat="46.643994" lon="10.5839482"><ele>894.0</ele><time>2026-03-24T10:11:32.369Z</time></trkpt><trkpt lat="46.6439575" lon="10.5840431"><ele>894.0</ele><time>2026-03-24T10:11:33.362Z</time></trkpt><trkpt lat="46.6439205" lon="10.5841376"><ele>894.0</ele><time>2026-03-24T10:11:34.358Z</time></trkpt><trkpt lat="46.6438855" lon="10.5842335"><ele>893.9999999999999</ele><time>2026-03-24T10:11:35.354Z</time></trkpt><trkpt lat="46.6438506" lon="10.5843293"><ele>894.0</ele><time>2026-03-24T10:11:36.37Z</time></trkpt><trkpt lat="46.6438168" lon="10.5844222"><ele>893.9999999999999</ele><time>2026-03-24T10:11:37.366Z</time></trkpt><trkpt lat="46.6437807" lon="10.584513"><ele>894.0</ele><time>2026-03-24T10:11:38.371Z</time></trkpt><trkpt lat="46.6437445" lon="10.5846076"><ele>894.0</ele><time>2026-03-24T10:11:39.373Z</time></trkpt><trkpt lat="46.6437076" lon="10.5847027"><ele>894.0</ele><time>2026-03-24T10:11:40.367Z</time></trkpt><trkpt lat="46.643672" lon="10.5847965"><ele>894.0</ele><time>2026-03-24T10:11:41.362Z</time></trkpt><trkpt lat="46.6436366" lon="10.5848918"><ele>893.9999999999999</ele><time>2026-03-24T10:11:42.373Z</time></trkpt><trkpt lat="46.6436009" lon="10.5849875"><ele>894.0</ele><time>2026-03-24T10:11:43.367Z</time></trkpt><trkpt lat="46.6435656" lon="10.5850821"><ele>893.9999999999999</ele><time>2026-03-24T10:11:44.37Z</time></trkpt><trkpt lat="46.6435316" lon="10.5851758"><ele>894.0</ele><time>2026-03-24T10:11:45.376Z</time></trkpt><trkpt lat="46.643495" lon="10.5852748"><ele>894.0</ele><time>2026-03-24T10:11:46.363Z</time></trkpt><trkpt lat="46.6434578" lon="10.5853704"><ele>894.0</ele><time>2026-03-24T10:11:47.375Z</time></trkpt><trkpt lat="46.6434204" lon="10.585464"><ele>894.0</ele><time>2026-03-24T10:11:48.361Z</time></trkpt><trkpt lat="46.643383" lon="10.5855566"><ele>893.9999999999999</ele><time>2026-03-24T10:11:49.373Z</time></trkpt><trkpt lat="46.6433465" lon="10.5856492"><ele>894.0</ele><time>2026-03-24T10:11:50.37Z</time></trkpt><trkpt lat="46.6433109" lon="10.5857429"><ele>893.7142857142857</ele><time>2026-03-24T10:11:51.365Z</time></trkpt><trkpt lat="46.6432759" lon="10.5858356"><ele>893.4285714285714</ele><time>2026-03-24T10:11:52.361Z</time></trkpt><trkpt lat="46.6432403" lon="10.5859279"><ele>893.1428571428571</ele><time>2026-03-24T10:11:53.362Z</time></trkpt><trkpt lat="46.6432046" lon="10.58602"><ele>892.8571428571429</ele><time>2026-03-24T10:11:54.359Z</time></trkpt><trkpt lat="46.6431688" lon="10.586111"><ele>892.5714285714286</ele><time>2026-03-24T10:11:55.373Z</time></trkpt><trkpt lat="46.6431349" lon="10.5862021"><ele>892.2857142857142</ele><time>2026-03-24T10:11:56.374Z</time></trkpt><trkpt lat="46.6430989" lon="10.5862917"><ele>892.0</ele><time>2026-03-24T10:11:57.372Z</time></trkpt><trkpt lat="46.6430641" lon="10.5863822"><ele>892.0</ele><time>2026-03-24T10:11:58.367Z</time></trkpt><trkpt lat="46.6430288" lon="10.5864743"><ele>892.0</ele><time>2026-03-24T10:11:59.369Z</time></trkpt><trkpt lat="46.6429944" lon="10.5865672"><ele>892.0</ele><time>2026-03-24T10:12:00.356Z</time></trkpt><trkpt lat="46.6429612" lon="10.5866559"><ele>892.0</ele><time>2026-03-24T10:12:01.362Z</time></trkpt><trkpt lat="46.6429271" lon="10.5867478"><ele>892.0</ele><time>2026-03-24T10:12:02.365Z</time></trkpt><trkpt lat="46.6428925" lon="10.5868386"><ele>892.0</ele><time>2026-03-24T10:12:03.374Z</time></trkpt><trkpt lat="46.6428568" lon="10.5869298"><ele>892.0</ele><time>2026-03-24T10:12:04.372Z</time></trkpt><trkpt lat="46.6428206" lon="10.5870207"><ele>892.0</ele><time>2026-03-24T10:12:05.365Z</time></trkpt><trkpt lat="46.6427855" lon="10.58711"><ele>892.0</ele><time>2026-03-24T10:12:06.364Z</time></trkpt><trkpt lat="46.6427498" lon="10.5872003"><ele>892.0</ele><time>2026-03-24T10:12:07.374Z</time></trkpt><trkpt lat="46.6427139" lon="10.5872926"><ele>892.0</ele><time>2026-03-24T10:12:08.359Z</time></trkpt><trkpt lat="46.6426783" lon="10.5873853"><ele>892.0</ele><time>2026-03-24T10:12:09.366Z</time></trkpt><trkpt lat="46.6426419" lon="10.587477"><ele>892.0</ele><time>2026-03-24T10:12:10.365Z</time></trkpt><trkpt lat="46.6426056" lon="10.5875735"><ele>892.0</ele><time>2026-03-24T10:12:11.362Z</time></trkpt><trkpt lat="46.6425706" lon="10.587665"><ele>892.0</ele><time>2026-03-24T10:12:12.366Z</time></trkpt><trkpt lat="46.6425335" lon="10.5877593"><ele>892.0</ele><time>2026-03-24T10:12:13.369Z</time></trkpt><trkpt lat="46.6424949" lon="10.5878538"><ele>892.0</ele><time>2026-03-24T10:12:14.365Z</time></trkpt><trkpt lat="46.6424588" lon="10.5879485"><ele>892.0</ele><time>2026-03-24T10:12:15.361Z</time></trkpt><trkpt lat="46.6424243" lon="10.5880411"><ele>892.0</ele><time>2026-03-24T10:12:16.366Z</time></trkpt><trkpt lat="46.6423876" lon="10.5881412"><ele>892.0</ele><time>2026-03-24T10:12:17.364Z</time></trkpt><trkpt lat="46.6423528" lon="10.5882312"><ele>892.0</ele><time>2026-03-24T10:12:18.371Z</time></trkpt><trkpt lat="46.6423146" lon="10.5883213"><ele>892.0</ele><time>2026-03-24T10:12:19.373Z</time></trkpt><trkpt lat="46.6422745" lon="10.5884139"><ele>892.0</ele><time>2026-03-24T10:12:20.368Z</time></trkpt><trkpt lat="46.6422382" lon="10.5885002"><ele>892.0</ele><time>2026-03-24T10:12:21.366Z</time></trkpt><trkpt lat="46.6422032" lon="10.5885919"><ele>892.0</ele><time>2026-03-24T10:12:22.371Z</time></trkpt><trkpt lat="46.6421668" lon="10.5886805"><ele>892.0</ele><time>2026-03-24T10:12:23.365Z</time></trkpt><trkpt lat="46.6421316" lon="10.5887717"><ele>892.0</ele><time>2026-03-24T10:12:24.364Z</time></trkpt><trkpt lat="46.6420986" lon="10.5888623"><ele>892.0</ele><time>2026-03-24T10:12:25.364Z</time></trkpt><trkpt lat="46.6420623" lon="10.588954"><ele>892.0</ele><time>2026-03-24T10:12:26.368Z</time></trkpt><trkpt lat="46.6420281" lon="10.5890432"><ele>892.0</ele><time>2026-03-24T10:12:27.365Z</time></trkpt><trkpt lat="46.6419945" lon="10.5891319"><ele>892.0</ele><time>2026-03-24T10:12:28.367Z</time></trkpt><trkpt lat="46.6419629" lon="10.5892216"><ele>892.0</ele><time>2026-03-24T10:12:29.363Z</time></trkpt><trkpt lat="46.6419326" lon="10.5893075"><ele>892.0</ele><time>2026-03-24T10:12:30.36Z</time></trkpt><trkpt lat="46.6418979" lon="10.5893992"><ele>892.0</ele><time>2026-03-24T10:12:31.367Z</time></trkpt><trkpt lat="46.6418645" lon="10.5894871"><ele>892.0</ele><time>2026-03-24T10:12:32.364Z</time></trkpt><trkpt lat="46.6418311" lon="10.5895842"><ele>892.1428571428571</ele><time>2026-03-24T10:12:33.37Z</time></trkpt><trkpt lat="46.6417978" lon="10.5896778"><ele>892.2857142857142</ele><time>2026-03-24T10:12:34.366Z</time></trkpt><trkpt lat="46.6417629" lon="10.5897687"><ele>892.4285714285714</ele><time>2026-03-24T10:12:35.372Z</time></trkpt><trkpt lat="46.6417285" lon="10.5898592"><ele>892.5714285714286</ele><time>2026-03-24T10:12:36.372Z</time></trkpt><trkpt lat="46.6416941" lon="10.5899463"><ele>892.7142857142858</ele><time>2026-03-24T10:12:37.373Z</time></trkpt><trkpt lat="46.6416601" lon="10.5900345"><ele>892.8571428571429</ele><time>2026-03-24T10:12:38.375Z</time></trkpt><trkpt lat="46.6416255" lon="10.5901212"><ele>893.0</ele><time>2026-03-24T10:12:39.364Z</time></trkpt><trkpt lat="46.6415899" lon="10.5902109"><ele>893.0</ele><time>2026-03-24T10:12:40.359Z</time></trkpt><trkpt lat="46.6415563" lon="10.5903018"><ele>893.0</ele><time>2026-03-24T10:12:41.363Z</time></trkpt><trkpt lat="46.6415212" lon="10.5903911"><ele>893.0</ele><time>2026-03-24T10:12:42.365Z</time></trkpt><trkpt lat="46.6414834" lon="10.5904811"><ele>893.0</ele><time>2026-03-24T10:12:43.364Z</time></trkpt><trkpt lat="46.6414464" lon="10.590571"><ele>893.0</ele><time>2026-03-24T10:12:44.366Z</time></trkpt><trkpt lat="46.6414093" lon="10.5906599"><ele>893.0</ele><time>2026-03-24T10:12:45.368Z</time></trkpt><trkpt lat="46.6413725" lon="10.5907476"><ele>893.0</ele><time>2026-03-24T10:12:46.374Z</time></trkpt><trkpt lat="46.6413317" lon="10.5908427"><ele>892.7142857142858</ele><time>2026-03-24T10:12:47.369Z</time></trkpt><trkpt lat="46.6412937" lon="10.5909309"><ele>892.4285714285714</ele><time>2026-03-24T10:12:48.364Z</time></trkpt><trkpt lat="46.6412574" lon="10.5910171"><ele>892.1428571428571</ele><time>2026-03-24T10:12:49.363Z</time></trkpt><trkpt lat="46.6412205" lon="10.5911018"><ele>891.8571428571429</ele><time>2026-03-24T10:12:50.366Z</time></trkpt><trkpt lat="46.6411858" lon="10.5911886"><ele>891.5714285714286</ele><time>2026-03-24T10:12:51.358Z</time></trkpt><trkpt lat="46.6411507" lon="10.5912755"><ele>891.2857142857143</ele><time>2026-03-24T10:12:52.366Z</time></trkpt><trkpt lat="46.6411154" lon="10.5913609"><ele>891.0</ele><time>2026-03-24T10:12:53.357Z</time></trkpt><trkpt lat="46.641081" lon="10.5914473"><ele>890.5714285714287</ele><time>2026-03-24T10:12:54.368Z</time></trkpt><trkpt lat="46.6410471" lon="10.5915343"><ele>890.1428571428571</ele><time>2026-03-24T10:12:55.366Z</time></trkpt><trkpt lat="46.6410134" lon="10.5916221"><ele>889.7142857142858</ele><time>2026-03-24T10:12:56.366Z</time></trkpt><trkpt lat="46.6409784" lon="10.5917086"><ele>889.2857142857143</ele><time>2026-03-24T10:12:57.371Z</time></trkpt><trkpt lat="46.6409432" lon="10.5917978"><ele>888.8571428571429</ele><time>2026-03-24T10:12:58.362Z</time></trkpt><trkpt lat="46.6409091" lon="10.5918862"><ele>888.4285714285714</ele><time>2026-03-24T10:12:59.368Z</time></trkpt><trkpt lat="46.6408738" lon="10.5919733"><ele>888.0</ele><time>2026-03-24T10:13:00.369Z</time></trkpt><trkpt lat="46.6408398" lon="10.5920612"><ele>887.5714285714286</ele><time>2026-03-24T10:13:01.361Z</time></trkpt><trkpt lat="46.6408067" lon="10.5921494"><ele>887.1428571428572</ele><time>2026-03-24T10:13:02.362Z</time></trkpt><trkpt lat="46.6407731" lon="10.5922396"><ele>886.7142857142858</ele><time>2026-03-24T10:13:03.363Z</time></trkpt><trkpt lat="46.6407392" lon="10.5923289"><ele>886.2857142857142</ele><time>2026-03-24T10:13:04.365Z</time></trkpt><trkpt lat="46.6407038" lon="10.5924177"><ele>885.8571428571429</ele><time>2026-03-24T10:13:05.367Z</time></trkpt><trkpt lat="46.6406679" lon="10.5925063"><ele>885.4285714285714</ele><time>2026-03-24T10:13:06.363Z</time></trkpt><trkpt lat="46.6406335" lon="10.5925966"><ele>885.0</ele><time>2026-03-24T10:13:07.371Z</time></trkpt><trkpt lat="46.6405986" lon="10.5926876"><ele>885.0</ele><time>2026-03-24T10:13:08.364Z</time></trkpt><trkpt lat="46.6405649" lon="10.5927795"><ele>885.0</ele><time>2026-03-24T10:13:09.365Z</time></trkpt><trkpt lat="46.6405301" lon="10.5928704"><ele>885.0</ele><time>2026-03-24T10:13:10.371Z</time></trkpt><trkpt lat="46.6404945" lon="10.5929604"><ele>885.0</ele><time>2026-03-24T10:13:11.364Z</time></trkpt><trkpt lat="46.6404605" lon="10.5930516"><ele>885.0</ele><time>2026-03-24T10:13:12.366Z</time></trkpt><trkpt lat="46.640426" lon="10.5931423"><ele>885.0</ele><time>2026-03-24T10:13:13.37Z</time></trkpt><trkpt lat="46.6403906" lon="10.5932334"><ele>885.0</ele><time>2026-03-24T10:13:14.371Z</time></trkpt><trkpt lat="46.6403558" lon="10.5933241"><ele>885.1428571428571</ele><time>2026-03-24T10:13:15.378Z</time></trkpt><trkpt lat="46.6403195" lon="10.5934142"><ele>885.2857142857142</ele><time>2026-03-24T10:13:16.372Z</time></trkpt><trkpt lat="46.640283" lon="10.5935037"><ele>885.4285714285714</ele><time>2026-03-24T10:13:17.362Z</time></trkpt><trkpt lat="46.640247" lon="10.5935936"><ele>885.5714285714286</ele><time>2026-03-24T10:13:18.373Z</time></trkpt><trkpt lat="46.6402109" lon="10.5936835"><ele>885.7142857142858</ele><time>2026-03-24T10:13:19.372Z</time></trkpt><trkpt lat="46.6401758" lon="10.5937739"><ele>885.8571428571429</ele><time>2026-03-24T10:13:20.376Z</time></trkpt><trkpt lat="46.6401412" lon="10.5938647"><ele>886.0</ele><time>2026-03-24T10:13:21.371Z</time></trkpt><trkpt lat="46.6401065" lon="10.5939554"><ele>886.0</ele><time>2026-03-24T10:13:22.363Z</time></trkpt><trkpt lat="46.6400712" lon="10.5940457"><ele>886.0</ele><time>2026-03-24T10:13:23.365Z</time></trkpt><trkpt lat="46.6400359" lon="10.5941364"><ele>886.0</ele><time>2026-03-24T10:13:24.363Z</time></trkpt><trkpt lat="46.6399999" lon="10.5942264"><ele>886.0</ele><time>2026-03-24T10:13:25.359Z</time></trkpt><trkpt lat="46.6399646" lon="10.5943175"><ele>886.0</ele><time>2026-03-24T10:13:26.368Z</time></trkpt><trkpt lat="46.6399298" lon="10.5944089"><ele>886.0</ele><time>2026-03-24T10:13:27.377Z</time></trkpt><trkpt lat="46.6398957" lon="10.5945014"><ele>886.0</ele><time>2026-03-24T10:13:28.369Z</time></trkpt><trkpt lat="46.6398614" lon="10.5945942"><ele>886.1428571428571</ele><time>2026-03-24T10:13:29.365Z</time></trkpt><trkpt lat="46.639826" lon="10.5946872"><ele>886.2857142857143</ele><time>2026-03-24T10:13:30.37Z</time></trkpt><trkpt lat="46.6397909" lon="10.5947809"><ele>886.4285714285713</ele><time>2026-03-24T10:13:31.361Z</time></trkpt><trkpt lat="46.639755" lon="10.594875"><ele>886.5714285714286</ele><time>2026-03-24T10:13:32.37Z</time></trkpt><trkpt lat="46.6397183" lon="10.5949676"><ele>886.7142857142857</ele><time>2026-03-24T10:13:33.363Z</time></trkpt><trkpt lat="46.6396819" lon="10.5950616"><ele>886.8571428571428</ele><time>2026-03-24T10:13:34.372Z</time></trkpt><trkpt lat="46.6396451" lon="10.5951557"><ele>887.0</ele><time>2026-03-24T10:13:35.365Z</time></trkpt><trkpt lat="46.6396082" lon="10.5952499"><ele>886.8571428571428</ele><time>2026-03-24T10:13:36.363Z</time></trkpt><trkpt lat="46.6395728" lon="10.5953403"><ele>886.7142857142857</ele><time>2026-03-24T10:13:37.363Z</time></trkpt><trkpt lat="46.6395366" lon="10.5954312"><ele>886.5714285714286</ele><time>2026-03-24T10:13:38.379Z</time></trkpt><trkpt lat="46.6395001" lon="10.5955261"><ele>886.4285714285713</ele><time>2026-03-24T10:13:39.357Z</time></trkpt><trkpt lat="46.6394647" lon="10.5956191"><ele>886.2857142857143</ele><time>2026-03-24T10:13:40.367Z</time></trkpt><trkpt lat="46.6394298" lon="10.5957129"><ele>886.1428571428571</ele><time>2026-03-24T10:13:41.362Z</time></trkpt><trkpt lat="46.6393951" lon="10.595807"><ele>886.0</ele><time>2026-03-24T10:13:42.369Z</time></trkpt><trkpt lat="46.6393598" lon="10.5959008"><ele>886.0</ele><time>2026-03-24T10:13:43.366Z</time></trkpt><trkpt lat="46.6393253" lon="10.5959931"><ele>886.0</ele><time>2026-03-24T10:13:44.368Z</time></trkpt><trkpt lat="46.6392917" lon="10.5960862"><ele>886.0</ele><time>2026-03-24T10:13:45.368Z</time></trkpt><trkpt lat="46.6392585" lon="10.5961803"><ele>886.0</ele><time>2026-03-24T10:13:46.362Z</time></trkpt><trkpt lat="46.6392243" lon="10.5962733"><ele>886.0</ele><time>2026-03-24T10:13:47.362Z</time></trkpt><trkpt lat="46.6391908" lon="10.596365"><ele>886.0</ele><time>2026-03-24T10:13:48.362Z</time></trkpt><trkpt lat="46.6391579" lon="10.5964605"><ele>886.0</ele><time>2026-03-24T10:13:49.372Z</time></trkpt><trkpt lat="46.639125" lon="10.5965548"><ele>886.0</ele><time>2026-03-24T10:13:50.371Z</time></trkpt><trkpt lat="46.6390912" lon="10.5966469"><ele>886.0</ele><time>2026-03-24T10:13:51.369Z</time></trkpt><trkpt lat="46.6390549" lon="10.5967396"><ele>886.0</ele><time>2026-03-24T10:13:52.364Z</time></trkpt><trkpt lat="46.63902" lon="10.5968339"><ele>886.0</ele><time>2026-03-24T10:13:53.368Z</time></trkpt><trkpt lat="46.6389842" lon="10.5969282"><ele>886.0</ele><time>2026-03-24T10:13:54.368Z</time></trkpt><trkpt lat="46.6389486" lon="10.5970241"><ele>886.0</ele><time>2026-03-24T10:13:55.377Z</time></trkpt><trkpt lat="46.6389147" lon="10.5971182"><ele>886.0</ele><time>2026-03-24T10:13:56.367Z</time></trkpt><trkpt lat="46.6388798" lon="10.5972121"><ele>886.0</ele><time>2026-03-24T10:13:57.364Z</time></trkpt><trkpt lat="46.6388454" lon="10.5973069"><ele>886.0</ele><time>2026-03-24T10:13:58.363Z</time></trkpt><trkpt lat="46.6388111" lon="10.5974013"><ele>886.0</ele><time>2026-03-24T10:13:59.37Z</time></trkpt><trkpt lat="46.6387765" lon="10.5974938"><ele>886.0</ele><time>2026-03-24T10:14:00.37Z</time></trkpt><trkpt lat="46.6387426" lon="10.5975856"><ele>886.0</ele><time>2026-03-24T10:14:01.365Z</time></trkpt><trkpt lat="46.6387089" lon="10.5976757"><ele>886.0</ele><time>2026-03-24T10:14:02.372Z</time></trkpt><trkpt lat="46.638675" lon="10.5977646"><ele>886.0</ele><time>2026-03-24T10:14:03.369Z</time></trkpt><trkpt lat="46.6386376" lon="10.5978518"><ele>886.3333333333333</ele><time>2026-03-24T10:14:04.367Z</time></trkpt><trkpt lat="46.6385944" lon="10.5979379"><ele>886.6666666666666</ele><time>2026-03-24T10:14:05.37Z</time></trkpt><trkpt lat="46.638548" lon="10.5980229"><ele>887.0</ele><time>2026-03-24T10:14:06.368Z</time></trkpt><trkpt lat="46.6385036" lon="10.5981027"><ele>887.3333333333333</ele><time>2026-03-24T10:14:07.373Z</time></trkpt><trkpt lat="46.6384557" lon="10.5981677"><ele>887.6666666666666</ele><time>2026-03-24T10:14:08.367Z</time></trkpt><trkpt lat="46.6383512" lon="10.5982783"><ele>888.0</ele><time>2026-03-24T10:14:10.368Z</time></trkpt><trkpt lat="46.6382936" lon="10.5983302"><ele>888.0</ele><time>2026-03-24T10:14:11.362Z</time></trkpt><trkpt lat="46.6382387" lon="10.5983844"><ele>888.0</ele><time>2026-03-24T10:14:12.369Z</time></trkpt><trkpt lat="46.6381871" lon="10.5984414"><ele>888.0</ele><time>2026-03-24T10:14:13.367Z</time></trkpt><trkpt lat="46.6381344" lon="10.598524"><ele>888.0</ele><time>2026-03-24T10:14:14.369Z</time></trkpt><trkpt lat="46.6380869" lon="10.5985985"><ele>888.0</ele><time>2026-03-24T10:14:15.371Z</time></trkpt><trkpt lat="46.6380334" lon="10.5986937"><ele>888.0</ele><time>2026-03-24T10:14:16.357Z</time></trkpt><trkpt lat="46.6379816" lon="10.5987805"><ele>888.0</ele><time>2026-03-24T10:14:17.361Z</time></trkpt><trkpt lat="46.6379335" lon="10.5988623"><ele>888.0</ele><time>2026-03-24T10:14:18.364Z</time></trkpt><trkpt lat="46.6378852" lon="10.5989468"><ele>888.0</ele><time>2026-03-24T10:14:19.364Z</time></trkpt><trkpt lat="46.6378362" lon="10.5990299"><ele>888.0</ele><time>2026-03-24T10:14:20.377Z</time></trkpt><trkpt lat="46.6377857" lon="10.5991136"><ele>888.0</ele><time>2026-03-24T10:14:21.371Z</time></trkpt><trkpt lat="46.6377381" lon="10.5991939"><ele>888.0</ele><time>2026-03-24T10:14:22.368Z</time></trkpt><trkpt lat="46.6376913" lon="10.5992752"><ele>888.0</ele><time>2026-03-24T10:14:23.375Z</time></trkpt><trkpt lat="46.6376414" lon="10.5993546"><ele>888.0</ele><time>2026-03-24T10:14:24.373Z</time></trkpt><trkpt lat="46.637595" lon="10.5994347"><ele>888.1666666666666</ele><time>2026-03-24T10:14:25.374Z</time></trkpt><trkpt lat="46.6375496" lon="10.5995126"><ele>888.3333333333333</ele><time>2026-03-24T10:14:26.366Z</time></trkpt><trkpt lat="46.6375068" lon="10.5995938"><ele>888.5</ele><time>2026-03-24T10:14:27.377Z</time></trkpt><trkpt lat="46.6374658" lon="10.5996732"><ele>888.6666666666666</ele><time>2026-03-24T10:14:28.379Z</time></trkpt><trkpt lat="46.6374273" lon="10.5997535"><ele>888.8333333333333</ele><time>2026-03-24T10:14:29.372Z</time></trkpt><trkpt lat="46.6373875" lon="10.5998299"><ele>889.0</ele><time>2026-03-24T10:14:30.366Z</time></trkpt><trkpt lat="46.6373158" lon="10.599965"><ele>889.0</ele><time>2026-03-24T10:14:32.36Z</time></trkpt><trkpt lat="46.6372462" lon="10.6000972"><ele>889.0000000000001</ele><time>2026-03-24T10:14:34.366Z</time></trkpt><trkpt lat="46.6371716" lon="10.6002175"><ele>889.0000000000001</ele><time>2026-03-24T10:14:36.363Z</time></trkpt><trkpt lat="46.637083" lon="10.6002806"><ele>889.0</ele><time>2026-03-24T10:14:38.405Z</time></trkpt><trkpt lat="46.6369908" lon="10.600261"><ele>889.0</ele><time>2026-03-24T10:14:40.373Z</time></trkpt><trkpt lat="46.6369204" lon="10.6003082"><ele>888.0</ele><time>2026-03-24T10:14:42.37Z</time></trkpt><trkpt lat="46.6368894" lon="10.6004251"><ele>887.0000000000001</ele><time>2026-03-24T10:14:44.38Z</time></trkpt><trkpt lat="46.636852" lon="10.6005595"><ele>886.0000000000001</ele><time>2026-03-24T10:14:46.372Z</time></trkpt><trkpt lat="46.6368122" lon="10.6007083"><ele>885.0</ele><time>2026-03-24T10:14:48.383Z</time></trkpt><trkpt lat="46.6367689" lon="10.600862"><ele>884.0</ele><time>2026-03-24T10:14:50.382Z</time></trkpt><trkpt lat="46.6367263" lon="10.60102"><ele>884.0</ele><time>2026-03-24T10:14:52.364Z</time></trkpt><trkpt lat="46.6366854" lon="10.6011864"><ele>884.0000000000001</ele><time>2026-03-24T10:14:54.376Z</time></trkpt><trkpt lat="46.6366432" lon="10.6013572"><ele>884.0000000000001</ele><time>2026-03-24T10:14:56.366Z</time></trkpt><trkpt lat="46.6365944" lon="10.6015259"><ele>884.0</ele><time>2026-03-24T10:14:58.367Z</time></trkpt><trkpt lat="46.6365702" lon="10.6016122"><ele>884.0</ele><time>2026-03-24T10:14:59.36Z</time></trkpt><trkpt lat="46.6365456" lon="10.601698"><ele>884.0000000000001</ele><time>2026-03-24T10:15:00.375Z</time></trkpt><trkpt lat="46.6365201" lon="10.6017841"><ele>884.0</ele><time>2026-03-24T10:15:01.375Z</time></trkpt><trkpt lat="46.6364955" lon="10.6018712"><ele>884.0</ele><time>2026-03-24T10:15:02.375Z</time></trkpt><trkpt lat="46.6364715" lon="10.6019591"><ele>884.0</ele><time>2026-03-24T10:15:03.374Z</time></trkpt><trkpt lat="46.6364467" lon="10.6020476"><ele>884.0</ele><time>2026-03-24T10:15:04.371Z</time></trkpt><trkpt lat="46.6364208" lon="10.6021362"><ele>884.0000000000001</ele><time>2026-03-24T10:15:05.375Z</time></trkpt><trkpt lat="46.6363954" lon="10.6022246"><ele>884.0</ele><time>2026-03-24T10:15:06.372Z</time></trkpt><trkpt lat="46.6363707" lon="10.6023127"><ele>884.1428571428572</ele><time>2026-03-24T10:15:07.372Z</time></trkpt><trkpt lat="46.636347" lon="10.6024024"><ele>884.2857142857143</ele><time>2026-03-24T10:15:08.367Z</time></trkpt><trkpt lat="46.6363222" lon="10.6024925"><ele>884.4285714285714</ele><time>2026-03-24T10:15:09.365Z</time></trkpt><trkpt lat="46.6362966" lon="10.6025824"><ele>884.5714285714287</ele><time>2026-03-24T10:15:10.369Z</time></trkpt><trkpt lat="46.6362705" lon="10.6026726"><ele>884.7142857142857</ele><time>2026-03-24T10:15:11.372Z</time></trkpt><trkpt lat="46.6362449" lon="10.6027632"><ele>884.8571428571429</ele><time>2026-03-24T10:15:12.371Z</time></trkpt><trkpt lat="46.6362208" lon="10.6028551"><ele>885.0</ele><time>2026-03-24T10:15:13.361Z</time></trkpt><trkpt lat="46.6361961" lon="10.6029467"><ele>885.1428571428571</ele><time>2026-03-24T10:15:14.369Z</time></trkpt><trkpt lat="46.63617" lon="10.6030399"><ele>885.2857142857142</ele><time>2026-03-24T10:15:15.371Z</time></trkpt><trkpt lat="46.6361437" lon="10.6031348"><ele>885.4285714285714</ele><time>2026-03-24T10:15:16.365Z</time></trkpt><trkpt lat="46.6361176" lon="10.60323"><ele>885.5714285714286</ele><time>2026-03-24T10:15:17.363Z</time></trkpt><trkpt lat="46.6360906" lon="10.6033246"><ele>885.7142857142858</ele><time>2026-03-24T10:15:18.373Z</time></trkpt><trkpt lat="46.6360647" lon="10.603419"><ele>885.8571428571429</ele><time>2026-03-24T10:15:19.366Z</time></trkpt><trkpt lat="46.636039" lon="10.6035131"><ele>886.0</ele><time>2026-03-24T10:15:20.375Z</time></trkpt><trkpt lat="46.6360134" lon="10.6036061"><ele>886.4285714285714</ele><time>2026-03-24T10:15:21.371Z</time></trkpt><trkpt lat="46.635987" lon="10.6036988"><ele>886.8571428571429</ele><time>2026-03-24T10:15:22.364Z</time></trkpt><trkpt lat="46.6359619" lon="10.6037923"><ele>887.2857142857142</ele><time>2026-03-24T10:15:23.367Z</time></trkpt><trkpt lat="46.6359385" lon="10.6038858"><ele>887.7142857142858</ele><time>2026-03-24T10:15:24.366Z</time></trkpt><trkpt lat="46.635914" lon="10.6039779"><ele>888.1428571428571</ele><time>2026-03-24T10:15:25.361Z</time></trkpt><trkpt lat="46.6358885" lon="10.6040679"><ele>888.5714285714286</ele><time>2026-03-24T10:15:26.365Z</time></trkpt><trkpt lat="46.6358621" lon="10.6041577"><ele>889.0</ele><time>2026-03-24T10:15:27.374Z</time></trkpt><trkpt lat="46.6358362" lon="10.6042465"><ele>889.0</ele><time>2026-03-24T10:15:28.367Z</time></trkpt><trkpt lat="46.6358105" lon="10.6043362"><ele>889.0</ele><time>2026-03-24T10:15:29.367Z</time></trkpt><trkpt lat="46.6357859" lon="10.604426"><ele>889.0</ele><time>2026-03-24T10:15:30.374Z</time></trkpt><trkpt lat="46.6357619" lon="10.6045177"><ele>889.0</ele><time>2026-03-24T10:15:31.358Z</time></trkpt><trkpt lat="46.6357395" lon="10.6046105"><ele>889.0</ele><time>2026-03-24T10:15:32.37Z</time></trkpt><trkpt lat="46.6357161" lon="10.6047029"><ele>889.0</ele><time>2026-03-24T10:15:33.365Z</time></trkpt><trkpt lat="46.6356911" lon="10.6047953"><ele>889.0</ele><time>2026-03-24T10:15:34.362Z</time></trkpt><trkpt lat="46.6356662" lon="10.6048887"><ele>888.7142857142857</ele><time>2026-03-24T10:15:35.372Z</time></trkpt><trkpt lat="46.6356423" lon="10.6049822"><ele>888.4285714285714</ele><time>2026-03-24T10:15:36.363Z</time></trkpt><trkpt lat="46.6356197" lon="10.6050695"><ele>888.1428571428571</ele><time>2026-03-24T10:15:37.365Z</time></trkpt><trkpt lat="46.6355963" lon="10.6051624"><ele>887.8571428571429</ele><time>2026-03-24T10:15:38.367Z</time></trkpt><trkpt lat="46.6355725" lon="10.6052562"><ele>887.5714285714286</ele><time>2026-03-24T10:15:39.371Z</time></trkpt><trkpt lat="46.6355502" lon="10.6053499"><ele>887.2857142857142</ele><time>2026-03-24T10:15:40.368Z</time></trkpt><trkpt lat="46.6355296" lon="10.6054441"><ele>887.0</ele><time>2026-03-24T10:15:41.372Z</time></trkpt><trkpt lat="46.6355117" lon="10.605542"><ele>886.8571428571428</ele><time>2026-03-24T10:15:42.364Z</time></trkpt><trkpt lat="46.6354956" lon="10.60564"><ele>886.7142857142857</ele><time>2026-03-24T10:15:43.367Z</time></trkpt><trkpt lat="46.6354828" lon="10.6057401"><ele>886.5714285714286</ele><time>2026-03-24T10:15:44.367Z</time></trkpt><trkpt lat="46.6354689" lon="10.6058386"><ele>886.4285714285713</ele><time>2026-03-24T10:15:45.363Z</time></trkpt><trkpt lat="46.6354565" lon="10.6059435"><ele>886.2857142857143</ele><time>2026-03-24T10:15:46.369Z</time></trkpt><trkpt lat="46.6354294" lon="10.6060486"><ele>886.1428571428571</ele><time>2026-03-24T10:15:47.367Z</time></trkpt><trkpt lat="46.6354042" lon="10.606145"><ele>886.0</ele><time>2026-03-24T10:15:48.368Z</time></trkpt><trkpt lat="46.6353692" lon="10.6062382"><ele>886.0</ele><time>2026-03-24T10:15:49.365Z</time></trkpt><trkpt lat="46.6353269" lon="10.6063219"><ele>886.0</ele><time>2026-03-24T10:15:50.368Z</time></trkpt><trkpt lat="46.6352832" lon="10.6064238"><ele>886.0</ele><time>2026-03-24T10:15:51.368Z</time></trkpt><trkpt lat="46.6352432" lon="10.6065151"><ele>886.0</ele><time>2026-03-24T10:15:52.371Z</time></trkpt><trkpt lat="46.635201" lon="10.6066016"><ele>886.0</ele><time>2026-03-24T10:15:53.368Z</time></trkpt><trkpt lat="46.6351588" lon="10.6066878"><ele>886.0</ele><time>2026-03-24T10:15:54.369Z</time></trkpt><trkpt lat="46.6351171" lon="10.6067746"><ele>886.0</ele><time>2026-03-24T10:15:55.366Z</time></trkpt><trkpt lat="46.635081" lon="10.6068586"><ele>886.0</ele><time>2026-03-24T10:15:56.36Z</time></trkpt><trkpt lat="46.6350424" lon="10.6069455"><ele>886.0</ele><time>2026-03-24T10:15:57.356Z</time></trkpt><trkpt lat="46.6350012" lon="10.6070296"><ele>886.0</ele><time>2026-03-24T10:15:58.364Z</time></trkpt><trkpt lat="46.6349618" lon="10.607115"><ele>886.0</ele><time>2026-03-24T10:15:59.366Z</time></trkpt><trkpt lat="46.6349278" lon="10.6072042"><ele>886.0</ele><time>2026-03-24T10:16:00.365Z</time></trkpt><trkpt lat="46.6349033" lon="10.6072984"><ele>886.0</ele><time>2026-03-24T10:16:01.364Z</time></trkpt><trkpt lat="46.6348825" lon="10.6073946"><ele>886.0</ele><time>2026-03-24T10:16:02.352Z</time></trkpt><trkpt lat="46.6348599" lon="10.6074922"><ele>885.7142857142858</ele><time>2026-03-24T10:16:03.366Z</time></trkpt><trkpt lat="46.6348319" lon="10.6075868"><ele>885.4285714285714</ele><time>2026-03-24T10:16:04.361Z</time></trkpt><trkpt lat="46.6347992" lon="10.6076777"><ele>885.1428571428571</ele><time>2026-03-24T10:16:05.366Z</time></trkpt><trkpt lat="46.6347653" lon="10.6077674"><ele>884.8571428571429</ele><time>2026-03-24T10:16:06.359Z</time></trkpt><trkpt lat="46.6347313" lon="10.6078551"><ele>884.5714285714286</ele><time>2026-03-24T10:16:07.37Z</time></trkpt><trkpt lat="46.6346946" lon="10.6079408"><ele>884.2857142857143</ele><time>2026-03-24T10:16:08.374Z</time></trkpt><trkpt lat="46.6346533" lon="10.6080222"><ele>884.0</ele><time>2026-03-24T10:16:09.369Z</time></trkpt><trkpt lat="46.6346096" lon="10.6081019"><ele>884.0000000000001</ele><time>2026-03-24T10:16:10.368Z</time></trkpt><trkpt lat="46.6345685" lon="10.6081835"><ele>884.0</ele><time>2026-03-24T10:16:11.377Z</time></trkpt><trkpt lat="46.6345309" lon="10.6082684"><ele>884.0</ele><time>2026-03-24T10:16:12.367Z</time></trkpt><trkpt lat="46.6344943" lon="10.6083533"><ele>884.0</ele><time>2026-03-24T10:16:13.37Z</time></trkpt><trkpt lat="46.6344617" lon="10.6084405"><ele>884.0</ele><time>2026-03-24T10:16:14.367Z</time></trkpt><trkpt lat="46.634429" lon="10.6085295"><ele>884.0000000000001</ele><time>2026-03-24T10:16:15.359Z</time></trkpt><trkpt lat="46.634396" lon="10.608619"><ele>884.0</ele><time>2026-03-24T10:16:16.374Z</time></trkpt><trkpt lat="46.6343647" lon="10.6087086"><ele>884.0000000000001</ele><time>2026-03-24T10:16:17.368Z</time></trkpt><trkpt lat="46.6343335" lon="10.6087974"><ele>884.0</ele><time>2026-03-24T10:16:18.369Z</time></trkpt><trkpt lat="46.6343025" lon="10.6088862"><ele>884.0</ele><time>2026-03-24T10:16:19.364Z</time></trkpt><trkpt lat="46.6342722" lon="10.6089751"><ele>884.0</ele><time>2026-03-24T10:16:20.379Z</time></trkpt><trkpt lat="46.6342428" lon="10.6090579"><ele>884.0</ele><time>2026-03-24T10:16:21.368Z</time></trkpt><trkpt lat="46.6342118" lon="10.6091458"><ele>884.0000000000001</ele><time>2026-03-24T10:16:22.367Z</time></trkpt><trkpt lat="46.6341816" lon="10.609236"><ele>884.0</ele><time>2026-03-24T10:16:23.361Z</time></trkpt><trkpt lat="46.6341514" lon="10.6093198"><ele>884.0000000000001</ele><time>2026-03-24T10:16:24.369Z</time></trkpt><trkpt lat="46.6341195" lon="10.6094025"><ele>884.0</ele><time>2026-03-24T10:16:25.366Z</time></trkpt><trkpt lat="46.6340746" lon="10.6094834"><ele>884.0</ele><time>2026-03-24T10:16:26.365Z</time></trkpt><trkpt lat="46.6340232" lon="10.6095464"><ele>884.0</ele><time>2026-03-24T10:16:27.366Z</time></trkpt><trkpt lat="46.6339638" lon="10.609585"><ele>884.0</ele><time>2026-03-24T10:16:28.363Z</time></trkpt><trkpt lat="46.6338993" lon="10.6095917"><ele>884.0000000000001</ele><time>2026-03-24T10:16:29.36Z</time></trkpt><trkpt lat="46.6338375" lon="10.6095607"><ele>884.0</ele><time>2026-03-24T10:16:30.376Z</time></trkpt><trkpt lat="46.633788" lon="10.6094984"><ele>884.0000000000001</ele><time>2026-03-24T10:16:31.36Z</time></trkpt><trkpt lat="46.6337511" lon="10.609422"><ele>884.0</ele><time>2026-03-24T10:16:32.363Z</time></trkpt><trkpt lat="46.6337154" lon="10.6093419"><ele>884.0</ele><time>2026-03-24T10:16:33.378Z</time></trkpt><trkpt lat="46.6336766" lon="10.6092642"><ele>884.0</ele><time>2026-03-24T10:16:34.366Z</time></trkpt><trkpt lat="46.6336345" lon="10.6091911"><ele>884.0</ele><time>2026-03-24T10:16:35.374Z</time></trkpt><trkpt lat="46.6335884" lon="10.6091238"><ele>884.0000000000001</ele><time>2026-03-24T10:16:36.377Z</time></trkpt><trkpt lat="46.633542" lon="10.6090554"><ele>884.0</ele><time>2026-03-24T10:16:37.374Z</time></trkpt><trkpt lat="46.6334935" lon="10.6089913"><ele>883.8333333333334</ele><time>2026-03-24T10:16:38.367Z</time></trkpt><trkpt lat="46.6334416" lon="10.608936"><ele>883.6666666666667</ele><time>2026-03-24T10:16:39.368Z</time></trkpt><trkpt lat="46.6333861" lon="10.6088834"><ele>883.5</ele><time>2026-03-24T10:16:40.366Z</time></trkpt><trkpt lat="46.6333282" lon="10.608834"><ele>883.3333333333333</ele><time>2026-03-24T10:16:41.357Z</time></trkpt><trkpt lat="46.6332652" lon="10.608802"><ele>883.1666666666666</ele><time>2026-03-24T10:16:42.373Z</time></trkpt><trkpt lat="46.6331407" lon="10.6087745"><ele>883.0</ele><time>2026-03-24T10:16:44.356Z</time></trkpt><trkpt lat="46.6330765" lon="10.6087651"><ele>882.9999999999999</ele><time>2026-03-24T10:16:45.363Z</time></trkpt><trkpt lat="46.6330126" lon="10.6087511"><ele>883.0</ele><time>2026-03-24T10:16:46.365Z</time></trkpt><trkpt lat="46.6329493" lon="10.6087316"><ele>883.0</ele><time>2026-03-24T10:16:47.359Z</time></trkpt><trkpt lat="46.6328898" lon="10.6086993"><ele>883.0</ele><time>2026-03-24T10:16:48.361Z</time></trkpt><trkpt lat="46.6327715" lon="10.6086367"><ele>882.9999999999999</ele><time>2026-03-24T10:16:50.362Z</time></trkpt><trkpt lat="46.6327095" lon="10.6086086"><ele>883.0</ele><time>2026-03-24T10:16:51.356Z</time></trkpt><trkpt lat="46.6325921" lon="10.6085485"><ele>883.2</ele><time>2026-03-24T10:16:53.359Z</time></trkpt><trkpt lat="46.6324905" lon="10.6084549"><ele>883.4</ele><time>2026-03-24T10:16:55.372Z</time></trkpt><trkpt lat="46.6324565" lon="10.6083777"><ele>883.6000000000001</ele><time>2026-03-24T10:16:56.366Z</time></trkpt><trkpt lat="46.6324073" lon="10.6082139"><ele>883.8000000000001</ele><time>2026-03-24T10:16:58.387Z</time></trkpt><trkpt lat="46.6323958" lon="10.6081216"><ele>884.0</ele><time>2026-03-24T10:16:59.357Z</time></trkpt><trkpt lat="46.6323755" lon="10.6079418"><ele>883.75</ele><time>2026-03-24T10:17:01.369Z</time></trkpt><trkpt lat="46.6323566" lon="10.6077662"><ele>883.5</ele><time>2026-03-24T10:17:03.362Z</time></trkpt><trkpt lat="46.6323233" lon="10.6075944"><ele>883.25</ele><time>2026-03-24T10:17:05.362Z</time></trkpt><trkpt lat="46.6322628" lon="10.607444"><ele>883.0</ele><time>2026-03-24T10:17:07.366Z</time></trkpt><trkpt lat="46.6321933" lon="10.6073013"><ele>883.0</ele><time>2026-03-24T10:17:09.365Z</time></trkpt><trkpt lat="46.6321224" lon="10.6071625"><ele>883.0</ele><time>2026-03-24T10:17:11.367Z</time></trkpt><trkpt lat="46.6320496" lon="10.6070307"><ele>883.0</ele><time>2026-03-24T10:17:13.37Z</time></trkpt><trkpt lat="46.6319932" lon="10.6068787"><ele>883.0</ele><time>2026-03-24T10:17:15.366Z</time></trkpt><trkpt lat="46.6319753" lon="10.6067259"><ele>882.8</ele><time>2026-03-24T10:17:17.364Z</time></trkpt><trkpt lat="46.6319844" lon="10.6065884"><ele>882.5999999999999</ele><time>2026-03-24T10:17:19.377Z</time></trkpt><trkpt lat="46.6320021" lon="10.6064499"><ele>882.4000000000001</ele><time>2026-03-24T10:17:21.38Z</time></trkpt><trkpt lat="46.6320063" lon="10.6063107"><ele>882.2</ele><time>2026-03-24T10:17:23.363Z</time></trkpt><trkpt lat="46.6320202" lon="10.6061673"><ele>882.0</ele><time>2026-03-24T10:17:25.374Z</time></trkpt><trkpt lat="46.6320257" lon="10.6060241"><ele>882.0</ele><time>2026-03-24T10:17:27.366Z</time></trkpt><trkpt lat="46.6320275" lon="10.605883"><ele>882.0</ele><time>2026-03-24T10:17:29.367Z</time></trkpt><trkpt lat="46.6320368" lon="10.6057418"><ele>882.0</ele><time>2026-03-24T10:17:31.372Z</time></trkpt><trkpt lat="46.6320624" lon="10.6056091"><ele>882.0</ele><time>2026-03-24T10:17:33.365Z</time></trkpt><trkpt lat="46.6321021" lon="10.605485"><ele>882.0</ele><time>2026-03-24T10:17:35.365Z</time></trkpt><trkpt lat="46.6321484" lon="10.6053637"><ele>882.4000000000001</ele><time>2026-03-24T10:17:37.371Z</time></trkpt><trkpt lat="46.6322008" lon="10.6052427"><ele>882.8000000000001</ele><time>2026-03-24T10:17:39.369Z</time></trkpt><trkpt lat="46.6322601" lon="10.6051226"><ele>883.2</ele><time>2026-03-24T10:17:41.371Z</time></trkpt><trkpt lat="46.6323266" lon="10.6050105"><ele>883.6</ele><time>2026-03-24T10:17:43.371Z</time></trkpt><trkpt lat="46.6323978" lon="10.6049029"><ele>884.0</ele><time>2026-03-24T10:17:45.359Z</time></trkpt><trkpt lat="46.6324719" lon="10.6048021"><ele>884.0</ele><time>2026-03-24T10:17:47.365Z</time></trkpt><trkpt lat="46.6325511" lon="10.6047099"><ele>884.0000000000001</ele><time>2026-03-24T10:17:49.371Z</time></trkpt><trkpt lat="46.6326368" lon="10.6046242"><ele>884.0000000000001</ele><time>2026-03-24T10:17:51.365Z</time></trkpt><trkpt lat="46.6327239" lon="10.6045389"><ele>884.0</ele><time>2026-03-24T10:17:53.358Z</time></trkpt><trkpt lat="46.6328014" lon="10.6044343"><ele>884.0</ele><time>2026-03-24T10:17:55.371Z</time></trkpt><trkpt lat="46.6328711" lon="10.6043175"><ele>885.0</ele><time>2026-03-24T10:17:57.372Z</time></trkpt><trkpt lat="46.6329368" lon="10.6041941"><ele>886.0000000000001</ele><time>2026-03-24T10:17:59.365Z</time></trkpt><trkpt lat="46.6329945" lon="10.6040588"><ele>887.0000000000001</ele><time>2026-03-24T10:18:01.364Z</time></trkpt><trkpt lat="46.633044" lon="10.6039173"><ele>888.0</ele><time>2026-03-24T10:18:03.368Z</time></trkpt><trkpt lat="46.633067" lon="10.6037698"><ele>889.0</ele><time>2026-03-24T10:18:05.361Z</time></trkpt><trkpt lat="46.6330657" lon="10.6036264"><ele>890.2</ele><time>2026-03-24T10:18:07.366Z</time></trkpt><trkpt lat="46.6330489" lon="10.6034901"><ele>891.4000000000001</ele><time>2026-03-24T10:18:09.374Z</time></trkpt><trkpt lat="46.6330047" lon="10.6033674"><ele>892.6</ele><time>2026-03-24T10:18:11.374Z</time></trkpt><trkpt lat="46.6329459" lon="10.6032569"><ele>893.8</ele><time>2026-03-24T10:18:13.37Z</time></trkpt><trkpt lat="46.6328808" lon="10.6031531"><ele>895.0</ele><time>2026-03-24T10:18:15.373Z</time></trkpt><trkpt lat="46.632814" lon="10.6030467"><ele>894.4</ele><time>2026-03-24T10:18:17.377Z</time></trkpt><trkpt lat="46.6327515" lon="10.6029328"><ele>893.8</ele><time>2026-03-24T10:18:19.368Z</time></trkpt><trkpt lat="46.6326924" lon="10.6028114"><ele>893.2</ele><time>2026-03-24T10:18:21.368Z</time></trkpt><trkpt lat="46.6326357" lon="10.6026894"><ele>892.6</ele><time>2026-03-24T10:18:23.372Z</time></trkpt><trkpt lat="46.6325758" lon="10.6025673"><ele>892.0</ele><time>2026-03-24T10:18:25.367Z</time></trkpt><trkpt lat="46.6325095" lon="10.6024496"><ele>892.0</ele><time>2026-03-24T10:18:27.362Z</time></trkpt><trkpt lat="46.6324445" lon="10.6023422"><ele>892.0</ele><time>2026-03-24T10:18:29.364Z</time></trkpt><trkpt lat="46.6323705" lon="10.6022407"><ele>892.0</ele><time>2026-03-24T10:18:31.374Z</time></trkpt><trkpt lat="46.6322929" lon="10.6021365"><ele>892.0</ele><time>2026-03-24T10:18:33.37Z</time></trkpt><trkpt lat="46.632217" lon="10.6020352"><ele>892.0</ele><time>2026-03-24T10:18:35.366Z</time></trkpt><trkpt lat="46.6321444" lon="10.6019367"><ele>891.4000000000001</ele><time>2026-03-24T10:18:37.368Z</time></trkpt><trkpt lat="46.6320686" lon="10.6018198"><ele>890.8000000000001</ele><time>2026-03-24T10:18:39.369Z</time></trkpt><trkpt lat="46.6319948" lon="10.6017043"><ele>890.2</ele><time>2026-03-24T10:18:41.367Z</time></trkpt><trkpt lat="46.6319232" lon="10.6015881"><ele>889.6</ele><time>2026-03-24T10:18:43.376Z</time></trkpt><trkpt lat="46.631851" lon="10.6014734"><ele>889.0</ele><time>2026-03-24T10:18:45.362Z</time></trkpt><trkpt lat="46.6317797" lon="10.6013575"><ele>889.0</ele><time>2026-03-24T10:18:47.366Z</time></trkpt><trkpt lat="46.6317083" lon="10.6012447"><ele>889.0000000000001</ele><time>2026-03-24T10:18:49.361Z</time></trkpt><trkpt lat="46.6316378" lon="10.6011324"><ele>889.0000000000001</ele><time>2026-03-24T10:18:51.366Z</time></trkpt><trkpt lat="46.631569" lon="10.6010259"><ele>889.0</ele><time>2026-03-24T10:18:53.373Z</time></trkpt><trkpt lat="46.6315046" lon="10.6009299"><ele>889.0</ele><time>2026-03-24T10:18:55.365Z</time></trkpt><trkpt lat="46.6314459" lon="10.600839"><ele>889.4999999999999</ele><time>2026-03-24T10:18:57.367Z</time></trkpt><trkpt lat="46.6313908" lon="10.6007583"><ele>890.0</ele><time>2026-03-24T10:18:59.381Z</time></trkpt><trkpt lat="46.6313401" lon="10.6006832"><ele>890.5</ele><time>2026-03-24T10:19:01.371Z</time></trkpt><trkpt lat="46.631284" lon="10.6006012"><ele>891.0</ele><time>2026-03-24T10:19:03.374Z</time></trkpt><trkpt lat="46.6312214" lon="10.60051"><ele>891.4999999999999</ele><time>2026-03-24T10:19:05.364Z</time></trkpt><trkpt lat="46.6311549" lon="10.6004104"><ele>892.0</ele><time>2026-03-24T10:19:07.372Z</time></trkpt><trkpt lat="46.6310874" lon="10.6003093"><ele>892.2</ele><time>2026-03-24T10:19:09.363Z</time></trkpt><trkpt lat="46.6310166" lon="10.6002144"><ele>892.4000000000001</ele><time>2026-03-24T10:19:11.356Z</time></trkpt><trkpt lat="46.6309472" lon="10.6001259"><ele>892.5999999999999</ele><time>2026-03-24T10:19:13.37Z</time></trkpt><trkpt lat="46.6308568" lon="10.6000347"><ele>892.8</ele><time>2026-03-24T10:19:15.381Z</time></trkpt><trkpt lat="46.6307659" lon="10.5999703"><ele>893.0</ele><time>2026-03-24T10:19:17.362Z</time></trkpt><trkpt lat="46.6306657" lon="10.5999456"><ele>893.0</ele><time>2026-03-24T10:19:19.374Z</time></trkpt><trkpt lat="46.6305649" lon="10.5999459"><ele>893.0</ele><time>2026-03-24T10:19:21.369Z</time></trkpt><trkpt lat="46.6304686" lon="10.5999507"><ele>893.0</ele><time>2026-03-24T10:19:23.37Z</time></trkpt><trkpt lat="46.6303643" lon="10.5999585"><ele>893.0</ele><time>2026-03-24T10:19:25.37Z</time></trkpt><trkpt lat="46.6302636" lon="10.5999571"><ele>893.0</ele><time>2026-03-24T10:19:27.381Z</time></trkpt><trkpt lat="46.630166" lon="10.5999197"><ele>892.8</ele><time>2026-03-24T10:19:29.371Z</time></trkpt><trkpt lat="46.630081" lon="10.5998371"><ele>892.5999999999999</ele><time>2026-03-24T10:19:31.374Z</time></trkpt><trkpt lat="46.6300088" lon="10.5997254"><ele>892.4000000000001</ele><time>2026-03-24T10:19:33.364Z</time></trkpt><trkpt lat="46.629939" lon="10.5996076"><ele>892.2</ele><time>2026-03-24T10:19:35.362Z</time></trkpt><trkpt lat="46.6298671" lon="10.5994961"><ele>892.0</ele><time>2026-03-24T10:19:37.37Z</time></trkpt><trkpt lat="46.6297993" lon="10.599384"><ele>892.0</ele><time>2026-03-24T10:19:39.357Z</time></trkpt><trkpt lat="46.6297297" lon="10.5992705"><ele>892.0</ele><time>2026-03-24T10:19:41.378Z</time></trkpt><trkpt lat="46.6296568" lon="10.5991607"><ele>892.0</ele><time>2026-03-24T10:19:43.365Z</time></trkpt><trkpt lat="46.6295842" lon="10.5990492"><ele>892.0</ele><time>2026-03-24T10:19:45.362Z</time></trkpt><trkpt lat="46.6295123" lon="10.5989398"><ele>892.0</ele><time>2026-03-24T10:19:47.372Z</time></trkpt><trkpt lat="46.6294406" lon="10.5988301"><ele>891.6</ele><time>2026-03-24T10:19:49.368Z</time></trkpt><trkpt lat="46.6293599" lon="10.598731"><ele>891.2</ele><time>2026-03-24T10:19:51.367Z</time></trkpt><trkpt lat="46.6292825" lon="10.5986278"><ele>890.8</ele><time>2026-03-24T10:19:53.368Z</time></trkpt><trkpt lat="46.6292037" lon="10.5985276"><ele>890.4</ele><time>2026-03-24T10:19:55.361Z</time></trkpt><trkpt lat="46.629126" lon="10.5984267"><ele>890.0</ele><time>2026-03-24T10:19:57.36Z</time></trkpt><trkpt lat="46.6290488" lon="10.5983224"><ele>890.0</ele><time>2026-03-24T10:19:59.375Z</time></trkpt><trkpt lat="46.6289719" lon="10.5982175"><ele>890.0</ele><time>2026-03-24T10:20:01.373Z</time></trkpt><trkpt lat="46.6288978" lon="10.5981143"><ele>890.0</ele><time>2026-03-24T10:20:03.362Z</time></trkpt><trkpt lat="46.6288263" lon="10.5980104"><ele>890.0</ele><time>2026-03-24T10:20:05.374Z</time></trkpt><trkpt lat="46.6287564" lon="10.5979071"><ele>890.0</ele><time>2026-03-24T10:20:07.374Z</time></trkpt><trkpt lat="46.6286893" lon="10.5978006"><ele>890.6</ele><time>2026-03-24T10:20:09.368Z</time></trkpt><trkpt lat="46.6286246" lon="10.5976913"><ele>891.2</ele><time>2026-03-24T10:20:11.37Z</time></trkpt><trkpt lat="46.6285536" lon="10.5975881"><ele>891.8</ele><time>2026-03-24T10:20:13.362Z</time></trkpt><trkpt lat="46.6284772" lon="10.5974942"><ele>892.4</ele><time>2026-03-24T10:20:15.372Z</time></trkpt><trkpt lat="46.6283873" lon="10.5974313"><ele>893.0</ele><time>2026-03-24T10:20:17.361Z</time></trkpt><trkpt lat="46.6282904" lon="10.5973932"><ele>893.0</ele><time>2026-03-24T10:20:19.376Z</time></trkpt><trkpt lat="46.6281907" lon="10.597372"><ele>893.0</ele><time>2026-03-24T10:20:21.365Z</time></trkpt><trkpt lat="46.6280898" lon="10.5973656"><ele>893.0</ele><time>2026-03-24T10:20:23.362Z</time></trkpt><trkpt lat="46.6279912" lon="10.5973651"><ele>893.0</ele><time>2026-03-24T10:20:25.374Z</time></trkpt><trkpt lat="46.6278915" lon="10.5973648"><ele>893.0</ele><time>2026-03-24T10:20:27.368Z</time></trkpt><trkpt lat="46.6277915" lon="10.5973544"><ele>892.5999999999999</ele><time>2026-03-24T10:20:29.369Z</time></trkpt><trkpt lat="46.627692" lon="10.5973249"><ele>892.1999999999999</ele><time>2026-03-24T10:20:31.382Z</time></trkpt><trkpt lat="46.6275988" lon="10.5972677"><ele>891.8</ele><time>2026-03-24T10:20:33.364Z</time></trkpt><trkpt lat="46.6275107" lon="10.5971972"><ele>891.4</ele><time>2026-03-24T10:20:35.373Z</time></trkpt><trkpt lat="46.6274292" lon="10.5971171"><ele>891.0</ele><time>2026-03-24T10:20:37.362Z</time></trkpt><trkpt lat="46.6273552" lon="10.5970344"><ele>891.8333333333334</ele><time>2026-03-24T10:20:39.37Z</time></trkpt><trkpt lat="46.6272892" lon="10.5969584"><ele>892.6666666666667</ele><time>2026-03-24T10:20:41.373Z</time></trkpt><trkpt lat="46.6272308" lon="10.5968863"><ele>893.5</ele><time>2026-03-24T10:20:43.379Z</time></trkpt><trkpt lat="46.6271769" lon="10.5968053"><ele>894.3333333333334</ele><time>2026-03-24T10:20:45.355Z</time></trkpt><trkpt lat="46.6271251" lon="10.5967214"><ele>895.1666666666667</ele><time>2026-03-24T10:20:47.375Z</time></trkpt><trkpt lat="46.6270626" lon="10.5966628"><ele>896.0</ele><time>2026-03-24T10:20:49.369Z</time></trkpt><trkpt lat="46.6269806" lon="10.5966277"><ele>895.8</ele><time>2026-03-24T10:20:51.366Z</time></trkpt><trkpt lat="46.6268754" lon="10.5965872"><ele>895.5999999999999</ele><time>2026-03-24T10:20:53.373Z</time></trkpt><trkpt lat="46.6267747" lon="10.59652"><ele>895.4</ele><time>2026-03-24T10:20:55.374Z</time></trkpt><trkpt lat="46.6266808" lon="10.5964523"><ele>895.2</ele><time>2026-03-24T10:20:57.364Z</time></trkpt><trkpt lat="46.6265863" lon="10.5963824"><ele>895.0</ele><time>2026-03-24T10:20:59.37Z</time></trkpt><trkpt lat="46.6264866" lon="10.5963293"><ele>895.0</ele><time>2026-03-24T10:21:01.37Z</time></trkpt><trkpt lat="46.6263848" lon="10.5962716"><ele>895.0</ele><time>2026-03-24T10:21:03.372Z</time></trkpt><trkpt lat="46.6262824" lon="10.5962161"><ele>895.0</ele><time>2026-03-24T10:21:05.37Z</time></trkpt><trkpt lat="46.626179" lon="10.5961699"><ele>895.0</ele><time>2026-03-24T10:21:07.382Z</time></trkpt><trkpt lat="46.6260784" lon="10.596108"><ele>895.0</ele><time>2026-03-24T10:21:09.371Z</time></trkpt><trkpt lat="46.6259826" lon="10.5960449"><ele>895.4</ele><time>2026-03-24T10:21:11.369Z</time></trkpt><trkpt lat="46.6258913" lon="10.5959725"><ele>895.8</ele><time>2026-03-24T10:21:13.37Z</time></trkpt><trkpt lat="46.6258067" lon="10.595891"><ele>896.2</ele><time>2026-03-24T10:21:15.368Z</time></trkpt><trkpt lat="46.6257245" lon="10.5958063"><ele>896.6</ele><time>2026-03-24T10:21:17.376Z</time></trkpt><trkpt lat="46.6256458" lon="10.5957175"><ele>897.0</ele><time>2026-03-24T10:21:19.362Z</time></trkpt><trkpt lat="46.6255675" lon="10.595626"><ele>897.0</ele><time>2026-03-24T10:21:21.37Z</time></trkpt><trkpt lat="46.6254882" lon="10.5955316"><ele>897.0</ele><time>2026-03-24T10:21:23.371Z</time></trkpt><trkpt lat="46.6254071" lon="10.5954351"><ele>897.0</ele><time>2026-03-24T10:21:25.378Z</time></trkpt><trkpt lat="46.6253258" lon="10.5953355"><ele>897.0</ele><time>2026-03-24T10:21:27.379Z</time></trkpt><trkpt lat="46.6252427" lon="10.5952374"><ele>897.0</ele><time>2026-03-24T10:21:29.371Z</time></trkpt><trkpt lat="46.6251584" lon="10.5951402"><ele>897.4000000000001</ele><time>2026-03-24T10:21:31.365Z</time></trkpt><trkpt lat="46.6250774" lon="10.5950378"><ele>897.8000000000001</ele><time>2026-03-24T10:21:33.362Z</time></trkpt><trkpt lat="46.6249949" lon="10.5949425"><ele>898.2</ele><time>2026-03-24T10:21:35.366Z</time></trkpt><trkpt lat="46.624916" lon="10.5948479"><ele>898.6</ele><time>2026-03-24T10:21:37.363Z</time></trkpt><trkpt lat="46.6248485" lon="10.5947693"><ele>899.0</ele><time>2026-03-24T10:21:39.373Z</time></trkpt><trkpt lat="46.6247822" lon="10.59469"><ele>899.0000000000001</ele><time>2026-03-24T10:21:41.365Z</time></trkpt><trkpt lat="46.6247198" lon="10.594621"><ele>899.0</ele><time>2026-03-24T10:21:43.383Z</time></trkpt><trkpt lat="46.624666" lon="10.5945595"><ele>899.0</ele><time>2026-03-24T10:21:45.364Z</time></trkpt><trkpt lat="46.6245904" lon="10.5944851"><ele>899.0</ele><time>2026-03-24T10:21:48.361Z</time></trkpt><trkpt lat="46.6245214" lon="10.5943993"><ele>899.0000000000001</ele><time>2026-03-24T10:21:50.377Z</time></trkpt><trkpt lat="46.6244504" lon="10.5942985"><ele>899.0</ele><time>2026-03-24T10:21:52.369Z</time></trkpt><trkpt lat="46.6243779" lon="10.5942004"><ele>899.2</ele><time>2026-03-24T10:21:54.363Z</time></trkpt><trkpt lat="46.6243004" lon="10.594108"><ele>899.4000000000001</ele><time>2026-03-24T10:21:56.375Z</time></trkpt><trkpt lat="46.6242233" lon="10.5940144"><ele>899.6</ele><time>2026-03-24T10:21:58.362Z</time></trkpt><trkpt lat="46.6241444" lon="10.5939208"><ele>899.8</ele><time>2026-03-24T10:22:00.375Z</time></trkpt><trkpt lat="46.6240653" lon="10.5938262"><ele>900.0</ele><time>2026-03-24T10:22:02.366Z</time></trkpt><trkpt lat="46.6239828" lon="10.5937286"><ele>900.2</ele><time>2026-03-24T10:22:04.367Z</time></trkpt><trkpt lat="46.6238996" lon="10.593633"><ele>900.4</ele><time>2026-03-24T10:22:06.369Z</time></trkpt><trkpt lat="46.6238163" lon="10.593534"><ele>900.5999999999999</ele><time>2026-03-24T10:22:08.382Z</time></trkpt><trkpt lat="46.6237314" lon="10.59344"><ele>900.8</ele><time>2026-03-24T10:22:10.367Z</time></trkpt><trkpt lat="46.6236475" lon="10.5933414"><ele>901.0</ele><time>2026-03-24T10:22:12.377Z</time></trkpt><trkpt lat="46.6235631" lon="10.593245"><ele>901.0</ele><time>2026-03-24T10:22:14.37Z</time></trkpt><trkpt lat="46.6234768" lon="10.5931486"><ele>900.9999999999999</ele><time>2026-03-24T10:22:16.366Z</time></trkpt><trkpt lat="46.6233876" lon="10.593056"><ele>900.9999999999999</ele><time>2026-03-24T10:22:18.365Z</time></trkpt><trkpt lat="46.6232998" lon="10.5929632"><ele>901.0</ele><time>2026-03-24T10:22:20.363Z</time></trkpt><trkpt lat="46.6232136" lon="10.5928597"><ele>901.0</ele><time>2026-03-24T10:22:22.369Z</time></trkpt><trkpt lat="46.6231277" lon="10.5927518"><ele>901.25</ele><time>2026-03-24T10:22:24.366Z</time></trkpt><trkpt lat="46.6230414" lon="10.5926471"><ele>901.5</ele><time>2026-03-24T10:22:26.38Z</time></trkpt><trkpt lat="46.6229533" lon="10.5925438"><ele>901.75</ele><time>2026-03-24T10:22:28.361Z</time></trkpt><trkpt lat="46.6228661" lon="10.5924384"><ele>902.0</ele><time>2026-03-24T10:22:30.374Z</time></trkpt><trkpt lat="46.6227771" lon="10.5923386"><ele>902.0</ele><time>2026-03-24T10:22:32.368Z</time></trkpt><trkpt lat="46.6226896" lon="10.5922396"><ele>902.0</ele><time>2026-03-24T10:22:34.365Z</time></trkpt><trkpt lat="46.622604" lon="10.5921404"><ele>902.0</ele><time>2026-03-24T10:22:36.375Z</time></trkpt><trkpt lat="46.6225201" lon="10.5920436"><ele>902.0</ele><time>2026-03-24T10:22:38.365Z</time></trkpt><trkpt lat="46.6224349" lon="10.5919447"><ele>902.0</ele><time>2026-03-24T10:22:40.364Z</time></trkpt><trkpt lat="46.6223489" lon="10.5918452"><ele>902.2</ele><time>2026-03-24T10:22:42.366Z</time></trkpt><trkpt lat="46.6222641" lon="10.591748"><ele>902.4000000000001</ele><time>2026-03-24T10:22:44.381Z</time></trkpt><trkpt lat="46.622174" lon="10.5916528"><ele>902.5999999999999</ele><time>2026-03-24T10:22:46.365Z</time></trkpt><trkpt lat="46.6220853" lon="10.5915542"><ele>902.8</ele><time>2026-03-24T10:22:48.367Z</time></trkpt><trkpt lat="46.6219984" lon="10.5914549"><ele>903.0</ele><time>2026-03-24T10:22:50.365Z</time></trkpt><trkpt lat="46.6219119" lon="10.5913546"><ele>903.4</ele><time>2026-03-24T10:22:52.366Z</time></trkpt><trkpt lat="46.6218249" lon="10.591253"><ele>903.8</ele><time>2026-03-24T10:22:54.374Z</time></trkpt><trkpt lat="46.6217361" lon="10.5911571"><ele>904.2</ele><time>2026-03-24T10:22:56.376Z</time></trkpt><trkpt lat="46.6216479" lon="10.5910603"><ele>904.6</ele><time>2026-03-24T10:22:58.368Z</time></trkpt><trkpt lat="46.6215616" lon="10.5909568"><ele>905.0</ele><time>2026-03-24T10:23:00.365Z</time></trkpt><trkpt lat="46.6214719" lon="10.5908558"><ele>905.2</ele><time>2026-03-24T10:23:02.365Z</time></trkpt><trkpt lat="46.6213839" lon="10.5907598"><ele>905.4</ele><time>2026-03-24T10:23:04.368Z</time></trkpt><trkpt lat="46.6212969" lon="10.5906623"><ele>905.5999999999999</ele><time>2026-03-24T10:23:06.355Z</time></trkpt><trkpt lat="46.6212162" lon="10.5905668"><ele>905.8</ele><time>2026-03-24T10:23:08.374Z</time></trkpt><trkpt lat="46.6211449" lon="10.5904754"><ele>906.0</ele><time>2026-03-24T10:23:10.364Z</time></trkpt><trkpt lat="46.6210963" lon="10.5904009"><ele>906.1666666666666</ele><time>2026-03-24T10:23:12.372Z</time></trkpt><trkpt lat="46.6210471" lon="10.5903334"><ele>906.3333333333333</ele><time>2026-03-24T10:23:19.362Z</time></trkpt><trkpt lat="46.6209765" lon="10.5903629"><ele>906.5</ele><time>2026-03-24T10:23:23.366Z</time></trkpt><trkpt lat="46.6209302" lon="10.5904576"><ele>906.6666666666666</ele><time>2026-03-24T10:23:26.357Z</time></trkpt><trkpt lat="46.6208824" lon="10.5905338"><ele>906.8333333333333</ele><time>2026-03-24T10:23:28.379Z</time></trkpt><trkpt lat="46.620825" lon="10.5906342"><ele>907.0</ele><time>2026-03-24T10:23:30.369Z</time></trkpt><trkpt lat="46.6207491" lon="10.5907411"><ele>907.0</ele><time>2026-03-24T10:23:32.366Z</time></trkpt><trkpt lat="46.6206719" lon="10.5908509"><ele>907.0</ele><time>2026-03-24T10:23:34.369Z</time></trkpt><trkpt lat="46.6205834" lon="10.5909472"><ele>907.0</ele><time>2026-03-24T10:23:36.373Z</time></trkpt><trkpt lat="46.6205036" lon="10.5910495"><ele>907.0</ele><time>2026-03-24T10:23:38.375Z</time></trkpt><trkpt lat="46.620428" lon="10.5911706"><ele>907.0</ele><time>2026-03-24T10:23:40.366Z</time></trkpt><trkpt lat="46.6203424" lon="10.5912838"><ele>906.9999999999999</ele><time>2026-03-24T10:23:42.383Z</time></trkpt><trkpt lat="46.6202481" lon="10.5914045"><ele>907.0</ele><time>2026-03-24T10:23:44.372Z</time></trkpt><trkpt lat="46.6201993" lon="10.5914691"><ele>907.0</ele><time>2026-03-24T10:23:45.358Z</time></trkpt><trkpt lat="46.6201479" lon="10.591535"><ele>907.0</ele><time>2026-03-24T10:23:46.371Z</time></trkpt><trkpt lat="46.6200958" lon="10.5916035"><ele>906.9999999999999</ele><time>2026-03-24T10:23:47.367Z</time></trkpt><trkpt lat="46.6200439" lon="10.5916729"><ele>907.0</ele><time>2026-03-24T10:23:48.368Z</time></trkpt><trkpt lat="46.619995" lon="10.5917455"><ele>907.0000000000001</ele><time>2026-03-24T10:23:49.37Z</time></trkpt><trkpt lat="46.6199471" lon="10.5918183"><ele>907.0</ele><time>2026-03-24T10:23:50.372Z</time></trkpt><trkpt lat="46.6198949" lon="10.5918764"><ele>907.0000000000001</ele><time>2026-03-24T10:23:51.374Z</time></trkpt><trkpt lat="46.6198397" lon="10.5919276"><ele>907.0000000000001</ele><time>2026-03-24T10:23:52.367Z</time></trkpt><trkpt lat="46.6197807" lon="10.5919719"><ele>907.0</ele><time>2026-03-24T10:23:53.36Z</time></trkpt><trkpt lat="46.6197218" lon="10.592013"><ele>907.0000000000001</ele><time>2026-03-24T10:23:54.363Z</time></trkpt><trkpt lat="46.6196628" lon="10.5920563"><ele>907.0000000000001</ele><time>2026-03-24T10:23:55.364Z</time></trkpt><trkpt lat="46.6196039" lon="10.592099"><ele>906.8333333333333</ele><time>2026-03-24T10:23:56.369Z</time></trkpt><trkpt lat="46.6195445" lon="10.5921412"><ele>906.6666666666666</ele><time>2026-03-24T10:23:57.371Z</time></trkpt><trkpt lat="46.6194851" lon="10.5921843"><ele>906.5</ele><time>2026-03-24T10:23:58.357Z</time></trkpt><trkpt lat="46.6194283" lon="10.5922294"><ele>906.3333333333333</ele><time>2026-03-24T10:23:59.363Z</time></trkpt><trkpt lat="46.6193722" lon="10.5922746"><ele>906.1666666666666</ele><time>2026-03-24T10:24:00.367Z</time></trkpt><trkpt lat="46.6192659" lon="10.5923647"><ele>906.0</ele><time>2026-03-24T10:24:02.377Z</time></trkpt><trkpt lat="46.6191637" lon="10.5924543"><ele>906.0</ele><time>2026-03-24T10:24:04.366Z</time></trkpt><trkpt lat="46.6190649" lon="10.5925447"><ele>906.0</ele><time>2026-03-24T10:24:06.363Z</time></trkpt><trkpt lat="46.6189712" lon="10.5926424"><ele>906.0</ele><time>2026-03-24T10:24:08.356Z</time></trkpt><trkpt lat="46.6188786" lon="10.5927469"><ele>906.0</ele><time>2026-03-24T10:24:10.372Z</time></trkpt><trkpt lat="46.6187883" lon="10.5928604"><ele>906.25</ele><time>2026-03-24T10:24:12.366Z</time></trkpt><trkpt lat="46.6186969" lon="10.592974"><ele>906.5</ele><time>2026-03-24T10:24:14.357Z</time></trkpt><trkpt lat="46.6186079" lon="10.5930899"><ele>906.75</ele><time>2026-03-24T10:24:16.367Z</time></trkpt><trkpt lat="46.6185125" lon="10.5931934"><ele>907.0</ele><time>2026-03-24T10:24:18.377Z</time></trkpt><trkpt lat="46.618411" lon="10.5932853"><ele>907.0</ele><time>2026-03-24T10:24:20.372Z</time></trkpt><trkpt lat="46.6183022" lon="10.5933633"><ele>907.0</ele><time>2026-03-24T10:24:22.361Z</time></trkpt><trkpt lat="46.6181956" lon="10.5934312"><ele>907.0</ele><time>2026-03-24T10:24:24.369Z</time></trkpt><trkpt lat="46.6180924" lon="10.5934739"><ele>907.0</ele><time>2026-03-24T10:24:26.354Z</time></trkpt><trkpt lat="46.6179803" lon="10.5934634"><ele>907.0</ele><time>2026-03-24T10:24:28.371Z</time></trkpt><trkpt lat="46.6178753" lon="10.5934243"><ele>907.0</ele><time>2026-03-24T10:24:30.366Z</time></trkpt><trkpt lat="46.6177719" lon="10.5933916"><ele>907.0</ele><time>2026-03-24T10:24:32.362Z</time></trkpt><trkpt lat="46.6176756" lon="10.5933711"><ele>907.0</ele><time>2026-03-24T10:24:34.372Z</time></trkpt><trkpt lat="46.6175993" lon="10.5933934"><ele>907.0</ele><time>2026-03-24T10:24:37.366Z</time></trkpt><trkpt lat="46.6175307" lon="10.5934253"><ele>907.3333333333333</ele><time>2026-03-24T10:24:49.366Z</time></trkpt><trkpt lat="46.6174883" lon="10.5933546"><ele>907.6666666666666</ele><time>2026-03-24T10:24:52.36Z</time></trkpt><trkpt lat="46.617481" lon="10.5932142"><ele>908.0</ele><time>2026-03-24T10:24:55.368Z</time></trkpt><trkpt lat="46.6174829" lon="10.5931014"><ele>908.3333333333333</ele><time>2026-03-24T10:24:57.361Z</time></trkpt><trkpt lat="46.6174667" lon="10.5929677"><ele>908.6666666666666</ele><time>2026-03-24T10:24:59.372Z</time></trkpt><trkpt lat="46.6174523" lon="10.5928085"><ele>909.0</ele><time>2026-03-24T10:25:01.367Z</time></trkpt><trkpt lat="46.6174388" lon="10.5926656"><ele>909.2</ele><time>2026-03-24T10:25:03.371Z</time></trkpt><trkpt lat="46.6174189" lon="10.5925262"><ele>909.4000000000001</ele><time>2026-03-24T10:25:05.37Z</time></trkpt><trkpt lat="46.6173989" lon="10.5923857"><ele>909.6</ele><time>2026-03-24T10:25:07.367Z</time></trkpt><trkpt lat="46.617374" lon="10.5922425"><ele>909.8</ele><time>2026-03-24T10:25:09.361Z</time></trkpt><trkpt lat="46.6173454" lon="10.5921024"><ele>910.0</ele><time>2026-03-24T10:25:11.362Z</time></trkpt><trkpt lat="46.6173121" lon="10.5919694"><ele>909.9999999999999</ele><time>2026-03-24T10:25:13.37Z</time></trkpt><trkpt lat="46.6172664" lon="10.5918571"><ele>910.0</ele><time>2026-03-24T10:25:15.366Z</time></trkpt><trkpt lat="46.6172147" lon="10.5917605"><ele>910.0</ele><time>2026-03-24T10:25:17.366Z</time></trkpt><trkpt lat="46.6171652" lon="10.5916601"><ele>910.0</ele><time>2026-03-24T10:25:19.375Z</time></trkpt><trkpt lat="46.6171258" lon="10.5915539"><ele>909.9999999999999</ele><time>2026-03-24T10:25:21.368Z</time></trkpt><trkpt lat="46.6171019" lon="10.5914511"><ele>910.0</ele><time>2026-03-24T10:25:23.364Z</time></trkpt><trkpt lat="46.6170755" lon="10.5913542"><ele>909.9999999999999</ele><time>2026-03-24T10:25:25.369Z</time></trkpt><trkpt lat="46.6170346" lon="10.5912566"><ele>910.0</ele><time>2026-03-24T10:25:27.371Z</time></trkpt><trkpt lat="46.6169845" lon="10.5911558"><ele>910.0</ele><time>2026-03-24T10:25:29.363Z</time></trkpt><trkpt lat="46.6169309" lon="10.5910542"><ele>910.0</ele><time>2026-03-24T10:25:31.373Z</time></trkpt><trkpt lat="46.6168776" lon="10.5909503"><ele>909.9999999999999</ele><time>2026-03-24T10:25:33.366Z</time></trkpt><trkpt lat="46.6168243" lon="10.5908415"><ele>910.0</ele><time>2026-03-24T10:25:35.363Z</time></trkpt><trkpt lat="46.6167828" lon="10.5907247"><ele>910.1428571428571</ele><time>2026-03-24T10:25:37.372Z</time></trkpt><trkpt lat="46.6167502" lon="10.5906295"><ele>910.2857142857142</ele><time>2026-03-24T10:25:39.37Z</time></trkpt><trkpt lat="46.6167157" lon="10.5905075"><ele>910.4285714285714</ele><time>2026-03-24T10:25:42.367Z</time></trkpt><trkpt lat="46.6166736" lon="10.5904153"><ele>910.5714285714286</ele><time>2026-03-24T10:25:45.362Z</time></trkpt><trkpt lat="46.6166328" lon="10.5904854"><ele>910.7142857142857</ele><time>2026-03-24T10:25:48.382Z</time></trkpt><trkpt lat="46.616673" lon="10.5905579"><ele>910.8571428571429</ele><time>2026-03-24T10:25:50.367Z</time></trkpt><trkpt lat="46.6167139" lon="10.5906394"><ele>911.0</ele><time>2026-03-24T10:25:52.363Z</time></trkpt><trkpt lat="46.6167554" lon="10.5907336"><ele>911.0</ele><time>2026-03-24T10:25:54.365Z</time></trkpt><trkpt lat="46.6167979" lon="10.5908322"><ele>910.9999999999999</ele><time>2026-03-24T10:25:56.365Z</time></trkpt><trkpt lat="46.616855" lon="10.590939"><ele>910.9999999999999</ele><time>2026-03-24T10:25:58.361Z</time></trkpt><trkpt lat="46.6169211" lon="10.5910477"><ele>911.0</ele><time>2026-03-24T10:26:00.363Z</time></trkpt><trkpt lat="46.6169901" lon="10.5911529"><ele>911.0</ele><time>2026-03-24T10:26:02.366Z</time></trkpt><trkpt lat="46.6170486" lon="10.5912663"><ele>910.8</ele><time>2026-03-24T10:26:04.363Z</time></trkpt><trkpt lat="46.617109" lon="10.5913834"><ele>910.5999999999999</ele><time>2026-03-24T10:26:06.361Z</time></trkpt><trkpt lat="46.6171465" lon="10.5915127"><ele>910.4</ele><time>2026-03-24T10:26:08.363Z</time></trkpt><trkpt lat="46.6171787" lon="10.5916436"><ele>910.2</ele><time>2026-03-24T10:26:10.368Z</time></trkpt><trkpt lat="46.6172281" lon="10.5917638"><ele>910.0</ele><time>2026-03-24T10:26:12.363Z</time></trkpt><trkpt lat="46.6172806" lon="10.5918727"><ele>910.0</ele><time>2026-03-24T10:26:14.359Z</time></trkpt><trkpt lat="46.6173252" lon="10.5920023"><ele>910.0</ele><time>2026-03-24T10:26:16.373Z</time></trkpt><trkpt lat="46.6173563" lon="10.5921511"><ele>910.0</ele><time>2026-03-24T10:26:18.375Z</time></trkpt><trkpt lat="46.6173862" lon="10.5923111"><ele>910.0</ele><time>2026-03-24T10:26:20.379Z</time></trkpt><trkpt lat="46.6174146" lon="10.5924804"><ele>910.0</ele><time>2026-03-24T10:26:22.365Z</time></trkpt><trkpt lat="46.617429" lon="10.592573"><ele>910.1428571428571</ele><time>2026-03-24T10:26:23.365Z</time></trkpt><trkpt lat="46.6174398" lon="10.5926634"><ele>910.2857142857142</ele><time>2026-03-24T10:26:24.366Z</time></trkpt><trkpt lat="46.6174496" lon="10.5927547"><ele>910.4285714285714</ele><time>2026-03-24T10:26:25.373Z</time></trkpt><trkpt lat="46.6174642" lon="10.5929376"><ele>910.5714285714286</ele><time>2026-03-24T10:26:27.375Z</time></trkpt><trkpt lat="46.6174733" lon="10.5930308"><ele>910.7142857142857</ele><time>2026-03-24T10:26:28.375Z</time></trkpt><trkpt lat="46.6174807" lon="10.5931234"><ele>910.8571428571429</ele><time>2026-03-24T10:26:29.367Z</time></trkpt><trkpt lat="46.6174908" lon="10.5932167"><ele>911.0</ele><time>2026-03-24T10:26:30.369Z</time></trkpt><trkpt lat="46.6175035" lon="10.593307"><ele>910.5</ele><time>2026-03-24T10:26:31.377Z</time></trkpt><trkpt lat="46.6175315" lon="10.5934757"><ele>910.0</ele><time>2026-03-24T10:26:33.367Z</time></trkpt><trkpt lat="46.6175562" lon="10.5936463"><ele>909.5</ele><time>2026-03-24T10:26:35.368Z</time></trkpt><trkpt lat="46.6175824" lon="10.59382"><ele>909.0</ele><time>2026-03-24T10:26:37.362Z</time></trkpt><trkpt lat="46.6176092" lon="10.5939954"><ele>908.8000000000001</ele><time>2026-03-24T10:26:39.378Z</time></trkpt><trkpt lat="46.6176342" lon="10.5941633"><ele>908.6000000000001</ele><time>2026-03-24T10:26:41.374Z</time></trkpt><trkpt lat="46.6176629" lon="10.5943235"><ele>908.4</ele><time>2026-03-24T10:26:43.364Z</time></trkpt><trkpt lat="46.617688" lon="10.5944758"><ele>908.2</ele><time>2026-03-24T10:26:45.36Z</time></trkpt><trkpt lat="46.6177009" lon="10.5945846"><ele>908.0</ele><time>2026-03-24T10:26:47.368Z</time></trkpt><trkpt lat="46.6176591" lon="10.5946987"><ele>908.0</ele><time>2026-03-24T10:26:50.372Z</time></trkpt><trkpt lat="46.6176218" lon="10.5948238"><ele>908.0</ele><time>2026-03-24T10:26:53.363Z</time></trkpt><trkpt lat="46.6176364" lon="10.5949357"><ele>908.0</ele><time>2026-03-24T10:26:55.373Z</time></trkpt><trkpt lat="46.6176598" lon="10.5950667"><ele>908.0</ele><time>2026-03-24T10:26:57.37Z</time></trkpt><trkpt lat="46.6176831" lon="10.5952108"><ele>908.0</ele><time>2026-03-24T10:26:59.369Z</time></trkpt><trkpt lat="46.6176964" lon="10.5953669"><ele>907.75</ele><time>2026-03-24T10:27:01.378Z</time></trkpt><trkpt lat="46.6177144" lon="10.5955293"><ele>907.5</ele><time>2026-03-24T10:27:03.375Z</time></trkpt><trkpt lat="46.6177371" lon="10.5956945"><ele>907.25</ele><time>2026-03-24T10:27:05.366Z</time></trkpt><trkpt lat="46.6177695" lon="10.5958618"><ele>907.0</ele><time>2026-03-24T10:27:07.379Z</time></trkpt><trkpt lat="46.617815" lon="10.5960325"><ele>906.857142857143</ele><time>2026-03-24T10:27:09.363Z</time></trkpt><trkpt lat="46.6178351" lon="10.5961195"><ele>906.7142857142858</ele><time>2026-03-24T10:27:10.374Z</time></trkpt><trkpt lat="46.6178493" lon="10.59621"><ele>906.5714285714286</ele><time>2026-03-24T10:27:11.372Z</time></trkpt><trkpt lat="46.6178623" lon="10.5963008"><ele>906.4285714285714</ele><time>2026-03-24T10:27:12.367Z</time></trkpt><trkpt lat="46.6178714" lon="10.5963957"><ele>906.2857142857142</ele><time>2026-03-24T10:27:13.363Z</time></trkpt><trkpt lat="46.6178744" lon="10.5964923"><ele>906.142857142857</ele><time>2026-03-24T10:27:14.376Z</time></trkpt><trkpt lat="46.6178784" lon="10.5965886"><ele>905.9999999999999</ele><time>2026-03-24T10:27:15.371Z</time></trkpt><trkpt lat="46.6178853" lon="10.5966853"><ele>905.7142857142856</ele><time>2026-03-24T10:27:16.366Z</time></trkpt><trkpt lat="46.6178887" lon="10.5967821"><ele>905.4285714285713</ele><time>2026-03-24T10:27:17.364Z</time></trkpt><trkpt lat="46.6178939" lon="10.5968789"><ele>905.1428571428571</ele><time>2026-03-24T10:27:18.365Z</time></trkpt><trkpt lat="46.6179009" lon="10.5969751"><ele>904.8571428571428</ele><time>2026-03-24T10:27:19.373Z</time></trkpt><trkpt lat="46.6179054" lon="10.5970719"><ele>904.5714285714284</ele><time>2026-03-24T10:27:20.373Z</time></trkpt><trkpt lat="46.6179069" lon="10.5971691"><ele>904.2857142857143</ele><time>2026-03-24T10:27:21.37Z</time></trkpt><trkpt lat="46.61791" lon="10.5972659"><ele>904.0</ele><time>2026-03-24T10:27:22.372Z</time></trkpt><trkpt lat="46.6179141" lon="10.5973634"><ele>903.8571428571429</ele><time>2026-03-24T10:27:23.365Z</time></trkpt><trkpt lat="46.6179163" lon="10.5974616"><ele>903.7142857142857</ele><time>2026-03-24T10:27:24.372Z</time></trkpt><trkpt lat="46.6179169" lon="10.5975576"><ele>903.5714285714286</ele><time>2026-03-24T10:27:25.369Z</time></trkpt><trkpt lat="46.6179189" lon="10.5976515"><ele>903.4285714285714</ele><time>2026-03-24T10:27:26.365Z</time></trkpt><trkpt lat="46.6179243" lon="10.5977432"><ele>903.2857142857142</ele><time>2026-03-24T10:27:27.362Z</time></trkpt><trkpt lat="46.6179335" lon="10.5978349"><ele>903.1428571428571</ele><time>2026-03-24T10:27:28.373Z</time></trkpt><trkpt lat="46.6179486" lon="10.597925"><ele>903.0</ele><time>2026-03-24T10:27:29.373Z</time></trkpt><trkpt lat="46.6179579" lon="10.5981039"><ele>902.8333333333334</ele><time>2026-03-24T10:27:31.368Z</time></trkpt><trkpt lat="46.6179394" lon="10.5982771"><ele>902.6666666666667</ele><time>2026-03-24T10:27:33.372Z</time></trkpt><trkpt lat="46.6179004" lon="10.5984532"><ele>902.5</ele><time>2026-03-24T10:27:35.358Z</time></trkpt><trkpt lat="46.6178784" lon="10.5985439"><ele>902.3333333333334</ele><time>2026-03-24T10:27:36.368Z</time></trkpt><trkpt lat="46.6178564" lon="10.5986355"><ele>902.1666666666667</ele><time>2026-03-24T10:27:37.37Z</time></trkpt><trkpt lat="46.6178325" lon="10.5987285"><ele>902.0</ele><time>2026-03-24T10:27:38.357Z</time></trkpt><trkpt lat="46.6178091" lon="10.5988226"><ele>901.8571428571429</ele><time>2026-03-24T10:27:39.364Z</time></trkpt><trkpt lat="46.6177858" lon="10.5989191"><ele>901.7142857142858</ele><time>2026-03-24T10:27:40.372Z</time></trkpt><trkpt lat="46.6177634" lon="10.5990175"><ele>901.5714285714287</ele><time>2026-03-24T10:27:41.374Z</time></trkpt><trkpt lat="46.6177429" lon="10.5991163"><ele>901.4285714285714</ele><time>2026-03-24T10:27:42.365Z</time></trkpt><trkpt lat="46.6177229" lon="10.599214"><ele>901.2857142857144</ele><time>2026-03-24T10:27:43.376Z</time></trkpt><trkpt lat="46.6177003" lon="10.5993117"><ele>901.1428571428572</ele><time>2026-03-24T10:27:44.364Z</time></trkpt><trkpt lat="46.6176772" lon="10.5994062"><ele>901.0</ele><time>2026-03-24T10:27:45.37Z</time></trkpt><trkpt lat="46.617657" lon="10.5995035"><ele>900.5714285714287</ele><time>2026-03-24T10:27:46.376Z</time></trkpt><trkpt lat="46.6176433" lon="10.5996009"><ele>900.1428571428572</ele><time>2026-03-24T10:27:47.377Z</time></trkpt><trkpt lat="46.6176349" lon="10.5996965"><ele>899.7142857142858</ele><time>2026-03-24T10:27:48.372Z</time></trkpt><trkpt lat="46.6176326" lon="10.5997932"><ele>899.2857142857142</ele><time>2026-03-24T10:27:49.373Z</time></trkpt><trkpt lat="46.6176296" lon="10.5998904"><ele>898.8571428571428</ele><time>2026-03-24T10:27:50.367Z</time></trkpt><trkpt lat="46.6176247" lon="10.5999888"><ele>898.4285714285713</ele><time>2026-03-24T10:27:51.374Z</time></trkpt><trkpt lat="46.6176167" lon="10.6000864"><ele>898.0</ele><time>2026-03-24T10:27:52.362Z</time></trkpt><trkpt lat="46.617605" lon="10.6001842"><ele>898.0</ele><time>2026-03-24T10:27:53.366Z</time></trkpt><trkpt lat="46.6175908" lon="10.6002824"><ele>897.9999999999999</ele><time>2026-03-24T10:27:54.373Z</time></trkpt><trkpt lat="46.6175737" lon="10.6003792"><ele>898.0</ele><time>2026-03-24T10:27:55.377Z</time></trkpt><trkpt lat="46.6175564" lon="10.6004748"><ele>898.0</ele><time>2026-03-24T10:27:56.364Z</time></trkpt><trkpt lat="46.6175377" lon="10.6005715"><ele>897.9999999999999</ele><time>2026-03-24T10:27:57.365Z</time></trkpt><trkpt lat="46.6175176" lon="10.6006668"><ele>898.0</ele><time>2026-03-24T10:27:58.374Z</time></trkpt><trkpt lat="46.6174973" lon="10.6007624"><ele>898.0</ele><time>2026-03-24T10:27:59.372Z</time></trkpt><trkpt lat="46.6174765" lon="10.60086"><ele>898.0</ele><time>2026-03-24T10:28:00.364Z</time></trkpt><trkpt lat="46.6174586" lon="10.6009605"><ele>897.9999999999999</ele><time>2026-03-24T10:28:01.363Z</time></trkpt><trkpt lat="46.6174451" lon="10.6010651"><ele>898.0</ele><time>2026-03-24T10:28:02.366Z</time></trkpt><trkpt lat="46.6174384" lon="10.6011726"><ele>898.0</ele><time>2026-03-24T10:28:03.365Z</time></trkpt><trkpt lat="46.6174346" lon="10.6012809"><ele>897.9999999999999</ele><time>2026-03-24T10:28:04.368Z</time></trkpt><trkpt lat="46.6174297" lon="10.6013891"><ele>898.0</ele><time>2026-03-24T10:28:05.364Z</time></trkpt><trkpt lat="46.6174237" lon="10.6014974"><ele>898.0</ele><time>2026-03-24T10:28:06.368Z</time></trkpt><trkpt lat="46.6174141" lon="10.6016046"><ele>897.9999999999999</ele><time>2026-03-24T10:28:07.381Z</time></trkpt><trkpt lat="46.6174001" lon="10.6017103"><ele>898.0</ele><time>2026-03-24T10:28:08.363Z</time></trkpt><trkpt lat="46.6173858" lon="10.6018166"><ele>898.0</ele><time>2026-03-24T10:28:09.364Z</time></trkpt><trkpt lat="46.6173763" lon="10.6019264"><ele>898.0</ele><time>2026-03-24T10:28:10.363Z</time></trkpt><trkpt lat="46.6173738" lon="10.6020379"><ele>897.9999999999999</ele><time>2026-03-24T10:28:11.368Z</time></trkpt><trkpt lat="46.617376" lon="10.60215"><ele>898.0</ele><time>2026-03-24T10:28:12.372Z</time></trkpt><trkpt lat="46.6173781" lon="10.6022626"><ele>897.4999999999999</ele><time>2026-03-24T10:28:13.369Z</time></trkpt><trkpt lat="46.617379" lon="10.6023757"><ele>897.0</ele><time>2026-03-24T10:28:14.373Z</time></trkpt><trkpt lat="46.6173781" lon="10.602489"><ele>896.5</ele><time>2026-03-24T10:28:15.369Z</time></trkpt><trkpt lat="46.6173758" lon="10.602603"><ele>896.0</ele><time>2026-03-24T10:28:16.368Z</time></trkpt><trkpt lat="46.6173702" lon="10.6027175"><ele>895.4999999999999</ele><time>2026-03-24T10:28:17.363Z</time></trkpt><trkpt lat="46.6173626" lon="10.6028316"><ele>895.0</ele><time>2026-03-24T10:28:18.374Z</time></trkpt><trkpt lat="46.6173534" lon="10.6029452"><ele>894.6666666666666</ele><time>2026-03-24T10:28:19.373Z</time></trkpt><trkpt lat="46.617342" lon="10.6030579"><ele>894.3333333333333</ele><time>2026-03-24T10:28:20.367Z</time></trkpt><trkpt lat="46.617328" lon="10.6031694"><ele>894.0</ele><time>2026-03-24T10:28:21.364Z</time></trkpt><trkpt lat="46.6173121" lon="10.60328"><ele>893.6666666666667</ele><time>2026-03-24T10:28:22.372Z</time></trkpt><trkpt lat="46.6172965" lon="10.6033913"><ele>893.3333333333334</ele><time>2026-03-24T10:28:23.37Z</time></trkpt><trkpt lat="46.6172803" lon="10.6035026"><ele>893.0</ele><time>2026-03-24T10:28:24.366Z</time></trkpt><trkpt lat="46.617264" lon="10.6036142"><ele>892.6666666666667</ele><time>2026-03-24T10:28:25.373Z</time></trkpt><trkpt lat="46.6172474" lon="10.6037265"><ele>892.3333333333334</ele><time>2026-03-24T10:28:26.367Z</time></trkpt><trkpt lat="46.6172275" lon="10.6038381"><ele>892.0</ele><time>2026-03-24T10:28:27.369Z</time></trkpt><trkpt lat="46.6172038" lon="10.6039482"><ele>891.6666666666667</ele><time>2026-03-24T10:28:28.372Z</time></trkpt><trkpt lat="46.6171748" lon="10.6040559"><ele>891.3333333333334</ele><time>2026-03-24T10:28:29.372Z</time></trkpt><trkpt lat="46.6171412" lon="10.6041608"><ele>891.0</ele><time>2026-03-24T10:28:30.368Z</time></trkpt><trkpt lat="46.6171067" lon="10.6042644"><ele>891.0</ele><time>2026-03-24T10:28:31.371Z</time></trkpt><trkpt lat="46.6170718" lon="10.6043671"><ele>891.0</ele><time>2026-03-24T10:28:32.362Z</time></trkpt><trkpt lat="46.6170374" lon="10.6044705"><ele>891.0</ele><time>2026-03-24T10:28:33.364Z</time></trkpt><trkpt lat="46.6170021" lon="10.6045735"><ele>891.0</ele><time>2026-03-24T10:28:34.358Z</time></trkpt><trkpt lat="46.6169682" lon="10.6046769"><ele>891.0</ele><time>2026-03-24T10:28:35.376Z</time></trkpt><trkpt lat="46.6169357" lon="10.6047804"><ele>891.0</ele><time>2026-03-24T10:28:36.37Z</time></trkpt><trkpt lat="46.6169038" lon="10.6048808"><ele>891.3333333333334</ele><time>2026-03-24T10:28:37.373Z</time></trkpt><trkpt lat="46.6168759" lon="10.6049834"><ele>891.6666666666667</ele><time>2026-03-24T10:28:38.368Z</time></trkpt><trkpt lat="46.6168511" lon="10.6050908"><ele>892.0</ele><time>2026-03-24T10:28:39.374Z</time></trkpt><trkpt lat="46.6168286" lon="10.605202"><ele>892.3333333333334</ele><time>2026-03-24T10:28:40.374Z</time></trkpt><trkpt lat="46.6168129" lon="10.6053142"><ele>892.6666666666667</ele><time>2026-03-24T10:28:41.369Z</time></trkpt><trkpt lat="46.6168018" lon="10.6054269"><ele>893.0</ele><time>2026-03-24T10:28:42.375Z</time></trkpt><trkpt lat="46.6167955" lon="10.605541"><ele>893.0000000000001</ele><time>2026-03-24T10:28:43.378Z</time></trkpt><trkpt lat="46.6167895" lon="10.605656"><ele>893.0</ele><time>2026-03-24T10:28:44.375Z</time></trkpt><trkpt lat="46.6167843" lon="10.6057701"><ele>893.0</ele><time>2026-03-24T10:28:45.364Z</time></trkpt><trkpt lat="46.6167793" lon="10.6058849"><ele>893.0</ele><time>2026-03-24T10:28:46.375Z</time></trkpt><trkpt lat="46.616774" lon="10.6059987"><ele>893.0000000000001</ele><time>2026-03-24T10:28:47.366Z</time></trkpt><trkpt lat="46.6167713" lon="10.6061122"><ele>893.0</ele><time>2026-03-24T10:28:48.375Z</time></trkpt><trkpt lat="46.6167678" lon="10.606226"><ele>893.0000000000001</ele><time>2026-03-24T10:28:49.363Z</time></trkpt><trkpt lat="46.616763" lon="10.6063386"><ele>893.0</ele><time>2026-03-24T10:28:50.38Z</time></trkpt><trkpt lat="46.6167581" lon="10.6064504"><ele>893.0</ele><time>2026-03-24T10:28:51.369Z</time></trkpt><trkpt lat="46.6167546" lon="10.6065617"><ele>893.0</ele><time>2026-03-24T10:28:52.37Z</time></trkpt><trkpt lat="46.6167545" lon="10.6066728"><ele>893.0000000000001</ele><time>2026-03-24T10:28:53.364Z</time></trkpt><trkpt lat="46.6167546" lon="10.6067858"><ele>893.0</ele><time>2026-03-24T10:28:54.364Z</time></trkpt><trkpt lat="46.6167541" lon="10.6069002"><ele>893.0000000000001</ele><time>2026-03-24T10:28:55.367Z</time></trkpt><trkpt lat="46.6167522" lon="10.6070147"><ele>893.0</ele><time>2026-03-24T10:28:56.364Z</time></trkpt><trkpt lat="46.6167506" lon="10.6071296"><ele>893.0</ele><time>2026-03-24T10:28:57.375Z</time></trkpt><trkpt lat="46.616747" lon="10.6072444"><ele>893.0</ele><time>2026-03-24T10:28:58.37Z</time></trkpt><trkpt lat="46.6167427" lon="10.6073593"><ele>893.0000000000001</ele><time>2026-03-24T10:28:59.374Z</time></trkpt><trkpt lat="46.6167371" lon="10.6074738"><ele>893.0</ele><time>2026-03-24T10:29:00.374Z</time></trkpt><trkpt lat="46.6167314" lon="10.6075882"><ele>893.0000000000001</ele><time>2026-03-24T10:29:01.371Z</time></trkpt><trkpt lat="46.6167279" lon="10.6077024"><ele>893.0</ele><time>2026-03-24T10:29:02.362Z</time></trkpt><trkpt lat="46.6167257" lon="10.6078165"><ele>893.0</ele><time>2026-03-24T10:29:03.369Z</time></trkpt><trkpt lat="46.6167248" lon="10.6079307"><ele>893.0</ele><time>2026-03-24T10:29:04.364Z</time></trkpt><trkpt lat="46.616723" lon="10.6080448"><ele>893.0000000000001</ele><time>2026-03-24T10:29:05.362Z</time></trkpt><trkpt lat="46.6167213" lon="10.608159"><ele>893.0</ele><time>2026-03-24T10:29:06.361Z</time></trkpt><trkpt lat="46.6167201" lon="10.6082732"><ele>892.5000000000001</ele><time>2026-03-24T10:29:07.384Z</time></trkpt><trkpt lat="46.6167161" lon="10.608387"><ele>892.0</ele><time>2026-03-24T10:29:08.373Z</time></trkpt><trkpt lat="46.6167068" lon="10.6084996"><ele>891.5</ele><time>2026-03-24T10:29:09.365Z</time></trkpt><trkpt lat="46.6166927" lon="10.608612"><ele>891.0</ele><time>2026-03-24T10:29:10.371Z</time></trkpt><trkpt lat="46.6166776" lon="10.6087247"><ele>890.5000000000001</ele><time>2026-03-24T10:29:11.368Z</time></trkpt><trkpt lat="46.6166656" lon="10.6088386"><ele>890.0</ele><time>2026-03-24T10:29:12.374Z</time></trkpt><trkpt lat="46.6166518" lon="10.6089519"><ele>890.0000000000001</ele><time>2026-03-24T10:29:13.374Z</time></trkpt><trkpt lat="46.6166381" lon="10.6090646"><ele>890.0</ele><time>2026-03-24T10:29:14.377Z</time></trkpt><trkpt lat="46.6166257" lon="10.6091773"><ele>890.0</ele><time>2026-03-24T10:29:15.374Z</time></trkpt><trkpt lat="46.6166159" lon="10.6092901"><ele>890.0</ele><time>2026-03-24T10:29:16.366Z</time></trkpt><trkpt lat="46.616608" lon="10.6094035"><ele>890.0000000000001</ele><time>2026-03-24T10:29:17.371Z</time></trkpt><trkpt lat="46.6166033" lon="10.6095179"><ele>890.0</ele><time>2026-03-24T10:29:18.366Z</time></trkpt><trkpt lat="46.6165997" lon="10.6096326"><ele>890.0000000000001</ele><time>2026-03-24T10:29:19.376Z</time></trkpt><trkpt lat="46.6165951" lon="10.6097471"><ele>890.0</ele><time>2026-03-24T10:29:20.365Z</time></trkpt><trkpt lat="46.6165911" lon="10.6098614"><ele>890.0</ele><time>2026-03-24T10:29:21.362Z</time></trkpt><trkpt lat="46.6165865" lon="10.6099756"><ele>890.0</ele><time>2026-03-24T10:29:22.374Z</time></trkpt><trkpt lat="46.6165833" lon="10.6100904"><ele>890.0000000000001</ele><time>2026-03-24T10:29:23.374Z</time></trkpt><trkpt lat="46.6165796" lon="10.6102048"><ele>890.0</ele><time>2026-03-24T10:29:24.37Z</time></trkpt><trkpt lat="46.616574" lon="10.6103192"><ele>889.6666666666667</ele><time>2026-03-24T10:29:25.366Z</time></trkpt><trkpt lat="46.6165677" lon="10.6104339"><ele>889.3333333333334</ele><time>2026-03-24T10:29:26.371Z</time></trkpt><trkpt lat="46.6165572" lon="10.6105471"><ele>889.0</ele><time>2026-03-24T10:29:27.362Z</time></trkpt><trkpt lat="46.6165417" lon="10.6106574"><ele>888.6666666666667</ele><time>2026-03-24T10:29:28.365Z</time></trkpt><trkpt lat="46.6165249" lon="10.610767"><ele>888.3333333333334</ele><time>2026-03-24T10:29:29.355Z</time></trkpt><trkpt lat="46.6165093" lon="10.6108777"><ele>888.0</ele><time>2026-03-24T10:29:30.368Z</time></trkpt><trkpt lat="46.6164976" lon="10.6109895"><ele>888.0</ele><time>2026-03-24T10:29:31.37Z</time></trkpt><trkpt lat="46.6164898" lon="10.6111019"><ele>888.0</ele><time>2026-03-24T10:29:32.373Z</time></trkpt><trkpt lat="46.616486" lon="10.6112151"><ele>888.0</ele><time>2026-03-24T10:29:33.369Z</time></trkpt><trkpt lat="46.6164856" lon="10.6113294"><ele>888.0</ele><time>2026-03-24T10:29:34.379Z</time></trkpt><trkpt lat="46.6164878" lon="10.6114428"><ele>888.0</ele><time>2026-03-24T10:29:35.363Z</time></trkpt><trkpt lat="46.6164916" lon="10.6115565"><ele>888.0</ele><time>2026-03-24T10:29:36.364Z</time></trkpt><trkpt lat="46.6164954" lon="10.6116696"><ele>888.0</ele><time>2026-03-24T10:29:37.372Z</time></trkpt><trkpt lat="46.6164961" lon="10.6117828"><ele>888.0</ele><time>2026-03-24T10:29:38.377Z</time></trkpt><trkpt lat="46.6164948" lon="10.611895"><ele>888.0</ele><time>2026-03-24T10:29:39.37Z</time></trkpt><trkpt lat="46.6164907" lon="10.6120065"><ele>888.0</ele><time>2026-03-24T10:29:40.362Z</time></trkpt><trkpt lat="46.6164825" lon="10.6121171"><ele>888.0</ele><time>2026-03-24T10:29:41.364Z</time></trkpt><trkpt lat="46.6164697" lon="10.6122262"><ele>888.0</ele><time>2026-03-24T10:29:42.37Z</time></trkpt><trkpt lat="46.6164553" lon="10.6123348"><ele>887.8571428571428</ele><time>2026-03-24T10:29:43.372Z</time></trkpt><trkpt lat="46.6164394" lon="10.6124421"><ele>887.7142857142858</ele><time>2026-03-24T10:29:44.377Z</time></trkpt><trkpt lat="46.6164228" lon="10.6125488"><ele>887.5714285714286</ele><time>2026-03-24T10:29:45.37Z</time></trkpt><trkpt lat="46.6164058" lon="10.612655"><ele>887.4285714285713</ele><time>2026-03-24T10:29:46.368Z</time></trkpt><trkpt lat="46.6163889" lon="10.612761"><ele>887.2857142857142</ele><time>2026-03-24T10:29:47.377Z</time></trkpt><trkpt lat="46.6163749" lon="10.6128669"><ele>887.1428571428571</ele><time>2026-03-24T10:29:48.369Z</time></trkpt><trkpt lat="46.6163641" lon="10.6129739"><ele>887.0</ele><time>2026-03-24T10:29:49.368Z</time></trkpt><trkpt lat="46.6163522" lon="10.6130787"><ele>886.8571428571428</ele><time>2026-03-24T10:29:50.361Z</time></trkpt><trkpt lat="46.6163402" lon="10.6131807"><ele>886.7142857142857</ele><time>2026-03-24T10:29:51.365Z</time></trkpt><trkpt lat="46.6163301" lon="10.6132792"><ele>886.5714285714286</ele><time>2026-03-24T10:29:52.373Z</time></trkpt><trkpt lat="46.6163146" lon="10.613372"><ele>886.4285714285713</ele><time>2026-03-24T10:29:53.368Z</time></trkpt><trkpt lat="46.6162897" lon="10.6134617"><ele>886.2857142857143</ele><time>2026-03-24T10:29:54.376Z</time></trkpt><trkpt lat="46.6162603" lon="10.6135541"><ele>886.1428571428571</ele><time>2026-03-24T10:29:55.374Z</time></trkpt><trkpt lat="46.6162327" lon="10.6136517"><ele>886.0</ele><time>2026-03-24T10:29:56.365Z</time></trkpt><trkpt lat="46.6162083" lon="10.6137536"><ele>885.8333333333333</ele><time>2026-03-24T10:29:57.364Z</time></trkpt><trkpt lat="46.616185" lon="10.613857"><ele>885.6666666666666</ele><time>2026-03-24T10:29:58.365Z</time></trkpt><trkpt lat="46.6161619" lon="10.6139606"><ele>885.5</ele><time>2026-03-24T10:29:59.367Z</time></trkpt><trkpt lat="46.6161395" lon="10.6140652"><ele>885.3333333333333</ele><time>2026-03-24T10:30:00.363Z</time></trkpt><trkpt lat="46.6161186" lon="10.6141703"><ele>885.1666666666666</ele><time>2026-03-24T10:30:01.367Z</time></trkpt><trkpt lat="46.6160966" lon="10.6142749"><ele>885.0</ele><time>2026-03-24T10:30:02.372Z</time></trkpt><trkpt lat="46.6160742" lon="10.6143796"><ele>885.3333333333334</ele><time>2026-03-24T10:30:03.371Z</time></trkpt><trkpt lat="46.6160515" lon="10.6144839"><ele>885.6666666666667</ele><time>2026-03-24T10:30:04.374Z</time></trkpt><trkpt lat="46.61603" lon="10.6145891"><ele>886.0</ele><time>2026-03-24T10:30:05.37Z</time></trkpt><trkpt lat="46.6160103" lon="10.6146949"><ele>886.3333333333334</ele><time>2026-03-24T10:30:06.364Z</time></trkpt><trkpt lat="46.6159923" lon="10.6148018"><ele>886.6666666666667</ele><time>2026-03-24T10:30:07.37Z</time></trkpt><trkpt lat="46.6159751" lon="10.6149094"><ele>887.0</ele><time>2026-03-24T10:30:08.374Z</time></trkpt><trkpt lat="46.6159602" lon="10.6150177"><ele>887.0000000000001</ele><time>2026-03-24T10:30:09.366Z</time></trkpt><trkpt lat="46.6159483" lon="10.6151271"><ele>887.0</ele><time>2026-03-24T10:30:10.373Z</time></trkpt><trkpt lat="46.6159372" lon="10.6152368"><ele>887.0</ele><time>2026-03-24T10:30:11.364Z</time></trkpt><trkpt lat="46.6159275" lon="10.6153465"><ele>887.0</ele><time>2026-03-24T10:30:12.369Z</time></trkpt><trkpt lat="46.6159189" lon="10.6154567"><ele>887.0000000000001</ele><time>2026-03-24T10:30:13.368Z</time></trkpt><trkpt lat="46.6159104" lon="10.6155673"><ele>887.0</ele><time>2026-03-24T10:30:14.363Z</time></trkpt><trkpt lat="46.6159046" lon="10.6156789"><ele>886.8333333333334</ele><time>2026-03-24T10:30:15.367Z</time></trkpt><trkpt lat="46.6159035" lon="10.6157918"><ele>886.6666666666667</ele><time>2026-03-24T10:30:16.363Z</time></trkpt><trkpt lat="46.6159101" lon="10.6159049"><ele>886.5</ele><time>2026-03-24T10:30:17.362Z</time></trkpt><trkpt lat="46.6159272" lon="10.6160163"><ele>886.3333333333333</ele><time>2026-03-24T10:30:18.37Z</time></trkpt><trkpt lat="46.6159507" lon="10.6161258"><ele>886.1666666666666</ele><time>2026-03-24T10:30:19.371Z</time></trkpt><trkpt lat="46.6159744" lon="10.6162349"><ele>886.0</ele><time>2026-03-24T10:30:20.37Z</time></trkpt><trkpt lat="46.6159969" lon="10.6163468"><ele>885.9999999999999</ele><time>2026-03-24T10:30:21.375Z</time></trkpt><trkpt lat="46.6160183" lon="10.6164602"><ele>886.0</ele><time>2026-03-24T10:30:22.367Z</time></trkpt><trkpt lat="46.6160415" lon="10.6165739"><ele>886.0</ele><time>2026-03-24T10:30:23.378Z</time></trkpt><trkpt lat="46.6160632" lon="10.6166883"><ele>886.0</ele><time>2026-03-24T10:30:24.361Z</time></trkpt><trkpt lat="46.6160845" lon="10.6168017"><ele>885.9999999999999</ele><time>2026-03-24T10:30:25.377Z</time></trkpt><trkpt lat="46.6161066" lon="10.6169141"><ele>886.0</ele><time>2026-03-24T10:30:26.371Z</time></trkpt><trkpt lat="46.6161294" lon="10.6170257"><ele>885.6666666666666</ele><time>2026-03-24T10:30:27.368Z</time></trkpt><trkpt lat="46.6161515" lon="10.6171363"><ele>885.3333333333333</ele><time>2026-03-24T10:30:28.363Z</time></trkpt><trkpt lat="46.6161733" lon="10.6172463"><ele>885.0</ele><time>2026-03-24T10:30:29.371Z</time></trkpt><trkpt lat="46.616195" lon="10.6173555"><ele>884.6666666666667</ele><time>2026-03-24T10:30:30.374Z</time></trkpt><trkpt lat="46.6162196" lon="10.6174631"><ele>884.3333333333334</ele><time>2026-03-24T10:30:31.362Z</time></trkpt><trkpt lat="46.6162448" lon="10.6175703"><ele>884.0</ele><time>2026-03-24T10:30:32.364Z</time></trkpt><trkpt lat="46.6162719" lon="10.6176768"><ele>883.8333333333334</ele><time>2026-03-24T10:30:33.372Z</time></trkpt><trkpt lat="46.6163002" lon="10.6177834"><ele>883.6666666666667</ele><time>2026-03-24T10:30:34.364Z</time></trkpt><trkpt lat="46.6163322" lon="10.6178888"><ele>883.5</ele><time>2026-03-24T10:30:35.369Z</time></trkpt><trkpt lat="46.6163697" lon="10.6179914"><ele>883.3333333333333</ele><time>2026-03-24T10:30:36.364Z</time></trkpt><trkpt lat="46.61641" lon="10.618092"><ele>883.1666666666666</ele><time>2026-03-24T10:30:37.366Z</time></trkpt><trkpt lat="46.6164501" lon="10.6181923"><ele>883.0</ele><time>2026-03-24T10:30:38.367Z</time></trkpt><trkpt lat="46.6164904" lon="10.6182916"><ele>882.8333333333333</ele><time>2026-03-24T10:30:39.37Z</time></trkpt><trkpt lat="46.6165296" lon="10.6183907"><ele>882.6666666666666</ele><time>2026-03-24T10:30:40.378Z</time></trkpt><trkpt lat="46.6165689" lon="10.61849"><ele>882.5</ele><time>2026-03-24T10:30:41.366Z</time></trkpt><trkpt lat="46.6166081" lon="10.6185892"><ele>882.3333333333333</ele><time>2026-03-24T10:30:42.361Z</time></trkpt><trkpt lat="46.6166475" lon="10.618688"><ele>882.1666666666666</ele><time>2026-03-24T10:30:43.358Z</time></trkpt><trkpt lat="46.616687" lon="10.6187863"><ele>882.0</ele><time>2026-03-24T10:30:44.37Z</time></trkpt><trkpt lat="46.6167262" lon="10.6188842"><ele>882.0</ele><time>2026-03-24T10:30:45.364Z</time></trkpt><trkpt lat="46.6167647" lon="10.618982"><ele>882.0</ele><time>2026-03-24T10:30:46.367Z</time></trkpt><trkpt lat="46.6168035" lon="10.6190796"><ele>882.0</ele><time>2026-03-24T10:30:47.372Z</time></trkpt><trkpt lat="46.6168419" lon="10.6191779"><ele>882.0</ele><time>2026-03-24T10:30:48.373Z</time></trkpt><trkpt lat="46.6168798" lon="10.6192772"><ele>882.0</ele><time>2026-03-24T10:30:49.364Z</time></trkpt><trkpt lat="46.6169193" lon="10.6193757"><ele>882.0</ele><time>2026-03-24T10:30:50.364Z</time></trkpt><trkpt lat="46.6169586" lon="10.6194756"><ele>882.1666666666666</ele><time>2026-03-24T10:30:51.362Z</time></trkpt><trkpt lat="46.6169988" lon="10.6195763"><ele>882.3333333333333</ele><time>2026-03-24T10:30:52.373Z</time></trkpt><trkpt lat="46.6170386" lon="10.619677"><ele>882.5</ele><time>2026-03-24T10:30:53.369Z</time></trkpt><trkpt lat="46.6170783" lon="10.619777"><ele>882.6666666666666</ele><time>2026-03-24T10:30:54.37Z</time></trkpt><trkpt lat="46.6171179" lon="10.6198768"><ele>882.8333333333333</ele><time>2026-03-24T10:30:55.371Z</time></trkpt><trkpt lat="46.6171584" lon="10.6199752"><ele>883.0</ele><time>2026-03-24T10:30:56.365Z</time></trkpt><trkpt lat="46.6171983" lon="10.6200736"><ele>882.9999999999999</ele><time>2026-03-24T10:30:57.365Z</time></trkpt><trkpt lat="46.6172375" lon="10.6201714"><ele>883.0</ele><time>2026-03-24T10:30:58.364Z</time></trkpt><trkpt lat="46.6172747" lon="10.6202692"><ele>883.0</ele><time>2026-03-24T10:30:59.378Z</time></trkpt><trkpt lat="46.6173123" lon="10.6203665"><ele>883.0</ele><time>2026-03-24T10:31:00.37Z</time></trkpt><trkpt lat="46.6173501" lon="10.6204631"><ele>882.9999999999999</ele><time>2026-03-24T10:31:01.362Z</time></trkpt><trkpt lat="46.6173884" lon="10.6205585"><ele>883.0</ele><time>2026-03-24T10:31:02.377Z</time></trkpt><trkpt lat="46.6174267" lon="10.6206536"><ele>882.9999999999999</ele><time>2026-03-24T10:31:03.372Z</time></trkpt><trkpt lat="46.6174657" lon="10.6207484"><ele>883.0</ele><time>2026-03-24T10:31:04.365Z</time></trkpt><trkpt lat="46.6175043" lon="10.620843"><ele>883.0</ele><time>2026-03-24T10:31:05.372Z</time></trkpt><trkpt lat="46.6175427" lon="10.6209381"><ele>883.0</ele><time>2026-03-24T10:31:06.374Z</time></trkpt><trkpt lat="46.6175817" lon="10.6210334"><ele>882.9999999999999</ele><time>2026-03-24T10:31:07.37Z</time></trkpt><trkpt lat="46.6176198" lon="10.6211289"><ele>883.0</ele><time>2026-03-24T10:31:08.364Z</time></trkpt><trkpt lat="46.617659" lon="10.6212244"><ele>882.9999999999999</ele><time>2026-03-24T10:31:09.371Z</time></trkpt><trkpt lat="46.6176981" lon="10.6213196"><ele>883.0</ele><time>2026-03-24T10:31:10.369Z</time></trkpt><trkpt lat="46.6177364" lon="10.6214147"><ele>883.0</ele><time>2026-03-24T10:31:11.36Z</time></trkpt><trkpt lat="46.6177749" lon="10.6215089"><ele>883.0</ele><time>2026-03-24T10:31:12.37Z</time></trkpt><trkpt lat="46.6178134" lon="10.6216033"><ele>882.9999999999999</ele><time>2026-03-24T10:31:13.363Z</time></trkpt><trkpt lat="46.6178514" lon="10.6216981"><ele>883.0</ele><time>2026-03-24T10:31:14.366Z</time></trkpt><trkpt lat="46.6178906" lon="10.6217923"><ele>882.9999999999999</ele><time>2026-03-24T10:31:15.378Z</time></trkpt><trkpt lat="46.6179278" lon="10.6218881"><ele>883.0</ele><time>2026-03-24T10:31:16.366Z</time></trkpt><trkpt lat="46.6179646" lon="10.6219847"><ele>883.0</ele><time>2026-03-24T10:31:17.371Z</time></trkpt><trkpt lat="46.6180039" lon="10.6220797"><ele>883.0</ele><time>2026-03-24T10:31:18.363Z</time></trkpt><trkpt lat="46.618043" lon="10.6221752"><ele>882.9999999999999</ele><time>2026-03-24T10:31:19.368Z</time></trkpt><trkpt lat="46.618082" lon="10.6222705"><ele>883.0</ele><time>2026-03-24T10:31:20.363Z</time></trkpt><trkpt lat="46.6181205" lon="10.6223663"><ele>882.6666666666666</ele><time>2026-03-24T10:31:21.367Z</time></trkpt><trkpt lat="46.6181586" lon="10.6224616"><ele>882.3333333333333</ele><time>2026-03-24T10:31:22.362Z</time></trkpt><trkpt lat="46.6181966" lon="10.6225558"><ele>882.0</ele><time>2026-03-24T10:31:23.362Z</time></trkpt><trkpt lat="46.6182358" lon="10.6226491"><ele>881.6666666666667</ele><time>2026-03-24T10:31:24.369Z</time></trkpt><trkpt lat="46.6182741" lon="10.6227424"><ele>881.3333333333334</ele><time>2026-03-24T10:31:25.369Z</time></trkpt><trkpt lat="46.6183119" lon="10.622836"><ele>881.0</ele><time>2026-03-24T10:31:26.37Z</time></trkpt><trkpt lat="46.6183499" lon="10.6229296"><ele>881.0</ele><time>2026-03-24T10:31:27.368Z</time></trkpt><trkpt lat="46.6183872" lon="10.6230237"><ele>881.0</ele><time>2026-03-24T10:31:28.367Z</time></trkpt><trkpt lat="46.6184241" lon="10.623118"><ele>881.0</ele><time>2026-03-24T10:31:29.364Z</time></trkpt><trkpt lat="46.6184622" lon="10.6232117"><ele>881.0</ele><time>2026-03-24T10:31:30.37Z</time></trkpt><trkpt lat="46.6184998" lon="10.6233054"><ele>881.0</ele><time>2026-03-24T10:31:31.37Z</time></trkpt><trkpt lat="46.6185387" lon="10.6233991"><ele>881.0</ele><time>2026-03-24T10:31:32.373Z</time></trkpt><trkpt lat="46.618578" lon="10.623493"><ele>881.0</ele><time>2026-03-24T10:31:33.373Z</time></trkpt><trkpt lat="46.6186169" lon="10.623587"><ele>880.8571428571428</ele><time>2026-03-24T10:31:34.365Z</time></trkpt><trkpt lat="46.6186558" lon="10.6236811"><ele>880.7142857142858</ele><time>2026-03-24T10:31:35.365Z</time></trkpt><trkpt lat="46.6186941" lon="10.6237751"><ele>880.5714285714286</ele><time>2026-03-24T10:31:36.373Z</time></trkpt><trkpt lat="46.6187302" lon="10.6238597"><ele>880.4285714285713</ele><time>2026-03-24T10:31:37.364Z</time></trkpt><trkpt lat="46.6187664" lon="10.6239498"><ele>880.2857142857142</ele><time>2026-03-24T10:31:38.367Z</time></trkpt><trkpt lat="46.6188033" lon="10.62404"><ele>880.1428571428571</ele><time>2026-03-24T10:31:39.373Z</time></trkpt><trkpt lat="46.6188404" lon="10.624131"><ele>880.0</ele><time>2026-03-24T10:31:40.37Z</time></trkpt><trkpt lat="46.6188769" lon="10.6242232"><ele>879.9999999999999</ele><time>2026-03-24T10:31:41.373Z</time></trkpt><trkpt lat="46.6189133" lon="10.6243148"><ele>880.0</ele><time>2026-03-24T10:31:42.373Z</time></trkpt><trkpt lat="46.6189511" lon="10.6244066"><ele>880.0</ele><time>2026-03-24T10:31:43.364Z</time></trkpt><trkpt lat="46.6189883" lon="10.6244999"><ele>880.0</ele><time>2026-03-24T10:31:44.363Z</time></trkpt><trkpt lat="46.6190255" lon="10.6245936"><ele>880.0</ele><time>2026-03-24T10:31:45.368Z</time></trkpt><trkpt lat="46.6190644" lon="10.6246867"><ele>879.9999999999999</ele><time>2026-03-24T10:31:46.368Z</time></trkpt><trkpt lat="46.6191024" lon="10.6247811"><ele>880.0</ele><time>2026-03-24T10:31:47.367Z</time></trkpt><trkpt lat="46.6191404" lon="10.6248743"><ele>879.9999999999999</ele><time>2026-03-24T10:31:48.364Z</time></trkpt><trkpt lat="46.6191793" lon="10.6249673"><ele>880.0</ele><time>2026-03-24T10:31:49.375Z</time></trkpt><trkpt lat="46.6192175" lon="10.625061"><ele>880.0</ele><time>2026-03-24T10:31:50.365Z</time></trkpt><trkpt lat="46.619256" lon="10.6251537"><ele>880.0</ele><time>2026-03-24T10:31:51.365Z</time></trkpt><trkpt lat="46.6192935" lon="10.6252465"><ele>880.0</ele><time>2026-03-24T10:31:52.374Z</time></trkpt><trkpt lat="46.6193312" lon="10.6253401"><ele>879.9999999999999</ele><time>2026-03-24T10:31:53.362Z</time></trkpt><trkpt lat="46.6193695" lon="10.6254338"><ele>880.0</ele><time>2026-03-24T10:31:54.364Z</time></trkpt><trkpt lat="46.6194074" lon="10.6255268"><ele>879.8333333333333</ele><time>2026-03-24T10:31:55.379Z</time></trkpt><trkpt lat="46.6194453" lon="10.6256208"><ele>879.6666666666666</ele><time>2026-03-24T10:31:56.367Z</time></trkpt><trkpt lat="46.6194826" lon="10.6257158"><ele>879.5</ele><time>2026-03-24T10:31:57.363Z</time></trkpt><trkpt lat="46.6195199" lon="10.6258101"><ele>879.3333333333333</ele><time>2026-03-24T10:31:58.365Z</time></trkpt><trkpt lat="46.6195591" lon="10.6259036"><ele>879.1666666666666</ele><time>2026-03-24T10:31:59.364Z</time></trkpt><trkpt lat="46.6195974" lon="10.6259978"><ele>879.0</ele><time>2026-03-24T10:32:00.364Z</time></trkpt><trkpt lat="46.6196347" lon="10.6260923"><ele>879.0</ele><time>2026-03-24T10:32:01.368Z</time></trkpt><trkpt lat="46.619673" lon="10.626186"><ele>879.0</ele><time>2026-03-24T10:32:02.372Z</time></trkpt><trkpt lat="46.6197107" lon="10.6262785"><ele>879.0</ele><time>2026-03-24T10:32:03.38Z</time></trkpt><trkpt lat="46.6197485" lon="10.626369"><ele>879.0</ele><time>2026-03-24T10:32:04.367Z</time></trkpt><trkpt lat="46.6197841" lon="10.6264569"><ele>879.0</ele><time>2026-03-24T10:32:05.366Z</time></trkpt><trkpt lat="46.6198161" lon="10.626542"><ele>879.0</ele><time>2026-03-24T10:32:06.369Z</time></trkpt><trkpt lat="46.6198454" lon="10.6266256"><ele>879.0</ele><time>2026-03-24T10:32:07.371Z</time></trkpt><trkpt lat="46.6199065" lon="10.6267801"><ele>879.0</ele><time>2026-03-24T10:32:09.366Z</time></trkpt><trkpt lat="46.6199238" lon="10.6269378"><ele>879.0</ele><time>2026-03-24T10:32:11.366Z</time></trkpt><trkpt lat="46.6198478" lon="10.6270509"><ele>879.0</ele><time>2026-03-24T10:32:13.369Z</time></trkpt><trkpt lat="46.6197629" lon="10.6271654"><ele>879.0</ele><time>2026-03-24T10:32:15.37Z</time></trkpt><trkpt lat="46.6196871" lon="10.6273005"><ele>879.0</ele><time>2026-03-24T10:32:17.378Z</time></trkpt><trkpt lat="46.6196176" lon="10.6274491"><ele>879.0</ele><time>2026-03-24T10:32:19.375Z</time></trkpt><trkpt lat="46.6195846" lon="10.6275279"><ele>879.0</ele><time>2026-03-24T10:32:20.365Z</time></trkpt><trkpt lat="46.6195516" lon="10.6276081"><ele>879.0</ele><time>2026-03-24T10:32:21.372Z</time></trkpt><trkpt lat="46.619519" lon="10.6276902"><ele>879.0</ele><time>2026-03-24T10:32:22.371Z</time></trkpt><trkpt lat="46.6194855" lon="10.6277728"><ele>879.0</ele><time>2026-03-24T10:32:23.372Z</time></trkpt><trkpt lat="46.6194514" lon="10.6278542"><ele>879.0</ele><time>2026-03-24T10:32:24.366Z</time></trkpt><trkpt lat="46.6194184" lon="10.6279357"><ele>879.1428571428571</ele><time>2026-03-24T10:32:25.363Z</time></trkpt><trkpt lat="46.6193859" lon="10.6280164"><ele>879.2857142857143</ele><time>2026-03-24T10:32:26.379Z</time></trkpt><trkpt lat="46.6193534" lon="10.6280974"><ele>879.4285714285713</ele><time>2026-03-24T10:32:27.362Z</time></trkpt><trkpt lat="46.6192852" lon="10.6282476"><ele>879.5714285714286</ele><time>2026-03-24T10:32:29.364Z</time></trkpt><trkpt lat="46.6192479" lon="10.6283219"><ele>879.7142857142857</ele><time>2026-03-24T10:32:30.367Z</time></trkpt><trkpt lat="46.6192099" lon="10.6283982"><ele>879.8571428571428</ele><time>2026-03-24T10:32:31.374Z</time></trkpt><trkpt lat="46.6191713" lon="10.6284721"><ele>880.0</ele><time>2026-03-24T10:32:32.368Z</time></trkpt><trkpt lat="46.619131" lon="10.6285451"><ele>879.9999999999999</ele><time>2026-03-24T10:32:33.371Z</time></trkpt><trkpt lat="46.6190895" lon="10.6286174"><ele>880.0</ele><time>2026-03-24T10:32:34.368Z</time></trkpt><trkpt lat="46.6190473" lon="10.62869"><ele>880.0</ele><time>2026-03-24T10:32:35.368Z</time></trkpt><trkpt lat="46.6190042" lon="10.6287598"><ele>880.0</ele><time>2026-03-24T10:32:36.371Z</time></trkpt><trkpt lat="46.6189617" lon="10.6288289"><ele>880.0</ele><time>2026-03-24T10:32:37.37Z</time></trkpt><trkpt lat="46.6189142" lon="10.6288908"><ele>879.9999999999999</ele><time>2026-03-24T10:32:38.365Z</time></trkpt><trkpt lat="46.6188643" lon="10.6289491"><ele>880.0</ele><time>2026-03-24T10:32:39.372Z</time></trkpt><trkpt lat="46.6187648" lon="10.6290628"><ele>879.9999999999999</ele><time>2026-03-24T10:32:41.369Z</time></trkpt><trkpt lat="46.6187132" lon="10.6291175"><ele>880.0</ele><time>2026-03-24T10:32:42.367Z</time></trkpt><trkpt lat="46.6186597" lon="10.6291722"><ele>880.0</ele><time>2026-03-24T10:32:43.372Z</time></trkpt><trkpt lat="46.6186072" lon="10.6292255"><ele>880.0</ele><time>2026-03-24T10:32:44.363Z</time></trkpt><trkpt lat="46.6185514" lon="10.6292762"><ele>880.0</ele><time>2026-03-24T10:32:45.365Z</time></trkpt><trkpt lat="46.6184943" lon="10.6293211"><ele>879.9999999999999</ele><time>2026-03-24T10:32:46.362Z</time></trkpt><trkpt lat="46.6184356" lon="10.629361"><ele>880.0</ele><time>2026-03-24T10:32:47.363Z</time></trkpt><trkpt lat="46.6183767" lon="10.6293977"><ele>880.0</ele><time>2026-03-24T10:32:48.37Z</time></trkpt><trkpt lat="46.618261" lon="10.629463"><ele>880.0</ele><time>2026-03-24T10:32:50.372Z</time></trkpt><trkpt lat="46.6181469" lon="10.62952"><ele>880.0</ele><time>2026-03-24T10:32:52.374Z</time></trkpt><trkpt lat="46.6180349" lon="10.6295743"><ele>880.0</ele><time>2026-03-24T10:32:54.371Z</time></trkpt><trkpt lat="46.6179263" lon="10.6296307"><ele>880.0</ele><time>2026-03-24T10:32:56.368Z</time></trkpt><trkpt lat="46.6178206" lon="10.6296882"><ele>880.0</ele><time>2026-03-24T10:32:58.363Z</time></trkpt><trkpt lat="46.6177166" lon="10.62975"><ele>880.0</ele><time>2026-03-24T10:33:00.37Z</time></trkpt><trkpt lat="46.6176171" lon="10.6298174"><ele>880.0</ele><time>2026-03-24T10:33:02.371Z</time></trkpt><trkpt lat="46.6175221" lon="10.6298834"><ele>880.0</ele><time>2026-03-24T10:33:04.371Z</time></trkpt><trkpt lat="46.6174294" lon="10.6299477"><ele>880.2</ele><time>2026-03-24T10:33:06.366Z</time></trkpt><trkpt lat="46.6173376" lon="10.6300158"><ele>880.4</ele><time>2026-03-24T10:33:08.362Z</time></trkpt><trkpt lat="46.617248" lon="10.630082"><ele>880.5999999999999</ele><time>2026-03-24T10:33:10.364Z</time></trkpt><trkpt lat="46.6171575" lon="10.6301519"><ele>880.8</ele><time>2026-03-24T10:33:12.371Z</time></trkpt><trkpt lat="46.6170685" lon="10.6302231"><ele>881.0</ele><time>2026-03-24T10:33:14.374Z</time></trkpt><trkpt lat="46.616984" lon="10.6302949"><ele>881.3333333333334</ele><time>2026-03-24T10:33:16.363Z</time></trkpt><trkpt lat="46.616916" lon="10.6303754"><ele>881.6666666666667</ele><time>2026-03-24T10:33:18.367Z</time></trkpt><trkpt lat="46.6168956" lon="10.6304735"><ele>882.0</ele><time>2026-03-24T10:33:20.375Z</time></trkpt><trkpt lat="46.6169469" lon="10.6305594"><ele>882.3333333333333</ele><time>2026-03-24T10:33:22.363Z</time></trkpt><trkpt lat="46.6169996" lon="10.6306599"><ele>882.6666666666666</ele><time>2026-03-24T10:33:24.369Z</time></trkpt><trkpt lat="46.6170511" lon="10.6307723"><ele>883.0</ele><time>2026-03-24T10:33:26.364Z</time></trkpt><trkpt lat="46.6171019" lon="10.6308921"><ele>883.0</ele><time>2026-03-24T10:33:28.376Z</time></trkpt><trkpt lat="46.6171564" lon="10.6310127"><ele>883.0</ele><time>2026-03-24T10:33:30.366Z</time></trkpt><trkpt lat="46.6172111" lon="10.6311257"><ele>883.0</ele><time>2026-03-24T10:33:32.379Z</time></trkpt><trkpt lat="46.6172642" lon="10.6312444"><ele>883.0</ele><time>2026-03-24T10:33:34.366Z</time></trkpt><trkpt lat="46.617307" lon="10.6313737"><ele>883.0</ele><time>2026-03-24T10:33:36.369Z</time></trkpt><trkpt lat="46.6173308" lon="10.6315089"><ele>884.0</ele><time>2026-03-24T10:33:38.362Z</time></trkpt><trkpt lat="46.6173535" lon="10.6316546"><ele>885.0</ele><time>2026-03-24T10:33:40.361Z</time></trkpt><trkpt lat="46.6173752" lon="10.6317947"><ele>886.0</ele><time>2026-03-24T10:33:42.371Z</time></trkpt><trkpt lat="46.6173951" lon="10.6319261"><ele>887.0</ele><time>2026-03-24T10:33:44.371Z</time></trkpt><trkpt lat="46.6174176" lon="10.632057"><ele>888.0</ele><time>2026-03-24T10:33:46.368Z</time></trkpt><trkpt lat="46.6174517" lon="10.6321857"><ele>888.8</ele><time>2026-03-24T10:33:48.366Z</time></trkpt><trkpt lat="46.6174893" lon="10.6323086"><ele>889.5999999999999</ele><time>2026-03-24T10:33:50.368Z</time></trkpt><trkpt lat="46.6175236" lon="10.6324293"><ele>890.4000000000001</ele><time>2026-03-24T10:33:52.368Z</time></trkpt><trkpt lat="46.6175601" lon="10.6325532"><ele>891.2</ele><time>2026-03-24T10:33:54.366Z</time></trkpt><trkpt lat="46.6175938" lon="10.6326765"><ele>892.0</ele><time>2026-03-24T10:33:56.373Z</time></trkpt><trkpt lat="46.6176241" lon="10.6328012"><ele>892.3333333333333</ele><time>2026-03-24T10:33:58.359Z</time></trkpt><trkpt lat="46.6176549" lon="10.6329227"><ele>892.6666666666666</ele><time>2026-03-24T10:34:00.369Z</time></trkpt><trkpt lat="46.6176859" lon="10.6330361"><ele>893.0</ele><time>2026-03-24T10:34:02.377Z</time></trkpt><trkpt lat="46.6177162" lon="10.6331534"><ele>893.3333333333333</ele><time>2026-03-24T10:34:04.381Z</time></trkpt><trkpt lat="46.6177453" lon="10.6332788"><ele>893.6666666666666</ele><time>2026-03-24T10:34:06.365Z</time></trkpt><trkpt lat="46.6177747" lon="10.633408"><ele>894.0</ele><time>2026-03-24T10:34:08.349Z</time></trkpt><trkpt lat="46.617797" lon="10.633536"><ele>894.0</ele><time>2026-03-24T10:34:10.371Z</time></trkpt><trkpt lat="46.6178123" lon="10.6336656"><ele>894.0</ele><time>2026-03-24T10:34:12.367Z</time></trkpt><trkpt lat="46.6178272" lon="10.6337861"><ele>894.0</ele><time>2026-03-24T10:34:14.375Z</time></trkpt><trkpt lat="46.6178445" lon="10.6338936"><ele>894.0</ele><time>2026-03-24T10:34:16.368Z</time></trkpt><trkpt lat="46.6178647" lon="10.6340019"><ele>894.0</ele><time>2026-03-24T10:34:18.363Z</time></trkpt><trkpt lat="46.6178904" lon="10.6341233"><ele>894.0</ele><time>2026-03-24T10:34:20.364Z</time></trkpt><trkpt lat="46.6179219" lon="10.6342514"><ele>894.0</ele><time>2026-03-24T10:34:22.363Z</time></trkpt><trkpt lat="46.6179566" lon="10.6343781"><ele>894.0000000000001</ele><time>2026-03-24T10:34:24.36Z</time></trkpt><trkpt lat="46.6179957" lon="10.6345165"><ele>894.0000000000001</ele><time>2026-03-24T10:34:26.377Z</time></trkpt><trkpt lat="46.6180342" lon="10.634669"><ele>894.0</ele><time>2026-03-24T10:34:28.372Z</time></trkpt><trkpt lat="46.618074" lon="10.6348309"><ele>894.0</ele><time>2026-03-24T10:34:30.374Z</time></trkpt><trkpt lat="46.6181065" lon="10.6349885"><ele>893.8000000000001</ele><time>2026-03-24T10:34:32.367Z</time></trkpt><trkpt lat="46.6181334" lon="10.6351398"><ele>893.6000000000001</ele><time>2026-03-24T10:34:34.367Z</time></trkpt><trkpt lat="46.6181596" lon="10.6352849"><ele>893.4</ele><time>2026-03-24T10:34:36.375Z</time></trkpt><trkpt lat="46.6181788" lon="10.6354225"><ele>893.2</ele><time>2026-03-24T10:34:38.365Z</time></trkpt><trkpt lat="46.6181994" lon="10.6355523"><ele>893.0</ele><time>2026-03-24T10:34:40.377Z</time></trkpt><trkpt lat="46.6182068" lon="10.6356836"><ele>893.5000000000001</ele><time>2026-03-24T10:34:42.368Z</time></trkpt><trkpt lat="46.618216" lon="10.6358112"><ele>894.0</ele><time>2026-03-24T10:34:44.381Z</time></trkpt><trkpt lat="46.6182247" lon="10.6359335"><ele>894.5</ele><time>2026-03-24T10:34:46.367Z</time></trkpt><trkpt lat="46.6182353" lon="10.6360459"><ele>895.0</ele><time>2026-03-24T10:34:48.369Z</time></trkpt><trkpt lat="46.6182415" lon="10.6361606"><ele>895.5000000000001</ele><time>2026-03-24T10:34:50.371Z</time></trkpt><trkpt lat="46.6182527" lon="10.6363116"><ele>896.0</ele><time>2026-03-24T10:34:52.384Z</time></trkpt><trkpt lat="46.61824" lon="10.6364723"><ele>896.25</ele><time>2026-03-24T10:34:54.366Z</time></trkpt><trkpt lat="46.6182004" lon="10.636631"><ele>896.5</ele><time>2026-03-24T10:34:56.369Z</time></trkpt><trkpt lat="46.6181575" lon="10.6367889"><ele>896.75</ele><time>2026-03-24T10:34:58.36Z</time></trkpt><trkpt lat="46.6181149" lon="10.6369564"><ele>897.0</ele><time>2026-03-24T10:35:00.367Z</time></trkpt><trkpt lat="46.618071" lon="10.6371236"><ele>896.6</ele><time>2026-03-24T10:35:02.364Z</time></trkpt><trkpt lat="46.6180279" lon="10.6372789"><ele>896.2</ele><time>2026-03-24T10:35:04.364Z</time></trkpt><trkpt lat="46.6179901" lon="10.6374377"><ele>895.8</ele><time>2026-03-24T10:35:06.358Z</time></trkpt><trkpt lat="46.6179658" lon="10.6376148"><ele>895.4</ele><time>2026-03-24T10:35:08.356Z</time></trkpt><trkpt lat="46.6179567" lon="10.6377134"><ele>895.0</ele><time>2026-03-24T10:35:09.376Z</time></trkpt><trkpt lat="46.6179353" lon="10.6378926"><ele>895.1428571428571</ele><time>2026-03-24T10:35:11.368Z</time></trkpt><trkpt lat="46.6179202" lon="10.6379844"><ele>895.2857142857143</ele><time>2026-03-24T10:35:12.37Z</time></trkpt><trkpt lat="46.6179045" lon="10.638077"><ele>895.4285714285714</ele><time>2026-03-24T10:35:13.37Z</time></trkpt><trkpt lat="46.6178917" lon="10.6381709"><ele>895.5714285714286</ele><time>2026-03-24T10:35:14.373Z</time></trkpt><trkpt lat="46.6178699" lon="10.6382726"><ele>895.7142857142858</ele><time>2026-03-24T10:35:15.378Z</time></trkpt><trkpt lat="46.6178506" lon="10.6383681"><ele>895.8571428571429</ele><time>2026-03-24T10:35:16.371Z</time></trkpt><trkpt lat="46.6178317" lon="10.6384675"><ele>896.0</ele><time>2026-03-24T10:35:17.369Z</time></trkpt><trkpt lat="46.6178083" lon="10.6385626"><ele>895.5999999999999</ele><time>2026-03-24T10:35:18.375Z</time></trkpt><trkpt lat="46.6177835" lon="10.6386485"><ele>895.1999999999999</ele><time>2026-03-24T10:35:19.365Z</time></trkpt><trkpt lat="46.6177344" lon="10.6387156"><ele>894.8000000000001</ele><time>2026-03-24T10:35:20.367Z</time></trkpt><trkpt lat="46.6176342" lon="10.6388063"><ele>894.4000000000001</ele><time>2026-03-24T10:35:22.369Z</time></trkpt><trkpt lat="46.6175334" lon="10.6388864"><ele>894.0</ele><time>2026-03-24T10:35:24.376Z</time></trkpt><trkpt lat="46.6174443" lon="10.638966"><ele>894.0</ele><time>2026-03-24T10:35:26.372Z</time></trkpt><trkpt lat="46.6173704" lon="10.6390735"><ele>894.0000000000001</ele><time>2026-03-24T10:35:28.37Z</time></trkpt><trkpt lat="46.6173226" lon="10.6392191"><ele>894.0000000000001</ele><time>2026-03-24T10:35:30.367Z</time></trkpt><trkpt lat="46.6172716" lon="10.6393748"><ele>894.0</ele><time>2026-03-24T10:35:32.366Z</time></trkpt><trkpt lat="46.6172501" lon="10.6394727"><ele>894.0</ele><time>2026-03-24T10:35:33.378Z</time></trkpt><trkpt lat="46.6172333" lon="10.6395813"><ele>893.4285714285713</ele><time>2026-03-24T10:35:34.36Z</time></trkpt><trkpt lat="46.6172176" lon="10.6396856"><ele>892.8571428571429</ele><time>2026-03-24T10:35:35.371Z</time></trkpt><trkpt lat="46.6171983" lon="10.6397895"><ele>892.2857142857142</ele><time>2026-03-24T10:35:36.37Z</time></trkpt><trkpt lat="46.6171786" lon="10.6398881"><ele>891.7142857142857</ele><time>2026-03-24T10:35:37.367Z</time></trkpt><trkpt lat="46.6171462" lon="10.6399826"><ele>891.1428571428571</ele><time>2026-03-24T10:35:38.367Z</time></trkpt><trkpt lat="46.6171119" lon="10.6400741"><ele>890.5714285714286</ele><time>2026-03-24T10:35:39.35Z</time></trkpt><trkpt lat="46.6170781" lon="10.6401646"><ele>890.0</ele><time>2026-03-24T10:35:40.366Z</time></trkpt><trkpt lat="46.6170409" lon="10.6402546"><ele>889.5714285714286</ele><time>2026-03-24T10:35:41.366Z</time></trkpt><trkpt lat="46.6170036" lon="10.6403475"><ele>889.1428571428571</ele><time>2026-03-24T10:35:42.37Z</time></trkpt><trkpt lat="46.6169675" lon="10.6404436"><ele>888.7142857142857</ele><time>2026-03-24T10:35:43.369Z</time></trkpt><trkpt lat="46.6169292" lon="10.6405378"><ele>888.2857142857142</ele><time>2026-03-24T10:35:44.37Z</time></trkpt><trkpt lat="46.6168906" lon="10.6406323"><ele>887.8571428571429</ele><time>2026-03-24T10:35:45.364Z</time></trkpt><trkpt lat="46.6168539" lon="10.6407267"><ele>887.4285714285713</ele><time>2026-03-24T10:35:46.362Z</time></trkpt><trkpt lat="46.6168156" lon="10.6408202"><ele>887.0</ele><time>2026-03-24T10:35:47.377Z</time></trkpt><trkpt lat="46.6167776" lon="10.6409133"><ele>886.9999999999999</ele><time>2026-03-24T10:35:48.371Z</time></trkpt><trkpt lat="46.6167443" lon="10.6410091"><ele>887.0</ele><time>2026-03-24T10:35:49.366Z</time></trkpt><trkpt lat="46.6167163" lon="10.6411068"><ele>887.0</ele><time>2026-03-24T10:35:50.379Z</time></trkpt><trkpt lat="46.6166926" lon="10.6412057"><ele>887.0</ele><time>2026-03-24T10:35:51.369Z</time></trkpt><trkpt lat="46.6166708" lon="10.6413048"><ele>887.0</ele><time>2026-03-24T10:35:52.367Z</time></trkpt><trkpt lat="46.6166526" lon="10.6414035"><ele>886.9999999999999</ele><time>2026-03-24T10:35:53.372Z</time></trkpt><trkpt lat="46.6166398" lon="10.641504"><ele>887.0</ele><time>2026-03-24T10:35:54.375Z</time></trkpt><trkpt lat="46.6166333" lon="10.6416054"><ele>886.8333333333334</ele><time>2026-03-24T10:35:55.367Z</time></trkpt><trkpt lat="46.616631" lon="10.6417088"><ele>886.6666666666667</ele><time>2026-03-24T10:35:56.364Z</time></trkpt><trkpt lat="46.6166333" lon="10.6418173"><ele>886.5</ele><time>2026-03-24T10:35:57.376Z</time></trkpt><trkpt lat="46.6166384" lon="10.6419324"><ele>886.3333333333333</ele><time>2026-03-24T10:35:58.366Z</time></trkpt><trkpt lat="46.6166442" lon="10.6420513"><ele>886.1666666666666</ele><time>2026-03-24T10:35:59.375Z</time></trkpt><trkpt lat="46.6166512" lon="10.6421704"><ele>886.0</ele><time>2026-03-24T10:36:00.37Z</time></trkpt><trkpt lat="46.6166601" lon="10.6422882"><ele>885.8333333333333</ele><time>2026-03-24T10:36:01.372Z</time></trkpt><trkpt lat="46.6166696" lon="10.6424057"><ele>885.6666666666666</ele><time>2026-03-24T10:36:02.368Z</time></trkpt><trkpt lat="46.6166792" lon="10.6425221"><ele>885.5</ele><time>2026-03-24T10:36:03.366Z</time></trkpt><trkpt lat="46.6166872" lon="10.6426362"><ele>885.3333333333333</ele><time>2026-03-24T10:36:04.371Z</time></trkpt><trkpt lat="46.6166964" lon="10.6427496"><ele>885.1666666666666</ele><time>2026-03-24T10:36:05.37Z</time></trkpt><trkpt lat="46.616706" lon="10.642862"><ele>885.0</ele><time>2026-03-24T10:36:06.366Z</time></trkpt><trkpt lat="46.6167167" lon="10.6429742"><ele>884.1666666666666</ele><time>2026-03-24T10:36:07.358Z</time></trkpt><trkpt lat="46.616727" lon="10.6430862"><ele>883.3333333333333</ele><time>2026-03-24T10:36:08.365Z</time></trkpt><trkpt lat="46.6167365" lon="10.6431969"><ele>882.5</ele><time>2026-03-24T10:36:09.368Z</time></trkpt><trkpt lat="46.61675" lon="10.6433064"><ele>881.6666666666666</ele><time>2026-03-24T10:36:10.361Z</time></trkpt><trkpt lat="46.6167654" lon="10.6434179"><ele>880.8333333333333</ele><time>2026-03-24T10:36:11.36Z</time></trkpt><trkpt lat="46.6167792" lon="10.643533"><ele>880.0</ele><time>2026-03-24T10:36:12.368Z</time></trkpt><trkpt lat="46.6167936" lon="10.6436497"><ele>879.6666666666666</ele><time>2026-03-24T10:36:13.374Z</time></trkpt><trkpt lat="46.6168086" lon="10.6437648"><ele>879.3333333333333</ele><time>2026-03-24T10:36:14.377Z</time></trkpt><trkpt lat="46.616828" lon="10.6438749"><ele>879.0</ele><time>2026-03-24T10:36:15.365Z</time></trkpt><trkpt lat="46.6168536" lon="10.6439801"><ele>878.6666666666667</ele><time>2026-03-24T10:36:16.374Z</time></trkpt><trkpt lat="46.6168864" lon="10.6440795"><ele>878.3333333333334</ele><time>2026-03-24T10:36:17.371Z</time></trkpt><trkpt lat="46.6169291" lon="10.6441715"><ele>878.0</ele><time>2026-03-24T10:36:18.365Z</time></trkpt><trkpt lat="46.6169856" lon="10.6442497"><ele>877.8333333333334</ele><time>2026-03-24T10:36:19.365Z</time></trkpt><trkpt lat="46.6170502" lon="10.6443175"><ele>877.6666666666667</ele><time>2026-03-24T10:36:20.372Z</time></trkpt><trkpt lat="46.6171186" lon="10.6443794"><ele>877.5</ele><time>2026-03-24T10:36:21.37Z</time></trkpt><trkpt lat="46.617188" lon="10.6444408"><ele>877.3333333333333</ele><time>2026-03-24T10:36:22.365Z</time></trkpt><trkpt lat="46.6172589" lon="10.6445039"><ele>877.1666666666666</ele><time>2026-03-24T10:36:23.366Z</time></trkpt><trkpt lat="46.6173311" lon="10.6445701"><ele>877.0</ele><time>2026-03-24T10:36:24.359Z</time></trkpt><trkpt lat="46.6174044" lon="10.6446316"><ele>876.8333333333333</ele><time>2026-03-24T10:36:25.352Z</time></trkpt><trkpt lat="46.6174798" lon="10.6446899"><ele>876.6666666666666</ele><time>2026-03-24T10:36:26.367Z</time></trkpt><trkpt lat="46.6175529" lon="10.6447506"><ele>876.5</ele><time>2026-03-24T10:36:27.37Z</time></trkpt><trkpt lat="46.6176235" lon="10.6448129"><ele>876.3333333333333</ele><time>2026-03-24T10:36:28.369Z</time></trkpt><trkpt lat="46.6176938" lon="10.6448769"><ele>876.1666666666666</ele><time>2026-03-24T10:36:29.388Z</time></trkpt><trkpt lat="46.6177641" lon="10.644942"><ele>876.0</ele><time>2026-03-24T10:36:30.372Z</time></trkpt><trkpt lat="46.6178336" lon="10.6450043"><ele>875.8333333333334</ele><time>2026-03-24T10:36:31.37Z</time></trkpt><trkpt lat="46.6179004" lon="10.6450641"><ele>875.6666666666667</ele><time>2026-03-24T10:36:32.374Z</time></trkpt><trkpt lat="46.6179716" lon="10.6451251"><ele>875.5</ele><time>2026-03-24T10:36:33.374Z</time></trkpt><trkpt lat="46.6180441" lon="10.6451829"><ele>875.3333333333334</ele><time>2026-03-24T10:36:34.376Z</time></trkpt><trkpt lat="46.6181162" lon="10.6452417"><ele>875.1666666666667</ele><time>2026-03-24T10:36:35.368Z</time></trkpt><trkpt lat="46.6181875" lon="10.6453033"><ele>875.0</ele><time>2026-03-24T10:36:36.362Z</time></trkpt><trkpt lat="46.6182589" lon="10.6453631"><ele>874.8333333333334</ele><time>2026-03-24T10:36:37.366Z</time></trkpt><trkpt lat="46.6183299" lon="10.6454266"><ele>874.6666666666667</ele><time>2026-03-24T10:36:38.362Z</time></trkpt><trkpt lat="46.6183999" lon="10.6454882"><ele>874.5</ele><time>2026-03-24T10:36:39.357Z</time></trkpt><trkpt lat="46.6184719" lon="10.6455514"><ele>874.3333333333333</ele><time>2026-03-24T10:36:40.379Z</time></trkpt><trkpt lat="46.6185406" lon="10.6456143"><ele>874.1666666666666</ele><time>2026-03-24T10:36:41.365Z</time></trkpt><trkpt lat="46.6186101" lon="10.6456757"><ele>874.0</ele><time>2026-03-24T10:36:42.363Z</time></trkpt><trkpt lat="46.6186786" lon="10.6457343"><ele>873.6666666666666</ele><time>2026-03-24T10:36:43.367Z</time></trkpt><trkpt lat="46.6187468" lon="10.6457944"><ele>873.3333333333333</ele><time>2026-03-24T10:36:44.37Z</time></trkpt><trkpt lat="46.6188129" lon="10.6458545"><ele>873.0</ele><time>2026-03-24T10:36:45.363Z</time></trkpt><trkpt lat="46.6188788" lon="10.6459147"><ele>872.6666666666667</ele><time>2026-03-24T10:36:46.361Z</time></trkpt><trkpt lat="46.6189453" lon="10.645975"><ele>872.3333333333334</ele><time>2026-03-24T10:36:47.36Z</time></trkpt><trkpt lat="46.6190118" lon="10.6460343"><ele>872.0</ele><time>2026-03-24T10:36:48.351Z</time></trkpt><trkpt lat="46.619077" lon="10.6460953"><ele>872.0</ele><time>2026-03-24T10:36:49.359Z</time></trkpt><trkpt lat="46.6191398" lon="10.6461579"><ele>872.0</ele><time>2026-03-24T10:36:50.359Z</time></trkpt><trkpt lat="46.6192011" lon="10.6462187"><ele>872.0</ele><time>2026-03-24T10:36:51.372Z</time></trkpt><trkpt lat="46.6192643" lon="10.6462787"><ele>872.0</ele><time>2026-03-24T10:36:52.367Z</time></trkpt><trkpt lat="46.6193274" lon="10.6463373"><ele>872.0</ele><time>2026-03-24T10:36:53.373Z</time></trkpt><trkpt lat="46.619389" lon="10.6463958"><ele>872.0</ele><time>2026-03-24T10:36:54.37Z</time></trkpt><trkpt lat="46.6194515" lon="10.6464517"><ele>872.0</ele><time>2026-03-24T10:36:55.357Z</time></trkpt><trkpt lat="46.6195122" lon="10.6465119"><ele>872.0</ele><time>2026-03-24T10:36:56.366Z</time></trkpt><trkpt lat="46.6195723" lon="10.6465707"><ele>872.0</ele><time>2026-03-24T10:36:57.366Z</time></trkpt><trkpt lat="46.619632" lon="10.6466298"><ele>872.0</ele><time>2026-03-24T10:36:58.363Z</time></trkpt><trkpt lat="46.6196907" lon="10.6466843"><ele>872.0</ele><time>2026-03-24T10:36:59.366Z</time></trkpt><trkpt lat="46.6197498" lon="10.64674"><ele>872.0</ele><time>2026-03-24T10:37:00.367Z</time></trkpt><trkpt lat="46.6198089" lon="10.6467969"><ele>872.0</ele><time>2026-03-24T10:37:01.377Z</time></trkpt><trkpt lat="46.6198675" lon="10.6468538"><ele>872.0</ele><time>2026-03-24T10:37:02.372Z</time></trkpt><trkpt lat="46.6199251" lon="10.6469112"><ele>872.1428571428571</ele><time>2026-03-24T10:37:03.374Z</time></trkpt><trkpt lat="46.6199825" lon="10.6469684"><ele>872.2857142857143</ele><time>2026-03-24T10:37:04.37Z</time></trkpt><trkpt lat="46.6200397" lon="10.6470242"><ele>872.4285714285713</ele><time>2026-03-24T10:37:05.379Z</time></trkpt><trkpt lat="46.6200963" lon="10.6470806"><ele>872.5714285714286</ele><time>2026-03-24T10:37:06.368Z</time></trkpt><trkpt lat="46.6201532" lon="10.647136"><ele>872.7142857142857</ele><time>2026-03-24T10:37:07.363Z</time></trkpt><trkpt lat="46.6202101" lon="10.6471894"><ele>872.8571428571428</ele><time>2026-03-24T10:37:08.36Z</time></trkpt><trkpt lat="46.6202673" lon="10.6472436"><ele>873.0</ele><time>2026-03-24T10:37:09.359Z</time></trkpt><trkpt lat="46.6203228" lon="10.6473015"><ele>873.2857142857142</ele><time>2026-03-24T10:37:10.367Z</time></trkpt><trkpt lat="46.6203784" lon="10.647357"><ele>873.5714285714286</ele><time>2026-03-24T10:37:11.373Z</time></trkpt><trkpt lat="46.6204332" lon="10.6474123"><ele>873.8571428571429</ele><time>2026-03-24T10:37:12.365Z</time></trkpt><trkpt lat="46.6204876" lon="10.6474678"><ele>874.1428571428571</ele><time>2026-03-24T10:37:13.371Z</time></trkpt><trkpt lat="46.620541" lon="10.6475251"><ele>874.4285714285714</ele><time>2026-03-24T10:37:14.375Z</time></trkpt><trkpt lat="46.620596" lon="10.6475819"><ele>874.7142857142857</ele><time>2026-03-24T10:37:15.369Z</time></trkpt><trkpt lat="46.620652" lon="10.6476344"><ele>875.0</ele><time>2026-03-24T10:37:16.365Z</time></trkpt><trkpt lat="46.6207102" lon="10.6476818"><ele>875.0</ele><time>2026-03-24T10:37:17.377Z</time></trkpt><trkpt lat="46.6207718" lon="10.6477185"><ele>875.0</ele><time>2026-03-24T10:37:18.367Z</time></trkpt><trkpt lat="46.6208357" lon="10.6477476"><ele>875.0</ele><time>2026-03-24T10:37:19.375Z</time></trkpt><trkpt lat="46.6208999" lon="10.6477737"><ele>875.0</ele><time>2026-03-24T10:37:20.367Z</time></trkpt><trkpt lat="46.620963" lon="10.6477963"><ele>875.0</ele><time>2026-03-24T10:37:21.365Z</time></trkpt><trkpt lat="46.6210259" lon="10.6478187"><ele>875.0</ele><time>2026-03-24T10:37:22.371Z</time></trkpt><trkpt lat="46.6210879" lon="10.6478396"><ele>875.0</ele><time>2026-03-24T10:37:23.363Z</time></trkpt><trkpt lat="46.6211509" lon="10.6478583"><ele>874.2857142857143</ele><time>2026-03-24T10:37:24.363Z</time></trkpt><trkpt lat="46.6212139" lon="10.6478733"><ele>873.5714285714286</ele><time>2026-03-24T10:37:25.366Z</time></trkpt><trkpt lat="46.6212768" lon="10.6478879"><ele>872.8571428571429</ele><time>2026-03-24T10:37:26.37Z</time></trkpt><trkpt lat="46.6213404" lon="10.6478999"><ele>872.1428571428571</ele><time>2026-03-24T10:37:27.369Z</time></trkpt><trkpt lat="46.6214031" lon="10.6479094"><ele>871.4285714285714</ele><time>2026-03-24T10:37:28.374Z</time></trkpt><trkpt lat="46.6214658" lon="10.6479176"><ele>870.7142857142858</ele><time>2026-03-24T10:37:29.357Z</time></trkpt><trkpt lat="46.6215892" lon="10.6479323"><ele>870.0</ele><time>2026-03-24T10:37:31.376Z</time></trkpt><trkpt lat="46.6217086" lon="10.6479489"><ele>870.0</ele><time>2026-03-24T10:37:33.372Z</time></trkpt><trkpt lat="46.6218141" lon="10.6479615"><ele>870.0</ele><time>2026-03-24T10:37:35.381Z</time></trkpt><trkpt lat="46.621905" lon="10.6479673"><ele>870.0</ele><time>2026-03-24T10:37:37.36Z</time></trkpt><trkpt lat="46.6219757" lon="10.6479627"><ele>870.0</ele><time>2026-03-24T10:37:39.357Z</time></trkpt><trkpt lat="46.6220396" lon="10.648015"><ele>870.0</ele><time>2026-03-24T10:37:42.364Z</time></trkpt><trkpt lat="46.6220358" lon="10.6481075"><ele>870.0</ele><time>2026-03-24T10:37:45.369Z</time></trkpt><trkpt lat="46.6220202" lon="10.6482152"><ele>870.2</ele><time>2026-03-24T10:37:48.388Z</time></trkpt><trkpt lat="46.6220106" lon="10.6483277"><ele>870.4</ele><time>2026-03-24T10:37:50.368Z</time></trkpt><trkpt lat="46.6219994" lon="10.6484875"><ele>870.5999999999999</ele><time>2026-03-24T10:37:52.369Z</time></trkpt><trkpt lat="46.6219848" lon="10.6486698"><ele>870.8</ele><time>2026-03-24T10:37:54.365Z</time></trkpt><trkpt lat="46.6219667" lon="10.6488497"><ele>871.0</ele><time>2026-03-24T10:37:56.374Z</time></trkpt><trkpt lat="46.6219465" lon="10.649034"><ele>871.0</ele><time>2026-03-24T10:37:58.373Z</time></trkpt><trkpt lat="46.6219321" lon="10.6491262"><ele>871.0</ele><time>2026-03-24T10:37:59.378Z</time></trkpt><trkpt lat="46.6219186" lon="10.6492191"><ele>871.0</ele><time>2026-03-24T10:38:00.363Z</time></trkpt><trkpt lat="46.6219072" lon="10.649314"><ele>871.0</ele><time>2026-03-24T10:38:01.368Z</time></trkpt><trkpt lat="46.6218955" lon="10.6494068"><ele>871.0</ele><time>2026-03-24T10:38:02.364Z</time></trkpt><trkpt lat="46.6218833" lon="10.6494997"><ele>871.0</ele><time>2026-03-24T10:38:03.364Z</time></trkpt><trkpt lat="46.6218707" lon="10.6495925"><ele>871.0</ele><time>2026-03-24T10:38:04.367Z</time></trkpt><trkpt lat="46.621861" lon="10.6496857"><ele>871.0</ele><time>2026-03-24T10:38:05.371Z</time></trkpt><trkpt lat="46.6218535" lon="10.6497809"><ele>871.0</ele><time>2026-03-24T10:38:06.37Z</time></trkpt><trkpt lat="46.6218454" lon="10.6498764"><ele>871.0</ele><time>2026-03-24T10:38:07.369Z</time></trkpt><trkpt lat="46.6218362" lon="10.6499731"><ele>871.0</ele><time>2026-03-24T10:38:08.382Z</time></trkpt><trkpt lat="46.6218276" lon="10.65007"><ele>871.0</ele><time>2026-03-24T10:38:09.377Z</time></trkpt><trkpt lat="46.6218192" lon="10.6501668"><ele>871.0</ele><time>2026-03-24T10:38:10.371Z</time></trkpt><trkpt lat="46.6218111" lon="10.6502645"><ele>871.0</ele><time>2026-03-24T10:38:11.367Z</time></trkpt><trkpt lat="46.6218033" lon="10.6503634"><ele>871.0</ele><time>2026-03-24T10:38:12.373Z</time></trkpt><trkpt lat="46.6217957" lon="10.6504622"><ele>871.0</ele><time>2026-03-24T10:38:13.371Z</time></trkpt><trkpt lat="46.6217878" lon="10.6505593"><ele>871.0</ele><time>2026-03-24T10:38:14.379Z</time></trkpt><trkpt lat="46.6217752" lon="10.6506559"><ele>871.0</ele><time>2026-03-24T10:38:15.37Z</time></trkpt><trkpt lat="46.6217611" lon="10.6507521"><ele>871.0</ele><time>2026-03-24T10:38:16.369Z</time></trkpt><trkpt lat="46.6217473" lon="10.6508491"><ele>871.0</ele><time>2026-03-24T10:38:17.379Z</time></trkpt><trkpt lat="46.6217354" lon="10.6509478"><ele>871.0</ele><time>2026-03-24T10:38:18.378Z</time></trkpt><trkpt lat="46.6217241" lon="10.651047"><ele>871.2857142857142</ele><time>2026-03-24T10:38:19.373Z</time></trkpt><trkpt lat="46.6217126" lon="10.6511419"><ele>871.5714285714286</ele><time>2026-03-24T10:38:20.366Z</time></trkpt><trkpt lat="46.6217014" lon="10.6512409"><ele>871.8571428571429</ele><time>2026-03-24T10:38:21.379Z</time></trkpt><trkpt lat="46.6216906" lon="10.6513382"><ele>872.1428571428571</ele><time>2026-03-24T10:38:22.384Z</time></trkpt><trkpt lat="46.6216807" lon="10.6514371"><ele>872.4285714285714</ele><time>2026-03-24T10:38:23.37Z</time></trkpt><trkpt lat="46.6216698" lon="10.6515343"><ele>872.7142857142857</ele><time>2026-03-24T10:38:24.369Z</time></trkpt><trkpt lat="46.6216594" lon="10.6516323"><ele>873.0</ele><time>2026-03-24T10:38:25.368Z</time></trkpt><trkpt lat="46.6216493" lon="10.6517307"><ele>872.9999999999999</ele><time>2026-03-24T10:38:26.366Z</time></trkpt><trkpt lat="46.6216404" lon="10.6518297"><ele>873.0</ele><time>2026-03-24T10:38:27.361Z</time></trkpt><trkpt lat="46.6216307" lon="10.6519288"><ele>873.0</ele><time>2026-03-24T10:38:28.358Z</time></trkpt><trkpt lat="46.6216206" lon="10.6520248"><ele>873.0</ele><time>2026-03-24T10:38:29.38Z</time></trkpt><trkpt lat="46.621611" lon="10.6521254"><ele>873.0</ele><time>2026-03-24T10:38:30.367Z</time></trkpt><trkpt lat="46.6215984" lon="10.6522253"><ele>872.9999999999999</ele><time>2026-03-24T10:38:31.375Z</time></trkpt><trkpt lat="46.6215866" lon="10.652325"><ele>873.0</ele><time>2026-03-24T10:38:32.363Z</time></trkpt><trkpt lat="46.6215769" lon="10.6524256"><ele>872.8571428571428</ele><time>2026-03-24T10:38:33.366Z</time></trkpt><trkpt lat="46.6215667" lon="10.6525261"><ele>872.7142857142857</ele><time>2026-03-24T10:38:34.365Z</time></trkpt><trkpt lat="46.6215563" lon="10.6526252"><ele>872.5714285714286</ele><time>2026-03-24T10:38:35.369Z</time></trkpt><trkpt lat="46.6215465" lon="10.6527248"><ele>872.4285714285713</ele><time>2026-03-24T10:38:36.361Z</time></trkpt><trkpt lat="46.6215364" lon="10.6528226"><ele>872.2857142857143</ele><time>2026-03-24T10:38:37.373Z</time></trkpt><trkpt lat="46.6215272" lon="10.6529233"><ele>872.1428571428571</ele><time>2026-03-24T10:38:38.377Z</time></trkpt><trkpt lat="46.6215186" lon="10.6530232"><ele>872.0</ele><time>2026-03-24T10:38:39.357Z</time></trkpt><trkpt lat="46.621508" lon="10.6531217"><ele>872.0</ele><time>2026-03-24T10:38:40.366Z</time></trkpt><trkpt lat="46.6214976" lon="10.65322"><ele>872.0</ele><time>2026-03-24T10:38:41.366Z</time></trkpt><trkpt lat="46.6214867" lon="10.6533214"><ele>872.0</ele><time>2026-03-24T10:38:42.354Z</time></trkpt><trkpt lat="46.6214761" lon="10.6534231"><ele>872.0</ele><time>2026-03-24T10:38:43.37Z</time></trkpt><trkpt lat="46.6214661" lon="10.6535226"><ele>872.0</ele><time>2026-03-24T10:38:44.373Z</time></trkpt><trkpt lat="46.6214548" lon="10.6536266"><ele>872.0</ele><time>2026-03-24T10:38:45.363Z</time></trkpt><trkpt lat="46.6214436" lon="10.653728"><ele>872.0</ele><time>2026-03-24T10:38:46.373Z</time></trkpt><trkpt lat="46.6214324" lon="10.6538295"><ele>871.8571428571429</ele><time>2026-03-24T10:38:47.365Z</time></trkpt><trkpt lat="46.6214219" lon="10.6539306"><ele>871.7142857142858</ele><time>2026-03-24T10:38:48.36Z</time></trkpt><trkpt lat="46.6214115" lon="10.6540312"><ele>871.5714285714286</ele><time>2026-03-24T10:38:49.366Z</time></trkpt><trkpt lat="46.6214006" lon="10.6541325"><ele>871.4285714285714</ele><time>2026-03-24T10:38:50.367Z</time></trkpt><trkpt lat="46.6213905" lon="10.6542337"><ele>871.2857142857142</ele><time>2026-03-24T10:38:51.372Z</time></trkpt><trkpt lat="46.6213827" lon="10.6543361"><ele>871.1428571428571</ele><time>2026-03-24T10:38:52.369Z</time></trkpt><trkpt lat="46.6213739" lon="10.6544383"><ele>871.0</ele><time>2026-03-24T10:38:53.364Z</time></trkpt><trkpt lat="46.6213654" lon="10.6545397"><ele>871.0</ele><time>2026-03-24T10:38:54.366Z</time></trkpt><trkpt lat="46.6213538" lon="10.6546412"><ele>871.0</ele><time>2026-03-24T10:38:55.373Z</time></trkpt><trkpt lat="46.6213411" lon="10.6547427"><ele>871.0</ele><time>2026-03-24T10:38:56.37Z</time></trkpt><trkpt lat="46.621329" lon="10.6548432"><ele>871.0</ele><time>2026-03-24T10:38:57.37Z</time></trkpt><trkpt lat="46.6213162" lon="10.6549423"><ele>871.0</ele><time>2026-03-24T10:38:58.367Z</time></trkpt><trkpt lat="46.6213054" lon="10.655041"><ele>871.0</ele><time>2026-03-24T10:38:59.367Z</time></trkpt><trkpt lat="46.6212948" lon="10.65514"><ele>871.0</ele><time>2026-03-24T10:39:00.364Z</time></trkpt><trkpt lat="46.6212838" lon="10.6552399"><ele>871.0</ele><time>2026-03-24T10:39:01.375Z</time></trkpt><trkpt lat="46.6212733" lon="10.6553397"><ele>871.0</ele><time>2026-03-24T10:39:02.365Z</time></trkpt><trkpt lat="46.621263" lon="10.6554401"><ele>871.0</ele><time>2026-03-24T10:39:03.364Z</time></trkpt><trkpt lat="46.6212543" lon="10.6555393"><ele>871.0</ele><time>2026-03-24T10:39:04.366Z</time></trkpt><trkpt lat="46.6212446" lon="10.6556384"><ele>871.0</ele><time>2026-03-24T10:39:05.381Z</time></trkpt><trkpt lat="46.6212349" lon="10.655737"><ele>871.0</ele><time>2026-03-24T10:39:06.37Z</time></trkpt><trkpt lat="46.6212232" lon="10.6558351"><ele>871.0</ele><time>2026-03-24T10:39:07.366Z</time></trkpt><trkpt lat="46.6212105" lon="10.6559358"><ele>871.0</ele><time>2026-03-24T10:39:08.366Z</time></trkpt><trkpt lat="46.6211989" lon="10.6560354"><ele>871.0</ele><time>2026-03-24T10:39:09.369Z</time></trkpt><trkpt lat="46.621186" lon="10.6561344"><ele>871.0</ele><time>2026-03-24T10:39:10.369Z</time></trkpt><trkpt lat="46.6211737" lon="10.6562335"><ele>871.0</ele><time>2026-03-24T10:39:11.377Z</time></trkpt><trkpt lat="46.6211646" lon="10.6563295"><ele>871.0</ele><time>2026-03-24T10:39:12.373Z</time></trkpt><trkpt lat="46.6211546" lon="10.6564266"><ele>871.0</ele><time>2026-03-24T10:39:13.372Z</time></trkpt><trkpt lat="46.6211439" lon="10.6565254"><ele>871.0</ele><time>2026-03-24T10:39:14.374Z</time></trkpt><trkpt lat="46.6211338" lon="10.6566202"><ele>871.1428571428571</ele><time>2026-03-24T10:39:15.378Z</time></trkpt><trkpt lat="46.6211218" lon="10.6567196"><ele>871.2857142857142</ele><time>2026-03-24T10:39:16.373Z</time></trkpt><trkpt lat="46.6211111" lon="10.6568159"><ele>871.4285714285714</ele><time>2026-03-24T10:39:17.363Z</time></trkpt><trkpt lat="46.6211058" lon="10.6569185"><ele>871.5714285714286</ele><time>2026-03-24T10:39:18.368Z</time></trkpt><trkpt lat="46.6211029" lon="10.6570181"><ele>871.7142857142858</ele><time>2026-03-24T10:39:19.375Z</time></trkpt><trkpt lat="46.6211022" lon="10.6571138"><ele>871.8571428571429</ele><time>2026-03-24T10:39:20.372Z</time></trkpt><trkpt lat="46.6210995" lon="10.6572081"><ele>872.0</ele><time>2026-03-24T10:39:21.373Z</time></trkpt><trkpt lat="46.6210936" lon="10.6573036"><ele>872.0</ele><time>2026-03-24T10:39:22.366Z</time></trkpt><trkpt lat="46.6210826" lon="10.6573982"><ele>872.0</ele><time>2026-03-24T10:39:23.364Z</time></trkpt><trkpt lat="46.6210687" lon="10.6574948"><ele>872.0</ele><time>2026-03-24T10:39:24.374Z</time></trkpt><trkpt lat="46.6210544" lon="10.6575919"><ele>872.0</ele><time>2026-03-24T10:39:25.375Z</time></trkpt><trkpt lat="46.6210436" lon="10.6576891"><ele>872.0</ele><time>2026-03-24T10:39:26.364Z</time></trkpt><trkpt lat="46.6210332" lon="10.6577852"><ele>872.0</ele><time>2026-03-24T10:39:27.368Z</time></trkpt><trkpt lat="46.6210223" lon="10.65788"><ele>872.0</ele><time>2026-03-24T10:39:28.365Z</time></trkpt><trkpt lat="46.6210097" lon="10.6579755"><ele>872.0</ele><time>2026-03-24T10:39:29.374Z</time></trkpt><trkpt lat="46.6209964" lon="10.6580706"><ele>872.0</ele><time>2026-03-24T10:39:30.367Z</time></trkpt><trkpt lat="46.6209816" lon="10.6581642"><ele>872.0</ele><time>2026-03-24T10:39:31.37Z</time></trkpt><trkpt lat="46.6209651" lon="10.6582586"><ele>872.0</ele><time>2026-03-24T10:39:32.372Z</time></trkpt><trkpt lat="46.6209468" lon="10.6583526"><ele>872.0</ele><time>2026-03-24T10:39:33.373Z</time></trkpt><trkpt lat="46.620929" lon="10.6584459"><ele>872.0</ele><time>2026-03-24T10:39:34.365Z</time></trkpt><trkpt lat="46.6209104" lon="10.6585411"><ele>872.0</ele><time>2026-03-24T10:39:35.365Z</time></trkpt><trkpt lat="46.6208921" lon="10.6586348"><ele>872.2857142857143</ele><time>2026-03-24T10:39:36.375Z</time></trkpt><trkpt lat="46.6208747" lon="10.6587266"><ele>872.5714285714287</ele><time>2026-03-24T10:39:37.377Z</time></trkpt><trkpt lat="46.6208515" lon="10.6588206"><ele>872.8571428571429</ele><time>2026-03-24T10:39:38.352Z</time></trkpt><trkpt lat="46.6208279" lon="10.6589132"><ele>873.1428571428571</ele><time>2026-03-24T10:39:39.374Z</time></trkpt><trkpt lat="46.620806" lon="10.6590055"><ele>873.4285714285714</ele><time>2026-03-24T10:39:40.373Z</time></trkpt><trkpt lat="46.6207869" lon="10.6590995"><ele>873.7142857142857</ele><time>2026-03-24T10:39:41.361Z</time></trkpt><trkpt lat="46.6207719" lon="10.6591948"><ele>874.0</ele><time>2026-03-24T10:39:42.378Z</time></trkpt><trkpt lat="46.6207691" lon="10.6592908"><ele>873.9999999999999</ele><time>2026-03-24T10:39:43.368Z</time></trkpt><trkpt lat="46.6207737" lon="10.6593845"><ele>874.0</ele><time>2026-03-24T10:39:44.367Z</time></trkpt><trkpt lat="46.6207982" lon="10.6595591"><ele>874.0</ele><time>2026-03-24T10:39:46.366Z</time></trkpt><trkpt lat="46.6208017" lon="10.6597407"><ele>874.0</ele><time>2026-03-24T10:39:48.371Z</time></trkpt><trkpt lat="46.6207951" lon="10.6598343"><ele>873.9999999999999</ele><time>2026-03-24T10:39:49.362Z</time></trkpt><trkpt lat="46.6207884" lon="10.6599272"><ele>874.0</ele><time>2026-03-24T10:39:50.371Z</time></trkpt><trkpt lat="46.6207811" lon="10.6600215"><ele>873.7142857142857</ele><time>2026-03-24T10:39:51.367Z</time></trkpt><trkpt lat="46.620777" lon="10.660115"><ele>873.4285714285714</ele><time>2026-03-24T10:39:52.372Z</time></trkpt><trkpt lat="46.6207717" lon="10.660212"><ele>873.1428571428571</ele><time>2026-03-24T10:39:53.375Z</time></trkpt><trkpt lat="46.6207639" lon="10.6603075"><ele>872.8571428571429</ele><time>2026-03-24T10:39:54.381Z</time></trkpt><trkpt lat="46.6207542" lon="10.6604014"><ele>872.5714285714287</ele><time>2026-03-24T10:39:55.37Z</time></trkpt><trkpt lat="46.6207457" lon="10.6604977"><ele>872.2857142857143</ele><time>2026-03-24T10:39:56.37Z</time></trkpt><trkpt lat="46.6207402" lon="10.6605943"><ele>872.0</ele><time>2026-03-24T10:39:57.383Z</time></trkpt><trkpt lat="46.6207314" lon="10.6606895"><ele>871.7142857142858</ele><time>2026-03-24T10:39:58.359Z</time></trkpt><trkpt lat="46.6207207" lon="10.6607875"><ele>871.4285714285714</ele><time>2026-03-24T10:39:59.372Z</time></trkpt><trkpt lat="46.6207074" lon="10.6608825"><ele>871.1428571428571</ele><time>2026-03-24T10:40:00.363Z</time></trkpt><trkpt lat="46.6206933" lon="10.6609764"><ele>870.8571428571429</ele><time>2026-03-24T10:40:01.371Z</time></trkpt><trkpt lat="46.6206808" lon="10.6610697"><ele>870.5714285714286</ele><time>2026-03-24T10:40:02.371Z</time></trkpt><trkpt lat="46.6206681" lon="10.6611647"><ele>870.2857142857143</ele><time>2026-03-24T10:40:03.368Z</time></trkpt><trkpt lat="46.620654" lon="10.6612628"><ele>870.0</ele><time>2026-03-24T10:40:04.373Z</time></trkpt><trkpt lat="46.620644" lon="10.6613609"><ele>870.0</ele><time>2026-03-24T10:40:05.374Z</time></trkpt><trkpt lat="46.6206371" lon="10.6614584"><ele>870.0</ele><time>2026-03-24T10:40:06.368Z</time></trkpt><trkpt lat="46.6206326" lon="10.6615551"><ele>870.0</ele><time>2026-03-24T10:40:07.366Z</time></trkpt><trkpt lat="46.620628" lon="10.6616488"><ele>870.0</ele><time>2026-03-24T10:40:08.38Z</time></trkpt><trkpt lat="46.6206201" lon="10.6617426"><ele>870.0</ele><time>2026-03-24T10:40:09.374Z</time></trkpt><trkpt lat="46.620601" lon="10.6619231"><ele>870.0</ele><time>2026-03-24T10:40:11.367Z</time></trkpt><trkpt lat="46.6205871" lon="10.6620132"><ele>870.0</ele><time>2026-03-24T10:40:12.371Z</time></trkpt><trkpt lat="46.6205579" lon="10.6621844"><ele>870.0</ele><time>2026-03-24T10:40:14.373Z</time></trkpt><trkpt lat="46.6205355" lon="10.662339"><ele>870.0</ele><time>2026-03-24T10:40:16.373Z</time></trkpt><trkpt lat="46.620519" lon="10.6624687"><ele>870.0</ele><time>2026-03-24T10:40:18.369Z</time></trkpt><trkpt lat="46.6205062" lon="10.662596"><ele>870.0</ele><time>2026-03-24T10:40:20.377Z</time></trkpt><trkpt lat="46.6204837" lon="10.662759"><ele>869.8333333333334</ele><time>2026-03-24T10:40:22.374Z</time></trkpt><trkpt lat="46.6204593" lon="10.6629301"><ele>869.6666666666667</ele><time>2026-03-24T10:40:24.364Z</time></trkpt><trkpt lat="46.6204333" lon="10.6631059"><ele>869.5</ele><time>2026-03-24T10:40:26.369Z</time></trkpt><trkpt lat="46.620416" lon="10.6631974"><ele>869.3333333333334</ele><time>2026-03-24T10:40:27.378Z</time></trkpt><trkpt lat="46.6204022" lon="10.6632887"><ele>869.1666666666667</ele><time>2026-03-24T10:40:28.368Z</time></trkpt><trkpt lat="46.6203881" lon="10.6633797"><ele>869.0</ele><time>2026-03-24T10:40:29.376Z</time></trkpt><trkpt lat="46.620369" lon="10.6635464"><ele>868.8000000000001</ele><time>2026-03-24T10:40:31.372Z</time></trkpt><trkpt lat="46.6203475" lon="10.6637124"><ele>868.6000000000001</ele><time>2026-03-24T10:40:33.36Z</time></trkpt><trkpt lat="46.6203371" lon="10.6638049"><ele>868.4</ele><time>2026-03-24T10:40:34.368Z</time></trkpt><trkpt lat="46.6203201" lon="10.6639719"><ele>868.2</ele><time>2026-03-24T10:40:36.376Z</time></trkpt><trkpt lat="46.6203094" lon="10.6641393"><ele>868.0</ele><time>2026-03-24T10:40:38.364Z</time></trkpt><trkpt lat="46.6202979" lon="10.6642353"><ele>867.9999999999999</ele><time>2026-03-24T10:40:39.371Z</time></trkpt><trkpt lat="46.6202873" lon="10.664331"><ele>868.0</ele><time>2026-03-24T10:40:40.367Z</time></trkpt><trkpt lat="46.6202695" lon="10.664517"><ele>868.0</ele><time>2026-03-24T10:40:42.369Z</time></trkpt><trkpt lat="46.6202606" lon="10.6646124"><ele>868.0</ele><time>2026-03-24T10:40:43.36Z</time></trkpt><trkpt lat="46.6202549" lon="10.6647191"><ele>867.9999999999999</ele><time>2026-03-24T10:40:44.385Z</time></trkpt><trkpt lat="46.6202494" lon="10.664819"><ele>868.0</ele><time>2026-03-24T10:40:45.362Z</time></trkpt><trkpt lat="46.6202372" lon="10.6649242"><ele>868.0</ele><time>2026-03-24T10:40:46.368Z</time></trkpt><trkpt lat="46.6202201" lon="10.6650225"><ele>868.0</ele><time>2026-03-24T10:40:47.374Z</time></trkpt><trkpt lat="46.6202043" lon="10.665121"><ele>868.0</ele><time>2026-03-24T10:40:48.366Z</time></trkpt><trkpt lat="46.6201936" lon="10.6652193"><ele>868.0</ele><time>2026-03-24T10:40:49.372Z</time></trkpt><trkpt lat="46.6201843" lon="10.6653178"><ele>868.0</ele><time>2026-03-24T10:40:50.365Z</time></trkpt><trkpt lat="46.6201757" lon="10.6654158"><ele>868.0</ele><time>2026-03-24T10:40:51.366Z</time></trkpt><trkpt lat="46.6201663" lon="10.6655123"><ele>868.0</ele><time>2026-03-24T10:40:52.365Z</time></trkpt><trkpt lat="46.6201564" lon="10.6656062"><ele>868.2857142857143</ele><time>2026-03-24T10:40:53.367Z</time></trkpt><trkpt lat="46.6201457" lon="10.6657003"><ele>868.5714285714286</ele><time>2026-03-24T10:40:54.373Z</time></trkpt><trkpt lat="46.6201348" lon="10.6657943"><ele>868.8571428571429</ele><time>2026-03-24T10:40:55.363Z</time></trkpt><trkpt lat="46.6201255" lon="10.66589"><ele>869.1428571428571</ele><time>2026-03-24T10:40:56.37Z</time></trkpt><trkpt lat="46.6201145" lon="10.6659872"><ele>869.4285714285714</ele><time>2026-03-24T10:40:57.369Z</time></trkpt><trkpt lat="46.6201025" lon="10.6660852"><ele>869.7142857142858</ele><time>2026-03-24T10:40:58.373Z</time></trkpt><trkpt lat="46.6200944" lon="10.6661851"><ele>870.0</ele><time>2026-03-24T10:40:59.378Z</time></trkpt><trkpt lat="46.6200924" lon="10.6662865"><ele>870.0000000000001</ele><time>2026-03-24T10:41:00.37Z</time></trkpt><trkpt lat="46.6200898" lon="10.6663893"><ele>870.0</ele><time>2026-03-24T10:41:01.369Z</time></trkpt><trkpt lat="46.6200864" lon="10.6664857"><ele>870.0</ele><time>2026-03-24T10:41:02.375Z</time></trkpt><trkpt lat="46.620074" lon="10.6665805"><ele>870.0</ele><time>2026-03-24T10:41:03.366Z</time></trkpt><trkpt lat="46.6200612" lon="10.6666788"><ele>870.0</ele><time>2026-03-24T10:41:04.358Z</time></trkpt><trkpt lat="46.6200486" lon="10.6667753"><ele>870.0000000000001</ele><time>2026-03-24T10:41:05.37Z</time></trkpt><trkpt lat="46.6200361" lon="10.6668727"><ele>870.0</ele><time>2026-03-24T10:41:06.377Z</time></trkpt><trkpt lat="46.6200207" lon="10.6669711"><ele>869.7142857142858</ele><time>2026-03-24T10:41:07.374Z</time></trkpt><trkpt lat="46.6200073" lon="10.6670694"><ele>869.4285714285714</ele><time>2026-03-24T10:41:08.368Z</time></trkpt><trkpt lat="46.6199941" lon="10.6671669"><ele>869.1428571428571</ele><time>2026-03-24T10:41:09.371Z</time></trkpt><trkpt lat="46.6199815" lon="10.6672647"><ele>868.8571428571429</ele><time>2026-03-24T10:41:10.374Z</time></trkpt><trkpt lat="46.6199721" lon="10.6673626"><ele>868.5714285714286</ele><time>2026-03-24T10:41:11.371Z</time></trkpt><trkpt lat="46.6199615" lon="10.6674601"><ele>868.2857142857143</ele><time>2026-03-24T10:41:12.371Z</time></trkpt><trkpt lat="46.6199515" lon="10.6675562"><ele>868.0</ele><time>2026-03-24T10:41:13.371Z</time></trkpt><trkpt lat="46.6199412" lon="10.667653"><ele>867.9999999999999</ele><time>2026-03-24T10:41:14.358Z</time></trkpt><trkpt lat="46.6199325" lon="10.667751"><ele>868.0</ele><time>2026-03-24T10:41:15.376Z</time></trkpt><trkpt lat="46.619914" lon="10.6679316"><ele>868.0</ele><time>2026-03-24T10:41:17.364Z</time></trkpt><trkpt lat="46.619903" lon="10.6680271"><ele>868.0</ele><time>2026-03-24T10:41:18.364Z</time></trkpt><trkpt lat="46.6198926" lon="10.6681197"><ele>867.9999999999999</ele><time>2026-03-24T10:41:19.365Z</time></trkpt><trkpt lat="46.6198824" lon="10.6682213"><ele>868.0</ele><time>2026-03-24T10:41:20.375Z</time></trkpt><trkpt lat="46.6198628" lon="10.6684138"><ele>868.1666666666666</ele><time>2026-03-24T10:41:22.375Z</time></trkpt><trkpt lat="46.6198528" lon="10.6685158"><ele>868.3333333333333</ele><time>2026-03-24T10:41:23.376Z</time></trkpt><trkpt lat="46.6198444" lon="10.6686091"><ele>868.5</ele><time>2026-03-24T10:41:24.371Z</time></trkpt><trkpt lat="46.6198277" lon="10.6688034"><ele>868.6666666666667</ele><time>2026-03-24T10:41:26.365Z</time></trkpt><trkpt lat="46.619817" lon="10.6689005"><ele>868.8333333333334</ele><time>2026-03-24T10:41:27.363Z</time></trkpt><trkpt lat="46.619807" lon="10.668992"><ele>869.0</ele><time>2026-03-24T10:41:28.371Z</time></trkpt><trkpt lat="46.6197931" lon="10.6690929"><ele>869.0</ele><time>2026-03-24T10:41:29.359Z</time></trkpt><trkpt lat="46.6197801" lon="10.6691903"><ele>869.0</ele><time>2026-03-24T10:41:30.361Z</time></trkpt><trkpt lat="46.6197698" lon="10.6692876"><ele>869.0</ele><time>2026-03-24T10:41:31.371Z</time></trkpt><trkpt lat="46.619759" lon="10.6693851"><ele>869.0</ele><time>2026-03-24T10:41:32.368Z</time></trkpt><trkpt lat="46.6197498" lon="10.6694818"><ele>869.0</ele><time>2026-03-24T10:41:33.367Z</time></trkpt><trkpt lat="46.6197394" lon="10.6695736"><ele>869.0</ele><time>2026-03-24T10:41:34.362Z</time></trkpt><trkpt lat="46.6197293" lon="10.6696656"><ele>869.0</ele><time>2026-03-24T10:41:35.37Z</time></trkpt><trkpt lat="46.6197218" lon="10.6697631"><ele>869.0000000000001</ele><time>2026-03-24T10:41:36.373Z</time></trkpt><trkpt lat="46.6197066" lon="10.6699457"><ele>869.0</ele><time>2026-03-24T10:41:38.362Z</time></trkpt><trkpt lat="46.6196974" lon="10.6700423"><ele>869.0</ele><time>2026-03-24T10:41:39.366Z</time></trkpt><trkpt lat="46.6196891" lon="10.6701379"><ele>869.0</ele><time>2026-03-24T10:41:40.376Z</time></trkpt><trkpt lat="46.6196819" lon="10.670234"><ele>869.0000000000001</ele><time>2026-03-24T10:41:41.374Z</time></trkpt><trkpt lat="46.6196738" lon="10.6703325"><ele>869.0</ele><time>2026-03-24T10:41:42.368Z</time></trkpt><trkpt lat="46.6196554" lon="10.6705155"><ele>868.8571428571429</ele><time>2026-03-24T10:41:44.367Z</time></trkpt><trkpt lat="46.6196423" lon="10.6706118"><ele>868.7142857142857</ele><time>2026-03-24T10:41:45.374Z</time></trkpt><trkpt lat="46.619629" lon="10.6707035"><ele>868.5714285714286</ele><time>2026-03-24T10:41:46.363Z</time></trkpt><trkpt lat="46.6196159" lon="10.6707944"><ele>868.4285714285714</ele><time>2026-03-24T10:41:47.371Z</time></trkpt><trkpt lat="46.6196067" lon="10.6708852"><ele>868.2857142857142</ele><time>2026-03-24T10:41:48.361Z</time></trkpt><trkpt lat="46.6195959" lon="10.6709761"><ele>868.1428571428571</ele><time>2026-03-24T10:41:49.373Z</time></trkpt><trkpt lat="46.6195786" lon="10.6711515"><ele>868.0</ele><time>2026-03-24T10:41:51.366Z</time></trkpt><trkpt lat="46.6195617" lon="10.6713233"><ele>867.9999999999999</ele><time>2026-03-24T10:41:53.369Z</time></trkpt><trkpt lat="46.6195529" lon="10.6714196"><ele>868.0</ele><time>2026-03-24T10:41:54.37Z</time></trkpt><trkpt lat="46.6195352" lon="10.6715979"><ele>868.0</ele><time>2026-03-24T10:41:56.371Z</time></trkpt><trkpt lat="46.6195276" lon="10.6716977"><ele>868.0</ele><time>2026-03-24T10:41:57.37Z</time></trkpt><trkpt lat="46.6195178" lon="10.6717971"><ele>867.9999999999999</ele><time>2026-03-24T10:41:58.367Z</time></trkpt><trkpt lat="46.6195094" lon="10.6718921"><ele>868.0</ele><time>2026-03-24T10:41:59.369Z</time></trkpt><trkpt lat="46.6194915" lon="10.6720761"><ele>868.1428571428571</ele><time>2026-03-24T10:42:01.373Z</time></trkpt><trkpt lat="46.6194775" lon="10.6721758"><ele>868.2857142857142</ele><time>2026-03-24T10:42:02.364Z</time></trkpt><trkpt lat="46.6194675" lon="10.6722699"><ele>868.4285714285714</ele><time>2026-03-24T10:42:03.373Z</time></trkpt><trkpt lat="46.6194595" lon="10.6723648"><ele>868.5714285714286</ele><time>2026-03-24T10:42:04.373Z</time></trkpt><trkpt lat="46.6194504" lon="10.6724601"><ele>868.7142857142857</ele><time>2026-03-24T10:42:05.371Z</time></trkpt><trkpt lat="46.6194396" lon="10.6725526"><ele>868.8571428571429</ele><time>2026-03-24T10:42:06.375Z</time></trkpt><trkpt lat="46.6194253" lon="10.6726467"><ele>869.0</ele><time>2026-03-24T10:42:07.372Z</time></trkpt><trkpt lat="46.6194146" lon="10.6727406"><ele>869.0</ele><time>2026-03-24T10:42:08.364Z</time></trkpt><trkpt lat="46.6194092" lon="10.672835"><ele>869.0</ele><time>2026-03-24T10:42:09.362Z</time></trkpt><trkpt lat="46.619406" lon="10.6729316"><ele>869.0</ele><time>2026-03-24T10:42:10.37Z</time></trkpt><trkpt lat="46.6194038" lon="10.673025"><ele>869.0</ele><time>2026-03-24T10:42:11.373Z</time></trkpt><trkpt lat="46.619386" lon="10.6731214"><ele>869.0</ele><time>2026-03-24T10:42:12.373Z</time></trkpt><trkpt lat="46.6193684" lon="10.6732103"><ele>869.0</ele><time>2026-03-24T10:42:13.372Z</time></trkpt><trkpt lat="46.6193566" lon="10.6733024"><ele>869.0</ele><time>2026-03-24T10:42:14.368Z</time></trkpt><trkpt lat="46.6193443" lon="10.6734774"><ele>869.0000000000001</ele><time>2026-03-24T10:42:16.374Z</time></trkpt><trkpt lat="46.619354" lon="10.6736692"><ele>869.0</ele><time>2026-03-24T10:42:18.369Z</time></trkpt><trkpt lat="46.6193424" lon="10.6737736"><ele>869.0</ele><time>2026-03-24T10:42:19.376Z</time></trkpt><trkpt lat="46.6193238" lon="10.6738692"><ele>869.0</ele><time>2026-03-24T10:42:20.364Z</time></trkpt><trkpt lat="46.6193086" lon="10.67396"><ele>869.0000000000001</ele><time>2026-03-24T10:42:21.377Z</time></trkpt><trkpt lat="46.6192936" lon="10.6740508"><ele>869.0</ele><time>2026-03-24T10:42:22.368Z</time></trkpt><trkpt lat="46.6192663" lon="10.6742284"><ele>869.0</ele><time>2026-03-24T10:42:24.377Z</time></trkpt><trkpt lat="46.6192547" lon="10.6743197"><ele>869.0</ele><time>2026-03-24T10:42:25.364Z</time></trkpt><trkpt lat="46.6192454" lon="10.6744116"><ele>869.0</ele><time>2026-03-24T10:42:26.361Z</time></trkpt><trkpt lat="46.6192365" lon="10.6745055"><ele>869.0</ele><time>2026-03-24T10:42:27.373Z</time></trkpt><trkpt lat="46.6192286" lon="10.6745998"><ele>869.0</ele><time>2026-03-24T10:42:28.377Z</time></trkpt><trkpt lat="46.6192201" lon="10.674691"><ele>869.0</ele><time>2026-03-24T10:42:29.371Z</time></trkpt><trkpt lat="46.6192017" lon="10.6748685"><ele>869.0</ele><time>2026-03-24T10:42:31.361Z</time></trkpt><trkpt lat="46.6191807" lon="10.6750458"><ele>869.0</ele><time>2026-03-24T10:42:33.366Z</time></trkpt><trkpt lat="46.6191713" lon="10.6751383"><ele>869.0</ele><time>2026-03-24T10:42:34.362Z</time></trkpt><trkpt lat="46.6191642" lon="10.6752335"><ele>869.0</ele><time>2026-03-24T10:42:35.362Z</time></trkpt><trkpt lat="46.6191582" lon="10.6753307"><ele>869.0</ele><time>2026-03-24T10:42:36.375Z</time></trkpt><trkpt lat="46.6191523" lon="10.6754251"><ele>869.0</ele><time>2026-03-24T10:42:37.384Z</time></trkpt><trkpt lat="46.6191415" lon="10.6755197"><ele>869.0</ele><time>2026-03-24T10:42:38.372Z</time></trkpt><trkpt lat="46.6191295" lon="10.6756142"><ele>869.0</ele><time>2026-03-24T10:42:39.368Z</time></trkpt><trkpt lat="46.6191197" lon="10.675707"><ele>869.0</ele><time>2026-03-24T10:42:40.373Z</time></trkpt><trkpt lat="46.6190972" lon="10.6758862"><ele>869.0</ele><time>2026-03-24T10:42:42.377Z</time></trkpt><trkpt lat="46.6190764" lon="10.676062"><ele>869.0</ele><time>2026-03-24T10:42:44.37Z</time></trkpt><trkpt lat="46.6190576" lon="10.6762362"><ele>869.0</ele><time>2026-03-24T10:42:46.37Z</time></trkpt><trkpt lat="46.6190407" lon="10.6764161"><ele>869.1428571428572</ele><time>2026-03-24T10:42:48.362Z</time></trkpt><trkpt lat="46.6190324" lon="10.6765092"><ele>869.2857142857142</ele><time>2026-03-24T10:42:49.368Z</time></trkpt><trkpt lat="46.6190247" lon="10.6766057"><ele>869.4285714285714</ele><time>2026-03-24T10:42:50.365Z</time></trkpt><trkpt lat="46.6190142" lon="10.6767038"><ele>869.5714285714287</ele><time>2026-03-24T10:42:51.368Z</time></trkpt><trkpt lat="46.6190016" lon="10.6767993"><ele>869.7142857142858</ele><time>2026-03-24T10:42:52.367Z</time></trkpt><trkpt lat="46.6189897" lon="10.676893"><ele>869.8571428571429</ele><time>2026-03-24T10:42:53.374Z</time></trkpt><trkpt lat="46.6189778" lon="10.676985"><ele>870.0</ele><time>2026-03-24T10:42:54.367Z</time></trkpt><trkpt lat="46.6189661" lon="10.677077"><ele>870.0000000000001</ele><time>2026-03-24T10:42:55.365Z</time></trkpt><trkpt lat="46.6189565" lon="10.6771712"><ele>870.0</ele><time>2026-03-24T10:42:56.374Z</time></trkpt><trkpt lat="46.6189461" lon="10.6772672"><ele>870.0</ele><time>2026-03-24T10:42:57.366Z</time></trkpt><trkpt lat="46.6189366" lon="10.6773657"><ele>870.0</ele><time>2026-03-24T10:42:58.37Z</time></trkpt><trkpt lat="46.6189259" lon="10.6774668"><ele>870.0</ele><time>2026-03-24T10:42:59.364Z</time></trkpt><trkpt lat="46.6189164" lon="10.6775699"><ele>870.0000000000001</ele><time>2026-03-24T10:43:00.368Z</time></trkpt><trkpt lat="46.6189082" lon="10.677674"><ele>870.0</ele><time>2026-03-24T10:43:01.372Z</time></trkpt><trkpt lat="46.6188993" lon="10.6777772"><ele>869.7142857142858</ele><time>2026-03-24T10:43:02.362Z</time></trkpt><trkpt lat="46.6188886" lon="10.6778786"><ele>869.4285714285714</ele><time>2026-03-24T10:43:03.367Z</time></trkpt><trkpt lat="46.6188765" lon="10.6779773"><ele>869.1428571428571</ele><time>2026-03-24T10:43:04.371Z</time></trkpt><trkpt lat="46.6188656" lon="10.6780734"><ele>868.8571428571429</ele><time>2026-03-24T10:43:05.375Z</time></trkpt><trkpt lat="46.6188566" lon="10.6781679"><ele>868.5714285714286</ele><time>2026-03-24T10:43:06.371Z</time></trkpt><trkpt lat="46.6188484" lon="10.6782627"><ele>868.2857142857143</ele><time>2026-03-24T10:43:07.369Z</time></trkpt><trkpt lat="46.6188397" lon="10.678359"><ele>868.0</ele><time>2026-03-24T10:43:08.373Z</time></trkpt><trkpt lat="46.6188283" lon="10.6784568"><ele>868.0</ele><time>2026-03-24T10:43:09.373Z</time></trkpt><trkpt lat="46.618816" lon="10.6785566"><ele>868.0</ele><time>2026-03-24T10:43:10.368Z</time></trkpt><trkpt lat="46.6188034" lon="10.6786582"><ele>868.0</ele><time>2026-03-24T10:43:11.354Z</time></trkpt><trkpt lat="46.6187924" lon="10.6787594"><ele>868.0</ele><time>2026-03-24T10:43:12.367Z</time></trkpt><trkpt lat="46.6187826" lon="10.6788596"><ele>868.0</ele><time>2026-03-24T10:43:13.375Z</time></trkpt><trkpt lat="46.618772" lon="10.6789574"><ele>868.0</ele><time>2026-03-24T10:43:14.384Z</time></trkpt><trkpt lat="46.6187633" lon="10.6790539"><ele>868.0</ele><time>2026-03-24T10:43:15.367Z</time></trkpt><trkpt lat="46.6187528" lon="10.67915"><ele>867.7142857142857</ele><time>2026-03-24T10:43:16.375Z</time></trkpt><trkpt lat="46.6187403" lon="10.6792469"><ele>867.4285714285714</ele><time>2026-03-24T10:43:17.38Z</time></trkpt><trkpt lat="46.6187268" lon="10.6793453"><ele>867.1428571428571</ele><time>2026-03-24T10:43:18.377Z</time></trkpt><trkpt lat="46.618715" lon="10.6794446"><ele>866.8571428571429</ele><time>2026-03-24T10:43:19.369Z</time></trkpt><trkpt lat="46.6187032" lon="10.6795435"><ele>866.5714285714286</ele><time>2026-03-24T10:43:20.363Z</time></trkpt><trkpt lat="46.6186911" lon="10.6796408"><ele>866.2857142857142</ele><time>2026-03-24T10:43:21.373Z</time></trkpt><trkpt lat="46.618681" lon="10.6797361"><ele>866.0</ele><time>2026-03-24T10:43:22.373Z</time></trkpt><trkpt lat="46.6186713" lon="10.6798298"><ele>866.0000000000001</ele><time>2026-03-24T10:43:23.363Z</time></trkpt><trkpt lat="46.6186605" lon="10.6799218"><ele>866.0</ele><time>2026-03-24T10:43:24.364Z</time></trkpt><trkpt lat="46.61865" lon="10.6800123"><ele>866.0</ele><time>2026-03-24T10:43:25.37Z</time></trkpt><trkpt lat="46.6186318" lon="10.680191"><ele>866.0</ele><time>2026-03-24T10:43:27.362Z</time></trkpt><trkpt lat="46.6186092" lon="10.6803701"><ele>866.0000000000001</ele><time>2026-03-24T10:43:29.37Z</time></trkpt><trkpt lat="46.6185981" lon="10.6804622"><ele>866.0</ele><time>2026-03-24T10:43:30.377Z</time></trkpt><trkpt lat="46.6185889" lon="10.6805557"><ele>866.2857142857142</ele><time>2026-03-24T10:43:31.364Z</time></trkpt><trkpt lat="46.6185795" lon="10.680651"><ele>866.5714285714286</ele><time>2026-03-24T10:43:32.367Z</time></trkpt><trkpt lat="46.6185707" lon="10.6807481"><ele>866.8571428571429</ele><time>2026-03-24T10:43:33.369Z</time></trkpt><trkpt lat="46.6185617" lon="10.680846"><ele>867.1428571428571</ele><time>2026-03-24T10:43:34.364Z</time></trkpt><trkpt lat="46.6185526" lon="10.6809449"><ele>867.4285714285714</ele><time>2026-03-24T10:43:35.367Z</time></trkpt><trkpt lat="46.6185428" lon="10.6810439"><ele>867.7142857142857</ele><time>2026-03-24T10:43:36.373Z</time></trkpt><trkpt lat="46.6185331" lon="10.6811381"><ele>868.0</ele><time>2026-03-24T10:43:37.367Z</time></trkpt><trkpt lat="46.6185234" lon="10.6812324"><ele>868.0</ele><time>2026-03-24T10:43:38.375Z</time></trkpt><trkpt lat="46.6185121" lon="10.6813277"><ele>868.0</ele><time>2026-03-24T10:43:39.362Z</time></trkpt><trkpt lat="46.6185013" lon="10.6814242"><ele>868.0</ele><time>2026-03-24T10:43:40.382Z</time></trkpt><trkpt lat="46.6184902" lon="10.6815228"><ele>868.0</ele><time>2026-03-24T10:43:41.366Z</time></trkpt><trkpt lat="46.6184784" lon="10.6816207"><ele>868.0</ele><time>2026-03-24T10:43:42.368Z</time></trkpt><trkpt lat="46.6184678" lon="10.6817186"><ele>868.0</ele><time>2026-03-24T10:43:43.368Z</time></trkpt><trkpt lat="46.6184569" lon="10.6818154"><ele>868.0</ele><time>2026-03-24T10:43:44.372Z</time></trkpt><trkpt lat="46.6184463" lon="10.6819102"><ele>867.8571428571429</ele><time>2026-03-24T10:43:45.371Z</time></trkpt><trkpt lat="46.6184373" lon="10.6820052"><ele>867.7142857142858</ele><time>2026-03-24T10:43:46.365Z</time></trkpt><trkpt lat="46.6184275" lon="10.6821003"><ele>867.5714285714286</ele><time>2026-03-24T10:43:47.372Z</time></trkpt><trkpt lat="46.6184168" lon="10.6821956"><ele>867.4285714285714</ele><time>2026-03-24T10:43:48.363Z</time></trkpt><trkpt lat="46.6184045" lon="10.6822899"><ele>867.2857142857143</ele><time>2026-03-24T10:43:49.364Z</time></trkpt><trkpt lat="46.6183939" lon="10.6823844"><ele>867.1428571428571</ele><time>2026-03-24T10:43:50.36Z</time></trkpt><trkpt lat="46.6183833" lon="10.6824788"><ele>867.0</ele><time>2026-03-24T10:43:51.361Z</time></trkpt><trkpt lat="46.6183729" lon="10.6825739"><ele>867.0</ele><time>2026-03-24T10:43:52.37Z</time></trkpt><trkpt lat="46.6183618" lon="10.6826702"><ele>867.0</ele><time>2026-03-24T10:43:53.368Z</time></trkpt><trkpt lat="46.6183508" lon="10.6827662"><ele>867.0</ele><time>2026-03-24T10:43:54.371Z</time></trkpt><trkpt lat="46.6183403" lon="10.6828613"><ele>867.0</ele><time>2026-03-24T10:43:55.36Z</time></trkpt><trkpt lat="46.6183296" lon="10.6829559"><ele>867.0</ele><time>2026-03-24T10:43:56.366Z</time></trkpt><trkpt lat="46.6183193" lon="10.683049"><ele>867.0</ele><time>2026-03-24T10:43:57.368Z</time></trkpt><trkpt lat="46.6183091" lon="10.6831422"><ele>867.0</ele><time>2026-03-24T10:43:58.374Z</time></trkpt><trkpt lat="46.6182962" lon="10.6832327"><ele>866.8571428571428</ele><time>2026-03-24T10:43:59.373Z</time></trkpt><trkpt lat="46.6182846" lon="10.6833241"><ele>866.7142857142858</ele><time>2026-03-24T10:44:00.366Z</time></trkpt><trkpt lat="46.6182663" lon="10.6835042"><ele>866.5714285714286</ele><time>2026-03-24T10:44:02.37Z</time></trkpt><trkpt lat="46.6182579" lon="10.6835954"><ele>866.4285714285713</ele><time>2026-03-24T10:44:03.368Z</time></trkpt><trkpt lat="46.6182504" lon="10.6836877"><ele>866.2857142857142</ele><time>2026-03-24T10:44:04.365Z</time></trkpt><trkpt lat="46.6182423" lon="10.6837814"><ele>866.1428571428571</ele><time>2026-03-24T10:44:05.367Z</time></trkpt><trkpt lat="46.6182332" lon="10.6838754"><ele>866.0</ele><time>2026-03-24T10:44:06.37Z</time></trkpt><trkpt lat="46.6182253" lon="10.6839705"><ele>865.9999999999999</ele><time>2026-03-24T10:44:07.368Z</time></trkpt><trkpt lat="46.6182173" lon="10.6840674"><ele>866.0</ele><time>2026-03-24T10:44:08.37Z</time></trkpt><trkpt lat="46.6182088" lon="10.6841626"><ele>866.0</ele><time>2026-03-24T10:44:09.368Z</time></trkpt><trkpt lat="46.6182014" lon="10.6842567"><ele>866.0</ele><time>2026-03-24T10:44:10.364Z</time></trkpt><trkpt lat="46.6181936" lon="10.6843497"><ele>866.0</ele><time>2026-03-24T10:44:11.374Z</time></trkpt><trkpt lat="46.6181844" lon="10.6844423"><ele>865.9999999999999</ele><time>2026-03-24T10:44:12.363Z</time></trkpt><trkpt lat="46.6181751" lon="10.6845346"><ele>866.0</ele><time>2026-03-24T10:44:13.368Z</time></trkpt><trkpt lat="46.6181648" lon="10.6846276"><ele>865.9999999999999</ele><time>2026-03-24T10:44:14.372Z</time></trkpt><trkpt lat="46.618155" lon="10.6847209"><ele>866.0</ele><time>2026-03-24T10:44:15.371Z</time></trkpt><trkpt lat="46.6181446" lon="10.6848147"><ele>866.0</ele><time>2026-03-24T10:44:16.372Z</time></trkpt><trkpt lat="46.6181346" lon="10.6849081"><ele>866.0</ele><time>2026-03-24T10:44:17.376Z</time></trkpt><trkpt lat="46.6181242" lon="10.6850003"><ele>866.0</ele><time>2026-03-24T10:44:18.375Z</time></trkpt><trkpt lat="46.6181148" lon="10.6850921"><ele>865.9999999999999</ele><time>2026-03-24T10:44:19.363Z</time></trkpt><trkpt lat="46.6181082" lon="10.6851834"><ele>866.0</ele><time>2026-03-24T10:44:20.372Z</time></trkpt><trkpt lat="46.6180915" lon="10.6853637"><ele>865.9999999999999</ele><time>2026-03-24T10:44:22.366Z</time></trkpt><trkpt lat="46.6180815" lon="10.685455"><ele>866.0</ele><time>2026-03-24T10:44:23.37Z</time></trkpt><trkpt lat="46.6180696" lon="10.6855483"><ele>866.0</ele><time>2026-03-24T10:44:24.377Z</time></trkpt><trkpt lat="46.6180567" lon="10.685644"><ele>866.0</ele><time>2026-03-24T10:44:25.372Z</time></trkpt><trkpt lat="46.6180454" lon="10.6857422"><ele>866.0</ele><time>2026-03-24T10:44:26.37Z</time></trkpt><trkpt lat="46.6180351" lon="10.6858417"><ele>865.9999999999999</ele><time>2026-03-24T10:44:27.379Z</time></trkpt><trkpt lat="46.6180251" lon="10.6859412"><ele>866.0</ele><time>2026-03-24T10:44:28.374Z</time></trkpt><trkpt lat="46.6180149" lon="10.6860393"><ele>865.7142857142857</ele><time>2026-03-24T10:44:29.369Z</time></trkpt><trkpt lat="46.6180044" lon="10.6861375"><ele>865.4285714285714</ele><time>2026-03-24T10:44:30.383Z</time></trkpt><trkpt lat="46.6179936" lon="10.6862356"><ele>865.1428571428571</ele><time>2026-03-24T10:44:31.367Z</time></trkpt><trkpt lat="46.6179847" lon="10.6863329"><ele>864.8571428571429</ele><time>2026-03-24T10:44:32.363Z</time></trkpt><trkpt lat="46.6179751" lon="10.6864289"><ele>864.5714285714286</ele><time>2026-03-24T10:44:33.365Z</time></trkpt><trkpt lat="46.6179662" lon="10.6865245"><ele>864.2857142857142</ele><time>2026-03-24T10:44:34.369Z</time></trkpt><trkpt lat="46.6179567" lon="10.686619"><ele>864.0</ele><time>2026-03-24T10:44:35.373Z</time></trkpt><trkpt lat="46.6179475" lon="10.686711"><ele>864.0</ele><time>2026-03-24T10:44:36.373Z</time></trkpt><trkpt lat="46.6179286" lon="10.6868847"><ele>864.0</ele><time>2026-03-24T10:44:38.363Z</time></trkpt><trkpt lat="46.617909" lon="10.6870603"><ele>864.0</ele><time>2026-03-24T10:44:40.365Z</time></trkpt><trkpt lat="46.6178995" lon="10.687152"><ele>864.0</ele><time>2026-03-24T10:44:41.368Z</time></trkpt><trkpt lat="46.6178899" lon="10.6872448"><ele>864.0</ele><time>2026-03-24T10:44:42.364Z</time></trkpt><trkpt lat="46.6178804" lon="10.6873378"><ele>864.0</ele><time>2026-03-24T10:44:43.357Z</time></trkpt><trkpt lat="46.6178702" lon="10.6874302"><ele>864.0</ele><time>2026-03-24T10:44:44.37Z</time></trkpt><trkpt lat="46.6178616" lon="10.6875226"><ele>864.0</ele><time>2026-03-24T10:44:45.363Z</time></trkpt><trkpt lat="46.6178528" lon="10.6876142"><ele>864.0</ele><time>2026-03-24T10:44:46.382Z</time></trkpt><trkpt lat="46.6178316" lon="10.6877931"><ele>864.0</ele><time>2026-03-24T10:44:48.372Z</time></trkpt><trkpt lat="46.6178113" lon="10.6879728"><ele>864.0</ele><time>2026-03-24T10:44:50.366Z</time></trkpt><trkpt lat="46.6178022" lon="10.6880639"><ele>864.0</ele><time>2026-03-24T10:44:51.373Z</time></trkpt><trkpt lat="46.6177926" lon="10.6881549"><ele>864.1666666666666</ele><time>2026-03-24T10:44:52.36Z</time></trkpt><trkpt lat="46.617771" lon="10.6883323"><ele>864.3333333333333</ele><time>2026-03-24T10:44:54.363Z</time></trkpt><trkpt lat="46.6177475" lon="10.6885101"><ele>864.5</ele><time>2026-03-24T10:44:56.361Z</time></trkpt><trkpt lat="46.6177365" lon="10.6886021"><ele>864.6666666666666</ele><time>2026-03-24T10:44:57.364Z</time></trkpt><trkpt lat="46.6177247" lon="10.688697"><ele>864.8333333333333</ele><time>2026-03-24T10:44:58.366Z</time></trkpt><trkpt lat="46.6177133" lon="10.6887935"><ele>865.0</ele><time>2026-03-24T10:44:59.367Z</time></trkpt><trkpt lat="46.6177021" lon="10.6888903"><ele>865.2857142857143</ele><time>2026-03-24T10:45:00.378Z</time></trkpt><trkpt lat="46.6176915" lon="10.6889873"><ele>865.5714285714287</ele><time>2026-03-24T10:45:01.373Z</time></trkpt><trkpt lat="46.6176815" lon="10.6890816"><ele>865.8571428571429</ele><time>2026-03-24T10:45:02.368Z</time></trkpt><trkpt lat="46.6176707" lon="10.6891751"><ele>866.1428571428571</ele><time>2026-03-24T10:45:03.365Z</time></trkpt><trkpt lat="46.6176606" lon="10.6892671"><ele>866.4285714285714</ele><time>2026-03-24T10:45:04.365Z</time></trkpt><trkpt lat="46.6176512" lon="10.6893586"><ele>866.7142857142857</ele><time>2026-03-24T10:45:05.366Z</time></trkpt><trkpt lat="46.6176421" lon="10.6894515"><ele>867.0</ele><time>2026-03-24T10:45:06.365Z</time></trkpt><trkpt lat="46.6176322" lon="10.6895453"><ele>867.1428571428571</ele><time>2026-03-24T10:45:07.362Z</time></trkpt><trkpt lat="46.6176238" lon="10.6896396"><ele>867.2857142857143</ele><time>2026-03-24T10:45:08.374Z</time></trkpt><trkpt lat="46.6176157" lon="10.6897334"><ele>867.4285714285714</ele><time>2026-03-24T10:45:09.371Z</time></trkpt><trkpt lat="46.6176063" lon="10.6898263"><ele>867.5714285714286</ele><time>2026-03-24T10:45:10.368Z</time></trkpt><trkpt lat="46.6175968" lon="10.6899188"><ele>867.7142857142858</ele><time>2026-03-24T10:45:11.367Z</time></trkpt><trkpt lat="46.6175881" lon="10.690012"><ele>867.8571428571429</ele><time>2026-03-24T10:45:12.362Z</time></trkpt><trkpt lat="46.6175798" lon="10.6901043"><ele>868.0</ele><time>2026-03-24T10:45:13.373Z</time></trkpt><trkpt lat="46.6175727" lon="10.690197"><ele>867.4999999999999</ele><time>2026-03-24T10:45:14.379Z</time></trkpt><trkpt lat="46.6175667" lon="10.6902922"><ele>867.0</ele><time>2026-03-24T10:45:15.365Z</time></trkpt><trkpt lat="46.6175617" lon="10.6903867"><ele>866.5</ele><time>2026-03-24T10:45:16.372Z</time></trkpt><trkpt lat="46.6175568" lon="10.6904793"><ele>866.0</ele><time>2026-03-24T10:45:17.359Z</time></trkpt><trkpt lat="46.617543" lon="10.6906547"><ele>865.4999999999999</ele><time>2026-03-24T10:45:19.365Z</time></trkpt><trkpt lat="46.6175239" lon="10.6908156"><ele>865.0</ele><time>2026-03-24T10:45:21.369Z</time></trkpt><trkpt lat="46.6174948" lon="10.69097"><ele>864.8333333333333</ele><time>2026-03-24T10:45:23.364Z</time></trkpt><trkpt lat="46.6174651" lon="10.6911154"><ele>864.6666666666666</ele><time>2026-03-24T10:45:25.378Z</time></trkpt><trkpt lat="46.6174401" lon="10.6912221"><ele>864.5</ele><time>2026-03-24T10:45:27.37Z</time></trkpt><trkpt lat="46.6174738" lon="10.6913062"><ele>864.3333333333333</ele><time>2026-03-24T10:45:31.369Z</time></trkpt><trkpt lat="46.6175551" lon="10.6912949"><ele>864.1666666666666</ele><time>2026-03-24T10:45:36.36Z</time></trkpt><trkpt lat="46.617629" lon="10.6913077"><ele>864.0</ele><time>2026-03-24T10:45:39.364Z</time></trkpt><trkpt lat="46.6177227" lon="10.6913174"><ele>864.0</ele><time>2026-03-24T10:45:42.369Z</time></trkpt><trkpt lat="46.6178005" lon="10.6913518"><ele>864.0</ele><time>2026-03-24T10:45:45.363Z</time></trkpt><trkpt lat="46.6177365" lon="10.691315"><ele>864.0</ele><time>2026-03-24T10:45:56.372Z</time></trkpt><trkpt lat="46.6176689" lon="10.6913167"><ele>864.0</ele><time>2026-03-24T10:45:59.359Z</time></trkpt><trkpt lat="46.6175827" lon="10.691307"><ele>864.0</ele><time>2026-03-24T10:46:02.364Z</time></trkpt><trkpt lat="46.6175192" lon="10.691301"><ele>864.0</ele><time>2026-03-24T10:46:04.368Z</time></trkpt><trkpt lat="46.6174486" lon="10.6913281"><ele>864.0</ele><time>2026-03-24T10:46:06.363Z</time></trkpt><trkpt lat="46.6173985" lon="10.6914303"><ele>864.0</ele><time>2026-03-24T10:46:08.372Z</time></trkpt><trkpt lat="46.617374" lon="10.6915738"><ele>864.0000000000001</ele><time>2026-03-24T10:46:10.366Z</time></trkpt><trkpt lat="46.6173636" lon="10.6917374"><ele>864.0000000000001</ele><time>2026-03-24T10:46:12.371Z</time></trkpt><trkpt lat="46.6173534" lon="10.691915"><ele>864.0</ele><time>2026-03-24T10:46:14.373Z</time></trkpt><trkpt lat="46.6173465" lon="10.6920067"><ele>864.0</ele><time>2026-03-24T10:46:15.369Z</time></trkpt><trkpt lat="46.6173405" lon="10.6921014"><ele>864.0</ele><time>2026-03-24T10:46:16.375Z</time></trkpt><trkpt lat="46.6173332" lon="10.6921958"><ele>864.0</ele><time>2026-03-24T10:46:17.372Z</time></trkpt><trkpt lat="46.6173229" lon="10.6922906"><ele>864.0</ele><time>2026-03-24T10:46:18.364Z</time></trkpt><trkpt lat="46.6173089" lon="10.6923843"><ele>864.0</ele><time>2026-03-24T10:46:19.365Z</time></trkpt><trkpt lat="46.6172908" lon="10.6924754"><ele>864.0</ele><time>2026-03-24T10:46:20.366Z</time></trkpt><trkpt lat="46.6172601" lon="10.6925577"><ele>864.0</ele><time>2026-03-24T10:46:21.365Z</time></trkpt><trkpt lat="46.6172136" lon="10.6926197"><ele>864.0</ele><time>2026-03-24T10:46:22.359Z</time></trkpt><trkpt lat="46.6170939" lon="10.6926588"><ele>864.0</ele><time>2026-03-24T10:46:24.369Z</time></trkpt><trkpt lat="46.6169688" lon="10.6926572"><ele>864.0</ele><time>2026-03-24T10:46:26.377Z</time></trkpt><trkpt lat="46.6169054" lon="10.6926697"><ele>864.0</ele><time>2026-03-24T10:46:27.369Z</time></trkpt><trkpt lat="46.6168448" lon="10.6927003"><ele>864.0</ele><time>2026-03-24T10:46:28.363Z</time></trkpt><trkpt lat="46.6167909" lon="10.6927518"><ele>864.0</ele><time>2026-03-24T10:46:29.366Z</time></trkpt><trkpt lat="46.6167481" lon="10.6928221"><ele>864.0</ele><time>2026-03-24T10:46:30.37Z</time></trkpt><trkpt lat="46.6167122" lon="10.6928994"><ele>864.0</ele><time>2026-03-24T10:46:31.364Z</time></trkpt><trkpt lat="46.6166734" lon="10.6929732"><ele>864.2857142857142</ele><time>2026-03-24T10:46:32.366Z</time></trkpt><trkpt lat="46.616612" lon="10.6931292"><ele>864.5714285714286</ele><time>2026-03-24T10:46:34.364Z</time></trkpt><trkpt lat="46.6166005" lon="10.6932197"><ele>864.8571428571429</ele><time>2026-03-24T10:46:35.363Z</time></trkpt><trkpt lat="46.6165976" lon="10.6933137"><ele>865.1428571428571</ele><time>2026-03-24T10:46:36.373Z</time></trkpt><trkpt lat="46.6165974" lon="10.6934088"><ele>865.4285714285714</ele><time>2026-03-24T10:46:37.371Z</time></trkpt><trkpt lat="46.6165922" lon="10.6935035"><ele>865.7142857142857</ele><time>2026-03-24T10:46:38.372Z</time></trkpt><trkpt lat="46.6165741" lon="10.6935942"><ele>866.0</ele><time>2026-03-24T10:46:39.372Z</time></trkpt><trkpt lat="46.6165431" lon="10.6936773"><ele>866.0000000000001</ele><time>2026-03-24T10:46:40.377Z</time></trkpt><trkpt lat="46.6164963" lon="10.6937441"><ele>866.0</ele><time>2026-03-24T10:46:41.364Z</time></trkpt><trkpt lat="46.6164452" lon="10.693803"><ele>866.0</ele><time>2026-03-24T10:46:42.376Z</time></trkpt><trkpt lat="46.6163635" lon="10.693922"><ele>866.0</ele><time>2026-03-24T10:46:44.372Z</time></trkpt><trkpt lat="46.6162976" lon="10.6940232"><ele>866.0000000000001</ele><time>2026-03-24T10:46:46.379Z</time></trkpt><trkpt lat="46.6162208" lon="10.6941269"><ele>866.0</ele><time>2026-03-24T10:46:48.358Z</time></trkpt><trkpt lat="46.6161307" lon="10.6942467"><ele>866.25</ele><time>2026-03-24T10:46:50.366Z</time></trkpt><trkpt lat="46.6160389" lon="10.6943651"><ele>866.5</ele><time>2026-03-24T10:46:52.369Z</time></trkpt><trkpt lat="46.6159518" lon="10.6944915"><ele>866.75</ele><time>2026-03-24T10:46:54.371Z</time></trkpt><trkpt lat="46.6158726" lon="10.694628"><ele>867.0</ele><time>2026-03-24T10:46:56.371Z</time></trkpt><trkpt lat="46.6158015" lon="10.6947642"><ele>867.25</ele><time>2026-03-24T10:46:58.361Z</time></trkpt><trkpt lat="46.6157322" lon="10.6949012"><ele>867.5</ele><time>2026-03-24T10:47:00.362Z</time></trkpt><trkpt lat="46.6156685" lon="10.6950407"><ele>867.75</ele><time>2026-03-24T10:47:02.375Z</time></trkpt><trkpt lat="46.6156047" lon="10.695181"><ele>868.0</ele><time>2026-03-24T10:47:04.376Z</time></trkpt><trkpt lat="46.6155435" lon="10.6953196"><ele>867.5999999999999</ele><time>2026-03-24T10:47:06.362Z</time></trkpt><trkpt lat="46.6154937" lon="10.6954555"><ele>867.1999999999999</ele><time>2026-03-24T10:47:08.377Z</time></trkpt><trkpt lat="46.6154626" lon="10.695595"><ele>866.8</ele><time>2026-03-24T10:47:10.373Z</time></trkpt><trkpt lat="46.6154368" lon="10.6957272"><ele>866.4</ele><time>2026-03-24T10:47:12.373Z</time></trkpt><trkpt lat="46.6154216" lon="10.6958549"><ele>866.0</ele><time>2026-03-24T10:47:14.356Z</time></trkpt><trkpt lat="46.6154145" lon="10.6959696"><ele>866.0</ele><time>2026-03-24T10:47:16.372Z</time></trkpt><trkpt lat="46.6154054" lon="10.6960799"><ele>865.9999999999999</ele><time>2026-03-24T10:47:18.366Z</time></trkpt><trkpt lat="46.6154083" lon="10.6961936"><ele>865.9999999999999</ele><time>2026-03-24T10:47:20.371Z</time></trkpt><trkpt lat="46.6154201" lon="10.6963227"><ele>866.0</ele><time>2026-03-24T10:47:22.365Z</time></trkpt><trkpt lat="46.6154357" lon="10.6964667"><ele>866.0</ele><time>2026-03-24T10:47:24.386Z</time></trkpt><trkpt lat="46.6154529" lon="10.6966207"><ele>866.5</ele><time>2026-03-24T10:47:26.363Z</time></trkpt><trkpt lat="46.6154752" lon="10.6967819"><ele>867.0</ele><time>2026-03-24T10:47:28.36Z</time></trkpt><trkpt lat="46.6154947" lon="10.6969471"><ele>867.5</ele><time>2026-03-24T10:47:30.372Z</time></trkpt><trkpt lat="46.6155174" lon="10.6971171"><ele>868.0</ele><time>2026-03-24T10:47:32.369Z</time></trkpt><trkpt lat="46.6155319" lon="10.6972927"><ele>868.2</ele><time>2026-03-24T10:47:34.373Z</time></trkpt><trkpt lat="46.6155383" lon="10.6974723"><ele>868.4</ele><time>2026-03-24T10:47:36.374Z</time></trkpt><trkpt lat="46.6155425" lon="10.6976501"><ele>868.6000000000001</ele><time>2026-03-24T10:47:38.364Z</time></trkpt><trkpt lat="46.6155386" lon="10.6977437"><ele>868.8000000000001</ele><time>2026-03-24T10:47:39.366Z</time></trkpt><trkpt lat="46.6155164" lon="10.6979176"><ele>869.0</ele><time>2026-03-24T10:47:41.385Z</time></trkpt><trkpt lat="46.6154973" lon="10.6980821"><ele>869.0000000000001</ele><time>2026-03-24T10:47:43.384Z</time></trkpt><trkpt lat="46.6154884" lon="10.6982265"><ele>869.0</ele><time>2026-03-24T10:47:45.366Z</time></trkpt><trkpt lat="46.6154725" lon="10.6983592"><ele>869.0</ele><time>2026-03-24T10:47:47.37Z</time></trkpt><trkpt lat="46.6154588" lon="10.6984823"><ele>869.0</ele><time>2026-03-24T10:47:49.374Z</time></trkpt><trkpt lat="46.6154509" lon="10.6986029"><ele>869.0000000000001</ele><time>2026-03-24T10:47:52.389Z</time></trkpt><trkpt lat="46.6154925" lon="10.698681"><ele>869.0</ele><time>2026-03-24T10:48:05.367Z</time></trkpt><trkpt lat="46.6155714" lon="10.6986925"><ele>868.8571428571429</ele><time>2026-03-24T10:48:08.358Z</time></trkpt><trkpt lat="46.6156399" lon="10.6987036"><ele>868.7142857142857</ele><time>2026-03-24T10:48:10.369Z</time></trkpt><trkpt lat="46.6157242" lon="10.6987411"><ele>868.5714285714286</ele><time>2026-03-24T10:48:13.35Z</time></trkpt><trkpt lat="46.6157785" lon="10.6988003"><ele>868.4285714285714</ele><time>2026-03-24T10:48:17.365Z</time></trkpt><trkpt lat="46.615707" lon="10.6987923"><ele>868.2857142857142</ele><time>2026-03-24T10:48:53.365Z</time></trkpt><trkpt lat="46.6156415" lon="10.6987796"><ele>868.1428571428571</ele><time>2026-03-24T10:48:56.365Z</time></trkpt><trkpt lat="46.6155678" lon="10.6987814"><ele>868.0</ele><time>2026-03-24T10:48:59.363Z</time></trkpt><trkpt lat="46.6155022" lon="10.6987835"><ele>868.0</ele><time>2026-03-24T10:49:02.373Z</time></trkpt><trkpt lat="46.6154639" lon="10.6988813"><ele>868.0</ele><time>2026-03-24T10:49:05.372Z</time></trkpt><trkpt lat="46.6154547" lon="10.6989742"><ele>868.0</ele><time>2026-03-24T10:49:07.369Z</time></trkpt><trkpt lat="46.6154525" lon="10.6990744"><ele>868.0</ele><time>2026-03-24T10:49:09.374Z</time></trkpt><trkpt lat="46.6154457" lon="10.6991812"><ele>868.0</ele><time>2026-03-24T10:49:11.374Z</time></trkpt><trkpt lat="46.6154436" lon="10.6992841"><ele>868.0</ele><time>2026-03-24T10:49:13.367Z</time></trkpt><trkpt lat="46.6154519" lon="10.6993789"><ele>868.0</ele><time>2026-03-24T10:49:15.377Z</time></trkpt><trkpt lat="46.6154581" lon="10.699505"><ele>868.0</ele><time>2026-03-24T10:49:18.365Z</time></trkpt><trkpt lat="46.6154559" lon="10.6996167"><ele>868.0</ele><time>2026-03-24T10:49:21.362Z</time></trkpt><trkpt lat="46.6154636" lon="10.6997201"><ele>868.0</ele><time>2026-03-24T10:49:24.36Z</time></trkpt><trkpt lat="46.6154719" lon="10.6998354"><ele>868.0</ele><time>2026-03-24T10:49:28.364Z</time></trkpt><trkpt lat="46.6155061" lon="10.6999152"><ele>868.0</ele><time>2026-03-24T10:49:40.36Z</time></trkpt><trkpt lat="46.6155186" lon="10.7000229"><ele>868.0</ele><time>2026-03-24T10:49:57.379Z</time></trkpt><trkpt lat="46.6155364" lon="10.7001266"><ele>868.0</ele><time>2026-03-24T10:50:02.364Z</time></trkpt><trkpt lat="46.6155292" lon="10.700223"><ele>868.1428571428571</ele><time>2026-03-24T10:50:07.297Z</time></trkpt><trkpt lat="46.6155188" lon="10.7003134"><ele>868.2857142857142</ele><time>2026-03-24T10:50:12.371Z</time></trkpt><trkpt lat="46.6154634" lon="10.700372"><ele>868.4285714285714</ele><time>2026-03-24T10:50:17.368Z</time></trkpt><trkpt lat="46.6154277" lon="10.7004724"><ele>868.5714285714286</ele><time>2026-03-24T10:50:27.374Z</time></trkpt><trkpt lat="46.61541" lon="10.7005643"><ele>868.7142857142857</ele><time>2026-03-24T10:50:29.356Z</time></trkpt><trkpt lat="46.615341" lon="10.7006439"><ele>868.8571428571429</ele><time>2026-03-24T10:50:31.363Z</time></trkpt><trkpt lat="46.6152992" lon="10.7007246"><ele>869.0</ele><time>2026-03-24T10:50:33.376Z</time></trkpt><trkpt lat="46.6152611" lon="10.7008101"><ele>869.1666666666667</ele><time>2026-03-24T10:50:35.356Z</time></trkpt><trkpt lat="46.6152221" lon="10.7008992"><ele>869.3333333333334</ele><time>2026-03-24T10:50:37.378Z</time></trkpt><trkpt lat="46.6151846" lon="10.700983"><ele>869.5</ele><time>2026-03-24T10:50:39.365Z</time></trkpt><trkpt lat="46.6151422" lon="10.7010807"><ele>869.6666666666667</ele><time>2026-03-24T10:50:41.363Z</time></trkpt><trkpt lat="46.6150981" lon="10.7011853"><ele>869.8333333333334</ele><time>2026-03-24T10:50:43.363Z</time></trkpt><trkpt lat="46.6150589" lon="10.7012914"><ele>870.0</ele><time>2026-03-24T10:50:45.363Z</time></trkpt><trkpt lat="46.6150272" lon="10.7013971"><ele>870.0</ele><time>2026-03-24T10:50:47.358Z</time></trkpt><trkpt lat="46.6149975" lon="10.701504"><ele>870.0</ele><time>2026-03-24T10:50:49.372Z</time></trkpt><trkpt lat="46.6149701" lon="10.7015969"><ele>870.0</ele><time>2026-03-24T10:50:51.372Z</time></trkpt><trkpt lat="46.614945" lon="10.701714"><ele>870.0</ele><time>2026-03-24T10:50:53.37Z</time></trkpt><trkpt lat="46.6149255" lon="10.7018282"><ele>870.0</ele><time>2026-03-24T10:50:55.366Z</time></trkpt><trkpt lat="46.6148979" lon="10.7019289"><ele>870.0</ele><time>2026-03-24T10:50:57.363Z</time></trkpt><trkpt lat="46.6148699" lon="10.7020325"><ele>869.8333333333334</ele><time>2026-03-24T10:50:59.359Z</time></trkpt><trkpt lat="46.6148371" lon="10.7021368"><ele>869.6666666666667</ele><time>2026-03-24T10:51:01.371Z</time></trkpt><trkpt lat="46.6148029" lon="10.702244"><ele>869.5</ele><time>2026-03-24T10:51:03.371Z</time></trkpt><trkpt lat="46.6147706" lon="10.7023532"><ele>869.3333333333334</ele><time>2026-03-24T10:51:05.369Z</time></trkpt><trkpt lat="46.6147335" lon="10.7024607"><ele>869.1666666666667</ele><time>2026-03-24T10:51:07.364Z</time></trkpt><trkpt lat="46.6146937" lon="10.7025756"><ele>869.0</ele><time>2026-03-24T10:51:09.366Z</time></trkpt><trkpt lat="46.6146506" lon="10.7026874"><ele>868.5000000000001</ele><time>2026-03-24T10:51:11.368Z</time></trkpt><trkpt lat="46.6146145" lon="10.7028001"><ele>868.0</ele><time>2026-03-24T10:51:13.364Z</time></trkpt><trkpt lat="46.6145832" lon="10.7029097"><ele>867.5</ele><time>2026-03-24T10:51:15.372Z</time></trkpt><trkpt lat="46.6145468" lon="10.7030063"><ele>867.0</ele><time>2026-03-24T10:51:17.374Z</time></trkpt><trkpt lat="46.614513" lon="10.7031008"><ele>866.5000000000001</ele><time>2026-03-24T10:51:19.367Z</time></trkpt><trkpt lat="46.6144889" lon="10.7032071"><ele>866.0</ele><time>2026-03-24T10:51:21.37Z</time></trkpt><trkpt lat="46.6144577" lon="10.7033219"><ele>866.4</ele><time>2026-03-24T10:51:23.376Z</time></trkpt><trkpt lat="46.6144277" lon="10.7034538"><ele>866.8</ele><time>2026-03-24T10:51:25.385Z</time></trkpt><trkpt lat="46.6143937" lon="10.7035964"><ele>867.1999999999999</ele><time>2026-03-24T10:51:27.376Z</time></trkpt><trkpt lat="46.6143546" lon="10.7037518"><ele>867.5999999999999</ele><time>2026-03-24T10:51:29.362Z</time></trkpt><trkpt lat="46.6143177" lon="10.7039134"><ele>868.0</ele><time>2026-03-24T10:51:31.373Z</time></trkpt><trkpt lat="46.6142809" lon="10.7040769"><ele>868.0</ele><time>2026-03-24T10:51:33.366Z</time></trkpt><trkpt lat="46.6142412" lon="10.7042389"><ele>868.0</ele><time>2026-03-24T10:51:35.364Z</time></trkpt><trkpt lat="46.6142046" lon="10.7043949"><ele>868.0</ele><time>2026-03-24T10:51:37.374Z</time></trkpt><trkpt lat="46.6141565" lon="10.7045393"><ele>868.0</ele><time>2026-03-24T10:51:39.372Z</time></trkpt><trkpt lat="46.6141054" lon="10.7046808"><ele>867.8</ele><time>2026-03-24T10:51:41.372Z</time></trkpt><trkpt lat="46.6140558" lon="10.7048206"><ele>867.5999999999999</ele><time>2026-03-24T10:51:43.369Z</time></trkpt><trkpt lat="46.6140069" lon="10.7049599"><ele>867.4000000000001</ele><time>2026-03-24T10:51:45.369Z</time></trkpt><trkpt lat="46.6139477" lon="10.7050956"><ele>867.2</ele><time>2026-03-24T10:51:47.374Z</time></trkpt><trkpt lat="46.6138763" lon="10.7052284"><ele>867.0</ele><time>2026-03-24T10:51:49.371Z</time></trkpt><trkpt lat="46.6138" lon="10.7053549"><ele>866.6</ele><time>2026-03-24T10:51:51.365Z</time></trkpt><trkpt lat="46.6137193" lon="10.7054756"><ele>866.2</ele><time>2026-03-24T10:51:53.371Z</time></trkpt><trkpt lat="46.6136366" lon="10.7055868"><ele>865.8</ele><time>2026-03-24T10:51:55.36Z</time></trkpt><trkpt lat="46.6135531" lon="10.7056921"><ele>865.4</ele><time>2026-03-24T10:51:57.373Z</time></trkpt><trkpt lat="46.6134744" lon="10.7058001"><ele>865.0</ele><time>2026-03-24T10:51:59.37Z</time></trkpt><trkpt lat="46.6133929" lon="10.7058979"><ele>865.6</ele><time>2026-03-24T10:52:01.374Z</time></trkpt><trkpt lat="46.6133169" lon="10.705995"><ele>866.2</ele><time>2026-03-24T10:52:03.369Z</time></trkpt><trkpt lat="46.6132458" lon="10.7060928"><ele>866.8</ele><time>2026-03-24T10:52:05.372Z</time></trkpt><trkpt lat="46.6131759" lon="10.7061905"><ele>867.4</ele><time>2026-03-24T10:52:07.381Z</time></trkpt><trkpt lat="46.6131047" lon="10.7062783"><ele>868.0</ele><time>2026-03-24T10:52:09.369Z</time></trkpt><trkpt lat="46.6130315" lon="10.706361"><ele>868.0</ele><time>2026-03-24T10:52:11.371Z</time></trkpt><trkpt lat="46.6129432" lon="10.7064317"><ele>868.0</ele><time>2026-03-24T10:52:13.372Z</time></trkpt><trkpt lat="46.6128504" lon="10.7065042"><ele>868.0</ele><time>2026-03-24T10:52:15.371Z</time></trkpt><trkpt lat="46.6127534" lon="10.7065758"><ele>868.0</ele><time>2026-03-24T10:52:17.364Z</time></trkpt><trkpt lat="46.6126571" lon="10.7066535"><ele>868.0</ele><time>2026-03-24T10:52:19.373Z</time></trkpt><trkpt lat="46.6125651" lon="10.7067366"><ele>867.5999999999999</ele><time>2026-03-24T10:52:21.367Z</time></trkpt><trkpt lat="46.6124812" lon="10.706831"><ele>867.1999999999999</ele><time>2026-03-24T10:52:23.368Z</time></trkpt><trkpt lat="46.6123937" lon="10.7069203"><ele>866.8</ele><time>2026-03-24T10:52:25.378Z</time></trkpt><trkpt lat="46.6123113" lon="10.7069972"><ele>866.4</ele><time>2026-03-24T10:52:27.366Z</time></trkpt><trkpt lat="46.612235" lon="10.7070732"><ele>866.0</ele><time>2026-03-24T10:52:29.369Z</time></trkpt><trkpt lat="46.6122119" lon="10.7072124"><ele>866.0000000000001</ele><time>2026-03-24T10:52:31.372Z</time></trkpt><trkpt lat="46.61224" lon="10.7073959"><ele>866.0</ele><time>2026-03-24T10:52:33.362Z</time></trkpt><trkpt lat="46.6122577" lon="10.7074984"><ele>866.0</ele><time>2026-03-24T10:52:34.372Z</time></trkpt><trkpt lat="46.6122696" lon="10.7076094"><ele>866.0</ele><time>2026-03-24T10:52:35.372Z</time></trkpt><trkpt lat="46.612277" lon="10.7077275"><ele>866.0000000000001</ele><time>2026-03-24T10:52:36.378Z</time></trkpt><trkpt lat="46.612287" lon="10.7078473"><ele>866.0</ele><time>2026-03-24T10:52:37.367Z</time></trkpt><trkpt lat="46.6122901" lon="10.7079761"><ele>865.0</ele><time>2026-03-24T10:52:38.373Z</time></trkpt><trkpt lat="46.6122893" lon="10.7081124"><ele>863.9999999999999</ele><time>2026-03-24T10:52:39.37Z</time></trkpt><trkpt lat="46.6122869" lon="10.7082446"><ele>862.9999999999999</ele><time>2026-03-24T10:52:40.37Z</time></trkpt><trkpt lat="46.6122804" lon="10.7083643"><ele>862.0</ele><time>2026-03-24T10:52:41.372Z</time></trkpt><trkpt lat="46.6122755" lon="10.7084694"><ele>861.0</ele><time>2026-03-24T10:52:42.379Z</time></trkpt><trkpt lat="46.6122666" lon="10.7086342"><ele>861.4</ele><time>2026-03-24T10:52:44.373Z</time></trkpt><trkpt lat="46.6122601" lon="10.7087577"><ele>861.8</ele><time>2026-03-24T10:52:46.367Z</time></trkpt><trkpt lat="46.6122305" lon="10.7088696"><ele>862.1999999999999</ele><time>2026-03-24T10:52:48.368Z</time></trkpt><trkpt lat="46.6121696" lon="10.7089636"><ele>862.5999999999999</ele><time>2026-03-24T10:52:50.368Z</time></trkpt><trkpt lat="46.6120786" lon="10.7090074"><ele>863.0</ele><time>2026-03-24T10:52:52.374Z</time></trkpt><trkpt lat="46.6119781" lon="10.7090118"><ele>863.0</ele><time>2026-03-24T10:52:54.364Z</time></trkpt><trkpt lat="46.6118749" lon="10.7090419"><ele>863.0</ele><time>2026-03-24T10:52:56.374Z</time></trkpt><trkpt lat="46.6117688" lon="10.7090873"><ele>863.0</ele><time>2026-03-24T10:52:58.371Z</time></trkpt><trkpt lat="46.61166" lon="10.7091389"><ele>863.0</ele><time>2026-03-24T10:53:00.372Z</time></trkpt><trkpt lat="46.6115527" lon="10.709195"><ele>863.0</ele><time>2026-03-24T10:53:02.366Z</time></trkpt><trkpt lat="46.6114501" lon="10.7092638"><ele>863.0</ele><time>2026-03-24T10:53:04.371Z</time></trkpt><trkpt lat="46.6113546" lon="10.7093621"><ele>863.0</ele><time>2026-03-24T10:53:06.374Z</time></trkpt><trkpt lat="46.6112773" lon="10.7094747"><ele>863.0</ele><time>2026-03-24T10:53:08.371Z</time></trkpt><trkpt lat="46.6112313" lon="10.7096109"><ele>863.0</ele><time>2026-03-24T10:53:10.361Z</time></trkpt><trkpt lat="46.6111681" lon="10.7097219"><ele>863.0</ele><time>2026-03-24T10:53:12.363Z</time></trkpt><trkpt lat="46.6110712" lon="10.7098033"><ele>863.8333333333334</ele><time>2026-03-24T10:53:14.374Z</time></trkpt><trkpt lat="46.6109614" lon="10.7098638"><ele>864.6666666666667</ele><time>2026-03-24T10:53:16.374Z</time></trkpt><trkpt lat="46.61087" lon="10.7099433"><ele>865.5</ele><time>2026-03-24T10:53:18.371Z</time></trkpt><trkpt lat="46.6108405" lon="10.7100323"><ele>866.3333333333333</ele><time>2026-03-24T10:53:19.368Z</time></trkpt><trkpt lat="46.6108241" lon="10.7101351"><ele>867.1666666666666</ele><time>2026-03-24T10:53:20.369Z</time></trkpt><trkpt lat="46.6108083" lon="10.7102367"><ele>868.0</ele><time>2026-03-24T10:53:21.369Z</time></trkpt><trkpt lat="46.6107978" lon="10.7103455"><ele>866.5714285714286</ele><time>2026-03-24T10:53:22.36Z</time></trkpt><trkpt lat="46.6107853" lon="10.7104554"><ele>865.1428571428571</ele><time>2026-03-24T10:53:23.367Z</time></trkpt><trkpt lat="46.6107714" lon="10.7105642"><ele>863.7142857142858</ele><time>2026-03-24T10:53:24.363Z</time></trkpt><trkpt lat="46.6107588" lon="10.7106688"><ele>862.2857142857142</ele><time>2026-03-24T10:53:25.366Z</time></trkpt><trkpt lat="46.6107292" lon="10.7107699"><ele>860.8571428571429</ele><time>2026-03-24T10:53:26.377Z</time></trkpt><trkpt lat="46.6107006" lon="10.7108639"><ele>859.4285714285714</ele><time>2026-03-24T10:53:27.365Z</time></trkpt><trkpt lat="46.6106657" lon="10.7109533"><ele>858.0</ele><time>2026-03-24T10:53:28.369Z</time></trkpt><trkpt lat="46.6106275" lon="10.7110427"><ele>856.8571428571429</ele><time>2026-03-24T10:53:29.374Z</time></trkpt><trkpt lat="46.6105834" lon="10.7111295"><ele>855.7142857142858</ele><time>2026-03-24T10:53:30.37Z</time></trkpt><trkpt lat="46.6105446" lon="10.7112214"><ele>854.5714285714286</ele><time>2026-03-24T10:53:31.36Z</time></trkpt><trkpt lat="46.61051" lon="10.7113125"><ele>853.4285714285714</ele><time>2026-03-24T10:53:32.366Z</time></trkpt><trkpt lat="46.6104895" lon="10.7114121"><ele>852.2857142857142</ele><time>2026-03-24T10:53:33.37Z</time></trkpt><trkpt lat="46.6104652" lon="10.7115139"><ele>851.1428571428571</ele><time>2026-03-24T10:53:34.373Z</time></trkpt><trkpt lat="46.6104428" lon="10.7116019"><ele>850.0</ele><time>2026-03-24T10:53:35.369Z</time></trkpt><trkpt lat="46.6104008" lon="10.7117421"><ele>849.9999999999999</ele><time>2026-03-24T10:53:37.364Z</time></trkpt><trkpt lat="46.6103532" lon="10.7118597"><ele>850.0</ele><time>2026-03-24T10:53:39.366Z</time></trkpt><trkpt lat="46.61032" lon="10.7119586"><ele>850.0</ele><time>2026-03-24T10:53:41.385Z</time></trkpt><trkpt lat="46.610284" lon="10.712059"><ele>850.0</ele><time>2026-03-24T10:53:43.367Z</time></trkpt><trkpt lat="46.6102491" lon="10.712149"><ele>849.9999999999999</ele><time>2026-03-24T10:53:45.368Z</time></trkpt><trkpt lat="46.6102158" lon="10.7122317"><ele>850.0</ele><time>2026-03-24T10:53:47.363Z</time></trkpt><trkpt lat="46.6101734" lon="10.712345"><ele>854.6666666666666</ele><time>2026-03-24T10:53:50.383Z</time></trkpt><trkpt lat="46.6101422" lon="10.7124399"><ele>859.3333333333333</ele><time>2026-03-24T10:53:52.365Z</time></trkpt><trkpt lat="46.6101115" lon="10.712543"><ele>864.0</ele><time>2026-03-24T10:53:54.369Z</time></trkpt><trkpt lat="46.6100817" lon="10.7126411"><ele>868.6666666666667</ele><time>2026-03-24T10:53:56.371Z</time></trkpt><trkpt lat="46.6100477" lon="10.7127453"><ele>873.3333333333334</ele><time>2026-03-24T10:53:58.368Z</time></trkpt><trkpt lat="46.6100018" lon="10.7128655"><ele>878.0</ele><time>2026-03-24T10:54:00.37Z</time></trkpt><trkpt lat="46.6099844" lon="10.7130102"><ele>878.0</ele><time>2026-03-24T10:54:02.37Z</time></trkpt><trkpt lat="46.6099944" lon="10.7131572"><ele>878.0</ele><time>2026-03-24T10:54:04.359Z</time></trkpt><trkpt lat="46.6100068" lon="10.713292"><ele>878.0</ele><time>2026-03-24T10:54:06.368Z</time></trkpt><trkpt lat="46.6100119" lon="10.7134227"><ele>878.0</ele><time>2026-03-24T10:54:08.363Z</time></trkpt><trkpt lat="46.6100162" lon="10.7135573"><ele>878.0</ele><time>2026-03-24T10:54:10.367Z</time></trkpt><trkpt lat="46.6100217" lon="10.7136904"><ele>877.4</ele><time>2026-03-24T10:54:12.364Z</time></trkpt><trkpt lat="46.610033" lon="10.7138081"><ele>876.8</ele><time>2026-03-24T10:54:14.36Z</time></trkpt><trkpt lat="46.6100534" lon="10.7139406"><ele>876.2</ele><time>2026-03-24T10:54:16.356Z</time></trkpt><trkpt lat="46.6100691" lon="10.7140818"><ele>875.6</ele><time>2026-03-24T10:54:18.362Z</time></trkpt><trkpt lat="46.6100726" lon="10.7142408"><ele>875.0</ele><time>2026-03-24T10:54:20.368Z</time></trkpt><trkpt lat="46.6100697" lon="10.7144056"><ele>874.3333333333334</ele><time>2026-03-24T10:54:22.362Z</time></trkpt><trkpt lat="46.6100493" lon="10.7145914"><ele>873.6666666666667</ele><time>2026-03-24T10:54:24.369Z</time></trkpt><trkpt lat="46.6100366" lon="10.714691"><ele>873.0</ele><time>2026-03-24T10:54:25.359Z</time></trkpt><trkpt lat="46.6100227" lon="10.7147946"><ele>872.3333333333333</ele><time>2026-03-24T10:54:26.365Z</time></trkpt><trkpt lat="46.6100081" lon="10.7149062"><ele>871.6666666666666</ele><time>2026-03-24T10:54:27.367Z</time></trkpt><trkpt lat="46.6099991" lon="10.7150194"><ele>871.0</ele><time>2026-03-24T10:54:28.382Z</time></trkpt><trkpt lat="46.6099858" lon="10.7151229"><ele>871.0</ele><time>2026-03-24T10:54:29.37Z</time></trkpt><trkpt lat="46.6099778" lon="10.7152224"><ele>871.0</ele><time>2026-03-24T10:54:30.37Z</time></trkpt><trkpt lat="46.60997" lon="10.7153164"><ele>871.0</ele><time>2026-03-24T10:54:31.364Z</time></trkpt><trkpt lat="46.6099618" lon="10.7154117"><ele>871.0</ele><time>2026-03-24T10:54:32.361Z</time></trkpt><trkpt lat="46.6099643" lon="10.7155104"><ele>871.0</ele><time>2026-03-24T10:54:33.363Z</time></trkpt><trkpt lat="46.609965" lon="10.715608"><ele>871.0</ele><time>2026-03-24T10:54:34.365Z</time></trkpt><trkpt lat="46.6099649" lon="10.7157144"><ele>871.0</ele><time>2026-03-24T10:54:35.368Z</time></trkpt><trkpt lat="46.609963" lon="10.7158212"><ele>870.4999999999999</ele><time>2026-03-24T10:54:36.369Z</time></trkpt><trkpt lat="46.6099649" lon="10.7159335"><ele>870.0</ele><time>2026-03-24T10:54:37.369Z</time></trkpt><trkpt lat="46.6099703" lon="10.7160446"><ele>869.5</ele><time>2026-03-24T10:54:38.365Z</time></trkpt><trkpt lat="46.6099749" lon="10.7161584"><ele>869.0</ele><time>2026-03-24T10:54:39.377Z</time></trkpt><trkpt lat="46.6099944" lon="10.7162754"><ele>868.4999999999999</ele><time>2026-03-24T10:54:40.377Z</time></trkpt><trkpt lat="46.6100127" lon="10.7163904"><ele>868.0</ele><time>2026-03-24T10:54:41.366Z</time></trkpt><trkpt lat="46.6100368" lon="10.7164967"><ele>867.9999999999999</ele><time>2026-03-24T10:54:42.375Z</time></trkpt><trkpt lat="46.6100587" lon="10.7165923"><ele>868.0</ele><time>2026-03-24T10:54:43.378Z</time></trkpt><trkpt lat="46.6100789" lon="10.7166873"><ele>868.0</ele><time>2026-03-24T10:54:44.363Z</time></trkpt><trkpt lat="46.6100957" lon="10.7167902"><ele>868.0</ele><time>2026-03-24T10:54:45.366Z</time></trkpt><trkpt lat="46.6101148" lon="10.7168969"><ele>867.9999999999999</ele><time>2026-03-24T10:54:46.369Z</time></trkpt><trkpt lat="46.6101355" lon="10.7170083"><ele>868.0</ele><time>2026-03-24T10:54:47.364Z</time></trkpt><trkpt lat="46.6101549" lon="10.7171308"><ele>868.3333333333333</ele><time>2026-03-24T10:54:48.368Z</time></trkpt><trkpt lat="46.6101668" lon="10.7172554"><ele>868.6666666666666</ele><time>2026-03-24T10:54:49.366Z</time></trkpt><trkpt lat="46.610179" lon="10.7173722"><ele>869.0</ele><time>2026-03-24T10:54:50.374Z</time></trkpt><trkpt lat="46.6101963" lon="10.7174832"><ele>869.3333333333333</ele><time>2026-03-24T10:54:51.372Z</time></trkpt><trkpt lat="46.6102166" lon="10.7175929"><ele>869.6666666666666</ele><time>2026-03-24T10:54:52.367Z</time></trkpt><trkpt lat="46.6102294" lon="10.717705"><ele>870.0</ele><time>2026-03-24T10:54:53.364Z</time></trkpt><trkpt lat="46.6102416" lon="10.7178034"><ele>868.8571428571429</ele><time>2026-03-24T10:54:54.362Z</time></trkpt><trkpt lat="46.6102505" lon="10.7178966"><ele>867.7142857142858</ele><time>2026-03-24T10:54:55.373Z</time></trkpt><trkpt lat="46.61023" lon="10.7179962"><ele>866.5714285714287</ele><time>2026-03-24T10:54:56.369Z</time></trkpt><trkpt lat="46.6102068" lon="10.7180925"><ele>865.4285714285714</ele><time>2026-03-24T10:54:57.36Z</time></trkpt><trkpt lat="46.6101858" lon="10.7181863"><ele>864.2857142857142</ele><time>2026-03-24T10:54:58.365Z</time></trkpt><trkpt lat="46.610164" lon="10.7182884"><ele>863.1428571428572</ele><time>2026-03-24T10:54:59.362Z</time></trkpt><trkpt lat="46.6101416" lon="10.718398"><ele>862.0</ele><time>2026-03-24T10:55:00.375Z</time></trkpt><trkpt lat="46.6101169" lon="10.7185148"><ele>861.2</ele><time>2026-03-24T10:55:01.363Z</time></trkpt><trkpt lat="46.6100906" lon="10.7186364"><ele>860.4000000000001</ele><time>2026-03-24T10:55:02.369Z</time></trkpt><trkpt lat="46.6100647" lon="10.7187621"><ele>859.5999999999999</ele><time>2026-03-24T10:55:03.365Z</time></trkpt><trkpt lat="46.6100564" lon="10.7189043"><ele>858.8</ele><time>2026-03-24T10:55:04.362Z</time></trkpt><trkpt lat="46.610048" lon="10.7190445"><ele>858.0</ele><time>2026-03-24T10:55:05.369Z</time></trkpt><trkpt lat="46.610059" lon="10.719191"><ele>858.0</ele><time>2026-03-24T10:55:06.368Z</time></trkpt><trkpt lat="46.6100708" lon="10.7193356"><ele>858.0</ele><time>2026-03-24T10:55:07.368Z</time></trkpt><trkpt lat="46.6100849" lon="10.7194749"><ele>858.0</ele><time>2026-03-24T10:55:08.371Z</time></trkpt><trkpt lat="46.6101158" lon="10.7195969"><ele>858.0</ele><time>2026-03-24T10:55:09.367Z</time></trkpt><trkpt lat="46.6101367" lon="10.7197085"><ele>858.0</ele><time>2026-03-24T10:55:10.373Z</time></trkpt><trkpt lat="46.6101515" lon="10.7198009"><ele>858.0</ele><time>2026-03-24T10:55:11.365Z</time></trkpt><trkpt lat="46.6101914" lon="10.7199665"><ele>858.8333333333334</ele><time>2026-03-24T10:55:13.371Z</time></trkpt><trkpt lat="46.610206" lon="10.7200639"><ele>859.6666666666667</ele><time>2026-03-24T10:55:14.368Z</time></trkpt><trkpt lat="46.6102208" lon="10.7201605"><ele>860.5</ele><time>2026-03-24T10:55:15.37Z</time></trkpt><trkpt lat="46.6102314" lon="10.7202689"><ele>861.3333333333334</ele><time>2026-03-24T10:55:16.373Z</time></trkpt><trkpt lat="46.6102447" lon="10.7203869"><ele>862.1666666666667</ele><time>2026-03-24T10:55:17.37Z</time></trkpt><trkpt lat="46.6102554" lon="10.7205113"><ele>863.0</ele><time>2026-03-24T10:55:18.373Z</time></trkpt><trkpt lat="46.6102688" lon="10.7206416"><ele>863.2</ele><time>2026-03-24T10:55:19.367Z</time></trkpt><trkpt lat="46.6102814" lon="10.7207814"><ele>863.4</ele><time>2026-03-24T10:55:20.377Z</time></trkpt><trkpt lat="46.6102877" lon="10.7209254"><ele>863.6000000000001</ele><time>2026-03-24T10:55:21.373Z</time></trkpt><trkpt lat="46.6102832" lon="10.7210718"><ele>863.8000000000001</ele><time>2026-03-24T10:55:22.367Z</time></trkpt><trkpt lat="46.6102682" lon="10.7212093"><ele>864.0</ele><time>2026-03-24T10:55:23.363Z</time></trkpt><trkpt lat="46.6102564" lon="10.7213425"><ele>864.0</ele><time>2026-03-24T10:55:24.372Z</time></trkpt><trkpt lat="46.6102512" lon="10.7214744"><ele>864.0000000000001</ele><time>2026-03-24T10:55:25.381Z</time></trkpt><trkpt lat="46.6102489" lon="10.7216105"><ele>864.0000000000001</ele><time>2026-03-24T10:55:26.364Z</time></trkpt><trkpt lat="46.6102445" lon="10.7217522"><ele>864.0</ele><time>2026-03-24T10:55:27.368Z</time></trkpt><trkpt lat="46.6102399" lon="10.7218984"><ele>864.0</ele><time>2026-03-24T10:55:28.365Z</time></trkpt><trkpt lat="46.610244" lon="10.7220497"><ele>863.6</ele><time>2026-03-24T10:55:29.376Z</time></trkpt><trkpt lat="46.6102561" lon="10.7222068"><ele>863.2</ele><time>2026-03-24T10:55:30.37Z</time></trkpt><trkpt lat="46.6102776" lon="10.722366"><ele>862.8000000000001</ele><time>2026-03-24T10:55:31.366Z</time></trkpt><trkpt lat="46.610305" lon="10.7225183"><ele>862.4000000000001</ele><time>2026-03-24T10:55:32.364Z</time></trkpt><trkpt lat="46.6103254" lon="10.7226647"><ele>862.0</ele><time>2026-03-24T10:55:33.367Z</time></trkpt><trkpt lat="46.6103257" lon="10.7228087"><ele>862.2</ele><time>2026-03-24T10:55:34.372Z</time></trkpt><trkpt lat="46.6103157" lon="10.7229479"><ele>862.4000000000001</ele><time>2026-03-24T10:55:35.373Z</time></trkpt><trkpt lat="46.6103116" lon="10.7230866"><ele>862.5999999999999</ele><time>2026-03-24T10:55:36.367Z</time></trkpt><trkpt lat="46.6103071" lon="10.7232254"><ele>862.8</ele><time>2026-03-24T10:55:37.374Z</time></trkpt><trkpt lat="46.6103156" lon="10.7233691"><ele>863.0</ele><time>2026-03-24T10:55:38.364Z</time></trkpt><trkpt lat="46.6103299" lon="10.723516"><ele>858.6666666666667</ele><time>2026-03-24T10:55:39.369Z</time></trkpt><trkpt lat="46.6103471" lon="10.7236599"><ele>854.3333333333334</ele><time>2026-03-24T10:55:40.367Z</time></trkpt><trkpt lat="46.6103682" lon="10.7237839"><ele>850.0</ele><time>2026-03-24T10:55:41.367Z</time></trkpt><trkpt lat="46.6103973" lon="10.72389"><ele>845.6666666666667</ele><time>2026-03-24T10:55:42.374Z</time></trkpt><trkpt lat="46.6104271" lon="10.7239764"><ele>841.3333333333334</ele><time>2026-03-24T10:55:43.375Z</time></trkpt><trkpt lat="46.6104778" lon="10.7241234"><ele>837.0</ele><time>2026-03-24T10:55:45.375Z</time></trkpt><trkpt lat="46.6104755" lon="10.7242778"><ele>837.0</ele><time>2026-03-24T10:55:47.363Z</time></trkpt><trkpt lat="46.6104588" lon="10.7244346"><ele>837.0</ele><time>2026-03-24T10:55:49.366Z</time></trkpt><trkpt lat="46.6104447" lon="10.7245936"><ele>837.0</ele><time>2026-03-24T10:55:51.365Z</time></trkpt><trkpt lat="46.610423" lon="10.7247569"><ele>837.0</ele><time>2026-03-24T10:55:53.371Z</time></trkpt><trkpt lat="46.610389" lon="10.7249208"><ele>837.0</ele><time>2026-03-24T10:55:55.378Z</time></trkpt><trkpt lat="46.610355" lon="10.7250713"><ele>837.0</ele><time>2026-03-24T10:55:57.374Z</time></trkpt><trkpt lat="46.6103191" lon="10.7252049"><ele>837.0</ele><time>2026-03-24T10:55:59.369Z</time></trkpt><trkpt lat="46.6103067" lon="10.7253292"><ele>837.0</ele><time>2026-03-24T10:56:01.371Z</time></trkpt><trkpt lat="46.6103034" lon="10.7254609"><ele>837.0</ele><time>2026-03-24T10:56:03.375Z</time></trkpt><trkpt lat="46.6103225" lon="10.7256029"><ele>836.0</ele><time>2026-03-24T10:56:05.365Z</time></trkpt><trkpt lat="46.6103548" lon="10.725767"><ele>835.0</ele><time>2026-03-24T10:56:07.368Z</time></trkpt><trkpt lat="46.6103703" lon="10.7258589"><ele>834.0</ele><time>2026-03-24T10:56:08.366Z</time></trkpt><trkpt lat="46.6103888" lon="10.7259512"><ele>833.0</ele><time>2026-03-24T10:56:09.367Z</time></trkpt><trkpt lat="46.610411" lon="10.7260399"><ele>832.0</ele><time>2026-03-24T10:56:10.376Z</time></trkpt><trkpt lat="46.6104501" lon="10.7262037"><ele>831.0</ele><time>2026-03-24T10:56:12.376Z</time></trkpt><trkpt lat="46.6104885" lon="10.7263606"><ele>830.5</ele><time>2026-03-24T10:56:14.369Z</time></trkpt><trkpt lat="46.6105402" lon="10.7265114"><ele>830.0</ele><time>2026-03-24T10:56:16.364Z</time></trkpt><trkpt lat="46.6105814" lon="10.726583"><ele>829.5</ele><time>2026-03-24T10:56:17.363Z</time></trkpt><trkpt lat="46.6106285" lon="10.7266483"><ele>829.0</ele><time>2026-03-24T10:56:18.369Z</time></trkpt><trkpt lat="46.6106799" lon="10.7267151"><ele>828.5</ele><time>2026-03-24T10:56:19.368Z</time></trkpt><trkpt lat="46.6107343" lon="10.7267818"><ele>828.0</ele><time>2026-03-24T10:56:20.375Z</time></trkpt><trkpt lat="46.6107862" lon="10.7268456"><ele>830.2857142857143</ele><time>2026-03-24T10:56:21.373Z</time></trkpt><trkpt lat="46.6108406" lon="10.7269123"><ele>832.5714285714286</ele><time>2026-03-24T10:56:22.371Z</time></trkpt><trkpt lat="46.610896" lon="10.7269859"><ele>834.8571428571429</ele><time>2026-03-24T10:56:23.362Z</time></trkpt><trkpt lat="46.6109506" lon="10.7270632"><ele>837.1428571428571</ele><time>2026-03-24T10:56:24.37Z</time></trkpt><trkpt lat="46.6110013" lon="10.7271434"><ele>839.4285714285714</ele><time>2026-03-24T10:56:25.371Z</time></trkpt><trkpt lat="46.6110521" lon="10.7272243"><ele>841.7142857142858</ele><time>2026-03-24T10:56:26.374Z</time></trkpt><trkpt lat="46.6111007" lon="10.7273026"><ele>844.0</ele><time>2026-03-24T10:56:27.373Z</time></trkpt><trkpt lat="46.6111546" lon="10.7273726"><ele>841.1428571428571</ele><time>2026-03-24T10:56:28.371Z</time></trkpt><trkpt lat="46.6112094" lon="10.727439"><ele>838.2857142857143</ele><time>2026-03-24T10:56:29.372Z</time></trkpt><trkpt lat="46.6112575" lon="10.7275085"><ele>835.4285714285713</ele><time>2026-03-24T10:56:30.381Z</time></trkpt><trkpt lat="46.6113009" lon="10.7275865"><ele>832.5714285714286</ele><time>2026-03-24T10:56:31.373Z</time></trkpt><trkpt lat="46.6113343" lon="10.7276732"><ele>829.7142857142857</ele><time>2026-03-24T10:56:32.367Z</time></trkpt><trkpt lat="46.6113685" lon="10.7277617"><ele>826.8571428571428</ele><time>2026-03-24T10:56:33.375Z</time></trkpt><trkpt lat="46.6113839" lon="10.7278562"><ele>824.0</ele><time>2026-03-24T10:56:34.367Z</time></trkpt><trkpt lat="46.6113969" lon="10.7279565"><ele>823.9999999999999</ele><time>2026-03-24T10:56:35.368Z</time></trkpt><trkpt lat="46.6114046" lon="10.7280532"><ele>824.0</ele><time>2026-03-24T10:56:36.369Z</time></trkpt><trkpt lat="46.6114134" lon="10.728155"><ele>824.0</ele><time>2026-03-24T10:56:37.372Z</time></trkpt><trkpt lat="46.6114167" lon="10.7282594"><ele>824.0</ele><time>2026-03-24T10:56:38.373Z</time></trkpt><trkpt lat="46.6114169" lon="10.7283613"><ele>824.0</ele><time>2026-03-24T10:56:39.374Z</time></trkpt><trkpt lat="46.6114181" lon="10.7284608"><ele>823.9999999999999</ele><time>2026-03-24T10:56:40.374Z</time></trkpt><trkpt lat="46.6114252" lon="10.7285578"><ele>824.0</ele><time>2026-03-24T10:56:41.376Z</time></trkpt><trkpt lat="46.6114329" lon="10.7286544"><ele>823.8333333333334</ele><time>2026-03-24T10:56:42.368Z</time></trkpt><trkpt lat="46.6114796" lon="10.728824"><ele>823.6666666666667</ele><time>2026-03-24T10:56:44.366Z</time></trkpt><trkpt lat="46.6115209" lon="10.7289058"><ele>823.5</ele><time>2026-03-24T10:56:45.371Z</time></trkpt><trkpt lat="46.6115599" lon="10.7289861"><ele>823.3333333333333</ele><time>2026-03-24T10:56:46.364Z</time></trkpt><trkpt lat="46.6115974" lon="10.7290727"><ele>823.1666666666666</ele><time>2026-03-24T10:56:47.374Z</time></trkpt><trkpt lat="46.6116306" lon="10.7291657"><ele>823.0</ele><time>2026-03-24T10:56:48.37Z</time></trkpt><trkpt lat="46.6116635" lon="10.7292561"><ele>823.0</ele><time>2026-03-24T10:56:49.368Z</time></trkpt><trkpt lat="46.6116896" lon="10.7293494"><ele>823.0</ele><time>2026-03-24T10:56:50.359Z</time></trkpt><trkpt lat="46.6117163" lon="10.7294495"><ele>823.0</ele><time>2026-03-24T10:56:51.376Z</time></trkpt><trkpt lat="46.6117419" lon="10.7295532"><ele>823.0</ele><time>2026-03-24T10:56:52.38Z</time></trkpt><trkpt lat="46.6117675" lon="10.7296548"><ele>823.0</ele><time>2026-03-24T10:56:53.366Z</time></trkpt><trkpt lat="46.6117983" lon="10.7297565"><ele>823.0</ele><time>2026-03-24T10:56:54.368Z</time></trkpt><trkpt lat="46.6118276" lon="10.7298534"><ele>823.0</ele><time>2026-03-24T10:56:55.373Z</time></trkpt><trkpt lat="46.6118585" lon="10.7299518"><ele>824.0</ele><time>2026-03-24T10:56:56.383Z</time></trkpt><trkpt lat="46.6118905" lon="10.7300414"><ele>825.0</ele><time>2026-03-24T10:56:57.366Z</time></trkpt><trkpt lat="46.6119263" lon="10.730136"><ele>826.0</ele><time>2026-03-24T10:56:58.376Z</time></trkpt><trkpt lat="46.6119637" lon="10.730226"><ele>827.0</ele><time>2026-03-24T10:56:59.366Z</time></trkpt><trkpt lat="46.6120028" lon="10.7303161"><ele>828.0</ele><time>2026-03-24T10:57:00.373Z</time></trkpt><trkpt lat="46.6120402" lon="10.7304012"><ele>829.0</ele><time>2026-03-24T10:57:01.364Z</time></trkpt><trkpt lat="46.6120793" lon="10.7304853"><ele>830.0</ele><time>2026-03-24T10:57:02.375Z</time></trkpt><trkpt lat="46.6121201" lon="10.7305721"><ele>827.3333333333334</ele><time>2026-03-24T10:57:03.375Z</time></trkpt><trkpt lat="46.6121642" lon="10.7306563"><ele>824.6666666666667</ele><time>2026-03-24T10:57:04.366Z</time></trkpt><trkpt lat="46.6122072" lon="10.730735"><ele>822.0</ele><time>2026-03-24T10:57:05.365Z</time></trkpt><trkpt lat="46.6122519" lon="10.7308058"><ele>819.3333333333333</ele><time>2026-03-24T10:57:06.37Z</time></trkpt><trkpt lat="46.6123622" lon="10.7308673"><ele>816.6666666666666</ele><time>2026-03-24T10:57:08.378Z</time></trkpt><trkpt lat="46.6124579" lon="10.7308271"><ele>814.0</ele><time>2026-03-24T10:57:10.375Z</time></trkpt><trkpt lat="46.6125355" lon="10.7307634"><ele>813.9999999999999</ele><time>2026-03-24T10:57:12.37Z</time></trkpt><trkpt lat="46.6126077" lon="10.7307104"><ele>814.0</ele><time>2026-03-24T10:57:14.368Z</time></trkpt><trkpt lat="46.6126779" lon="10.7306723"><ele>814.0</ele><time>2026-03-24T10:57:16.363Z</time></trkpt><trkpt lat="46.6127545" lon="10.7306885"><ele>814.0</ele><time>2026-03-24T10:57:18.379Z</time></trkpt><trkpt lat="46.6128529" lon="10.730783"><ele>813.9999999999999</ele><time>2026-03-24T10:57:20.364Z</time></trkpt><trkpt lat="46.6129039" lon="10.7308439"><ele>814.0</ele><time>2026-03-24T10:57:21.376Z</time></trkpt><trkpt lat="46.6129521" lon="10.7309147"><ele>814.5714285714287</ele><time>2026-03-24T10:57:22.372Z</time></trkpt><trkpt lat="46.6129922" lon="10.7309924"><ele>815.1428571428571</ele><time>2026-03-24T10:57:23.366Z</time></trkpt><trkpt lat="46.6130293" lon="10.7310717"><ele>815.7142857142858</ele><time>2026-03-24T10:57:24.377Z</time></trkpt><trkpt lat="46.6130629" lon="10.7311498"><ele>816.2857142857143</ele><time>2026-03-24T10:57:25.373Z</time></trkpt><trkpt lat="46.6130975" lon="10.7312264"><ele>816.8571428571429</ele><time>2026-03-24T10:57:26.375Z</time></trkpt><trkpt lat="46.6131358" lon="10.7313112"><ele>817.4285714285714</ele><time>2026-03-24T10:57:27.37Z</time></trkpt><trkpt lat="46.6131673" lon="10.7313934"><ele>818.0</ele><time>2026-03-24T10:57:28.379Z</time></trkpt><trkpt lat="46.6132017" lon="10.7315259"><ele>818.0</ele><time>2026-03-24T10:57:30.377Z</time></trkpt><trkpt lat="46.6132279" lon="10.7316765"><ele>818.0</ele><time>2026-03-24T10:57:32.373Z</time></trkpt><trkpt lat="46.6132542" lon="10.7318522"><ele>818.0</ele><time>2026-03-24T10:57:34.371Z</time></trkpt><trkpt lat="46.6132687" lon="10.7319591"><ele>818.0</ele><time>2026-03-24T10:57:35.369Z</time></trkpt><trkpt lat="46.6132869" lon="10.7320767"><ele>818.0</ele><time>2026-03-24T10:57:36.374Z</time></trkpt><trkpt lat="46.6133053" lon="10.7321972"><ele>816.4</ele><time>2026-03-24T10:57:37.377Z</time></trkpt><trkpt lat="46.6133381" lon="10.7323208"><ele>814.8</ele><time>2026-03-24T10:57:38.37Z</time></trkpt><trkpt lat="46.6133762" lon="10.7324418"><ele>813.2</ele><time>2026-03-24T10:57:39.376Z</time></trkpt><trkpt lat="46.6134115" lon="10.7325476"><ele>811.6</ele><time>2026-03-24T10:57:40.375Z</time></trkpt><trkpt lat="46.6134661" lon="10.7326937"><ele>810.0</ele><time>2026-03-24T10:57:42.377Z</time></trkpt><trkpt lat="46.6135093" lon="10.7328047"><ele>809.0</ele><time>2026-03-24T10:57:44.376Z</time></trkpt><trkpt lat="46.6135499" lon="10.7329183"><ele>808.0</ele><time>2026-03-24T10:57:46.372Z</time></trkpt><trkpt lat="46.6135947" lon="10.7330356"><ele>807.0</ele><time>2026-03-24T10:57:48.37Z</time></trkpt><trkpt lat="46.6136303" lon="10.7331724"><ele>806.0</ele><time>2026-03-24T10:57:50.369Z</time></trkpt><trkpt lat="46.6136444" lon="10.7333285"><ele>805.0</ele><time>2026-03-24T10:57:52.369Z</time></trkpt><trkpt lat="46.6136356" lon="10.7334884"><ele>804.25</ele><time>2026-03-24T10:57:54.374Z</time></trkpt><trkpt lat="46.6136312" lon="10.7336494"><ele>803.5</ele><time>2026-03-24T10:57:56.374Z</time></trkpt><trkpt lat="46.6136334" lon="10.7338123"><ele>802.75</ele><time>2026-03-24T10:57:58.368Z</time></trkpt><trkpt lat="46.6136361" lon="10.7339779"><ele>802.0</ele><time>2026-03-24T10:58:00.366Z</time></trkpt><trkpt lat="46.613642" lon="10.7341487"><ele>807.0</ele><time>2026-03-24T10:58:02.372Z</time></trkpt><trkpt lat="46.6136564" lon="10.7343216"><ele>812.0</ele><time>2026-03-24T10:58:04.368Z</time></trkpt><trkpt lat="46.61367" lon="10.7344905"><ele>817.0</ele><time>2026-03-24T10:58:06.373Z</time></trkpt><trkpt lat="46.6136758" lon="10.7346721"><ele>822.0</ele><time>2026-03-24T10:58:08.364Z</time></trkpt><trkpt lat="46.6136819" lon="10.7348414"><ele>822.0</ele><time>2026-03-24T10:58:10.367Z</time></trkpt><trkpt lat="46.6136952" lon="10.7349978"><ele>822.0</ele><time>2026-03-24T10:58:12.376Z</time></trkpt><trkpt lat="46.6137173" lon="10.7351755"><ele>822.0</ele><time>2026-03-24T10:58:14.368Z</time></trkpt><trkpt lat="46.6137281" lon="10.7352662"><ele>822.0</ele><time>2026-03-24T10:58:15.362Z</time></trkpt><trkpt lat="46.6137455" lon="10.7354351"><ele>822.0</ele><time>2026-03-24T10:58:17.377Z</time></trkpt><trkpt lat="46.6137489" lon="10.73553"><ele>821.2857142857142</ele><time>2026-03-24T10:58:18.37Z</time></trkpt><trkpt lat="46.613758" lon="10.7356209"><ele>820.5714285714286</ele><time>2026-03-24T10:58:19.361Z</time></trkpt><trkpt lat="46.6137697" lon="10.7357152"><ele>819.8571428571429</ele><time>2026-03-24T10:58:20.368Z</time></trkpt><trkpt lat="46.6137804" lon="10.7358127"><ele>819.1428571428571</ele><time>2026-03-24T10:58:21.364Z</time></trkpt><trkpt lat="46.613796" lon="10.7359158"><ele>818.4285714285714</ele><time>2026-03-24T10:58:22.362Z</time></trkpt><trkpt lat="46.6138141" lon="10.7360213"><ele>817.7142857142857</ele><time>2026-03-24T10:58:23.363Z</time></trkpt><trkpt lat="46.6138332" lon="10.7361259"><ele>817.0</ele><time>2026-03-24T10:58:24.358Z</time></trkpt><trkpt lat="46.6138616" lon="10.7362274"><ele>816.1666666666666</ele><time>2026-03-24T10:58:25.368Z</time></trkpt><trkpt lat="46.6138884" lon="10.736329"><ele>815.3333333333333</ele><time>2026-03-24T10:58:26.363Z</time></trkpt><trkpt lat="46.6139167" lon="10.7364341"><ele>814.5</ele><time>2026-03-24T10:58:27.378Z</time></trkpt><trkpt lat="46.6139395" lon="10.7365352"><ele>813.6666666666667</ele><time>2026-03-24T10:58:28.369Z</time></trkpt><trkpt lat="46.6139546" lon="10.7366298"><ele>812.8333333333334</ele><time>2026-03-24T10:58:29.371Z</time></trkpt><trkpt lat="46.6139657" lon="10.7367254"><ele>812.0</ele><time>2026-03-24T10:58:30.364Z</time></trkpt><trkpt lat="46.6139868" lon="10.7369033"><ele>811.5000000000001</ele><time>2026-03-24T10:58:32.368Z</time></trkpt><trkpt lat="46.614001" lon="10.7370019"><ele>811.0</ele><time>2026-03-24T10:58:33.359Z</time></trkpt><trkpt lat="46.6140151" lon="10.7371126"><ele>810.5</ele><time>2026-03-24T10:58:34.366Z</time></trkpt><trkpt lat="46.6140254" lon="10.7372448"><ele>810.0</ele><time>2026-03-24T10:58:35.372Z</time></trkpt><trkpt lat="46.6140295" lon="10.7373719"><ele>809.5000000000001</ele><time>2026-03-24T10:58:36.363Z</time></trkpt><trkpt lat="46.6140345" lon="10.73749"><ele>809.0</ele><time>2026-03-24T10:58:37.374Z</time></trkpt><trkpt lat="46.6140287" lon="10.7376163"><ele>808.8333333333334</ele><time>2026-03-24T10:58:38.365Z</time></trkpt><trkpt lat="46.6140229" lon="10.7377411"><ele>808.6666666666667</ele><time>2026-03-24T10:58:39.37Z</time></trkpt><trkpt lat="46.6140167" lon="10.737861"><ele>808.5</ele><time>2026-03-24T10:58:40.372Z</time></trkpt><trkpt lat="46.6140069" lon="10.7379806"><ele>808.3333333333333</ele><time>2026-03-24T10:58:41.372Z</time></trkpt><trkpt lat="46.6139975" lon="10.7381029"><ele>808.1666666666666</ele><time>2026-03-24T10:58:42.365Z</time></trkpt><trkpt lat="46.6139886" lon="10.7382226"><ele>808.0</ele><time>2026-03-24T10:58:43.375Z</time></trkpt><trkpt lat="46.6139796" lon="10.7383337"><ele>807.9999999999999</ele><time>2026-03-24T10:58:44.372Z</time></trkpt><trkpt lat="46.6139767" lon="10.7384424"><ele>808.0</ele><time>2026-03-24T10:58:45.38Z</time></trkpt><trkpt lat="46.6139759" lon="10.7385376"><ele>808.0</ele><time>2026-03-24T10:58:46.366Z</time></trkpt><trkpt lat="46.613974" lon="10.73863"><ele>808.0</ele><time>2026-03-24T10:58:47.365Z</time></trkpt><trkpt lat="46.6139489" lon="10.7388068"><ele>807.9999999999999</ele><time>2026-03-24T10:58:49.374Z</time></trkpt><trkpt lat="46.6139199" lon="10.7389556"><ele>808.0</ele><time>2026-03-24T10:58:51.381Z</time></trkpt><trkpt lat="46.6138751" lon="10.7391115"><ele>806.8</ele><time>2026-03-24T10:58:53.359Z</time></trkpt><trkpt lat="46.613833" lon="10.7392759"><ele>805.5999999999999</ele><time>2026-03-24T10:58:55.367Z</time></trkpt><trkpt lat="46.6137975" lon="10.7394269"><ele>804.4000000000001</ele><time>2026-03-24T10:58:57.386Z</time></trkpt><trkpt lat="46.6137771" lon="10.7395771"><ele>803.2</ele><time>2026-03-24T10:58:59.364Z</time></trkpt><trkpt lat="46.6137744" lon="10.7397338"><ele>802.0</ele><time>2026-03-24T10:59:01.361Z</time></trkpt><trkpt lat="46.6137532" lon="10.7398608"><ele>801.8571428571429</ele><time>2026-03-24T10:59:03.362Z</time></trkpt><trkpt lat="46.6137123" lon="10.7399662"><ele>801.7142857142858</ele><time>2026-03-24T10:59:06.362Z</time></trkpt><trkpt lat="46.6136787" lon="10.7400628"><ele>801.5714285714286</ele><time>2026-03-24T10:59:09.36Z</time></trkpt><trkpt lat="46.6136319" lon="10.7401441"><ele>801.4285714285714</ele><time>2026-03-24T10:59:12.368Z</time></trkpt><trkpt lat="46.6135763" lon="10.7402196"><ele>801.2857142857142</ele><time>2026-03-24T10:59:15.355Z</time></trkpt><trkpt lat="46.61353" lon="10.7402823"><ele>801.1428571428571</ele><time>2026-03-24T10:59:18.37Z</time></trkpt><trkpt lat="46.6135227" lon="10.7403755"><ele>801.0</ele><time>2026-03-24T11:01:03.344Z</time></trkpt><trkpt lat="46.6134919" lon="10.7402742"><ele>800.5</ele><time>2026-03-24T11:01:38.363Z</time></trkpt><trkpt lat="46.613534" lon="10.7401747"><ele>800.0</ele><time>2026-03-24T11:01:46.364Z</time></trkpt><trkpt lat="46.6135848" lon="10.7401012"><ele>799.5</ele><time>2026-03-24T11:01:51.358Z</time></trkpt><trkpt lat="46.6136355" lon="10.7400203"><ele>799.0</ele><time>2026-03-24T11:01:55.358Z</time></trkpt><trkpt lat="46.6136757" lon="10.7399491"><ele>798.5</ele><time>2026-03-24T11:01:59.357Z</time></trkpt><trkpt lat="46.6137008" lon="10.7398359"><ele>798.0</ele><time>2026-03-24T11:02:04.367Z</time></trkpt><trkpt lat="46.6137217" lon="10.7397266"><ele>797.7142857142857</ele><time>2026-03-24T11:02:08.394Z</time></trkpt><trkpt lat="46.6137243" lon="10.7396294"><ele>797.4285714285714</ele><time>2026-03-24T11:02:13.358Z</time></trkpt><trkpt lat="46.6137809" lon="10.7397007"><ele>797.1428571428571</ele><time>2026-03-24T11:02:49.365Z</time></trkpt><trkpt lat="46.6137891" lon="10.7397958"><ele>796.8571428571429</ele><time>2026-03-24T11:02:56.363Z</time></trkpt><trkpt lat="46.6137713" lon="10.7398948"><ele>796.5714285714286</ele><time>2026-03-24T11:03:02.319Z</time></trkpt><trkpt lat="46.6137508" lon="10.739983"><ele>796.2857142857142</ele><time>2026-03-24T11:03:38.365Z</time></trkpt><trkpt lat="46.6137184" lon="10.740066"><ele>796.0</ele><time>2026-03-24T11:03:44.366Z</time></trkpt><trkpt lat="46.6136663" lon="10.7401477"><ele>796.3333333333333</ele><time>2026-03-24T11:03:51.359Z</time></trkpt><trkpt lat="46.613622" lon="10.7402134"><ele>796.6666666666666</ele><time>2026-03-24T11:03:59.371Z</time></trkpt><trkpt lat="46.6135587" lon="10.7402541"><ele>797.0</ele><time>2026-03-24T11:04:16.369Z</time></trkpt><trkpt lat="46.6135781" lon="10.7403991"><ele>797.3333333333333</ele><time>2026-03-24T11:04:18.379Z</time></trkpt><trkpt lat="46.6136085" lon="10.7405228"><ele>797.6666666666666</ele><time>2026-03-24T11:04:19.366Z</time></trkpt><trkpt lat="46.6136411" lon="10.740624"><ele>798.0</ele><time>2026-03-24T11:04:20.362Z</time></trkpt><trkpt lat="46.6136753" lon="10.7407155"><ele>795.8333333333334</ele><time>2026-03-24T11:04:21.362Z</time></trkpt><trkpt lat="46.61371" lon="10.7408041"><ele>793.6666666666667</ele><time>2026-03-24T11:04:22.371Z</time></trkpt><trkpt lat="46.613743" lon="10.7408913"><ele>791.5</ele><time>2026-03-24T11:04:23.363Z</time></trkpt><trkpt lat="46.6137736" lon="10.7409751"><ele>789.3333333333334</ele><time>2026-03-24T11:04:24.368Z</time></trkpt><trkpt lat="46.6138263" lon="10.7411256"><ele>787.1666666666667</ele><time>2026-03-24T11:04:26.36Z</time></trkpt><trkpt lat="46.6138688" lon="10.7412707"><ele>785.0</ele><time>2026-03-24T11:04:28.364Z</time></trkpt><trkpt lat="46.6138965" lon="10.741428"><ele>784.2</ele><time>2026-03-24T11:04:30.367Z</time></trkpt><trkpt lat="46.6139002" lon="10.7416111"><ele>783.4</ele><time>2026-03-24T11:04:32.372Z</time></trkpt><trkpt lat="46.6138988" lon="10.7417847"><ele>782.5999999999999</ele><time>2026-03-24T11:04:34.371Z</time></trkpt><trkpt lat="46.6139108" lon="10.7419728"><ele>781.8</ele><time>2026-03-24T11:04:36.374Z</time></trkpt><trkpt lat="46.6139177" lon="10.7420739"><ele>781.0</ele><time>2026-03-24T11:04:37.366Z</time></trkpt><trkpt lat="46.6139252" lon="10.7421812"><ele>781.0</ele><time>2026-03-24T11:04:38.375Z</time></trkpt><trkpt lat="46.6139322" lon="10.742285"><ele>781.0</ele><time>2026-03-24T11:04:39.362Z</time></trkpt><trkpt lat="46.6139361" lon="10.7423852"><ele>781.0</ele><time>2026-03-24T11:04:40.376Z</time></trkpt><trkpt lat="46.6139376" lon="10.7424839"><ele>781.0</ele><time>2026-03-24T11:04:41.375Z</time></trkpt><trkpt lat="46.6139419" lon="10.7425819"><ele>781.0</ele><time>2026-03-24T11:04:42.371Z</time></trkpt><trkpt lat="46.6139493" lon="10.74268"><ele>781.0</ele><time>2026-03-24T11:04:43.37Z</time></trkpt><trkpt lat="46.613962" lon="10.7427812"><ele>781.0</ele><time>2026-03-24T11:04:44.37Z</time></trkpt><trkpt lat="46.6139798" lon="10.7428841"><ele>780.6666666666666</ele><time>2026-03-24T11:04:45.369Z</time></trkpt><trkpt lat="46.6140025" lon="10.7429898"><ele>780.3333333333333</ele><time>2026-03-24T11:04:46.365Z</time></trkpt><trkpt lat="46.6140309" lon="10.7430961"><ele>780.0</ele><time>2026-03-24T11:04:47.363Z</time></trkpt><trkpt lat="46.6140574" lon="10.7432045"><ele>779.6666666666667</ele><time>2026-03-24T11:04:48.368Z</time></trkpt><trkpt lat="46.6140847" lon="10.7433131"><ele>779.3333333333334</ele><time>2026-03-24T11:04:49.37Z</time></trkpt><trkpt lat="46.614111" lon="10.7434163"><ele>779.0</ele><time>2026-03-24T11:04:50.371Z</time></trkpt><trkpt lat="46.6141414" lon="10.7435114"><ele>779.1428571428572</ele><time>2026-03-24T11:04:51.369Z</time></trkpt><trkpt lat="46.6141789" lon="10.7435997"><ele>779.2857142857143</ele><time>2026-03-24T11:04:52.368Z</time></trkpt><trkpt lat="46.6142248" lon="10.7436812"><ele>779.4285714285714</ele><time>2026-03-24T11:04:53.369Z</time></trkpt><trkpt lat="46.6142738" lon="10.7437619"><ele>779.5714285714287</ele><time>2026-03-24T11:04:54.369Z</time></trkpt><trkpt lat="46.6143212" lon="10.7438462"><ele>779.7142857142857</ele><time>2026-03-24T11:04:55.373Z</time></trkpt><trkpt lat="46.6143668" lon="10.7439309"><ele>779.8571428571429</ele><time>2026-03-24T11:04:56.366Z</time></trkpt><trkpt lat="46.6144093" lon="10.7440159"><ele>780.0</ele><time>2026-03-24T11:04:57.362Z</time></trkpt><trkpt lat="46.6144501" lon="10.7440998"><ele>779.4285714285714</ele><time>2026-03-24T11:04:58.35Z</time></trkpt><trkpt lat="46.6144887" lon="10.7441835"><ele>778.8571428571429</ele><time>2026-03-24T11:04:59.371Z</time></trkpt><trkpt lat="46.6145259" lon="10.7442678"><ele>778.2857142857142</ele><time>2026-03-24T11:05:00.367Z</time></trkpt><trkpt lat="46.6145652" lon="10.7443518"><ele>777.7142857142858</ele><time>2026-03-24T11:05:01.376Z</time></trkpt><trkpt lat="46.6146093" lon="10.7444359"><ele>777.1428571428572</ele><time>2026-03-24T11:05:02.37Z</time></trkpt><trkpt lat="46.6146595" lon="10.7445231"><ele>776.5714285714286</ele><time>2026-03-24T11:05:03.369Z</time></trkpt><trkpt lat="46.6147166" lon="10.7446131"><ele>776.0</ele><time>2026-03-24T11:05:04.365Z</time></trkpt><trkpt lat="46.6147809" lon="10.7447063"><ele>775.1666666666667</ele><time>2026-03-24T11:05:05.368Z</time></trkpt><trkpt lat="46.6148479" lon="10.7448037"><ele>774.3333333333334</ele><time>2026-03-24T11:05:06.373Z</time></trkpt><trkpt lat="46.6149115" lon="10.7449048"><ele>773.5</ele><time>2026-03-24T11:05:07.374Z</time></trkpt><trkpt lat="46.6149606" lon="10.7450122"><ele>772.6666666666667</ele><time>2026-03-24T11:05:08.363Z</time></trkpt><trkpt lat="46.61499" lon="10.7451263"><ele>771.8333333333334</ele><time>2026-03-24T11:05:09.38Z</time></trkpt><trkpt lat="46.6150037" lon="10.745228"><ele>771.0</ele><time>2026-03-24T11:05:10.366Z</time></trkpt><trkpt lat="46.6150165" lon="10.7454065"><ele>770.5714285714286</ele><time>2026-03-24T11:05:12.36Z</time></trkpt><trkpt lat="46.6150169" lon="10.7455039"><ele>770.1428571428571</ele><time>2026-03-24T11:05:13.368Z</time></trkpt><trkpt lat="46.615022" lon="10.7455998"><ele>769.7142857142857</ele><time>2026-03-24T11:05:14.369Z</time></trkpt><trkpt lat="46.6150272" lon="10.7456954"><ele>769.2857142857142</ele><time>2026-03-24T11:05:15.365Z</time></trkpt><trkpt lat="46.6150346" lon="10.7457964"><ele>768.8571428571429</ele><time>2026-03-24T11:05:16.371Z</time></trkpt><trkpt lat="46.6150443" lon="10.7458977"><ele>768.4285714285713</ele><time>2026-03-24T11:05:17.357Z</time></trkpt><trkpt lat="46.6150612" lon="10.7460079"><ele>768.0</ele><time>2026-03-24T11:05:18.365Z</time></trkpt><trkpt lat="46.6150763" lon="10.7461195"><ele>767.8571428571428</ele><time>2026-03-24T11:05:19.368Z</time></trkpt><trkpt lat="46.6150821" lon="10.7462367"><ele>767.7142857142857</ele><time>2026-03-24T11:05:20.366Z</time></trkpt><trkpt lat="46.6150858" lon="10.7463487"><ele>767.5714285714286</ele><time>2026-03-24T11:05:21.369Z</time></trkpt><trkpt lat="46.6150894" lon="10.7464511"><ele>767.4285714285713</ele><time>2026-03-24T11:05:22.37Z</time></trkpt><trkpt lat="46.6150963" lon="10.7465481"><ele>767.2857142857143</ele><time>2026-03-24T11:05:23.378Z</time></trkpt><trkpt lat="46.6151067" lon="10.746646"><ele>767.1428571428571</ele><time>2026-03-24T11:05:24.365Z</time></trkpt><trkpt lat="46.6151187" lon="10.7467395"><ele>767.0</ele><time>2026-03-24T11:05:25.37Z</time></trkpt><trkpt lat="46.615164" lon="10.7469037"><ele>766.8333333333333</ele><time>2026-03-24T11:05:27.37Z</time></trkpt><trkpt lat="46.6152581" lon="10.7470059"><ele>766.6666666666666</ele><time>2026-03-24T11:05:29.368Z</time></trkpt><trkpt lat="46.6153089" lon="10.7470608"><ele>766.5</ele><time>2026-03-24T11:05:30.369Z</time></trkpt><trkpt lat="46.6153596" lon="10.7471219"><ele>766.3333333333334</ele><time>2026-03-24T11:05:31.374Z</time></trkpt><trkpt lat="46.615412" lon="10.7471901"><ele>766.1666666666667</ele><time>2026-03-24T11:05:32.373Z</time></trkpt><trkpt lat="46.61546" lon="10.7472618"><ele>766.0</ele><time>2026-03-24T11:05:33.366Z</time></trkpt><trkpt lat="46.6155078" lon="10.7473373"><ele>766.0</ele><time>2026-03-24T11:05:34.373Z</time></trkpt><trkpt lat="46.6155545" lon="10.7474081"><ele>766.0</ele><time>2026-03-24T11:05:35.368Z</time></trkpt><trkpt lat="46.615636" lon="10.7475235"><ele>766.0</ele><time>2026-03-24T11:05:37.37Z</time></trkpt><trkpt lat="46.6157215" lon="10.7475958"><ele>766.0</ele><time>2026-03-24T11:05:39.367Z</time></trkpt><trkpt lat="46.6157996" lon="10.7476492"><ele>766.0</ele><time>2026-03-24T11:05:41.365Z</time></trkpt><trkpt lat="46.6158788" lon="10.7476996"><ele>766.4</ele><time>2026-03-24T11:05:43.379Z</time></trkpt><trkpt lat="46.6159616" lon="10.7477556"><ele>766.8</ele><time>2026-03-24T11:05:45.373Z</time></trkpt><trkpt lat="46.6160525" lon="10.7478279"><ele>767.1999999999999</ele><time>2026-03-24T11:05:47.373Z</time></trkpt><trkpt lat="46.6161459" lon="10.7479096"><ele>767.5999999999999</ele><time>2026-03-24T11:05:49.374Z</time></trkpt><trkpt lat="46.6162281" lon="10.7479823"><ele>768.0</ele><time>2026-03-24T11:05:51.382Z</time></trkpt><trkpt lat="46.6162989" lon="10.7480261"><ele>768.0</ele><time>2026-03-24T11:05:53.369Z</time></trkpt><trkpt lat="46.616397" lon="10.7480618"><ele>768.0</ele><time>2026-03-24T11:05:55.373Z</time></trkpt><trkpt lat="46.616502" lon="10.7481024"><ele>768.0</ele><time>2026-03-24T11:05:57.375Z</time></trkpt><trkpt lat="46.6166012" lon="10.7481823"><ele>768.0</ele><time>2026-03-24T11:05:59.366Z</time></trkpt><trkpt lat="46.6166919" lon="10.7482981"><ele>768.0</ele><time>2026-03-24T11:06:01.37Z</time></trkpt><trkpt lat="46.6167747" lon="10.7484241"><ele>769.0</ele><time>2026-03-24T11:06:03.365Z</time></trkpt><trkpt lat="46.616855" lon="10.7485568"><ele>770.0</ele><time>2026-03-24T11:06:05.372Z</time></trkpt><trkpt lat="46.6169283" lon="10.7486959"><ele>771.0</ele><time>2026-03-24T11:06:07.381Z</time></trkpt><trkpt lat="46.6170008" lon="10.7488372"><ele>772.0</ele><time>2026-03-24T11:06:09.367Z</time></trkpt><trkpt lat="46.6170646" lon="10.7489854"><ele>770.0</ele><time>2026-03-24T11:06:11.371Z</time></trkpt><trkpt lat="46.6171328" lon="10.749126"><ele>768.0</ele><time>2026-03-24T11:06:13.37Z</time></trkpt><trkpt lat="46.6172039" lon="10.7492619"><ele>766.0</ele><time>2026-03-24T11:06:15.379Z</time></trkpt><trkpt lat="46.6172644" lon="10.7494108"><ele>764.0</ele><time>2026-03-24T11:06:17.374Z</time></trkpt><trkpt lat="46.6173005" lon="10.749588"><ele>763.6</ele><time>2026-03-24T11:06:19.367Z</time></trkpt><trkpt lat="46.6173103" lon="10.7496802"><ele>763.2</ele><time>2026-03-24T11:06:20.381Z</time></trkpt><trkpt lat="46.6173354" lon="10.749857"><ele>762.8000000000001</ele><time>2026-03-24T11:06:22.368Z</time></trkpt><trkpt lat="46.6173968" lon="10.7500129"><ele>762.4000000000001</ele><time>2026-03-24T11:06:24.367Z</time></trkpt><trkpt lat="46.61747" lon="10.7501366"><ele>762.0</ele><time>2026-03-24T11:06:26.365Z</time></trkpt><trkpt lat="46.6175654" lon="10.7501794"><ele>761.6</ele><time>2026-03-24T11:06:28.374Z</time></trkpt><trkpt lat="46.6176832" lon="10.7502152"><ele>761.2</ele><time>2026-03-24T11:06:30.372Z</time></trkpt><trkpt lat="46.617783" lon="10.750295"><ele>760.8</ele><time>2026-03-24T11:06:32.37Z</time></trkpt><trkpt lat="46.6178633" lon="10.7504034"><ele>760.4</ele><time>2026-03-24T11:06:34.366Z</time></trkpt><trkpt lat="46.6178939" lon="10.7504985"><ele>760.0</ele><time>2026-03-24T11:06:35.37Z</time></trkpt><trkpt lat="46.6179198" lon="10.7505884"><ele>760.0</ele><time>2026-03-24T11:06:36.386Z</time></trkpt><trkpt lat="46.6179401" lon="10.7506792"><ele>760.0</ele><time>2026-03-24T11:06:37.366Z</time></trkpt><trkpt lat="46.6179614" lon="10.7507695"><ele>760.0</ele><time>2026-03-24T11:06:38.359Z</time></trkpt><trkpt lat="46.6179838" lon="10.7508621"><ele>760.0</ele><time>2026-03-24T11:06:39.376Z</time></trkpt><trkpt lat="46.6180254" lon="10.751033"><ele>760.0</ele><time>2026-03-24T11:06:41.372Z</time></trkpt><trkpt lat="46.6180586" lon="10.7511939"><ele>760.0</ele><time>2026-03-24T11:06:43.374Z</time></trkpt><trkpt lat="46.6180917" lon="10.7513457"><ele>759.4</ele><time>2026-03-24T11:06:45.367Z</time></trkpt><trkpt lat="46.6181172" lon="10.7515037"><ele>758.8</ele><time>2026-03-24T11:06:47.368Z</time></trkpt><trkpt lat="46.6181384" lon="10.7516516"><ele>758.2</ele><time>2026-03-24T11:06:49.382Z</time></trkpt><trkpt lat="46.6181626" lon="10.7517988"><ele>757.6</ele><time>2026-03-24T11:06:51.374Z</time></trkpt><trkpt lat="46.6182033" lon="10.7519581"><ele>757.0</ele><time>2026-03-24T11:06:53.366Z</time></trkpt><trkpt lat="46.6182272" lon="10.7520437"><ele>756.2</ele><time>2026-03-24T11:06:54.375Z</time></trkpt><trkpt lat="46.6182521" lon="10.7521343"><ele>755.4000000000001</ele><time>2026-03-24T11:06:55.374Z</time></trkpt><trkpt lat="46.6182755" lon="10.7522303"><ele>754.5999999999999</ele><time>2026-03-24T11:06:56.377Z</time></trkpt><trkpt lat="46.6182942" lon="10.7523271"><ele>753.8</ele><time>2026-03-24T11:06:57.367Z</time></trkpt><trkpt lat="46.6182995" lon="10.7525042"><ele>753.0</ele><time>2026-03-24T11:06:59.37Z</time></trkpt><trkpt lat="46.6182959" lon="10.7526857"><ele>752.3333333333334</ele><time>2026-03-24T11:07:01.382Z</time></trkpt><trkpt lat="46.6182955" lon="10.7527856"><ele>751.6666666666666</ele><time>2026-03-24T11:07:02.373Z</time></trkpt><trkpt lat="46.6182979" lon="10.7528922"><ele>751.0</ele><time>2026-03-24T11:07:03.373Z</time></trkpt><trkpt lat="46.6182987" lon="10.7530057"><ele>750.3333333333333</ele><time>2026-03-24T11:07:04.375Z</time></trkpt><trkpt lat="46.6182991" lon="10.7531255"><ele>749.6666666666666</ele><time>2026-03-24T11:07:05.367Z</time></trkpt><trkpt lat="46.6182917" lon="10.7532478"><ele>749.0</ele><time>2026-03-24T11:07:06.374Z</time></trkpt><trkpt lat="46.6182768" lon="10.7533742"><ele>749.0</ele><time>2026-03-24T11:07:07.368Z</time></trkpt><trkpt lat="46.6182607" lon="10.7535076"><ele>749.0</ele><time>2026-03-24T11:07:08.373Z</time></trkpt><trkpt lat="46.6182497" lon="10.7536479"><ele>749.0</ele><time>2026-03-24T11:07:09.371Z</time></trkpt><trkpt lat="46.6182422" lon="10.7537926"><ele>749.0</ele><time>2026-03-24T11:07:10.374Z</time></trkpt><trkpt lat="46.6182356" lon="10.753941"><ele>749.0</ele><time>2026-03-24T11:07:11.377Z</time></trkpt><trkpt lat="46.6182368" lon="10.7540935"><ele>747.8000000000001</ele><time>2026-03-24T11:07:12.366Z</time></trkpt><trkpt lat="46.6182429" lon="10.7542522"><ele>746.6</ele><time>2026-03-24T11:07:13.369Z</time></trkpt><trkpt lat="46.6182523" lon="10.7544147"><ele>745.4</ele><time>2026-03-24T11:07:14.379Z</time></trkpt><trkpt lat="46.6182627" lon="10.7545803"><ele>744.2</ele><time>2026-03-24T11:07:15.366Z</time></trkpt><trkpt lat="46.6182722" lon="10.7547402"><ele>743.0</ele><time>2026-03-24T11:07:16.364Z</time></trkpt><trkpt lat="46.6182771" lon="10.7549044"><ele>742.75</ele><time>2026-03-24T11:07:17.368Z</time></trkpt><trkpt lat="46.618284" lon="10.7550715"><ele>742.5</ele><time>2026-03-24T11:07:18.379Z</time></trkpt><trkpt lat="46.6182902" lon="10.755233"><ele>742.25</ele><time>2026-03-24T11:07:19.378Z</time></trkpt><trkpt lat="46.6182937" lon="10.755397"><ele>742.0</ele><time>2026-03-24T11:07:20.371Z</time></trkpt><trkpt lat="46.6182978" lon="10.7555622"><ele>742.0</ele><time>2026-03-24T11:07:21.366Z</time></trkpt><trkpt lat="46.6182974" lon="10.7557326"><ele>742.0</ele><time>2026-03-24T11:07:22.382Z</time></trkpt><trkpt lat="46.6182994" lon="10.7558942"><ele>742.0</ele><time>2026-03-24T11:07:23.365Z</time></trkpt><trkpt lat="46.6183058" lon="10.7560647"><ele>742.0</ele><time>2026-03-24T11:07:24.373Z</time></trkpt><trkpt lat="46.6183108" lon="10.7562371"><ele>742.4000000000001</ele><time>2026-03-24T11:07:25.368Z</time></trkpt><trkpt lat="46.6183185" lon="10.7564069"><ele>742.8000000000001</ele><time>2026-03-24T11:07:26.374Z</time></trkpt><trkpt lat="46.6183408" lon="10.7565696"><ele>743.2</ele><time>2026-03-24T11:07:27.367Z</time></trkpt><trkpt lat="46.6183685" lon="10.7567256"><ele>743.6</ele><time>2026-03-24T11:07:28.364Z</time></trkpt><trkpt lat="46.6183984" lon="10.7568731"><ele>744.0</ele><time>2026-03-24T11:07:29.364Z</time></trkpt><trkpt lat="46.6184291" lon="10.757016"><ele>744.8000000000001</ele><time>2026-03-24T11:07:30.377Z</time></trkpt><trkpt lat="46.6184576" lon="10.7571481"><ele>745.6</ele><time>2026-03-24T11:07:31.369Z</time></trkpt><trkpt lat="46.6184853" lon="10.7572752"><ele>746.4</ele><time>2026-03-24T11:07:32.375Z</time></trkpt><trkpt lat="46.6185191" lon="10.757419"><ele>747.2</ele><time>2026-03-24T11:07:33.368Z</time></trkpt><trkpt lat="46.618556" lon="10.7575527"><ele>748.0</ele><time>2026-03-24T11:07:34.366Z</time></trkpt><trkpt lat="46.618587" lon="10.7576794"><ele>750.1666666666667</ele><time>2026-03-24T11:07:35.37Z</time></trkpt><trkpt lat="46.6186163" lon="10.757809"><ele>752.3333333333334</ele><time>2026-03-24T11:07:36.367Z</time></trkpt><trkpt lat="46.6186485" lon="10.757933"><ele>754.5</ele><time>2026-03-24T11:07:37.367Z</time></trkpt><trkpt lat="46.6186749" lon="10.7580546"><ele>756.6666666666666</ele><time>2026-03-24T11:07:38.371Z</time></trkpt><trkpt lat="46.6187023" lon="10.7581689"><ele>758.8333333333333</ele><time>2026-03-24T11:07:39.381Z</time></trkpt><trkpt lat="46.6187265" lon="10.7582758"><ele>761.0</ele><time>2026-03-24T11:07:40.366Z</time></trkpt><trkpt lat="46.6187493" lon="10.7583721"><ele>756.5</ele><time>2026-03-24T11:07:41.379Z</time></trkpt><trkpt lat="46.6187735" lon="10.7584716"><ele>752.0</ele><time>2026-03-24T11:07:42.371Z</time></trkpt><trkpt lat="46.6187958" lon="10.7585702"><ele>747.5</ele><time>2026-03-24T11:07:43.368Z</time></trkpt><trkpt lat="46.6188207" lon="10.7586666"><ele>743.0</ele><time>2026-03-24T11:07:44.362Z</time></trkpt><trkpt lat="46.6188769" lon="10.7588402"><ele>738.5</ele><time>2026-03-24T11:07:46.366Z</time></trkpt><trkpt lat="46.6189143" lon="10.7589364"><ele>734.0</ele><time>2026-03-24T11:07:47.37Z</time></trkpt><trkpt lat="46.6189565" lon="10.7590403"><ele>734.0</ele><time>2026-03-24T11:07:48.373Z</time></trkpt><trkpt lat="46.6190036" lon="10.759149"><ele>734.0</ele><time>2026-03-24T11:07:49.376Z</time></trkpt><trkpt lat="46.6190437" lon="10.7592569"><ele>734.0</ele><time>2026-03-24T11:07:50.376Z</time></trkpt><trkpt lat="46.6190817" lon="10.7593723"><ele>734.0</ele><time>2026-03-24T11:07:51.367Z</time></trkpt><trkpt lat="46.6191138" lon="10.7594905"><ele>734.0</ele><time>2026-03-24T11:07:52.37Z</time></trkpt><trkpt lat="46.6191395" lon="10.7596172"><ele>734.0</ele><time>2026-03-24T11:07:53.37Z</time></trkpt><trkpt lat="46.6191605" lon="10.7597413"><ele>734.6666666666666</ele><time>2026-03-24T11:07:54.376Z</time></trkpt><trkpt lat="46.6191783" lon="10.7598615"><ele>735.3333333333333</ele><time>2026-03-24T11:07:55.371Z</time></trkpt><trkpt lat="46.6191977" lon="10.7599724"><ele>736.0</ele><time>2026-03-24T11:07:56.376Z</time></trkpt><trkpt lat="46.6192167" lon="10.7600755"><ele>736.6666666666666</ele><time>2026-03-24T11:07:57.382Z</time></trkpt><trkpt lat="46.6192354" lon="10.7601795"><ele>737.3333333333334</ele><time>2026-03-24T11:07:58.374Z</time></trkpt><trkpt lat="46.619256" lon="10.7602834"><ele>738.0</ele><time>2026-03-24T11:07:59.382Z</time></trkpt><trkpt lat="46.6192792" lon="10.7603868"><ele>739.4285714285714</ele><time>2026-03-24T11:08:00.369Z</time></trkpt><trkpt lat="46.6193031" lon="10.7604869"><ele>740.8571428571429</ele><time>2026-03-24T11:08:01.379Z</time></trkpt><trkpt lat="46.6193312" lon="10.7605799"><ele>742.2857142857142</ele><time>2026-03-24T11:08:02.377Z</time></trkpt><trkpt lat="46.6193632" lon="10.7606715"><ele>743.7142857142858</ele><time>2026-03-24T11:08:03.385Z</time></trkpt><trkpt lat="46.6193944" lon="10.7607677"><ele>745.1428571428572</ele><time>2026-03-24T11:08:04.368Z</time></trkpt><trkpt lat="46.6194247" lon="10.7608701"><ele>746.5714285714286</ele><time>2026-03-24T11:08:05.368Z</time></trkpt><trkpt lat="46.6194573" lon="10.7609748"><ele>748.0</ele><time>2026-03-24T11:08:06.375Z</time></trkpt><trkpt lat="46.6194903" lon="10.7610774"><ele>744.5</ele><time>2026-03-24T11:08:07.367Z</time></trkpt><trkpt lat="46.6195307" lon="10.7611731"><ele>741.0</ele><time>2026-03-24T11:08:08.378Z</time></trkpt><trkpt lat="46.6195719" lon="10.7612656"><ele>737.5</ele><time>2026-03-24T11:08:09.364Z</time></trkpt><trkpt lat="46.619614" lon="10.7613666"><ele>734.0</ele><time>2026-03-24T11:08:10.375Z</time></trkpt><trkpt lat="46.6196582" lon="10.7614686"><ele>730.5</ele><time>2026-03-24T11:08:11.367Z</time></trkpt><trkpt lat="46.6197018" lon="10.7615731"><ele>727.0</ele><time>2026-03-24T11:08:12.369Z</time></trkpt><trkpt lat="46.6197471" lon="10.7616754"><ele>727.0</ele><time>2026-03-24T11:08:13.365Z</time></trkpt><trkpt lat="46.6197941" lon="10.761778"><ele>727.0</ele><time>2026-03-24T11:08:14.371Z</time></trkpt><trkpt lat="46.6198396" lon="10.7618773"><ele>727.0</ele><time>2026-03-24T11:08:15.366Z</time></trkpt><trkpt lat="46.6198923" lon="10.7619705"><ele>727.0</ele><time>2026-03-24T11:08:16.375Z</time></trkpt><trkpt lat="46.6199463" lon="10.7620542"><ele>727.0</ele><time>2026-03-24T11:08:17.383Z</time></trkpt><trkpt lat="46.6200074" lon="10.7621258"><ele>727.0</ele><time>2026-03-24T11:08:18.373Z</time></trkpt><trkpt lat="46.6200618" lon="10.762188"><ele>728.6</ele><time>2026-03-24T11:08:19.358Z</time></trkpt><trkpt lat="46.620159" lon="10.762292"><ele>730.2</ele><time>2026-03-24T11:08:21.369Z</time></trkpt><trkpt lat="46.620191" lon="10.7623729"><ele>731.8</ele><time>2026-03-24T11:08:22.378Z</time></trkpt><trkpt lat="46.6202348" lon="10.7625427"><ele>733.4</ele><time>2026-03-24T11:08:24.371Z</time></trkpt><trkpt lat="46.6202713" lon="10.7627079"><ele>735.0</ele><time>2026-03-24T11:08:26.379Z</time></trkpt><trkpt lat="46.6203131" lon="10.7628637"><ele>733.6</ele><time>2026-03-24T11:08:28.374Z</time></trkpt><trkpt lat="46.6203636" lon="10.7630227"><ele>732.2</ele><time>2026-03-24T11:08:30.369Z</time></trkpt><trkpt lat="46.6204239" lon="10.7631649"><ele>730.8</ele><time>2026-03-24T11:08:32.363Z</time></trkpt><trkpt lat="46.6204938" lon="10.7632981"><ele>729.4</ele><time>2026-03-24T11:08:34.364Z</time></trkpt><trkpt lat="46.6205291" lon="10.7633768"><ele>728.0</ele><time>2026-03-24T11:08:35.371Z</time></trkpt><trkpt lat="46.6205862" lon="10.7635343"><ele>727.4285714285714</ele><time>2026-03-24T11:08:37.363Z</time></trkpt><trkpt lat="46.6206055" lon="10.7636247"><ele>726.8571428571429</ele><time>2026-03-24T11:08:38.377Z</time></trkpt><trkpt lat="46.6206252" lon="10.7637158"><ele>726.2857142857142</ele><time>2026-03-24T11:08:39.366Z</time></trkpt><trkpt lat="46.6206591" lon="10.763799"><ele>725.7142857142858</ele><time>2026-03-24T11:08:41.369Z</time></trkpt><trkpt lat="46.6207387" lon="10.7637952"><ele>725.1428571428571</ele><time>2026-03-24T11:08:46.371Z</time></trkpt><trkpt lat="46.6208114" lon="10.7637737"><ele>724.5714285714286</ele><time>2026-03-24T11:08:48.376Z</time></trkpt><trkpt lat="46.6208876" lon="10.7637342"><ele>724.0</ele><time>2026-03-24T11:08:50.367Z</time></trkpt><trkpt lat="46.6209666" lon="10.7636838"><ele>724.0</ele><time>2026-03-24T11:08:52.373Z</time></trkpt><trkpt lat="46.6210477" lon="10.76365"><ele>724.0</ele><time>2026-03-24T11:08:54.378Z</time></trkpt><trkpt lat="46.6211155" lon="10.7636369"><ele>724.0</ele><time>2026-03-24T11:08:56.37Z</time></trkpt><trkpt lat="46.6211858" lon="10.763704"><ele>724.0</ele><time>2026-03-24T11:08:59.36Z</time></trkpt><trkpt lat="46.6212157" lon="10.7637943"><ele>724.0</ele><time>2026-03-24T11:09:01.373Z</time></trkpt><trkpt lat="46.6212691" lon="10.7638461"><ele>724.0</ele><time>2026-03-24T11:09:03.365Z</time></trkpt><trkpt lat="46.621338" lon="10.7638711"><ele>724.0</ele><time>2026-03-24T11:09:05.37Z</time></trkpt><trkpt lat="46.6214256" lon="10.763887"><ele>724.8571428571429</ele><time>2026-03-24T11:09:08.367Z</time></trkpt><trkpt lat="46.6214881" lon="10.7639275"><ele>725.7142857142857</ele><time>2026-03-24T11:09:10.371Z</time></trkpt><trkpt lat="46.621558" lon="10.7639587"><ele>726.5714285714287</ele><time>2026-03-24T11:09:12.369Z</time></trkpt><trkpt lat="46.6216228" lon="10.7639779"><ele>727.4285714285714</ele><time>2026-03-24T11:09:14.375Z</time></trkpt><trkpt lat="46.6217103" lon="10.764002"><ele>728.2857142857143</ele><time>2026-03-24T11:09:17.366Z</time></trkpt><trkpt lat="46.6217762" lon="10.7640428"><ele>729.1428571428572</ele><time>2026-03-24T11:09:19.369Z</time></trkpt><trkpt lat="46.6218273" lon="10.7641046"><ele>730.0</ele><time>2026-03-24T11:09:21.361Z</time></trkpt><trkpt lat="46.6218573" lon="10.7642004"><ele>730.0</ele><time>2026-03-24T11:09:23.377Z</time></trkpt><trkpt lat="46.6218772" lon="10.7643095"><ele>730.0</ele><time>2026-03-24T11:09:25.373Z</time></trkpt><trkpt lat="46.6218997" lon="10.7644179"><ele>730.0</ele><time>2026-03-24T11:09:27.364Z</time></trkpt><trkpt lat="46.621933" lon="10.7645336"><ele>730.0</ele><time>2026-03-24T11:09:29.371Z</time></trkpt><trkpt lat="46.6219718" lon="10.7646593"><ele>730.0</ele><time>2026-03-24T11:09:31.365Z</time></trkpt><trkpt lat="46.6220154" lon="10.7647878"><ele>730.0</ele><time>2026-03-24T11:09:33.364Z</time></trkpt><trkpt lat="46.622067" lon="10.7649149"><ele>729.8</ele><time>2026-03-24T11:09:35.376Z</time></trkpt><trkpt lat="46.622126" lon="10.7650429"><ele>729.6</ele><time>2026-03-24T11:09:37.361Z</time></trkpt><trkpt lat="46.6221932" lon="10.7651593"><ele>729.4000000000001</ele><time>2026-03-24T11:09:39.38Z</time></trkpt><trkpt lat="46.6222571" lon="10.7652689"><ele>729.2</ele><time>2026-03-24T11:09:41.37Z</time></trkpt><trkpt lat="46.622325" lon="10.7653754"><ele>729.0</ele><time>2026-03-24T11:09:43.369Z</time></trkpt><trkpt lat="46.6223929" lon="10.7654826"><ele>729.0</ele><time>2026-03-24T11:09:45.372Z</time></trkpt><trkpt lat="46.6224671" lon="10.7656016"><ele>729.0</ele><time>2026-03-24T11:09:47.363Z</time></trkpt><trkpt lat="46.6225496" lon="10.7657371"><ele>729.0</ele><time>2026-03-24T11:09:49.373Z</time></trkpt><trkpt lat="46.622593" lon="10.7658091"><ele>729.0</ele><time>2026-03-24T11:09:50.378Z</time></trkpt><trkpt lat="46.6226378" lon="10.7658814"><ele>729.0</ele><time>2026-03-24T11:09:51.371Z</time></trkpt><trkpt lat="46.6226816" lon="10.7659558"><ele>729.0</ele><time>2026-03-24T11:09:52.36Z</time></trkpt><trkpt lat="46.6227335" lon="10.7660287"><ele>728.6666666666666</ele><time>2026-03-24T11:09:53.36Z</time></trkpt><trkpt lat="46.6227893" lon="10.7661048"><ele>728.3333333333334</ele><time>2026-03-24T11:09:54.373Z</time></trkpt><trkpt lat="46.6228482" lon="10.7661843"><ele>728.0</ele><time>2026-03-24T11:09:55.373Z</time></trkpt><trkpt lat="46.6229056" lon="10.7662737"><ele>727.6666666666667</ele><time>2026-03-24T11:09:56.372Z</time></trkpt><trkpt lat="46.6229554" lon="10.7663762"><ele>727.3333333333334</ele><time>2026-03-24T11:09:57.364Z</time></trkpt><trkpt lat="46.6230069" lon="10.7664795"><ele>727.0</ele><time>2026-03-24T11:09:58.366Z</time></trkpt><trkpt lat="46.6230631" lon="10.7665799"><ele>727.0</ele><time>2026-03-24T11:09:59.365Z</time></trkpt><trkpt lat="46.6231223" lon="10.7666778"><ele>727.0</ele><time>2026-03-24T11:10:00.367Z</time></trkpt><trkpt lat="46.6231825" lon="10.7667752"><ele>727.0</ele><time>2026-03-24T11:10:01.366Z</time></trkpt><trkpt lat="46.6232431" lon="10.7668741"><ele>727.0</ele><time>2026-03-24T11:10:02.369Z</time></trkpt><trkpt lat="46.6233065" lon="10.7669722"><ele>727.0</ele><time>2026-03-24T11:10:03.362Z</time></trkpt><trkpt lat="46.6233678" lon="10.7670689"><ele>727.5</ele><time>2026-03-24T11:10:04.369Z</time></trkpt><trkpt lat="46.6234286" lon="10.7671661"><ele>728.0</ele><time>2026-03-24T11:10:05.368Z</time></trkpt><trkpt lat="46.6234882" lon="10.7672623"><ele>728.5</ele><time>2026-03-24T11:10:06.365Z</time></trkpt><trkpt lat="46.623548" lon="10.767359"><ele>729.0</ele><time>2026-03-24T11:10:07.36Z</time></trkpt><trkpt lat="46.6236073" lon="10.7674563"><ele>729.5</ele><time>2026-03-24T11:10:08.369Z</time></trkpt><trkpt lat="46.6236644" lon="10.7675543"><ele>730.0</ele><time>2026-03-24T11:10:09.361Z</time></trkpt><trkpt lat="46.6237202" lon="10.7676509"><ele>728.6666666666667</ele><time>2026-03-24T11:10:10.368Z</time></trkpt><trkpt lat="46.6237753" lon="10.7677456"><ele>727.3333333333334</ele><time>2026-03-24T11:10:11.359Z</time></trkpt><trkpt lat="46.6238299" lon="10.7678408"><ele>726.0</ele><time>2026-03-24T11:10:12.376Z</time></trkpt><trkpt lat="46.6238866" lon="10.7679356"><ele>724.6666666666666</ele><time>2026-03-24T11:10:13.369Z</time></trkpt><trkpt lat="46.6239421" lon="10.7680326"><ele>723.3333333333333</ele><time>2026-03-24T11:10:14.373Z</time></trkpt><trkpt lat="46.6239964" lon="10.7681298"><ele>722.0</ele><time>2026-03-24T11:10:15.37Z</time></trkpt><trkpt lat="46.624052" lon="10.7682275"><ele>722.0</ele><time>2026-03-24T11:10:16.38Z</time></trkpt><trkpt lat="46.6241083" lon="10.7683245"><ele>722.0</ele><time>2026-03-24T11:10:17.374Z</time></trkpt><trkpt lat="46.6241664" lon="10.7684219"><ele>722.0</ele><time>2026-03-24T11:10:18.358Z</time></trkpt><trkpt lat="46.6242243" lon="10.7685208"><ele>722.0</ele><time>2026-03-24T11:10:19.358Z</time></trkpt><trkpt lat="46.6242806" lon="10.7686211"><ele>722.0</ele><time>2026-03-24T11:10:20.371Z</time></trkpt><trkpt lat="46.6243386" lon="10.7687199"><ele>722.0</ele><time>2026-03-24T11:10:21.367Z</time></trkpt><trkpt lat="46.6243964" lon="10.7688189"><ele>722.5</ele><time>2026-03-24T11:10:22.368Z</time></trkpt><trkpt lat="46.6244541" lon="10.7689167"><ele>723.0</ele><time>2026-03-24T11:10:23.361Z</time></trkpt><trkpt lat="46.6245125" lon="10.7690126"><ele>723.5</ele><time>2026-03-24T11:10:24.38Z</time></trkpt><trkpt lat="46.6245686" lon="10.7691102"><ele>724.0</ele><time>2026-03-24T11:10:25.372Z</time></trkpt><trkpt lat="46.6246266" lon="10.7692054"><ele>724.5</ele><time>2026-03-24T11:10:26.366Z</time></trkpt><trkpt lat="46.6246851" lon="10.7692995"><ele>725.0</ele><time>2026-03-24T11:10:27.366Z</time></trkpt><trkpt lat="46.6247441" lon="10.7693913"><ele>723.6666666666666</ele><time>2026-03-24T11:10:28.371Z</time></trkpt><trkpt lat="46.6248035" lon="10.7694839"><ele>722.3333333333333</ele><time>2026-03-24T11:10:29.371Z</time></trkpt><trkpt lat="46.6248627" lon="10.769574"><ele>721.0</ele><time>2026-03-24T11:10:30.364Z</time></trkpt><trkpt lat="46.6249228" lon="10.769662"><ele>719.6666666666666</ele><time>2026-03-24T11:10:31.37Z</time></trkpt><trkpt lat="46.6249825" lon="10.7697482"><ele>718.3333333333334</ele><time>2026-03-24T11:10:32.375Z</time></trkpt><trkpt lat="46.6250411" lon="10.7698324"><ele>717.0</ele><time>2026-03-24T11:10:33.366Z</time></trkpt><trkpt lat="46.6250958" lon="10.7699175"><ele>717.0</ele><time>2026-03-24T11:10:34.37Z</time></trkpt><trkpt lat="46.6251487" lon="10.7699982"><ele>717.0</ele><time>2026-03-24T11:10:35.364Z</time></trkpt><trkpt lat="46.6252001" lon="10.7700744"><ele>717.0</ele><time>2026-03-24T11:10:36.374Z</time></trkpt><trkpt lat="46.6252529" lon="10.7701421"><ele>717.0</ele><time>2026-03-24T11:10:37.369Z</time></trkpt><trkpt lat="46.6253083" lon="10.7702068"><ele>717.0</ele><time>2026-03-24T11:10:38.369Z</time></trkpt><trkpt lat="46.6253601" lon="10.7702763"><ele>717.0</ele><time>2026-03-24T11:10:39.365Z</time></trkpt><trkpt lat="46.6254074" lon="10.7703451"><ele>717.0</ele><time>2026-03-24T11:10:40.381Z</time></trkpt><trkpt lat="46.6254549" lon="10.7704127"><ele>717.1666666666666</ele><time>2026-03-24T11:10:41.356Z</time></trkpt><trkpt lat="46.6255003" lon="10.7704772"><ele>717.3333333333334</ele><time>2026-03-24T11:10:42.367Z</time></trkpt><trkpt lat="46.625576" lon="10.7705865"><ele>717.5</ele><time>2026-03-24T11:10:44.367Z</time></trkpt><trkpt lat="46.6256345" lon="10.7706684"><ele>717.6666666666667</ele><time>2026-03-24T11:10:46.361Z</time></trkpt><trkpt lat="46.625684" lon="10.7707303"><ele>717.8333333333334</ele><time>2026-03-24T11:10:49.372Z</time></trkpt><trkpt lat="46.6257383" lon="10.7707867"><ele>718.0</ele><time>2026-03-24T11:10:53.376Z</time></trkpt><trkpt lat="46.6258018" lon="10.7708826"><ele>718.0</ele><time>2026-03-24T11:10:56.378Z</time></trkpt><trkpt lat="46.6258618" lon="10.7709927"><ele>718.0</ele><time>2026-03-24T11:10:58.362Z</time></trkpt><trkpt lat="46.6259408" lon="10.7711327"><ele>718.0</ele><time>2026-03-24T11:11:00.377Z</time></trkpt><trkpt lat="46.6259825" lon="10.7712165"><ele>718.0</ele><time>2026-03-24T11:11:01.374Z</time></trkpt><trkpt lat="46.6260311" lon="10.7713037"><ele>718.0</ele><time>2026-03-24T11:11:02.371Z</time></trkpt><trkpt lat="46.6260781" lon="10.7713942"><ele>718.0</ele><time>2026-03-24T11:11:03.366Z</time></trkpt><trkpt lat="46.6261253" lon="10.7714872"><ele>718.3333333333334</ele><time>2026-03-24T11:11:04.371Z</time></trkpt><trkpt lat="46.6261743" lon="10.7715852"><ele>718.6666666666667</ele><time>2026-03-24T11:11:05.369Z</time></trkpt><trkpt lat="46.6262227" lon="10.7716816"><ele>719.0</ele><time>2026-03-24T11:11:06.366Z</time></trkpt><trkpt lat="46.6262695" lon="10.7717705"><ele>719.3333333333334</ele><time>2026-03-24T11:11:07.377Z</time></trkpt><trkpt lat="46.6263167" lon="10.7718574"><ele>719.6666666666666</ele><time>2026-03-24T11:11:08.375Z</time></trkpt><trkpt lat="46.6263666" lon="10.7719385"><ele>720.0</ele><time>2026-03-24T11:11:09.372Z</time></trkpt><trkpt lat="46.626417" lon="10.7720142"><ele>718.6</ele><time>2026-03-24T11:11:10.382Z</time></trkpt><trkpt lat="46.6264633" lon="10.7720819"><ele>717.2</ele><time>2026-03-24T11:11:11.368Z</time></trkpt><trkpt lat="46.6265482" lon="10.7721911"><ele>715.8</ele><time>2026-03-24T11:11:13.366Z</time></trkpt><trkpt lat="46.6266279" lon="10.772284"><ele>714.4</ele><time>2026-03-24T11:11:15.379Z</time></trkpt><trkpt lat="46.6266951" lon="10.7723703"><ele>713.0</ele><time>2026-03-24T11:11:17.376Z</time></trkpt><trkpt lat="46.6267586" lon="10.7724574"><ele>713.0</ele><time>2026-03-24T11:11:19.367Z</time></trkpt><trkpt lat="46.6268234" lon="10.772547"><ele>713.0</ele><time>2026-03-24T11:11:21.375Z</time></trkpt><trkpt lat="46.6268895" lon="10.7726413"><ele>713.0</ele><time>2026-03-24T11:11:23.373Z</time></trkpt><trkpt lat="46.6269545" lon="10.77273"><ele>713.0</ele><time>2026-03-24T11:11:25.372Z</time></trkpt><trkpt lat="46.6270059" lon="10.7728021"><ele>713.0</ele><time>2026-03-24T11:11:27.374Z</time></trkpt><trkpt lat="46.6270665" lon="10.7728673"><ele>713.0</ele><time>2026-03-24T11:11:29.378Z</time></trkpt><trkpt lat="46.6271385" lon="10.7729523"><ele>713.0</ele><time>2026-03-24T11:11:31.367Z</time></trkpt><trkpt lat="46.6272079" lon="10.773048"><ele>713.0</ele><time>2026-03-24T11:11:33.364Z</time></trkpt><trkpt lat="46.6272791" lon="10.773147"><ele>713.0</ele><time>2026-03-24T11:11:35.369Z</time></trkpt><trkpt lat="46.627339" lon="10.7732546"><ele>713.0</ele><time>2026-03-24T11:11:37.367Z</time></trkpt><trkpt lat="46.6273916" lon="10.7733565"><ele>713.0</ele><time>2026-03-24T11:11:39.379Z</time></trkpt><trkpt lat="46.6274485" lon="10.7734528"><ele>713.1666666666666</ele><time>2026-03-24T11:11:41.367Z</time></trkpt><trkpt lat="46.6275207" lon="10.7735399"><ele>713.3333333333333</ele><time>2026-03-24T11:11:43.377Z</time></trkpt><trkpt lat="46.6275884" lon="10.7735989"><ele>713.5</ele><time>2026-03-24T11:11:45.364Z</time></trkpt><trkpt lat="46.6276575" lon="10.7736512"><ele>713.6666666666666</ele><time>2026-03-24T11:11:48.369Z</time></trkpt><trkpt lat="46.6276842" lon="10.773772"><ele>713.8333333333334</ele><time>2026-03-24T11:11:51.367Z</time></trkpt><trkpt lat="46.6276986" lon="10.7738688"><ele>714.0</ele><time>2026-03-24T11:11:53.367Z</time></trkpt><trkpt lat="46.6277182" lon="10.7739628"><ele>714.0</ele><time>2026-03-24T11:11:55.363Z</time></trkpt><trkpt lat="46.6277001" lon="10.7740522"><ele>714.0</ele><time>2026-03-24T11:11:57.363Z</time></trkpt><trkpt lat="46.6276536" lon="10.7741368"><ele>714.0</ele><time>2026-03-24T11:12:01.369Z</time></trkpt><trkpt lat="46.627588" lon="10.7742133"><ele>714.0</ele><time>2026-03-24T11:12:03.361Z</time></trkpt><trkpt lat="46.6274818" lon="10.7743061"><ele>714.0</ele><time>2026-03-24T11:12:05.37Z</time></trkpt><trkpt lat="46.6273817" lon="10.7743896"><ele>713.8000000000001</ele><time>2026-03-24T11:12:07.375Z</time></trkpt><trkpt lat="46.6272954" lon="10.7744656"><ele>713.6</ele><time>2026-03-24T11:12:09.37Z</time></trkpt><trkpt lat="46.6272015" lon="10.7745404"><ele>713.4</ele><time>2026-03-24T11:12:11.376Z</time></trkpt><trkpt lat="46.6271031" lon="10.7745921"><ele>713.2</ele><time>2026-03-24T11:12:13.368Z</time></trkpt><trkpt lat="46.627006" lon="10.774632"><ele>713.0</ele><time>2026-03-24T11:12:15.365Z</time></trkpt><trkpt lat="46.6269224" lon="10.7746649"><ele>712.0</ele><time>2026-03-24T11:12:17.368Z</time></trkpt><trkpt lat="46.6268494" lon="10.7747202"><ele>711.0</ele><time>2026-03-24T11:12:19.37Z</time></trkpt><trkpt lat="46.6267676" lon="10.7747957"><ele>710.0</ele><time>2026-03-24T11:12:21.365Z</time></trkpt><trkpt lat="46.6266922" lon="10.7748947"><ele>709.0</ele><time>2026-03-24T11:12:23.377Z</time></trkpt><trkpt lat="46.626633" lon="10.7749991"><ele>708.0</ele><time>2026-03-24T11:12:25.366Z</time></trkpt><trkpt lat="46.6265708" lon="10.7750801"><ele>708.0</ele><time>2026-03-24T11:12:27.372Z</time></trkpt><trkpt lat="46.6264848" lon="10.7750887"><ele>708.0</ele><time>2026-03-24T11:12:29.368Z</time></trkpt><trkpt lat="46.6263985" lon="10.7750096"><ele>708.0</ele><time>2026-03-24T11:12:31.382Z</time></trkpt><trkpt lat="46.6263197" lon="10.7748835"><ele>708.0</ele><time>2026-03-24T11:12:33.373Z</time></trkpt><trkpt lat="46.6262637" lon="10.7747251"><ele>708.0</ele><time>2026-03-24T11:12:35.367Z</time></trkpt><trkpt lat="46.6262302" lon="10.7745628"><ele>708.0</ele><time>2026-03-24T11:12:37.366Z</time></trkpt><trkpt lat="46.6262078" lon="10.7743938"><ele>708.0</ele><time>2026-03-24T11:12:39.368Z</time></trkpt><trkpt lat="46.6261967" lon="10.774219"><ele>708.0</ele><time>2026-03-24T11:12:41.361Z</time></trkpt><trkpt lat="46.6261915" lon="10.7740542"><ele>708.0</ele><time>2026-03-24T11:12:43.366Z</time></trkpt><trkpt lat="46.6261959" lon="10.7738898"><ele>708.2</ele><time>2026-03-24T11:12:45.371Z</time></trkpt><trkpt lat="46.6262209" lon="10.7737249"><ele>708.4</ele><time>2026-03-24T11:12:47.369Z</time></trkpt><trkpt lat="46.6262517" lon="10.7735665"><ele>708.6</ele><time>2026-03-24T11:12:49.365Z</time></trkpt><trkpt lat="46.6262678" lon="10.7734142"><ele>708.8000000000001</ele><time>2026-03-24T11:12:51.373Z</time></trkpt><trkpt lat="46.6262762" lon="10.7732653"><ele>709.0</ele><time>2026-03-24T11:12:53.366Z</time></trkpt><trkpt lat="46.6262776" lon="10.7731154"><ele>709.6</ele><time>2026-03-24T11:12:55.364Z</time></trkpt><trkpt lat="46.6262826" lon="10.7729658"><ele>710.2</ele><time>2026-03-24T11:12:57.366Z</time></trkpt><trkpt lat="46.6263079" lon="10.7728128"><ele>710.8000000000001</ele><time>2026-03-24T11:12:59.37Z</time></trkpt><trkpt lat="46.6263543" lon="10.7726702"><ele>711.4000000000001</ele><time>2026-03-24T11:13:01.37Z</time></trkpt><trkpt lat="46.6264099" lon="10.772552"><ele>712.0</ele><time>2026-03-24T11:13:03.362Z</time></trkpt><trkpt lat="46.6264615" lon="10.7724576"><ele>712.1666666666667</ele><time>2026-03-24T11:13:05.368Z</time></trkpt><trkpt lat="46.626505" lon="10.7723822"><ele>712.3333333333334</ele><time>2026-03-24T11:13:07.363Z</time></trkpt><trkpt lat="46.6265606" lon="10.7723125"><ele>712.5</ele><time>2026-03-24T11:13:10.376Z</time></trkpt><trkpt lat="46.6266301" lon="10.7723419"><ele>712.6666666666666</ele><time>2026-03-24T11:13:13.372Z</time></trkpt><trkpt lat="46.6266998" lon="10.7724246"><ele>712.8333333333333</ele><time>2026-03-24T11:13:16.368Z</time></trkpt><trkpt lat="46.626753" lon="10.7725031"><ele>713.0</ele><time>2026-03-24T11:13:18.367Z</time></trkpt><trkpt lat="46.626813" lon="10.7725799"><ele>713.0</ele><time>2026-03-24T11:13:20.356Z</time></trkpt><trkpt lat="46.6268699" lon="10.772656"><ele>713.0</ele><time>2026-03-24T11:13:22.364Z</time></trkpt><trkpt lat="46.6269263" lon="10.77273"><ele>713.0</ele><time>2026-03-24T11:13:24.373Z</time></trkpt><trkpt lat="46.6269781" lon="10.7727881"><ele>713.0</ele><time>2026-03-24T11:13:26.351Z</time></trkpt><trkpt lat="46.6270352" lon="10.7728542"><ele>713.0</ele><time>2026-03-24T11:13:29.367Z</time></trkpt><trkpt lat="46.6270977" lon="10.7729313"><ele>713.0</ele><time>2026-03-24T11:13:33.365Z</time></trkpt><trkpt lat="46.6271658" lon="10.7729922"><ele>713.0</ele><time>2026-03-24T11:13:36.368Z</time></trkpt><trkpt lat="46.6272311" lon="10.7730702"><ele>713.0</ele><time>2026-03-24T11:13:39.358Z</time></trkpt><trkpt lat="46.6272732" lon="10.7731392"><ele>713.0</ele><time>2026-03-24T11:13:41.37Z</time></trkpt><trkpt lat="46.6273168" lon="10.7732172"><ele>713.0</ele><time>2026-03-24T11:13:43.359Z</time></trkpt><trkpt lat="46.6273614" lon="10.7732899"><ele>713.0</ele><time>2026-03-24T11:13:45.365Z</time></trkpt><trkpt lat="46.627415" lon="10.7733748"><ele>713.0</ele><time>2026-03-24T11:13:47.369Z</time></trkpt><trkpt lat="46.6274812" lon="10.7734464"><ele>713.0</ele><time>2026-03-24T11:13:49.365Z</time></trkpt><trkpt lat="46.6275401" lon="10.7735235"><ele>713.0</ele><time>2026-03-24T11:13:51.362Z</time></trkpt><trkpt lat="46.6276011" lon="10.7735778"><ele>713.0</ele><time>2026-03-24T11:13:53.354Z</time></trkpt><trkpt lat="46.6276792" lon="10.7735256"><ele>713.0</ele><time>2026-03-24T11:13:56.372Z</time></trkpt><trkpt lat="46.6277349" lon="10.7734298"><ele>713.0</ele><time>2026-03-24T11:13:59.373Z</time></trkpt><trkpt lat="46.6277792" lon="10.7733356"><ele>713.0</ele><time>2026-03-24T11:14:02.359Z</time></trkpt><trkpt lat="46.6278078" lon="10.7732272"><ele>713.0</ele><time>2026-03-24T11:14:05.372Z</time></trkpt><trkpt lat="46.6278264" lon="10.7731275"><ele>714.0</ele><time>2026-03-24T11:14:08.37Z</time></trkpt><trkpt lat="46.6278466" lon="10.7730108"><ele>715.0</ele><time>2026-03-24T11:14:13.371Z</time></trkpt><trkpt lat="46.6278724" lon="10.7729091"><ele>716.0</ele><time>2026-03-24T11:14:15.368Z</time></trkpt><trkpt lat="46.6278808" lon="10.7727847"><ele>717.0</ele><time>2026-03-24T11:14:18.371Z</time></trkpt><trkpt lat="46.6278916" lon="10.7726744"><ele>718.0</ele><time>2026-03-24T11:14:20.363Z</time></trkpt><trkpt lat="46.6278992" lon="10.7725622"><ele>719.0</ele><time>2026-03-24T11:14:22.366Z</time></trkpt><trkpt lat="46.6279017" lon="10.772456"><ele>719.6666666666666</ele><time>2026-03-24T11:14:24.357Z</time></trkpt><trkpt lat="46.6279114" lon="10.7723634"><ele>720.3333333333333</ele><time>2026-03-24T11:14:26.376Z</time></trkpt><trkpt lat="46.6279379" lon="10.7722399"><ele>721.0</ele><time>2026-03-24T11:14:29.36Z</time></trkpt><trkpt lat="46.6279431" lon="10.7721323"><ele>721.6666666666666</ele><time>2026-03-24T11:14:31.372Z</time></trkpt><trkpt lat="46.6279374" lon="10.7720191"><ele>722.3333333333334</ele><time>2026-03-24T11:14:34.375Z</time></trkpt><trkpt lat="46.6278949" lon="10.7719337"><ele>723.0</ele><time>2026-03-24T11:14:38.365Z</time></trkpt><trkpt lat="46.6279338" lon="10.7718382"><ele>723.5</ele><time>2026-03-24T11:14:55.361Z</time></trkpt><trkpt lat="46.6279451" lon="10.7717277"><ele>724.0</ele><time>2026-03-24T11:14:58.373Z</time></trkpt><trkpt lat="46.6279606" lon="10.7715856"><ele>724.5</ele><time>2026-03-24T11:15:01.369Z</time></trkpt><trkpt lat="46.627966" lon="10.7714523"><ele>725.0</ele><time>2026-03-24T11:15:04.349Z</time></trkpt><trkpt lat="46.6279755" lon="10.7713517"><ele>725.5</ele><time>2026-03-24T11:15:06.365Z</time></trkpt><trkpt lat="46.6279931" lon="10.7712504"><ele>726.0</ele><time>2026-03-24T11:15:08.36Z</time></trkpt><trkpt lat="46.6280098" lon="10.7711471"><ele>725.9999999999999</ele><time>2026-03-24T11:15:10.373Z</time></trkpt><trkpt lat="46.6280215" lon="10.7710539"><ele>726.0</ele><time>2026-03-24T11:15:12.369Z</time></trkpt><trkpt lat="46.6280361" lon="10.7709407"><ele>726.0</ele><time>2026-03-24T11:15:15.373Z</time></trkpt><trkpt lat="46.6280339" lon="10.770845"><ele>726.0</ele><time>2026-03-24T11:15:18.373Z</time></trkpt><trkpt lat="46.6279725" lon="10.7707838"><ele>726.0</ele><time>2026-03-24T11:15:22.375Z</time></trkpt><trkpt lat="46.6278945" lon="10.7708056"><ele>725.9999999999999</ele><time>2026-03-24T11:15:25.367Z</time></trkpt><trkpt lat="46.6278317" lon="10.7708251"><ele>726.0</ele><time>2026-03-24T11:15:27.368Z</time></trkpt><trkpt lat="46.6277594" lon="10.7708359"><ele>726.0</ele><time>2026-03-24T11:15:29.368Z</time></trkpt><trkpt lat="46.627669" lon="10.7708397"><ele>726.0</ele><time>2026-03-24T11:15:31.365Z</time></trkpt><trkpt lat="46.6275757" lon="10.7708438"><ele>726.0</ele><time>2026-03-24T11:15:33.366Z</time></trkpt><trkpt lat="46.6274831" lon="10.7708512"><ele>726.0</ele><time>2026-03-24T11:15:35.369Z</time></trkpt><trkpt lat="46.6273877" lon="10.7708689"><ele>726.0</ele><time>2026-03-24T11:15:37.378Z</time></trkpt><trkpt lat="46.6272838" lon="10.7708921"><ele>726.0</ele><time>2026-03-24T11:15:39.377Z</time></trkpt><trkpt lat="46.6271785" lon="10.7709208"><ele>726.0</ele><time>2026-03-24T11:15:41.375Z</time></trkpt><trkpt lat="46.6270615" lon="10.7709339"><ele>726.0</ele><time>2026-03-24T11:15:43.379Z</time></trkpt><trkpt lat="46.6269487" lon="10.77093"><ele>726.0</ele><time>2026-03-24T11:15:45.379Z</time></trkpt><trkpt lat="46.6268663" lon="10.7709231"><ele>726.0</ele><time>2026-03-24T11:15:47.365Z</time></trkpt><trkpt lat="46.6267847" lon="10.7709066"><ele>725.3333333333334</ele><time>2026-03-24T11:15:49.363Z</time></trkpt><trkpt lat="46.6267007" lon="10.7708686"><ele>724.6666666666666</ele><time>2026-03-24T11:15:51.368Z</time></trkpt><trkpt lat="46.6266255" lon="10.7708348"><ele>724.0</ele><time>2026-03-24T11:15:53.362Z</time></trkpt><trkpt lat="46.6265467" lon="10.7707983"><ele>723.3333333333333</ele><time>2026-03-24T11:15:55.371Z</time></trkpt><trkpt lat="46.6264572" lon="10.7707628"><ele>722.6666666666666</ele><time>2026-03-24T11:15:57.37Z</time></trkpt><trkpt lat="46.626391" lon="10.7706961"><ele>722.0</ele><time>2026-03-24T11:15:59.372Z</time></trkpt><trkpt lat="46.626327" lon="10.7706057"><ele>722.0</ele><time>2026-03-24T11:16:02.373Z</time></trkpt><trkpt lat="46.6262331" lon="10.7705911"><ele>722.0</ele><time>2026-03-24T11:16:05.379Z</time></trkpt><trkpt lat="46.6261524" lon="10.7706213"><ele>722.0</ele><time>2026-03-24T11:16:07.377Z</time></trkpt><trkpt lat="46.6260693" lon="10.7706644"><ele>722.0</ele><time>2026-03-24T11:16:09.372Z</time></trkpt><trkpt lat="46.6259793" lon="10.7707174"><ele>722.0</ele><time>2026-03-24T11:16:11.377Z</time></trkpt><trkpt lat="46.6259004" lon="10.7707769"><ele>721.3333333333333</ele><time>2026-03-24T11:16:13.371Z</time></trkpt><trkpt lat="46.6258425" lon="10.77083"><ele>720.6666666666666</ele><time>2026-03-24T11:16:15.372Z</time></trkpt><trkpt lat="46.6258063" lon="10.7709245"><ele>720.0</ele><time>2026-03-24T11:16:31.36Z</time></trkpt><trkpt lat="46.625835" lon="10.7710072"><ele>719.3333333333334</ele><time>2026-03-24T11:16:33.367Z</time></trkpt><trkpt lat="46.6258979" lon="10.7710957"><ele>718.6666666666667</ele><time>2026-03-24T11:16:35.37Z</time></trkpt><trkpt lat="46.6259766" lon="10.7712058"><ele>718.0</ele><time>2026-03-24T11:16:37.374Z</time></trkpt><trkpt lat="46.6260127" lon="10.7712836"><ele>717.6666666666667</ele><time>2026-03-24T11:16:38.379Z</time></trkpt><trkpt lat="46.6260497" lon="10.7713626"><ele>717.3333333333334</ele><time>2026-03-24T11:16:39.368Z</time></trkpt><trkpt lat="46.6260899" lon="10.7714429"><ele>717.0</ele><time>2026-03-24T11:16:40.364Z</time></trkpt><trkpt lat="46.6261275" lon="10.7715179"><ele>716.6666666666666</ele><time>2026-03-24T11:16:41.375Z</time></trkpt><trkpt lat="46.6261879" lon="10.7716405"><ele>716.3333333333333</ele><time>2026-03-24T11:16:43.374Z</time></trkpt><trkpt lat="46.6262384" lon="10.7717383"><ele>716.0</ele><time>2026-03-24T11:16:45.362Z</time></trkpt><trkpt lat="46.6262634" lon="10.7718511"><ele>715.6666666666666</ele><time>2026-03-24T11:16:48.373Z</time></trkpt><trkpt lat="46.6262118" lon="10.7719466"><ele>715.3333333333333</ele><time>2026-03-24T11:16:51.355Z</time></trkpt><trkpt lat="46.6261512" lon="10.7720228"><ele>715.0</ele><time>2026-03-24T11:16:53.371Z</time></trkpt><trkpt lat="46.626086" lon="10.7721144"><ele>714.6666666666666</ele><time>2026-03-24T11:16:55.365Z</time></trkpt><trkpt lat="46.6260067" lon="10.7721904"><ele>714.3333333333334</ele><time>2026-03-24T11:16:57.37Z</time></trkpt><trkpt lat="46.6259258" lon="10.7722653"><ele>714.0</ele><time>2026-03-24T11:16:59.371Z</time></trkpt><trkpt lat="46.6258436" lon="10.7723523"><ele>714.0</ele><time>2026-03-24T11:17:01.365Z</time></trkpt><trkpt lat="46.6257585" lon="10.7724379"><ele>714.0</ele><time>2026-03-24T11:17:03.377Z</time></trkpt><trkpt lat="46.62567" lon="10.772524"><ele>714.0</ele><time>2026-03-24T11:17:05.384Z</time></trkpt><trkpt lat="46.6255844" lon="10.7726247"><ele>714.0</ele><time>2026-03-24T11:17:07.366Z</time></trkpt><trkpt lat="46.6255006" lon="10.7727448"><ele>714.0</ele><time>2026-03-24T11:17:09.371Z</time></trkpt><trkpt lat="46.6254349" lon="10.7728822"><ele>714.0</ele><time>2026-03-24T11:17:11.359Z</time></trkpt><trkpt lat="46.6253779" lon="10.7730085"><ele>714.0</ele><time>2026-03-24T11:17:13.368Z</time></trkpt><trkpt lat="46.6253447" lon="10.7731607"><ele>714.0</ele><time>2026-03-24T11:17:15.37Z</time></trkpt><trkpt lat="46.6253236" lon="10.7733208"><ele>714.0</ele><time>2026-03-24T11:17:17.374Z</time></trkpt><trkpt lat="46.6253017" lon="10.7734791"><ele>714.0</ele><time>2026-03-24T11:17:19.371Z</time></trkpt><trkpt lat="46.6252921" lon="10.7736439"><ele>712.8000000000001</ele><time>2026-03-24T11:17:21.349Z</time></trkpt><trkpt lat="46.625296" lon="10.7737994"><ele>711.6</ele><time>2026-03-24T11:17:23.38Z</time></trkpt><trkpt lat="46.6253209" lon="10.7739587"><ele>710.4</ele><time>2026-03-24T11:17:25.368Z</time></trkpt><trkpt lat="46.6253461" lon="10.774118"><ele>709.2</ele><time>2026-03-24T11:17:27.369Z</time></trkpt><trkpt lat="46.6253781" lon="10.7742749"><ele>708.0</ele><time>2026-03-24T11:17:29.365Z</time></trkpt><trkpt lat="46.6254088" lon="10.7744046"><ele>708.0</ele><time>2026-03-24T11:17:31.376Z</time></trkpt><trkpt lat="46.6254319" lon="10.7744977"><ele>708.0</ele><time>2026-03-24T11:17:33.38Z</time></trkpt><trkpt lat="46.6254886" lon="10.7745377"><ele>708.0</ele><time>2026-03-24T11:17:36.367Z</time></trkpt><trkpt lat="46.6255649" lon="10.7744937"><ele>708.0</ele><time>2026-03-24T11:17:39.376Z</time></trkpt><trkpt lat="46.6256291" lon="10.7744488"><ele>708.0</ele><time>2026-03-24T11:17:41.382Z</time></trkpt><trkpt lat="46.6256987" lon="10.7744008"><ele>708.0</ele><time>2026-03-24T11:17:43.372Z</time></trkpt><trkpt lat="46.6257823" lon="10.7743362"><ele>708.0</ele><time>2026-03-24T11:17:45.375Z</time></trkpt><trkpt lat="46.6258693" lon="10.7742685"><ele>708.0</ele><time>2026-03-24T11:17:47.369Z</time></trkpt><trkpt lat="46.625957" lon="10.7742209"><ele>708.0</ele><time>2026-03-24T11:17:49.365Z</time></trkpt><trkpt lat="46.6260411" lon="10.7742037"><ele>708.0</ele><time>2026-03-24T11:17:51.371Z</time></trkpt><trkpt lat="46.6261109" lon="10.7742069"><ele>708.0</ele><time>2026-03-24T11:17:53.365Z</time></trkpt><trkpt lat="46.6261734" lon="10.7742523"><ele>708.0</ele><time>2026-03-24T11:17:56.364Z</time></trkpt><trkpt lat="46.626194" lon="10.7743924"><ele>708.0</ele><time>2026-03-24T11:17:59.373Z</time></trkpt><trkpt lat="46.626214" lon="10.7745136"><ele>708.0</ele><time>2026-03-24T11:18:01.376Z</time></trkpt><trkpt lat="46.6262366" lon="10.7746424"><ele>708.0</ele><time>2026-03-24T11:18:03.373Z</time></trkpt><trkpt lat="46.6262719" lon="10.7747674"><ele>708.0</ele><time>2026-03-24T11:18:05.373Z</time></trkpt><trkpt lat="46.6263144" lon="10.7748869"><ele>708.0</ele><time>2026-03-24T11:18:07.369Z</time></trkpt><trkpt lat="46.6263686" lon="10.7749834"><ele>708.0</ele><time>2026-03-24T11:18:09.363Z</time></trkpt><trkpt lat="46.6264206" lon="10.7750458"><ele>708.0</ele><time>2026-03-24T11:18:11.371Z</time></trkpt><trkpt lat="46.6264712" lon="10.7751258"><ele>708.0</ele><time>2026-03-24T11:18:16.366Z</time></trkpt><trkpt lat="46.6265387" lon="10.7750628"><ele>708.0</ele><time>2026-03-24T11:18:19.362Z</time></trkpt><trkpt lat="46.6265791" lon="10.7749789"><ele>708.0</ele><time>2026-03-24T11:18:21.356Z</time></trkpt><trkpt lat="46.626624" lon="10.7748954"><ele>708.0</ele><time>2026-03-24T11:18:23.364Z</time></trkpt><trkpt lat="46.6266783" lon="10.7748154"><ele>708.0</ele><time>2026-03-24T11:18:25.362Z</time></trkpt><trkpt lat="46.6267432" lon="10.7747481"><ele>708.0</ele><time>2026-03-24T11:18:27.355Z</time></trkpt><trkpt lat="46.6268117" lon="10.7746855"><ele>708.0</ele><time>2026-03-24T11:18:29.37Z</time></trkpt><trkpt lat="46.6268794" lon="10.774618"><ele>708.0</ele><time>2026-03-24T11:18:31.368Z</time></trkpt><trkpt lat="46.6269526" lon="10.7745647"><ele>708.0</ele><time>2026-03-24T11:18:33.371Z</time></trkpt><trkpt lat="46.6270247" lon="10.7745248"><ele>708.0</ele><time>2026-03-24T11:18:35.373Z</time></trkpt><trkpt lat="46.6270898" lon="10.7744935"><ele>708.0</ele><time>2026-03-24T11:18:37.37Z</time></trkpt><trkpt lat="46.6271742" lon="10.7744466"><ele>708.8333333333334</ele><time>2026-03-24T11:18:40.361Z</time></trkpt><trkpt lat="46.6272558" lon="10.774395"><ele>709.6666666666666</ele><time>2026-03-24T11:18:43.379Z</time></trkpt><trkpt lat="46.6273107" lon="10.7743497"><ele>710.5</ele><time>2026-03-24T11:18:45.361Z</time></trkpt><trkpt lat="46.6273902" lon="10.774286"><ele>711.3333333333333</ele><time>2026-03-24T11:18:48.365Z</time></trkpt><trkpt lat="46.6274707" lon="10.7742384"><ele>712.1666666666666</ele><time>2026-03-24T11:18:51.374Z</time></trkpt><trkpt lat="46.6275425" lon="10.7741827"><ele>713.0</ele><time>2026-03-24T11:18:54.381Z</time></trkpt><trkpt lat="46.6276076" lon="10.7741246"><ele>713.1666666666666</ele><time>2026-03-24T11:18:57.369Z</time></trkpt><trkpt lat="46.6276808" lon="10.7740911"><ele>713.3333333333333</ele><time>2026-03-24T11:19:00.37Z</time></trkpt><trkpt lat="46.6277612" lon="10.7741431"><ele>713.5</ele><time>2026-03-24T11:19:06.363Z</time></trkpt><trkpt lat="46.6278407" lon="10.7742677"><ele>713.6666666666666</ele><time>2026-03-24T11:19:08.361Z</time></trkpt><trkpt lat="46.6279089" lon="10.774344"><ele>713.8333333333334</ele><time>2026-03-24T11:19:10.37Z</time></trkpt><trkpt lat="46.6279712" lon="10.7744204"><ele>714.0</ele><time>2026-03-24T11:19:12.367Z</time></trkpt><trkpt lat="46.628044" lon="10.7744777"><ele>714.3333333333334</ele><time>2026-03-24T11:19:14.366Z</time></trkpt><trkpt lat="46.6281202" lon="10.7745334"><ele>714.6666666666666</ele><time>2026-03-24T11:19:16.364Z</time></trkpt><trkpt lat="46.6281837" lon="10.774593"><ele>715.0</ele><time>2026-03-24T11:19:18.363Z</time></trkpt><trkpt lat="46.6282457" lon="10.7746567"><ele>715.3333333333333</ele><time>2026-03-24T11:19:20.378Z</time></trkpt><trkpt lat="46.6283255" lon="10.7747066"><ele>715.6666666666666</ele><time>2026-03-24T11:19:22.369Z</time></trkpt><trkpt lat="46.6283965" lon="10.774744"><ele>716.0</ele><time>2026-03-24T11:19:24.363Z</time></trkpt><trkpt lat="46.6284606" lon="10.7747931"><ele>716.0</ele><time>2026-03-24T11:19:26.366Z</time></trkpt><trkpt lat="46.6285274" lon="10.7748477"><ele>716.0</ele><time>2026-03-24T11:19:28.364Z</time></trkpt><trkpt lat="46.6286139" lon="10.7748748"><ele>716.0</ele><time>2026-03-24T11:19:31.37Z</time></trkpt><trkpt lat="46.6286888" lon="10.7749414"><ele>716.0</ele><time>2026-03-24T11:19:35.363Z</time></trkpt><trkpt lat="46.6287387" lon="10.7750248"><ele>716.0</ele><time>2026-03-24T11:19:39.361Z</time></trkpt><trkpt lat="46.6287696" lon="10.7751412"><ele>716.0</ele><time>2026-03-24T11:19:42.377Z</time></trkpt><trkpt lat="46.6287823" lon="10.7752325"><ele>716.1428571428572</ele><time>2026-03-24T11:19:44.363Z</time></trkpt><trkpt lat="46.6287879" lon="10.7753341"><ele>716.2857142857143</ele><time>2026-03-24T11:19:46.369Z</time></trkpt><trkpt lat="46.6287982" lon="10.7754424"><ele>716.4285714285714</ele><time>2026-03-24T11:19:48.377Z</time></trkpt><trkpt lat="46.6288138" lon="10.7755437"><ele>716.5714285714287</ele><time>2026-03-24T11:19:50.368Z</time></trkpt><trkpt lat="46.6288261" lon="10.775641"><ele>716.7142857142857</ele><time>2026-03-24T11:19:52.367Z</time></trkpt><trkpt lat="46.628832" lon="10.7757588"><ele>716.8571428571429</ele><time>2026-03-24T11:19:54.366Z</time></trkpt><trkpt lat="46.6288484" lon="10.775867"><ele>717.0</ele><time>2026-03-24T11:19:56.363Z</time></trkpt><trkpt lat="46.6288649" lon="10.7759557"><ele>717.2857142857142</ele><time>2026-03-24T11:19:58.373Z</time></trkpt><trkpt lat="46.6288882" lon="10.7760643"><ele>717.5714285714286</ele><time>2026-03-24T11:20:01.353Z</time></trkpt><trkpt lat="46.6289049" lon="10.7761527"><ele>717.8571428571429</ele><time>2026-03-24T11:20:04.366Z</time></trkpt><trkpt lat="46.6288944" lon="10.7762493"><ele>718.1428571428571</ele><time>2026-03-24T11:20:10.367Z</time></trkpt><trkpt lat="46.6288607" lon="10.7763347"><ele>718.4285714285714</ele><time>2026-03-24T11:20:36.36Z</time></trkpt><trkpt lat="46.6288359" lon="10.7764499"><ele>718.7142857142857</ele><time>2026-03-24T11:21:05.363Z</time></trkpt><trkpt lat="46.6288692" lon="10.7763671"><ele>719.0</ele><time>2026-03-24T11:22:09.37Z</time></trkpt><trkpt lat="46.6289123" lon="10.7762981"><ele>718.9999999999999</ele><time>2026-03-24T11:31:57.367Z</time></trkpt><trkpt lat="46.6288467" lon="10.7763333"><ele>719.0</ele><time>2026-03-24T11:32:58.362Z</time></trkpt><trkpt lat="46.6288139" lon="10.7764142"><ele>719.0</ele><time>2026-03-24T11:50:55.371Z</time></trkpt><trkpt lat="46.6288093" lon="10.7765079"><ele>719.0</ele><time>2026-03-24T11:54:36.365Z</time></trkpt><trkpt lat="46.6288771" lon="10.7764994"><ele>719.0</ele><time>2026-03-24T11:55:00.364Z</time></trkpt><trkpt lat="46.6289324" lon="10.7764548"><ele>718.9999999999999</ele><time>2026-03-24T11:55:02.365Z</time></trkpt><trkpt lat="46.628978" lon="10.7763787"><ele>719.0</ele><time>2026-03-24T11:55:04.359Z</time></trkpt><trkpt lat="46.6289898" lon="10.776275"><ele>718.3333333333333</ele><time>2026-03-24T11:55:06.36Z</time></trkpt><trkpt lat="46.6288366" lon="10.7758823"><ele>717.6666666666666</ele><time>2026-03-24T11:55:07.358Z</time></trkpt><trkpt lat="46.6288265" lon="10.7757839"><ele>717.0</ele><time>2026-03-24T11:55:10.372Z</time></trkpt><trkpt lat="46.6288188" lon="10.7756767"><ele>717.0</ele><time>2026-03-24T11:55:13.382Z</time></trkpt><trkpt lat="46.6288199" lon="10.7755644"><ele>717.0</ele><time>2026-03-24T11:56:03.374Z</time></trkpt><trkpt lat="46.6287695" lon="10.7754332"><ele>717.0</ele><time>2026-03-24T11:56:06.362Z</time></trkpt><trkpt lat="46.6287513" lon="10.7753268"><ele>717.0</ele><time>2026-03-24T11:56:08.365Z</time></trkpt><trkpt lat="46.628725" lon="10.7752107"><ele>717.0</ele><time>2026-03-24T11:56:11.369Z</time></trkpt><trkpt lat="46.6286702" lon="10.7751136"><ele>717.0</ele><time>2026-03-24T11:56:14.362Z</time></trkpt><trkpt lat="46.6286147" lon="10.7750313"><ele>716.8333333333334</ele><time>2026-03-24T11:56:18.38Z</time></trkpt><trkpt lat="46.6285551" lon="10.7749781"><ele>716.6666666666666</ele><time>2026-03-24T11:56:21.362Z</time></trkpt><trkpt lat="46.6284965" lon="10.7749306"><ele>716.5</ele><time>2026-03-24T11:56:23.365Z</time></trkpt><trkpt lat="46.6284345" lon="10.7748684"><ele>716.3333333333333</ele><time>2026-03-24T11:56:25.367Z</time></trkpt><trkpt lat="46.6283582" lon="10.7748086"><ele>716.1666666666666</ele><time>2026-03-24T11:56:27.365Z</time></trkpt><trkpt lat="46.6282949" lon="10.774761"><ele>716.0</ele><time>2026-03-24T11:56:29.363Z</time></trkpt><trkpt lat="46.6282113" lon="10.7747189"><ele>716.0</ele><time>2026-03-24T11:56:32.36Z</time></trkpt><trkpt lat="46.628135" lon="10.7746781"><ele>716.0</ele><time>2026-03-24T11:56:34.366Z</time></trkpt><trkpt lat="46.6280738" lon="10.7746163"><ele>716.0</ele><time>2026-03-24T11:56:36.366Z</time></trkpt><trkpt lat="46.6280244" lon="10.7745492"><ele>716.0</ele><time>2026-03-24T11:56:38.366Z</time></trkpt><trkpt lat="46.627961" lon="10.7744715"><ele>716.0</ele><time>2026-03-24T11:56:40.371Z</time></trkpt><trkpt lat="46.6279027" lon="10.7744198"><ele>716.0</ele><time>2026-03-24T11:56:42.372Z</time></trkpt><trkpt lat="46.6278439" lon="10.7743382"><ele>715.6666666666666</ele><time>2026-03-24T11:56:45.362Z</time></trkpt><trkpt lat="46.6277878" lon="10.7742783"><ele>715.3333333333333</ele><time>2026-03-24T11:56:47.365Z</time></trkpt><trkpt lat="46.6277043" lon="10.774225"><ele>715.0</ele><time>2026-03-24T11:56:50.362Z</time></trkpt><trkpt lat="46.6276732" lon="10.774123"><ele>714.6666666666666</ele><time>2026-03-24T11:56:52.359Z</time></trkpt><trkpt lat="46.6276671" lon="10.7739805"><ele>714.3333333333334</ele><time>2026-03-24T11:56:55.365Z</time></trkpt><trkpt lat="46.6276387" lon="10.7738622"><ele>714.0</ele><time>2026-03-24T11:56:57.366Z</time></trkpt><trkpt lat="46.6276119" lon="10.773774"><ele>714.0</ele><time>2026-03-24T11:56:59.372Z</time></trkpt><trkpt lat="46.6275627" lon="10.7737013"><ele>714.0</ele><time>2026-03-24T11:57:02.37Z</time></trkpt><trkpt lat="46.627515" lon="10.7736321"><ele>714.0</ele><time>2026-03-24T11:57:04.361Z</time></trkpt><trkpt lat="46.627456" lon="10.7735603"><ele>714.0</ele><time>2026-03-24T11:57:06.362Z</time></trkpt><trkpt lat="46.6274021" lon="10.7734789"><ele>714.0</ele><time>2026-03-24T11:57:08.366Z</time></trkpt><trkpt lat="46.6273407" lon="10.7734047"><ele>714.0</ele><time>2026-03-24T11:57:10.376Z</time></trkpt><trkpt lat="46.6272892" lon="10.7733151"><ele>713.8000000000001</ele><time>2026-03-24T11:57:12.368Z</time></trkpt><trkpt lat="46.6272344" lon="10.7732123"><ele>713.6</ele><time>2026-03-24T11:57:14.371Z</time></trkpt><trkpt lat="46.6271751" lon="10.773112"><ele>713.4</ele><time>2026-03-24T11:57:16.372Z</time></trkpt><trkpt lat="46.6271139" lon="10.7730052"><ele>713.2</ele><time>2026-03-24T11:57:18.375Z</time></trkpt><trkpt lat="46.6270502" lon="10.7729059"><ele>713.0</ele><time>2026-03-24T11:57:20.365Z</time></trkpt><trkpt lat="46.6269881" lon="10.7728034"><ele>713.0</ele><time>2026-03-24T11:57:22.366Z</time></trkpt><trkpt lat="46.6269151" lon="10.7727259"><ele>713.0</ele><time>2026-03-24T11:57:24.368Z</time></trkpt><trkpt lat="46.6268435" lon="10.7726409"><ele>713.0</ele><time>2026-03-24T11:57:26.373Z</time></trkpt><trkpt lat="46.6267804" lon="10.7725509"><ele>713.0</ele><time>2026-03-24T11:57:28.363Z</time></trkpt><trkpt lat="46.6267084" lon="10.7724675"><ele>713.0</ele><time>2026-03-24T11:57:30.373Z</time></trkpt><trkpt lat="46.6266379" lon="10.7723849"><ele>713.0</ele><time>2026-03-24T11:57:32.367Z</time></trkpt><trkpt lat="46.6265694" lon="10.7723021"><ele>713.0</ele><time>2026-03-24T11:57:34.371Z</time></trkpt><trkpt lat="46.6265021" lon="10.7722253"><ele>713.0</ele><time>2026-03-24T11:57:36.377Z</time></trkpt><trkpt lat="46.6264376" lon="10.7721462"><ele>713.0</ele><time>2026-03-24T11:57:38.376Z</time></trkpt><trkpt lat="46.6263783" lon="10.7720575"><ele>713.0</ele><time>2026-03-24T11:57:40.378Z</time></trkpt><trkpt lat="46.6263226" lon="10.7719643"><ele>713.0</ele><time>2026-03-24T11:57:42.382Z</time></trkpt><trkpt lat="46.6262716" lon="10.7718726"><ele>713.5</ele><time>2026-03-24T11:57:44.378Z</time></trkpt><trkpt lat="46.6262224" lon="10.7717815"><ele>714.0</ele><time>2026-03-24T11:57:46.365Z</time></trkpt><trkpt lat="46.6261787" lon="10.7716883"><ele>714.5</ele><time>2026-03-24T11:57:48.364Z</time></trkpt><trkpt lat="46.6261293" lon="10.7716046"><ele>715.0</ele><time>2026-03-24T11:57:50.368Z</time></trkpt><trkpt lat="46.6260852" lon="10.7715319"><ele>715.5</ele><time>2026-03-24T11:57:52.364Z</time></trkpt><trkpt lat="46.6260344" lon="10.7714278"><ele>716.0</ele><time>2026-03-24T11:57:55.371Z</time></trkpt><trkpt lat="46.625987" lon="10.7713408"><ele>716.0</ele><time>2026-03-24T11:57:58.369Z</time></trkpt><trkpt lat="46.6259396" lon="10.7712464"><ele>716.0</ele><time>2026-03-24T11:58:01.37Z</time></trkpt><trkpt lat="46.6258918" lon="10.7711465"><ele>716.0</ele><time>2026-03-24T11:58:04.367Z</time></trkpt><trkpt lat="46.6258831" lon="10.7710276"><ele>716.0</ele><time>2026-03-24T11:58:07.375Z</time></trkpt><trkpt lat="46.6259001" lon="10.7709043"><ele>716.0</ele><time>2026-03-24T11:58:10.369Z</time></trkpt><trkpt lat="46.6259562" lon="10.7708143"><ele>716.0</ele><time>2026-03-24T11:58:13.368Z</time></trkpt><trkpt lat="46.6260342" lon="10.7707474"><ele>716.3333333333333</ele><time>2026-03-24T11:58:16.365Z</time></trkpt><trkpt lat="46.6260975" lon="10.7706995"><ele>716.6666666666666</ele><time>2026-03-24T11:58:18.363Z</time></trkpt><trkpt lat="46.6261573" lon="10.770649"><ele>717.0</ele><time>2026-03-24T11:58:20.377Z</time></trkpt><trkpt lat="46.6262321" lon="10.7705784"><ele>717.3333333333334</ele><time>2026-03-24T11:58:23.369Z</time></trkpt><trkpt lat="46.6263098" lon="10.7705262"><ele>717.6666666666667</ele><time>2026-03-24T11:58:26.369Z</time></trkpt><trkpt lat="46.6263922" lon="10.7704768"><ele>718.0</ele><time>2026-03-24T11:58:29.379Z</time></trkpt><trkpt lat="46.6264774" lon="10.7704259"><ele>718.6666666666667</ele><time>2026-03-24T11:58:32.365Z</time></trkpt><trkpt lat="46.6265606" lon="10.770377"><ele>719.3333333333334</ele><time>2026-03-24T11:58:35.366Z</time></trkpt><trkpt lat="46.6266384" lon="10.7703257"><ele>720.0</ele><time>2026-03-24T11:58:38.375Z</time></trkpt><trkpt lat="46.6267217" lon="10.7702685"><ele>720.6666666666666</ele><time>2026-03-24T11:58:41.364Z</time></trkpt><trkpt lat="46.626807" lon="10.770218"><ele>721.3333333333333</ele><time>2026-03-24T11:58:44.363Z</time></trkpt><trkpt lat="46.6268871" lon="10.7701667"><ele>722.0</ele><time>2026-03-24T11:58:47.374Z</time></trkpt><trkpt lat="46.6269648" lon="10.7701226"><ele>723.0</ele><time>2026-03-24T11:58:50.365Z</time></trkpt><trkpt lat="46.6270488" lon="10.7700735"><ele>724.0</ele><time>2026-03-24T11:58:53.365Z</time></trkpt><trkpt lat="46.6271354" lon="10.7700296"><ele>725.0</ele><time>2026-03-24T11:58:56.364Z</time></trkpt><trkpt lat="46.6272168" lon="10.7699849"><ele>726.0</ele><time>2026-03-24T11:58:59.373Z</time></trkpt><trkpt lat="46.627298" lon="10.7699396"><ele>727.0</ele><time>2026-03-24T11:59:02.365Z</time></trkpt><trkpt lat="46.6273778" lon="10.7698938"><ele>728.0</ele><time>2026-03-24T11:59:05.362Z</time></trkpt><trkpt lat="46.6274609" lon="10.7698494"><ele>728.0</ele><time>2026-03-24T11:59:08.369Z</time></trkpt><trkpt lat="46.6275438" lon="10.7698102"><ele>728.0</ele><time>2026-03-24T11:59:11.366Z</time></trkpt><trkpt lat="46.6276218" lon="10.7697763"><ele>728.0</ele><time>2026-03-24T11:59:14.373Z</time></trkpt><trkpt lat="46.6277028" lon="10.7697416"><ele>728.0</ele><time>2026-03-24T11:59:17.367Z</time></trkpt><trkpt lat="46.6277919" lon="10.7697315"><ele>728.0</ele><time>2026-03-24T11:59:20.358Z</time></trkpt><trkpt lat="46.6278554" lon="10.7697375"><ele>728.0</ele><time>2026-03-24T11:59:22.371Z</time></trkpt><trkpt lat="46.6279499" lon="10.7697307"><ele>729.0</ele><time>2026-03-24T11:59:25.367Z</time></trkpt><trkpt lat="46.6280122" lon="10.7697094"><ele>730.0</ele><time>2026-03-24T11:59:27.362Z</time></trkpt><trkpt lat="46.6281041" lon="10.7696889"><ele>731.0</ele><time>2026-03-24T11:59:30.367Z</time></trkpt><trkpt lat="46.6281701" lon="10.7696836"><ele>732.0</ele><time>2026-03-24T11:59:32.364Z</time></trkpt><trkpt lat="46.628236" lon="10.7696909"><ele>733.0</ele><time>2026-03-24T11:59:34.369Z</time></trkpt><trkpt lat="46.628303" lon="10.7697018"><ele>734.0</ele><time>2026-03-24T11:59:36.366Z</time></trkpt><trkpt lat="46.6283692" lon="10.7697119"><ele>735.0</ele><time>2026-03-24T11:59:38.378Z</time></trkpt><trkpt lat="46.6284333" lon="10.7697223"><ele>735.0</ele><time>2026-03-24T11:59:40.366Z</time></trkpt><trkpt lat="46.6284985" lon="10.7697358"><ele>735.0</ele><time>2026-03-24T11:59:42.36Z</time></trkpt><trkpt lat="46.6285624" lon="10.7697519"><ele>735.0</ele><time>2026-03-24T11:59:44.374Z</time></trkpt><trkpt lat="46.6286256" lon="10.7697703"><ele>735.0</ele><time>2026-03-24T11:59:46.369Z</time></trkpt><trkpt lat="46.6287185" lon="10.7697943"><ele>735.0</ele><time>2026-03-24T11:59:49.373Z</time></trkpt><trkpt lat="46.6287825" lon="10.7698105"><ele>735.0</ele><time>2026-03-24T11:59:51.372Z</time></trkpt><trkpt lat="46.6288764" lon="10.7698322"><ele>735.8333333333334</ele><time>2026-03-24T11:59:54.366Z</time></trkpt><trkpt lat="46.6289688" lon="10.769855"><ele>736.6666666666666</ele><time>2026-03-24T11:59:57.358Z</time></trkpt><trkpt lat="46.62906" lon="10.7698831"><ele>737.5</ele><time>2026-03-24T12:00:00.375Z</time></trkpt><trkpt lat="46.6291516" lon="10.7699091"><ele>738.3333333333333</ele><time>2026-03-24T12:00:03.375Z</time></trkpt><trkpt lat="46.6292144" lon="10.7699358"><ele>739.1666666666666</ele><time>2026-03-24T12:00:05.373Z</time></trkpt><trkpt lat="46.629277" lon="10.7699696"><ele>740.0</ele><time>2026-03-24T12:00:07.369Z</time></trkpt><trkpt lat="46.6293373" lon="10.7700062"><ele>739.9999999999999</ele><time>2026-03-24T12:00:09.367Z</time></trkpt><trkpt lat="46.6293985" lon="10.7700488"><ele>740.0</ele><time>2026-03-24T12:00:11.364Z</time></trkpt><trkpt lat="46.6294574" lon="10.7700974"><ele>740.0</ele><time>2026-03-24T12:00:13.363Z</time></trkpt><trkpt lat="46.6295141" lon="10.7701471"><ele>740.0</ele><time>2026-03-24T12:00:15.358Z</time></trkpt><trkpt lat="46.6295693" lon="10.7702007"><ele>740.0</ele><time>2026-03-24T12:00:17.361Z</time></trkpt><trkpt lat="46.629624" lon="10.7702563"><ele>739.9999999999999</ele><time>2026-03-24T12:00:19.371Z</time></trkpt><trkpt lat="46.6296774" lon="10.7703191"><ele>740.0</ele><time>2026-03-24T12:00:21.369Z</time></trkpt><trkpt lat="46.6297259" lon="10.7703824"><ele>740.7142857142857</ele><time>2026-03-24T12:00:23.37Z</time></trkpt><trkpt lat="46.6297752" lon="10.7704438"><ele>741.4285714285714</ele><time>2026-03-24T12:00:25.367Z</time></trkpt><trkpt lat="46.6298262" lon="10.7705013"><ele>742.1428571428571</ele><time>2026-03-24T12:00:27.377Z</time></trkpt><trkpt lat="46.6298833" lon="10.7705461"><ele>742.8571428571429</ele><time>2026-03-24T12:00:29.368Z</time></trkpt><trkpt lat="46.6299452" lon="10.7705761"><ele>743.5714285714286</ele><time>2026-03-24T12:00:31.364Z</time></trkpt><trkpt lat="46.6300072" lon="10.7705951"><ele>744.2857142857142</ele><time>2026-03-24T12:00:33.373Z</time></trkpt><trkpt lat="46.6300703" lon="10.770607"><ele>745.0</ele><time>2026-03-24T12:00:35.366Z</time></trkpt><trkpt lat="46.6301494" lon="10.7705983"><ele>745.0</ele><time>2026-03-24T12:00:38.363Z</time></trkpt><trkpt lat="46.6302179" lon="10.7705648"><ele>745.0</ele><time>2026-03-24T12:00:41.369Z</time></trkpt><trkpt lat="46.6302722" lon="10.7705098"><ele>745.0</ele><time>2026-03-24T12:00:44.362Z</time></trkpt><trkpt lat="46.6303331" lon="10.7704255"><ele>745.0</ele><time>2026-03-24T12:00:47.363Z</time></trkpt><trkpt lat="46.630373" lon="10.7703007"><ele>745.0</ele><time>2026-03-24T12:00:50.385Z</time></trkpt><trkpt lat="46.6303957" lon="10.7702124"><ele>745.0</ele><time>2026-03-24T12:00:52.368Z</time></trkpt><trkpt lat="46.6304258" lon="10.770083"><ele>747.2857142857142</ele><time>2026-03-24T12:00:55.372Z</time></trkpt><trkpt lat="46.630449" lon="10.7699965"><ele>749.5714285714286</ele><time>2026-03-24T12:00:57.369Z</time></trkpt><trkpt lat="46.6304705" lon="10.7699083"><ele>751.8571428571429</ele><time>2026-03-24T12:00:59.364Z</time></trkpt><trkpt lat="46.6304926" lon="10.7698205"><ele>754.1428571428571</ele><time>2026-03-24T12:01:01.363Z</time></trkpt><trkpt lat="46.6305278" lon="10.7696937"><ele>756.4285714285714</ele><time>2026-03-24T12:01:04.361Z</time></trkpt><trkpt lat="46.6305509" lon="10.7696066"><ele>758.7142857142857</ele><time>2026-03-24T12:01:06.376Z</time></trkpt><trkpt lat="46.6305736" lon="10.7695185"><ele>761.0</ele><time>2026-03-24T12:01:08.365Z</time></trkpt><trkpt lat="46.6305962" lon="10.7694304"><ele>761.1428571428571</ele><time>2026-03-24T12:01:10.363Z</time></trkpt><trkpt lat="46.6306211" lon="10.7693427"><ele>761.2857142857142</ele><time>2026-03-24T12:01:12.361Z</time></trkpt><trkpt lat="46.6306436" lon="10.7692563"><ele>761.4285714285713</ele><time>2026-03-24T12:01:14.371Z</time></trkpt><trkpt lat="46.6306785" lon="10.7691281"><ele>761.5714285714286</ele><time>2026-03-24T12:01:17.365Z</time></trkpt><trkpt lat="46.6307143" lon="10.7689999"><ele>761.7142857142858</ele><time>2026-03-24T12:01:20.36Z</time></trkpt><trkpt lat="46.630738" lon="10.7689113"><ele>761.8571428571428</ele><time>2026-03-24T12:01:22.364Z</time></trkpt><trkpt lat="46.6307612" lon="10.7688219"><ele>762.0</ele><time>2026-03-24T12:01:24.371Z</time></trkpt><trkpt lat="46.6307937" lon="10.7686897"><ele>762.0</ele><time>2026-03-24T12:01:27.376Z</time></trkpt><trkpt lat="46.6308162" lon="10.7685972"><ele>762.0</ele><time>2026-03-24T12:01:29.365Z</time></trkpt><trkpt lat="46.6308395" lon="10.768503"><ele>762.0</ele><time>2026-03-24T12:01:31.364Z</time></trkpt><trkpt lat="46.6308587" lon="10.7684073"><ele>762.0</ele><time>2026-03-24T12:01:33.36Z</time></trkpt><trkpt lat="46.6308812" lon="10.7683152"><ele>762.0</ele><time>2026-03-24T12:01:35.372Z</time></trkpt><trkpt lat="46.6309037" lon="10.768222"><ele>762.0</ele><time>2026-03-24T12:01:37.372Z</time></trkpt><trkpt lat="46.6309242" lon="10.7681331"><ele>762.0</ele><time>2026-03-24T12:01:39.356Z</time></trkpt><trkpt lat="46.6309437" lon="10.7680416"><ele>762.0</ele><time>2026-03-24T12:01:41.371Z</time></trkpt><trkpt lat="46.6309673" lon="10.7679539"><ele>762.0</ele><time>2026-03-24T12:01:43.37Z</time></trkpt><trkpt lat="46.630989" lon="10.7678577"><ele>762.0</ele><time>2026-03-24T12:01:45.365Z</time></trkpt><trkpt lat="46.6310081" lon="10.7677633"><ele>762.0</ele><time>2026-03-24T12:01:47.359Z</time></trkpt><trkpt lat="46.6310271" lon="10.7676691"><ele>762.0</ele><time>2026-03-24T12:01:49.366Z</time></trkpt><trkpt lat="46.6310438" lon="10.7675794"><ele>762.0</ele><time>2026-03-24T12:01:51.375Z</time></trkpt><trkpt lat="46.6310586" lon="10.7674878"><ele>762.0</ele><time>2026-03-24T12:01:53.368Z</time></trkpt><trkpt lat="46.6310699" lon="10.7673955"><ele>761.7142857142857</ele><time>2026-03-24T12:01:55.37Z</time></trkpt><trkpt lat="46.6310809" lon="10.7673026"><ele>761.4285714285714</ele><time>2026-03-24T12:01:57.361Z</time></trkpt><trkpt lat="46.6310878" lon="10.7672059"><ele>761.1428571428571</ele><time>2026-03-24T12:01:59.374Z</time></trkpt><trkpt lat="46.631091" lon="10.767107"><ele>760.8571428571429</ele><time>2026-03-24T12:02:01.375Z</time></trkpt><trkpt lat="46.6310934" lon="10.7670116"><ele>760.5714285714287</ele><time>2026-03-24T12:02:03.368Z</time></trkpt><trkpt lat="46.6310941" lon="10.7669153"><ele>760.2857142857143</ele><time>2026-03-24T12:02:05.366Z</time></trkpt><trkpt lat="46.6310926" lon="10.7668176"><ele>760.0</ele><time>2026-03-24T12:02:07.371Z</time></trkpt><trkpt lat="46.6310883" lon="10.7667194"><ele>760.0</ele><time>2026-03-24T12:02:09.37Z</time></trkpt><trkpt lat="46.6310802" lon="10.7666201"><ele>760.0</ele><time>2026-03-24T12:02:11.37Z</time></trkpt><trkpt lat="46.6310738" lon="10.7665232"><ele>760.0</ele><time>2026-03-24T12:02:13.372Z</time></trkpt><trkpt lat="46.6310638" lon="10.7664267"><ele>760.0</ele><time>2026-03-24T12:02:15.363Z</time></trkpt><trkpt lat="46.6310515" lon="10.7663337"><ele>760.0</ele><time>2026-03-24T12:02:17.368Z</time></trkpt><trkpt lat="46.6310379" lon="10.7662369"><ele>760.0</ele><time>2026-03-24T12:02:19.369Z</time></trkpt><trkpt lat="46.6310202" lon="10.7661433"><ele>760.0</ele><time>2026-03-24T12:02:21.357Z</time></trkpt><trkpt lat="46.6309995" lon="10.7660491"><ele>760.8571428571429</ele><time>2026-03-24T12:02:23.362Z</time></trkpt><trkpt lat="46.6309778" lon="10.7659546"><ele>761.7142857142858</ele><time>2026-03-24T12:02:25.377Z</time></trkpt><trkpt lat="46.630953" lon="10.7658621"><ele>762.5714285714286</ele><time>2026-03-24T12:02:27.371Z</time></trkpt><trkpt lat="46.6309265" lon="10.7657663"><ele>763.4285714285714</ele><time>2026-03-24T12:02:29.368Z</time></trkpt><trkpt lat="46.6308962" lon="10.7656703"><ele>764.2857142857142</ele><time>2026-03-24T12:02:31.373Z</time></trkpt><trkpt lat="46.6308623" lon="10.7655779"><ele>765.1428571428571</ele><time>2026-03-24T12:02:33.36Z</time></trkpt><trkpt lat="46.6308261" lon="10.7654877"><ele>766.0</ele><time>2026-03-24T12:02:35.371Z</time></trkpt><trkpt lat="46.6307879" lon="10.7654003"><ele>766.0</ele><time>2026-03-24T12:02:37.377Z</time></trkpt><trkpt lat="46.6307471" lon="10.7653146"><ele>766.0</ele><time>2026-03-24T12:02:39.366Z</time></trkpt><trkpt lat="46.6307012" lon="10.7652314"><ele>766.0</ele><time>2026-03-24T12:02:41.36Z</time></trkpt><trkpt lat="46.6306541" lon="10.7651451"><ele>766.0</ele><time>2026-03-24T12:02:43.372Z</time></trkpt><trkpt lat="46.6306053" lon="10.7650638"><ele>766.0</ele><time>2026-03-24T12:02:45.351Z</time></trkpt><trkpt lat="46.6305569" lon="10.7649866"><ele>766.0</ele><time>2026-03-24T12:02:47.361Z</time></trkpt><trkpt lat="46.6305089" lon="10.7649201"><ele>766.0</ele><time>2026-03-24T12:02:49.366Z</time></trkpt><trkpt lat="46.6304576" lon="10.764846"><ele>766.0</ele><time>2026-03-24T12:02:51.363Z</time></trkpt><trkpt lat="46.6304028" lon="10.7647716"><ele>766.0</ele><time>2026-03-24T12:02:53.353Z</time></trkpt><trkpt lat="46.6303467" lon="10.7646991"><ele>766.0</ele><time>2026-03-24T12:02:55.355Z</time></trkpt><trkpt lat="46.6302893" lon="10.7646241"><ele>766.0</ele><time>2026-03-24T12:02:57.369Z</time></trkpt><trkpt lat="46.6302339" lon="10.7645456"><ele>766.0</ele><time>2026-03-24T12:02:59.371Z</time></trkpt><trkpt lat="46.6301774" lon="10.7644677"><ele>766.0</ele><time>2026-03-24T12:03:01.375Z</time></trkpt><trkpt lat="46.6301185" lon="10.7643871"><ele>766.6666666666667</ele><time>2026-03-24T12:03:03.362Z</time></trkpt><trkpt lat="46.6300587" lon="10.7643067"><ele>767.3333333333334</ele><time>2026-03-24T12:03:05.37Z</time></trkpt><trkpt lat="46.6299988" lon="10.7642241"><ele>768.0</ele><time>2026-03-24T12:03:07.366Z</time></trkpt><trkpt lat="46.6299394" lon="10.7641405"><ele>768.6666666666667</ele><time>2026-03-24T12:03:09.368Z</time></trkpt><trkpt lat="46.6298764" lon="10.7640552"><ele>769.3333333333334</ele><time>2026-03-24T12:03:11.368Z</time></trkpt><trkpt lat="46.6298158" lon="10.7639721"><ele>770.0</ele><time>2026-03-24T12:03:13.362Z</time></trkpt><trkpt lat="46.6297574" lon="10.7638894"><ele>770.0000000000001</ele><time>2026-03-24T12:03:15.378Z</time></trkpt><trkpt lat="46.6296948" lon="10.7638085"><ele>770.0</ele><time>2026-03-24T12:03:17.372Z</time></trkpt><trkpt lat="46.6296349" lon="10.7637265"><ele>770.0</ele><time>2026-03-24T12:03:19.365Z</time></trkpt><trkpt lat="46.6295742" lon="10.7636444"><ele>770.0</ele><time>2026-03-24T12:03:21.364Z</time></trkpt><trkpt lat="46.629514" lon="10.7635613"><ele>770.0000000000001</ele><time>2026-03-24T12:03:23.355Z</time></trkpt><trkpt lat="46.6294517" lon="10.7634784"><ele>770.0</ele><time>2026-03-24T12:03:25.358Z</time></trkpt><trkpt lat="46.629391" lon="10.7633938"><ele>770.6666666666667</ele><time>2026-03-24T12:03:27.372Z</time></trkpt><trkpt lat="46.6293287" lon="10.7633094"><ele>771.3333333333334</ele><time>2026-03-24T12:03:29.365Z</time></trkpt><trkpt lat="46.6292672" lon="10.763224"><ele>772.0</ele><time>2026-03-24T12:03:31.37Z</time></trkpt><trkpt lat="46.6292052" lon="10.7631402"><ele>772.6666666666667</ele><time>2026-03-24T12:03:33.365Z</time></trkpt><trkpt lat="46.6291454" lon="10.7630547"><ele>773.3333333333334</ele><time>2026-03-24T12:03:35.366Z</time></trkpt><trkpt lat="46.6290856" lon="10.762969"><ele>774.0</ele><time>2026-03-24T12:03:37.373Z</time></trkpt><trkpt lat="46.6290264" lon="10.7628864"><ele>774.0</ele><time>2026-03-24T12:03:39.377Z</time></trkpt><trkpt lat="46.6289706" lon="10.7628081"><ele>774.0</ele><time>2026-03-24T12:03:41.363Z</time></trkpt><trkpt lat="46.6289307" lon="10.7627095"><ele>774.0</ele><time>2026-03-24T12:03:43.367Z</time></trkpt><trkpt lat="46.6288938" lon="10.7626064"><ele>774.0</ele><time>2026-03-24T12:03:45.37Z</time></trkpt><trkpt lat="46.6288308" lon="10.7625278"><ele>774.0</ele><time>2026-03-24T12:03:47.374Z</time></trkpt><trkpt lat="46.6287497" lon="10.7624721"><ele>774.0</ele><time>2026-03-24T12:03:49.37Z</time></trkpt><trkpt lat="46.6286707" lon="10.7623978"><ele>773.8333333333334</ele><time>2026-03-24T12:03:51.362Z</time></trkpt><trkpt lat="46.6286031" lon="10.7623054"><ele>773.6666666666667</ele><time>2026-03-24T12:03:53.369Z</time></trkpt><trkpt lat="46.628537" lon="10.7622164"><ele>773.5</ele><time>2026-03-24T12:03:55.371Z</time></trkpt><trkpt lat="46.6284717" lon="10.762128"><ele>773.3333333333334</ele><time>2026-03-24T12:03:57.374Z</time></trkpt><trkpt lat="46.6284086" lon="10.7620433"><ele>773.1666666666667</ele><time>2026-03-24T12:03:59.371Z</time></trkpt><trkpt lat="46.6283437" lon="10.7619573"><ele>773.0</ele><time>2026-03-24T12:04:01.364Z</time></trkpt><trkpt lat="46.6282773" lon="10.7618673"><ele>773.8333333333334</ele><time>2026-03-24T12:04:03.374Z</time></trkpt><trkpt lat="46.6282099" lon="10.7617812"><ele>774.6666666666667</ele><time>2026-03-24T12:04:05.385Z</time></trkpt><trkpt lat="46.6281453" lon="10.7616896"><ele>775.5</ele><time>2026-03-24T12:04:07.373Z</time></trkpt><trkpt lat="46.628081" lon="10.7616003"><ele>776.3333333333333</ele><time>2026-03-24T12:04:09.375Z</time></trkpt><trkpt lat="46.6280149" lon="10.7615157"><ele>777.1666666666666</ele><time>2026-03-24T12:04:11.362Z</time></trkpt><trkpt lat="46.6279507" lon="10.7614288"><ele>778.0</ele><time>2026-03-24T12:04:13.363Z</time></trkpt><trkpt lat="46.6278856" lon="10.761342"><ele>777.9999999999999</ele><time>2026-03-24T12:04:15.363Z</time></trkpt><trkpt lat="46.6278242" lon="10.7612485"><ele>778.0</ele><time>2026-03-24T12:04:17.364Z</time></trkpt><trkpt lat="46.6277662" lon="10.7611651"><ele>778.0</ele><time>2026-03-24T12:04:19.369Z</time></trkpt><trkpt lat="46.6277083" lon="10.7610792"><ele>778.0</ele><time>2026-03-24T12:04:21.373Z</time></trkpt><trkpt lat="46.6276492" lon="10.7609864"><ele>777.9999999999999</ele><time>2026-03-24T12:04:23.368Z</time></trkpt><trkpt lat="46.6275916" lon="10.7608913"><ele>778.0</ele><time>2026-03-24T12:04:25.35Z</time></trkpt><trkpt lat="46.6275396" lon="10.7607975"><ele>778.1666666666666</ele><time>2026-03-24T12:04:27.371Z</time></trkpt><trkpt lat="46.62749" lon="10.7607022"><ele>778.3333333333333</ele><time>2026-03-24T12:04:29.366Z</time></trkpt><trkpt lat="46.6274415" lon="10.7606101"><ele>778.5</ele><time>2026-03-24T12:04:31.364Z</time></trkpt><trkpt lat="46.6273928" lon="10.760519"><ele>778.6666666666667</ele><time>2026-03-24T12:04:33.369Z</time></trkpt><trkpt lat="46.6273426" lon="10.760428"><ele>778.8333333333334</ele><time>2026-03-24T12:04:35.363Z</time></trkpt><trkpt lat="46.6272908" lon="10.7603363"><ele>779.0</ele><time>2026-03-24T12:04:37.374Z</time></trkpt><trkpt lat="46.6272407" lon="10.760245"><ele>778.8333333333334</ele><time>2026-03-24T12:04:39.368Z</time></trkpt><trkpt lat="46.6271899" lon="10.7601558"><ele>778.6666666666667</ele><time>2026-03-24T12:04:41.369Z</time></trkpt><trkpt lat="46.6271368" lon="10.7600637"><ele>778.5</ele><time>2026-03-24T12:04:43.378Z</time></trkpt><trkpt lat="46.6270887" lon="10.7599743"><ele>778.3333333333333</ele><time>2026-03-24T12:04:45.368Z</time></trkpt><trkpt lat="46.6270377" lon="10.7598871"><ele>778.1666666666666</ele><time>2026-03-24T12:04:47.367Z</time></trkpt><trkpt lat="46.6269917" lon="10.7597949"><ele>778.0</ele><time>2026-03-24T12:04:49.361Z</time></trkpt><trkpt lat="46.6269441" lon="10.7597088"><ele>777.9999999999999</ele><time>2026-03-24T12:04:51.369Z</time></trkpt><trkpt lat="46.6268926" lon="10.7596161"><ele>778.0</ele><time>2026-03-24T12:04:53.374Z</time></trkpt><trkpt lat="46.6268411" lon="10.7595268"><ele>778.0</ele><time>2026-03-24T12:04:55.375Z</time></trkpt><trkpt lat="46.6267926" lon="10.7594362"><ele>778.0</ele><time>2026-03-24T12:04:57.373Z</time></trkpt><trkpt lat="46.6267452" lon="10.7593491"><ele>777.9999999999999</ele><time>2026-03-24T12:04:59.367Z</time></trkpt><trkpt lat="46.626697" lon="10.7592614"><ele>778.0</ele><time>2026-03-24T12:05:01.367Z</time></trkpt><trkpt lat="46.6266491" lon="10.759174"><ele>778.9999999999999</ele><time>2026-03-24T12:05:03.378Z</time></trkpt><trkpt lat="46.6266021" lon="10.7590839"><ele>780.0</ele><time>2026-03-24T12:05:05.378Z</time></trkpt><trkpt lat="46.6265551" lon="10.758993"><ele>781.0</ele><time>2026-03-24T12:05:07.369Z</time></trkpt><trkpt lat="46.6265076" lon="10.7589047"><ele>782.0</ele><time>2026-03-24T12:05:09.366Z</time></trkpt><trkpt lat="46.6264599" lon="10.7588168"><ele>782.9999999999999</ele><time>2026-03-24T12:05:11.365Z</time></trkpt><trkpt lat="46.6264131" lon="10.75873"><ele>784.0</ele><time>2026-03-24T12:05:13.372Z</time></trkpt><trkpt lat="46.6263658" lon="10.7586432"><ele>783.9999999999999</ele><time>2026-03-24T12:05:15.367Z</time></trkpt><trkpt lat="46.626317" lon="10.7585583"><ele>784.0</ele><time>2026-03-24T12:05:17.377Z</time></trkpt><trkpt lat="46.6262702" lon="10.7584692"><ele>784.0</ele><time>2026-03-24T12:05:19.372Z</time></trkpt><trkpt lat="46.6262225" lon="10.7583794"><ele>784.0</ele><time>2026-03-24T12:05:21.36Z</time></trkpt><trkpt lat="46.6261741" lon="10.7582907"><ele>783.9999999999999</ele><time>2026-03-24T12:05:23.367Z</time></trkpt><trkpt lat="46.626127" lon="10.7582027"><ele>784.0</ele><time>2026-03-24T12:05:25.379Z</time></trkpt><trkpt lat="46.6260793" lon="10.7581157"><ele>784.8333333333333</ele><time>2026-03-24T12:05:27.374Z</time></trkpt><trkpt lat="46.6260321" lon="10.758028"><ele>785.6666666666666</ele><time>2026-03-24T12:05:29.378Z</time></trkpt><trkpt lat="46.6259847" lon="10.7579382"><ele>786.5</ele><time>2026-03-24T12:05:31.363Z</time></trkpt><trkpt lat="46.6259366" lon="10.7578518"><ele>787.3333333333333</ele><time>2026-03-24T12:05:33.373Z</time></trkpt><trkpt lat="46.6258894" lon="10.7577641"><ele>788.1666666666666</ele><time>2026-03-24T12:05:35.359Z</time></trkpt><trkpt lat="46.6258418" lon="10.7576755"><ele>789.0</ele><time>2026-03-24T12:05:37.372Z</time></trkpt><trkpt lat="46.6257949" lon="10.7575872"><ele>789.7142857142857</ele><time>2026-03-24T12:05:39.358Z</time></trkpt><trkpt lat="46.6257497" lon="10.7575"><ele>790.4285714285714</ele><time>2026-03-24T12:05:41.362Z</time></trkpt><trkpt lat="46.6257026" lon="10.7574132"><ele>791.1428571428571</ele><time>2026-03-24T12:05:43.371Z</time></trkpt><trkpt lat="46.6256585" lon="10.7573288"><ele>791.8571428571429</ele><time>2026-03-24T12:05:45.372Z</time></trkpt><trkpt lat="46.6256112" lon="10.757246"><ele>792.5714285714286</ele><time>2026-03-24T12:05:47.363Z</time></trkpt><trkpt lat="46.6255653" lon="10.7571606"><ele>793.2857142857142</ele><time>2026-03-24T12:05:49.353Z</time></trkpt><trkpt lat="46.6255173" lon="10.7570772"><ele>794.0</ele><time>2026-03-24T12:05:51.371Z</time></trkpt><trkpt lat="46.6254705" lon="10.7569908"><ele>794.0</ele><time>2026-03-24T12:05:53.363Z</time></trkpt><trkpt lat="46.625425" lon="10.756903"><ele>794.0</ele><time>2026-03-24T12:05:55.361Z</time></trkpt><trkpt lat="46.6253801" lon="10.7568163"><ele>794.0</ele><time>2026-03-24T12:05:57.366Z</time></trkpt><trkpt lat="46.6253345" lon="10.7567318"><ele>794.0</ele><time>2026-03-24T12:05:59.36Z</time></trkpt><trkpt lat="46.6252901" lon="10.7566455"><ele>794.0</ele><time>2026-03-24T12:06:01.363Z</time></trkpt><trkpt lat="46.6252431" lon="10.7565602"><ele>794.0</ele><time>2026-03-24T12:06:03.377Z</time></trkpt><trkpt lat="46.6251971" lon="10.7564754"><ele>794.0</ele><time>2026-03-24T12:06:05.363Z</time></trkpt><trkpt lat="46.6251504" lon="10.7563925"><ele>794.1666666666667</ele><time>2026-03-24T12:06:07.371Z</time></trkpt><trkpt lat="46.6251039" lon="10.7563066"><ele>794.3333333333334</ele><time>2026-03-24T12:06:09.379Z</time></trkpt><trkpt lat="46.6250563" lon="10.7562211"><ele>794.5</ele><time>2026-03-24T12:06:11.367Z</time></trkpt><trkpt lat="46.6250092" lon="10.7561324"><ele>794.6666666666667</ele><time>2026-03-24T12:06:13.371Z</time></trkpt><trkpt lat="46.6249617" lon="10.7560464"><ele>794.8333333333334</ele><time>2026-03-24T12:06:15.366Z</time></trkpt><trkpt lat="46.624916" lon="10.7559619"><ele>795.0</ele><time>2026-03-24T12:06:17.368Z</time></trkpt><trkpt lat="46.624871" lon="10.7558782"><ele>795.7142857142858</ele><time>2026-03-24T12:06:19.376Z</time></trkpt><trkpt lat="46.6248248" lon="10.7557948"><ele>796.4285714285714</ele><time>2026-03-24T12:06:21.385Z</time></trkpt><trkpt lat="46.6247805" lon="10.7557095"><ele>797.1428571428571</ele><time>2026-03-24T12:06:23.369Z</time></trkpt><trkpt lat="46.6247357" lon="10.7556242"><ele>797.8571428571429</ele><time>2026-03-24T12:06:25.363Z</time></trkpt><trkpt lat="46.6246902" lon="10.7555363"><ele>798.5714285714286</ele><time>2026-03-24T12:06:27.368Z</time></trkpt><trkpt lat="46.6246476" lon="10.7554483"><ele>799.2857142857143</ele><time>2026-03-24T12:06:29.368Z</time></trkpt><trkpt lat="46.6246075" lon="10.7553585"><ele>800.0</ele><time>2026-03-24T12:06:31.366Z</time></trkpt><trkpt lat="46.624571" lon="10.755258"><ele>800.8333333333334</ele><time>2026-03-24T12:06:33.382Z</time></trkpt><trkpt lat="46.6245403" lon="10.7551552"><ele>801.6666666666667</ele><time>2026-03-24T12:06:35.371Z</time></trkpt><trkpt lat="46.6245166" lon="10.7550539"><ele>802.5</ele><time>2026-03-24T12:06:37.364Z</time></trkpt><trkpt lat="46.6245012" lon="10.7549445"><ele>803.3333333333333</ele><time>2026-03-24T12:06:39.364Z</time></trkpt><trkpt lat="46.6244899" lon="10.7548353"><ele>804.1666666666666</ele><time>2026-03-24T12:06:41.372Z</time></trkpt><trkpt lat="46.6244843" lon="10.7547246"><ele>805.0</ele><time>2026-03-24T12:06:43.358Z</time></trkpt><trkpt lat="46.6244845" lon="10.7546139"><ele>804.9999999999999</ele><time>2026-03-24T12:06:45.373Z</time></trkpt><trkpt lat="46.6244904" lon="10.7545021"><ele>805.0</ele><time>2026-03-24T12:06:47.367Z</time></trkpt><trkpt lat="46.6245039" lon="10.7543925"><ele>805.0</ele><time>2026-03-24T12:06:49.363Z</time></trkpt><trkpt lat="46.6245267" lon="10.7542868"><ele>805.0</ele><time>2026-03-24T12:06:51.374Z</time></trkpt><trkpt lat="46.6245577" lon="10.7541849"><ele>804.9999999999999</ele><time>2026-03-24T12:06:53.377Z</time></trkpt><trkpt lat="46.6245915" lon="10.7540882"><ele>805.0</ele><time>2026-03-24T12:06:55.368Z</time></trkpt><trkpt lat="46.6246281" lon="10.7539999"><ele>805.7142857142857</ele><time>2026-03-24T12:06:57.371Z</time></trkpt><trkpt lat="46.6246691" lon="10.7539141"><ele>806.4285714285714</ele><time>2026-03-24T12:06:59.359Z</time></trkpt><trkpt lat="46.6247135" lon="10.7538285"><ele>807.1428571428571</ele><time>2026-03-24T12:07:01.365Z</time></trkpt><trkpt lat="46.6247642" lon="10.7537522"><ele>807.8571428571429</ele><time>2026-03-24T12:07:03.363Z</time></trkpt><trkpt lat="46.6248172" lon="10.7536864"><ele>808.5714285714286</ele><time>2026-03-24T12:07:05.36Z</time></trkpt><trkpt lat="46.6248725" lon="10.75363"><ele>809.2857142857142</ele><time>2026-03-24T12:07:07.362Z</time></trkpt><trkpt lat="46.6249336" lon="10.7535789"><ele>810.0</ele><time>2026-03-24T12:07:09.36Z</time></trkpt><trkpt lat="46.6249993" lon="10.7535361"><ele>810.7142857142857</ele><time>2026-03-24T12:07:11.362Z</time></trkpt><trkpt lat="46.6250699" lon="10.7535073"><ele>811.4285714285714</ele><time>2026-03-24T12:07:13.368Z</time></trkpt><trkpt lat="46.6251434" lon="10.7534886"><ele>812.1428571428571</ele><time>2026-03-24T12:07:15.358Z</time></trkpt><trkpt lat="46.6252172" lon="10.7534808"><ele>812.8571428571429</ele><time>2026-03-24T12:07:17.367Z</time></trkpt><trkpt lat="46.6252881" lon="10.7534716"><ele>813.5714285714286</ele><time>2026-03-24T12:07:19.37Z</time></trkpt><trkpt lat="46.6253588" lon="10.753463"><ele>814.2857142857142</ele><time>2026-03-24T12:07:21.373Z</time></trkpt><trkpt lat="46.6254287" lon="10.7534574"><ele>815.0</ele><time>2026-03-24T12:07:23.359Z</time></trkpt><trkpt lat="46.6255" lon="10.7534486"><ele>815.7142857142857</ele><time>2026-03-24T12:07:25.373Z</time></trkpt><trkpt lat="46.6255715" lon="10.7534407"><ele>816.4285714285713</ele><time>2026-03-24T12:07:27.372Z</time></trkpt><trkpt lat="46.6256403" lon="10.7534346"><ele>817.1428571428571</ele><time>2026-03-24T12:07:29.356Z</time></trkpt><trkpt lat="46.6257108" lon="10.7534283"><ele>817.8571428571429</ele><time>2026-03-24T12:07:31.372Z</time></trkpt><trkpt lat="46.6257779" lon="10.7534234"><ele>818.5714285714286</ele><time>2026-03-24T12:07:33.369Z</time></trkpt><trkpt lat="46.6258479" lon="10.7534183"><ele>819.2857142857143</ele><time>2026-03-24T12:07:35.376Z</time></trkpt><trkpt lat="46.6259179" lon="10.7534106"><ele>820.0</ele><time>2026-03-24T12:07:37.362Z</time></trkpt><trkpt lat="46.6259877" lon="10.7534008"><ele>820.0</ele><time>2026-03-24T12:07:39.367Z</time></trkpt><trkpt lat="46.6260576" lon="10.7533927"><ele>820.0</ele><time>2026-03-24T12:07:41.379Z</time></trkpt><trkpt lat="46.6261256" lon="10.7533853"><ele>820.0</ele><time>2026-03-24T12:07:43.372Z</time></trkpt><trkpt lat="46.6261933" lon="10.7533788"><ele>820.0</ele><time>2026-03-24T12:07:45.372Z</time></trkpt><trkpt lat="46.6262615" lon="10.7533725"><ele>820.0</ele><time>2026-03-24T12:07:47.37Z</time></trkpt><trkpt lat="46.6263306" lon="10.7533665"><ele>820.0</ele><time>2026-03-24T12:07:49.364Z</time></trkpt><trkpt lat="46.6264011" lon="10.7533623"><ele>820.0</ele><time>2026-03-24T12:07:51.37Z</time></trkpt><trkpt lat="46.6264732" lon="10.7533561"><ele>820.0</ele><time>2026-03-24T12:07:53.38Z</time></trkpt><trkpt lat="46.6265419" lon="10.75335"><ele>820.0</ele><time>2026-03-24T12:07:55.365Z</time></trkpt><trkpt lat="46.6266133" lon="10.7533441"><ele>820.0</ele><time>2026-03-24T12:07:57.364Z</time></trkpt><trkpt lat="46.6266871" lon="10.7533383"><ele>820.0</ele><time>2026-03-24T12:07:59.364Z</time></trkpt><trkpt lat="46.6267579" lon="10.7533324"><ele>820.0</ele><time>2026-03-24T12:08:01.366Z</time></trkpt><trkpt lat="46.6268291" lon="10.7533267"><ele>820.0</ele><time>2026-03-24T12:08:03.382Z</time></trkpt><trkpt lat="46.6269005" lon="10.7533208"><ele>820.0</ele><time>2026-03-24T12:08:05.37Z</time></trkpt><trkpt lat="46.6269721" lon="10.7533146"><ele>820.7142857142858</ele><time>2026-03-24T12:08:07.371Z</time></trkpt><trkpt lat="46.6270426" lon="10.7533069"><ele>821.4285714285713</ele><time>2026-03-24T12:08:09.368Z</time></trkpt><trkpt lat="46.6271132" lon="10.753301"><ele>822.1428571428571</ele><time>2026-03-24T12:08:11.363Z</time></trkpt><trkpt lat="46.6271848" lon="10.753295"><ele>822.8571428571429</ele><time>2026-03-24T12:08:13.366Z</time></trkpt><trkpt lat="46.6272555" lon="10.7532908"><ele>823.5714285714287</ele><time>2026-03-24T12:08:15.376Z</time></trkpt><trkpt lat="46.6273261" lon="10.7532819"><ele>824.2857142857142</ele><time>2026-03-24T12:08:17.372Z</time></trkpt><trkpt lat="46.6273978" lon="10.7532748"><ele>825.0</ele><time>2026-03-24T12:08:19.364Z</time></trkpt><trkpt lat="46.6274698" lon="10.7532674"><ele>825.0</ele><time>2026-03-24T12:08:21.362Z</time></trkpt><trkpt lat="46.6275403" lon="10.7532635"><ele>825.0</ele><time>2026-03-24T12:08:23.375Z</time></trkpt><trkpt lat="46.6276111" lon="10.753258"><ele>825.0</ele><time>2026-03-24T12:08:25.356Z</time></trkpt><trkpt lat="46.627681" lon="10.7532518"><ele>825.0</ele><time>2026-03-24T12:08:27.367Z</time></trkpt><trkpt lat="46.6277526" lon="10.7532477"><ele>825.0</ele><time>2026-03-24T12:08:29.36Z</time></trkpt><trkpt lat="46.6278232" lon="10.7532394"><ele>825.0</ele><time>2026-03-24T12:08:31.37Z</time></trkpt><trkpt lat="46.6278953" lon="10.7532328"><ele>825.0</ele><time>2026-03-24T12:08:33.368Z</time></trkpt><trkpt lat="46.6279651" lon="10.7532271"><ele>825.1428571428571</ele><time>2026-03-24T12:08:35.358Z</time></trkpt><trkpt lat="46.628035" lon="10.7532109"><ele>825.2857142857143</ele><time>2026-03-24T12:08:37.378Z</time></trkpt><trkpt lat="46.6281013" lon="10.7531914"><ele>825.4285714285714</ele><time>2026-03-24T12:08:39.371Z</time></trkpt><trkpt lat="46.6281681" lon="10.7531637"><ele>825.5714285714286</ele><time>2026-03-24T12:08:41.362Z</time></trkpt><trkpt lat="46.6282324" lon="10.7531281"><ele>825.7142857142858</ele><time>2026-03-24T12:08:43.382Z</time></trkpt><trkpt lat="46.6282945" lon="10.7530857"><ele>825.8571428571429</ele><time>2026-03-24T12:08:45.375Z</time></trkpt><trkpt lat="46.6283571" lon="10.7530381"><ele>826.0</ele><time>2026-03-24T12:08:47.364Z</time></trkpt><trkpt lat="46.6284125" lon="10.7529863"><ele>826.0</ele><time>2026-03-24T12:08:49.366Z</time></trkpt><trkpt lat="46.6284624" lon="10.75293"><ele>826.0</ele><time>2026-03-24T12:08:51.374Z</time></trkpt><trkpt lat="46.6285075" lon="10.7528612"><ele>826.0</ele><time>2026-03-24T12:08:53.368Z</time></trkpt><trkpt lat="46.6285493" lon="10.7527876"><ele>826.0</ele><time>2026-03-24T12:08:55.363Z</time></trkpt><trkpt lat="46.6285859" lon="10.7527081"><ele>826.0</ele><time>2026-03-24T12:08:57.365Z</time></trkpt><trkpt lat="46.6286177" lon="10.7526252"><ele>826.0</ele><time>2026-03-24T12:08:59.365Z</time></trkpt><trkpt lat="46.6286433" lon="10.7525398"><ele>826.0</ele><time>2026-03-24T12:09:01.359Z</time></trkpt><trkpt lat="46.6286649" lon="10.7524508"><ele>827.2857142857143</ele><time>2026-03-24T12:09:03.369Z</time></trkpt><trkpt lat="46.628681" lon="10.7523569"><ele>828.5714285714286</ele><time>2026-03-24T12:09:05.388Z</time></trkpt><trkpt lat="46.6286929" lon="10.7522617"><ele>829.8571428571429</ele><time>2026-03-24T12:09:07.368Z</time></trkpt><trkpt lat="46.6286994" lon="10.7521651"><ele>831.1428571428571</ele><time>2026-03-24T12:09:09.375Z</time></trkpt><trkpt lat="46.6286988" lon="10.7520695"><ele>832.4285714285714</ele><time>2026-03-24T12:09:11.376Z</time></trkpt><trkpt lat="46.6286917" lon="10.7519738"><ele>833.7142857142858</ele><time>2026-03-24T12:09:13.369Z</time></trkpt><trkpt lat="46.628681" lon="10.7518774"><ele>835.0</ele><time>2026-03-24T12:09:15.369Z</time></trkpt><trkpt lat="46.6286636" lon="10.7517818"><ele>835.4285714285714</ele><time>2026-03-24T12:09:17.363Z</time></trkpt><trkpt lat="46.6286437" lon="10.7516859"><ele>835.8571428571429</ele><time>2026-03-24T12:09:19.365Z</time></trkpt><trkpt lat="46.6286156" lon="10.7515972"><ele>836.2857142857142</ele><time>2026-03-24T12:09:21.366Z</time></trkpt><trkpt lat="46.6285769" lon="10.7515184"><ele>836.7142857142858</ele><time>2026-03-24T12:09:23.368Z</time></trkpt><trkpt lat="46.628535" lon="10.7514481"><ele>837.1428571428571</ele><time>2026-03-24T12:09:25.367Z</time></trkpt><trkpt lat="46.6284922" lon="10.751379"><ele>837.5714285714286</ele><time>2026-03-24T12:09:27.366Z</time></trkpt><trkpt lat="46.6284481" lon="10.7513115"><ele>838.0</ele><time>2026-03-24T12:09:29.368Z</time></trkpt><trkpt lat="46.6284057" lon="10.7512413"><ele>837.9999999999999</ele><time>2026-03-24T12:09:31.344Z</time></trkpt><trkpt lat="46.6283611" lon="10.7511727"><ele>838.0</ele><time>2026-03-24T12:09:33.378Z</time></trkpt><trkpt lat="46.6283158" lon="10.7511035"><ele>838.0</ele><time>2026-03-24T12:09:35.375Z</time></trkpt><trkpt lat="46.6282575" lon="10.7510122"><ele>838.0</ele><time>2026-03-24T12:09:38.366Z</time></trkpt><trkpt lat="46.6281941" lon="10.7509135"><ele>837.9999999999999</ele><time>2026-03-24T12:09:41.356Z</time></trkpt><trkpt lat="46.6281291" lon="10.7508153"><ele>838.0</ele><time>2026-03-24T12:09:44.364Z</time></trkpt><trkpt lat="46.6280846" lon="10.7507481"><ele>838.7142857142857</ele><time>2026-03-24T12:09:46.373Z</time></trkpt><trkpt lat="46.6280395" lon="10.7506813"><ele>839.4285714285714</ele><time>2026-03-24T12:09:48.366Z</time></trkpt><trkpt lat="46.6279954" lon="10.750612"><ele>840.1428571428571</ele><time>2026-03-24T12:09:50.371Z</time></trkpt><trkpt lat="46.6279514" lon="10.7505418"><ele>840.8571428571429</ele><time>2026-03-24T12:09:52.369Z</time></trkpt><trkpt lat="46.6279071" lon="10.7504691"><ele>841.5714285714286</ele><time>2026-03-24T12:09:54.371Z</time></trkpt><trkpt lat="46.6278635" lon="10.7503976"><ele>842.2857142857142</ele><time>2026-03-24T12:09:56.37Z</time></trkpt><trkpt lat="46.6278186" lon="10.750328"><ele>843.0</ele><time>2026-03-24T12:09:58.374Z</time></trkpt><trkpt lat="46.6277749" lon="10.7502587"><ele>843.8571428571429</ele><time>2026-03-24T12:10:00.38Z</time></trkpt><trkpt lat="46.6277299" lon="10.7501912"><ele>844.7142857142857</ele><time>2026-03-24T12:10:02.371Z</time></trkpt><trkpt lat="46.6276886" lon="10.7501215"><ele>845.5714285714287</ele><time>2026-03-24T12:10:04.362Z</time></trkpt><trkpt lat="46.6276246" lon="10.7500211"><ele>846.4285714285714</ele><time>2026-03-24T12:10:07.362Z</time></trkpt><trkpt lat="46.6275798" lon="10.7499551"><ele>847.2857142857143</ele><time>2026-03-24T12:10:09.372Z</time></trkpt><trkpt lat="46.6275382" lon="10.7498856"><ele>848.1428571428572</ele><time>2026-03-24T12:10:11.375Z</time></trkpt><trkpt lat="46.6274958" lon="10.7498177"><ele>849.0</ele><time>2026-03-24T12:10:13.367Z</time></trkpt><trkpt lat="46.6274315" lon="10.7497182"><ele>849.0000000000001</ele><time>2026-03-24T12:10:16.366Z</time></trkpt><trkpt lat="46.6273686" lon="10.7496167"><ele>849.0</ele><time>2026-03-24T12:10:19.375Z</time></trkpt><trkpt lat="46.6273249" lon="10.749549"><ele>849.0</ele><time>2026-03-24T12:10:21.367Z</time></trkpt><trkpt lat="46.6272825" lon="10.7494789"><ele>849.0</ele><time>2026-03-24T12:10:23.364Z</time></trkpt><trkpt lat="46.62724" lon="10.7494097"><ele>849.0</ele><time>2026-03-24T12:10:25.357Z</time></trkpt><trkpt lat="46.6271968" lon="10.7493397"><ele>849.0000000000001</ele><time>2026-03-24T12:10:27.367Z</time></trkpt><trkpt lat="46.6271531" lon="10.7492708"><ele>849.0</ele><time>2026-03-24T12:10:29.36Z</time></trkpt><trkpt lat="46.6271089" lon="10.7492028"><ele>849.4285714285714</ele><time>2026-03-24T12:10:31.368Z</time></trkpt><trkpt lat="46.6270653" lon="10.7491313"><ele>849.8571428571429</ele><time>2026-03-24T12:10:33.37Z</time></trkpt><trkpt lat="46.6270229" lon="10.7490581"><ele>850.2857142857142</ele><time>2026-03-24T12:10:35.371Z</time></trkpt><trkpt lat="46.62698" lon="10.7489829"><ele>850.7142857142858</ele><time>2026-03-24T12:10:37.368Z</time></trkpt><trkpt lat="46.6269364" lon="10.7489064"><ele>851.1428571428571</ele><time>2026-03-24T12:10:39.375Z</time></trkpt><trkpt lat="46.6268972" lon="10.748823"><ele>851.5714285714286</ele><time>2026-03-24T12:10:41.374Z</time></trkpt><trkpt lat="46.6268553" lon="10.7487447"><ele>852.0</ele><time>2026-03-24T12:10:43.366Z</time></trkpt><trkpt lat="46.6268171" lon="10.7486697"><ele>851.9999999999999</ele><time>2026-03-24T12:10:45.369Z</time></trkpt><trkpt lat="46.6267795" lon="10.7485881"><ele>852.0</ele><time>2026-03-24T12:10:47.38Z</time></trkpt><trkpt lat="46.6267392" lon="10.7485089"><ele>852.0</ele><time>2026-03-24T12:10:49.368Z</time></trkpt><trkpt lat="46.6267001" lon="10.748429"><ele>852.0</ele><time>2026-03-24T12:10:51.364Z</time></trkpt><trkpt lat="46.6266608" lon="10.7483505"><ele>852.0</ele><time>2026-03-24T12:10:53.369Z</time></trkpt><trkpt lat="46.6266225" lon="10.7482747"><ele>851.9999999999999</ele><time>2026-03-24T12:10:55.366Z</time></trkpt><trkpt lat="46.6265837" lon="10.7481962"><ele>852.0</ele><time>2026-03-24T12:10:57.374Z</time></trkpt><trkpt lat="46.6265444" lon="10.7481203"><ele>852.5714285714286</ele><time>2026-03-24T12:10:59.377Z</time></trkpt><trkpt lat="46.6265043" lon="10.7480423"><ele>853.1428571428571</ele><time>2026-03-24T12:11:01.366Z</time></trkpt><trkpt lat="46.6264644" lon="10.7479642"><ele>853.7142857142858</ele><time>2026-03-24T12:11:03.371Z</time></trkpt><trkpt lat="46.6264245" lon="10.7478875"><ele>854.2857142857142</ele><time>2026-03-24T12:11:05.358Z</time></trkpt><trkpt lat="46.6263839" lon="10.747809"><ele>854.8571428571429</ele><time>2026-03-24T12:11:07.361Z</time></trkpt><trkpt lat="46.6263444" lon="10.7477293"><ele>855.4285714285714</ele><time>2026-03-24T12:11:09.37Z</time></trkpt><trkpt lat="46.6263043" lon="10.7476499"><ele>856.0</ele><time>2026-03-24T12:11:11.376Z</time></trkpt><trkpt lat="46.6262638" lon="10.7475721"><ele>856.1428571428572</ele><time>2026-03-24T12:11:13.377Z</time></trkpt><trkpt lat="46.6262242" lon="10.7474929"><ele>856.2857142857143</ele><time>2026-03-24T12:11:15.346Z</time></trkpt><trkpt lat="46.6261825" lon="10.7474134"><ele>856.4285714285714</ele><time>2026-03-24T12:11:17.369Z</time></trkpt><trkpt lat="46.626142" lon="10.7473328"><ele>856.5714285714287</ele><time>2026-03-24T12:11:19.354Z</time></trkpt><trkpt lat="46.6261016" lon="10.7472548"><ele>856.7142857142857</ele><time>2026-03-24T12:11:21.36Z</time></trkpt><trkpt lat="46.626061" lon="10.7471775"><ele>856.8571428571429</ele><time>2026-03-24T12:11:23.369Z</time></trkpt><trkpt lat="46.6260216" lon="10.7470967"><ele>857.0</ele><time>2026-03-24T12:11:25.381Z</time></trkpt><trkpt lat="46.6259799" lon="10.7470185"><ele>857.0</ele><time>2026-03-24T12:11:27.367Z</time></trkpt><trkpt lat="46.6259409" lon="10.7469398"><ele>857.0</ele><time>2026-03-24T12:11:29.378Z</time></trkpt><trkpt lat="46.6259003" lon="10.746859"><ele>857.0</ele><time>2026-03-24T12:11:31.381Z</time></trkpt><trkpt lat="46.6258628" lon="10.7467747"><ele>857.0</ele><time>2026-03-24T12:11:33.381Z</time></trkpt><trkpt lat="46.6258265" lon="10.7466908"><ele>857.0</ele><time>2026-03-24T12:11:35.356Z</time></trkpt><trkpt lat="46.6257914" lon="10.7466098"><ele>857.0</ele><time>2026-03-24T12:11:37.368Z</time></trkpt><trkpt lat="46.6257563" lon="10.7465253"><ele>857.0</ele><time>2026-03-24T12:11:39.375Z</time></trkpt><trkpt lat="46.6257208" lon="10.7464414"><ele>857.8571428571429</ele><time>2026-03-24T12:11:41.369Z</time></trkpt><trkpt lat="46.6256867" lon="10.7463568"><ele>858.7142857142857</ele><time>2026-03-24T12:11:43.354Z</time></trkpt><trkpt lat="46.6256531" lon="10.7462692"><ele>859.5714285714287</ele><time>2026-03-24T12:11:45.362Z</time></trkpt><trkpt lat="46.6256193" lon="10.746185"><ele>860.4285714285714</ele><time>2026-03-24T12:11:47.374Z</time></trkpt><trkpt lat="46.6255847" lon="10.7461041"><ele>861.2857142857143</ele><time>2026-03-24T12:11:49.369Z</time></trkpt><trkpt lat="46.6255464" lon="10.7460232"><ele>862.1428571428572</ele><time>2026-03-24T12:11:51.354Z</time></trkpt><trkpt lat="46.6255127" lon="10.7459367"><ele>863.0</ele><time>2026-03-24T12:11:53.361Z</time></trkpt><trkpt lat="46.6254775" lon="10.7458547"><ele>863.0000000000001</ele><time>2026-03-24T12:11:55.374Z</time></trkpt><trkpt lat="46.6254439" lon="10.7457717"><ele>863.0</ele><time>2026-03-24T12:11:57.37Z</time></trkpt><trkpt lat="46.6254126" lon="10.7456887"><ele>863.0</ele><time>2026-03-24T12:11:59.364Z</time></trkpt><trkpt lat="46.6253802" lon="10.7456061"><ele>863.0</ele><time>2026-03-24T12:12:01.372Z</time></trkpt><trkpt lat="46.6253486" lon="10.7455262"><ele>863.0</ele><time>2026-03-24T12:12:03.36Z</time></trkpt><trkpt lat="46.6253155" lon="10.7454445"><ele>863.0000000000001</ele><time>2026-03-24T12:12:05.364Z</time></trkpt><trkpt lat="46.625283" lon="10.7453615"><ele>863.0</ele><time>2026-03-24T12:12:07.367Z</time></trkpt><trkpt lat="46.6252514" lon="10.7452791"><ele>864.2857142857143</ele><time>2026-03-24T12:12:09.379Z</time></trkpt><trkpt lat="46.6252182" lon="10.7451986"><ele>865.5714285714286</ele><time>2026-03-24T12:12:11.359Z</time></trkpt><trkpt lat="46.6251871" lon="10.7451168"><ele>866.8571428571429</ele><time>2026-03-24T12:12:13.363Z</time></trkpt><trkpt lat="46.6251544" lon="10.7450366"><ele>868.1428571428571</ele><time>2026-03-24T12:12:15.367Z</time></trkpt><trkpt lat="46.6251222" lon="10.7449572"><ele>869.4285714285714</ele><time>2026-03-24T12:12:17.364Z</time></trkpt><trkpt lat="46.6250893" lon="10.7448763"><ele>870.7142857142858</ele><time>2026-03-24T12:12:19.374Z</time></trkpt><trkpt lat="46.6250583" lon="10.7447937"><ele>872.0</ele><time>2026-03-24T12:12:21.355Z</time></trkpt><trkpt lat="46.6250281" lon="10.7447099"><ele>872.0</ele><time>2026-03-24T12:12:23.374Z</time></trkpt><trkpt lat="46.625" lon="10.7446251"><ele>872.0</ele><time>2026-03-24T12:12:25.376Z</time></trkpt><trkpt lat="46.6249735" lon="10.7445392"><ele>872.0</ele><time>2026-03-24T12:12:27.371Z</time></trkpt><trkpt lat="46.6249474" lon="10.7444524"><ele>872.0</ele><time>2026-03-24T12:12:29.374Z</time></trkpt><trkpt lat="46.6249227" lon="10.7443641"><ele>872.0</ele><time>2026-03-24T12:12:31.36Z</time></trkpt><trkpt lat="46.6249002" lon="10.7442753"><ele>872.0</ele><time>2026-03-24T12:12:33.369Z</time></trkpt><trkpt lat="46.6248788" lon="10.7441858"><ele>872.0</ele><time>2026-03-24T12:12:35.372Z</time></trkpt><trkpt lat="46.6248569" lon="10.7440885"><ele>873.0000000000001</ele><time>2026-03-24T12:12:37.373Z</time></trkpt><trkpt lat="46.6248357" lon="10.7439974"><ele>874.0</ele><time>2026-03-24T12:12:39.368Z</time></trkpt><trkpt lat="46.6248179" lon="10.7439033"><ele>875.0</ele><time>2026-03-24T12:12:41.36Z</time></trkpt><trkpt lat="46.6248004" lon="10.7438112"><ele>876.0</ele><time>2026-03-24T12:12:43.364Z</time></trkpt><trkpt lat="46.6247789" lon="10.7436808"><ele>877.0000000000001</ele><time>2026-03-24T12:12:46.372Z</time></trkpt><trkpt lat="46.6247596" lon="10.7435603"><ele>878.0</ele><time>2026-03-24T12:12:49.366Z</time></trkpt><trkpt lat="46.6247411" lon="10.7434433"><ele>878.8333333333334</ele><time>2026-03-24T12:12:52.363Z</time></trkpt><trkpt lat="46.6247206" lon="10.7433239"><ele>879.6666666666667</ele><time>2026-03-24T12:12:55.376Z</time></trkpt><trkpt lat="46.624704" lon="10.7432011"><ele>880.5</ele><time>2026-03-24T12:12:58.379Z</time></trkpt><trkpt lat="46.624684" lon="10.743077"><ele>881.3333333333333</ele><time>2026-03-24T12:13:01.363Z</time></trkpt><trkpt lat="46.6246671" lon="10.7429563"><ele>882.1666666666666</ele><time>2026-03-24T12:13:04.359Z</time></trkpt><trkpt lat="46.6246484" lon="10.742836"><ele>883.0</ele><time>2026-03-24T12:13:07.361Z</time></trkpt><trkpt lat="46.6246309" lon="10.7427154"><ele>884.1666666666666</ele><time>2026-03-24T12:13:10.359Z</time></trkpt><trkpt lat="46.6246124" lon="10.7425944"><ele>885.3333333333333</ele><time>2026-03-24T12:13:13.356Z</time></trkpt><trkpt lat="46.6245913" lon="10.7424779"><ele>886.5</ele><time>2026-03-24T12:13:16.369Z</time></trkpt><trkpt lat="46.6245669" lon="10.7423635"><ele>887.6666666666667</ele><time>2026-03-24T12:13:19.365Z</time></trkpt><trkpt lat="46.6245412" lon="10.7422497"><ele>888.8333333333334</ele><time>2026-03-24T12:13:22.372Z</time></trkpt><trkpt lat="46.6245147" lon="10.7421354"><ele>890.0</ele><time>2026-03-24T12:13:25.358Z</time></trkpt><trkpt lat="46.6244883" lon="10.7420213"><ele>890.1666666666667</ele><time>2026-03-24T12:13:28.36Z</time></trkpt><trkpt lat="46.6244623" lon="10.7419082"><ele>890.3333333333334</ele><time>2026-03-24T12:13:31.376Z</time></trkpt><trkpt lat="46.6244335" lon="10.741798"><ele>890.5</ele><time>2026-03-24T12:13:34.373Z</time></trkpt><trkpt lat="46.6244067" lon="10.7416853"><ele>890.6666666666667</ele><time>2026-03-24T12:13:37.366Z</time></trkpt><trkpt lat="46.6243754" lon="10.7415702"><ele>890.8333333333334</ele><time>2026-03-24T12:13:40.365Z</time></trkpt><trkpt lat="46.6243414" lon="10.7414609"><ele>891.0</ele><time>2026-03-24T12:13:43.361Z</time></trkpt><trkpt lat="46.6243033" lon="10.7413552"><ele>891.0</ele><time>2026-03-24T12:13:46.366Z</time></trkpt><trkpt lat="46.6242599" lon="10.7412519"><ele>891.0</ele><time>2026-03-24T12:13:49.364Z</time></trkpt><trkpt lat="46.6242114" lon="10.7411529"><ele>891.0</ele><time>2026-03-24T12:13:52.364Z</time></trkpt><trkpt lat="46.6241572" lon="10.7410537"><ele>891.0</ele><time>2026-03-24T12:13:55.376Z</time></trkpt><trkpt lat="46.6240993" lon="10.7409606"><ele>891.0</ele><time>2026-03-24T12:13:58.375Z</time></trkpt><trkpt lat="46.6240386" lon="10.7408774"><ele>891.0</ele><time>2026-03-24T12:14:01.36Z</time></trkpt><trkpt lat="46.6239731" lon="10.7408014"><ele>891.1666666666666</ele><time>2026-03-24T12:14:04.372Z</time></trkpt><trkpt lat="46.6238999" lon="10.7407349"><ele>891.3333333333333</ele><time>2026-03-24T12:14:07.371Z</time></trkpt><trkpt lat="46.623823" lon="10.7406596"><ele>891.5</ele><time>2026-03-24T12:14:10.371Z</time></trkpt><trkpt lat="46.6237666" lon="10.7406082"><ele>891.6666666666666</ele><time>2026-03-24T12:14:12.364Z</time></trkpt><trkpt lat="46.6237076" lon="10.740554"><ele>891.8333333333333</ele><time>2026-03-24T12:14:14.372Z</time></trkpt><trkpt lat="46.623645" lon="10.7404959"><ele>892.0</ele><time>2026-03-24T12:14:16.36Z</time></trkpt><trkpt lat="46.6235802" lon="10.7404344"><ele>891.9999999999999</ele><time>2026-03-24T12:14:18.371Z</time></trkpt><trkpt lat="46.6235147" lon="10.7403714"><ele>892.0</ele><time>2026-03-24T12:14:20.373Z</time></trkpt><trkpt lat="46.6234473" lon="10.7403059"><ele>892.0</ele><time>2026-03-24T12:14:22.363Z</time></trkpt><trkpt lat="46.6233798" lon="10.7402383"><ele>892.0</ele><time>2026-03-24T12:14:24.37Z</time></trkpt><trkpt lat="46.6233153" lon="10.7401721"><ele>891.9999999999999</ele><time>2026-03-24T12:14:26.373Z</time></trkpt><trkpt lat="46.6232542" lon="10.7401064"><ele>892.0</ele><time>2026-03-24T12:14:28.379Z</time></trkpt><trkpt lat="46.6231911" lon="10.740033"><ele>891.6666666666666</ele><time>2026-03-24T12:14:30.368Z</time></trkpt><trkpt lat="46.6231292" lon="10.7399633"><ele>891.3333333333333</ele><time>2026-03-24T12:14:32.369Z</time></trkpt><trkpt lat="46.6230677" lon="10.7398902"><ele>891.0</ele><time>2026-03-24T12:14:34.37Z</time></trkpt><trkpt lat="46.6230051" lon="10.7398131"><ele>890.6666666666667</ele><time>2026-03-24T12:14:36.359Z</time></trkpt><trkpt lat="46.6229399" lon="10.7397356"><ele>890.3333333333334</ele><time>2026-03-24T12:14:38.36Z</time></trkpt><trkpt lat="46.6228745" lon="10.7396613"><ele>890.0</ele><time>2026-03-24T12:14:40.35Z</time></trkpt><trkpt lat="46.6228113" lon="10.7395852"><ele>890.0000000000001</ele><time>2026-03-24T12:14:42.381Z</time></trkpt><trkpt lat="46.6227499" lon="10.7395138"><ele>890.0</ele><time>2026-03-24T12:14:44.371Z</time></trkpt><trkpt lat="46.6226861" lon="10.7394448"><ele>890.0</ele><time>2026-03-24T12:14:46.364Z</time></trkpt><trkpt lat="46.62262" lon="10.739379"><ele>890.0</ele><time>2026-03-24T12:14:48.37Z</time></trkpt><trkpt lat="46.6225511" lon="10.7393129"><ele>890.0000000000001</ele><time>2026-03-24T12:14:50.369Z</time></trkpt><trkpt lat="46.6224784" lon="10.7392486"><ele>890.0</ele><time>2026-03-24T12:14:52.371Z</time></trkpt><trkpt lat="46.6223976" lon="10.7391869"><ele>890.0</ele><time>2026-03-24T12:14:54.374Z</time></trkpt><trkpt lat="46.622312" lon="10.7391214"><ele>890.0</ele><time>2026-03-24T12:14:56.379Z</time></trkpt><trkpt lat="46.6222219" lon="10.7390509"><ele>890.0</ele><time>2026-03-24T12:14:58.374Z</time></trkpt><trkpt lat="46.6221281" lon="10.7389794"><ele>890.0</ele><time>2026-03-24T12:15:00.378Z</time></trkpt><trkpt lat="46.6220311" lon="10.738903"><ele>890.0</ele><time>2026-03-24T12:15:02.363Z</time></trkpt><trkpt lat="46.621927" lon="10.7388214"><ele>890.0</ele><time>2026-03-24T12:15:04.376Z</time></trkpt><trkpt lat="46.6218205" lon="10.7387366"><ele>890.0</ele><time>2026-03-24T12:15:06.368Z</time></trkpt><trkpt lat="46.6217156" lon="10.738641"><ele>890.0</ele><time>2026-03-24T12:15:08.369Z</time></trkpt><trkpt lat="46.6216191" lon="10.7385391"><ele>890.0</ele><time>2026-03-24T12:15:10.368Z</time></trkpt><trkpt lat="46.6215253" lon="10.7384302"><ele>890.0000000000001</ele><time>2026-03-24T12:15:12.369Z</time></trkpt><trkpt lat="46.6214324" lon="10.7383192"><ele>890.0</ele><time>2026-03-24T12:15:14.368Z</time></trkpt><trkpt lat="46.6213364" lon="10.7382047"><ele>890.0</ele><time>2026-03-24T12:15:16.379Z</time></trkpt><trkpt lat="46.6212876" lon="10.7381444"><ele>890.0</ele><time>2026-03-24T12:15:17.378Z</time></trkpt><trkpt lat="46.6212379" lon="10.7380844"><ele>890.0000000000001</ele><time>2026-03-24T12:15:18.374Z</time></trkpt><trkpt lat="46.6211873" lon="10.738024"><ele>890.0</ele><time>2026-03-24T12:15:19.372Z</time></trkpt><trkpt lat="46.6211361" lon="10.7379622"><ele>890.0</ele><time>2026-03-24T12:15:20.368Z</time></trkpt><trkpt lat="46.6210843" lon="10.7379013"><ele>890.0</ele><time>2026-03-24T12:15:21.364Z</time></trkpt><trkpt lat="46.6210314" lon="10.7378405"><ele>890.0</ele><time>2026-03-24T12:15:22.371Z</time></trkpt><trkpt lat="46.6209787" lon="10.7377798"><ele>890.0</ele><time>2026-03-24T12:15:23.372Z</time></trkpt><trkpt lat="46.620926" lon="10.737718"><ele>890.0</ele><time>2026-03-24T12:15:24.378Z</time></trkpt><trkpt lat="46.6208738" lon="10.7376569"><ele>890.0</ele><time>2026-03-24T12:15:25.37Z</time></trkpt><trkpt lat="46.6208218" lon="10.7375957"><ele>890.0</ele><time>2026-03-24T12:15:26.376Z</time></trkpt><trkpt lat="46.6207698" lon="10.7375351"><ele>890.8571428571429</ele><time>2026-03-24T12:15:27.379Z</time></trkpt><trkpt lat="46.6207194" lon="10.7374758"><ele>891.7142857142857</ele><time>2026-03-24T12:15:28.377Z</time></trkpt><trkpt lat="46.62067" lon="10.7374163"><ele>892.5714285714286</ele><time>2026-03-24T12:15:29.372Z</time></trkpt><trkpt lat="46.6206213" lon="10.7373565"><ele>893.4285714285714</ele><time>2026-03-24T12:15:30.366Z</time></trkpt><trkpt lat="46.6205729" lon="10.737295"><ele>894.2857142857142</ele><time>2026-03-24T12:15:31.37Z</time></trkpt><trkpt lat="46.6205259" lon="10.7372318"><ele>895.1428571428571</ele><time>2026-03-24T12:15:32.359Z</time></trkpt><trkpt lat="46.6204811" lon="10.7371632"><ele>896.0</ele><time>2026-03-24T12:15:33.369Z</time></trkpt><trkpt lat="46.6204375" lon="10.7370948"><ele>896.0</ele><time>2026-03-24T12:15:34.364Z</time></trkpt><trkpt lat="46.6203944" lon="10.7370257"><ele>895.9999999999999</ele><time>2026-03-24T12:15:35.371Z</time></trkpt><trkpt lat="46.6203157" lon="10.7368806"><ele>895.9999999999999</ele><time>2026-03-24T12:15:37.364Z</time></trkpt><trkpt lat="46.6202402" lon="10.7367384"><ele>896.0</ele><time>2026-03-24T12:15:39.37Z</time></trkpt><trkpt lat="46.6201663" lon="10.7366"><ele>896.0</ele><time>2026-03-24T12:15:41.369Z</time></trkpt><trkpt lat="46.6200936" lon="10.7364614"><ele>896.0000000000001</ele><time>2026-03-24T12:15:43.384Z</time></trkpt><trkpt lat="46.6200188" lon="10.73632"><ele>896.0</ele><time>2026-03-24T12:15:45.383Z</time></trkpt><trkpt lat="46.6199426" lon="10.7361764"><ele>896.0</ele><time>2026-03-24T12:15:47.367Z</time></trkpt><trkpt lat="46.6199042" lon="10.7361031"><ele>896.0</ele><time>2026-03-24T12:15:48.371Z</time></trkpt><trkpt lat="46.619865" lon="10.7360297"><ele>896.0000000000001</ele><time>2026-03-24T12:15:49.374Z</time></trkpt><trkpt lat="46.6198251" lon="10.7359553"><ele>896.0</ele><time>2026-03-24T12:15:50.369Z</time></trkpt><trkpt lat="46.6197843" lon="10.7358801"><ele>896.0</ele><time>2026-03-24T12:15:51.379Z</time></trkpt><trkpt lat="46.6197422" lon="10.7358054"><ele>896.0</ele><time>2026-03-24T12:15:52.369Z</time></trkpt><trkpt lat="46.6196996" lon="10.7357314"><ele>896.0</ele><time>2026-03-24T12:15:53.375Z</time></trkpt><trkpt lat="46.6196591" lon="10.7356605"><ele>896.0</ele><time>2026-03-24T12:15:54.38Z</time></trkpt><trkpt lat="46.619613" lon="10.7355894"><ele>896.0</ele><time>2026-03-24T12:15:55.371Z</time></trkpt><trkpt lat="46.6195663" lon="10.7355167"><ele>896.0</ele><time>2026-03-24T12:15:56.381Z</time></trkpt><trkpt lat="46.6195174" lon="10.7354393"><ele>896.0</ele><time>2026-03-24T12:15:57.371Z</time></trkpt><trkpt lat="46.6194672" lon="10.7353608"><ele>895.3333333333334</ele><time>2026-03-24T12:15:58.39Z</time></trkpt><trkpt lat="46.619416" lon="10.7352825"><ele>894.6666666666667</ele><time>2026-03-24T12:15:59.369Z</time></trkpt><trkpt lat="46.619364" lon="10.7352038"><ele>894.0</ele><time>2026-03-24T12:16:00.364Z</time></trkpt><trkpt lat="46.6193129" lon="10.7351242"><ele>893.3333333333333</ele><time>2026-03-24T12:16:01.377Z</time></trkpt><trkpt lat="46.6192636" lon="10.7350403"><ele>892.6666666666666</ele><time>2026-03-24T12:16:02.365Z</time></trkpt><trkpt lat="46.6192196" lon="10.7349498"><ele>892.0</ele><time>2026-03-24T12:16:03.373Z</time></trkpt><trkpt lat="46.6191798" lon="10.7348557"><ele>892.0</ele><time>2026-03-24T12:16:04.372Z</time></trkpt><trkpt lat="46.6191459" lon="10.7347594"><ele>892.0</ele><time>2026-03-24T12:16:05.38Z</time></trkpt><trkpt lat="46.6191158" lon="10.73466"><ele>892.0</ele><time>2026-03-24T12:16:06.365Z</time></trkpt><trkpt lat="46.6190886" lon="10.7345585"><ele>892.0</ele><time>2026-03-24T12:16:07.382Z</time></trkpt><trkpt lat="46.6190625" lon="10.7344585"><ele>892.0</ele><time>2026-03-24T12:16:08.38Z</time></trkpt><trkpt lat="46.6190381" lon="10.7343591"><ele>892.0</ele><time>2026-03-24T12:16:09.368Z</time></trkpt><trkpt lat="46.6190148" lon="10.7342614"><ele>892.0</ele><time>2026-03-24T12:16:10.363Z</time></trkpt><trkpt lat="46.6189904" lon="10.7341639"><ele>892.5714285714286</ele><time>2026-03-24T12:16:11.372Z</time></trkpt><trkpt lat="46.6189629" lon="10.7340692"><ele>893.1428571428571</ele><time>2026-03-24T12:16:12.37Z</time></trkpt><trkpt lat="46.6189308" lon="10.7339768"><ele>893.7142857142858</ele><time>2026-03-24T12:16:13.374Z</time></trkpt><trkpt lat="46.6188938" lon="10.7338891"><ele>894.2857142857142</ele><time>2026-03-24T12:16:14.38Z</time></trkpt><trkpt lat="46.6188505" lon="10.733804"><ele>894.8571428571429</ele><time>2026-03-24T12:16:15.372Z</time></trkpt><trkpt lat="46.6188058" lon="10.7337224"><ele>895.4285714285714</ele><time>2026-03-24T12:16:16.373Z</time></trkpt><trkpt lat="46.6187587" lon="10.7336436"><ele>896.0</ele><time>2026-03-24T12:16:17.374Z</time></trkpt><trkpt lat="46.6187109" lon="10.7335672"><ele>896.2857142857142</ele><time>2026-03-24T12:16:18.369Z</time></trkpt><trkpt lat="46.618663" lon="10.7334919"><ele>896.5714285714286</ele><time>2026-03-24T12:16:19.365Z</time></trkpt><trkpt lat="46.6186153" lon="10.7334191"><ele>896.8571428571429</ele><time>2026-03-24T12:16:20.367Z</time></trkpt><trkpt lat="46.6185654" lon="10.7333484"><ele>897.1428571428571</ele><time>2026-03-24T12:16:21.375Z</time></trkpt><trkpt lat="46.618515" lon="10.7332789"><ele>897.4285714285713</ele><time>2026-03-24T12:16:22.378Z</time></trkpt><trkpt lat="46.618464" lon="10.7332092"><ele>897.7142857142857</ele><time>2026-03-24T12:16:23.38Z</time></trkpt><trkpt lat="46.6184122" lon="10.7331394"><ele>898.0</ele><time>2026-03-24T12:16:24.37Z</time></trkpt><trkpt lat="46.6183587" lon="10.7330688"><ele>897.6666666666666</ele><time>2026-03-24T12:16:25.366Z</time></trkpt><trkpt lat="46.6183054" lon="10.7329979"><ele>897.3333333333333</ele><time>2026-03-24T12:16:26.371Z</time></trkpt><trkpt lat="46.6182499" lon="10.7329251"><ele>897.0</ele><time>2026-03-24T12:16:27.371Z</time></trkpt><trkpt lat="46.6181925" lon="10.7328515"><ele>896.6666666666667</ele><time>2026-03-24T12:16:28.365Z</time></trkpt><trkpt lat="46.6181346" lon="10.7327758"><ele>896.3333333333334</ele><time>2026-03-24T12:16:29.358Z</time></trkpt><trkpt lat="46.618076" lon="10.7326991"><ele>896.0</ele><time>2026-03-24T12:16:30.376Z</time></trkpt><trkpt lat="46.6180162" lon="10.7326221"><ele>896.0000000000001</ele><time>2026-03-24T12:16:31.376Z</time></trkpt><trkpt lat="46.6179572" lon="10.7325443"><ele>896.0</ele><time>2026-03-24T12:16:32.373Z</time></trkpt><trkpt lat="46.6178992" lon="10.7324692"><ele>896.0</ele><time>2026-03-24T12:16:33.373Z</time></trkpt><trkpt lat="46.6178444" lon="10.7323968"><ele>896.0</ele><time>2026-03-24T12:16:34.369Z</time></trkpt><trkpt lat="46.6177893" lon="10.7323235"><ele>896.0000000000001</ele><time>2026-03-24T12:16:35.37Z</time></trkpt><trkpt lat="46.6177362" lon="10.7322497"><ele>896.0</ele><time>2026-03-24T12:16:36.371Z</time></trkpt><trkpt lat="46.6176855" lon="10.7321732"><ele>895.4285714285714</ele><time>2026-03-24T12:16:37.384Z</time></trkpt><trkpt lat="46.6176394" lon="10.7320951"><ele>894.8571428571429</ele><time>2026-03-24T12:16:38.381Z</time></trkpt><trkpt lat="46.6175979" lon="10.7320162"><ele>894.2857142857142</ele><time>2026-03-24T12:16:39.357Z</time></trkpt><trkpt lat="46.6175574" lon="10.7319353"><ele>893.7142857142858</ele><time>2026-03-24T12:16:40.373Z</time></trkpt><trkpt lat="46.6175194" lon="10.7318534"><ele>893.1428571428571</ele><time>2026-03-24T12:16:41.376Z</time></trkpt><trkpt lat="46.6174837" lon="10.7317696"><ele>892.5714285714286</ele><time>2026-03-24T12:16:42.378Z</time></trkpt><trkpt lat="46.6174482" lon="10.7316866"><ele>892.0</ele><time>2026-03-24T12:16:43.372Z</time></trkpt><trkpt lat="46.6174171" lon="10.7316003"><ele>892.0</ele><time>2026-03-24T12:16:44.379Z</time></trkpt><trkpt lat="46.6173891" lon="10.7315141"><ele>892.0</ele><time>2026-03-24T12:16:45.372Z</time></trkpt><trkpt lat="46.6173639" lon="10.7314295"><ele>892.0</ele><time>2026-03-24T12:16:46.371Z</time></trkpt><trkpt lat="46.6173412" lon="10.7313429"><ele>892.0</ele><time>2026-03-24T12:16:47.372Z</time></trkpt><trkpt lat="46.6173225" lon="10.7312551"><ele>892.0</ele><time>2026-03-24T12:16:48.384Z</time></trkpt><trkpt lat="46.6173062" lon="10.7311657"><ele>892.0</ele><time>2026-03-24T12:16:49.382Z</time></trkpt><trkpt lat="46.617292" lon="10.7310761"><ele>892.0</ele><time>2026-03-24T12:16:50.362Z</time></trkpt><trkpt lat="46.617277" lon="10.730985"><ele>892.0</ele><time>2026-03-24T12:16:51.374Z</time></trkpt><trkpt lat="46.6172632" lon="10.7308935"><ele>892.4999999999999</ele><time>2026-03-24T12:16:52.368Z</time></trkpt><trkpt lat="46.6172508" lon="10.7308006"><ele>893.0</ele><time>2026-03-24T12:16:53.375Z</time></trkpt><trkpt lat="46.6172376" lon="10.7307073"><ele>893.5</ele><time>2026-03-24T12:16:54.371Z</time></trkpt><trkpt lat="46.6172248" lon="10.7306142"><ele>894.0</ele><time>2026-03-24T12:16:55.365Z</time></trkpt><trkpt lat="46.6172112" lon="10.7305212"><ele>894.4999999999999</ele><time>2026-03-24T12:16:56.38Z</time></trkpt><trkpt lat="46.6171976" lon="10.7304292"><ele>895.0</ele><time>2026-03-24T12:16:57.368Z</time></trkpt><trkpt lat="46.6171661" lon="10.7302528"><ele>895.5</ele><time>2026-03-24T12:16:59.373Z</time></trkpt><trkpt lat="46.6171195" lon="10.7300878"><ele>896.0</ele><time>2026-03-24T12:17:01.376Z</time></trkpt><trkpt lat="46.6170543" lon="10.7299391"><ele>896.5</ele><time>2026-03-24T12:17:03.384Z</time></trkpt><trkpt lat="46.6169799" lon="10.7298008"><ele>897.0</ele><time>2026-03-24T12:17:05.371Z</time></trkpt><trkpt lat="46.6169029" lon="10.7296631"><ele>896.25</ele><time>2026-03-24T12:17:07.376Z</time></trkpt><trkpt lat="46.6168303" lon="10.729516"><ele>895.5</ele><time>2026-03-24T12:17:09.377Z</time></trkpt><trkpt lat="46.6167643" lon="10.7293663"><ele>894.75</ele><time>2026-03-24T12:17:11.379Z</time></trkpt><trkpt lat="46.6167155" lon="10.7292037"><ele>894.0</ele><time>2026-03-24T12:17:13.374Z</time></trkpt><trkpt lat="46.6166725" lon="10.7290386"><ele>894.0</ele><time>2026-03-24T12:17:15.373Z</time></trkpt><trkpt lat="46.6166353" lon="10.7288759"><ele>894.0</ele><time>2026-03-24T12:17:17.369Z</time></trkpt><trkpt lat="46.616599" lon="10.7287169"><ele>894.0</ele><time>2026-03-24T12:17:19.374Z</time></trkpt><trkpt lat="46.6165635" lon="10.7285615"><ele>894.0</ele><time>2026-03-24T12:17:21.385Z</time></trkpt><trkpt lat="46.6165289" lon="10.7284098"><ele>895.0</ele><time>2026-03-24T12:17:23.366Z</time></trkpt><trkpt lat="46.6164955" lon="10.7282638"><ele>896.0000000000001</ele><time>2026-03-24T12:17:25.375Z</time></trkpt><trkpt lat="46.6164659" lon="10.7281158"><ele>897.0000000000001</ele><time>2026-03-24T12:17:27.37Z</time></trkpt><trkpt lat="46.6164418" lon="10.7279692"><ele>898.0</ele><time>2026-03-24T12:17:29.376Z</time></trkpt><trkpt lat="46.6164227" lon="10.7278202"><ele>899.0</ele><time>2026-03-24T12:17:31.378Z</time></trkpt><trkpt lat="46.6164133" lon="10.7276723"><ele>899.4000000000001</ele><time>2026-03-24T12:17:33.366Z</time></trkpt><trkpt lat="46.6164076" lon="10.7275235"><ele>899.8000000000001</ele><time>2026-03-24T12:17:35.361Z</time></trkpt><trkpt lat="46.6164026" lon="10.7273736"><ele>900.1999999999999</ele><time>2026-03-24T12:17:37.366Z</time></trkpt><trkpt lat="46.6164025" lon="10.7272258"><ele>900.5999999999999</ele><time>2026-03-24T12:17:39.377Z</time></trkpt><trkpt lat="46.6164059" lon="10.7270791"><ele>901.0</ele><time>2026-03-24T12:17:41.377Z</time></trkpt><trkpt lat="46.616406" lon="10.7269386"><ele>901.4</ele><time>2026-03-24T12:17:43.366Z</time></trkpt><trkpt lat="46.6164027" lon="10.7268001"><ele>901.8</ele><time>2026-03-24T12:17:45.377Z</time></trkpt><trkpt lat="46.6163952" lon="10.7266637"><ele>902.1999999999999</ele><time>2026-03-24T12:17:47.37Z</time></trkpt><trkpt lat="46.6163831" lon="10.7265333"><ele>902.5999999999999</ele><time>2026-03-24T12:17:49.374Z</time></trkpt><trkpt lat="46.6163614" lon="10.7264012"><ele>903.0</ele><time>2026-03-24T12:17:51.38Z</time></trkpt><trkpt lat="46.6163404" lon="10.7262727"><ele>903.0</ele><time>2026-03-24T12:17:53.379Z</time></trkpt><trkpt lat="46.6163232" lon="10.7261474"><ele>903.0</ele><time>2026-03-24T12:17:55.38Z</time></trkpt><trkpt lat="46.6163021" lon="10.7260148"><ele>903.0</ele><time>2026-03-24T12:17:57.38Z</time></trkpt><trkpt lat="46.6162798" lon="10.7258854"><ele>903.0</ele><time>2026-03-24T12:17:59.369Z</time></trkpt><trkpt lat="46.6162563" lon="10.7257494"><ele>903.0</ele><time>2026-03-24T12:18:01.371Z</time></trkpt><trkpt lat="46.6162318" lon="10.7256222"><ele>902.8</ele><time>2026-03-24T12:18:03.368Z</time></trkpt><trkpt lat="46.6162094" lon="10.7254938"><ele>902.5999999999999</ele><time>2026-03-24T12:18:05.376Z</time></trkpt><trkpt lat="46.6161891" lon="10.7253636"><ele>902.4000000000001</ele><time>2026-03-24T12:18:07.371Z</time></trkpt><trkpt lat="46.6161668" lon="10.7252391"><ele>902.2</ele><time>2026-03-24T12:18:09.376Z</time></trkpt><trkpt lat="46.6161451" lon="10.7251078"><ele>902.0</ele><time>2026-03-24T12:18:11.376Z</time></trkpt><trkpt lat="46.6161229" lon="10.7249749"><ele>902.0</ele><time>2026-03-24T12:18:13.371Z</time></trkpt><trkpt lat="46.6161006" lon="10.7248437"><ele>902.0</ele><time>2026-03-24T12:18:15.364Z</time></trkpt><trkpt lat="46.6160815" lon="10.7247148"><ele>902.0</ele><time>2026-03-24T12:18:17.371Z</time></trkpt><trkpt lat="46.6160617" lon="10.7245833"><ele>902.0</ele><time>2026-03-24T12:18:19.36Z</time></trkpt><trkpt lat="46.6160426" lon="10.7244469"><ele>902.0</ele><time>2026-03-24T12:18:21.377Z</time></trkpt><trkpt lat="46.6160282" lon="10.7243112"><ele>902.5000000000001</ele><time>2026-03-24T12:18:23.356Z</time></trkpt><trkpt lat="46.6160205" lon="10.7241781"><ele>903.0</ele><time>2026-03-24T12:18:25.364Z</time></trkpt><trkpt lat="46.6160158" lon="10.7240434"><ele>903.5</ele><time>2026-03-24T12:18:27.374Z</time></trkpt><trkpt lat="46.6160118" lon="10.7239136"><ele>904.0</ele><time>2026-03-24T12:18:29.375Z</time></trkpt><trkpt lat="46.6160088" lon="10.7237874"><ele>904.5000000000001</ele><time>2026-03-24T12:18:31.362Z</time></trkpt><trkpt lat="46.6160066" lon="10.7236587"><ele>905.0</ele><time>2026-03-24T12:18:33.373Z</time></trkpt><trkpt lat="46.6160039" lon="10.7235359"><ele>905.0000000000001</ele><time>2026-03-24T12:18:35.375Z</time></trkpt><trkpt lat="46.616001" lon="10.7234116"><ele>905.0</ele><time>2026-03-24T12:18:37.367Z</time></trkpt><trkpt lat="46.6159983" lon="10.7232891"><ele>905.0</ele><time>2026-03-24T12:18:39.385Z</time></trkpt><trkpt lat="46.6159997" lon="10.723162"><ele>905.0</ele><time>2026-03-24T12:18:41.375Z</time></trkpt><trkpt lat="46.6160013" lon="10.723036"><ele>905.0000000000001</ele><time>2026-03-24T12:18:43.371Z</time></trkpt><trkpt lat="46.6160017" lon="10.7229049"><ele>905.0</ele><time>2026-03-24T12:18:45.358Z</time></trkpt><trkpt lat="46.616" lon="10.7227727"><ele>905.4</ele><time>2026-03-24T12:18:47.371Z</time></trkpt><trkpt lat="46.6159956" lon="10.7226423"><ele>905.8</ele><time>2026-03-24T12:18:49.379Z</time></trkpt><trkpt lat="46.6159902" lon="10.7225075"><ele>906.2</ele><time>2026-03-24T12:18:51.361Z</time></trkpt><trkpt lat="46.6159865" lon="10.7223702"><ele>906.6</ele><time>2026-03-24T12:18:53.359Z</time></trkpt><trkpt lat="46.6159816" lon="10.7222271"><ele>907.0</ele><time>2026-03-24T12:18:55.368Z</time></trkpt><trkpt lat="46.6159775" lon="10.7220776"><ele>907.0</ele><time>2026-03-24T12:18:57.37Z</time></trkpt><trkpt lat="46.6159812" lon="10.7219238"><ele>907.0</ele><time>2026-03-24T12:18:59.359Z</time></trkpt><trkpt lat="46.6159913" lon="10.7217669"><ele>907.0</ele><time>2026-03-24T12:19:01.369Z</time></trkpt><trkpt lat="46.6160085" lon="10.7216068"><ele>907.0</ele><time>2026-03-24T12:19:03.366Z</time></trkpt><trkpt lat="46.6160332" lon="10.7214499"><ele>907.0</ele><time>2026-03-24T12:19:05.372Z</time></trkpt><trkpt lat="46.6160598" lon="10.7212985"><ele>907.0</ele><time>2026-03-24T12:19:07.365Z</time></trkpt><trkpt lat="46.6160884" lon="10.7211493"><ele>907.0</ele><time>2026-03-24T12:19:09.359Z</time></trkpt><trkpt lat="46.6161159" lon="10.7210033"><ele>907.0</ele><time>2026-03-24T12:19:11.371Z</time></trkpt><trkpt lat="46.6161445" lon="10.7208588"><ele>907.0</ele><time>2026-03-24T12:19:13.367Z</time></trkpt><trkpt lat="46.6161724" lon="10.7207184"><ele>907.0</ele><time>2026-03-24T12:19:15.369Z</time></trkpt><trkpt lat="46.616199" lon="10.7205778"><ele>909.0</ele><time>2026-03-24T12:19:17.356Z</time></trkpt><trkpt lat="46.6162256" lon="10.7204373"><ele>911.0</ele><time>2026-03-24T12:19:19.363Z</time></trkpt><trkpt lat="46.6162535" lon="10.7202989"><ele>913.0</ele><time>2026-03-24T12:19:21.358Z</time></trkpt><trkpt lat="46.6162811" lon="10.7201572"><ele>915.0</ele><time>2026-03-24T12:19:23.37Z</time></trkpt><trkpt lat="46.6163098" lon="10.7200156"><ele>917.0</ele><time>2026-03-24T12:19:25.362Z</time></trkpt><trkpt lat="46.6163366" lon="10.7198734"><ele>917.0</ele><time>2026-03-24T12:19:27.368Z</time></trkpt><trkpt lat="46.6163637" lon="10.7197327"><ele>917.0</ele><time>2026-03-24T12:19:29.372Z</time></trkpt><trkpt lat="46.6163901" lon="10.7195925"><ele>917.0</ele><time>2026-03-24T12:19:31.372Z</time></trkpt><trkpt lat="46.6164151" lon="10.7194497"><ele>917.0</ele><time>2026-03-24T12:19:33.367Z</time></trkpt><trkpt lat="46.6164408" lon="10.7193093"><ele>917.0</ele><time>2026-03-24T12:19:35.369Z</time></trkpt><trkpt lat="46.616465" lon="10.7191724"><ele>916.6</ele><time>2026-03-24T12:19:37.369Z</time></trkpt><trkpt lat="46.6164843" lon="10.7190334"><ele>916.2</ele><time>2026-03-24T12:19:39.371Z</time></trkpt><trkpt lat="46.6165006" lon="10.7188925"><ele>915.8</ele><time>2026-03-24T12:19:41.366Z</time></trkpt><trkpt lat="46.6165113" lon="10.7187548"><ele>915.4</ele><time>2026-03-24T12:19:43.37Z</time></trkpt><trkpt lat="46.6165184" lon="10.7186162"><ele>915.0</ele><time>2026-03-24T12:19:45.362Z</time></trkpt><trkpt lat="46.6165234" lon="10.7184775"><ele>915.0</ele><time>2026-03-24T12:19:47.368Z</time></trkpt><trkpt lat="46.616529" lon="10.7183319"><ele>915.0</ele><time>2026-03-24T12:19:49.364Z</time></trkpt><trkpt lat="46.6165354" lon="10.7181792"><ele>915.0</ele><time>2026-03-24T12:19:51.368Z</time></trkpt><trkpt lat="46.6165433" lon="10.7180196"><ele>915.0</ele><time>2026-03-24T12:19:53.37Z</time></trkpt><trkpt lat="46.61655" lon="10.7178542"><ele>915.0</ele><time>2026-03-24T12:19:55.353Z</time></trkpt><trkpt lat="46.6165564" lon="10.7176817"><ele>915.1666666666666</ele><time>2026-03-24T12:19:57.362Z</time></trkpt><trkpt lat="46.6165633" lon="10.7175031"><ele>915.3333333333333</ele><time>2026-03-24T12:19:59.378Z</time></trkpt><trkpt lat="46.616572" lon="10.717318"><ele>915.5</ele><time>2026-03-24T12:20:01.373Z</time></trkpt><trkpt lat="46.6165764" lon="10.7172219"><ele>915.6666666666666</ele><time>2026-03-24T12:20:02.372Z</time></trkpt><trkpt lat="46.6165817" lon="10.7171267"><ele>915.8333333333333</ele><time>2026-03-24T12:20:03.373Z</time></trkpt><trkpt lat="46.6165863" lon="10.7170317"><ele>916.0</ele><time>2026-03-24T12:20:04.372Z</time></trkpt><trkpt lat="46.6165908" lon="10.7169387"><ele>915.9999999999999</ele><time>2026-03-24T12:20:05.372Z</time></trkpt><trkpt lat="46.6165957" lon="10.7168454"><ele>916.0</ele><time>2026-03-24T12:20:06.372Z</time></trkpt><trkpt lat="46.6165996" lon="10.7167517"><ele>916.0</ele><time>2026-03-24T12:20:07.369Z</time></trkpt><trkpt lat="46.6166031" lon="10.7166585"><ele>916.0</ele><time>2026-03-24T12:20:08.365Z</time></trkpt><trkpt lat="46.6166064" lon="10.7165667"><ele>915.9999999999999</ele><time>2026-03-24T12:20:09.377Z</time></trkpt><trkpt lat="46.6166141" lon="10.716388"><ele>916.0</ele><time>2026-03-24T12:20:11.364Z</time></trkpt><trkpt lat="46.6166221" lon="10.7162109"><ele>915.6666666666666</ele><time>2026-03-24T12:20:13.377Z</time></trkpt><trkpt lat="46.6166283" lon="10.7160326"><ele>915.3333333333333</ele><time>2026-03-24T12:20:15.373Z</time></trkpt><trkpt lat="46.6166359" lon="10.7158477"><ele>915.0</ele><time>2026-03-24T12:20:17.373Z</time></trkpt><trkpt lat="46.6166397" lon="10.7157538"><ele>914.6666666666667</ele><time>2026-03-24T12:20:18.368Z</time></trkpt><trkpt lat="46.616644" lon="10.7156605"><ele>914.3333333333334</ele><time>2026-03-24T12:20:19.369Z</time></trkpt><trkpt lat="46.6166501" lon="10.7155666"><ele>914.0</ele><time>2026-03-24T12:20:20.365Z</time></trkpt><trkpt lat="46.6166567" lon="10.7154725"><ele>914.0000000000001</ele><time>2026-03-24T12:20:21.372Z</time></trkpt><trkpt lat="46.6166661" lon="10.7153789"><ele>914.0</ele><time>2026-03-24T12:20:22.37Z</time></trkpt><trkpt lat="46.6166773" lon="10.715285"><ele>914.0000000000001</ele><time>2026-03-24T12:20:23.367Z</time></trkpt><trkpt lat="46.6166888" lon="10.7151924"><ele>914.0000000000001</ele><time>2026-03-24T12:20:24.377Z</time></trkpt><trkpt lat="46.6167036" lon="10.7150996"><ele>914.0</ele><time>2026-03-24T12:20:25.374Z</time></trkpt><trkpt lat="46.6167179" lon="10.7150086"><ele>914.0000000000001</ele><time>2026-03-24T12:20:26.363Z</time></trkpt><trkpt lat="46.6167476" lon="10.7148352"><ele>914.0000000000001</ele><time>2026-03-24T12:20:28.367Z</time></trkpt><trkpt lat="46.6167768" lon="10.7146651"><ele>913.75</ele><time>2026-03-24T12:20:30.37Z</time></trkpt><trkpt lat="46.616811" lon="10.7145003"><ele>913.5</ele><time>2026-03-24T12:20:32.375Z</time></trkpt><trkpt lat="46.6168386" lon="10.7143354"><ele>913.25</ele><time>2026-03-24T12:20:34.363Z</time></trkpt><trkpt lat="46.6168613" lon="10.7141771"><ele>913.0</ele><time>2026-03-24T12:20:36.372Z</time></trkpt><trkpt lat="46.6168844" lon="10.7140253"><ele>913.0</ele><time>2026-03-24T12:20:38.374Z</time></trkpt><trkpt lat="46.6169111" lon="10.7138718"><ele>913.0</ele><time>2026-03-24T12:20:40.365Z</time></trkpt><trkpt lat="46.6169342" lon="10.7137243"><ele>913.0</ele><time>2026-03-24T12:20:42.371Z</time></trkpt><trkpt lat="46.616957" lon="10.7135827"><ele>913.0</ele><time>2026-03-24T12:20:44.374Z</time></trkpt><trkpt lat="46.6169785" lon="10.7134392"><ele>913.0</ele><time>2026-03-24T12:20:46.376Z</time></trkpt><trkpt lat="46.6170036" lon="10.7132939"><ele>914.0</ele><time>2026-03-24T12:20:48.358Z</time></trkpt><trkpt lat="46.6170369" lon="10.7131486"><ele>915.0</ele><time>2026-03-24T12:20:50.381Z</time></trkpt><trkpt lat="46.6170773" lon="10.7129985"><ele>916.0</ele><time>2026-03-24T12:20:52.374Z</time></trkpt><trkpt lat="46.6171255" lon="10.7128487"><ele>917.0</ele><time>2026-03-24T12:20:54.37Z</time></trkpt><trkpt lat="46.6171744" lon="10.7126977"><ele>918.0</ele><time>2026-03-24T12:20:56.371Z</time></trkpt><trkpt lat="46.6172271" lon="10.7125414"><ele>918.0</ele><time>2026-03-24T12:20:58.371Z</time></trkpt><trkpt lat="46.617282" lon="10.7123802"><ele>918.0</ele><time>2026-03-24T12:21:00.375Z</time></trkpt><trkpt lat="46.61731" lon="10.7122979"><ele>918.0</ele><time>2026-03-24T12:21:01.377Z</time></trkpt><trkpt lat="46.6173382" lon="10.7122134"><ele>918.0</ele><time>2026-03-24T12:21:02.378Z</time></trkpt><trkpt lat="46.617367" lon="10.7121291"><ele>918.0</ele><time>2026-03-24T12:21:03.367Z</time></trkpt><trkpt lat="46.6173959" lon="10.7120439"><ele>918.0</ele><time>2026-03-24T12:21:04.365Z</time></trkpt><trkpt lat="46.6174246" lon="10.7119581"><ele>918.0</ele><time>2026-03-24T12:21:05.372Z</time></trkpt><trkpt lat="46.6174532" lon="10.7118731"><ele>917.4285714285714</ele><time>2026-03-24T12:21:06.362Z</time></trkpt><trkpt lat="46.6174815" lon="10.7117855"><ele>916.8571428571429</ele><time>2026-03-24T12:21:07.367Z</time></trkpt><trkpt lat="46.6175118" lon="10.7116984"><ele>916.2857142857143</ele><time>2026-03-24T12:21:08.37Z</time></trkpt><trkpt lat="46.6175432" lon="10.7116111"><ele>915.7142857142858</ele><time>2026-03-24T12:21:09.379Z</time></trkpt><trkpt lat="46.6175747" lon="10.7115234"><ele>915.1428571428571</ele><time>2026-03-24T12:21:10.368Z</time></trkpt><trkpt lat="46.6176061" lon="10.7114342"><ele>914.5714285714287</ele><time>2026-03-24T12:21:11.369Z</time></trkpt><trkpt lat="46.6176368" lon="10.7113441"><ele>914.0000000000001</ele><time>2026-03-24T12:21:12.366Z</time></trkpt><trkpt lat="46.6176669" lon="10.7112515"><ele>914.0000000000001</ele><time>2026-03-24T12:21:13.373Z</time></trkpt><trkpt lat="46.6176984" lon="10.7111606"><ele>914.0</ele><time>2026-03-24T12:21:14.377Z</time></trkpt><trkpt lat="46.6177294" lon="10.7110676"><ele>914.0000000000001</ele><time>2026-03-24T12:21:15.374Z</time></trkpt><trkpt lat="46.6177609" lon="10.7109755"><ele>914.0000000000001</ele><time>2026-03-24T12:21:16.366Z</time></trkpt><trkpt lat="46.617792" lon="10.7108825"><ele>914.0</ele><time>2026-03-24T12:21:17.372Z</time></trkpt><trkpt lat="46.6178232" lon="10.7107887"><ele>914.0000000000001</ele><time>2026-03-24T12:21:18.379Z</time></trkpt><trkpt lat="46.6178539" lon="10.7106965"><ele>914.0000000000001</ele><time>2026-03-24T12:21:19.377Z</time></trkpt><trkpt lat="46.617884" lon="10.7106042"><ele>914.1428571428573</ele><time>2026-03-24T12:21:20.369Z</time></trkpt><trkpt lat="46.6179143" lon="10.7105101"><ele>914.2857142857143</ele><time>2026-03-24T12:21:21.368Z</time></trkpt><trkpt lat="46.6179462" lon="10.7104163"><ele>914.4285714285716</ele><time>2026-03-24T12:21:22.362Z</time></trkpt><trkpt lat="46.6179783" lon="10.7103222"><ele>914.5714285714287</ele><time>2026-03-24T12:21:23.375Z</time></trkpt><trkpt lat="46.6180099" lon="10.7102317"><ele>914.7142857142858</ele><time>2026-03-24T12:21:24.372Z</time></trkpt><trkpt lat="46.6180409" lon="10.7101399"><ele>914.8571428571429</ele><time>2026-03-24T12:21:25.367Z</time></trkpt><trkpt lat="46.618072" lon="10.7100499"><ele>915.0</ele><time>2026-03-24T12:21:26.389Z</time></trkpt><trkpt lat="46.6181023" lon="10.7099624"><ele>915.0</ele><time>2026-03-24T12:21:27.358Z</time></trkpt><trkpt lat="46.6181323" lon="10.7098739"><ele>915.0000000000001</ele><time>2026-03-24T12:21:28.366Z</time></trkpt><trkpt lat="46.6181627" lon="10.7097847"><ele>915.0</ele><time>2026-03-24T12:21:29.379Z</time></trkpt><trkpt lat="46.6181929" lon="10.7096952"><ele>915.0</ele><time>2026-03-24T12:21:30.376Z</time></trkpt><trkpt lat="46.6182238" lon="10.7096058"><ele>915.0000000000001</ele><time>2026-03-24T12:21:31.371Z</time></trkpt><trkpt lat="46.618253" lon="10.7095169"><ele>915.0</ele><time>2026-03-24T12:21:32.376Z</time></trkpt><trkpt lat="46.6182827" lon="10.709429"><ele>915.0</ele><time>2026-03-24T12:21:33.373Z</time></trkpt><trkpt lat="46.6183124" lon="10.7093409"><ele>914.4285714285714</ele><time>2026-03-24T12:21:34.372Z</time></trkpt><trkpt lat="46.6183422" lon="10.7092551"><ele>913.8571428571429</ele><time>2026-03-24T12:21:35.358Z</time></trkpt><trkpt lat="46.6183727" lon="10.7091681"><ele>913.2857142857143</ele><time>2026-03-24T12:21:36.365Z</time></trkpt><trkpt lat="46.6184015" lon="10.7090819"><ele>912.7142857142858</ele><time>2026-03-24T12:21:37.375Z</time></trkpt><trkpt lat="46.6184301" lon="10.708993"><ele>912.1428571428571</ele><time>2026-03-24T12:21:38.37Z</time></trkpt><trkpt lat="46.6184605" lon="10.708905"><ele>911.5714285714287</ele><time>2026-03-24T12:21:39.372Z</time></trkpt><trkpt lat="46.6184905" lon="10.7088161"><ele>911.0</ele><time>2026-03-24T12:21:40.374Z</time></trkpt><trkpt lat="46.61852" lon="10.7087277"><ele>911.0</ele><time>2026-03-24T12:21:41.37Z</time></trkpt><trkpt lat="46.618549" lon="10.7086402"><ele>911.0</ele><time>2026-03-24T12:21:42.381Z</time></trkpt><trkpt lat="46.618578" lon="10.708554"><ele>911.0</ele><time>2026-03-24T12:21:43.368Z</time></trkpt><trkpt lat="46.6186081" lon="10.7084673"><ele>911.0</ele><time>2026-03-24T12:21:44.361Z</time></trkpt><trkpt lat="46.6186372" lon="10.7083787"><ele>911.0</ele><time>2026-03-24T12:21:45.373Z</time></trkpt><trkpt lat="46.6186683" lon="10.7082916"><ele>911.0</ele><time>2026-03-24T12:21:46.371Z</time></trkpt><trkpt lat="46.6187004" lon="10.7082034"><ele>911.0</ele><time>2026-03-24T12:21:47.369Z</time></trkpt><trkpt lat="46.6187328" lon="10.7081152"><ele>911.5714285714287</ele><time>2026-03-24T12:21:48.369Z</time></trkpt><trkpt lat="46.6187652" lon="10.7080259"><ele>912.1428571428571</ele><time>2026-03-24T12:21:49.374Z</time></trkpt><trkpt lat="46.6187968" lon="10.7079343"><ele>912.7142857142858</ele><time>2026-03-24T12:21:50.376Z</time></trkpt><trkpt lat="46.6188276" lon="10.7078435"><ele>913.2857142857143</ele><time>2026-03-24T12:21:51.373Z</time></trkpt><trkpt lat="46.6188586" lon="10.7077503"><ele>913.8571428571429</ele><time>2026-03-24T12:21:52.373Z</time></trkpt><trkpt lat="46.6188898" lon="10.7076583"><ele>914.4285714285714</ele><time>2026-03-24T12:21:53.372Z</time></trkpt><trkpt lat="46.6189218" lon="10.7075666"><ele>915.0</ele><time>2026-03-24T12:21:54.372Z</time></trkpt><trkpt lat="46.6189544" lon="10.7074748"><ele>915.0</ele><time>2026-03-24T12:21:55.374Z</time></trkpt><trkpt lat="46.618986" lon="10.7073837"><ele>915.0000000000001</ele><time>2026-03-24T12:21:56.364Z</time></trkpt><trkpt lat="46.6190184" lon="10.7072913"><ele>915.0</ele><time>2026-03-24T12:21:57.369Z</time></trkpt><trkpt lat="46.6190516" lon="10.7071995"><ele>915.0</ele><time>2026-03-24T12:21:58.364Z</time></trkpt><trkpt lat="46.6190854" lon="10.7071085"><ele>915.0000000000001</ele><time>2026-03-24T12:21:59.362Z</time></trkpt><trkpt lat="46.6191199" lon="10.7070182"><ele>915.0</ele><time>2026-03-24T12:22:00.378Z</time></trkpt><trkpt lat="46.6191553" lon="10.7069275"><ele>915.0</ele><time>2026-03-24T12:22:01.377Z</time></trkpt><trkpt lat="46.6191901" lon="10.7068367"><ele>914.5714285714287</ele><time>2026-03-24T12:22:02.373Z</time></trkpt><trkpt lat="46.6192244" lon="10.7067449"><ele>914.1428571428572</ele><time>2026-03-24T12:22:03.354Z</time></trkpt><trkpt lat="46.6192585" lon="10.7066543"><ele>913.7142857142858</ele><time>2026-03-24T12:22:04.374Z</time></trkpt><trkpt lat="46.6192934" lon="10.7065642"><ele>913.2857142857142</ele><time>2026-03-24T12:22:05.382Z</time></trkpt><trkpt lat="46.6193287" lon="10.706473"><ele>912.8571428571428</ele><time>2026-03-24T12:22:06.38Z</time></trkpt><trkpt lat="46.6193648" lon="10.7063808"><ele>912.4285714285713</ele><time>2026-03-24T12:22:07.381Z</time></trkpt><trkpt lat="46.6194017" lon="10.7062878"><ele>912.0</ele><time>2026-03-24T12:22:08.369Z</time></trkpt><trkpt lat="46.6194391" lon="10.7061941"><ele>912.0</ele><time>2026-03-24T12:22:09.372Z</time></trkpt><trkpt lat="46.6194768" lon="10.7060988"><ele>912.0</ele><time>2026-03-24T12:22:10.365Z</time></trkpt><trkpt lat="46.6195147" lon="10.7060022"><ele>912.0</ele><time>2026-03-24T12:22:11.378Z</time></trkpt><trkpt lat="46.6195528" lon="10.7059047"><ele>912.0</ele><time>2026-03-24T12:22:12.361Z</time></trkpt><trkpt lat="46.6195902" lon="10.7058045"><ele>912.0</ele><time>2026-03-24T12:22:13.384Z</time></trkpt><trkpt lat="46.6196288" lon="10.7057029"><ele>912.0</ele><time>2026-03-24T12:22:14.381Z</time></trkpt><trkpt lat="46.6196681" lon="10.7056002"><ele>912.5</ele><time>2026-03-24T12:22:15.373Z</time></trkpt><trkpt lat="46.6197086" lon="10.7054954"><ele>913.0</ele><time>2026-03-24T12:22:16.378Z</time></trkpt><trkpt lat="46.6197503" lon="10.7053887"><ele>913.5</ele><time>2026-03-24T12:22:17.372Z</time></trkpt><trkpt lat="46.6197935" lon="10.7052808"><ele>914.0</ele><time>2026-03-24T12:22:18.375Z</time></trkpt><trkpt lat="46.6198359" lon="10.7051707"><ele>914.5</ele><time>2026-03-24T12:22:19.366Z</time></trkpt><trkpt lat="46.6198781" lon="10.7050602"><ele>915.0</ele><time>2026-03-24T12:22:20.382Z</time></trkpt><trkpt lat="46.6199201" lon="10.7049496"><ele>913.8333333333334</ele><time>2026-03-24T12:22:21.367Z</time></trkpt><trkpt lat="46.6199627" lon="10.7048398"><ele>912.6666666666667</ele><time>2026-03-24T12:22:22.37Z</time></trkpt><trkpt lat="46.6200046" lon="10.7047301"><ele>911.5</ele><time>2026-03-24T12:22:23.374Z</time></trkpt><trkpt lat="46.620047" lon="10.7046209"><ele>910.3333333333334</ele><time>2026-03-24T12:22:24.359Z</time></trkpt><trkpt lat="46.6200896" lon="10.7045119"><ele>909.1666666666667</ele><time>2026-03-24T12:22:25.379Z</time></trkpt><trkpt lat="46.6201315" lon="10.7044034"><ele>908.0</ele><time>2026-03-24T12:22:26.377Z</time></trkpt><trkpt lat="46.6201733" lon="10.7042945"><ele>907.3333333333334</ele><time>2026-03-24T12:22:27.362Z</time></trkpt><trkpt lat="46.6202146" lon="10.7041845"><ele>906.6666666666667</ele><time>2026-03-24T12:22:28.354Z</time></trkpt><trkpt lat="46.6202566" lon="10.7040768"><ele>906.0</ele><time>2026-03-24T12:22:29.382Z</time></trkpt><trkpt lat="46.6202976" lon="10.7039706"><ele>905.3333333333333</ele><time>2026-03-24T12:22:30.366Z</time></trkpt><trkpt lat="46.6203406" lon="10.703861"><ele>904.6666666666666</ele><time>2026-03-24T12:22:31.369Z</time></trkpt><trkpt lat="46.6203829" lon="10.7037542"><ele>904.0</ele><time>2026-03-24T12:22:32.373Z</time></trkpt><trkpt lat="46.6204265" lon="10.7036445"><ele>904.9999999999999</ele><time>2026-03-24T12:22:33.37Z</time></trkpt><trkpt lat="46.6204708" lon="10.7035351"><ele>906.0</ele><time>2026-03-24T12:22:34.374Z</time></trkpt><trkpt lat="46.6205144" lon="10.7034232"><ele>907.0</ele><time>2026-03-24T12:22:35.369Z</time></trkpt><trkpt lat="46.6205588" lon="10.7033105"><ele>908.0</ele><time>2026-03-24T12:22:36.372Z</time></trkpt><trkpt lat="46.6206031" lon="10.7031987"><ele>908.9999999999999</ele><time>2026-03-24T12:22:37.373Z</time></trkpt><trkpt lat="46.6206482" lon="10.7030809"><ele>910.0</ele><time>2026-03-24T12:22:38.382Z</time></trkpt><trkpt lat="46.6206937" lon="10.7029668"><ele>910.0</ele><time>2026-03-24T12:22:39.389Z</time></trkpt><trkpt lat="46.6207394" lon="10.7028462"><ele>910.0</ele><time>2026-03-24T12:22:40.373Z</time></trkpt><trkpt lat="46.6207847" lon="10.7027286"><ele>910.0</ele><time>2026-03-24T12:22:41.379Z</time></trkpt><trkpt lat="46.6208304" lon="10.7026119"><ele>910.0</ele><time>2026-03-24T12:22:42.372Z</time></trkpt><trkpt lat="46.6208744" lon="10.7024937"><ele>910.0</ele><time>2026-03-24T12:22:43.373Z</time></trkpt><trkpt lat="46.620919" lon="10.7023772"><ele>909.1666666666666</ele><time>2026-03-24T12:22:44.376Z</time></trkpt><trkpt lat="46.6209624" lon="10.702262"><ele>908.3333333333333</ele><time>2026-03-24T12:22:45.361Z</time></trkpt><trkpt lat="46.6210057" lon="10.7021483"><ele>907.5</ele><time>2026-03-24T12:22:46.374Z</time></trkpt><trkpt lat="46.6210492" lon="10.7020373"><ele>906.6666666666667</ele><time>2026-03-24T12:22:47.366Z</time></trkpt><trkpt lat="46.6210919" lon="10.701927"><ele>905.8333333333334</ele><time>2026-03-24T12:22:48.381Z</time></trkpt><trkpt lat="46.6211344" lon="10.7018173"><ele>905.0</ele><time>2026-03-24T12:22:49.372Z</time></trkpt><trkpt lat="46.6211769" lon="10.7017076"><ele>905.0000000000001</ele><time>2026-03-24T12:22:50.369Z</time></trkpt><trkpt lat="46.6212182" lon="10.7015988"><ele>905.0</ele><time>2026-03-24T12:22:51.379Z</time></trkpt><trkpt lat="46.6212602" lon="10.7014913"><ele>905.0</ele><time>2026-03-24T12:22:52.377Z</time></trkpt><trkpt lat="46.6213013" lon="10.7013837"><ele>905.0</ele><time>2026-03-24T12:22:53.373Z</time></trkpt><trkpt lat="46.6213422" lon="10.7012744"><ele>905.0000000000001</ele><time>2026-03-24T12:22:54.369Z</time></trkpt><trkpt lat="46.6213855" lon="10.7011651"><ele>905.0</ele><time>2026-03-24T12:22:55.375Z</time></trkpt><trkpt lat="46.6214301" lon="10.7010553"><ele>904.4</ele><time>2026-03-24T12:22:56.378Z</time></trkpt><trkpt lat="46.621474" lon="10.7009436"><ele>903.8</ele><time>2026-03-24T12:22:57.368Z</time></trkpt><trkpt lat="46.6215177" lon="10.700831"><ele>903.2</ele><time>2026-03-24T12:22:58.384Z</time></trkpt><trkpt lat="46.6215629" lon="10.7007178"><ele>902.6</ele><time>2026-03-24T12:22:59.376Z</time></trkpt><trkpt lat="46.6216091" lon="10.700603"><ele>902.0</ele><time>2026-03-24T12:23:00.385Z</time></trkpt><trkpt lat="46.621655" lon="10.7004852"><ele>902.0</ele><time>2026-03-24T12:23:01.363Z</time></trkpt><trkpt lat="46.6217018" lon="10.700366"><ele>902.0</ele><time>2026-03-24T12:23:02.372Z</time></trkpt><trkpt lat="46.6217475" lon="10.7002458"><ele>902.0</ele><time>2026-03-24T12:23:03.371Z</time></trkpt><trkpt lat="46.6217951" lon="10.7001244"><ele>902.0</ele><time>2026-03-24T12:23:04.376Z</time></trkpt><trkpt lat="46.6218437" lon="10.7000023"><ele>902.0</ele><time>2026-03-24T12:23:05.368Z</time></trkpt><trkpt lat="46.6218923" lon="10.6998799"><ele>902.0</ele><time>2026-03-24T12:23:06.37Z</time></trkpt><trkpt lat="46.621943" lon="10.699753"><ele>902.0</ele><time>2026-03-24T12:23:07.359Z</time></trkpt><trkpt lat="46.6219932" lon="10.6996232"><ele>902.0</ele><time>2026-03-24T12:23:08.371Z</time></trkpt><trkpt lat="46.622045" lon="10.6994932"><ele>902.0</ele><time>2026-03-24T12:23:09.373Z</time></trkpt><trkpt lat="46.6220963" lon="10.6993635"><ele>902.0</ele><time>2026-03-24T12:23:10.376Z</time></trkpt><trkpt lat="46.6221491" lon="10.6992277"><ele>900.8</ele><time>2026-03-24T12:23:11.366Z</time></trkpt><trkpt lat="46.6222027" lon="10.6990884"><ele>899.6</ele><time>2026-03-24T12:23:12.374Z</time></trkpt><trkpt lat="46.6222593" lon="10.6989485"><ele>898.3999999999999</ele><time>2026-03-24T12:23:13.365Z</time></trkpt><trkpt lat="46.6223147" lon="10.6988076"><ele>897.1999999999999</ele><time>2026-03-24T12:23:14.377Z</time></trkpt><trkpt lat="46.6223724" lon="10.6986629"><ele>896.0</ele><time>2026-03-24T12:23:15.377Z</time></trkpt><trkpt lat="46.6224313" lon="10.6985158"><ele>895.0</ele><time>2026-03-24T12:23:16.378Z</time></trkpt><trkpt lat="46.6224913" lon="10.6983653"><ele>894.0</ele><time>2026-03-24T12:23:17.367Z</time></trkpt><trkpt lat="46.6225505" lon="10.6982112"><ele>893.0</ele><time>2026-03-24T12:23:18.354Z</time></trkpt><trkpt lat="46.6226113" lon="10.6980564"><ele>892.0</ele><time>2026-03-24T12:23:19.378Z</time></trkpt><trkpt lat="46.622673" lon="10.6978998"><ele>891.75</ele><time>2026-03-24T12:23:20.364Z</time></trkpt><trkpt lat="46.6227343" lon="10.6977443"><ele>891.5</ele><time>2026-03-24T12:23:21.372Z</time></trkpt><trkpt lat="46.6227958" lon="10.6975804"><ele>891.25</ele><time>2026-03-24T12:23:22.372Z</time></trkpt><trkpt lat="46.6228594" lon="10.6974195"><ele>891.0</ele><time>2026-03-24T12:23:23.375Z</time></trkpt><trkpt lat="46.6229244" lon="10.6972541"><ele>891.0</ele><time>2026-03-24T12:23:24.377Z</time></trkpt><trkpt lat="46.6229901" lon="10.6970871"><ele>891.0</ele><time>2026-03-24T12:23:25.371Z</time></trkpt><trkpt lat="46.6230554" lon="10.6969212"><ele>891.0</ele><time>2026-03-24T12:23:26.375Z</time></trkpt><trkpt lat="46.6231195" lon="10.6967564"><ele>891.0</ele><time>2026-03-24T12:23:27.376Z</time></trkpt><trkpt lat="46.6231848" lon="10.6965874"><ele>890.0</ele><time>2026-03-24T12:23:28.384Z</time></trkpt><trkpt lat="46.6232489" lon="10.6964196"><ele>889.0</ele><time>2026-03-24T12:23:29.363Z</time></trkpt><trkpt lat="46.6233145" lon="10.6962498"><ele>888.0</ele><time>2026-03-24T12:23:30.368Z</time></trkpt><trkpt lat="46.6233805" lon="10.6960801"><ele>887.0</ele><time>2026-03-24T12:23:31.368Z</time></trkpt><trkpt lat="46.6234474" lon="10.6959096"><ele>886.25</ele><time>2026-03-24T12:23:32.372Z</time></trkpt><trkpt lat="46.6235139" lon="10.6957377"><ele>885.5</ele><time>2026-03-24T12:23:33.37Z</time></trkpt><trkpt lat="46.6235806" lon="10.695566"><ele>884.75</ele><time>2026-03-24T12:23:34.373Z</time></trkpt><trkpt lat="46.6236474" lon="10.6953955"><ele>884.0</ele><time>2026-03-24T12:23:35.368Z</time></trkpt><trkpt lat="46.6237145" lon="10.6952254"><ele>883.0</ele><time>2026-03-24T12:23:36.369Z</time></trkpt><trkpt lat="46.6237823" lon="10.6950535"><ele>882.0</ele><time>2026-03-24T12:23:37.378Z</time></trkpt><trkpt lat="46.6238512" lon="10.694881"><ele>881.0</ele><time>2026-03-24T12:23:38.383Z</time></trkpt><trkpt lat="46.623918" lon="10.694711"><ele>880.0</ele><time>2026-03-24T12:23:39.366Z</time></trkpt><trkpt lat="46.6239836" lon="10.6945398"><ele>879.75</ele><time>2026-03-24T12:23:40.385Z</time></trkpt><trkpt lat="46.6240475" lon="10.6943705"><ele>879.5</ele><time>2026-03-24T12:23:41.374Z</time></trkpt><trkpt lat="46.6241104" lon="10.6942028"><ele>879.25</ele><time>2026-03-24T12:23:42.375Z</time></trkpt><trkpt lat="46.6241739" lon="10.6940338"><ele>879.0</ele><time>2026-03-24T12:23:43.374Z</time></trkpt><trkpt lat="46.6242363" lon="10.693868"><ele>879.0</ele><time>2026-03-24T12:23:44.378Z</time></trkpt><trkpt lat="46.6242991" lon="10.6937029"><ele>879.0</ele><time>2026-03-24T12:23:45.362Z</time></trkpt><trkpt lat="46.6243565" lon="10.6935423"><ele>879.0</ele><time>2026-03-24T12:23:46.378Z</time></trkpt><trkpt lat="46.6244149" lon="10.6933834"><ele>879.0</ele><time>2026-03-24T12:23:47.375Z</time></trkpt><trkpt lat="46.6244729" lon="10.6932209"><ele>878.5</ele><time>2026-03-24T12:23:48.371Z</time></trkpt><trkpt lat="46.6245277" lon="10.6930605"><ele>878.0</ele><time>2026-03-24T12:23:49.376Z</time></trkpt><trkpt lat="46.6245797" lon="10.6928978"><ele>877.5</ele><time>2026-03-24T12:23:50.376Z</time></trkpt><trkpt lat="46.6246282" lon="10.6927404"><ele>877.0</ele><time>2026-03-24T12:23:51.377Z</time></trkpt><trkpt lat="46.6246767" lon="10.6925851"><ele>876.25</ele><time>2026-03-24T12:23:52.382Z</time></trkpt><trkpt lat="46.6247254" lon="10.6924292"><ele>875.5</ele><time>2026-03-24T12:23:53.372Z</time></trkpt><trkpt lat="46.6247704" lon="10.6922765"><ele>874.75</ele><time>2026-03-24T12:23:54.367Z</time></trkpt><trkpt lat="46.6248121" lon="10.6921253"><ele>874.0</ele><time>2026-03-24T12:23:55.369Z</time></trkpt><trkpt lat="46.6248525" lon="10.691981"><ele>873.4000000000001</ele><time>2026-03-24T12:23:56.376Z</time></trkpt><trkpt lat="46.6248931" lon="10.6918408"><ele>872.8000000000001</ele><time>2026-03-24T12:23:57.365Z</time></trkpt><trkpt lat="46.6249313" lon="10.6917034"><ele>872.1999999999999</ele><time>2026-03-24T12:23:58.381Z</time></trkpt><trkpt lat="46.624967" lon="10.6915695"><ele>871.5999999999999</ele><time>2026-03-24T12:23:59.368Z</time></trkpt><trkpt lat="46.6249986" lon="10.6914404"><ele>871.0</ele><time>2026-03-24T12:24:00.367Z</time></trkpt><trkpt lat="46.6250284" lon="10.691312"><ele>870.9999999999999</ele><time>2026-03-24T12:24:01.367Z</time></trkpt><trkpt lat="46.625058" lon="10.6911857"><ele>871.0</ele><time>2026-03-24T12:24:02.374Z</time></trkpt><trkpt lat="46.6250859" lon="10.6910595"><ele>871.0</ele><time>2026-03-24T12:24:03.369Z</time></trkpt><trkpt lat="46.6251133" lon="10.690935"><ele>871.0</ele><time>2026-03-24T12:24:04.381Z</time></trkpt><trkpt lat="46.6251406" lon="10.6908114"><ele>870.9999999999999</ele><time>2026-03-24T12:24:05.374Z</time></trkpt><trkpt lat="46.6251684" lon="10.6906904"><ele>871.0</ele><time>2026-03-24T12:24:06.365Z</time></trkpt><trkpt lat="46.625194" lon="10.6905761"><ele>870.8333333333333</ele><time>2026-03-24T12:24:07.38Z</time></trkpt><trkpt lat="46.6252185" lon="10.6904644"><ele>870.6666666666666</ele><time>2026-03-24T12:24:08.369Z</time></trkpt><trkpt lat="46.6252423" lon="10.6903509"><ele>870.5</ele><time>2026-03-24T12:24:09.372Z</time></trkpt><trkpt lat="46.6252654" lon="10.690239"><ele>870.3333333333333</ele><time>2026-03-24T12:24:10.364Z</time></trkpt><trkpt lat="46.6252879" lon="10.6901279"><ele>870.1666666666666</ele><time>2026-03-24T12:24:11.373Z</time></trkpt><trkpt lat="46.6253097" lon="10.6900183"><ele>870.0</ele><time>2026-03-24T12:24:12.375Z</time></trkpt><trkpt lat="46.6253315" lon="10.6899129"><ele>871.2857142857143</ele><time>2026-03-24T12:24:13.369Z</time></trkpt><trkpt lat="46.6253519" lon="10.6898095"><ele>872.5714285714286</ele><time>2026-03-24T12:24:14.372Z</time></trkpt><trkpt lat="46.6253728" lon="10.6897098"><ele>873.8571428571429</ele><time>2026-03-24T12:24:15.364Z</time></trkpt><trkpt lat="46.6253936" lon="10.6896093"><ele>875.1428571428571</ele><time>2026-03-24T12:24:16.375Z</time></trkpt><trkpt lat="46.6254151" lon="10.6895117"><ele>876.4285714285714</ele><time>2026-03-24T12:24:17.367Z</time></trkpt><trkpt lat="46.6254349" lon="10.6894143"><ele>877.7142857142858</ele><time>2026-03-24T12:24:18.365Z</time></trkpt><trkpt lat="46.6254547" lon="10.6893198"><ele>879.0</ele><time>2026-03-24T12:24:19.372Z</time></trkpt><trkpt lat="46.6254751" lon="10.6892269"><ele>879.1428571428571</ele><time>2026-03-24T12:24:20.377Z</time></trkpt><trkpt lat="46.6254943" lon="10.6891333"><ele>879.2857142857143</ele><time>2026-03-24T12:24:21.375Z</time></trkpt><trkpt lat="46.6255132" lon="10.6890428"><ele>879.4285714285713</ele><time>2026-03-24T12:24:22.378Z</time></trkpt><trkpt lat="46.6255324" lon="10.6889528"><ele>879.5714285714286</ele><time>2026-03-24T12:24:23.367Z</time></trkpt><trkpt lat="46.6255507" lon="10.6888637"><ele>879.7142857142857</ele><time>2026-03-24T12:24:24.366Z</time></trkpt><trkpt lat="46.6255688" lon="10.6887752"><ele>879.8571428571428</ele><time>2026-03-24T12:24:25.367Z</time></trkpt><trkpt lat="46.6256034" lon="10.6886038"><ele>880.0</ele><time>2026-03-24T12:24:27.37Z</time></trkpt><trkpt lat="46.6256399" lon="10.6884357"><ele>879.0</ele><time>2026-03-24T12:24:29.368Z</time></trkpt><trkpt lat="46.6256743" lon="10.6882691"><ele>878.0</ele><time>2026-03-24T12:24:31.377Z</time></trkpt><trkpt lat="46.6257077" lon="10.6881035"><ele>877.0</ele><time>2026-03-24T12:24:33.369Z</time></trkpt><trkpt lat="46.6257424" lon="10.6879366"><ele>876.0</ele><time>2026-03-24T12:24:35.376Z</time></trkpt><trkpt lat="46.6257789" lon="10.6877722"><ele>875.75</ele><time>2026-03-24T12:24:37.37Z</time></trkpt><trkpt lat="46.6258123" lon="10.6876146"><ele>875.5</ele><time>2026-03-24T12:24:39.373Z</time></trkpt><trkpt lat="46.6258449" lon="10.6874534"><ele>875.25</ele><time>2026-03-24T12:24:41.37Z</time></trkpt><trkpt lat="46.6258776" lon="10.687293"><ele>875.0</ele><time>2026-03-24T12:24:43.374Z</time></trkpt><trkpt lat="46.6259103" lon="10.6871282"><ele>875.0</ele><time>2026-03-24T12:24:45.374Z</time></trkpt><trkpt lat="46.6259431" lon="10.6869652"><ele>875.0</ele><time>2026-03-24T12:24:47.374Z</time></trkpt><trkpt lat="46.6259767" lon="10.6867964"><ele>875.0</ele><time>2026-03-24T12:24:49.377Z</time></trkpt><trkpt lat="46.6260101" lon="10.6866347"><ele>875.0</ele><time>2026-03-24T12:24:51.387Z</time></trkpt><trkpt lat="46.6260431" lon="10.6864735"><ele>874.25</ele><time>2026-03-24T12:24:53.389Z</time></trkpt><trkpt lat="46.6260745" lon="10.6863127"><ele>873.5</ele><time>2026-03-24T12:24:55.379Z</time></trkpt><trkpt lat="46.6261029" lon="10.6861594"><ele>872.75</ele><time>2026-03-24T12:24:57.371Z</time></trkpt><trkpt lat="46.6261372" lon="10.686002"><ele>872.0</ele><time>2026-03-24T12:24:59.372Z</time></trkpt><trkpt lat="46.6261677" lon="10.6858433"><ele>875.5</ele><time>2026-03-24T12:25:01.375Z</time></trkpt><trkpt lat="46.6261987" lon="10.6856841"><ele>879.0</ele><time>2026-03-24T12:25:03.39Z</time></trkpt><trkpt lat="46.6262374" lon="10.6855272"><ele>882.5</ele><time>2026-03-24T12:25:05.371Z</time></trkpt><trkpt lat="46.6262779" lon="10.6853673"><ele>886.0</ele><time>2026-03-24T12:25:07.368Z</time></trkpt><trkpt lat="46.6263152" lon="10.685205"><ele>886.0</ele><time>2026-03-24T12:25:09.376Z</time></trkpt><trkpt lat="46.6263465" lon="10.6850416"><ele>886.0</ele><time>2026-03-24T12:25:11.378Z</time></trkpt><trkpt lat="46.6263739" lon="10.6848759"><ele>886.0</ele><time>2026-03-24T12:25:13.375Z</time></trkpt><trkpt lat="46.626404" lon="10.6847173"><ele>886.0</ele><time>2026-03-24T12:25:15.375Z</time></trkpt><trkpt lat="46.6264383" lon="10.6845599"><ele>884.4</ele><time>2026-03-24T12:25:17.373Z</time></trkpt><trkpt lat="46.6264677" lon="10.6844028"><ele>882.8</ele><time>2026-03-24T12:25:19.377Z</time></trkpt><trkpt lat="46.6265" lon="10.6842506"><ele>881.1999999999999</ele><time>2026-03-24T12:25:21.369Z</time></trkpt><trkpt lat="46.6265336" lon="10.6840972"><ele>879.5999999999999</ele><time>2026-03-24T12:25:23.372Z</time></trkpt><trkpt lat="46.626567" lon="10.6839441"><ele>878.0</ele><time>2026-03-24T12:25:25.368Z</time></trkpt><trkpt lat="46.6265992" lon="10.6837897"><ele>878.0</ele><time>2026-03-24T12:25:27.369Z</time></trkpt><trkpt lat="46.626631" lon="10.6836369"><ele>878.0</ele><time>2026-03-24T12:25:29.37Z</time></trkpt><trkpt lat="46.6266619" lon="10.6834873"><ele>878.0</ele><time>2026-03-24T12:25:31.374Z</time></trkpt><trkpt lat="46.6266913" lon="10.6833353"><ele>878.0</ele><time>2026-03-24T12:25:33.374Z</time></trkpt><trkpt lat="46.6267224" lon="10.6831838"><ele>878.0</ele><time>2026-03-24T12:25:35.375Z</time></trkpt><trkpt lat="46.6267553" lon="10.6830343"><ele>878.2</ele><time>2026-03-24T12:25:37.374Z</time></trkpt><trkpt lat="46.6267863" lon="10.6828836"><ele>878.4</ele><time>2026-03-24T12:25:39.369Z</time></trkpt><trkpt lat="46.6268197" lon="10.6827301"><ele>878.6000000000001</ele><time>2026-03-24T12:25:41.371Z</time></trkpt><trkpt lat="46.6268512" lon="10.6825727"><ele>878.8000000000001</ele><time>2026-03-24T12:25:43.364Z</time></trkpt><trkpt lat="46.6268843" lon="10.6824188"><ele>879.0</ele><time>2026-03-24T12:25:45.377Z</time></trkpt><trkpt lat="46.6269203" lon="10.6822619"><ele>879.25</ele><time>2026-03-24T12:25:47.365Z</time></trkpt><trkpt lat="46.6269554" lon="10.6821033"><ele>879.5</ele><time>2026-03-24T12:25:49.378Z</time></trkpt><trkpt lat="46.6269894" lon="10.6819467"><ele>879.75</ele><time>2026-03-24T12:25:51.377Z</time></trkpt><trkpt lat="46.6270229" lon="10.6817892"><ele>880.0</ele><time>2026-03-24T12:25:53.371Z</time></trkpt><trkpt lat="46.6270562" lon="10.6816265"><ele>883.75</ele><time>2026-03-24T12:25:55.376Z</time></trkpt><trkpt lat="46.6270915" lon="10.6814631"><ele>887.5</ele><time>2026-03-24T12:25:57.372Z</time></trkpt><trkpt lat="46.6271245" lon="10.6813047"><ele>891.25</ele><time>2026-03-24T12:25:59.368Z</time></trkpt><trkpt lat="46.627155" lon="10.6811446"><ele>895.0</ele><time>2026-03-24T12:26:01.371Z</time></trkpt><trkpt lat="46.6271888" lon="10.6809843"><ele>895.0</ele><time>2026-03-24T12:26:03.377Z</time></trkpt><trkpt lat="46.6272187" lon="10.6808239"><ele>895.0</ele><time>2026-03-24T12:26:05.38Z</time></trkpt><trkpt lat="46.6272495" lon="10.6806684"><ele>895.0</ele><time>2026-03-24T12:26:07.38Z</time></trkpt><trkpt lat="46.6272842" lon="10.6805099"><ele>895.0</ele><time>2026-03-24T12:26:09.373Z</time></trkpt><trkpt lat="46.6273172" lon="10.6803496"><ele>893.5</ele><time>2026-03-24T12:26:11.358Z</time></trkpt><trkpt lat="46.6273516" lon="10.6801897"><ele>892.0</ele><time>2026-03-24T12:26:13.375Z</time></trkpt><trkpt lat="46.6273845" lon="10.6800279"><ele>890.5</ele><time>2026-03-24T12:26:15.379Z</time></trkpt><trkpt lat="46.6274173" lon="10.6798659"><ele>889.0</ele><time>2026-03-24T12:26:17.37Z</time></trkpt><trkpt lat="46.6274539" lon="10.6797052"><ele>889.0</ele><time>2026-03-24T12:26:19.368Z</time></trkpt><trkpt lat="46.627489" lon="10.6795415"><ele>889.0</ele><time>2026-03-24T12:26:21.379Z</time></trkpt><trkpt lat="46.6275228" lon="10.6793798"><ele>889.0</ele><time>2026-03-24T12:26:23.385Z</time></trkpt><trkpt lat="46.6275557" lon="10.6792209"><ele>889.0</ele><time>2026-03-24T12:26:25.364Z</time></trkpt><trkpt lat="46.6275903" lon="10.6790566"><ele>888.0</ele><time>2026-03-24T12:26:27.368Z</time></trkpt><trkpt lat="46.6276238" lon="10.67889"><ele>887.0</ele><time>2026-03-24T12:26:29.365Z</time></trkpt><trkpt lat="46.6276517" lon="10.678726"><ele>886.0</ele><time>2026-03-24T12:26:31.369Z</time></trkpt><trkpt lat="46.6276799" lon="10.6785586"><ele>885.0</ele><time>2026-03-24T12:26:33.366Z</time></trkpt><trkpt lat="46.6277055" lon="10.6783926"><ele>884.0</ele><time>2026-03-24T12:26:35.38Z</time></trkpt><trkpt lat="46.6277309" lon="10.678228"><ele>883.0</ele><time>2026-03-24T12:26:37.374Z</time></trkpt><trkpt lat="46.627757" lon="10.6780522"><ele>882.0</ele><time>2026-03-24T12:26:39.378Z</time></trkpt><trkpt lat="46.627782" lon="10.6778791"><ele>881.0</ele><time>2026-03-24T12:26:41.381Z</time></trkpt><trkpt lat="46.6277942" lon="10.6777888"><ele>880.0</ele><time>2026-03-24T12:26:42.36Z</time></trkpt><trkpt lat="46.627815" lon="10.6776137"><ele>886.25</ele><time>2026-03-24T12:26:44.375Z</time></trkpt><trkpt lat="46.6278354" lon="10.6774367"><ele>892.5</ele><time>2026-03-24T12:26:46.373Z</time></trkpt><trkpt lat="46.6278559" lon="10.6772594"><ele>898.75</ele><time>2026-03-24T12:26:48.36Z</time></trkpt><trkpt lat="46.627875" lon="10.6770815"><ele>905.0</ele><time>2026-03-24T12:26:50.364Z</time></trkpt><trkpt lat="46.6278923" lon="10.6769005"><ele>905.0</ele><time>2026-03-24T12:26:52.377Z</time></trkpt><trkpt lat="46.6278999" lon="10.6768087"><ele>905.0</ele><time>2026-03-24T12:26:53.378Z</time></trkpt><trkpt lat="46.6279082" lon="10.6767161"><ele>905.0</ele><time>2026-03-24T12:26:54.379Z</time></trkpt><trkpt lat="46.627915" lon="10.6766217"><ele>905.0</ele><time>2026-03-24T12:26:55.371Z</time></trkpt><trkpt lat="46.6279221" lon="10.6765278"><ele>905.0</ele><time>2026-03-24T12:26:56.374Z</time></trkpt><trkpt lat="46.6279301" lon="10.6764357"><ele>905.0</ele><time>2026-03-24T12:26:57.376Z</time></trkpt><trkpt lat="46.6279377" lon="10.6763447"><ele>905.0</ele><time>2026-03-24T12:26:58.377Z</time></trkpt><trkpt lat="46.6279445" lon="10.6762515"><ele>905.0</ele><time>2026-03-24T12:26:59.378Z</time></trkpt><trkpt lat="46.6279524" lon="10.6761595"><ele>904.3333333333334</ele><time>2026-03-24T12:27:00.371Z</time></trkpt><trkpt lat="46.6279602" lon="10.6760681"><ele>903.6666666666667</ele><time>2026-03-24T12:27:01.36Z</time></trkpt><trkpt lat="46.6279736" lon="10.6758849"><ele>903.0</ele><time>2026-03-24T12:27:03.385Z</time></trkpt><trkpt lat="46.6279864" lon="10.6757011"><ele>902.3333333333333</ele><time>2026-03-24T12:27:05.375Z</time></trkpt><trkpt lat="46.6279937" lon="10.6756084"><ele>901.6666666666666</ele><time>2026-03-24T12:27:06.366Z</time></trkpt><trkpt lat="46.6280016" lon="10.6755149"><ele>901.0</ele><time>2026-03-24T12:27:07.378Z</time></trkpt><trkpt lat="46.6280103" lon="10.6754207"><ele>900.9999999999999</ele><time>2026-03-24T12:27:08.368Z</time></trkpt><trkpt lat="46.6280177" lon="10.6753293"><ele>901.0</ele><time>2026-03-24T12:27:09.368Z</time></trkpt><trkpt lat="46.6280326" lon="10.6751486"><ele>901.0</ele><time>2026-03-24T12:27:11.373Z</time></trkpt><trkpt lat="46.6280407" lon="10.6750572"><ele>901.0</ele><time>2026-03-24T12:27:12.373Z</time></trkpt><trkpt lat="46.6280562" lon="10.6748751"><ele>900.9999999999999</ele><time>2026-03-24T12:27:14.367Z</time></trkpt><trkpt lat="46.6280646" lon="10.6747823"><ele>901.0</ele><time>2026-03-24T12:27:15.369Z</time></trkpt><trkpt lat="46.6280732" lon="10.6746878"><ele>900.5714285714287</ele><time>2026-03-24T12:27:16.37Z</time></trkpt><trkpt lat="46.628082" lon="10.6745934"><ele>900.1428571428572</ele><time>2026-03-24T12:27:17.367Z</time></trkpt><trkpt lat="46.6280902" lon="10.6744987"><ele>899.7142857142858</ele><time>2026-03-24T12:27:18.365Z</time></trkpt><trkpt lat="46.628097" lon="10.6744037"><ele>899.2857142857142</ele><time>2026-03-24T12:27:19.368Z</time></trkpt><trkpt lat="46.628105" lon="10.6743118"><ele>898.8571428571428</ele><time>2026-03-24T12:27:20.364Z</time></trkpt><trkpt lat="46.628113" lon="10.6742182"><ele>898.4285714285713</ele><time>2026-03-24T12:27:21.371Z</time></trkpt><trkpt lat="46.6281281" lon="10.6740383"><ele>898.0</ele><time>2026-03-24T12:27:23.381Z</time></trkpt><trkpt lat="46.6281359" lon="10.6739467"><ele>897.6666666666666</ele><time>2026-03-24T12:27:24.372Z</time></trkpt><trkpt lat="46.6281502" lon="10.67377"><ele>897.3333333333333</ele><time>2026-03-24T12:27:26.38Z</time></trkpt><trkpt lat="46.628165" lon="10.6735887"><ele>897.0</ele><time>2026-03-24T12:27:28.374Z</time></trkpt><trkpt lat="46.6281725" lon="10.6734972"><ele>896.6666666666667</ele><time>2026-03-24T12:27:29.371Z</time></trkpt><trkpt lat="46.6281795" lon="10.6734035"><ele>896.3333333333334</ele><time>2026-03-24T12:27:30.362Z</time></trkpt><trkpt lat="46.6281881" lon="10.6733101"><ele>896.0</ele><time>2026-03-24T12:27:31.373Z</time></trkpt><trkpt lat="46.6281957" lon="10.6732161"><ele>896.0</ele><time>2026-03-24T12:27:32.368Z</time></trkpt><trkpt lat="46.628203" lon="10.6731228"><ele>896.0</ele><time>2026-03-24T12:27:33.376Z</time></trkpt><trkpt lat="46.6282106" lon="10.6730297"><ele>896.0</ele><time>2026-03-24T12:27:34.37Z</time></trkpt><trkpt lat="46.6282195" lon="10.6729357"><ele>896.0</ele><time>2026-03-24T12:27:35.37Z</time></trkpt><trkpt lat="46.6282273" lon="10.6728425"><ele>896.0</ele><time>2026-03-24T12:27:36.37Z</time></trkpt><trkpt lat="46.6282353" lon="10.672747"><ele>896.0</ele><time>2026-03-24T12:27:37.368Z</time></trkpt><trkpt lat="46.6282424" lon="10.6726497"><ele>896.0</ele><time>2026-03-24T12:27:38.362Z</time></trkpt><trkpt lat="46.6282496" lon="10.6725533"><ele>895.8571428571429</ele><time>2026-03-24T12:27:39.368Z</time></trkpt><trkpt lat="46.6282573" lon="10.6724595"><ele>895.7142857142858</ele><time>2026-03-24T12:27:40.375Z</time></trkpt><trkpt lat="46.6282653" lon="10.6723649"><ele>895.5714285714286</ele><time>2026-03-24T12:27:41.374Z</time></trkpt><trkpt lat="46.6282744" lon="10.6722704"><ele>895.4285714285714</ele><time>2026-03-24T12:27:42.376Z</time></trkpt><trkpt lat="46.6282824" lon="10.6721744"><ele>895.2857142857143</ele><time>2026-03-24T12:27:43.364Z</time></trkpt><trkpt lat="46.6282903" lon="10.6720782"><ele>895.1428571428571</ele><time>2026-03-24T12:27:44.365Z</time></trkpt><trkpt lat="46.6282995" lon="10.6719831"><ele>895.0</ele><time>2026-03-24T12:27:45.372Z</time></trkpt><trkpt lat="46.6283065" lon="10.6718872"><ele>894.6666666666666</ele><time>2026-03-24T12:27:46.379Z</time></trkpt><trkpt lat="46.6283143" lon="10.6717935"><ele>894.3333333333333</ele><time>2026-03-24T12:27:47.372Z</time></trkpt><trkpt lat="46.628322" lon="10.6716987"><ele>894.0</ele><time>2026-03-24T12:27:48.376Z</time></trkpt><trkpt lat="46.6283277" lon="10.6716015"><ele>893.6666666666667</ele><time>2026-03-24T12:27:49.368Z</time></trkpt><trkpt lat="46.6283354" lon="10.6715045"><ele>893.3333333333334</ele><time>2026-03-24T12:27:50.372Z</time></trkpt><trkpt lat="46.6283424" lon="10.6714113"><ele>893.0</ele><time>2026-03-24T12:27:51.375Z</time></trkpt><trkpt lat="46.6283606" lon="10.6712344"><ele>892.2</ele><time>2026-03-24T12:27:53.375Z</time></trkpt><trkpt lat="46.6283753" lon="10.6710578"><ele>891.4</ele><time>2026-03-24T12:27:55.383Z</time></trkpt><trkpt lat="46.6283865" lon="10.6708814"><ele>890.6000000000001</ele><time>2026-03-24T12:27:57.369Z</time></trkpt><trkpt lat="46.6284037" lon="10.6707009"><ele>889.8000000000001</ele><time>2026-03-24T12:27:59.37Z</time></trkpt><trkpt lat="46.6284134" lon="10.6706079"><ele>889.0</ele><time>2026-03-24T12:28:00.363Z</time></trkpt><trkpt lat="46.6284291" lon="10.6704277"><ele>888.8333333333333</ele><time>2026-03-24T12:28:02.369Z</time></trkpt><trkpt lat="46.6284442" lon="10.6702391"><ele>888.6666666666666</ele><time>2026-03-24T12:28:04.367Z</time></trkpt><trkpt lat="46.6284509" lon="10.6701429"><ele>888.5</ele><time>2026-03-24T12:28:05.372Z</time></trkpt><trkpt lat="46.6284555" lon="10.6700472"><ele>888.3333333333333</ele><time>2026-03-24T12:28:06.371Z</time></trkpt><trkpt lat="46.6284612" lon="10.6699522"><ele>888.1666666666666</ele><time>2026-03-24T12:28:07.366Z</time></trkpt><trkpt lat="46.6284649" lon="10.6698579"><ele>888.0</ele><time>2026-03-24T12:28:08.372Z</time></trkpt><trkpt lat="46.6284706" lon="10.6697638"><ele>888.0</ele><time>2026-03-24T12:28:09.367Z</time></trkpt><trkpt lat="46.628478" lon="10.6696692"><ele>888.0</ele><time>2026-03-24T12:28:10.369Z</time></trkpt><trkpt lat="46.6284846" lon="10.6695736"><ele>888.0</ele><time>2026-03-24T12:28:11.375Z</time></trkpt><trkpt lat="46.6284918" lon="10.6694771"><ele>888.0</ele><time>2026-03-24T12:28:12.374Z</time></trkpt><trkpt lat="46.6284997" lon="10.6693799"><ele>888.0</ele><time>2026-03-24T12:28:13.372Z</time></trkpt><trkpt lat="46.6285077" lon="10.669284"><ele>888.0</ele><time>2026-03-24T12:28:14.372Z</time></trkpt><trkpt lat="46.6285149" lon="10.6691864"><ele>888.0</ele><time>2026-03-24T12:28:15.372Z</time></trkpt><trkpt lat="46.6285234" lon="10.6690885"><ele>888.0</ele><time>2026-03-24T12:28:16.372Z</time></trkpt><trkpt lat="46.6285312" lon="10.668991"><ele>888.0</ele><time>2026-03-24T12:28:17.365Z</time></trkpt><trkpt lat="46.6285396" lon="10.6688934"><ele>888.0</ele><time>2026-03-24T12:28:18.37Z</time></trkpt><trkpt lat="46.6285475" lon="10.668796"><ele>888.0</ele><time>2026-03-24T12:28:19.371Z</time></trkpt><trkpt lat="46.6285549" lon="10.6686978"><ele>888.0</ele><time>2026-03-24T12:28:20.366Z</time></trkpt><trkpt lat="46.6285632" lon="10.6686007"><ele>888.0</ele><time>2026-03-24T12:28:21.364Z</time></trkpt><trkpt lat="46.6285725" lon="10.668503"><ele>888.0</ele><time>2026-03-24T12:28:22.368Z</time></trkpt><trkpt lat="46.6285812" lon="10.6684054"><ele>887.7142857142857</ele><time>2026-03-24T12:28:23.373Z</time></trkpt><trkpt lat="46.6285891" lon="10.6683067"><ele>887.4285714285714</ele><time>2026-03-24T12:28:24.366Z</time></trkpt><trkpt lat="46.6285954" lon="10.6682099"><ele>887.1428571428571</ele><time>2026-03-24T12:28:25.381Z</time></trkpt><trkpt lat="46.6286031" lon="10.6681139"><ele>886.8571428571429</ele><time>2026-03-24T12:28:26.367Z</time></trkpt><trkpt lat="46.6286118" lon="10.668018"><ele>886.5714285714287</ele><time>2026-03-24T12:28:27.376Z</time></trkpt><trkpt lat="46.6286202" lon="10.6679224"><ele>886.2857142857143</ele><time>2026-03-24T12:28:28.368Z</time></trkpt><trkpt lat="46.6286293" lon="10.6678276"><ele>886.0</ele><time>2026-03-24T12:28:29.369Z</time></trkpt><trkpt lat="46.6286373" lon="10.6677328"><ele>890.7142857142858</ele><time>2026-03-24T12:28:30.364Z</time></trkpt><trkpt lat="46.6286453" lon="10.6676371"><ele>895.4285714285714</ele><time>2026-03-24T12:28:31.374Z</time></trkpt><trkpt lat="46.6286535" lon="10.667543"><ele>900.1428571428571</ele><time>2026-03-24T12:28:32.368Z</time></trkpt><trkpt lat="46.6286621" lon="10.6674488"><ele>904.8571428571429</ele><time>2026-03-24T12:28:33.366Z</time></trkpt><trkpt lat="46.6286695" lon="10.6673544"><ele>909.5714285714284</ele><time>2026-03-24T12:28:34.37Z</time></trkpt><trkpt lat="46.6286762" lon="10.6672602"><ele>914.2857142857142</ele><time>2026-03-24T12:28:35.378Z</time></trkpt><trkpt lat="46.6286835" lon="10.6671663"><ele>919.0</ele><time>2026-03-24T12:28:36.374Z</time></trkpt><trkpt lat="46.6286984" lon="10.6669817"><ele>917.8000000000001</ele><time>2026-03-24T12:28:38.365Z</time></trkpt><trkpt lat="46.6287135" lon="10.6667989"><ele>916.6000000000001</ele><time>2026-03-24T12:28:40.367Z</time></trkpt><trkpt lat="46.6287207" lon="10.6667078"><ele>915.4</ele><time>2026-03-24T12:28:41.369Z</time></trkpt><trkpt lat="46.6287376" lon="10.6665291"><ele>914.2</ele><time>2026-03-24T12:28:43.36Z</time></trkpt><trkpt lat="46.6287519" lon="10.6663507"><ele>913.0</ele><time>2026-03-24T12:28:45.368Z</time></trkpt><trkpt lat="46.628758" lon="10.6661718"><ele>912.5999999999999</ele><time>2026-03-24T12:28:47.369Z</time></trkpt><trkpt lat="46.6287628" lon="10.6659937"><ele>912.1999999999999</ele><time>2026-03-24T12:28:49.377Z</time></trkpt><trkpt lat="46.6287652" lon="10.665815"><ele>911.8</ele><time>2026-03-24T12:28:51.366Z</time></trkpt><trkpt lat="46.628762" lon="10.665632"><ele>911.4</ele><time>2026-03-24T12:28:53.365Z</time></trkpt><trkpt lat="46.6287623" lon="10.6655402"><ele>911.0</ele><time>2026-03-24T12:28:54.373Z</time></trkpt><trkpt lat="46.6287599" lon="10.665445"><ele>911.0</ele><time>2026-03-24T12:28:55.37Z</time></trkpt><trkpt lat="46.6287563" lon="10.6653527"><ele>911.0</ele><time>2026-03-24T12:28:56.367Z</time></trkpt><trkpt lat="46.6287511" lon="10.66526"><ele>911.0</ele><time>2026-03-24T12:28:57.366Z</time></trkpt><trkpt lat="46.6287437" lon="10.6651674"><ele>911.0</ele><time>2026-03-24T12:28:58.372Z</time></trkpt><trkpt lat="46.6287359" lon="10.6650704"><ele>911.0</ele><time>2026-03-24T12:28:59.371Z</time></trkpt><trkpt lat="46.628727" lon="10.6649756"><ele>911.0</ele><time>2026-03-24T12:29:00.37Z</time></trkpt><trkpt lat="46.6287168" lon="10.66488"><ele>911.0</ele><time>2026-03-24T12:29:01.374Z</time></trkpt><trkpt lat="46.6287057" lon="10.6647845"><ele>910.7142857142858</ele><time>2026-03-24T12:29:02.37Z</time></trkpt><trkpt lat="46.6286955" lon="10.6646902"><ele>910.4285714285713</ele><time>2026-03-24T12:29:03.373Z</time></trkpt><trkpt lat="46.628686" lon="10.6645963"><ele>910.1428571428571</ele><time>2026-03-24T12:29:04.37Z</time></trkpt><trkpt lat="46.6286762" lon="10.6645039"><ele>909.8571428571429</ele><time>2026-03-24T12:29:05.369Z</time></trkpt><trkpt lat="46.6286665" lon="10.6644095"><ele>909.5714285714287</ele><time>2026-03-24T12:29:06.369Z</time></trkpt><trkpt lat="46.6286569" lon="10.6643187"><ele>909.2857142857142</ele><time>2026-03-24T12:29:07.372Z</time></trkpt><trkpt lat="46.6286481" lon="10.6642268"><ele>909.0</ele><time>2026-03-24T12:29:08.373Z</time></trkpt><trkpt lat="46.6286382" lon="10.6641338"><ele>906.5</ele><time>2026-03-24T12:29:09.372Z</time></trkpt><trkpt lat="46.6286274" lon="10.6640405"><ele>904.0</ele><time>2026-03-24T12:29:10.38Z</time></trkpt><trkpt lat="46.6286181" lon="10.6639476"><ele>901.5</ele><time>2026-03-24T12:29:11.372Z</time></trkpt><trkpt lat="46.6286102" lon="10.6638565"><ele>899.0</ele><time>2026-03-24T12:29:12.377Z</time></trkpt><trkpt lat="46.6286011" lon="10.6637646"><ele>896.5</ele><time>2026-03-24T12:29:13.355Z</time></trkpt><trkpt lat="46.6285923" lon="10.6636734"><ele>894.0</ele><time>2026-03-24T12:29:14.369Z</time></trkpt><trkpt lat="46.6285834" lon="10.6635825"><ele>891.5</ele><time>2026-03-24T12:29:15.368Z</time></trkpt><trkpt lat="46.6285737" lon="10.66349"><ele>889.0</ele><time>2026-03-24T12:29:16.368Z</time></trkpt><trkpt lat="46.6285638" lon="10.6633979"><ele>889.0</ele><time>2026-03-24T12:29:17.362Z</time></trkpt><trkpt lat="46.6285534" lon="10.6633048"><ele>889.0</ele><time>2026-03-24T12:29:18.369Z</time></trkpt><trkpt lat="46.6285432" lon="10.6632121"><ele>889.0</ele><time>2026-03-24T12:29:19.372Z</time></trkpt><trkpt lat="46.6285324" lon="10.6631199"><ele>889.0</ele><time>2026-03-24T12:29:20.369Z</time></trkpt><trkpt lat="46.6285222" lon="10.6630274"><ele>889.0</ele><time>2026-03-24T12:29:21.378Z</time></trkpt><trkpt lat="46.6285115" lon="10.6629352"><ele>889.0</ele><time>2026-03-24T12:29:22.37Z</time></trkpt><trkpt lat="46.6285009" lon="10.6628416"><ele>889.0</ele><time>2026-03-24T12:29:23.381Z</time></trkpt><trkpt lat="46.6284892" lon="10.6627474"><ele>889.1428571428571</ele><time>2026-03-24T12:29:24.381Z</time></trkpt><trkpt lat="46.6284778" lon="10.6626545"><ele>889.2857142857142</ele><time>2026-03-24T12:29:25.374Z</time></trkpt><trkpt lat="46.6284666" lon="10.6625603"><ele>889.4285714285714</ele><time>2026-03-24T12:29:26.373Z</time></trkpt><trkpt lat="46.6284552" lon="10.6624651"><ele>889.5714285714286</ele><time>2026-03-24T12:29:27.367Z</time></trkpt><trkpt lat="46.6284429" lon="10.6623689"><ele>889.7142857142857</ele><time>2026-03-24T12:29:28.383Z</time></trkpt><trkpt lat="46.6284343" lon="10.662275"><ele>889.8571428571429</ele><time>2026-03-24T12:29:29.373Z</time></trkpt><trkpt lat="46.6284272" lon="10.6621829"><ele>890.0</ele><time>2026-03-24T12:29:30.365Z</time></trkpt><trkpt lat="46.6284172" lon="10.6620854"><ele>890.0</ele><time>2026-03-24T12:29:31.369Z</time></trkpt><trkpt lat="46.628412" lon="10.661994"><ele>890.0</ele><time>2026-03-24T12:29:32.371Z</time></trkpt><trkpt lat="46.6284043" lon="10.6618993"><ele>890.0</ele><time>2026-03-24T12:29:33.374Z</time></trkpt><trkpt lat="46.6283986" lon="10.661806"><ele>890.0</ele><time>2026-03-24T12:29:34.374Z</time></trkpt><trkpt lat="46.6283954" lon="10.6617112"><ele>890.0</ele><time>2026-03-24T12:29:35.356Z</time></trkpt><trkpt lat="46.6283903" lon="10.6616169"><ele>890.0</ele><time>2026-03-24T12:29:36.366Z</time></trkpt><trkpt lat="46.6283859" lon="10.6615119"><ele>890.0</ele><time>2026-03-24T12:29:37.367Z</time></trkpt><trkpt lat="46.6283863" lon="10.6614125"><ele>889.5714285714286</ele><time>2026-03-24T12:29:38.381Z</time></trkpt><trkpt lat="46.6283817" lon="10.6613087"><ele>889.1428571428571</ele><time>2026-03-24T12:29:39.378Z</time></trkpt><trkpt lat="46.6283808" lon="10.6612121"><ele>888.7142857142857</ele><time>2026-03-24T12:29:40.373Z</time></trkpt><trkpt lat="46.6283817" lon="10.6611145"><ele>888.2857142857142</ele><time>2026-03-24T12:29:41.383Z</time></trkpt><trkpt lat="46.6283844" lon="10.6610155"><ele>887.8571428571429</ele><time>2026-03-24T12:29:42.373Z</time></trkpt><trkpt lat="46.6283878" lon="10.6609165"><ele>887.4285714285713</ele><time>2026-03-24T12:29:43.368Z</time></trkpt><trkpt lat="46.6283921" lon="10.6608185"><ele>887.0</ele><time>2026-03-24T12:29:44.362Z</time></trkpt><trkpt lat="46.6283976" lon="10.6607211"><ele>886.8571428571428</ele><time>2026-03-24T12:29:45.37Z</time></trkpt><trkpt lat="46.6284028" lon="10.6606221"><ele>886.7142857142857</ele><time>2026-03-24T12:29:46.364Z</time></trkpt><trkpt lat="46.6284073" lon="10.6605227"><ele>886.5714285714286</ele><time>2026-03-24T12:29:47.372Z</time></trkpt><trkpt lat="46.6284133" lon="10.6604251"><ele>886.4285714285713</ele><time>2026-03-24T12:29:48.369Z</time></trkpt><trkpt lat="46.6284201" lon="10.660327"><ele>886.2857142857143</ele><time>2026-03-24T12:29:49.372Z</time></trkpt><trkpt lat="46.6284264" lon="10.6602294"><ele>886.1428571428571</ele><time>2026-03-24T12:29:50.368Z</time></trkpt><trkpt lat="46.6284334" lon="10.6601304"><ele>886.0</ele><time>2026-03-24T12:29:51.37Z</time></trkpt><trkpt lat="46.6284403" lon="10.6600317"><ele>885.8571428571429</ele><time>2026-03-24T12:29:52.384Z</time></trkpt><trkpt lat="46.6284454" lon="10.6599328"><ele>885.7142857142858</ele><time>2026-03-24T12:29:53.382Z</time></trkpt><trkpt lat="46.6284496" lon="10.6598338"><ele>885.5714285714286</ele><time>2026-03-24T12:29:54.376Z</time></trkpt><trkpt lat="46.6284556" lon="10.6597361"><ele>885.4285714285714</ele><time>2026-03-24T12:29:55.376Z</time></trkpt><trkpt lat="46.6284606" lon="10.6596383"><ele>885.2857142857142</ele><time>2026-03-24T12:29:56.381Z</time></trkpt><trkpt lat="46.6284644" lon="10.6595396"><ele>885.1428571428571</ele><time>2026-03-24T12:29:57.375Z</time></trkpt><trkpt lat="46.6284698" lon="10.659442"><ele>885.0</ele><time>2026-03-24T12:29:58.374Z</time></trkpt><trkpt lat="46.6284746" lon="10.6593453"><ele>885.2857142857142</ele><time>2026-03-24T12:29:59.374Z</time></trkpt><trkpt lat="46.628479" lon="10.659249"><ele>885.5714285714286</ele><time>2026-03-24T12:30:00.368Z</time></trkpt><trkpt lat="46.6284841" lon="10.6591532"><ele>885.8571428571429</ele><time>2026-03-24T12:30:01.368Z</time></trkpt><trkpt lat="46.6284891" lon="10.6590573"><ele>886.1428571428571</ele><time>2026-03-24T12:30:02.378Z</time></trkpt><trkpt lat="46.6284942" lon="10.6589609"><ele>886.4285714285714</ele><time>2026-03-24T12:30:03.374Z</time></trkpt><trkpt lat="46.6284992" lon="10.6588635"><ele>886.7142857142857</ele><time>2026-03-24T12:30:04.362Z</time></trkpt><trkpt lat="46.6285036" lon="10.6587656"><ele>887.0</ele><time>2026-03-24T12:30:05.363Z</time></trkpt><trkpt lat="46.6285085" lon="10.6586682"><ele>886.8571428571428</ele><time>2026-03-24T12:30:06.373Z</time></trkpt><trkpt lat="46.6285144" lon="10.6585693"><ele>886.7142857142857</ele><time>2026-03-24T12:30:07.369Z</time></trkpt><trkpt lat="46.6285195" lon="10.6584709"><ele>886.5714285714286</ele><time>2026-03-24T12:30:08.374Z</time></trkpt><trkpt lat="46.6285248" lon="10.658374"><ele>886.4285714285713</ele><time>2026-03-24T12:30:09.366Z</time></trkpt><trkpt lat="46.6285294" lon="10.6582759"><ele>886.2857142857143</ele><time>2026-03-24T12:30:10.365Z</time></trkpt><trkpt lat="46.6285341" lon="10.6581776"><ele>886.1428571428571</ele><time>2026-03-24T12:30:11.363Z</time></trkpt><trkpt lat="46.6285389" lon="10.6580806"><ele>886.0</ele><time>2026-03-24T12:30:12.383Z</time></trkpt><trkpt lat="46.6285435" lon="10.6579831"><ele>886.0</ele><time>2026-03-24T12:30:13.377Z</time></trkpt><trkpt lat="46.6285487" lon="10.6578855"><ele>886.0</ele><time>2026-03-24T12:30:14.376Z</time></trkpt><trkpt lat="46.6285537" lon="10.6577878"><ele>886.0</ele><time>2026-03-24T12:30:15.382Z</time></trkpt><trkpt lat="46.6285588" lon="10.6576906"><ele>886.0</ele><time>2026-03-24T12:30:16.37Z</time></trkpt><trkpt lat="46.6285645" lon="10.6575938"><ele>886.0</ele><time>2026-03-24T12:30:17.373Z</time></trkpt><trkpt lat="46.6285697" lon="10.6574969"><ele>886.0</ele><time>2026-03-24T12:30:18.371Z</time></trkpt><trkpt lat="46.6285736" lon="10.6574004"><ele>886.0</ele><time>2026-03-24T12:30:19.377Z</time></trkpt><trkpt lat="46.6285768" lon="10.657305"><ele>886.0</ele><time>2026-03-24T12:30:20.373Z</time></trkpt><trkpt lat="46.6285817" lon="10.6572116"><ele>886.0</ele><time>2026-03-24T12:30:21.387Z</time></trkpt><trkpt lat="46.6285864" lon="10.6571167"><ele>886.0</ele><time>2026-03-24T12:30:22.371Z</time></trkpt><trkpt lat="46.6285913" lon="10.6570173"><ele>886.0</ele><time>2026-03-24T12:30:23.371Z</time></trkpt><trkpt lat="46.6285964" lon="10.6569237"><ele>886.0</ele><time>2026-03-24T12:30:24.381Z</time></trkpt><trkpt lat="46.6286007" lon="10.6568285"><ele>886.0</ele><time>2026-03-24T12:30:25.364Z</time></trkpt><trkpt lat="46.628606" lon="10.656734"><ele>886.0</ele><time>2026-03-24T12:30:26.377Z</time></trkpt><trkpt lat="46.6286116" lon="10.6566383"><ele>886.2857142857143</ele><time>2026-03-24T12:30:27.367Z</time></trkpt><trkpt lat="46.6286162" lon="10.6565412"><ele>886.5714285714287</ele><time>2026-03-24T12:30:28.374Z</time></trkpt><trkpt lat="46.628618" lon="10.6564367"><ele>886.8571428571429</ele><time>2026-03-24T12:30:29.373Z</time></trkpt><trkpt lat="46.6286233" lon="10.6563406"><ele>887.1428571428571</ele><time>2026-03-24T12:30:30.374Z</time></trkpt><trkpt lat="46.6286275" lon="10.6562428"><ele>887.4285714285714</ele><time>2026-03-24T12:30:31.359Z</time></trkpt><trkpt lat="46.6286319" lon="10.6561466"><ele>887.7142857142857</ele><time>2026-03-24T12:30:32.366Z</time></trkpt><trkpt lat="46.6286363" lon="10.6560488"><ele>888.0</ele><time>2026-03-24T12:30:33.381Z</time></trkpt><trkpt lat="46.6286405" lon="10.6559526"><ele>888.5714285714286</ele><time>2026-03-24T12:30:34.375Z</time></trkpt><trkpt lat="46.6286437" lon="10.655854"><ele>889.1428571428572</ele><time>2026-03-24T12:30:35.37Z</time></trkpt><trkpt lat="46.6286468" lon="10.6557598"><ele>889.7142857142858</ele><time>2026-03-24T12:30:36.375Z</time></trkpt><trkpt lat="46.6286473" lon="10.6556618"><ele>890.2857142857142</ele><time>2026-03-24T12:30:37.369Z</time></trkpt><trkpt lat="46.6286488" lon="10.6555659"><ele>890.8571428571429</ele><time>2026-03-24T12:30:38.364Z</time></trkpt><trkpt lat="46.6286499" lon="10.6554698"><ele>891.4285714285714</ele><time>2026-03-24T12:30:39.373Z</time></trkpt><trkpt lat="46.6286504" lon="10.6553717"><ele>892.0</ele><time>2026-03-24T12:30:40.377Z</time></trkpt><trkpt lat="46.6286502" lon="10.655272"><ele>892.4285714285714</ele><time>2026-03-24T12:30:41.369Z</time></trkpt><trkpt lat="46.6286528" lon="10.6551749"><ele>892.8571428571429</ele><time>2026-03-24T12:30:42.376Z</time></trkpt><trkpt lat="46.6286566" lon="10.6550754"><ele>893.2857142857142</ele><time>2026-03-24T12:30:43.38Z</time></trkpt><trkpt lat="46.6286595" lon="10.6549761"><ele>893.7142857142858</ele><time>2026-03-24T12:30:44.377Z</time></trkpt><trkpt lat="46.6286635" lon="10.6548793"><ele>894.1428571428572</ele><time>2026-03-24T12:30:45.374Z</time></trkpt><trkpt lat="46.6286671" lon="10.6547794"><ele>894.5714285714286</ele><time>2026-03-24T12:30:46.381Z</time></trkpt><trkpt lat="46.6286692" lon="10.6546784"><ele>895.0</ele><time>2026-03-24T12:30:47.381Z</time></trkpt><trkpt lat="46.6286712" lon="10.6545794"><ele>895.0</ele><time>2026-03-24T12:30:48.373Z</time></trkpt><trkpt lat="46.6286729" lon="10.6544782"><ele>895.0</ele><time>2026-03-24T12:30:49.378Z</time></trkpt><trkpt lat="46.6286752" lon="10.6543779"><ele>895.0</ele><time>2026-03-24T12:30:50.371Z</time></trkpt><trkpt lat="46.6286772" lon="10.6542786"><ele>895.0</ele><time>2026-03-24T12:30:51.374Z</time></trkpt><trkpt lat="46.6286802" lon="10.6541804"><ele>895.0</ele><time>2026-03-24T12:30:52.379Z</time></trkpt><trkpt lat="46.6286821" lon="10.6540796"><ele>895.0</ele><time>2026-03-24T12:30:53.381Z</time></trkpt><trkpt lat="46.6286844" lon="10.6539805"><ele>895.0</ele><time>2026-03-24T12:30:54.371Z</time></trkpt><trkpt lat="46.6286861" lon="10.6538822"><ele>895.4285714285713</ele><time>2026-03-24T12:30:55.374Z</time></trkpt><trkpt lat="46.6286879" lon="10.6537825"><ele>895.8571428571429</ele><time>2026-03-24T12:30:56.371Z</time></trkpt><trkpt lat="46.6286906" lon="10.6536842"><ele>896.2857142857142</ele><time>2026-03-24T12:30:57.371Z</time></trkpt><trkpt lat="46.6286928" lon="10.6535845"><ele>896.7142857142857</ele><time>2026-03-24T12:30:58.38Z</time></trkpt><trkpt lat="46.6286939" lon="10.6534829"><ele>897.1428571428571</ele><time>2026-03-24T12:30:59.378Z</time></trkpt><trkpt lat="46.6286951" lon="10.6533809"><ele>897.5714285714286</ele><time>2026-03-24T12:31:00.379Z</time></trkpt><trkpt lat="46.6286971" lon="10.6532759"><ele>898.0</ele><time>2026-03-24T12:31:01.381Z</time></trkpt><trkpt lat="46.6287008" lon="10.6531692"><ele>897.9999999999999</ele><time>2026-03-24T12:31:02.374Z</time></trkpt><trkpt lat="46.6287032" lon="10.653061"><ele>898.0</ele><time>2026-03-24T12:31:03.374Z</time></trkpt><trkpt lat="46.6287065" lon="10.6529542"><ele>898.0</ele><time>2026-03-24T12:31:04.385Z</time></trkpt><trkpt lat="46.6287087" lon="10.6528415"><ele>898.0</ele><time>2026-03-24T12:31:05.371Z</time></trkpt><trkpt lat="46.6287095" lon="10.6527249"><ele>897.9999999999999</ele><time>2026-03-24T12:31:06.374Z</time></trkpt><trkpt lat="46.6287103" lon="10.6526065"><ele>898.0</ele><time>2026-03-24T12:31:07.38Z</time></trkpt><trkpt lat="46.6287123" lon="10.6524858"><ele>897.8333333333333</ele><time>2026-03-24T12:31:08.374Z</time></trkpt><trkpt lat="46.6287133" lon="10.6523587"><ele>897.6666666666666</ele><time>2026-03-24T12:31:09.371Z</time></trkpt><trkpt lat="46.6287142" lon="10.6522311"><ele>897.5</ele><time>2026-03-24T12:31:10.375Z</time></trkpt><trkpt lat="46.628714" lon="10.6521035"><ele>897.3333333333333</ele><time>2026-03-24T12:31:11.38Z</time></trkpt><trkpt lat="46.6287144" lon="10.6519751"><ele>897.1666666666666</ele><time>2026-03-24T12:31:12.373Z</time></trkpt><trkpt lat="46.6287156" lon="10.6518474"><ele>897.0</ele><time>2026-03-24T12:31:13.38Z</time></trkpt><trkpt lat="46.628718" lon="10.6517198"><ele>896.5</ele><time>2026-03-24T12:31:14.38Z</time></trkpt><trkpt lat="46.6287206" lon="10.6515915"><ele>896.0</ele><time>2026-03-24T12:31:15.369Z</time></trkpt><trkpt lat="46.6287222" lon="10.6514617"><ele>895.5</ele><time>2026-03-24T12:31:16.367Z</time></trkpt><trkpt lat="46.6287235" lon="10.6513297"><ele>895.0</ele><time>2026-03-24T12:31:17.357Z</time></trkpt><trkpt lat="46.6287242" lon="10.651198"><ele>894.5</ele><time>2026-03-24T12:31:18.37Z</time></trkpt><trkpt lat="46.6287266" lon="10.651068"><ele>894.0</ele><time>2026-03-24T12:31:19.371Z</time></trkpt><trkpt lat="46.628733" lon="10.6509399"><ele>893.5</ele><time>2026-03-24T12:31:20.384Z</time></trkpt><trkpt lat="46.6287414" lon="10.6508131"><ele>893.0</ele><time>2026-03-24T12:31:21.38Z</time></trkpt><trkpt lat="46.6287531" lon="10.6506885"><ele>892.5</ele><time>2026-03-24T12:31:22.38Z</time></trkpt><trkpt lat="46.6287651" lon="10.6505617"><ele>892.0</ele><time>2026-03-24T12:31:23.376Z</time></trkpt><trkpt lat="46.6287801" lon="10.6504271"><ele>891.5</ele><time>2026-03-24T12:31:24.365Z</time></trkpt><trkpt lat="46.6287972" lon="10.6503007"><ele>891.0</ele><time>2026-03-24T12:31:25.376Z</time></trkpt><trkpt lat="46.6288133" lon="10.6501771"><ele>890.5</ele><time>2026-03-24T12:31:26.37Z</time></trkpt><trkpt lat="46.6288272" lon="10.6500517"><ele>890.0</ele><time>2026-03-24T12:31:27.382Z</time></trkpt><trkpt lat="46.6288427" lon="10.649924"><ele>889.5</ele><time>2026-03-24T12:31:28.378Z</time></trkpt><trkpt lat="46.6288581" lon="10.6497949"><ele>889.0</ele><time>2026-03-24T12:31:29.375Z</time></trkpt><trkpt lat="46.6288742" lon="10.6496654"><ele>888.5</ele><time>2026-03-24T12:31:30.363Z</time></trkpt><trkpt lat="46.6288896" lon="10.6495369"><ele>888.0</ele><time>2026-03-24T12:31:31.376Z</time></trkpt><trkpt lat="46.6289061" lon="10.6494079"><ele>887.4</ele><time>2026-03-24T12:31:32.372Z</time></trkpt><trkpt lat="46.6289223" lon="10.6492797"><ele>886.8</ele><time>2026-03-24T12:31:33.368Z</time></trkpt><trkpt lat="46.6289396" lon="10.6491502"><ele>886.2</ele><time>2026-03-24T12:31:34.371Z</time></trkpt><trkpt lat="46.6289569" lon="10.6490165"><ele>885.6</ele><time>2026-03-24T12:31:35.378Z</time></trkpt><trkpt lat="46.6289744" lon="10.6488811"><ele>885.0</ele><time>2026-03-24T12:31:36.36Z</time></trkpt><trkpt lat="46.6289917" lon="10.6487332"><ele>885.0</ele><time>2026-03-24T12:31:37.373Z</time></trkpt><trkpt lat="46.6290097" lon="10.648586"><ele>885.0</ele><time>2026-03-24T12:31:38.376Z</time></trkpt><trkpt lat="46.629031" lon="10.6484446"><ele>885.0</ele><time>2026-03-24T12:31:39.358Z</time></trkpt><trkpt lat="46.6290501" lon="10.6483007"><ele>885.0</ele><time>2026-03-24T12:31:40.369Z</time></trkpt><trkpt lat="46.629069" lon="10.6481573"><ele>885.0</ele><time>2026-03-24T12:31:41.366Z</time></trkpt><trkpt lat="46.6290874" lon="10.6480156"><ele>885.0</ele><time>2026-03-24T12:31:42.38Z</time></trkpt><trkpt lat="46.6291047" lon="10.647875"><ele>885.0</ele><time>2026-03-24T12:31:43.374Z</time></trkpt><trkpt lat="46.6291234" lon="10.6477347"><ele>885.0</ele><time>2026-03-24T12:31:44.378Z</time></trkpt><trkpt lat="46.6291407" lon="10.6475916"><ele>885.0</ele><time>2026-03-24T12:31:45.372Z</time></trkpt><trkpt lat="46.6291576" lon="10.6474493"><ele>885.0</ele><time>2026-03-24T12:31:46.38Z</time></trkpt><trkpt lat="46.6291755" lon="10.6473077"><ele>884.0</ele><time>2026-03-24T12:31:47.372Z</time></trkpt><trkpt lat="46.6291937" lon="10.6471653"><ele>883.0</ele><time>2026-03-24T12:31:48.375Z</time></trkpt><trkpt lat="46.6292104" lon="10.6470225"><ele>882.0</ele><time>2026-03-24T12:31:49.374Z</time></trkpt><trkpt lat="46.6292273" lon="10.6468821"><ele>881.0</ele><time>2026-03-24T12:31:50.37Z</time></trkpt><trkpt lat="46.6292445" lon="10.6467407"><ele>880.0</ele><time>2026-03-24T12:31:51.38Z</time></trkpt><trkpt lat="46.6292634" lon="10.6465996"><ele>879.4</ele><time>2026-03-24T12:31:52.37Z</time></trkpt><trkpt lat="46.6292816" lon="10.6464594"><ele>878.8</ele><time>2026-03-24T12:31:53.363Z</time></trkpt><trkpt lat="46.6292977" lon="10.6463191"><ele>878.2</ele><time>2026-03-24T12:31:54.374Z</time></trkpt><trkpt lat="46.6293158" lon="10.6461812"><ele>877.6</ele><time>2026-03-24T12:31:55.375Z</time></trkpt><trkpt lat="46.6293339" lon="10.6460431"><ele>877.0</ele><time>2026-03-24T12:31:56.372Z</time></trkpt><trkpt lat="46.6293512" lon="10.6459033"><ele>877.0</ele><time>2026-03-24T12:31:57.369Z</time></trkpt><trkpt lat="46.6293692" lon="10.6457652"><ele>877.0</ele><time>2026-03-24T12:31:58.381Z</time></trkpt><trkpt lat="46.629388" lon="10.6456277"><ele>877.0</ele><time>2026-03-24T12:31:59.376Z</time></trkpt><trkpt lat="46.6294063" lon="10.6454891"><ele>877.0</ele><time>2026-03-24T12:32:00.372Z</time></trkpt><trkpt lat="46.6294229" lon="10.645352"><ele>877.0</ele><time>2026-03-24T12:32:01.378Z</time></trkpt><trkpt lat="46.62944" lon="10.6452146"><ele>876.8</ele><time>2026-03-24T12:32:02.37Z</time></trkpt><trkpt lat="46.6294568" lon="10.64508"><ele>876.6</ele><time>2026-03-24T12:32:03.375Z</time></trkpt><trkpt lat="46.6294732" lon="10.6449481"><ele>876.3999999999999</ele><time>2026-03-24T12:32:04.368Z</time></trkpt><trkpt lat="46.6294898" lon="10.6448203"><ele>876.1999999999999</ele><time>2026-03-24T12:32:05.382Z</time></trkpt><trkpt lat="46.6295059" lon="10.6446938"><ele>876.0</ele><time>2026-03-24T12:32:06.365Z</time></trkpt><trkpt lat="46.6295214" lon="10.6445695"><ele>875.6666666666666</ele><time>2026-03-24T12:32:07.374Z</time></trkpt><trkpt lat="46.6295358" lon="10.6444445"><ele>875.3333333333333</ele><time>2026-03-24T12:32:08.367Z</time></trkpt><trkpt lat="46.6295506" lon="10.6443222"><ele>875.0</ele><time>2026-03-24T12:32:09.361Z</time></trkpt><trkpt lat="46.6295649" lon="10.6442002"><ele>874.6666666666666</ele><time>2026-03-24T12:32:10.365Z</time></trkpt><trkpt lat="46.6295803" lon="10.6440809"><ele>874.3333333333333</ele><time>2026-03-24T12:32:11.368Z</time></trkpt><trkpt lat="46.6295966" lon="10.6439602"><ele>874.0</ele><time>2026-03-24T12:32:12.365Z</time></trkpt><trkpt lat="46.6296126" lon="10.6438392"><ele>873.9999999999999</ele><time>2026-03-24T12:32:13.375Z</time></trkpt><trkpt lat="46.6296285" lon="10.6437185"><ele>874.0</ele><time>2026-03-24T12:32:14.38Z</time></trkpt><trkpt lat="46.6296438" lon="10.6436001"><ele>874.0</ele><time>2026-03-24T12:32:15.374Z</time></trkpt><trkpt lat="46.6296578" lon="10.6434811"><ele>874.0</ele><time>2026-03-24T12:32:16.374Z</time></trkpt><trkpt lat="46.6296726" lon="10.643364"><ele>873.9999999999999</ele><time>2026-03-24T12:32:17.356Z</time></trkpt><trkpt lat="46.6296876" lon="10.6432481"><ele>874.0</ele><time>2026-03-24T12:32:18.357Z</time></trkpt><trkpt lat="46.6297025" lon="10.6431329"><ele>873.9999999999999</ele><time>2026-03-24T12:32:19.373Z</time></trkpt><trkpt lat="46.629716" lon="10.6430179"><ele>874.0</ele><time>2026-03-24T12:32:20.374Z</time></trkpt><trkpt lat="46.6297295" lon="10.6429032"><ele>874.0</ele><time>2026-03-24T12:32:21.368Z</time></trkpt><trkpt lat="46.6297445" lon="10.6427905"><ele>874.0</ele><time>2026-03-24T12:32:22.381Z</time></trkpt><trkpt lat="46.6297581" lon="10.6426789"><ele>873.9999999999999</ele><time>2026-03-24T12:32:23.374Z</time></trkpt><trkpt lat="46.6297716" lon="10.6425671"><ele>874.0</ele><time>2026-03-24T12:32:24.38Z</time></trkpt><trkpt lat="46.6297866" lon="10.6424557"><ele>873.9999999999999</ele><time>2026-03-24T12:32:25.367Z</time></trkpt><trkpt lat="46.6298001" lon="10.6423441"><ele>874.0</ele><time>2026-03-24T12:32:26.372Z</time></trkpt><trkpt lat="46.6298135" lon="10.6422338"><ele>874.0</ele><time>2026-03-24T12:32:27.368Z</time></trkpt><trkpt lat="46.6298276" lon="10.6421236"><ele>874.0</ele><time>2026-03-24T12:32:28.376Z</time></trkpt><trkpt lat="46.6298404" lon="10.6420139"><ele>873.9999999999999</ele><time>2026-03-24T12:32:29.376Z</time></trkpt><trkpt lat="46.6298541" lon="10.641907"><ele>874.0</ele><time>2026-03-24T12:32:30.366Z</time></trkpt><trkpt lat="46.6298702" lon="10.6418032"><ele>874.2857142857142</ele><time>2026-03-24T12:32:31.363Z</time></trkpt><trkpt lat="46.6298963" lon="10.6417054"><ele>874.5714285714287</ele><time>2026-03-24T12:32:32.367Z</time></trkpt><trkpt lat="46.6299339" lon="10.6416139"><ele>874.8571428571429</ele><time>2026-03-24T12:32:33.38Z</time></trkpt><trkpt lat="46.629967" lon="10.6415188"><ele>875.1428571428571</ele><time>2026-03-24T12:32:34.378Z</time></trkpt><trkpt lat="46.629981" lon="10.6414164"><ele>875.4285714285713</ele><time>2026-03-24T12:32:35.366Z</time></trkpt><trkpt lat="46.6299926" lon="10.6413194"><ele>875.7142857142858</ele><time>2026-03-24T12:32:36.383Z</time></trkpt><trkpt lat="46.6299787" lon="10.6412197"><ele>876.0</ele><time>2026-03-24T12:32:37.379Z</time></trkpt><trkpt lat="46.6299728" lon="10.6411138"><ele>876.0</ele><time>2026-03-24T12:32:38.377Z</time></trkpt><trkpt lat="46.6299807" lon="10.6410102"><ele>876.0</ele><time>2026-03-24T12:32:39.375Z</time></trkpt><trkpt lat="46.6299933" lon="10.6409088"><ele>876.0</ele><time>2026-03-24T12:32:40.38Z</time></trkpt><trkpt lat="46.6300036" lon="10.6408086"><ele>876.0</ele><time>2026-03-24T12:32:41.375Z</time></trkpt><trkpt lat="46.630016" lon="10.6407053"><ele>876.0</ele><time>2026-03-24T12:32:42.373Z</time></trkpt><trkpt lat="46.6300289" lon="10.6406003"><ele>876.0</ele><time>2026-03-24T12:32:43.384Z</time></trkpt><trkpt lat="46.6300428" lon="10.6404974"><ele>876.0</ele><time>2026-03-24T12:32:44.365Z</time></trkpt><trkpt lat="46.6300568" lon="10.6403949"><ele>876.0</ele><time>2026-03-24T12:32:45.364Z</time></trkpt><trkpt lat="46.6300718" lon="10.6402939"><ele>876.0</ele><time>2026-03-24T12:32:46.376Z</time></trkpt><trkpt lat="46.6300835" lon="10.640192"><ele>876.0</ele><time>2026-03-24T12:32:47.375Z</time></trkpt><trkpt lat="46.6300953" lon="10.6400907"><ele>876.0</ele><time>2026-03-24T12:32:48.366Z</time></trkpt><trkpt lat="46.6301064" lon="10.6399873"><ele>876.0</ele><time>2026-03-24T12:32:49.372Z</time></trkpt><trkpt lat="46.6301189" lon="10.6398859"><ele>876.0</ele><time>2026-03-24T12:32:50.372Z</time></trkpt><trkpt lat="46.6301325" lon="10.6397845"><ele>876.0</ele><time>2026-03-24T12:32:51.37Z</time></trkpt><trkpt lat="46.6301456" lon="10.6396843"><ele>876.0</ele><time>2026-03-24T12:32:52.375Z</time></trkpt><trkpt lat="46.6301577" lon="10.6395861"><ele>876.0</ele><time>2026-03-24T12:32:53.371Z</time></trkpt><trkpt lat="46.6301693" lon="10.6394882"><ele>876.0</ele><time>2026-03-24T12:32:54.373Z</time></trkpt><trkpt lat="46.6301812" lon="10.6393918"><ele>876.0</ele><time>2026-03-24T12:32:55.373Z</time></trkpt><trkpt lat="46.6301933" lon="10.6392957"><ele>876.0</ele><time>2026-03-24T12:32:56.371Z</time></trkpt><trkpt lat="46.6302063" lon="10.6392004"><ele>876.0</ele><time>2026-03-24T12:32:57.371Z</time></trkpt><trkpt lat="46.6302182" lon="10.6391062"><ele>876.0</ele><time>2026-03-24T12:32:58.374Z</time></trkpt><trkpt lat="46.6302291" lon="10.6390126"><ele>875.8</ele><time>2026-03-24T12:32:59.371Z</time></trkpt><trkpt lat="46.6302402" lon="10.6389206"><ele>875.5999999999999</ele><time>2026-03-24T12:33:00.366Z</time></trkpt><trkpt lat="46.6302507" lon="10.6388283"><ele>875.4</ele><time>2026-03-24T12:33:01.376Z</time></trkpt><trkpt lat="46.6302739" lon="10.6386492"><ele>875.2</ele><time>2026-03-24T12:33:03.37Z</time></trkpt><trkpt lat="46.6302957" lon="10.6384697"><ele>875.0</ele><time>2026-03-24T12:33:05.379Z</time></trkpt><trkpt lat="46.6303186" lon="10.6382904"><ele>877.25</ele><time>2026-03-24T12:33:07.385Z</time></trkpt><trkpt lat="46.6303414" lon="10.6381126"><ele>879.5</ele><time>2026-03-24T12:33:09.377Z</time></trkpt><trkpt lat="46.6303675" lon="10.6379367"><ele>881.75</ele><time>2026-03-24T12:33:11.375Z</time></trkpt><trkpt lat="46.6303908" lon="10.6377627"><ele>884.0</ele><time>2026-03-24T12:33:13.373Z</time></trkpt><trkpt lat="46.6304116" lon="10.6375875"><ele>884.25</ele><time>2026-03-24T12:33:15.364Z</time></trkpt><trkpt lat="46.6304321" lon="10.6374125"><ele>884.5</ele><time>2026-03-24T12:33:17.369Z</time></trkpt><trkpt lat="46.6304541" lon="10.6372401"><ele>884.75</ele><time>2026-03-24T12:33:19.379Z</time></trkpt><trkpt lat="46.6304745" lon="10.637067"><ele>885.0</ele><time>2026-03-24T12:33:21.367Z</time></trkpt><trkpt lat="46.6304968" lon="10.6368958"><ele>885.5</ele><time>2026-03-24T12:33:23.378Z</time></trkpt><trkpt lat="46.6305192" lon="10.6367225"><ele>886.0</ele><time>2026-03-24T12:33:25.382Z</time></trkpt><trkpt lat="46.6305406" lon="10.6365496"><ele>886.5</ele><time>2026-03-24T12:33:27.382Z</time></trkpt><trkpt lat="46.6305623" lon="10.6363741"><ele>887.0</ele><time>2026-03-24T12:33:29.371Z</time></trkpt><trkpt lat="46.6305842" lon="10.6361991"><ele>886.5</ele><time>2026-03-24T12:33:31.367Z</time></trkpt><trkpt lat="46.6306042" lon="10.6360235"><ele>886.0</ele><time>2026-03-24T12:33:33.361Z</time></trkpt><trkpt lat="46.6306263" lon="10.6358473"><ele>885.5</ele><time>2026-03-24T12:33:35.358Z</time></trkpt><trkpt lat="46.6306489" lon="10.6356712"><ele>885.0</ele><time>2026-03-24T12:33:37.372Z</time></trkpt><trkpt lat="46.6306713" lon="10.6354945"><ele>885.0</ele><time>2026-03-24T12:33:39.377Z</time></trkpt><trkpt lat="46.6306825" lon="10.635404"><ele>885.0</ele><time>2026-03-24T12:33:40.385Z</time></trkpt><trkpt lat="46.6306943" lon="10.6353119"><ele>885.0</ele><time>2026-03-24T12:33:41.382Z</time></trkpt><trkpt lat="46.6307157" lon="10.6351329"><ele>885.0</ele><time>2026-03-24T12:33:43.383Z</time></trkpt><trkpt lat="46.6307387" lon="10.6349553"><ele>885.0</ele><time>2026-03-24T12:33:45.367Z</time></trkpt><trkpt lat="46.6307503" lon="10.6348649"><ele>885.0</ele><time>2026-03-24T12:33:46.361Z</time></trkpt><trkpt lat="46.6307749" lon="10.6346876"><ele>884.8</ele><time>2026-03-24T12:33:48.36Z</time></trkpt><trkpt lat="46.6307987" lon="10.6345101"><ele>884.6</ele><time>2026-03-24T12:33:50.362Z</time></trkpt><trkpt lat="46.6308102" lon="10.6344198"><ele>884.4000000000001</ele><time>2026-03-24T12:33:51.365Z</time></trkpt><trkpt lat="46.6308303" lon="10.6342421"><ele>884.2</ele><time>2026-03-24T12:33:53.373Z</time></trkpt><trkpt lat="46.6308518" lon="10.6340662"><ele>884.0</ele><time>2026-03-24T12:33:55.367Z</time></trkpt><trkpt lat="46.6308691" lon="10.6338868"><ele>884.6</ele><time>2026-03-24T12:33:57.367Z</time></trkpt><trkpt lat="46.6308765" lon="10.6337954"><ele>885.2</ele><time>2026-03-24T12:33:58.369Z</time></trkpt><trkpt lat="46.630883" lon="10.6336138"><ele>885.8000000000001</ele><time>2026-03-24T12:34:00.375Z</time></trkpt><trkpt lat="46.6308817" lon="10.633434"><ele>886.4000000000001</ele><time>2026-03-24T12:34:02.378Z</time></trkpt><trkpt lat="46.630879" lon="10.6333394"><ele>887.0</ele><time>2026-03-24T12:34:03.368Z</time></trkpt><trkpt lat="46.6308748" lon="10.6331512"><ele>886.9999999999999</ele><time>2026-03-24T12:34:05.372Z</time></trkpt><trkpt lat="46.6308738" lon="10.6330568"><ele>887.0</ele><time>2026-03-24T12:34:06.38Z</time></trkpt><trkpt lat="46.6308723" lon="10.632958"><ele>887.0</ele><time>2026-03-24T12:34:07.37Z</time></trkpt><trkpt lat="46.6308699" lon="10.6328604"><ele>887.0</ele><time>2026-03-24T12:34:08.365Z</time></trkpt><trkpt lat="46.6308681" lon="10.6327651"><ele>887.0</ele><time>2026-03-24T12:34:09.387Z</time></trkpt><trkpt lat="46.6308673" lon="10.6326693"><ele>886.9999999999999</ele><time>2026-03-24T12:34:10.38Z</time></trkpt><trkpt lat="46.6308642" lon="10.6325701"><ele>887.0</ele><time>2026-03-24T12:34:11.373Z</time></trkpt><trkpt lat="46.6308622" lon="10.6324701"><ele>887.1428571428571</ele><time>2026-03-24T12:34:12.37Z</time></trkpt><trkpt lat="46.6308604" lon="10.6323682"><ele>887.2857142857142</ele><time>2026-03-24T12:34:13.378Z</time></trkpt><trkpt lat="46.6308586" lon="10.6322667"><ele>887.4285714285713</ele><time>2026-03-24T12:34:14.373Z</time></trkpt><trkpt lat="46.6308563" lon="10.632162"><ele>887.5714285714286</ele><time>2026-03-24T12:34:15.371Z</time></trkpt><trkpt lat="46.630855" lon="10.6320564"><ele>887.7142857142858</ele><time>2026-03-24T12:34:16.369Z</time></trkpt><trkpt lat="46.6308529" lon="10.6319488"><ele>887.8571428571428</ele><time>2026-03-24T12:34:17.371Z</time></trkpt><trkpt lat="46.6308502" lon="10.6318401"><ele>888.0</ele><time>2026-03-24T12:34:18.366Z</time></trkpt><trkpt lat="46.6308481" lon="10.6317306"><ele>888.0</ele><time>2026-03-24T12:34:19.376Z</time></trkpt><trkpt lat="46.6308464" lon="10.6316211"><ele>888.0</ele><time>2026-03-24T12:34:20.378Z</time></trkpt><trkpt lat="46.6308466" lon="10.631511"><ele>888.0</ele><time>2026-03-24T12:34:21.368Z</time></trkpt><trkpt lat="46.6308462" lon="10.6314011"><ele>888.0</ele><time>2026-03-24T12:34:22.373Z</time></trkpt><trkpt lat="46.6308466" lon="10.6312916"><ele>888.0</ele><time>2026-03-24T12:34:23.368Z</time></trkpt><trkpt lat="46.630847" lon="10.6311816"><ele>888.0</ele><time>2026-03-24T12:34:24.366Z</time></trkpt><trkpt lat="46.6308472" lon="10.6310722"><ele>888.1666666666666</ele><time>2026-03-24T12:34:25.363Z</time></trkpt><trkpt lat="46.6308466" lon="10.6309644"><ele>888.3333333333333</ele><time>2026-03-24T12:34:26.366Z</time></trkpt><trkpt lat="46.6308429" lon="10.630852"><ele>888.5</ele><time>2026-03-24T12:34:27.373Z</time></trkpt><trkpt lat="46.6308382" lon="10.6307418"><ele>888.6666666666666</ele><time>2026-03-24T12:34:28.374Z</time></trkpt><trkpt lat="46.6308327" lon="10.6306307"><ele>888.8333333333333</ele><time>2026-03-24T12:34:29.37Z</time></trkpt><trkpt lat="46.6308274" lon="10.6305199"><ele>889.0</ele><time>2026-03-24T12:34:30.384Z</time></trkpt><trkpt lat="46.6308243" lon="10.6304078"><ele>888.7142857142857</ele><time>2026-03-24T12:34:31.374Z</time></trkpt><trkpt lat="46.6308223" lon="10.6302996"><ele>888.4285714285714</ele><time>2026-03-24T12:34:32.368Z</time></trkpt><trkpt lat="46.6308212" lon="10.6301966"><ele>888.1428571428571</ele><time>2026-03-24T12:34:33.373Z</time></trkpt><trkpt lat="46.6308209" lon="10.630085"><ele>887.8571428571429</ele><time>2026-03-24T12:34:34.359Z</time></trkpt><trkpt lat="46.6308245" lon="10.6299777"><ele>887.5714285714286</ele><time>2026-03-24T12:34:35.369Z</time></trkpt><trkpt lat="46.6308294" lon="10.6298704"><ele>887.2857142857142</ele><time>2026-03-24T12:34:36.367Z</time></trkpt><trkpt lat="46.6308354" lon="10.6297578"><ele>887.0</ele><time>2026-03-24T12:34:37.369Z</time></trkpt><trkpt lat="46.6308425" lon="10.6296487"><ele>887.0000000000001</ele><time>2026-03-24T12:34:38.374Z</time></trkpt><trkpt lat="46.6308501" lon="10.6295376"><ele>887.0</ele><time>2026-03-24T12:34:39.367Z</time></trkpt><trkpt lat="46.630858" lon="10.6294278"><ele>887.0</ele><time>2026-03-24T12:34:40.374Z</time></trkpt><trkpt lat="46.6308662" lon="10.6293179"><ele>887.0</ele><time>2026-03-24T12:34:41.363Z</time></trkpt><trkpt lat="46.6308732" lon="10.6292072"><ele>887.0000000000001</ele><time>2026-03-24T12:34:42.363Z</time></trkpt><trkpt lat="46.6308802" lon="10.6290956"><ele>887.0</ele><time>2026-03-24T12:34:43.389Z</time></trkpt><trkpt lat="46.6308886" lon="10.6289858"><ele>886.9999999999999</ele><time>2026-03-24T12:34:44.378Z</time></trkpt><trkpt lat="46.6308953" lon="10.6288746"><ele>887.0</ele><time>2026-03-24T12:34:45.371Z</time></trkpt><trkpt lat="46.6309034" lon="10.6287625"><ele>887.0</ele><time>2026-03-24T12:34:46.384Z</time></trkpt><trkpt lat="46.630913" lon="10.6286506"><ele>887.0</ele><time>2026-03-24T12:34:47.37Z</time></trkpt><trkpt lat="46.6309217" lon="10.6285433"><ele>887.0</ele><time>2026-03-24T12:34:48.379Z</time></trkpt><trkpt lat="46.6309298" lon="10.6284425"><ele>886.9999999999999</ele><time>2026-03-24T12:34:49.352Z</time></trkpt><trkpt lat="46.6309361" lon="10.6283485"><ele>887.0</ele><time>2026-03-24T12:34:50.369Z</time></trkpt><trkpt lat="46.6309422" lon="10.6282543"><ele>886.5000000000001</ele><time>2026-03-24T12:34:51.383Z</time></trkpt><trkpt lat="46.6309594" lon="10.6280766"><ele>886.0</ele><time>2026-03-24T12:34:53.379Z</time></trkpt><trkpt lat="46.6309675" lon="10.627984"><ele>885.5</ele><time>2026-03-24T12:34:54.368Z</time></trkpt><trkpt lat="46.6309771" lon="10.6278871"><ele>885.0</ele><time>2026-03-24T12:34:55.376Z</time></trkpt><trkpt lat="46.6309891" lon="10.6277891"><ele>884.5000000000001</ele><time>2026-03-24T12:34:56.376Z</time></trkpt><trkpt lat="46.631004" lon="10.6276841"><ele>884.0</ele><time>2026-03-24T12:34:57.374Z</time></trkpt><trkpt lat="46.6310192" lon="10.6275806"><ele>883.7142857142858</ele><time>2026-03-24T12:34:58.365Z</time></trkpt><trkpt lat="46.6310346" lon="10.6274765"><ele>883.4285714285714</ele><time>2026-03-24T12:34:59.373Z</time></trkpt><trkpt lat="46.6310499" lon="10.6273727"><ele>883.1428571428571</ele><time>2026-03-24T12:35:00.373Z</time></trkpt><trkpt lat="46.631066" lon="10.6272676"><ele>882.8571428571429</ele><time>2026-03-24T12:35:01.375Z</time></trkpt><trkpt lat="46.6310816" lon="10.6271636"><ele>882.5714285714286</ele><time>2026-03-24T12:35:02.374Z</time></trkpt><trkpt lat="46.6310965" lon="10.6270599"><ele>882.2857142857143</ele><time>2026-03-24T12:35:03.375Z</time></trkpt><trkpt lat="46.631112" lon="10.6269579"><ele>882.0</ele><time>2026-03-24T12:35:04.372Z</time></trkpt><trkpt lat="46.6311275" lon="10.6268557"><ele>885.8571428571429</ele><time>2026-03-24T12:35:05.373Z</time></trkpt><trkpt lat="46.6311425" lon="10.6267553"><ele>889.7142857142858</ele><time>2026-03-24T12:35:06.371Z</time></trkpt><trkpt lat="46.6311582" lon="10.626655"><ele>893.5714285714286</ele><time>2026-03-24T12:35:07.373Z</time></trkpt><trkpt lat="46.6311733" lon="10.6265555"><ele>897.4285714285714</ele><time>2026-03-24T12:35:08.375Z</time></trkpt><trkpt lat="46.6311867" lon="10.6264567"><ele>901.2857142857143</ele><time>2026-03-24T12:35:09.375Z</time></trkpt><trkpt lat="46.6312005" lon="10.6263572"><ele>905.1428571428571</ele><time>2026-03-24T12:35:10.359Z</time></trkpt><trkpt lat="46.631216" lon="10.6262602"><ele>909.0</ele><time>2026-03-24T12:35:11.369Z</time></trkpt><trkpt lat="46.6312307" lon="10.6261614"><ele>907.8571428571429</ele><time>2026-03-24T12:35:12.372Z</time></trkpt><trkpt lat="46.6312458" lon="10.6260638"><ele>906.7142857142858</ele><time>2026-03-24T12:35:13.386Z</time></trkpt><trkpt lat="46.6312604" lon="10.6259663"><ele>905.5714285714287</ele><time>2026-03-24T12:35:14.372Z</time></trkpt><trkpt lat="46.631275" lon="10.6258706"><ele>904.4285714285714</ele><time>2026-03-24T12:35:15.377Z</time></trkpt><trkpt lat="46.6312882" lon="10.625774"><ele>903.2857142857144</ele><time>2026-03-24T12:35:16.363Z</time></trkpt><trkpt lat="46.631301" lon="10.6256778"><ele>902.1428571428572</ele><time>2026-03-24T12:35:17.37Z</time></trkpt><trkpt lat="46.6313145" lon="10.6255819"><ele>901.0</ele><time>2026-03-24T12:35:18.364Z</time></trkpt><trkpt lat="46.6313279" lon="10.6254876"><ele>901.0</ele><time>2026-03-24T12:35:19.383Z</time></trkpt><trkpt lat="46.6313411" lon="10.6253918"><ele>901.0000000000001</ele><time>2026-03-24T12:35:20.372Z</time></trkpt><trkpt lat="46.631355" lon="10.6252968"><ele>901.0</ele><time>2026-03-24T12:35:21.373Z</time></trkpt><trkpt lat="46.6313686" lon="10.6252008"><ele>901.0</ele><time>2026-03-24T12:35:22.374Z</time></trkpt><trkpt lat="46.6313826" lon="10.6251065"><ele>901.0000000000001</ele><time>2026-03-24T12:35:23.372Z</time></trkpt><trkpt lat="46.6313961" lon="10.6250106"><ele>901.0</ele><time>2026-03-24T12:35:24.373Z</time></trkpt><trkpt lat="46.6314084" lon="10.6249163"><ele>901.0</ele><time>2026-03-24T12:35:25.375Z</time></trkpt><trkpt lat="46.6314217" lon="10.6248212"><ele>899.7142857142858</ele><time>2026-03-24T12:35:26.369Z</time></trkpt><trkpt lat="46.631436" lon="10.6247277"><ele>898.4285714285716</ele><time>2026-03-24T12:35:27.376Z</time></trkpt><trkpt lat="46.6314494" lon="10.6246333"><ele>897.1428571428571</ele><time>2026-03-24T12:35:28.366Z</time></trkpt><trkpt lat="46.6314632" lon="10.6245391"><ele>895.8571428571429</ele><time>2026-03-24T12:35:29.373Z</time></trkpt><trkpt lat="46.6314766" lon="10.6244453"><ele>894.5714285714286</ele><time>2026-03-24T12:35:30.376Z</time></trkpt><trkpt lat="46.6314911" lon="10.6243519"><ele>893.2857142857142</ele><time>2026-03-24T12:35:31.368Z</time></trkpt><trkpt lat="46.631505" lon="10.6242593"><ele>892.0</ele><time>2026-03-24T12:35:32.363Z</time></trkpt><trkpt lat="46.6315197" lon="10.6241668"><ele>891.4285714285714</ele><time>2026-03-24T12:35:33.371Z</time></trkpt><trkpt lat="46.6315362" lon="10.624076"><ele>890.8571428571429</ele><time>2026-03-24T12:35:34.379Z</time></trkpt><trkpt lat="46.6315525" lon="10.6239851"><ele>890.2857142857142</ele><time>2026-03-24T12:35:35.378Z</time></trkpt><trkpt lat="46.6315707" lon="10.6238951"><ele>889.7142857142858</ele><time>2026-03-24T12:35:36.359Z</time></trkpt><trkpt lat="46.6315888" lon="10.6238039"><ele>889.1428571428572</ele><time>2026-03-24T12:35:37.377Z</time></trkpt><trkpt lat="46.6316121" lon="10.6237178"><ele>888.5714285714286</ele><time>2026-03-24T12:35:38.365Z</time></trkpt><trkpt lat="46.6316396" lon="10.6236318"><ele>888.0</ele><time>2026-03-24T12:35:39.382Z</time></trkpt><trkpt lat="46.6316691" lon="10.6235474"><ele>887.5714285714286</ele><time>2026-03-24T12:35:40.368Z</time></trkpt><trkpt lat="46.6316991" lon="10.6234633"><ele>887.1428571428572</ele><time>2026-03-24T12:35:41.374Z</time></trkpt><trkpt lat="46.6317299" lon="10.6233805"><ele>886.7142857142858</ele><time>2026-03-24T12:35:42.384Z</time></trkpt><trkpt lat="46.6317602" lon="10.6232976"><ele>886.2857142857142</ele><time>2026-03-24T12:35:43.376Z</time></trkpt><trkpt lat="46.6317911" lon="10.6232148"><ele>885.8571428571429</ele><time>2026-03-24T12:35:44.369Z</time></trkpt><trkpt lat="46.6318213" lon="10.6231297"><ele>885.4285714285714</ele><time>2026-03-24T12:35:45.378Z</time></trkpt><trkpt lat="46.631851" lon="10.6230469"><ele>885.0</ele><time>2026-03-24T12:35:46.368Z</time></trkpt><trkpt lat="46.6318802" lon="10.6229621"><ele>885.0</ele><time>2026-03-24T12:35:47.365Z</time></trkpt><trkpt lat="46.6319079" lon="10.6228745"><ele>885.0</ele><time>2026-03-24T12:35:48.365Z</time></trkpt><trkpt lat="46.6319306" lon="10.6227845"><ele>885.0</ele><time>2026-03-24T12:35:49.374Z</time></trkpt><trkpt lat="46.6319526" lon="10.6226969"><ele>885.0</ele><time>2026-03-24T12:35:50.37Z</time></trkpt><trkpt lat="46.631978" lon="10.6225173"><ele>885.0</ele><time>2026-03-24T12:35:52.378Z</time></trkpt><trkpt lat="46.6319833" lon="10.6223319"><ele>885.0</ele><time>2026-03-24T12:35:54.363Z</time></trkpt><trkpt lat="46.6319814" lon="10.6222389"><ele>884.4</ele><time>2026-03-24T12:35:55.375Z</time></trkpt><trkpt lat="46.6319796" lon="10.6221446"><ele>883.8</ele><time>2026-03-24T12:35:56.361Z</time></trkpt><trkpt lat="46.6319726" lon="10.621964"><ele>883.2</ele><time>2026-03-24T12:35:58.386Z</time></trkpt><trkpt lat="46.631967" lon="10.6217869"><ele>882.6</ele><time>2026-03-24T12:36:00.369Z</time></trkpt><trkpt lat="46.6319682" lon="10.6216119"><ele>882.0</ele><time>2026-03-24T12:36:02.377Z</time></trkpt><trkpt lat="46.631985" lon="10.6214331"><ele>885.5</ele><time>2026-03-24T12:36:04.377Z</time></trkpt><trkpt lat="46.6320115" lon="10.6212492"><ele>889.0</ele><time>2026-03-24T12:36:06.368Z</time></trkpt><trkpt lat="46.6320297" lon="10.6211575"><ele>892.5</ele><time>2026-03-24T12:36:07.37Z</time></trkpt><trkpt lat="46.6320488" lon="10.6210617"><ele>896.0</ele><time>2026-03-24T12:36:08.383Z</time></trkpt><trkpt lat="46.632069" lon="10.6209687"><ele>899.5</ele><time>2026-03-24T12:36:09.374Z</time></trkpt><trkpt lat="46.6320907" lon="10.6208744"><ele>903.0</ele><time>2026-03-24T12:36:10.377Z</time></trkpt><trkpt lat="46.632113" lon="10.6207818"><ele>903.0</ele><time>2026-03-24T12:36:11.366Z</time></trkpt><trkpt lat="46.6321372" lon="10.6206909"><ele>903.0</ele><time>2026-03-24T12:36:12.371Z</time></trkpt><trkpt lat="46.6321599" lon="10.6205988"><ele>903.0</ele><time>2026-03-24T12:36:13.359Z</time></trkpt><trkpt lat="46.6321845" lon="10.6205089"><ele>903.0</ele><time>2026-03-24T12:36:14.371Z</time></trkpt><trkpt lat="46.6322081" lon="10.6204204"><ele>903.0</ele><time>2026-03-24T12:36:15.366Z</time></trkpt><trkpt lat="46.6322312" lon="10.6203325"><ele>903.0</ele><time>2026-03-24T12:36:16.373Z</time></trkpt><trkpt lat="46.6322549" lon="10.6202435"><ele>903.0</ele><time>2026-03-24T12:36:17.378Z</time></trkpt><trkpt lat="46.6322786" lon="10.6201564"><ele>901.8571428571429</ele><time>2026-03-24T12:36:18.371Z</time></trkpt><trkpt lat="46.6323025" lon="10.6200663"><ele>900.7142857142858</ele><time>2026-03-24T12:36:19.384Z</time></trkpt><trkpt lat="46.6323272" lon="10.6199737"><ele>899.5714285714286</ele><time>2026-03-24T12:36:20.394Z</time></trkpt><trkpt lat="46.6323518" lon="10.6198785"><ele>898.4285714285714</ele><time>2026-03-24T12:36:21.373Z</time></trkpt><trkpt lat="46.6323775" lon="10.6197825"><ele>897.2857142857143</ele><time>2026-03-24T12:36:22.367Z</time></trkpt><trkpt lat="46.6324036" lon="10.6196859"><ele>896.1428571428571</ele><time>2026-03-24T12:36:23.36Z</time></trkpt><trkpt lat="46.6324275" lon="10.6195892"><ele>895.0</ele><time>2026-03-24T12:36:24.38Z</time></trkpt><trkpt lat="46.6324516" lon="10.619494"><ele>894.2857142857142</ele><time>2026-03-24T12:36:25.366Z</time></trkpt><trkpt lat="46.6324737" lon="10.6193991"><ele>893.5714285714287</ele><time>2026-03-24T12:36:26.369Z</time></trkpt><trkpt lat="46.6324917" lon="10.6193023"><ele>892.8571428571429</ele><time>2026-03-24T12:36:27.371Z</time></trkpt><trkpt lat="46.6325075" lon="10.6192061"><ele>892.1428571428571</ele><time>2026-03-24T12:36:28.362Z</time></trkpt><trkpt lat="46.6325174" lon="10.6191081"><ele>891.4285714285713</ele><time>2026-03-24T12:36:29.378Z</time></trkpt><trkpt lat="46.6325238" lon="10.6190092"><ele>890.7142857142858</ele><time>2026-03-24T12:36:30.371Z</time></trkpt><trkpt lat="46.6325292" lon="10.6189123"><ele>890.0</ele><time>2026-03-24T12:36:31.371Z</time></trkpt><trkpt lat="46.6325306" lon="10.6188121"><ele>890.0000000000001</ele><time>2026-03-24T12:36:32.364Z</time></trkpt><trkpt lat="46.6325318" lon="10.6187159"><ele>890.0</ele><time>2026-03-24T12:36:33.361Z</time></trkpt><trkpt lat="46.6325364" lon="10.6186243"><ele>890.0</ele><time>2026-03-24T12:36:34.365Z</time></trkpt><trkpt lat="46.632543" lon="10.6184444"><ele>890.0</ele><time>2026-03-24T12:36:36.376Z</time></trkpt><trkpt lat="46.6325484" lon="10.6183523"><ele>890.0000000000001</ele><time>2026-03-24T12:36:37.374Z</time></trkpt><trkpt lat="46.6325572" lon="10.6182592"><ele>890.0</ele><time>2026-03-24T12:36:38.379Z</time></trkpt><trkpt lat="46.6325856" lon="10.6180841"><ele>889.25</ele><time>2026-03-24T12:36:40.371Z</time></trkpt><trkpt lat="46.6326219" lon="10.6179104"><ele>888.5</ele><time>2026-03-24T12:36:42.365Z</time></trkpt><trkpt lat="46.6326689" lon="10.6177526"><ele>887.75</ele><time>2026-03-24T12:36:44.372Z</time></trkpt><trkpt lat="46.6327219" lon="10.6176075"><ele>887.0</ele><time>2026-03-24T12:36:46.373Z</time></trkpt><trkpt lat="46.632775" lon="10.617465"><ele>890.25</ele><time>2026-03-24T12:36:48.374Z</time></trkpt><trkpt lat="46.632832" lon="10.6173208"><ele>893.5</ele><time>2026-03-24T12:36:50.378Z</time></trkpt><trkpt lat="46.6328883" lon="10.6171736"><ele>896.75</ele><time>2026-03-24T12:36:52.364Z</time></trkpt><trkpt lat="46.6329438" lon="10.6170284"><ele>900.0</ele><time>2026-03-24T12:36:54.367Z</time></trkpt><trkpt lat="46.6329967" lon="10.6168782"><ele>900.0</ele><time>2026-03-24T12:36:56.386Z</time></trkpt><trkpt lat="46.6330407" lon="10.6167315"><ele>900.0</ele><time>2026-03-24T12:36:58.37Z</time></trkpt><trkpt lat="46.6330748" lon="10.6165753"><ele>900.0</ele><time>2026-03-24T12:37:00.362Z</time></trkpt><trkpt lat="46.6331026" lon="10.6164097"><ele>900.0</ele><time>2026-03-24T12:37:02.382Z</time></trkpt><trkpt lat="46.6331245" lon="10.6162343"><ele>898.75</ele><time>2026-03-24T12:37:04.366Z</time></trkpt><trkpt lat="46.6331445" lon="10.6160647"><ele>897.5</ele><time>2026-03-24T12:37:06.366Z</time></trkpt><trkpt lat="46.6331642" lon="10.6159014"><ele>896.25</ele><time>2026-03-24T12:37:08.368Z</time></trkpt><trkpt lat="46.63319" lon="10.6157281"><ele>895.0</ele><time>2026-03-24T12:37:10.363Z</time></trkpt><trkpt lat="46.6332197" lon="10.6155575"><ele>895.0</ele><time>2026-03-24T12:37:12.365Z</time></trkpt><trkpt lat="46.6332378" lon="10.6154675"><ele>895.0</ele><time>2026-03-24T12:37:13.382Z</time></trkpt><trkpt lat="46.6332634" lon="10.6153793"><ele>895.0</ele><time>2026-03-24T12:37:14.382Z</time></trkpt><trkpt lat="46.633293" lon="10.6152955"><ele>895.0</ele><time>2026-03-24T12:37:15.367Z</time></trkpt><trkpt lat="46.6333244" lon="10.6152089"><ele>895.0</ele><time>2026-03-24T12:37:16.366Z</time></trkpt><trkpt lat="46.6333584" lon="10.61512"><ele>895.0</ele><time>2026-03-24T12:37:17.376Z</time></trkpt><trkpt lat="46.6333913" lon="10.6150286"><ele>895.0</ele><time>2026-03-24T12:37:18.374Z</time></trkpt><trkpt lat="46.6334285" lon="10.6149365"><ele>895.0</ele><time>2026-03-24T12:37:19.366Z</time></trkpt><trkpt lat="46.6334716" lon="10.614851"><ele>895.0</ele><time>2026-03-24T12:37:20.379Z</time></trkpt><trkpt lat="46.633518" lon="10.6147689"><ele>895.0</ele><time>2026-03-24T12:37:21.36Z</time></trkpt><trkpt lat="46.6335641" lon="10.6146875"><ele>895.0</ele><time>2026-03-24T12:37:22.368Z</time></trkpt><trkpt lat="46.6336035" lon="10.6146031"><ele>895.0</ele><time>2026-03-24T12:37:23.365Z</time></trkpt><trkpt lat="46.6336288" lon="10.6145069"><ele>895.0</ele><time>2026-03-24T12:37:24.364Z</time></trkpt><trkpt lat="46.6336422" lon="10.6144052"><ele>895.0</ele><time>2026-03-24T12:37:25.361Z</time></trkpt><trkpt lat="46.6336497" lon="10.6143037"><ele>896.0</ele><time>2026-03-24T12:37:26.374Z</time></trkpt><trkpt lat="46.6336593" lon="10.6142001"><ele>897.0</ele><time>2026-03-24T12:37:27.353Z</time></trkpt><trkpt lat="46.6336745" lon="10.6140983"><ele>898.0</ele><time>2026-03-24T12:37:28.373Z</time></trkpt><trkpt lat="46.6336977" lon="10.6139987"><ele>899.0</ele><time>2026-03-24T12:37:29.368Z</time></trkpt><trkpt lat="46.6337198" lon="10.6139024"><ele>900.0</ele><time>2026-03-24T12:37:30.365Z</time></trkpt><trkpt lat="46.6337489" lon="10.6138058"><ele>901.0</ele><time>2026-03-24T12:37:31.359Z</time></trkpt><trkpt lat="46.6337792" lon="10.613701"><ele>902.0</ele><time>2026-03-24T12:37:32.364Z</time></trkpt><trkpt lat="46.6338082" lon="10.6135978"><ele>902.0000000000001</ele><time>2026-03-24T12:37:33.357Z</time></trkpt><trkpt lat="46.6338355" lon="10.6134895"><ele>902.0</ele><time>2026-03-24T12:37:34.367Z</time></trkpt><trkpt lat="46.6338619" lon="10.6133848"><ele>902.0</ele><time>2026-03-24T12:37:35.371Z</time></trkpt><trkpt lat="46.6338822" lon="10.6132813"><ele>902.0</ele><time>2026-03-24T12:37:36.363Z</time></trkpt><trkpt lat="46.6339019" lon="10.6131761"><ele>902.0000000000001</ele><time>2026-03-24T12:37:37.366Z</time></trkpt><trkpt lat="46.6339225" lon="10.6130745"><ele>902.0</ele><time>2026-03-24T12:37:38.373Z</time></trkpt><trkpt lat="46.6339511" lon="10.6129762"><ele>902.0</ele><time>2026-03-24T12:37:39.364Z</time></trkpt><trkpt lat="46.6339827" lon="10.6128785"><ele>902.0</ele><time>2026-03-24T12:37:40.36Z</time></trkpt><trkpt lat="46.6340158" lon="10.6127813"><ele>902.0</ele><time>2026-03-24T12:37:41.365Z</time></trkpt><trkpt lat="46.6340502" lon="10.6126847"><ele>902.0</ele><time>2026-03-24T12:37:42.365Z</time></trkpt><trkpt lat="46.6340831" lon="10.6125891"><ele>902.0</ele><time>2026-03-24T12:37:43.373Z</time></trkpt><trkpt lat="46.6341142" lon="10.6124922"><ele>902.0</ele><time>2026-03-24T12:37:44.376Z</time></trkpt><trkpt lat="46.6341464" lon="10.6123988"><ele>902.0</ele><time>2026-03-24T12:37:45.357Z</time></trkpt><trkpt lat="46.6341773" lon="10.6123046"><ele>900.3333333333334</ele><time>2026-03-24T12:37:46.364Z</time></trkpt><trkpt lat="46.6342084" lon="10.6122131"><ele>898.6666666666667</ele><time>2026-03-24T12:37:47.363Z</time></trkpt><trkpt lat="46.6342398" lon="10.6121231"><ele>897.0</ele><time>2026-03-24T12:37:48.375Z</time></trkpt><trkpt lat="46.6342701" lon="10.6120366"><ele>895.3333333333333</ele><time>2026-03-24T12:37:49.371Z</time></trkpt><trkpt lat="46.6342987" lon="10.6119519"><ele>893.6666666666666</ele><time>2026-03-24T12:37:50.369Z</time></trkpt><trkpt lat="46.6343278" lon="10.6118699"><ele>892.0</ele><time>2026-03-24T12:37:51.367Z</time></trkpt><trkpt lat="46.634382" lon="10.6117094"><ele>891.1666666666666</ele><time>2026-03-24T12:37:53.379Z</time></trkpt><trkpt lat="46.634431" lon="10.6115699"><ele>890.3333333333333</ele><time>2026-03-24T12:37:55.371Z</time></trkpt><trkpt lat="46.6344706" lon="10.6114546"><ele>889.5</ele><time>2026-03-24T12:37:57.367Z</time></trkpt><trkpt lat="46.6345017" lon="10.6113646"><ele>888.6666666666667</ele><time>2026-03-24T12:37:59.361Z</time></trkpt><trkpt lat="46.6345081" lon="10.6112452"><ele>887.8333333333334</ele><time>2026-03-24T12:38:02.361Z</time></trkpt><trkpt lat="46.6344648" lon="10.6111751"><ele>887.0</ele><time>2026-03-24T12:38:04.371Z</time></trkpt><trkpt lat="46.6344293" lon="10.6110659"><ele>886.5000000000001</ele><time>2026-03-24T12:38:06.365Z</time></trkpt><trkpt lat="46.6344403" lon="10.6109404"><ele>886.0</ele><time>2026-03-24T12:38:08.371Z</time></trkpt><trkpt lat="46.634477" lon="10.6108328"><ele>885.5</ele><time>2026-03-24T12:38:10.366Z</time></trkpt><trkpt lat="46.6345122" lon="10.6107356"><ele>885.0</ele><time>2026-03-24T12:38:12.37Z</time></trkpt><trkpt lat="46.6345529" lon="10.6106337"><ele>884.5000000000001</ele><time>2026-03-24T12:38:14.371Z</time></trkpt><trkpt lat="46.6346088" lon="10.6105307"><ele>884.0</ele><time>2026-03-24T12:38:16.361Z</time></trkpt><trkpt lat="46.634664" lon="10.6104147"><ele>885.6</ele><time>2026-03-24T12:38:18.366Z</time></trkpt><trkpt lat="46.6347213" lon="10.6102926"><ele>887.2</ele><time>2026-03-24T12:38:20.373Z</time></trkpt><trkpt lat="46.6347754" lon="10.6101615"><ele>888.8000000000001</ele><time>2026-03-24T12:38:22.38Z</time></trkpt><trkpt lat="46.6348282" lon="10.6100238"><ele>890.4000000000001</ele><time>2026-03-24T12:38:24.369Z</time></trkpt><trkpt lat="46.634892" lon="10.6098902"><ele>892.0</ele><time>2026-03-24T12:38:26.365Z</time></trkpt><trkpt lat="46.6349568" lon="10.6097529"><ele>892.0</ele><time>2026-03-24T12:38:28.368Z</time></trkpt><trkpt lat="46.6350211" lon="10.6096117"><ele>892.0</ele><time>2026-03-24T12:38:30.369Z</time></trkpt><trkpt lat="46.6350808" lon="10.6094665"><ele>892.0</ele><time>2026-03-24T12:38:32.368Z</time></trkpt><trkpt lat="46.6351311" lon="10.6093241"><ele>892.0</ele><time>2026-03-24T12:38:34.371Z</time></trkpt><trkpt lat="46.63517" lon="10.6091798"><ele>892.0</ele><time>2026-03-24T12:38:36.364Z</time></trkpt><trkpt lat="46.6352123" lon="10.6090372"><ele>890.5</ele><time>2026-03-24T12:38:38.377Z</time></trkpt><trkpt lat="46.6352676" lon="10.608891"><ele>889.0</ele><time>2026-03-24T12:38:40.359Z</time></trkpt><trkpt lat="46.6353257" lon="10.6087403"><ele>887.5</ele><time>2026-03-24T12:38:42.364Z</time></trkpt><trkpt lat="46.6353857" lon="10.6085846"><ele>886.0</ele><time>2026-03-24T12:38:44.368Z</time></trkpt><trkpt lat="46.6354448" lon="10.6084239"><ele>886.7142857142858</ele><time>2026-03-24T12:38:46.37Z</time></trkpt><trkpt lat="46.635503" lon="10.6082645"><ele>887.4285714285714</ele><time>2026-03-24T12:38:48.377Z</time></trkpt><trkpt lat="46.635534" lon="10.6081826"><ele>888.1428571428571</ele><time>2026-03-24T12:38:49.368Z</time></trkpt><trkpt lat="46.6355645" lon="10.608102"><ele>888.8571428571429</ele><time>2026-03-24T12:38:50.391Z</time></trkpt><trkpt lat="46.635594" lon="10.6080199"><ele>889.5714285714286</ele><time>2026-03-24T12:38:51.38Z</time></trkpt><trkpt lat="46.6356223" lon="10.6079365"><ele>890.2857142857143</ele><time>2026-03-24T12:38:52.368Z</time></trkpt><trkpt lat="46.6356483" lon="10.607851"><ele>891.0</ele><time>2026-03-24T12:38:53.384Z</time></trkpt><trkpt lat="46.6356728" lon="10.6077649"><ele>891.0</ele><time>2026-03-24T12:38:54.371Z</time></trkpt><trkpt lat="46.6356938" lon="10.607675"><ele>891.0</ele><time>2026-03-24T12:38:55.366Z</time></trkpt><trkpt lat="46.6357133" lon="10.6075829"><ele>891.0</ele><time>2026-03-24T12:38:56.373Z</time></trkpt><trkpt lat="46.6357342" lon="10.6074922"><ele>891.0</ele><time>2026-03-24T12:38:57.369Z</time></trkpt><trkpt lat="46.6357523" lon="10.6073964"><ele>891.0</ele><time>2026-03-24T12:38:58.365Z</time></trkpt><trkpt lat="46.635769" lon="10.6073074"><ele>891.0</ele><time>2026-03-24T12:38:59.383Z</time></trkpt><trkpt lat="46.6358134" lon="10.6071358"><ele>890.5</ele><time>2026-03-24T12:39:01.371Z</time></trkpt><trkpt lat="46.6358525" lon="10.606934"><ele>890.0</ele><time>2026-03-24T12:39:03.379Z</time></trkpt><trkpt lat="46.6358744" lon="10.6068232"><ele>889.5</ele><time>2026-03-24T12:39:04.359Z</time></trkpt><trkpt lat="46.6359006" lon="10.6067139"><ele>889.0</ele><time>2026-03-24T12:39:05.36Z</time></trkpt><trkpt lat="46.635923" lon="10.6066168"><ele>888.5</ele><time>2026-03-24T12:39:06.379Z</time></trkpt><trkpt lat="46.6359458" lon="10.6065214"><ele>888.0</ele><time>2026-03-24T12:39:07.363Z</time></trkpt><trkpt lat="46.6359688" lon="10.6064236"><ele>888.0</ele><time>2026-03-24T12:39:08.363Z</time></trkpt><trkpt lat="46.6359863" lon="10.6063256"><ele>888.0</ele><time>2026-03-24T12:39:09.378Z</time></trkpt><trkpt lat="46.6360038" lon="10.6062275"><ele>888.0</ele><time>2026-03-24T12:39:10.362Z</time></trkpt><trkpt lat="46.6360208" lon="10.6061288"><ele>888.0</ele><time>2026-03-24T12:39:11.371Z</time></trkpt><trkpt lat="46.636038" lon="10.6060266"><ele>888.0</ele><time>2026-03-24T12:39:12.372Z</time></trkpt><trkpt lat="46.6360552" lon="10.6059247"><ele>888.0</ele><time>2026-03-24T12:39:13.372Z</time></trkpt><trkpt lat="46.6360728" lon="10.6058197"><ele>888.0</ele><time>2026-03-24T12:39:14.374Z</time></trkpt><trkpt lat="46.6360923" lon="10.6057175"><ele>887.6666666666666</ele><time>2026-03-24T12:39:15.365Z</time></trkpt><trkpt lat="46.6361153" lon="10.6056157"><ele>887.3333333333333</ele><time>2026-03-24T12:39:16.37Z</time></trkpt><trkpt lat="46.6361416" lon="10.6055138"><ele>887.0</ele><time>2026-03-24T12:39:17.373Z</time></trkpt><trkpt lat="46.6361702" lon="10.6054139"><ele>886.6666666666666</ele><time>2026-03-24T12:39:18.376Z</time></trkpt><trkpt lat="46.6362005" lon="10.6053133"><ele>886.3333333333333</ele><time>2026-03-24T12:39:19.373Z</time></trkpt><trkpt lat="46.6362327" lon="10.6052134"><ele>886.0</ele><time>2026-03-24T12:39:20.369Z</time></trkpt><trkpt lat="46.6362654" lon="10.605113"><ele>886.2857142857143</ele><time>2026-03-24T12:39:21.378Z</time></trkpt><trkpt lat="46.6362957" lon="10.6050112"><ele>886.5714285714287</ele><time>2026-03-24T12:39:22.373Z</time></trkpt><trkpt lat="46.6363267" lon="10.6049111"><ele>886.8571428571429</ele><time>2026-03-24T12:39:23.375Z</time></trkpt><trkpt lat="46.6363585" lon="10.6048157"><ele>887.1428571428571</ele><time>2026-03-24T12:39:24.369Z</time></trkpt><trkpt lat="46.6363893" lon="10.6047214"><ele>887.4285714285714</ele><time>2026-03-24T12:39:25.368Z</time></trkpt><trkpt lat="46.6364185" lon="10.6046282"><ele>887.7142857142857</ele><time>2026-03-24T12:39:26.368Z</time></trkpt><trkpt lat="46.6364472" lon="10.604538"><ele>888.0</ele><time>2026-03-24T12:39:27.375Z</time></trkpt><trkpt lat="46.6364756" lon="10.6044536"><ele>888.0</ele><time>2026-03-24T12:39:28.372Z</time></trkpt><trkpt lat="46.6365053" lon="10.6043121"><ele>888.0</ele><time>2026-03-24T12:39:30.384Z</time></trkpt><trkpt lat="46.6364878" lon="10.6042075"><ele>888.0</ele><time>2026-03-24T12:39:32.354Z</time></trkpt><trkpt lat="46.6364966" lon="10.6040901"><ele>888.0</ele><time>2026-03-24T12:39:34.367Z</time></trkpt><trkpt lat="46.6365474" lon="10.6039584"><ele>888.0</ele><time>2026-03-24T12:39:36.374Z</time></trkpt><trkpt lat="46.6366108" lon="10.6038209"><ele>888.0</ele><time>2026-03-24T12:39:38.367Z</time></trkpt><trkpt lat="46.6366743" lon="10.6036763"><ele>888.0</ele><time>2026-03-24T12:39:40.36Z</time></trkpt><trkpt lat="46.6367408" lon="10.6035244"><ele>888.0</ele><time>2026-03-24T12:39:42.373Z</time></trkpt><trkpt lat="46.6367757" lon="10.6034472"><ele>888.0</ele><time>2026-03-24T12:39:43.374Z</time></trkpt><trkpt lat="46.6368124" lon="10.6033714"><ele>888.0</ele><time>2026-03-24T12:39:44.382Z</time></trkpt><trkpt lat="46.6368815" lon="10.6032371"><ele>887.6666666666666</ele><time>2026-03-24T12:39:46.373Z</time></trkpt><trkpt lat="46.6369329" lon="10.6031314"><ele>887.3333333333333</ele><time>2026-03-24T12:39:48.377Z</time></trkpt><trkpt lat="46.6369916" lon="10.6030446"><ele>887.0</ele><time>2026-03-24T12:39:51.367Z</time></trkpt><trkpt lat="46.6369535" lon="10.6031318"><ele>886.6666666666666</ele><time>2026-03-24T12:40:02.368Z</time></trkpt><trkpt lat="46.6369067" lon="10.603235"><ele>886.3333333333333</ele><time>2026-03-24T12:40:05.375Z</time></trkpt><trkpt lat="46.6368736" lon="10.6033138"><ele>886.0</ele><time>2026-03-24T12:40:07.366Z</time></trkpt><trkpt lat="46.6368393" lon="10.6033995"><ele>885.9999999999999</ele><time>2026-03-24T12:40:09.37Z</time></trkpt><trkpt lat="46.6367898" lon="10.6035019"><ele>886.0</ele><time>2026-03-24T12:40:12.365Z</time></trkpt><trkpt lat="46.6367518" lon="10.6035769"><ele>886.0</ele><time>2026-03-24T12:40:16.368Z</time></trkpt><trkpt lat="46.6368012" lon="10.6034743"><ele>886.0</ele><time>2026-03-24T12:40:36.37Z</time></trkpt><trkpt lat="46.6368375" lon="10.6033966"><ele>885.9999999999999</ele><time>2026-03-24T12:40:38.385Z</time></trkpt><trkpt lat="46.6368838" lon="10.6033016"><ele>886.0</ele><time>2026-03-24T12:40:40.359Z</time></trkpt><trkpt lat="46.6369265" lon="10.6032003"><ele>886.0</ele><time>2026-03-24T12:40:42.375Z</time></trkpt><trkpt lat="46.6369785" lon="10.6031036"><ele>885.9999999999999</ele><time>2026-03-24T12:40:44.373Z</time></trkpt><trkpt lat="46.6370358" lon="10.6030026"><ele>885.9999999999999</ele><time>2026-03-24T12:40:46.369Z</time></trkpt><trkpt lat="46.6370989" lon="10.6029018"><ele>886.0</ele><time>2026-03-24T12:40:48.374Z</time></trkpt><trkpt lat="46.6371665" lon="10.602783"><ele>886.0</ele><time>2026-03-24T12:40:50.379Z</time></trkpt><trkpt lat="46.6372391" lon="10.6026677"><ele>886.0</ele><time>2026-03-24T12:40:52.375Z</time></trkpt><trkpt lat="46.6373117" lon="10.6025406"><ele>886.0</ele><time>2026-03-24T12:40:54.378Z</time></trkpt><trkpt lat="46.6373924" lon="10.602419"><ele>886.0</ele><time>2026-03-24T12:40:56.383Z</time></trkpt><trkpt lat="46.6374732" lon="10.6022947"><ele>886.0</ele><time>2026-03-24T12:40:58.377Z</time></trkpt><trkpt lat="46.6375618" lon="10.6021776"><ele>886.0</ele><time>2026-03-24T12:41:00.367Z</time></trkpt><trkpt lat="46.6376509" lon="10.6020639"><ele>886.0</ele><time>2026-03-24T12:41:02.376Z</time></trkpt><trkpt lat="46.6377411" lon="10.6019464"><ele>886.0</ele><time>2026-03-24T12:41:04.384Z</time></trkpt><trkpt lat="46.6378282" lon="10.6018287"><ele>886.0</ele><time>2026-03-24T12:41:06.374Z</time></trkpt><trkpt lat="46.6379103" lon="10.6017186"><ele>887.1999999999999</ele><time>2026-03-24T12:41:08.372Z</time></trkpt><trkpt lat="46.6379887" lon="10.6016194"><ele>888.3999999999999</ele><time>2026-03-24T12:41:10.37Z</time></trkpt><trkpt lat="46.6380664" lon="10.6015213"><ele>889.6</ele><time>2026-03-24T12:41:12.362Z</time></trkpt><trkpt lat="46.6381444" lon="10.6014181"><ele>890.8</ele><time>2026-03-24T12:41:14.372Z</time></trkpt><trkpt lat="46.6382234" lon="10.6013149"><ele>892.0</ele><time>2026-03-24T12:41:16.363Z</time></trkpt><trkpt lat="46.6383053" lon="10.601209"><ele>893.0</ele><time>2026-03-24T12:41:18.37Z</time></trkpt><trkpt lat="46.6383866" lon="10.6011029"><ele>894.0</ele><time>2026-03-24T12:41:20.359Z</time></trkpt><trkpt lat="46.6384697" lon="10.6009994"><ele>895.0</ele><time>2026-03-24T12:41:22.372Z</time></trkpt><trkpt lat="46.6385517" lon="10.6008922"><ele>896.0</ele><time>2026-03-24T12:41:24.37Z</time></trkpt><trkpt lat="46.6386335" lon="10.6007818"><ele>897.0</ele><time>2026-03-24T12:41:26.363Z</time></trkpt><trkpt lat="46.6387168" lon="10.6006707"><ele>897.0</ele><time>2026-03-24T12:41:28.38Z</time></trkpt><trkpt lat="46.6388015" lon="10.6005605"><ele>897.0</ele><time>2026-03-24T12:41:30.373Z</time></trkpt><trkpt lat="46.6388877" lon="10.6004488"><ele>897.0</ele><time>2026-03-24T12:41:32.37Z</time></trkpt><trkpt lat="46.6389757" lon="10.6003362"><ele>897.0</ele><time>2026-03-24T12:41:34.384Z</time></trkpt><trkpt lat="46.6390636" lon="10.6002179"><ele>894.75</ele><time>2026-03-24T12:41:36.369Z</time></trkpt><trkpt lat="46.6391536" lon="10.6001024"><ele>892.5</ele><time>2026-03-24T12:41:38.366Z</time></trkpt><trkpt lat="46.6392424" lon="10.5999834"><ele>890.25</ele><time>2026-03-24T12:41:40.371Z</time></trkpt><trkpt lat="46.6393304" lon="10.599868"><ele>888.0</ele><time>2026-03-24T12:41:42.377Z</time></trkpt><trkpt lat="46.639418" lon="10.5997529"><ele>888.1666666666666</ele><time>2026-03-24T12:41:44.366Z</time></trkpt><trkpt lat="46.6395069" lon="10.5996377"><ele>888.3333333333333</ele><time>2026-03-24T12:41:46.366Z</time></trkpt><trkpt lat="46.6395977" lon="10.5995144"><ele>888.5</ele><time>2026-03-24T12:41:48.369Z</time></trkpt><trkpt lat="46.6396483" lon="10.5994479"><ele>888.6666666666666</ele><time>2026-03-24T12:41:49.371Z</time></trkpt><trkpt lat="46.6396998" lon="10.5993819"><ele>888.8333333333333</ele><time>2026-03-24T12:41:50.377Z</time></trkpt><trkpt lat="46.6397499" lon="10.5993151"><ele>889.0</ele><time>2026-03-24T12:41:51.373Z</time></trkpt><trkpt lat="46.6398001" lon="10.5992491"><ele>888.9999999999999</ele><time>2026-03-24T12:41:52.377Z</time></trkpt><trkpt lat="46.6398509" lon="10.5991849"><ele>889.0</ele><time>2026-03-24T12:41:53.368Z</time></trkpt><trkpt lat="46.639902" lon="10.5991227"><ele>889.0</ele><time>2026-03-24T12:41:54.361Z</time></trkpt><trkpt lat="46.639954" lon="10.599064"><ele>889.0</ele><time>2026-03-24T12:41:55.37Z</time></trkpt><trkpt lat="46.6400044" lon="10.599006"><ele>888.9999999999999</ele><time>2026-03-24T12:41:56.364Z</time></trkpt><trkpt lat="46.6400996" lon="10.5988978"><ele>889.0</ele><time>2026-03-24T12:41:58.358Z</time></trkpt><trkpt lat="46.6401919" lon="10.5988"><ele>889.0</ele><time>2026-03-24T12:42:00.374Z</time></trkpt><trkpt lat="46.6402829" lon="10.5987011"><ele>889.0000000000001</ele><time>2026-03-24T12:42:02.374Z</time></trkpt><trkpt lat="46.6403782" lon="10.598598"><ele>889.0000000000001</ele><time>2026-03-24T12:42:04.369Z</time></trkpt><trkpt lat="46.6404814" lon="10.5984928"><ele>889.0</ele><time>2026-03-24T12:42:06.363Z</time></trkpt><trkpt lat="46.6405363" lon="10.5984404"><ele>889.0</ele><time>2026-03-24T12:42:07.374Z</time></trkpt><trkpt lat="46.6405926" lon="10.5983893"><ele>889.0</ele><time>2026-03-24T12:42:08.374Z</time></trkpt><trkpt lat="46.6406495" lon="10.5983384"><ele>889.0</ele><time>2026-03-24T12:42:09.379Z</time></trkpt><trkpt lat="46.6407058" lon="10.5982862"><ele>889.0</ele><time>2026-03-24T12:42:10.368Z</time></trkpt><trkpt lat="46.6407624" lon="10.5982343"><ele>889.0</ele><time>2026-03-24T12:42:11.364Z</time></trkpt><trkpt lat="46.6408198" lon="10.5981835"><ele>889.0</ele><time>2026-03-24T12:42:12.365Z</time></trkpt><trkpt lat="46.6408777" lon="10.5981332"><ele>889.0</ele><time>2026-03-24T12:42:13.364Z</time></trkpt><trkpt lat="46.6409354" lon="10.5980839"><ele>889.0</ele><time>2026-03-24T12:42:14.373Z</time></trkpt><trkpt lat="46.6409931" lon="10.5980374"><ele>888.9999999999999</ele><time>2026-03-24T12:42:15.378Z</time></trkpt><trkpt lat="46.6410507" lon="10.5979935"><ele>889.0</ele><time>2026-03-24T12:42:16.374Z</time></trkpt><trkpt lat="46.6411073" lon="10.5979509"><ele>889.0</ele><time>2026-03-24T12:42:17.374Z</time></trkpt><trkpt lat="46.6411637" lon="10.5979101"><ele>889.0</ele><time>2026-03-24T12:42:18.362Z</time></trkpt><trkpt lat="46.6412738" lon="10.5978304"><ele>888.9999999999999</ele><time>2026-03-24T12:42:20.365Z</time></trkpt><trkpt lat="46.6413831" lon="10.5977452"><ele>889.0</ele><time>2026-03-24T12:42:22.369Z</time></trkpt><trkpt lat="46.6414916" lon="10.5976633"><ele>888.75</ele><time>2026-03-24T12:42:24.369Z</time></trkpt><trkpt lat="46.6415973" lon="10.5975806"><ele>888.5</ele><time>2026-03-24T12:42:26.374Z</time></trkpt><trkpt lat="46.6417003" lon="10.5974978"><ele>888.25</ele><time>2026-03-24T12:42:28.37Z</time></trkpt><trkpt lat="46.6418047" lon="10.597412"><ele>888.0</ele><time>2026-03-24T12:42:30.357Z</time></trkpt><trkpt lat="46.6419092" lon="10.5973247"><ele>888.8</ele><time>2026-03-24T12:42:32.382Z</time></trkpt><trkpt lat="46.6420158" lon="10.59724"><ele>889.5999999999999</ele><time>2026-03-24T12:42:34.369Z</time></trkpt><trkpt lat="46.6421237" lon="10.5971469"><ele>890.4000000000001</ele><time>2026-03-24T12:42:36.378Z</time></trkpt><trkpt lat="46.6422331" lon="10.5970521"><ele>891.2</ele><time>2026-03-24T12:42:38.369Z</time></trkpt><trkpt lat="46.642293" lon="10.5970013"><ele>892.0</ele><time>2026-03-24T12:42:39.376Z</time></trkpt><trkpt lat="46.6423526" lon="10.5969471"><ele>892.0</ele><time>2026-03-24T12:42:40.374Z</time></trkpt><trkpt lat="46.6424133" lon="10.5968923"><ele>892.0</ele><time>2026-03-24T12:42:41.38Z</time></trkpt><trkpt lat="46.6424726" lon="10.5968406"><ele>892.0</ele><time>2026-03-24T12:42:42.375Z</time></trkpt><trkpt lat="46.6425307" lon="10.5967921"><ele>892.0</ele><time>2026-03-24T12:42:43.38Z</time></trkpt><trkpt lat="46.6425876" lon="10.5967444"><ele>892.0</ele><time>2026-03-24T12:42:44.371Z</time></trkpt><trkpt lat="46.6426434" lon="10.5966921"><ele>892.0</ele><time>2026-03-24T12:42:45.37Z</time></trkpt><trkpt lat="46.642698" lon="10.5966414"><ele>892.0</ele><time>2026-03-24T12:42:46.377Z</time></trkpt><trkpt lat="46.6427525" lon="10.5965876"><ele>892.1428571428571</ele><time>2026-03-24T12:42:47.376Z</time></trkpt><trkpt lat="46.6428059" lon="10.5965318"><ele>892.2857142857142</ele><time>2026-03-24T12:42:48.361Z</time></trkpt><trkpt lat="46.6428603" lon="10.5964731"><ele>892.4285714285714</ele><time>2026-03-24T12:42:49.372Z</time></trkpt><trkpt lat="46.6429131" lon="10.5964157"><ele>892.5714285714286</ele><time>2026-03-24T12:42:50.369Z</time></trkpt><trkpt lat="46.6429643" lon="10.5963554"><ele>892.7142857142858</ele><time>2026-03-24T12:42:51.376Z</time></trkpt><trkpt lat="46.6430148" lon="10.596295"><ele>892.8571428571429</ele><time>2026-03-24T12:42:52.374Z</time></trkpt><trkpt lat="46.6430632" lon="10.5962318"><ele>893.0</ele><time>2026-03-24T12:42:53.375Z</time></trkpt><trkpt lat="46.6431545" lon="10.5961145"><ele>893.0</ele><time>2026-03-24T12:42:55.371Z</time></trkpt><trkpt lat="46.6432047" lon="10.5960538"><ele>893.0</ele><time>2026-03-24T12:42:56.364Z</time></trkpt><trkpt lat="46.6432547" lon="10.595991"><ele>893.0</ele><time>2026-03-24T12:42:57.373Z</time></trkpt><trkpt lat="46.6433062" lon="10.5959257"><ele>893.0</ele><time>2026-03-24T12:42:58.366Z</time></trkpt><trkpt lat="46.6433572" lon="10.5958622"><ele>893.0</ele><time>2026-03-24T12:42:59.382Z</time></trkpt><trkpt lat="46.6434072" lon="10.5958034"><ele>893.0</ele><time>2026-03-24T12:43:00.369Z</time></trkpt><trkpt lat="46.6434601" lon="10.595743"><ele>893.0</ele><time>2026-03-24T12:43:01.363Z</time></trkpt><trkpt lat="46.6435095" lon="10.5956837"><ele>893.0</ele><time>2026-03-24T12:43:02.374Z</time></trkpt><trkpt lat="46.6435588" lon="10.5956249"><ele>893.0</ele><time>2026-03-24T12:43:03.378Z</time></trkpt><trkpt lat="46.6436509" lon="10.5955009"><ele>893.0</ele><time>2026-03-24T12:43:05.373Z</time></trkpt><trkpt lat="46.6436969" lon="10.5954371"><ele>893.0</ele><time>2026-03-24T12:43:06.379Z</time></trkpt><trkpt lat="46.6437449" lon="10.5953745"><ele>893.0</ele><time>2026-03-24T12:43:07.374Z</time></trkpt><trkpt lat="46.6437936" lon="10.5953128"><ele>893.0</ele><time>2026-03-24T12:43:08.368Z</time></trkpt><trkpt lat="46.6438417" lon="10.5952521"><ele>893.0</ele><time>2026-03-24T12:43:09.368Z</time></trkpt><trkpt lat="46.6439355" lon="10.5951315"><ele>894.0</ele><time>2026-03-24T12:43:11.38Z</time></trkpt><trkpt lat="46.6440276" lon="10.5950112"><ele>895.0</ele><time>2026-03-24T12:43:13.385Z</time></trkpt><trkpt lat="46.6441181" lon="10.5948936"><ele>896.0</ele><time>2026-03-24T12:43:15.362Z</time></trkpt><trkpt lat="46.6442068" lon="10.594784"><ele>897.0</ele><time>2026-03-24T12:43:17.385Z</time></trkpt><trkpt lat="46.6442861" lon="10.5946795"><ele>897.0</ele><time>2026-03-24T12:43:19.37Z</time></trkpt><trkpt lat="46.6443657" lon="10.5945875"><ele>897.0</ele><time>2026-03-24T12:43:21.37Z</time></trkpt><trkpt lat="46.6444437" lon="10.5944873"><ele>897.0</ele><time>2026-03-24T12:43:23.384Z</time></trkpt><trkpt lat="46.6445324" lon="10.5943759"><ele>897.0</ele><time>2026-03-24T12:43:25.367Z</time></trkpt><trkpt lat="46.6446273" lon="10.5942536"><ele>897.0</ele><time>2026-03-24T12:43:27.385Z</time></trkpt><trkpt lat="46.6446765" lon="10.5941911"><ele>897.2857142857143</ele><time>2026-03-24T12:43:28.371Z</time></trkpt><trkpt lat="46.6447262" lon="10.5941265"><ele>897.5714285714284</ele><time>2026-03-24T12:43:29.372Z</time></trkpt><trkpt lat="46.6447756" lon="10.5940625"><ele>897.8571428571428</ele><time>2026-03-24T12:43:30.362Z</time></trkpt><trkpt lat="46.6448252" lon="10.5939995"><ele>898.1428571428571</ele><time>2026-03-24T12:43:31.386Z</time></trkpt><trkpt lat="46.6448742" lon="10.593938"><ele>898.4285714285713</ele><time>2026-03-24T12:43:32.371Z</time></trkpt><trkpt lat="46.6449228" lon="10.5938793"><ele>898.7142857142856</ele><time>2026-03-24T12:43:33.371Z</time></trkpt><trkpt lat="46.6450156" lon="10.5937677"><ele>898.9999999999999</ele><time>2026-03-24T12:43:35.379Z</time></trkpt><trkpt lat="46.645112" lon="10.5936591"><ele>898.0</ele><time>2026-03-24T12:43:37.374Z</time></trkpt><trkpt lat="46.6452091" lon="10.5935496"><ele>897.0</ele><time>2026-03-24T12:43:39.365Z</time></trkpt><trkpt lat="46.6453085" lon="10.5934474"><ele>896.0</ele><time>2026-03-24T12:43:41.38Z</time></trkpt><trkpt lat="46.6454093" lon="10.5933534"><ele>895.0</ele><time>2026-03-24T12:43:43.364Z</time></trkpt><trkpt lat="46.6455082" lon="10.5932518"><ele>895.0</ele><time>2026-03-24T12:43:45.372Z</time></trkpt><trkpt lat="46.6456031" lon="10.593165"><ele>895.0</ele><time>2026-03-24T12:43:47.374Z</time></trkpt><trkpt lat="46.6456955" lon="10.5930901"><ele>895.0</ele><time>2026-03-24T12:43:49.378Z</time></trkpt><trkpt lat="46.6457901" lon="10.5930184"><ele>895.0</ele><time>2026-03-24T12:43:51.37Z</time></trkpt><trkpt lat="46.6458835" lon="10.592945"><ele>895.0</ele><time>2026-03-24T12:43:53.378Z</time></trkpt><trkpt lat="46.6459854" lon="10.5928689"><ele>894.0</ele><time>2026-03-24T12:43:55.374Z</time></trkpt><trkpt lat="46.6460421" lon="10.5928288"><ele>893.0</ele><time>2026-03-24T12:43:56.382Z</time></trkpt><trkpt lat="46.6461566" lon="10.5927542"><ele>892.0</ele><time>2026-03-24T12:43:58.376Z</time></trkpt><trkpt lat="46.6462716" lon="10.5926861"><ele>891.0</ele><time>2026-03-24T12:44:00.367Z</time></trkpt><trkpt lat="46.6463852" lon="10.5926231"><ele>890.0</ele><time>2026-03-24T12:44:02.373Z</time></trkpt><trkpt lat="46.6464968" lon="10.5925633"><ele>890.0</ele><time>2026-03-24T12:44:04.377Z</time></trkpt><trkpt lat="46.6466033" lon="10.5925154"><ele>890.0</ele><time>2026-03-24T12:44:06.371Z</time></trkpt><trkpt lat="46.6467182" lon="10.5924652"><ele>890.0</ele><time>2026-03-24T12:44:08.375Z</time></trkpt><trkpt lat="46.6468401" lon="10.5924249"><ele>890.0</ele><time>2026-03-24T12:44:10.364Z</time></trkpt><trkpt lat="46.6469589" lon="10.5923824"><ele>890.6</ele><time>2026-03-24T12:44:12.381Z</time></trkpt><trkpt lat="46.6470645" lon="10.5923445"><ele>891.2</ele><time>2026-03-24T12:44:14.374Z</time></trkpt><trkpt lat="46.6471872" lon="10.5922959"><ele>891.8</ele><time>2026-03-24T12:44:16.382Z</time></trkpt><trkpt lat="46.6472496" lon="10.5922772"><ele>892.4</ele><time>2026-03-24T12:44:17.362Z</time></trkpt><trkpt lat="46.6473112" lon="10.5922566"><ele>893.0</ele><time>2026-03-24T12:44:18.373Z</time></trkpt><trkpt lat="46.6474298" lon="10.5922159"><ele>893.0000000000001</ele><time>2026-03-24T12:44:20.372Z</time></trkpt><trkpt lat="46.6474926" lon="10.5921979"><ele>893.0</ele><time>2026-03-24T12:44:21.376Z</time></trkpt><trkpt lat="46.6475553" lon="10.5921787"><ele>893.0</ele><time>2026-03-24T12:44:22.369Z</time></trkpt><trkpt lat="46.6476183" lon="10.5921554"><ele>893.0</ele><time>2026-03-24T12:44:23.377Z</time></trkpt><trkpt lat="46.6476824" lon="10.5921303"><ele>893.0000000000001</ele><time>2026-03-24T12:44:24.374Z</time></trkpt><trkpt lat="46.6478084" lon="10.5920802"><ele>893.0</ele><time>2026-03-24T12:44:26.373Z</time></trkpt><trkpt lat="46.6478744" lon="10.5920543"><ele>892.6666666666667</ele><time>2026-03-24T12:44:27.379Z</time></trkpt><trkpt lat="46.6479412" lon="10.5920311"><ele>892.3333333333334</ele><time>2026-03-24T12:44:28.374Z</time></trkpt><trkpt lat="46.6480084" lon="10.5920031"><ele>892.0</ele><time>2026-03-24T12:44:29.366Z</time></trkpt><trkpt lat="46.6480742" lon="10.5919774"><ele>891.6666666666667</ele><time>2026-03-24T12:44:30.363Z</time></trkpt><trkpt lat="46.648138" lon="10.5919508"><ele>891.3333333333334</ele><time>2026-03-24T12:44:31.373Z</time></trkpt><trkpt lat="46.6482583" lon="10.5919028"><ele>891.0</ele><time>2026-03-24T12:44:33.366Z</time></trkpt><trkpt lat="46.6483199" lon="10.5918795"><ele>891.0</ele><time>2026-03-24T12:44:34.368Z</time></trkpt><trkpt lat="46.6483813" lon="10.5918581"><ele>890.9999999999999</ele><time>2026-03-24T12:44:35.362Z</time></trkpt><trkpt lat="46.6484998" lon="10.5918169"><ele>890.9999999999999</ele><time>2026-03-24T12:44:37.368Z</time></trkpt><trkpt lat="46.6486185" lon="10.5917732"><ele>891.0</ele><time>2026-03-24T12:44:39.382Z</time></trkpt><trkpt lat="46.6487327" lon="10.5917287"><ele>891.0</ele><time>2026-03-24T12:44:41.371Z</time></trkpt><trkpt lat="46.6488366" lon="10.5916923"><ele>892.0</ele><time>2026-03-24T12:44:43.369Z</time></trkpt><trkpt lat="46.6489513" lon="10.5916449"><ele>892.9999999999999</ele><time>2026-03-24T12:44:45.378Z</time></trkpt><trkpt lat="46.6490117" lon="10.5916181"><ele>893.9999999999999</ele><time>2026-03-24T12:44:46.378Z</time></trkpt><trkpt lat="46.6491318" lon="10.5915676"><ele>895.0</ele><time>2026-03-24T12:44:48.367Z</time></trkpt><trkpt lat="46.6491927" lon="10.5915378"><ele>896.0</ele><time>2026-03-24T12:44:49.37Z</time></trkpt><trkpt lat="46.6493121" lon="10.5914736"><ele>896.0000000000001</ele><time>2026-03-24T12:44:51.381Z</time></trkpt><trkpt lat="46.6493712" lon="10.5914386"><ele>896.0</ele><time>2026-03-24T12:44:52.376Z</time></trkpt><trkpt lat="46.6494302" lon="10.5914046"><ele>896.0</ele><time>2026-03-24T12:44:53.358Z</time></trkpt><trkpt lat="46.6494891" lon="10.5913693"><ele>896.0</ele><time>2026-03-24T12:44:54.374Z</time></trkpt><trkpt lat="46.6496064" lon="10.5913062"><ele>896.0000000000001</ele><time>2026-03-24T12:44:56.364Z</time></trkpt><trkpt lat="46.6497199" lon="10.5912315"><ele>896.0</ele><time>2026-03-24T12:44:58.371Z</time></trkpt><trkpt lat="46.6498328" lon="10.591163"><ele>895.75</ele><time>2026-03-24T12:45:00.378Z</time></trkpt><trkpt lat="46.6499437" lon="10.591089"><ele>895.5</ele><time>2026-03-24T12:45:02.377Z</time></trkpt><trkpt lat="46.650055" lon="10.5910154"><ele>895.25</ele><time>2026-03-24T12:45:04.375Z</time></trkpt><trkpt lat="46.6501662" lon="10.5909465"><ele>895.0</ele><time>2026-03-24T12:45:06.375Z</time></trkpt><trkpt lat="46.6502778" lon="10.590879"><ele>896.25</ele><time>2026-03-24T12:45:08.364Z</time></trkpt><trkpt lat="46.6503897" lon="10.5908074"><ele>897.5</ele><time>2026-03-24T12:45:10.377Z</time></trkpt><trkpt lat="46.6505013" lon="10.5907345"><ele>898.75</ele><time>2026-03-24T12:45:12.366Z</time></trkpt><trkpt lat="46.650614" lon="10.5906631"><ele>900.0</ele><time>2026-03-24T12:45:14.362Z</time></trkpt><trkpt lat="46.6507258" lon="10.5905921"><ele>900.0</ele><time>2026-03-24T12:45:16.371Z</time></trkpt><trkpt lat="46.6508387" lon="10.5905219"><ele>900.0</ele><time>2026-03-24T12:45:18.367Z</time></trkpt><trkpt lat="46.6509523" lon="10.5904486"><ele>900.0</ele><time>2026-03-24T12:45:20.376Z</time></trkpt><trkpt lat="46.6510667" lon="10.5903735"><ele>900.0</ele><time>2026-03-24T12:45:22.376Z</time></trkpt><trkpt lat="46.6511819" lon="10.5902987"><ele>899.25</ele><time>2026-03-24T12:45:24.369Z</time></trkpt><trkpt lat="46.6512964" lon="10.5902253"><ele>898.5</ele><time>2026-03-24T12:45:26.371Z</time></trkpt><trkpt lat="46.6514113" lon="10.5901527"><ele>897.75</ele><time>2026-03-24T12:45:28.38Z</time></trkpt><trkpt lat="46.6515271" lon="10.5900849"><ele>897.0</ele><time>2026-03-24T12:45:30.368Z</time></trkpt><trkpt lat="46.6516439" lon="10.5900196"><ele>897.0</ele><time>2026-03-24T12:45:32.369Z</time></trkpt><trkpt lat="46.6517601" lon="10.5899566"><ele>897.0</ele><time>2026-03-24T12:45:34.368Z</time></trkpt><trkpt lat="46.6518756" lon="10.5898938"><ele>897.0</ele><time>2026-03-24T12:45:36.36Z</time></trkpt><trkpt lat="46.6519893" lon="10.5898303"><ele>897.0</ele><time>2026-03-24T12:45:38.372Z</time></trkpt><trkpt lat="46.6521055" lon="10.5897648"><ele>897.25</ele><time>2026-03-24T12:45:40.372Z</time></trkpt><trkpt lat="46.6522229" lon="10.5897006"><ele>897.5</ele><time>2026-03-24T12:45:42.372Z</time></trkpt><trkpt lat="46.6523398" lon="10.5896408"><ele>897.75</ele><time>2026-03-24T12:45:44.373Z</time></trkpt><trkpt lat="46.6524578" lon="10.5895767"><ele>898.0</ele><time>2026-03-24T12:45:46.361Z</time></trkpt><trkpt lat="46.6525746" lon="10.5895147"><ele>898.25</ele><time>2026-03-24T12:45:48.368Z</time></trkpt><trkpt lat="46.6526906" lon="10.5894515"><ele>898.5</ele><time>2026-03-24T12:45:50.374Z</time></trkpt><trkpt lat="46.6528065" lon="10.5893892"><ele>898.75</ele><time>2026-03-24T12:45:52.37Z</time></trkpt><trkpt lat="46.6529213" lon="10.5893291"><ele>899.0</ele><time>2026-03-24T12:45:54.371Z</time></trkpt><trkpt lat="46.6530338" lon="10.5892657"><ele>899.5</ele><time>2026-03-24T12:45:56.387Z</time></trkpt><trkpt lat="46.653147" lon="10.5892045"><ele>900.0</ele><time>2026-03-24T12:45:58.368Z</time></trkpt><trkpt lat="46.6532602" lon="10.5891402"><ele>900.5</ele><time>2026-03-24T12:46:00.367Z</time></trkpt><trkpt lat="46.6533769" lon="10.5890787"><ele>901.0</ele><time>2026-03-24T12:46:02.375Z</time></trkpt><trkpt lat="46.6534901" lon="10.5890177"><ele>901.0</ele><time>2026-03-24T12:46:04.369Z</time></trkpt><trkpt lat="46.6536024" lon="10.5889592"><ele>901.0</ele><time>2026-03-24T12:46:06.378Z</time></trkpt><trkpt lat="46.6537148" lon="10.5889021"><ele>901.0</ele><time>2026-03-24T12:46:08.372Z</time></trkpt><trkpt lat="46.6538274" lon="10.5888529"><ele>901.0</ele><time>2026-03-24T12:46:10.37Z</time></trkpt><trkpt lat="46.6539307" lon="10.5888087"><ele>901.1999999999999</ele><time>2026-03-24T12:46:12.372Z</time></trkpt><trkpt lat="46.6540485" lon="10.5887746"><ele>901.3999999999999</ele><time>2026-03-24T12:46:14.371Z</time></trkpt><trkpt lat="46.6541585" lon="10.5887374"><ele>901.6</ele><time>2026-03-24T12:46:16.384Z</time></trkpt><trkpt lat="46.6542211" lon="10.5887193"><ele>901.8</ele><time>2026-03-24T12:46:17.365Z</time></trkpt><trkpt lat="46.6543306" lon="10.5886807"><ele>902.0</ele><time>2026-03-24T12:46:19.374Z</time></trkpt><trkpt lat="46.6544467" lon="10.588647"><ele>902.2</ele><time>2026-03-24T12:46:21.365Z</time></trkpt><trkpt lat="46.6545546" lon="10.5886171"><ele>902.4000000000001</ele><time>2026-03-24T12:46:23.37Z</time></trkpt><trkpt lat="46.6546575" lon="10.5885976"><ele>902.5999999999999</ele><time>2026-03-24T12:46:25.38Z</time></trkpt><trkpt lat="46.6547504" lon="10.5885741"><ele>902.8</ele><time>2026-03-24T12:46:27.36Z</time></trkpt><trkpt lat="46.6548652" lon="10.5885398"><ele>903.0</ele><time>2026-03-24T12:46:29.369Z</time></trkpt><trkpt lat="46.6549905" lon="10.5884936"><ele>903.0</ele><time>2026-03-24T12:46:31.372Z</time></trkpt><trkpt lat="46.6551124" lon="10.5884517"><ele>903.0</ele><time>2026-03-24T12:46:33.364Z</time></trkpt><trkpt lat="46.6552274" lon="10.5884072"><ele>903.0</ele><time>2026-03-24T12:46:35.371Z</time></trkpt><trkpt lat="46.6553436" lon="10.5883622"><ele>903.0</ele><time>2026-03-24T12:46:37.37Z</time></trkpt><trkpt lat="46.6554594" lon="10.5883211"><ele>902.4</ele><time>2026-03-24T12:46:39.373Z</time></trkpt><trkpt lat="46.6555678" lon="10.5882852"><ele>901.8</ele><time>2026-03-24T12:46:41.371Z</time></trkpt><trkpt lat="46.6556755" lon="10.5882483"><ele>901.2</ele><time>2026-03-24T12:46:43.365Z</time></trkpt><trkpt lat="46.6557823" lon="10.5882087"><ele>900.6</ele><time>2026-03-24T12:46:45.364Z</time></trkpt><trkpt lat="46.6558872" lon="10.5881685"><ele>900.0</ele><time>2026-03-24T12:46:47.37Z</time></trkpt><trkpt lat="46.6559911" lon="10.5881305"><ele>900.0</ele><time>2026-03-24T12:46:49.367Z</time></trkpt><trkpt lat="46.6560941" lon="10.588094"><ele>900.0</ele><time>2026-03-24T12:46:51.367Z</time></trkpt><trkpt lat="46.656195" lon="10.5880437"><ele>900.0</ele><time>2026-03-24T12:46:53.361Z</time></trkpt><trkpt lat="46.6562982" lon="10.5880106"><ele>900.0</ele><time>2026-03-24T12:46:55.365Z</time></trkpt><trkpt lat="46.6563995" lon="10.587976"><ele>900.0</ele><time>2026-03-24T12:46:57.383Z</time></trkpt><trkpt lat="46.656501" lon="10.5879428"><ele>900.6</ele><time>2026-03-24T12:46:59.371Z</time></trkpt><trkpt lat="46.6566014" lon="10.5879095"><ele>901.2</ele><time>2026-03-24T12:47:01.373Z</time></trkpt><trkpt lat="46.6567002" lon="10.5878764"><ele>901.8</ele><time>2026-03-24T12:47:03.376Z</time></trkpt><trkpt lat="46.6567991" lon="10.5878427"><ele>902.4</ele><time>2026-03-24T12:47:05.368Z</time></trkpt><trkpt lat="46.6568944" lon="10.5878155"><ele>903.0</ele><time>2026-03-24T12:47:07.367Z</time></trkpt><trkpt lat="46.6569932" lon="10.5877827"><ele>903.4</ele><time>2026-03-24T12:47:09.369Z</time></trkpt><trkpt lat="46.6570888" lon="10.5877534"><ele>903.8</ele><time>2026-03-24T12:47:11.373Z</time></trkpt><trkpt lat="46.6571834" lon="10.5877188"><ele>904.2</ele><time>2026-03-24T12:47:13.371Z</time></trkpt><trkpt lat="46.657278" lon="10.5876874"><ele>904.6</ele><time>2026-03-24T12:47:15.377Z</time></trkpt><trkpt lat="46.6573715" lon="10.5876571"><ele>905.0</ele><time>2026-03-24T12:47:17.378Z</time></trkpt><trkpt lat="46.657466" lon="10.5876238"><ele>905.0</ele><time>2026-03-24T12:47:19.378Z</time></trkpt><trkpt lat="46.6575593" lon="10.5875899"><ele>905.0</ele><time>2026-03-24T12:47:21.374Z</time></trkpt><trkpt lat="46.6576541" lon="10.5875558"><ele>905.0</ele><time>2026-03-24T12:47:23.381Z</time></trkpt><trkpt lat="46.6577488" lon="10.5875222"><ele>905.0</ele><time>2026-03-24T12:47:25.365Z</time></trkpt><trkpt lat="46.6578414" lon="10.5874871"><ele>905.0</ele><time>2026-03-24T12:47:27.374Z</time></trkpt><trkpt lat="46.6579356" lon="10.5874524"><ele>905.2</ele><time>2026-03-24T12:47:29.372Z</time></trkpt><trkpt lat="46.6580284" lon="10.5874181"><ele>905.4</ele><time>2026-03-24T12:47:31.367Z</time></trkpt><trkpt lat="46.6581262" lon="10.5873838"><ele>905.5999999999999</ele><time>2026-03-24T12:47:33.366Z</time></trkpt><trkpt lat="46.6582232" lon="10.5873518"><ele>905.8</ele><time>2026-03-24T12:47:35.365Z</time></trkpt><trkpt lat="46.6583159" lon="10.5873166"><ele>906.0</ele><time>2026-03-24T12:47:37.37Z</time></trkpt><trkpt lat="46.6584117" lon="10.5872775"><ele>906.0</ele><time>2026-03-24T12:47:39.368Z</time></trkpt><trkpt lat="46.6585073" lon="10.5872397"><ele>905.9999999999999</ele><time>2026-03-24T12:47:41.374Z</time></trkpt><trkpt lat="46.6586029" lon="10.5872077"><ele>905.9999999999999</ele><time>2026-03-24T12:47:43.369Z</time></trkpt><trkpt lat="46.6586983" lon="10.5871723"><ele>906.0</ele><time>2026-03-24T12:47:45.364Z</time></trkpt><trkpt lat="46.6587946" lon="10.5871402"><ele>906.0</ele><time>2026-03-24T12:47:47.373Z</time></trkpt><trkpt lat="46.6588901" lon="10.5871057"><ele>906.1999999999999</ele><time>2026-03-24T12:47:49.362Z</time></trkpt><trkpt lat="46.6589847" lon="10.5870699"><ele>906.3999999999999</ele><time>2026-03-24T12:47:51.37Z</time></trkpt><trkpt lat="46.6590838" lon="10.5870359"><ele>906.6</ele><time>2026-03-24T12:47:53.381Z</time></trkpt><trkpt lat="46.6591809" lon="10.5869997"><ele>906.8</ele><time>2026-03-24T12:47:55.373Z</time></trkpt><trkpt lat="46.6592781" lon="10.586964"><ele>907.0</ele><time>2026-03-24T12:47:57.383Z</time></trkpt><trkpt lat="46.659376" lon="10.5869255"><ele>907.4000000000001</ele><time>2026-03-24T12:47:59.369Z</time></trkpt><trkpt lat="46.6594743" lon="10.5868912"><ele>907.8000000000001</ele><time>2026-03-24T12:48:01.369Z</time></trkpt><trkpt lat="46.6595681" lon="10.5868523"><ele>908.2</ele><time>2026-03-24T12:48:03.369Z</time></trkpt><trkpt lat="46.6596634" lon="10.5868158"><ele>908.6</ele><time>2026-03-24T12:48:05.371Z</time></trkpt><trkpt lat="46.6597553" lon="10.5867768"><ele>909.0</ele><time>2026-03-24T12:48:07.367Z</time></trkpt><trkpt lat="46.659842" lon="10.5867312"><ele>909.0</ele><time>2026-03-24T12:48:09.372Z</time></trkpt><trkpt lat="46.6599203" lon="10.586683"><ele>909.0</ele><time>2026-03-24T12:48:11.366Z</time></trkpt><trkpt lat="46.6599967" lon="10.5866312"><ele>909.0</ele><time>2026-03-24T12:48:13.36Z</time></trkpt><trkpt lat="46.6600704" lon="10.5865745"><ele>909.0</ele><time>2026-03-24T12:48:15.368Z</time></trkpt><trkpt lat="46.6601431" lon="10.5865164"><ele>909.0</ele><time>2026-03-24T12:48:17.363Z</time></trkpt><trkpt lat="46.6602144" lon="10.586458"><ele>909.0</ele><time>2026-03-24T12:48:19.376Z</time></trkpt><trkpt lat="46.6602826" lon="10.5864027"><ele>909.3333333333334</ele><time>2026-03-24T12:48:21.37Z</time></trkpt><trkpt lat="46.6603438" lon="10.5863466"><ele>909.6666666666667</ele><time>2026-03-24T12:48:23.374Z</time></trkpt><trkpt lat="46.6604126" lon="10.5862806"><ele>910.0</ele><time>2026-03-24T12:48:26.381Z</time></trkpt><trkpt lat="46.6604419" lon="10.5861869"><ele>910.3333333333334</ele><time>2026-03-24T12:48:45.374Z</time></trkpt><trkpt lat="46.6605156" lon="10.5861878"><ele>910.6666666666667</ele><time>2026-03-24T12:50:42.37Z</time></trkpt><trkpt lat="46.6605766" lon="10.5861135"><ele>911.0</ele><time>2026-03-24T12:50:46.376Z</time></trkpt><trkpt lat="46.660649" lon="10.5860205"><ele>911.1666666666667</ele><time>2026-03-24T12:50:49.368Z</time></trkpt><trkpt lat="46.6607022" lon="10.5859388"><ele>911.3333333333334</ele><time>2026-03-24T12:50:51.373Z</time></trkpt><trkpt lat="46.6607596" lon="10.5858501"><ele>911.5</ele><time>2026-03-24T12:50:53.389Z</time></trkpt><trkpt lat="46.6608199" lon="10.5857552"><ele>911.6666666666667</ele><time>2026-03-24T12:50:55.375Z</time></trkpt><trkpt lat="46.6608818" lon="10.5856575"><ele>911.8333333333334</ele><time>2026-03-24T12:50:57.38Z</time></trkpt><trkpt lat="46.6609391" lon="10.5855532"><ele>912.0</ele><time>2026-03-24T12:50:59.367Z</time></trkpt><trkpt lat="46.6609953" lon="10.5854447"><ele>912.0</ele><time>2026-03-24T12:51:01.371Z</time></trkpt><trkpt lat="46.6610505" lon="10.5853345"><ele>912.0</ele><time>2026-03-24T12:51:03.366Z</time></trkpt><trkpt lat="46.6611045" lon="10.5852217"><ele>912.0</ele><time>2026-03-24T12:51:05.374Z</time></trkpt><trkpt lat="46.6611588" lon="10.5851055"><ele>912.0</ele><time>2026-03-24T12:51:07.374Z</time></trkpt><trkpt lat="46.6612151" lon="10.5849895"><ele>912.0</ele><time>2026-03-24T12:51:09.379Z</time></trkpt><trkpt lat="46.661269" lon="10.5848706"><ele>912.4000000000001</ele><time>2026-03-24T12:51:11.375Z</time></trkpt><trkpt lat="46.6613239" lon="10.5847521"><ele>912.8000000000001</ele><time>2026-03-24T12:51:13.379Z</time></trkpt><trkpt lat="46.6613814" lon="10.5846369"><ele>913.2</ele><time>2026-03-24T12:51:15.372Z</time></trkpt><trkpt lat="46.6614371" lon="10.5845226"><ele>913.6</ele><time>2026-03-24T12:51:17.366Z</time></trkpt><trkpt lat="46.6614924" lon="10.5844084"><ele>914.0</ele><time>2026-03-24T12:51:19.367Z</time></trkpt><trkpt lat="46.6615456" lon="10.5842941"><ele>914.2</ele><time>2026-03-24T12:51:21.378Z</time></trkpt><trkpt lat="46.6615998" lon="10.5841833"><ele>914.4000000000001</ele><time>2026-03-24T12:51:23.373Z</time></trkpt><trkpt lat="46.6616509" lon="10.5840729"><ele>914.6</ele><time>2026-03-24T12:51:25.368Z</time></trkpt><trkpt lat="46.6616945" lon="10.5839579"><ele>914.8</ele><time>2026-03-24T12:51:27.38Z</time></trkpt><trkpt lat="46.6617181" lon="10.5838321"><ele>915.0</ele><time>2026-03-24T12:51:29.389Z</time></trkpt><trkpt lat="46.6617031" lon="10.5837083"><ele>915.1666666666666</ele><time>2026-03-24T12:51:31.374Z</time></trkpt><trkpt lat="46.6616833" lon="10.5835995"><ele>915.3333333333333</ele><time>2026-03-24T12:51:33.376Z</time></trkpt><trkpt lat="46.6616969" lon="10.5834936"><ele>915.5</ele><time>2026-03-24T12:51:35.364Z</time></trkpt><trkpt lat="46.6617398" lon="10.5834066"><ele>915.6666666666666</ele><time>2026-03-24T12:51:37.372Z</time></trkpt><trkpt lat="46.6618125" lon="10.583375"><ele>915.8333333333333</ele><time>2026-03-24T12:51:39.37Z</time></trkpt><trkpt lat="46.6618825" lon="10.583353"><ele>916.0</ele><time>2026-03-24T12:51:41.381Z</time></trkpt><trkpt lat="46.6619476" lon="10.5832755"><ele>916.0</ele><time>2026-03-24T12:51:44.38Z</time></trkpt><trkpt lat="46.6619855" lon="10.5831673"><ele>915.9999999999999</ele><time>2026-03-24T12:51:47.366Z</time></trkpt><trkpt lat="46.6620482" lon="10.5830939"><ele>915.9999999999999</ele><time>2026-03-24T12:51:49.372Z</time></trkpt><trkpt lat="46.6621261" lon="10.5829975"><ele>916.0</ele><time>2026-03-24T12:51:51.367Z</time></trkpt><trkpt lat="46.6622136" lon="10.5828684"><ele>916.0</ele><time>2026-03-24T12:51:53.371Z</time></trkpt><trkpt lat="46.6622655" lon="10.5828086"><ele>915.9999999999999</ele><time>2026-03-24T12:51:54.378Z</time></trkpt><trkpt lat="46.662365" lon="10.5827261"><ele>916.0</ele><time>2026-03-24T12:51:56.373Z</time></trkpt><trkpt lat="46.6624432" lon="10.582656"><ele>916.0</ele><time>2026-03-24T12:51:58.38Z</time></trkpt><trkpt lat="46.6625105" lon="10.5825944"><ele>916.0</ele><time>2026-03-24T12:52:00.365Z</time></trkpt><trkpt lat="46.66258" lon="10.5825377"><ele>915.9999999999999</ele><time>2026-03-24T12:52:02.382Z</time></trkpt><trkpt lat="46.6626519" lon="10.5824791"><ele>916.0</ele><time>2026-03-24T12:52:04.383Z</time></trkpt><trkpt lat="46.6627298" lon="10.5824223"><ele>916.5999999999999</ele><time>2026-03-24T12:52:06.375Z</time></trkpt><trkpt lat="46.6628137" lon="10.5823709"><ele>917.1999999999999</ele><time>2026-03-24T12:52:08.372Z</time></trkpt><trkpt lat="46.6629034" lon="10.582324"><ele>917.8000000000001</ele><time>2026-03-24T12:52:10.37Z</time></trkpt><trkpt lat="46.6629973" lon="10.582282"><ele>918.4000000000001</ele><time>2026-03-24T12:52:12.387Z</time></trkpt><trkpt lat="46.6630951" lon="10.5822333"><ele>919.0</ele><time>2026-03-24T12:52:14.368Z</time></trkpt><trkpt lat="46.6631859" lon="10.5821915"><ele>919.0</ele><time>2026-03-24T12:52:16.38Z</time></trkpt><trkpt lat="46.6632739" lon="10.582151"><ele>919.0000000000001</ele><time>2026-03-24T12:52:18.37Z</time></trkpt><trkpt lat="46.6633665" lon="10.5821064"><ele>919.0000000000001</ele><time>2026-03-24T12:52:20.363Z</time></trkpt><trkpt lat="46.66347" lon="10.582062"><ele>919.0</ele><time>2026-03-24T12:52:22.386Z</time></trkpt><trkpt lat="46.663582" lon="10.5820154"><ele>919.0</ele><time>2026-03-24T12:52:24.377Z</time></trkpt><trkpt lat="46.6636941" lon="10.581967"><ele>918.25</ele><time>2026-03-24T12:52:26.38Z</time></trkpt><trkpt lat="46.6638065" lon="10.5819187"><ele>917.5</ele><time>2026-03-24T12:52:28.375Z</time></trkpt><trkpt lat="46.6639177" lon="10.5818741"><ele>916.75</ele><time>2026-03-24T12:52:30.373Z</time></trkpt><trkpt lat="46.6640287" lon="10.5818237"><ele>916.0</ele><time>2026-03-24T12:52:32.381Z</time></trkpt><trkpt lat="46.6641423" lon="10.5817668"><ele>915.9999999999999</ele><time>2026-03-24T12:52:34.374Z</time></trkpt><trkpt lat="46.6642598" lon="10.5817155"><ele>916.0</ele><time>2026-03-24T12:52:36.376Z</time></trkpt><trkpt lat="46.6643217" lon="10.581687"><ele>916.0</ele><time>2026-03-24T12:52:37.376Z</time></trkpt><trkpt lat="46.6644399" lon="10.581621"><ele>916.0</ele><time>2026-03-24T12:52:39.382Z</time></trkpt><trkpt lat="46.6645008" lon="10.5815924"><ele>915.9999999999999</ele><time>2026-03-24T12:52:40.374Z</time></trkpt><trkpt lat="46.6645624" lon="10.5815675"><ele>916.0</ele><time>2026-03-24T12:52:41.383Z</time></trkpt><trkpt lat="46.6646243" lon="10.5815424"><ele>916.4285714285713</ele><time>2026-03-24T12:52:42.369Z</time></trkpt><trkpt lat="46.6646864" lon="10.5815148"><ele>916.8571428571429</ele><time>2026-03-24T12:52:43.384Z</time></trkpt><trkpt lat="46.6647493" lon="10.5814867"><ele>917.2857142857142</ele><time>2026-03-24T12:52:44.37Z</time></trkpt><trkpt lat="46.6648121" lon="10.5814579"><ele>917.7142857142857</ele><time>2026-03-24T12:52:45.376Z</time></trkpt><trkpt lat="46.6648761" lon="10.5814301"><ele>918.1428571428571</ele><time>2026-03-24T12:52:46.367Z</time></trkpt><trkpt lat="46.6649397" lon="10.5814022"><ele>918.5714285714286</ele><time>2026-03-24T12:52:47.389Z</time></trkpt><trkpt lat="46.6650038" lon="10.5813748"><ele>919.0</ele><time>2026-03-24T12:52:48.365Z</time></trkpt><trkpt lat="46.6650675" lon="10.5813484"><ele>919.0</ele><time>2026-03-24T12:52:49.386Z</time></trkpt><trkpt lat="46.6651299" lon="10.5813174"><ele>918.9999999999999</ele><time>2026-03-24T12:52:50.379Z</time></trkpt><trkpt lat="46.6651923" lon="10.5812875"><ele>919.0</ele><time>2026-03-24T12:52:51.376Z</time></trkpt><trkpt lat="46.6652547" lon="10.5812583"><ele>919.0</ele><time>2026-03-24T12:52:52.368Z</time></trkpt><trkpt lat="46.6653167" lon="10.5812271"><ele>918.9999999999999</ele><time>2026-03-24T12:52:53.381Z</time></trkpt><trkpt lat="46.6653791" lon="10.5811957"><ele>919.0</ele><time>2026-03-24T12:52:54.38Z</time></trkpt><trkpt lat="46.6654421" lon="10.5811652"><ele>919.0</ele><time>2026-03-24T12:52:55.377Z</time></trkpt><trkpt lat="46.6655063" lon="10.5811365"><ele>918.1428571428571</ele><time>2026-03-24T12:52:56.369Z</time></trkpt><trkpt lat="46.6655711" lon="10.5811104"><ele>917.2857142857142</ele><time>2026-03-24T12:52:57.376Z</time></trkpt><trkpt lat="46.665636" lon="10.5810842"><ele>916.4285714285713</ele><time>2026-03-24T12:52:58.377Z</time></trkpt><trkpt lat="46.6657011" lon="10.5810593"><ele>915.5714285714284</ele><time>2026-03-24T12:52:59.38Z</time></trkpt><trkpt lat="46.6657669" lon="10.5810384"><ele>914.7142857142857</ele><time>2026-03-24T12:53:00.376Z</time></trkpt><trkpt lat="46.6658344" lon="10.5810202"><ele>913.8571428571427</ele><time>2026-03-24T12:53:01.368Z</time></trkpt><trkpt lat="46.6659048" lon="10.581008"><ele>912.9999999999999</ele><time>2026-03-24T12:53:02.383Z</time></trkpt><trkpt lat="46.665975" lon="10.5809994"><ele>912.9999999999999</ele><time>2026-03-24T12:53:03.378Z</time></trkpt><trkpt lat="46.6660448" lon="10.5809931"><ele>913.0</ele><time>2026-03-24T12:53:04.381Z</time></trkpt><trkpt lat="46.666113" lon="10.5809852"><ele>913.0</ele><time>2026-03-24T12:53:05.372Z</time></trkpt><trkpt lat="46.6661793" lon="10.5809756"><ele>913.0</ele><time>2026-03-24T12:53:06.378Z</time></trkpt><trkpt lat="46.6662983" lon="10.5809595"><ele>912.9999999999999</ele><time>2026-03-24T12:53:08.379Z</time></trkpt><trkpt lat="46.6663829" lon="10.5809584"><ele>913.0</ele><time>2026-03-24T12:53:10.382Z</time></trkpt><trkpt lat="46.6664709" lon="10.5809348"><ele>913.2</ele><time>2026-03-24T12:53:13.372Z</time></trkpt><trkpt lat="46.6665368" lon="10.5808858"><ele>913.4</ele><time>2026-03-24T12:53:15.374Z</time></trkpt><trkpt lat="46.6666082" lon="10.5807992"><ele>913.6000000000001</ele><time>2026-03-24T12:53:17.374Z</time></trkpt><trkpt lat="46.6666646" lon="10.5806946"><ele>913.8000000000001</ele><time>2026-03-24T12:53:19.376Z</time></trkpt><trkpt lat="46.6667221" lon="10.580573"><ele>914.0</ele><time>2026-03-24T12:53:21.379Z</time></trkpt><trkpt lat="46.6667839" lon="10.5804363"><ele>913.75</ele><time>2026-03-24T12:53:23.372Z</time></trkpt><trkpt lat="46.6668538" lon="10.5802974"><ele>913.5</ele><time>2026-03-24T12:53:25.376Z</time></trkpt><trkpt lat="46.6669227" lon="10.5801494"><ele>913.25</ele><time>2026-03-24T12:53:27.372Z</time></trkpt><trkpt lat="46.6669933" lon="10.5799999"><ele>913.0</ele><time>2026-03-24T12:53:29.384Z</time></trkpt><trkpt lat="46.6670669" lon="10.5798552"><ele>913.0</ele><time>2026-03-24T12:53:31.374Z</time></trkpt><trkpt lat="46.6671363" lon="10.5797052"><ele>913.0</ele><time>2026-03-24T12:53:33.378Z</time></trkpt><trkpt lat="46.66721" lon="10.5795557"><ele>913.0</ele><time>2026-03-24T12:53:35.372Z</time></trkpt><trkpt lat="46.6672478" lon="10.5794777"><ele>913.0</ele><time>2026-03-24T12:53:36.378Z</time></trkpt><trkpt lat="46.6672863" lon="10.5793966"><ele>913.0</ele><time>2026-03-24T12:53:37.383Z</time></trkpt><trkpt lat="46.6673235" lon="10.5793139"><ele>912.7142857142856</ele><time>2026-03-24T12:53:38.38Z</time></trkpt><trkpt lat="46.6673609" lon="10.579232"><ele>912.4285714285713</ele><time>2026-03-24T12:53:39.374Z</time></trkpt><trkpt lat="46.6674017" lon="10.5791445"><ele>912.1428571428571</ele><time>2026-03-24T12:53:40.378Z</time></trkpt><trkpt lat="46.6674402" lon="10.5790574"><ele>911.8571428571428</ele><time>2026-03-24T12:53:41.373Z</time></trkpt><trkpt lat="46.6674815" lon="10.5789675"><ele>911.5714285714284</ele><time>2026-03-24T12:53:42.363Z</time></trkpt><trkpt lat="46.6675252" lon="10.5788774"><ele>911.2857142857143</ele><time>2026-03-24T12:53:43.381Z</time></trkpt><trkpt lat="46.6675676" lon="10.5787863"><ele>911.0</ele><time>2026-03-24T12:53:44.365Z</time></trkpt><trkpt lat="46.6676111" lon="10.5786951"><ele>911.0000000000001</ele><time>2026-03-24T12:53:45.374Z</time></trkpt><trkpt lat="46.6676558" lon="10.5786025"><ele>911.0</ele><time>2026-03-24T12:53:46.369Z</time></trkpt><trkpt lat="46.6677027" lon="10.5785098"><ele>911.0</ele><time>2026-03-24T12:53:47.373Z</time></trkpt><trkpt lat="46.6677524" lon="10.5784176"><ele>911.0</ele><time>2026-03-24T12:53:48.375Z</time></trkpt><trkpt lat="46.667811" lon="10.5783336"><ele>911.0000000000001</ele><time>2026-03-24T12:53:49.372Z</time></trkpt><trkpt lat="46.6678761" lon="10.5782566"><ele>911.0</ele><time>2026-03-24T12:53:50.382Z</time></trkpt><trkpt lat="46.6679435" lon="10.5781874"><ele>911.0000000000001</ele><time>2026-03-24T12:53:51.353Z</time></trkpt><trkpt lat="46.6680145" lon="10.5781264"><ele>911.0</ele><time>2026-03-24T12:53:52.38Z</time></trkpt><trkpt lat="46.6680893" lon="10.5780729"><ele>911.0</ele><time>2026-03-24T12:53:53.383Z</time></trkpt><trkpt lat="46.6681668" lon="10.57803"><ele>911.0</ele><time>2026-03-24T12:53:54.381Z</time></trkpt><trkpt lat="46.6682475" lon="10.5779922"><ele>911.0000000000001</ele><time>2026-03-24T12:53:55.383Z</time></trkpt><trkpt lat="46.6683252" lon="10.5779623"><ele>911.0</ele><time>2026-03-24T12:53:56.359Z</time></trkpt><trkpt lat="46.6684016" lon="10.5779302"><ele>911.0000000000001</ele><time>2026-03-24T12:53:57.374Z</time></trkpt><trkpt lat="46.6684762" lon="10.5778937"><ele>911.0</ele><time>2026-03-24T12:53:58.373Z</time></trkpt><trkpt lat="46.6685486" lon="10.5778545"><ele>911.0</ele><time>2026-03-24T12:53:59.377Z</time></trkpt><trkpt lat="46.6686197" lon="10.5778093"><ele>911.0</ele><time>2026-03-24T12:54:00.379Z</time></trkpt><trkpt lat="46.6686901" lon="10.5777565"><ele>911.0000000000001</ele><time>2026-03-24T12:54:01.378Z</time></trkpt><trkpt lat="46.6687596" lon="10.5776985"><ele>911.0</ele><time>2026-03-24T12:54:02.378Z</time></trkpt><trkpt lat="46.668827" lon="10.577635"><ele>910.1666666666667</ele><time>2026-03-24T12:54:03.382Z</time></trkpt><trkpt lat="46.668892" lon="10.5775647"><ele>909.3333333333334</ele><time>2026-03-24T12:54:04.371Z</time></trkpt><trkpt lat="46.6689544" lon="10.5774867"><ele>908.5</ele><time>2026-03-24T12:54:05.373Z</time></trkpt><trkpt lat="46.6690153" lon="10.5774036"><ele>907.6666666666667</ele><time>2026-03-24T12:54:06.37Z</time></trkpt><trkpt lat="46.6690753" lon="10.5773172"><ele>906.8333333333334</ele><time>2026-03-24T12:54:07.386Z</time></trkpt><trkpt lat="46.6691342" lon="10.5772289"><ele>906.0</ele><time>2026-03-24T12:54:08.371Z</time></trkpt><trkpt lat="46.6691916" lon="10.5771367"><ele>906.0</ele><time>2026-03-24T12:54:09.374Z</time></trkpt><trkpt lat="46.6692494" lon="10.5770447"><ele>906.0</ele><time>2026-03-24T12:54:10.387Z</time></trkpt><trkpt lat="46.6693077" lon="10.5769534"><ele>906.0</ele><time>2026-03-24T12:54:11.377Z</time></trkpt><trkpt lat="46.669368" lon="10.5768638"><ele>906.0</ele><time>2026-03-24T12:54:12.369Z</time></trkpt><trkpt lat="46.6694288" lon="10.5767739"><ele>906.0</ele><time>2026-03-24T12:54:13.362Z</time></trkpt><trkpt lat="46.6694892" lon="10.5766828"><ele>906.0</ele><time>2026-03-24T12:54:14.376Z</time></trkpt><trkpt lat="46.6695495" lon="10.5765915"><ele>906.1666666666666</ele><time>2026-03-24T12:54:15.376Z</time></trkpt><trkpt lat="46.6696092" lon="10.576498"><ele>906.3333333333333</ele><time>2026-03-24T12:54:16.372Z</time></trkpt><trkpt lat="46.6696693" lon="10.5764053"><ele>906.5</ele><time>2026-03-24T12:54:17.377Z</time></trkpt><trkpt lat="46.669729" lon="10.5763117"><ele>906.6666666666666</ele><time>2026-03-24T12:54:18.365Z</time></trkpt><trkpt lat="46.6697894" lon="10.5762189"><ele>906.8333333333333</ele><time>2026-03-24T12:54:19.381Z</time></trkpt><trkpt lat="46.6698494" lon="10.5761255"><ele>907.0</ele><time>2026-03-24T12:54:20.388Z</time></trkpt><trkpt lat="46.6699091" lon="10.5760311"><ele>906.6666666666666</ele><time>2026-03-24T12:54:21.373Z</time></trkpt><trkpt lat="46.6699691" lon="10.5759368"><ele>906.3333333333333</ele><time>2026-03-24T12:54:22.371Z</time></trkpt><trkpt lat="46.6700276" lon="10.5758408"><ele>906.0</ele><time>2026-03-24T12:54:23.38Z</time></trkpt><trkpt lat="46.6700856" lon="10.5757448"><ele>905.6666666666667</ele><time>2026-03-24T12:54:24.377Z</time></trkpt><trkpt lat="46.6701458" lon="10.5756522"><ele>905.3333333333334</ele><time>2026-03-24T12:54:25.378Z</time></trkpt><trkpt lat="46.670208" lon="10.5755627"><ele>905.0</ele><time>2026-03-24T12:54:26.372Z</time></trkpt><trkpt lat="46.6702699" lon="10.5754737"><ele>905.1666666666667</ele><time>2026-03-24T12:54:27.373Z</time></trkpt><trkpt lat="46.6703316" lon="10.5753867"><ele>905.3333333333334</ele><time>2026-03-24T12:54:28.367Z</time></trkpt><trkpt lat="46.6703927" lon="10.5753001"><ele>905.5</ele><time>2026-03-24T12:54:29.373Z</time></trkpt><trkpt lat="46.6704553" lon="10.5752157"><ele>905.6666666666667</ele><time>2026-03-24T12:54:30.372Z</time></trkpt><trkpt lat="46.6705198" lon="10.5751353"><ele>905.8333333333334</ele><time>2026-03-24T12:54:31.37Z</time></trkpt><trkpt lat="46.6705853" lon="10.5750565"><ele>906.0</ele><time>2026-03-24T12:54:32.377Z</time></trkpt><trkpt lat="46.6706514" lon="10.574981"><ele>905.3333333333334</ele><time>2026-03-24T12:54:33.386Z</time></trkpt><trkpt lat="46.6707173" lon="10.5749072"><ele>904.6666666666667</ele><time>2026-03-24T12:54:34.383Z</time></trkpt><trkpt lat="46.670784" lon="10.5748358"><ele>904.0</ele><time>2026-03-24T12:54:35.373Z</time></trkpt><trkpt lat="46.6708514" lon="10.5747685"><ele>903.3333333333334</ele><time>2026-03-24T12:54:36.38Z</time></trkpt><trkpt lat="46.6709202" lon="10.5746993"><ele>902.6666666666667</ele><time>2026-03-24T12:54:37.374Z</time></trkpt><trkpt lat="46.6709882" lon="10.5746328"><ele>902.0</ele><time>2026-03-24T12:54:38.377Z</time></trkpt><trkpt lat="46.6710568" lon="10.5745709"><ele>902.1666666666667</ele><time>2026-03-24T12:54:39.375Z</time></trkpt><trkpt lat="46.6711236" lon="10.5745126"><ele>902.3333333333334</ele><time>2026-03-24T12:54:40.371Z</time></trkpt><trkpt lat="46.6711888" lon="10.5744545"><ele>902.5</ele><time>2026-03-24T12:54:41.385Z</time></trkpt><trkpt lat="46.6712537" lon="10.5743998"><ele>902.6666666666667</ele><time>2026-03-24T12:54:42.375Z</time></trkpt><trkpt lat="46.6713189" lon="10.5743461"><ele>902.8333333333334</ele><time>2026-03-24T12:54:43.38Z</time></trkpt><trkpt lat="46.6713838" lon="10.5742935"><ele>903.0</ele><time>2026-03-24T12:54:44.39Z</time></trkpt><trkpt lat="46.6714476" lon="10.5742405"><ele>903.0</ele><time>2026-03-24T12:54:45.369Z</time></trkpt><trkpt lat="46.6715107" lon="10.5741851"><ele>903.0</ele><time>2026-03-24T12:54:46.38Z</time></trkpt><trkpt lat="46.671573" lon="10.5741295"><ele>903.0</ele><time>2026-03-24T12:54:47.38Z</time></trkpt><trkpt lat="46.6716339" lon="10.5740731"><ele>903.0</ele><time>2026-03-24T12:54:48.378Z</time></trkpt><trkpt lat="46.6716916" lon="10.5740126"><ele>903.0</ele><time>2026-03-24T12:54:49.378Z</time></trkpt><trkpt lat="46.6717457" lon="10.5739438"><ele>903.0</ele><time>2026-03-24T12:54:50.365Z</time></trkpt><trkpt lat="46.6717957" lon="10.5738697"><ele>903.0</ele><time>2026-03-24T12:54:51.385Z</time></trkpt><trkpt lat="46.6718422" lon="10.5737903"><ele>903.0</ele><time>2026-03-24T12:54:52.37Z</time></trkpt><trkpt lat="46.6718856" lon="10.5737068"><ele>903.0</ele><time>2026-03-24T12:54:53.37Z</time></trkpt><trkpt lat="46.6719252" lon="10.5736178"><ele>903.0</ele><time>2026-03-24T12:54:54.377Z</time></trkpt><trkpt lat="46.6719621" lon="10.573526"><ele>903.0</ele><time>2026-03-24T12:54:55.383Z</time></trkpt><trkpt lat="46.6719951" lon="10.5734307"><ele>903.0</ele><time>2026-03-24T12:54:56.368Z</time></trkpt><trkpt lat="46.6720249" lon="10.5733313"><ele>903.0</ele><time>2026-03-24T12:54:57.387Z</time></trkpt><trkpt lat="46.672051" lon="10.5732312"><ele>903.0</ele><time>2026-03-24T12:54:58.383Z</time></trkpt><trkpt lat="46.6720714" lon="10.5731285"><ele>903.0</ele><time>2026-03-24T12:54:59.38Z</time></trkpt><trkpt lat="46.6720849" lon="10.5730235"><ele>903.0</ele><time>2026-03-24T12:55:00.373Z</time></trkpt><trkpt lat="46.6720936" lon="10.5729161"><ele>903.0</ele><time>2026-03-24T12:55:01.368Z</time></trkpt><trkpt lat="46.6720991" lon="10.5728064"><ele>903.0</ele><time>2026-03-24T12:55:02.368Z</time></trkpt><trkpt lat="46.6721044" lon="10.5726951"><ele>903.0</ele><time>2026-03-24T12:55:03.372Z</time></trkpt><trkpt lat="46.672107" lon="10.5725826"><ele>903.0</ele><time>2026-03-24T12:55:04.38Z</time></trkpt><trkpt lat="46.6721046" lon="10.5724688"><ele>903.0</ele><time>2026-03-24T12:55:05.374Z</time></trkpt><trkpt lat="46.6720999" lon="10.5723554"><ele>903.0</ele><time>2026-03-24T12:55:06.375Z</time></trkpt><trkpt lat="46.6720951" lon="10.5722434"><ele>903.0</ele><time>2026-03-24T12:55:07.375Z</time></trkpt><trkpt lat="46.6720908" lon="10.5721325"><ele>903.0</ele><time>2026-03-24T12:55:08.377Z</time></trkpt><trkpt lat="46.6720854" lon="10.5720213"><ele>903.0</ele><time>2026-03-24T12:55:09.386Z</time></trkpt><trkpt lat="46.6720802" lon="10.5719112"><ele>903.0</ele><time>2026-03-24T12:55:10.365Z</time></trkpt><trkpt lat="46.6720753" lon="10.5718014"><ele>903.0</ele><time>2026-03-24T12:55:11.377Z</time></trkpt><trkpt lat="46.6720707" lon="10.5716909"><ele>903.0</ele><time>2026-03-24T12:55:12.37Z</time></trkpt><trkpt lat="46.6720664" lon="10.5715814"><ele>903.0</ele><time>2026-03-24T12:55:13.365Z</time></trkpt><trkpt lat="46.6720617" lon="10.5714721"><ele>903.0</ele><time>2026-03-24T12:55:14.37Z</time></trkpt><trkpt lat="46.6720565" lon="10.5713629"><ele>903.0</ele><time>2026-03-24T12:55:15.377Z</time></trkpt><trkpt lat="46.6720509" lon="10.5712549"><ele>903.0</ele><time>2026-03-24T12:55:16.373Z</time></trkpt><trkpt lat="46.6720434" lon="10.5711473"><ele>903.0</ele><time>2026-03-24T12:55:17.38Z</time></trkpt><trkpt lat="46.6720382" lon="10.5710394"><ele>903.0</ele><time>2026-03-24T12:55:18.382Z</time></trkpt><trkpt lat="46.6720356" lon="10.5709324"><ele>903.0</ele><time>2026-03-24T12:55:19.374Z</time></trkpt><trkpt lat="46.6720312" lon="10.5708254"><ele>903.0</ele><time>2026-03-24T12:55:20.381Z</time></trkpt><trkpt lat="46.6720272" lon="10.5707184"><ele>903.0</ele><time>2026-03-24T12:55:21.376Z</time></trkpt><trkpt lat="46.6720222" lon="10.5706108"><ele>903.0</ele><time>2026-03-24T12:55:22.376Z</time></trkpt><trkpt lat="46.6720171" lon="10.5705037"><ele>903.0</ele><time>2026-03-24T12:55:23.376Z</time></trkpt><trkpt lat="46.6720121" lon="10.5703974"><ele>903.0</ele><time>2026-03-24T12:55:24.365Z</time></trkpt><trkpt lat="46.6720065" lon="10.5702956"><ele>903.0</ele><time>2026-03-24T12:55:25.374Z</time></trkpt><trkpt lat="46.6720012" lon="10.5701975"><ele>903.0</ele><time>2026-03-24T12:55:26.376Z</time></trkpt><trkpt lat="46.6719966" lon="10.5700957"><ele>903.0</ele><time>2026-03-24T12:55:27.368Z</time></trkpt><trkpt lat="46.6719911" lon="10.5699934"><ele>903.0</ele><time>2026-03-24T12:55:28.381Z</time></trkpt><trkpt lat="46.6719861" lon="10.5698908"><ele>903.0</ele><time>2026-03-24T12:55:29.373Z</time></trkpt><trkpt lat="46.6719807" lon="10.5697877"><ele>903.0</ele><time>2026-03-24T12:55:30.373Z</time></trkpt><trkpt lat="46.6719766" lon="10.5696872"><ele>903.0</ele><time>2026-03-24T12:55:31.379Z</time></trkpt><trkpt lat="46.6719717" lon="10.5695859"><ele>903.0</ele><time>2026-03-24T12:55:32.372Z</time></trkpt><trkpt lat="46.6719664" lon="10.5694816"><ele>903.0</ele><time>2026-03-24T12:55:33.375Z</time></trkpt><trkpt lat="46.6719605" lon="10.5693784"><ele>903.0</ele><time>2026-03-24T12:55:34.364Z</time></trkpt><trkpt lat="46.6719556" lon="10.5692748"><ele>903.0</ele><time>2026-03-24T12:55:35.381Z</time></trkpt><trkpt lat="46.6719514" lon="10.5691725"><ele>903.0</ele><time>2026-03-24T12:55:36.374Z</time></trkpt><trkpt lat="46.6719455" lon="10.5690729"><ele>903.0</ele><time>2026-03-24T12:55:37.379Z</time></trkpt><trkpt lat="46.671939" lon="10.5689717"><ele>903.0</ele><time>2026-03-24T12:55:38.371Z</time></trkpt><trkpt lat="46.671934" lon="10.5688703"><ele>903.0</ele><time>2026-03-24T12:55:39.377Z</time></trkpt><trkpt lat="46.6719276" lon="10.5687681"><ele>903.0</ele><time>2026-03-24T12:55:40.365Z</time></trkpt><trkpt lat="46.6719229" lon="10.5686673"><ele>903.0</ele><time>2026-03-24T12:55:41.381Z</time></trkpt><trkpt lat="46.6719187" lon="10.5685672"><ele>903.0</ele><time>2026-03-24T12:55:42.379Z</time></trkpt><trkpt lat="46.6719156" lon="10.568468"><ele>903.0</ele><time>2026-03-24T12:55:43.379Z</time></trkpt><trkpt lat="46.6719143" lon="10.5683701"><ele>903.0</ele><time>2026-03-24T12:55:44.379Z</time></trkpt><trkpt lat="46.671912" lon="10.5682726"><ele>903.0</ele><time>2026-03-24T12:55:45.364Z</time></trkpt><trkpt lat="46.6719071" lon="10.5681767"><ele>903.0</ele><time>2026-03-24T12:55:46.374Z</time></trkpt><trkpt lat="46.6719029" lon="10.5680799"><ele>903.0</ele><time>2026-03-24T12:55:47.373Z</time></trkpt><trkpt lat="46.6718986" lon="10.5679848"><ele>903.0</ele><time>2026-03-24T12:55:48.375Z</time></trkpt><trkpt lat="46.6718937" lon="10.5678895"><ele>903.0</ele><time>2026-03-24T12:55:49.378Z</time></trkpt><trkpt lat="46.6718898" lon="10.5677939"><ele>903.0</ele><time>2026-03-24T12:55:50.367Z</time></trkpt><trkpt lat="46.6718856" lon="10.5677003"><ele>903.0</ele><time>2026-03-24T12:55:51.38Z</time></trkpt><trkpt lat="46.6718806" lon="10.5676088"><ele>903.25</ele><time>2026-03-24T12:55:52.379Z</time></trkpt><trkpt lat="46.6718729" lon="10.5674292"><ele>903.5</ele><time>2026-03-24T12:55:54.367Z</time></trkpt><trkpt lat="46.6718663" lon="10.5672532"><ele>903.75</ele><time>2026-03-24T12:55:56.37Z</time></trkpt><trkpt lat="46.6718593" lon="10.5670793"><ele>904.0</ele><time>2026-03-24T12:55:58.372Z</time></trkpt><trkpt lat="46.6718499" lon="10.5669078"><ele>904.25</ele><time>2026-03-24T12:56:00.371Z</time></trkpt><trkpt lat="46.6718376" lon="10.5667396"><ele>904.5</ele><time>2026-03-24T12:56:02.375Z</time></trkpt><trkpt lat="46.671832" lon="10.5665707"><ele>904.75</ele><time>2026-03-24T12:56:04.375Z</time></trkpt><trkpt lat="46.6718282" lon="10.5664012"><ele>905.0</ele><time>2026-03-24T12:56:06.378Z</time></trkpt><trkpt lat="46.6718216" lon="10.5662299"><ele>905.0</ele><time>2026-03-24T12:56:08.363Z</time></trkpt><trkpt lat="46.6718136" lon="10.5660613"><ele>905.0</ele><time>2026-03-24T12:56:10.36Z</time></trkpt><trkpt lat="46.6718074" lon="10.5658932"><ele>905.0</ele><time>2026-03-24T12:56:12.371Z</time></trkpt><trkpt lat="46.6717982" lon="10.5657244"><ele>905.0</ele><time>2026-03-24T12:56:14.381Z</time></trkpt><trkpt lat="46.6717912" lon="10.5655539"><ele>905.0</ele><time>2026-03-24T12:56:16.366Z</time></trkpt><trkpt lat="46.671784" lon="10.5653809"><ele>905.0</ele><time>2026-03-24T12:56:18.359Z</time></trkpt><trkpt lat="46.6717774" lon="10.565207"><ele>905.0</ele><time>2026-03-24T12:56:20.365Z</time></trkpt><trkpt lat="46.6717694" lon="10.5650302"><ele>905.0</ele><time>2026-03-24T12:56:22.364Z</time></trkpt><trkpt lat="46.6717593" lon="10.5648582"><ele>904.75</ele><time>2026-03-24T12:56:24.382Z</time></trkpt><trkpt lat="46.6717489" lon="10.5646854"><ele>904.5</ele><time>2026-03-24T12:56:26.359Z</time></trkpt><trkpt lat="46.6717409" lon="10.5645153"><ele>904.25</ele><time>2026-03-24T12:56:28.374Z</time></trkpt><trkpt lat="46.671733" lon="10.564342"><ele>904.0</ele><time>2026-03-24T12:56:30.378Z</time></trkpt><trkpt lat="46.6717282" lon="10.5641693"><ele>904.0</ele><time>2026-03-24T12:56:32.365Z</time></trkpt><trkpt lat="46.6717195" lon="10.5639998"><ele>904.0</ele><time>2026-03-24T12:56:34.376Z</time></trkpt><trkpt lat="46.6717088" lon="10.5638276"><ele>904.0</ele><time>2026-03-24T12:56:36.38Z</time></trkpt><trkpt lat="46.6716985" lon="10.5636547"><ele>904.0</ele><time>2026-03-24T12:56:38.373Z</time></trkpt><trkpt lat="46.6716871" lon="10.5634836"><ele>903.75</ele><time>2026-03-24T12:56:40.383Z</time></trkpt><trkpt lat="46.6716742" lon="10.5633124"><ele>903.5</ele><time>2026-03-24T12:56:42.379Z</time></trkpt><trkpt lat="46.6716708" lon="10.5631439"><ele>903.25</ele><time>2026-03-24T12:56:44.388Z</time></trkpt><trkpt lat="46.6716692" lon="10.5629763"><ele>903.0</ele><time>2026-03-24T12:56:46.364Z</time></trkpt><trkpt lat="46.6716635" lon="10.5628128"><ele>904.0</ele><time>2026-03-24T12:56:48.37Z</time></trkpt><trkpt lat="46.6716555" lon="10.5626492"><ele>905.0</ele><time>2026-03-24T12:56:50.374Z</time></trkpt><trkpt lat="46.6716452" lon="10.5624738"><ele>906.0</ele><time>2026-03-24T12:56:52.379Z</time></trkpt><trkpt lat="46.6716354" lon="10.5622935"><ele>907.0</ele><time>2026-03-24T12:56:54.362Z</time></trkpt><trkpt lat="46.6716267" lon="10.5621131"><ele>907.1428571428573</ele><time>2026-03-24T12:56:56.357Z</time></trkpt><trkpt lat="46.671618" lon="10.5619314"><ele>907.2857142857143</ele><time>2026-03-24T12:56:58.364Z</time></trkpt><trkpt lat="46.671614" lon="10.5618395"><ele>907.4285714285716</ele><time>2026-03-24T12:56:59.37Z</time></trkpt><trkpt lat="46.6716103" lon="10.5617468"><ele>907.5714285714287</ele><time>2026-03-24T12:57:00.369Z</time></trkpt><trkpt lat="46.6716068" lon="10.561654"><ele>907.7142857142858</ele><time>2026-03-24T12:57:01.37Z</time></trkpt><trkpt lat="46.6716029" lon="10.5615603"><ele>907.8571428571429</ele><time>2026-03-24T12:57:02.376Z</time></trkpt><trkpt lat="46.6715983" lon="10.5614666"><ele>908.0</ele><time>2026-03-24T12:57:03.367Z</time></trkpt><trkpt lat="46.6715939" lon="10.5613729"><ele>908.0</ele><time>2026-03-24T12:57:04.37Z</time></trkpt><trkpt lat="46.6715904" lon="10.561279"><ele>908.0000000000001</ele><time>2026-03-24T12:57:05.375Z</time></trkpt><trkpt lat="46.6715871" lon="10.5611847"><ele>908.0</ele><time>2026-03-24T12:57:06.364Z</time></trkpt><trkpt lat="46.6715824" lon="10.56109"><ele>908.0</ele><time>2026-03-24T12:57:07.374Z</time></trkpt><trkpt lat="46.6715782" lon="10.5609946"><ele>908.0000000000001</ele><time>2026-03-24T12:57:08.368Z</time></trkpt><trkpt lat="46.6715729" lon="10.5608998"><ele>908.0</ele><time>2026-03-24T12:57:09.377Z</time></trkpt><trkpt lat="46.6715675" lon="10.5608053"><ele>908.0</ele><time>2026-03-24T12:57:10.374Z</time></trkpt><trkpt lat="46.6715639" lon="10.5607102"><ele>907.75</ele><time>2026-03-24T12:57:11.375Z</time></trkpt><trkpt lat="46.6715605" lon="10.5606165"><ele>907.5</ele><time>2026-03-24T12:57:12.386Z</time></trkpt><trkpt lat="46.671557" lon="10.560523"><ele>907.25</ele><time>2026-03-24T12:57:13.371Z</time></trkpt><trkpt lat="46.6715532" lon="10.5604301"><ele>907.0</ele><time>2026-03-24T12:57:14.376Z</time></trkpt><trkpt lat="46.6715484" lon="10.560338"><ele>906.75</ele><time>2026-03-24T12:57:15.371Z</time></trkpt><trkpt lat="46.6715425" lon="10.5602459"><ele>906.5</ele><time>2026-03-24T12:57:16.364Z</time></trkpt><trkpt lat="46.6715395" lon="10.5601535"><ele>906.25</ele><time>2026-03-24T12:57:17.373Z</time></trkpt><trkpt lat="46.6715377" lon="10.5600612"><ele>906.0</ele><time>2026-03-24T12:57:18.361Z</time></trkpt><trkpt lat="46.6715363" lon="10.5599672"><ele>905.8571428571427</ele><time>2026-03-24T12:57:19.379Z</time></trkpt><trkpt lat="46.6715375" lon="10.5598735"><ele>905.7142857142857</ele><time>2026-03-24T12:57:20.363Z</time></trkpt><trkpt lat="46.6715382" lon="10.5597796"><ele>905.5714285714284</ele><time>2026-03-24T12:57:21.373Z</time></trkpt><trkpt lat="46.6715373" lon="10.5596844"><ele>905.4285714285713</ele><time>2026-03-24T12:57:22.37Z</time></trkpt><trkpt lat="46.6715341" lon="10.5595894"><ele>905.2857142857142</ele><time>2026-03-24T12:57:23.372Z</time></trkpt><trkpt lat="46.6715289" lon="10.5594958"><ele>905.1428571428571</ele><time>2026-03-24T12:57:24.372Z</time></trkpt><trkpt lat="46.6715225" lon="10.5594031"><ele>905.0</ele><time>2026-03-24T12:57:25.379Z</time></trkpt><trkpt lat="46.6715136" lon="10.5593101"><ele>905.2857142857142</ele><time>2026-03-24T12:57:26.38Z</time></trkpt><trkpt lat="46.6715039" lon="10.5592176"><ele>905.5714285714284</ele><time>2026-03-24T12:57:27.38Z</time></trkpt><trkpt lat="46.6714949" lon="10.559125"><ele>905.8571428571429</ele><time>2026-03-24T12:57:28.374Z</time></trkpt><trkpt lat="46.6714899" lon="10.5590327"><ele>906.1428571428571</ele><time>2026-03-24T12:57:29.38Z</time></trkpt><trkpt lat="46.6714848" lon="10.5589404"><ele>906.4285714285714</ele><time>2026-03-24T12:57:30.373Z</time></trkpt><trkpt lat="46.6714799" lon="10.5588488"><ele>906.7142857142858</ele><time>2026-03-24T12:57:31.372Z</time></trkpt><trkpt lat="46.6714731" lon="10.5586662"><ele>907.0000000000001</ele><time>2026-03-24T12:57:33.391Z</time></trkpt><trkpt lat="46.6714637" lon="10.5584854"><ele>907.0</ele><time>2026-03-24T12:57:35.383Z</time></trkpt><trkpt lat="46.6714526" lon="10.5583079"><ele>907.0</ele><time>2026-03-24T12:57:37.381Z</time></trkpt><trkpt lat="46.6714397" lon="10.5581332"><ele>907.0</ele><time>2026-03-24T12:57:39.372Z</time></trkpt><trkpt lat="46.6714309" lon="10.5579668"><ele>907.0</ele><time>2026-03-24T12:57:41.381Z</time></trkpt><trkpt lat="46.6714232" lon="10.5578063"><ele>907.2</ele><time>2026-03-24T12:57:43.373Z</time></trkpt><trkpt lat="46.6714167" lon="10.5576617"><ele>907.4000000000001</ele><time>2026-03-24T12:57:45.386Z</time></trkpt><trkpt lat="46.6714033" lon="10.557532"><ele>907.5999999999999</ele><time>2026-03-24T12:57:47.378Z</time></trkpt><trkpt lat="46.6713794" lon="10.5574053"><ele>907.8</ele><time>2026-03-24T12:57:49.389Z</time></trkpt><trkpt lat="46.6713392" lon="10.5572916"><ele>908.0</ele><time>2026-03-24T12:57:51.371Z</time></trkpt><trkpt lat="46.6712891" lon="10.5571935"><ele>908.0000000000001</ele><time>2026-03-24T12:57:53.383Z</time></trkpt><trkpt lat="46.6712397" lon="10.5571087"><ele>908.0</ele><time>2026-03-24T12:57:55.378Z</time></trkpt><trkpt lat="46.6711909" lon="10.5570316"><ele>908.0</ele><time>2026-03-24T12:57:57.379Z</time></trkpt><trkpt lat="46.6711169" lon="10.5570503"><ele>908.0</ele><time>2026-03-24T12:58:00.363Z</time></trkpt><trkpt lat="46.6711066" lon="10.5571762"><ele>908.0000000000001</ele><time>2026-03-24T12:58:03.384Z</time></trkpt><trkpt lat="46.6710909" lon="10.5572825"><ele>908.0</ele><time>2026-03-24T12:58:06.362Z</time></trkpt><trkpt lat="46.671126" lon="10.5571918"><ele>908.0000000000001</ele><time>2026-03-24T13:00:39.378Z</time></trkpt><trkpt lat="46.6711282" lon="10.5570932"><ele>908.0</ele><time>2026-03-24T13:00:43.376Z</time></trkpt><trkpt lat="46.6711261" lon="10.556973"><ele>908.0</ele><time>2026-03-24T13:00:47.379Z</time></trkpt><trkpt lat="46.6711468" lon="10.5568558"><ele>908.0</ele><time>2026-03-24T13:00:50.379Z</time></trkpt><trkpt lat="46.6711626" lon="10.5567482"><ele>908.0000000000001</ele><time>2026-03-24T13:00:53.363Z</time></trkpt><trkpt lat="46.6711183" lon="10.5566758"><ele>908.0</ele><time>2026-03-24T13:00:59.367Z</time></trkpt><trkpt lat="46.6710796" lon="10.556538"><ele>908.5000000000001</ele><time>2026-03-24T13:01:03.366Z</time></trkpt><trkpt lat="46.6710496" lon="10.5564224"><ele>909.0</ele><time>2026-03-24T13:01:28.36Z</time></trkpt><trkpt lat="46.6710331" lon="10.556315"><ele>909.5</ele><time>2026-03-24T13:01:43.362Z</time></trkpt><trkpt lat="46.6710209" lon="10.5561806"><ele>910.0</ele><time>2026-03-24T13:01:46.384Z</time></trkpt><trkpt lat="46.6710151" lon="10.5560779"><ele>910.5000000000001</ele><time>2026-03-24T13:01:48.379Z</time></trkpt><trkpt lat="46.6710135" lon="10.5559703"><ele>911.0</ele><time>2026-03-24T13:01:50.4Z</time></trkpt><trkpt lat="46.6710054" lon="10.5558492"><ele>911.1666666666667</ele><time>2026-03-24T13:01:52.374Z</time></trkpt><trkpt lat="46.6709949" lon="10.5557239"><ele>911.3333333333334</ele><time>2026-03-24T13:01:54.37Z</time></trkpt><trkpt lat="46.6709811" lon="10.5555965"><ele>911.5</ele><time>2026-03-24T13:01:56.371Z</time></trkpt><trkpt lat="46.6709686" lon="10.5554668"><ele>911.6666666666667</ele><time>2026-03-24T13:01:58.372Z</time></trkpt><trkpt lat="46.6709576" lon="10.5553493"><ele>911.8333333333334</ele><time>2026-03-24T13:02:00.386Z</time></trkpt><trkpt lat="46.6709505" lon="10.5552289"><ele>912.0</ele><time>2026-03-24T13:02:02.368Z</time></trkpt><trkpt lat="46.6709389" lon="10.5551028"><ele>912.3333333333334</ele><time>2026-03-24T13:02:04.37Z</time></trkpt><trkpt lat="46.6709247" lon="10.5549797"><ele>912.6666666666667</ele><time>2026-03-24T13:02:06.377Z</time></trkpt><trkpt lat="46.6709154" lon="10.5548542"><ele>913.0</ele><time>2026-03-24T13:02:08.372Z</time></trkpt><trkpt lat="46.670907" lon="10.5547381"><ele>913.3333333333334</ele><time>2026-03-24T13:02:10.369Z</time></trkpt><trkpt lat="46.6709013" lon="10.5546262"><ele>913.6666666666667</ele><time>2026-03-24T13:02:12.384Z</time></trkpt><trkpt lat="46.6708935" lon="10.5545098"><ele>914.0</ele><time>2026-03-24T13:02:14.38Z</time></trkpt><trkpt lat="46.6708903" lon="10.5543917"><ele>914.0000000000001</ele><time>2026-03-24T13:02:16.382Z</time></trkpt><trkpt lat="46.6708901" lon="10.5542758"><ele>914.0</ele><time>2026-03-24T13:02:18.379Z</time></trkpt><trkpt lat="46.670887" lon="10.5541477"><ele>914.0</ele><time>2026-03-24T13:02:20.376Z</time></trkpt><trkpt lat="46.6708833" lon="10.5540326"><ele>914.0</ele><time>2026-03-24T13:02:22.384Z</time></trkpt><trkpt lat="46.6708787" lon="10.5539204"><ele>914.0000000000001</ele><time>2026-03-24T13:02:24.367Z</time></trkpt><trkpt lat="46.6708741" lon="10.5538155"><ele>914.0</ele><time>2026-03-24T13:02:26.376Z</time></trkpt><trkpt lat="46.6708638" lon="10.5537042"><ele>914.0000000000001</ele><time>2026-03-24T13:02:28.372Z</time></trkpt><trkpt lat="46.67084" lon="10.5536043"><ele>914.0</ele><time>2026-03-24T13:02:30.374Z</time></trkpt><trkpt lat="46.6708029" lon="10.5535221"><ele>914.0</ele><time>2026-03-24T13:02:32.38Z</time></trkpt><trkpt lat="46.6707477" lon="10.5534578"><ele>914.0</ele><time>2026-03-24T13:02:34.361Z</time></trkpt><trkpt lat="46.6706902" lon="10.553369"><ele>914.0000000000001</ele><time>2026-03-24T13:02:36.377Z</time></trkpt><trkpt lat="46.6706472" lon="10.553259"><ele>914.0</ele><time>2026-03-24T13:02:38.361Z</time></trkpt><trkpt lat="46.6706118" lon="10.5531541"><ele>914.0000000000001</ele><time>2026-03-24T13:02:40.378Z</time></trkpt><trkpt lat="46.6705877" lon="10.553055"><ele>914.0</ele><time>2026-03-24T13:02:42.373Z</time></trkpt><trkpt lat="46.6705642" lon="10.5529404"><ele>914.0000000000001</ele><time>2026-03-24T13:02:44.371Z</time></trkpt><trkpt lat="46.6705056" lon="10.55287"><ele>914.0000000000001</ele><time>2026-03-24T13:02:47.368Z</time></trkpt><trkpt lat="46.6704378" lon="10.5528893"><ele>914.0</ele><time>2026-03-24T13:02:51.371Z</time></trkpt><trkpt lat="46.670389" lon="10.5529551"><ele>914.0000000000001</ele><time>2026-03-24T13:02:55.37Z</time></trkpt><trkpt lat="46.6703151" lon="10.5529763"><ele>914.0000000000001</ele><time>2026-03-24T13:02:59.383Z</time></trkpt><trkpt lat="46.6703735" lon="10.5529387"><ele>914.0000000000001</ele><time>2026-03-24T13:03:05.377Z</time></trkpt><trkpt lat="46.6704239" lon="10.5528461"><ele>914.0</ele><time>2026-03-24T13:04:04.371Z</time></trkpt><trkpt lat="46.6704522" lon="10.5527449"><ele>914.0000000000001</ele><time>2026-03-24T13:04:07.367Z</time></trkpt><trkpt lat="46.6704934" lon="10.5526739"><ele>914.0000000000001</ele><time>2026-03-24T13:04:09.367Z</time></trkpt><trkpt lat="46.6705498" lon="10.552617"><ele>914.0</ele><time>2026-03-24T13:04:12.377Z</time></trkpt><trkpt lat="46.6705365" lon="10.5525269"><ele>914.0000000000001</ele><time>2026-03-24T13:04:15.358Z</time></trkpt><trkpt lat="46.670474" lon="10.5525653"><ele>914.0000000000001</ele><time>2026-03-24T13:04:18.372Z</time></trkpt><trkpt lat="46.6704581" lon="10.5527067"><ele>914.0000000000001</ele><time>2026-03-24T13:04:21.368Z</time></trkpt><trkpt lat="46.670437" lon="10.5528363"><ele>914.0</ele><time>2026-03-24T13:04:24.377Z</time></trkpt><trkpt lat="46.6704031" lon="10.5529347"><ele>914.0</ele><time>2026-03-24T13:04:27.375Z</time></trkpt><trkpt lat="46.6703182" lon="10.5530006"><ele>914.0</ele><time>2026-03-24T13:04:31.375Z</time></trkpt><trkpt lat="46.6702521" lon="10.5530438"><ele>914.0000000000001</ele><time>2026-03-24T13:04:33.367Z</time></trkpt><trkpt lat="46.6701767" lon="10.5530785"><ele>914.0</ele><time>2026-03-24T13:04:36.373Z</time></trkpt><trkpt lat="46.6701146" lon="10.5530951"><ele>914.0000000000001</ele><time>2026-03-24T13:04:38.386Z</time></trkpt><trkpt lat="46.6700488" lon="10.5530918"><ele>914.0</ele><time>2026-03-24T13:04:40.374Z</time></trkpt><trkpt lat="46.6700217" lon="10.5530018"><ele>914.0</ele><time>2026-03-24T13:04:43.369Z</time></trkpt><trkpt lat="46.6700447" lon="10.5528752"><ele>914.0</ele><time>2026-03-24T13:04:46.37Z</time></trkpt><trkpt lat="46.6700851" lon="10.5527538"><ele>914.0000000000001</ele><time>2026-03-24T13:04:49.368Z</time></trkpt><trkpt lat="46.6701044" lon="10.5526445"><ele>914.0</ele><time>2026-03-24T13:04:52.377Z</time></trkpt><trkpt lat="46.6700934" lon="10.5525483"><ele>914.2857142857144</ele><time>2026-03-24T13:04:56.382Z</time></trkpt><trkpt lat="46.6700936" lon="10.552456"><ele>914.5714285714287</ele><time>2026-03-24T13:04:59.365Z</time></trkpt><trkpt lat="46.6700943" lon="10.5523513"><ele>914.8571428571429</ele><time>2026-03-24T13:05:41.361Z</time></trkpt><trkpt lat="46.6700728" lon="10.5524422"><ele>915.1428571428572</ele><time>2026-03-24T13:05:57.358Z</time></trkpt><trkpt lat="46.6701011" lon="10.552357"><ele>915.4285714285716</ele><time>2026-03-24T13:06:49.379Z</time></trkpt><trkpt lat="46.6701025" lon="10.5522471"><ele>915.7142857142857</ele><time>2026-03-24T13:06:52.376Z</time></trkpt><trkpt lat="46.6701029" lon="10.5521501"><ele>916.0</ele><time>2026-03-24T13:06:54.384Z</time></trkpt><trkpt lat="46.6700969" lon="10.5520454"><ele>916.3333333333333</ele><time>2026-03-24T13:06:56.364Z</time></trkpt><trkpt lat="46.6700914" lon="10.5519529"><ele>916.6666666666666</ele><time>2026-03-24T13:06:58.371Z</time></trkpt><trkpt lat="46.6700936" lon="10.5518244"><ele>917.0</ele><time>2026-03-24T13:07:01.384Z</time></trkpt><trkpt lat="46.670095" lon="10.5517015"><ele>917.3333333333333</ele><time>2026-03-24T13:07:04.374Z</time></trkpt><trkpt lat="46.6701068" lon="10.5516002"><ele>917.6666666666666</ele><time>2026-03-24T13:07:07.382Z</time></trkpt><trkpt lat="46.6701152" lon="10.5514848"><ele>918.0</ele><time>2026-03-24T13:07:10.375Z</time></trkpt><trkpt lat="46.6701266" lon="10.5513938"><ele>918.0</ele><time>2026-03-24T13:07:13.375Z</time></trkpt><trkpt lat="46.6701655" lon="10.5514677"><ele>918.0</ele><time>2026-03-24T13:08:00.366Z</time></trkpt><trkpt lat="46.6701731" lon="10.5511678"><ele>918.0</ele><time>2026-03-24T13:08:10.376Z</time></trkpt><trkpt lat="46.670179" lon="10.5510719"><ele>918.0</ele><time>2026-03-24T13:08:12.369Z</time></trkpt><trkpt lat="46.6701852" lon="10.5509619"><ele>918.0</ele><time>2026-03-24T13:08:14.376Z</time></trkpt><trkpt lat="46.6701893" lon="10.5508483"><ele>917.8571428571429</ele><time>2026-03-24T13:08:16.37Z</time></trkpt><trkpt lat="46.6701909" lon="10.5507485"><ele>917.7142857142857</ele><time>2026-03-24T13:08:18.365Z</time></trkpt><trkpt lat="46.670203" lon="10.5506272"><ele>917.5714285714286</ele><time>2026-03-24T13:08:21.366Z</time></trkpt><trkpt lat="46.6702137" lon="10.5505231"><ele>917.4285714285714</ele><time>2026-03-24T13:08:24.369Z</time></trkpt><trkpt lat="46.6702244" lon="10.5504264"><ele>917.2857142857142</ele><time>2026-03-24T13:08:27.375Z</time></trkpt><trkpt lat="46.670256" lon="10.5503435"><ele>917.1428571428571</ele><time>2026-03-24T13:09:08.359Z</time></trkpt><trkpt lat="46.670258" lon="10.550251"><ele>917.0</ele><time>2026-03-24T13:10:41.382Z</time></trkpt><trkpt lat="46.670259" lon="10.5501441"><ele>917.2857142857142</ele><time>2026-03-24T13:10:47.381Z</time></trkpt><trkpt lat="46.6702576" lon="10.5500321"><ele>917.5714285714286</ele><time>2026-03-24T13:10:53.37Z</time></trkpt><trkpt lat="46.6702662" lon="10.5499374"><ele>917.8571428571429</ele><time>2026-03-24T13:10:59.373Z</time></trkpt><trkpt lat="46.6702666" lon="10.5498445"><ele>918.1428571428571</ele><time>2026-03-24T13:11:05.371Z</time></trkpt><trkpt lat="46.6702305" lon="10.5497612"><ele>918.4285714285713</ele><time>2026-03-24T13:11:57.372Z</time></trkpt><trkpt lat="46.6702129" lon="10.5496577"><ele>918.7142857142857</ele><time>2026-03-24T13:12:00.375Z</time></trkpt><trkpt lat="46.670204" lon="10.5495358"><ele>919.0</ele><time>2026-03-24T13:12:03.372Z</time></trkpt><trkpt lat="46.6701995" lon="10.5494242"><ele>919.6</ele><time>2026-03-24T13:12:05.377Z</time></trkpt><trkpt lat="46.6702159" lon="10.5492892"><ele>920.2</ele><time>2026-03-24T13:12:07.381Z</time></trkpt><trkpt lat="46.6702379" lon="10.5491526"><ele>920.8000000000001</ele><time>2026-03-24T13:12:09.371Z</time></trkpt><trkpt lat="46.6702603" lon="10.5490224"><ele>921.4000000000001</ele><time>2026-03-24T13:12:11.374Z</time></trkpt><trkpt lat="46.6702785" lon="10.5488876"><ele>922.0</ele><time>2026-03-24T13:12:13.38Z</time></trkpt><trkpt lat="46.6702863" lon="10.5487668"><ele>920.8333333333333</ele><time>2026-03-24T13:12:15.371Z</time></trkpt><trkpt lat="46.6702933" lon="10.5486441"><ele>919.6666666666666</ele><time>2026-03-24T13:12:17.371Z</time></trkpt><trkpt lat="46.6703021" lon="10.548523"><ele>918.5</ele><time>2026-03-24T13:12:19.36Z</time></trkpt><trkpt lat="46.6703118" lon="10.5484024"><ele>917.3333333333333</ele><time>2026-03-24T13:12:21.367Z</time></trkpt><trkpt lat="46.670318" lon="10.5482744"><ele>916.1666666666666</ele><time>2026-03-24T13:12:23.368Z</time></trkpt><trkpt lat="46.6703212" lon="10.5481441"><ele>915.0</ele><time>2026-03-24T13:12:25.365Z</time></trkpt><trkpt lat="46.6703241" lon="10.5480149"><ele>915.0</ele><time>2026-03-24T13:12:27.38Z</time></trkpt><trkpt lat="46.670325" lon="10.5478807"><ele>915.0</ele><time>2026-03-24T13:12:29.37Z</time></trkpt><trkpt lat="46.6703255" lon="10.5477413"><ele>915.0</ele><time>2026-03-24T13:12:31.37Z</time></trkpt><trkpt lat="46.6703267" lon="10.5476005"><ele>915.0</ele><time>2026-03-24T13:12:33.376Z</time></trkpt><trkpt lat="46.6703362" lon="10.5474602"><ele>915.0</ele><time>2026-03-24T13:12:35.373Z</time></trkpt><trkpt lat="46.6703465" lon="10.5473208"><ele>915.6</ele><time>2026-03-24T13:12:37.372Z</time></trkpt><trkpt lat="46.6703501" lon="10.5471824"><ele>916.2</ele><time>2026-03-24T13:12:39.37Z</time></trkpt><trkpt lat="46.6703568" lon="10.547047"><ele>916.8</ele><time>2026-03-24T13:12:41.361Z</time></trkpt><trkpt lat="46.6703639" lon="10.5469102"><ele>917.4</ele><time>2026-03-24T13:12:43.375Z</time></trkpt><trkpt lat="46.6703739" lon="10.5467727"><ele>918.0</ele><time>2026-03-24T13:12:45.385Z</time></trkpt><trkpt lat="46.670389" lon="10.5466432"><ele>918.8</ele><time>2026-03-24T13:12:47.375Z</time></trkpt><trkpt lat="46.6704011" lon="10.5465078"><ele>919.5999999999999</ele><time>2026-03-24T13:12:49.371Z</time></trkpt><trkpt lat="46.6704123" lon="10.5463719"><ele>920.4000000000001</ele><time>2026-03-24T13:12:51.364Z</time></trkpt><trkpt lat="46.6704218" lon="10.5462386"><ele>921.2</ele><time>2026-03-24T13:12:53.373Z</time></trkpt><trkpt lat="46.670437" lon="10.5460917"><ele>922.0</ele><time>2026-03-24T13:12:55.391Z</time></trkpt><trkpt lat="46.6704548" lon="10.5459519"><ele>922.0</ele><time>2026-03-24T13:12:57.375Z</time></trkpt><trkpt lat="46.6704792" lon="10.5458179"><ele>922.0</ele><time>2026-03-24T13:12:59.38Z</time></trkpt><trkpt lat="46.6705062" lon="10.5456916"><ele>922.0</ele><time>2026-03-24T13:13:01.369Z</time></trkpt><trkpt lat="46.6705419" lon="10.5455706"><ele>922.0</ele><time>2026-03-24T13:13:03.377Z</time></trkpt><trkpt lat="46.6705732" lon="10.5454535"><ele>922.0</ele><time>2026-03-24T13:13:05.373Z</time></trkpt><trkpt lat="46.6706057" lon="10.5453306"><ele>922.1666666666666</ele><time>2026-03-24T13:13:07.369Z</time></trkpt><trkpt lat="46.6706365" lon="10.5452117"><ele>922.3333333333333</ele><time>2026-03-24T13:13:09.368Z</time></trkpt><trkpt lat="46.670665" lon="10.5451019"><ele>922.5</ele><time>2026-03-24T13:13:11.379Z</time></trkpt><trkpt lat="46.6707056" lon="10.5449807"><ele>922.6666666666667</ele><time>2026-03-24T13:13:13.359Z</time></trkpt><trkpt lat="46.6707456" lon="10.5448698"><ele>922.8333333333334</ele><time>2026-03-24T13:13:15.368Z</time></trkpt><trkpt lat="46.6707915" lon="10.5447697"><ele>923.0</ele><time>2026-03-24T13:13:17.377Z</time></trkpt><trkpt lat="46.6708435" lon="10.544665"><ele>923.0000000000001</ele><time>2026-03-24T13:13:19.381Z</time></trkpt><trkpt lat="46.6709005" lon="10.5445681"><ele>923.0</ele><time>2026-03-24T13:13:21.371Z</time></trkpt><trkpt lat="46.6709613" lon="10.5444697"><ele>923.0</ele><time>2026-03-24T13:13:23.38Z</time></trkpt><trkpt lat="46.6710184" lon="10.544369"><ele>923.0</ele><time>2026-03-24T13:13:25.364Z</time></trkpt><trkpt lat="46.6710749" lon="10.544266"><ele>923.0000000000001</ele><time>2026-03-24T13:13:27.36Z</time></trkpt><trkpt lat="46.6711312" lon="10.5441674"><ele>923.0</ele><time>2026-03-24T13:13:29.367Z</time></trkpt><trkpt lat="46.671189" lon="10.5440754"><ele>923.6666666666667</ele><time>2026-03-24T13:13:31.367Z</time></trkpt><trkpt lat="46.6712471" lon="10.5439874"><ele>924.3333333333334</ele><time>2026-03-24T13:13:33.362Z</time></trkpt><trkpt lat="46.6713016" lon="10.5438979"><ele>925.0</ele><time>2026-03-24T13:13:35.372Z</time></trkpt><trkpt lat="46.6713597" lon="10.5438112"><ele>925.6666666666667</ele><time>2026-03-24T13:13:37.365Z</time></trkpt><trkpt lat="46.6714176" lon="10.5437267"><ele>926.3333333333334</ele><time>2026-03-24T13:13:39.362Z</time></trkpt><trkpt lat="46.6714777" lon="10.5436406"><ele>927.0</ele><time>2026-03-24T13:13:41.387Z</time></trkpt><trkpt lat="46.671543" lon="10.5435657"><ele>927.1666666666666</ele><time>2026-03-24T13:13:43.375Z</time></trkpt><trkpt lat="46.6716143" lon="10.5435021"><ele>927.3333333333333</ele><time>2026-03-24T13:13:45.373Z</time></trkpt><trkpt lat="46.671688" lon="10.543447"><ele>927.5</ele><time>2026-03-24T13:13:47.385Z</time></trkpt><trkpt lat="46.6717621" lon="10.5433905"><ele>927.6666666666666</ele><time>2026-03-24T13:13:49.376Z</time></trkpt><trkpt lat="46.6718409" lon="10.5433375"><ele>927.8333333333333</ele><time>2026-03-24T13:13:51.375Z</time></trkpt><trkpt lat="46.6719164" lon="10.5432822"><ele>928.0</ele><time>2026-03-24T13:13:53.363Z</time></trkpt><trkpt lat="46.6719898" lon="10.5432262"><ele>928.6666666666666</ele><time>2026-03-24T13:13:55.362Z</time></trkpt><trkpt lat="46.6720636" lon="10.5431698"><ele>929.3333333333333</ele><time>2026-03-24T13:13:57.367Z</time></trkpt><trkpt lat="46.6721367" lon="10.5431163"><ele>930.0</ele><time>2026-03-24T13:13:59.388Z</time></trkpt><trkpt lat="46.6722091" lon="10.5430631"><ele>930.6666666666667</ele><time>2026-03-24T13:14:01.373Z</time></trkpt><trkpt lat="46.6722788" lon="10.5430066"><ele>931.3333333333334</ele><time>2026-03-24T13:14:03.376Z</time></trkpt><trkpt lat="46.6723514" lon="10.5429495"><ele>932.0</ele><time>2026-03-24T13:14:05.371Z</time></trkpt><trkpt lat="46.6724233" lon="10.5428916"><ele>932.5000000000001</ele><time>2026-03-24T13:14:07.374Z</time></trkpt><trkpt lat="46.6725063" lon="10.5428314"><ele>933.0</ele><time>2026-03-24T13:14:09.369Z</time></trkpt><trkpt lat="46.6725832" lon="10.5427723"><ele>933.5</ele><time>2026-03-24T13:14:11.385Z</time></trkpt><trkpt lat="46.6726619" lon="10.5427112"><ele>934.0</ele><time>2026-03-24T13:14:13.372Z</time></trkpt><trkpt lat="46.6727347" lon="10.5426524"><ele>934.5000000000001</ele><time>2026-03-24T13:14:15.375Z</time></trkpt><trkpt lat="46.6728014" lon="10.5426005"><ele>935.0</ele><time>2026-03-24T13:14:17.373Z</time></trkpt><trkpt lat="46.6728804" lon="10.5425335"><ele>935.1666666666667</ele><time>2026-03-24T13:14:19.38Z</time></trkpt><trkpt lat="46.6729467" lon="10.5424775"><ele>935.3333333333334</ele><time>2026-03-24T13:14:21.375Z</time></trkpt><trkpt lat="46.6729908" lon="10.5424097"><ele>935.5</ele><time>2026-03-24T13:14:23.377Z</time></trkpt><trkpt lat="46.6730312" lon="10.5423199"><ele>935.6666666666667</ele><time>2026-03-24T13:14:25.371Z</time></trkpt><trkpt lat="46.6730878" lon="10.5422012"><ele>935.8333333333334</ele><time>2026-03-24T13:14:27.362Z</time></trkpt><trkpt lat="46.6731419" lon="10.5420888"><ele>936.0</ele><time>2026-03-24T13:14:29.376Z</time></trkpt><trkpt lat="46.6731881" lon="10.5419959"><ele>936.0</ele><time>2026-03-24T13:14:31.386Z</time></trkpt><trkpt lat="46.6732253" lon="10.541887"><ele>936.0</ele><time>2026-03-24T13:14:33.387Z</time></trkpt><trkpt lat="46.6732542" lon="10.54179"><ele>936.0</ele><time>2026-03-24T13:14:35.366Z</time></trkpt><trkpt lat="46.6732949" lon="10.5416898"><ele>936.0</ele><time>2026-03-24T13:14:37.373Z</time></trkpt><trkpt lat="46.6733266" lon="10.5415831"><ele>936.0</ele><time>2026-03-24T13:14:39.369Z</time></trkpt><trkpt lat="46.6733588" lon="10.5414644"><ele>936.0</ele><time>2026-03-24T13:14:41.377Z</time></trkpt><trkpt lat="46.6733847" lon="10.5413548"><ele>936.0</ele><time>2026-03-24T13:14:43.39Z</time></trkpt><trkpt lat="46.6734132" lon="10.5412552"><ele>936.0</ele><time>2026-03-24T13:14:45.389Z</time></trkpt><trkpt lat="46.6734403" lon="10.5411362"><ele>936.0</ele><time>2026-03-24T13:14:47.377Z</time></trkpt><trkpt lat="46.6734643" lon="10.5410277"><ele>936.0</ele><time>2026-03-24T13:14:49.373Z</time></trkpt><trkpt lat="46.6734989" lon="10.5408994"><ele>936.0</ele><time>2026-03-24T13:14:51.372Z</time></trkpt><trkpt lat="46.6735398" lon="10.5407951"><ele>936.0</ele><time>2026-03-24T13:14:53.357Z</time></trkpt><trkpt lat="46.6735858" lon="10.5406875"><ele>936.0</ele><time>2026-03-24T13:14:55.368Z</time></trkpt><trkpt lat="46.673629" lon="10.5405847"><ele>936.0</ele><time>2026-03-24T13:14:57.358Z</time></trkpt><trkpt lat="46.6736638" lon="10.540484"><ele>936.0</ele><time>2026-03-24T13:14:59.377Z</time></trkpt><trkpt lat="46.6736951" lon="10.5403667"><ele>936.0</ele><time>2026-03-24T13:15:01.369Z</time></trkpt><trkpt lat="46.6737221" lon="10.5402478"><ele>936.0</ele><time>2026-03-24T13:15:03.361Z</time></trkpt><trkpt lat="46.6737654" lon="10.540125"><ele>936.0</ele><time>2026-03-24T13:15:05.372Z</time></trkpt><trkpt lat="46.6738201" lon="10.5400094"><ele>936.5</ele><time>2026-03-24T13:15:07.37Z</time></trkpt><trkpt lat="46.6738888" lon="10.5399138"><ele>937.0</ele><time>2026-03-24T13:15:09.39Z</time></trkpt><trkpt lat="46.6739524" lon="10.5398267"><ele>937.5</ele><time>2026-03-24T13:15:11.385Z</time></trkpt><trkpt lat="46.6740112" lon="10.5397373"><ele>938.0</ele><time>2026-03-24T13:15:13.388Z</time></trkpt><trkpt lat="46.67407" lon="10.5396544"><ele>938.5</ele><time>2026-03-24T13:15:15.381Z</time></trkpt><trkpt lat="46.6741303" lon="10.5395659"><ele>939.0</ele><time>2026-03-24T13:15:17.375Z</time></trkpt><trkpt lat="46.6741966" lon="10.5394771"><ele>939.5</ele><time>2026-03-24T13:15:19.374Z</time></trkpt><trkpt lat="46.6742624" lon="10.5393898"><ele>940.0</ele><time>2026-03-24T13:15:21.377Z</time></trkpt><trkpt lat="46.6743243" lon="10.5393081"><ele>940.5</ele><time>2026-03-24T13:15:23.383Z</time></trkpt><trkpt lat="46.6743821" lon="10.5392219"><ele>941.0</ele><time>2026-03-24T13:15:25.379Z</time></trkpt><trkpt lat="46.6744391" lon="10.5391299"><ele>941.5</ele><time>2026-03-24T13:15:27.37Z</time></trkpt><trkpt lat="46.6744948" lon="10.5390417"><ele>942.0</ele><time>2026-03-24T13:15:29.373Z</time></trkpt><trkpt lat="46.6745483" lon="10.5389565"><ele>942.2857142857144</ele><time>2026-03-24T13:15:31.373Z</time></trkpt><trkpt lat="46.6745951" lon="10.5388739"><ele>942.5714285714287</ele><time>2026-03-24T13:15:33.37Z</time></trkpt><trkpt lat="46.674642" lon="10.5388004"><ele>942.8571428571429</ele><time>2026-03-24T13:15:35.376Z</time></trkpt><trkpt lat="46.6746875" lon="10.5387317"><ele>943.1428571428572</ele><time>2026-03-24T13:15:37.365Z</time></trkpt><trkpt lat="46.6747309" lon="10.5386595"><ele>943.4285714285716</ele><time>2026-03-24T13:15:39.368Z</time></trkpt><trkpt lat="46.6747819" lon="10.5385804"><ele>943.7142857142857</ele><time>2026-03-24T13:15:41.373Z</time></trkpt><trkpt lat="46.6748308" lon="10.5385011"><ele>944.0</ele><time>2026-03-24T13:15:43.37Z</time></trkpt><trkpt lat="46.6748807" lon="10.5384194"><ele>944.0</ele><time>2026-03-24T13:15:45.383Z</time></trkpt><trkpt lat="46.6749305" lon="10.5383425"><ele>944.0</ele><time>2026-03-24T13:15:47.376Z</time></trkpt><trkpt lat="46.6749781" lon="10.5382642"><ele>944.0</ele><time>2026-03-24T13:15:49.376Z</time></trkpt><trkpt lat="46.6750259" lon="10.5381891"><ele>944.0</ele><time>2026-03-24T13:15:51.373Z</time></trkpt><trkpt lat="46.6750748" lon="10.5381125"><ele>944.0</ele><time>2026-03-24T13:15:53.38Z</time></trkpt><trkpt lat="46.6751254" lon="10.5380361"><ele>944.0</ele><time>2026-03-24T13:15:55.366Z</time></trkpt><trkpt lat="46.6751734" lon="10.537958"><ele>944.0</ele><time>2026-03-24T13:15:57.372Z</time></trkpt><trkpt lat="46.6752196" lon="10.5378783"><ele>944.2857142857142</ele><time>2026-03-24T13:15:59.379Z</time></trkpt><trkpt lat="46.6752634" lon="10.5377961"><ele>944.5714285714287</ele><time>2026-03-24T13:16:01.367Z</time></trkpt><trkpt lat="46.6753105" lon="10.5377148"><ele>944.8571428571429</ele><time>2026-03-24T13:16:03.38Z</time></trkpt><trkpt lat="46.6753586" lon="10.5376346"><ele>945.1428571428571</ele><time>2026-03-24T13:16:05.379Z</time></trkpt><trkpt lat="46.6754061" lon="10.5375551"><ele>945.4285714285713</ele><time>2026-03-24T13:16:07.369Z</time></trkpt><trkpt lat="46.6754552" lon="10.5374734"><ele>945.7142857142858</ele><time>2026-03-24T13:16:09.376Z</time></trkpt><trkpt lat="46.6755024" lon="10.5373961"><ele>946.0</ele><time>2026-03-24T13:16:11.37Z</time></trkpt><trkpt lat="46.6755536" lon="10.5373224"><ele>946.7142857142858</ele><time>2026-03-24T13:16:13.372Z</time></trkpt><trkpt lat="46.6756038" lon="10.5372436"><ele>947.4285714285713</ele><time>2026-03-24T13:16:15.37Z</time></trkpt><trkpt lat="46.675658" lon="10.5371729"><ele>948.1428571428571</ele><time>2026-03-24T13:16:17.375Z</time></trkpt><trkpt lat="46.6757149" lon="10.5371042"><ele>948.8571428571429</ele><time>2026-03-24T13:16:19.365Z</time></trkpt><trkpt lat="46.6757708" lon="10.537038"><ele>949.5714285714287</ele><time>2026-03-24T13:16:21.371Z</time></trkpt><trkpt lat="46.6758291" lon="10.5369692"><ele>950.2857142857142</ele><time>2026-03-24T13:16:23.373Z</time></trkpt><trkpt lat="46.6758845" lon="10.5369062"><ele>951.0</ele><time>2026-03-24T13:16:25.367Z</time></trkpt><trkpt lat="46.6759359" lon="10.5368431"><ele>951.0</ele><time>2026-03-24T13:16:27.375Z</time></trkpt><trkpt lat="46.675986" lon="10.5367732"><ele>951.0</ele><time>2026-03-24T13:16:29.367Z</time></trkpt><trkpt lat="46.6760387" lon="10.5367009"><ele>951.0</ele><time>2026-03-24T13:16:31.366Z</time></trkpt><trkpt lat="46.6760906" lon="10.5366307"><ele>951.0</ele><time>2026-03-24T13:16:33.375Z</time></trkpt><trkpt lat="46.6761366" lon="10.5365533"><ele>951.0</ele><time>2026-03-24T13:16:35.38Z</time></trkpt><trkpt lat="46.6761805" lon="10.5364761"><ele>951.0</ele><time>2026-03-24T13:16:37.366Z</time></trkpt><trkpt lat="46.6762226" lon="10.5363985"><ele>951.0</ele><time>2026-03-24T13:16:39.358Z</time></trkpt><trkpt lat="46.6762667" lon="10.5363102"><ele>951.2857142857142</ele><time>2026-03-24T13:16:41.366Z</time></trkpt><trkpt lat="46.6763101" lon="10.5362287"><ele>951.5714285714287</ele><time>2026-03-24T13:16:43.374Z</time></trkpt><trkpt lat="46.6763566" lon="10.536142"><ele>951.8571428571429</ele><time>2026-03-24T13:16:45.383Z</time></trkpt><trkpt lat="46.6764038" lon="10.5360602"><ele>952.1428571428571</ele><time>2026-03-24T13:16:47.371Z</time></trkpt><trkpt lat="46.6764507" lon="10.5359816"><ele>952.4285714285713</ele><time>2026-03-24T13:16:49.366Z</time></trkpt><trkpt lat="46.6765043" lon="10.5359111"><ele>952.7142857142858</ele><time>2026-03-24T13:16:51.365Z</time></trkpt><trkpt lat="46.676559" lon="10.5358444"><ele>953.0</ele><time>2026-03-24T13:16:53.372Z</time></trkpt><trkpt lat="46.6766143" lon="10.5357804"><ele>953.0</ele><time>2026-03-24T13:16:55.371Z</time></trkpt><trkpt lat="46.6766684" lon="10.5357146"><ele>953.0</ele><time>2026-03-24T13:16:57.36Z</time></trkpt><trkpt lat="46.6767205" lon="10.5356412"><ele>953.0</ele><time>2026-03-24T13:16:59.376Z</time></trkpt><trkpt lat="46.6767714" lon="10.5355664"><ele>953.0</ele><time>2026-03-24T13:17:01.375Z</time></trkpt><trkpt lat="46.6768234" lon="10.5354879"><ele>953.0</ele><time>2026-03-24T13:17:03.368Z</time></trkpt><trkpt lat="46.6768691" lon="10.5354027"><ele>953.0</ele><time>2026-03-24T13:17:05.368Z</time></trkpt><trkpt lat="46.6769176" lon="10.535324"><ele>953.0</ele><time>2026-03-24T13:17:07.397Z</time></trkpt><trkpt lat="46.6769684" lon="10.535249"><ele>953.8571428571429</ele><time>2026-03-24T13:17:09.375Z</time></trkpt><trkpt lat="46.6770157" lon="10.5351741"><ele>954.7142857142857</ele><time>2026-03-24T13:17:11.373Z</time></trkpt><trkpt lat="46.6770626" lon="10.5350919"><ele>955.5714285714286</ele><time>2026-03-24T13:17:13.371Z</time></trkpt><trkpt lat="46.6771102" lon="10.5350116"><ele>956.4285714285714</ele><time>2026-03-24T13:17:15.368Z</time></trkpt><trkpt lat="46.6771541" lon="10.5349323"><ele>957.2857142857142</ele><time>2026-03-24T13:17:17.376Z</time></trkpt><trkpt lat="46.6772014" lon="10.5348441"><ele>958.1428571428571</ele><time>2026-03-24T13:17:19.393Z</time></trkpt><trkpt lat="46.6772514" lon="10.5347775"><ele>959.0</ele><time>2026-03-24T13:17:21.36Z</time></trkpt><trkpt lat="46.6773105" lon="10.5347101"><ele>959.0000000000001</ele><time>2026-03-24T13:17:23.366Z</time></trkpt><trkpt lat="46.6773691" lon="10.5346415"><ele>959.0</ele><time>2026-03-24T13:17:25.375Z</time></trkpt><trkpt lat="46.6774274" lon="10.5345704"><ele>959.0</ele><time>2026-03-24T13:17:27.363Z</time></trkpt><trkpt lat="46.6774971" lon="10.5344868"><ele>959.0</ele><time>2026-03-24T13:17:30.376Z</time></trkpt><trkpt lat="46.6775518" lon="10.5344086"><ele>959.0000000000001</ele><time>2026-03-24T13:17:32.367Z</time></trkpt><trkpt lat="46.6776073" lon="10.5343232"><ele>959.0</ele><time>2026-03-24T13:17:34.377Z</time></trkpt><trkpt lat="46.6776589" lon="10.5342437"><ele>959.0</ele><time>2026-03-24T13:17:36.373Z</time></trkpt><trkpt lat="46.6777107" lon="10.534165"><ele>959.0</ele><time>2026-03-24T13:17:38.356Z</time></trkpt><trkpt lat="46.6777607" lon="10.5340858"><ele>959.0</ele><time>2026-03-24T13:17:40.37Z</time></trkpt><trkpt lat="46.6778114" lon="10.5340078"><ele>959.0</ele><time>2026-03-24T13:17:42.356Z</time></trkpt><trkpt lat="46.6778598" lon="10.5339316"><ele>959.0</ele><time>2026-03-24T13:17:44.38Z</time></trkpt><trkpt lat="46.6779078" lon="10.5338543"><ele>959.0</ele><time>2026-03-24T13:17:46.385Z</time></trkpt><trkpt lat="46.6779535" lon="10.5337806"><ele>959.0</ele><time>2026-03-24T13:17:48.37Z</time></trkpt><trkpt lat="46.6779987" lon="10.5337054"><ele>960.0</ele><time>2026-03-24T13:17:50.37Z</time></trkpt><trkpt lat="46.6780439" lon="10.5336328"><ele>961.0</ele><time>2026-03-24T13:17:52.366Z</time></trkpt><trkpt lat="46.6780885" lon="10.5335605"><ele>962.0</ele><time>2026-03-24T13:17:54.371Z</time></trkpt><trkpt lat="46.6781344" lon="10.5334867"><ele>963.0</ele><time>2026-03-24T13:17:56.373Z</time></trkpt><trkpt lat="46.6781815" lon="10.533412"><ele>964.0</ele><time>2026-03-24T13:17:58.364Z</time></trkpt><trkpt lat="46.6782274" lon="10.5333465"><ele>965.0</ele><time>2026-03-24T13:18:00.38Z</time></trkpt><trkpt lat="46.6782798" lon="10.5332743"><ele>966.0</ele><time>2026-03-24T13:18:02.377Z</time></trkpt><trkpt lat="46.6783339" lon="10.5332052"><ele>966.0</ele><time>2026-03-24T13:18:04.373Z</time></trkpt><trkpt lat="46.6783908" lon="10.5331249"><ele>966.0</ele><time>2026-03-24T13:18:06.382Z</time></trkpt><trkpt lat="46.6784403" lon="10.5330542"><ele>966.0</ele><time>2026-03-24T13:18:08.366Z</time></trkpt><trkpt lat="46.6784982" lon="10.5329793"><ele>966.0</ele><time>2026-03-24T13:18:10.376Z</time></trkpt><trkpt lat="46.6785578" lon="10.5329132"><ele>966.0</ele><time>2026-03-24T13:18:12.375Z</time></trkpt><trkpt lat="46.6786174" lon="10.5328476"><ele>966.0</ele><time>2026-03-24T13:18:14.376Z</time></trkpt><trkpt lat="46.6786741" lon="10.5327884"><ele>966.0</ele><time>2026-03-24T13:18:16.369Z</time></trkpt><trkpt lat="46.6787312" lon="10.5327283"><ele>967.1428571428571</ele><time>2026-03-24T13:18:18.396Z</time></trkpt><trkpt lat="46.6787843" lon="10.5326605"><ele>968.2857142857142</ele><time>2026-03-24T13:18:20.377Z</time></trkpt><trkpt lat="46.6788375" lon="10.5325935"><ele>969.4285714285714</ele><time>2026-03-24T13:18:22.373Z</time></trkpt><trkpt lat="46.678887" lon="10.532528"><ele>970.5714285714286</ele><time>2026-03-24T13:18:24.366Z</time></trkpt><trkpt lat="46.6789317" lon="10.5324628"><ele>971.7142857142857</ele><time>2026-03-24T13:18:26.368Z</time></trkpt><trkpt lat="46.678977" lon="10.5323972"><ele>972.8571428571429</ele><time>2026-03-24T13:18:28.378Z</time></trkpt><trkpt lat="46.6790468" lon="10.5323039"><ele>974.0</ele><time>2026-03-24T13:18:31.366Z</time></trkpt><trkpt lat="46.6790941" lon="10.5322386"><ele>974.0000000000001</ele><time>2026-03-24T13:18:33.388Z</time></trkpt><trkpt lat="46.6791664" lon="10.5321639"><ele>974.0</ele><time>2026-03-24T13:18:36.376Z</time></trkpt><trkpt lat="46.6792232" lon="10.532111"><ele>974.0</ele><time>2026-03-24T13:18:38.38Z</time></trkpt><trkpt lat="46.679279" lon="10.5320654"><ele>974.0</ele><time>2026-03-24T13:18:40.367Z</time></trkpt><trkpt lat="46.6793497" lon="10.5319915"><ele>974.0000000000001</ele><time>2026-03-24T13:18:43.367Z</time></trkpt><trkpt lat="46.6794154" lon="10.5319263"><ele>974.0</ele><time>2026-03-24T13:18:45.366Z</time></trkpt><trkpt lat="46.6794742" lon="10.5318646"><ele>974.5000000000001</ele><time>2026-03-24T13:18:47.372Z</time></trkpt><trkpt lat="46.6795283" lon="10.5318064"><ele>975.0</ele><time>2026-03-24T13:18:49.369Z</time></trkpt><trkpt lat="46.6795797" lon="10.5317323"><ele>975.5</ele><time>2026-03-24T13:18:52.37Z</time></trkpt><trkpt lat="46.6796417" lon="10.5316542"><ele>976.0</ele><time>2026-03-24T13:18:55.374Z</time></trkpt><trkpt lat="46.6797093" lon="10.5315958"><ele>976.5000000000001</ele><time>2026-03-24T13:18:58.366Z</time></trkpt><trkpt lat="46.6797805" lon="10.5315371"><ele>977.0</ele><time>2026-03-24T13:19:01.371Z</time></trkpt><trkpt lat="46.6798437" lon="10.5314895"><ele>977.0000000000001</ele><time>2026-03-24T13:19:03.364Z</time></trkpt><trkpt lat="46.6799341" lon="10.531444"><ele>977.0</ele><time>2026-03-24T13:19:05.379Z</time></trkpt><trkpt lat="46.6800229" lon="10.5313951"><ele>977.0</ele><time>2026-03-24T13:19:07.372Z</time></trkpt><trkpt lat="46.6801026" lon="10.5313585"><ele>977.0</ele><time>2026-03-24T13:19:09.361Z</time></trkpt><trkpt lat="46.6801741" lon="10.5313206"><ele>977.0000000000001</ele><time>2026-03-24T13:19:11.368Z</time></trkpt><trkpt lat="46.6802344" lon="10.5312746"><ele>977.0</ele><time>2026-03-24T13:19:13.369Z</time></trkpt><trkpt lat="46.680291" lon="10.5312195"><ele>977.4285714285716</ele><time>2026-03-24T13:19:15.365Z</time></trkpt><trkpt lat="46.6803536" lon="10.5311647"><ele>977.8571428571429</ele><time>2026-03-24T13:19:17.363Z</time></trkpt><trkpt lat="46.6804153" lon="10.5311015"><ele>978.2857142857143</ele><time>2026-03-24T13:19:19.373Z</time></trkpt><trkpt lat="46.6804711" lon="10.5310531"><ele>978.7142857142858</ele><time>2026-03-24T13:19:21.37Z</time></trkpt><trkpt lat="46.6805326" lon="10.5310073"><ele>979.1428571428571</ele><time>2026-03-24T13:19:23.38Z</time></trkpt><trkpt lat="46.6806018" lon="10.5309518"><ele>979.5714285714286</ele><time>2026-03-24T13:19:25.389Z</time></trkpt><trkpt lat="46.6806713" lon="10.5309085"><ele>980.0</ele><time>2026-03-24T13:19:27.374Z</time></trkpt><trkpt lat="46.680745" lon="10.5308701"><ele>980.0</ele><time>2026-03-24T13:19:29.374Z</time></trkpt><trkpt lat="46.6808174" lon="10.5308345"><ele>980.0</ele><time>2026-03-24T13:19:31.376Z</time></trkpt><trkpt lat="46.6808863" lon="10.5307957"><ele>980.0</ele><time>2026-03-24T13:19:33.376Z</time></trkpt><trkpt lat="46.6809544" lon="10.5307512"><ele>980.0</ele><time>2026-03-24T13:19:35.37Z</time></trkpt><trkpt lat="46.6810222" lon="10.5307079"><ele>980.0</ele><time>2026-03-24T13:19:37.383Z</time></trkpt><trkpt lat="46.68108" lon="10.5306685"><ele>980.0</ele><time>2026-03-24T13:19:39.376Z</time></trkpt><trkpt lat="46.6811364" lon="10.5306246"><ele>980.0</ele><time>2026-03-24T13:19:41.371Z</time></trkpt><trkpt lat="46.6812111" lon="10.5305568"><ele>981.0000000000001</ele><time>2026-03-24T13:19:44.376Z</time></trkpt><trkpt lat="46.6812872" lon="10.5304956"><ele>982.0</ele><time>2026-03-24T13:19:47.379Z</time></trkpt><trkpt lat="46.6813495" lon="10.5304336"><ele>983.0</ele><time>2026-03-24T13:19:49.382Z</time></trkpt><trkpt lat="46.6814263" lon="10.5303598"><ele>984.0</ele><time>2026-03-24T13:19:51.367Z</time></trkpt><trkpt lat="46.6814981" lon="10.5302995"><ele>985.0000000000001</ele><time>2026-03-24T13:19:53.371Z</time></trkpt><trkpt lat="46.681595" lon="10.5302463"><ele>986.0</ele><time>2026-03-24T13:19:56.363Z</time></trkpt><trkpt lat="46.6816669" lon="10.5302117"><ele>986.0</ele><time>2026-03-24T13:19:58.363Z</time></trkpt><trkpt lat="46.681737" lon="10.5301862"><ele>986.0</ele><time>2026-03-24T13:20:00.351Z</time></trkpt><trkpt lat="46.6818038" lon="10.5301497"><ele>986.0</ele><time>2026-03-24T13:20:02.37Z</time></trkpt><trkpt lat="46.6818701" lon="10.5301015"><ele>986.0</ele><time>2026-03-24T13:20:04.371Z</time></trkpt><trkpt lat="46.6819283" lon="10.5300535"><ele>986.0</ele><time>2026-03-24T13:20:06.376Z</time></trkpt><trkpt lat="46.6819848" lon="10.5300125"><ele>986.0</ele><time>2026-03-24T13:20:08.368Z</time></trkpt><trkpt lat="46.6820423" lon="10.5299695"><ele>986.0</ele><time>2026-03-24T13:20:10.375Z</time></trkpt><trkpt lat="46.6821015" lon="10.5299309"><ele>986.1428571428571</ele><time>2026-03-24T13:20:12.393Z</time></trkpt><trkpt lat="46.6821665" lon="10.5298918"><ele>986.2857142857143</ele><time>2026-03-24T13:20:14.371Z</time></trkpt><trkpt lat="46.6822381" lon="10.5298668"><ele>986.4285714285714</ele><time>2026-03-24T13:20:16.377Z</time></trkpt><trkpt lat="46.6823059" lon="10.529835"><ele>986.5714285714286</ele><time>2026-03-24T13:20:18.365Z</time></trkpt><trkpt lat="46.6823672" lon="10.5297981"><ele>986.7142857142858</ele><time>2026-03-24T13:20:20.362Z</time></trkpt><trkpt lat="46.6824353" lon="10.5297662"><ele>986.8571428571429</ele><time>2026-03-24T13:20:22.355Z</time></trkpt><trkpt lat="46.6824957" lon="10.5297347"><ele>987.0</ele><time>2026-03-24T13:20:24.38Z</time></trkpt><trkpt lat="46.6825601" lon="10.5297001"><ele>987.0</ele><time>2026-03-24T13:20:26.365Z</time></trkpt><trkpt lat="46.6826227" lon="10.5296547"><ele>987.0</ele><time>2026-03-24T13:20:28.374Z</time></trkpt><trkpt lat="46.6826854" lon="10.5296054"><ele>987.0</ele><time>2026-03-24T13:20:30.375Z</time></trkpt><trkpt lat="46.6827488" lon="10.5295679"><ele>987.0</ele><time>2026-03-24T13:20:32.367Z</time></trkpt><trkpt lat="46.6828087" lon="10.5295254"><ele>987.0</ele><time>2026-03-24T13:20:34.368Z</time></trkpt><trkpt lat="46.6828652" lon="10.5294836"><ele>987.0</ele><time>2026-03-24T13:20:36.379Z</time></trkpt><trkpt lat="46.6829323" lon="10.5294266"><ele>987.0</ele><time>2026-03-24T13:20:39.372Z</time></trkpt><trkpt lat="46.683004" lon="10.5293796"><ele>989.0</ele><time>2026-03-24T13:20:41.351Z</time></trkpt><trkpt lat="46.6830677" lon="10.5293395"><ele>991.0</ele><time>2026-03-24T13:20:43.383Z</time></trkpt><trkpt lat="46.6831392" lon="10.5293011"><ele>993.0</ele><time>2026-03-24T13:20:45.365Z</time></trkpt><trkpt lat="46.6832022" lon="10.5292607"><ele>995.0</ele><time>2026-03-24T13:20:47.36Z</time></trkpt><trkpt lat="46.6832664" lon="10.5292269"><ele>997.0</ele><time>2026-03-24T13:20:49.361Z</time></trkpt><trkpt lat="46.6833551" lon="10.5291693"><ele>999.0</ele><time>2026-03-24T13:20:52.387Z</time></trkpt><trkpt lat="46.6834449" lon="10.5291177"><ele>999.0</ele><time>2026-03-24T13:20:55.369Z</time></trkpt><trkpt lat="46.6835084" lon="10.529082"><ele>999.0</ele><time>2026-03-24T13:20:57.366Z</time></trkpt><trkpt lat="46.6835709" lon="10.5290487"><ele>999.0</ele><time>2026-03-24T13:20:59.372Z</time></trkpt><trkpt lat="46.6836521" lon="10.5290021"><ele>999.0</ele><time>2026-03-24T13:21:02.366Z</time></trkpt><trkpt lat="46.6837368" lon="10.528943"><ele>999.0</ele><time>2026-03-24T13:21:05.373Z</time></trkpt><trkpt lat="46.6837991" lon="10.5289088"><ele>999.0</ele><time>2026-03-24T13:21:07.374Z</time></trkpt><trkpt lat="46.6838775" lon="10.5288666"><ele>999.6666666666666</ele><time>2026-03-24T13:21:10.369Z</time></trkpt><trkpt lat="46.6839633" lon="10.5288117"><ele>1000.3333333333333</ele><time>2026-03-24T13:21:13.368Z</time></trkpt><trkpt lat="46.6840227" lon="10.5287642"><ele>1001.0</ele><time>2026-03-24T13:21:15.382Z</time></trkpt><trkpt lat="46.6841115" lon="10.5286905"><ele>1001.6666666666666</ele><time>2026-03-24T13:21:18.37Z</time></trkpt><trkpt lat="46.6841756" lon="10.5286347"><ele>1002.3333333333333</ele><time>2026-03-24T13:21:20.363Z</time></trkpt><trkpt lat="46.6842323" lon="10.5285767"><ele>1003.0</ele><time>2026-03-24T13:21:22.381Z</time></trkpt><trkpt lat="46.6842911" lon="10.5285153"><ele>1003.9999999999999</ele><time>2026-03-24T13:21:24.362Z</time></trkpt><trkpt lat="46.684366" lon="10.5284461"><ele>1005.0</ele><time>2026-03-24T13:21:27.371Z</time></trkpt><trkpt lat="46.6844279" lon="10.528393"><ele>1006.0</ele><time>2026-03-24T13:21:30.364Z</time></trkpt><trkpt lat="46.6844939" lon="10.5283348"><ele>1007.0</ele><time>2026-03-24T13:21:33.36Z</time></trkpt><trkpt lat="46.6845522" lon="10.5282783"><ele>1007.9999999999999</ele><time>2026-03-24T13:21:35.37Z</time></trkpt><trkpt lat="46.6846102" lon="10.5282186"><ele>1009.0</ele><time>2026-03-24T13:21:37.371Z</time></trkpt><trkpt lat="46.6846765" lon="10.5281582"><ele>1008.9999999999999</ele><time>2026-03-24T13:21:40.374Z</time></trkpt><trkpt lat="46.6847653" lon="10.5280973"><ele>1009.0</ele><time>2026-03-24T13:21:43.36Z</time></trkpt><trkpt lat="46.6848199" lon="10.5280463"><ele>1009.0</ele><time>2026-03-24T13:21:45.37Z</time></trkpt><trkpt lat="46.6848818" lon="10.5279687"><ele>1009.0</ele><time>2026-03-24T13:21:47.373Z</time></trkpt><trkpt lat="46.6849498" lon="10.5278923"><ele>1008.9999999999999</ele><time>2026-03-24T13:21:49.361Z</time></trkpt><trkpt lat="46.6850115" lon="10.5278238"><ele>1009.0</ele><time>2026-03-24T13:21:51.383Z</time></trkpt><trkpt lat="46.6850707" lon="10.5277607"><ele>1009.8333333333333</ele><time>2026-03-24T13:21:53.375Z</time></trkpt><trkpt lat="46.6851266" lon="10.5277072"><ele>1010.6666666666666</ele><time>2026-03-24T13:21:55.368Z</time></trkpt><trkpt lat="46.685181" lon="10.5276533"><ele>1011.5</ele><time>2026-03-24T13:21:57.38Z</time></trkpt><trkpt lat="46.6852549" lon="10.527576"><ele>1012.3333333333333</ele><time>2026-03-24T13:22:00.37Z</time></trkpt><trkpt lat="46.6853307" lon="10.5275046"><ele>1013.1666666666666</ele><time>2026-03-24T13:22:03.378Z</time></trkpt><trkpt lat="46.6854001" lon="10.5274388"><ele>1014.0</ele><time>2026-03-24T13:22:06.386Z</time></trkpt><trkpt lat="46.6854723" lon="10.5273847"><ele>1014.0</ele><time>2026-03-24T13:22:09.368Z</time></trkpt><trkpt lat="46.6855428" lon="10.5273317"><ele>1014.0</ele><time>2026-03-24T13:22:12.375Z</time></trkpt><trkpt lat="46.6856155" lon="10.5272893"><ele>1014.0</ele><time>2026-03-24T13:22:15.377Z</time></trkpt><trkpt lat="46.685689" lon="10.5272519"><ele>1014.0</ele><time>2026-03-24T13:22:18.38Z</time></trkpt><trkpt lat="46.6857654" lon="10.5272182"><ele>1014.0</ele><time>2026-03-24T13:22:21.368Z</time></trkpt><trkpt lat="46.6858475" lon="10.5271912"><ele>1014.0</ele><time>2026-03-24T13:22:24.366Z</time></trkpt><trkpt lat="46.6859235" lon="10.5271686"><ele>1014.0</ele><time>2026-03-24T13:22:27.376Z</time></trkpt><trkpt lat="46.6860026" lon="10.5271427"><ele>1014.0</ele><time>2026-03-24T13:22:30.372Z</time></trkpt><trkpt lat="46.6860743" lon="10.5271121"><ele>1014.0</ele><time>2026-03-24T13:22:33.364Z</time></trkpt><trkpt lat="46.686141" lon="10.5270575"><ele>1014.0</ele><time>2026-03-24T13:22:36.372Z</time></trkpt><trkpt lat="46.6861922" lon="10.5269991"><ele>1014.0</ele><time>2026-03-24T13:22:39.376Z</time></trkpt><trkpt lat="46.6862505" lon="10.5269269"><ele>1014.0</ele><time>2026-03-24T13:22:42.36Z</time></trkpt><trkpt lat="46.6863107" lon="10.5268489"><ele>1015.0</ele><time>2026-03-24T13:22:45.373Z</time></trkpt><trkpt lat="46.6863719" lon="10.5267652"><ele>1016.0</ele><time>2026-03-24T13:22:48.375Z</time></trkpt><trkpt lat="46.6864337" lon="10.5266847"><ele>1017.0</ele><time>2026-03-24T13:22:51.378Z</time></trkpt><trkpt lat="46.6864972" lon="10.5266052"><ele>1018.0</ele><time>2026-03-24T13:22:54.363Z</time></trkpt><trkpt lat="46.6865444" lon="10.5265442"><ele>1019.0</ele><time>2026-03-24T13:22:56.366Z</time></trkpt><trkpt lat="46.686604" lon="10.526468"><ele>1020.0</ele><time>2026-03-24T13:22:59.375Z</time></trkpt><trkpt lat="46.6866691" lon="10.5263845"><ele>1020.0</ele><time>2026-03-24T13:23:02.371Z</time></trkpt><trkpt lat="46.6867321" lon="10.5263033"><ele>1020.0</ele><time>2026-03-24T13:23:05.369Z</time></trkpt><trkpt lat="46.6867969" lon="10.5262337"><ele>1020.0</ele><time>2026-03-24T13:23:08.38Z</time></trkpt><trkpt lat="46.6868685" lon="10.5261539"><ele>1020.0</ele><time>2026-03-24T13:23:11.377Z</time></trkpt><trkpt lat="46.6869407" lon="10.5260718"><ele>1020.0</ele><time>2026-03-24T13:23:14.373Z</time></trkpt><trkpt lat="46.6870166" lon="10.5260006"><ele>1020.0</ele><time>2026-03-24T13:23:17.372Z</time></trkpt><trkpt lat="46.6870928" lon="10.5259292"><ele>1021.0</ele><time>2026-03-24T13:23:20.363Z</time></trkpt><trkpt lat="46.6871712" lon="10.5258572"><ele>1022.0</ele><time>2026-03-24T13:23:23.376Z</time></trkpt><trkpt lat="46.6872347" lon="10.5257888"><ele>1023.0</ele><time>2026-03-24T13:23:26.36Z</time></trkpt><trkpt lat="46.6872978" lon="10.5257622"><ele>1024.0</ele><time>2026-03-24T13:24:04.35Z</time></trkpt><trkpt lat="46.6873538" lon="10.525702"><ele>1025.0</ele><time>2026-03-24T13:24:07.359Z</time></trkpt><trkpt lat="46.6874309" lon="10.5256137"><ele>1026.0</ele><time>2026-03-24T13:24:10.349Z</time></trkpt><trkpt lat="46.6874828" lon="10.5255475"><ele>1026.0</ele><time>2026-03-24T13:24:12.368Z</time></trkpt><trkpt lat="46.6875486" lon="10.5254822"><ele>1026.0</ele><time>2026-03-24T13:24:14.36Z</time></trkpt><trkpt lat="46.6876179" lon="10.5254027"><ele>1026.0</ele><time>2026-03-24T13:24:16.376Z</time></trkpt><trkpt lat="46.6876899" lon="10.5253187"><ele>1026.0</ele><time>2026-03-24T13:24:18.362Z</time></trkpt><trkpt lat="46.6877435" lon="10.5252535"><ele>1026.0</ele><time>2026-03-24T13:24:20.382Z</time></trkpt><trkpt lat="46.6878011" lon="10.5251919"><ele>1026.0</ele><time>2026-03-24T13:24:22.371Z</time></trkpt><trkpt lat="46.6878606" lon="10.5251247"><ele>1026.8333333333333</ele><time>2026-03-24T13:24:24.379Z</time></trkpt><trkpt lat="46.6879258" lon="10.5250467"><ele>1027.6666666666667</ele><time>2026-03-24T13:24:26.362Z</time></trkpt><trkpt lat="46.6879955" lon="10.5249763"><ele>1028.5</ele><time>2026-03-24T13:24:28.368Z</time></trkpt><trkpt lat="46.6880608" lon="10.5249124"><ele>1029.3333333333335</ele><time>2026-03-24T13:24:30.364Z</time></trkpt><trkpt lat="46.6881229" lon="10.5248491"><ele>1030.1666666666667</ele><time>2026-03-24T13:24:32.367Z</time></trkpt><trkpt lat="46.6881805" lon="10.5247966"><ele>1031.0</ele><time>2026-03-24T13:24:34.376Z</time></trkpt><trkpt lat="46.6882381" lon="10.5247381"><ele>1031.0</ele><time>2026-03-24T13:24:36.367Z</time></trkpt><trkpt lat="46.6883019" lon="10.5246693"><ele>1031.0</ele><time>2026-03-24T13:24:38.367Z</time></trkpt><trkpt lat="46.6883672" lon="10.5246007"><ele>1031.0</ele><time>2026-03-24T13:24:40.368Z</time></trkpt><trkpt lat="46.6884336" lon="10.5245343"><ele>1031.0</ele><time>2026-03-24T13:24:42.366Z</time></trkpt><trkpt lat="46.6884879" lon="10.5244664"><ele>1031.0</ele><time>2026-03-24T13:24:44.366Z</time></trkpt><trkpt lat="46.6885444" lon="10.5244027"><ele>1031.0</ele><time>2026-03-24T13:24:46.357Z</time></trkpt><trkpt lat="46.6886008" lon="10.5243346"><ele>1031.5714285714284</ele><time>2026-03-24T13:24:48.361Z</time></trkpt><trkpt lat="46.6886632" lon="10.5242749"><ele>1032.142857142857</ele><time>2026-03-24T13:24:50.365Z</time></trkpt><trkpt lat="46.6887223" lon="10.5242115"><ele>1032.7142857142858</ele><time>2026-03-24T13:24:52.383Z</time></trkpt><trkpt lat="46.6887768" lon="10.5241422"><ele>1033.2857142857142</ele><time>2026-03-24T13:24:54.364Z</time></trkpt><trkpt lat="46.6888325" lon="10.5240713"><ele>1033.857142857143</ele><time>2026-03-24T13:24:56.372Z</time></trkpt><trkpt lat="46.6888901" lon="10.5240058"><ele>1034.4285714285713</ele><time>2026-03-24T13:24:58.375Z</time></trkpt><trkpt lat="46.6889468" lon="10.5239373"><ele>1035.0</ele><time>2026-03-24T13:25:00.377Z</time></trkpt><trkpt lat="46.6890054" lon="10.523869"><ele>1035.0</ele><time>2026-03-24T13:25:02.359Z</time></trkpt><trkpt lat="46.6890635" lon="10.5238036"><ele>1035.0</ele><time>2026-03-24T13:25:04.368Z</time></trkpt><trkpt lat="46.6891217" lon="10.5237394"><ele>1035.0</ele><time>2026-03-24T13:25:06.385Z</time></trkpt><trkpt lat="46.6891795" lon="10.5236754"><ele>1035.0</ele><time>2026-03-24T13:25:08.369Z</time></trkpt><trkpt lat="46.6892355" lon="10.5236122"><ele>1035.0</ele><time>2026-03-24T13:25:10.356Z</time></trkpt><trkpt lat="46.6892921" lon="10.5235462"><ele>1035.0</ele><time>2026-03-24T13:25:12.377Z</time></trkpt><trkpt lat="46.6893487" lon="10.5234849"><ele>1035.0</ele><time>2026-03-24T13:25:14.377Z</time></trkpt><trkpt lat="46.6894053" lon="10.5234254"><ele>1035.857142857143</ele><time>2026-03-24T13:25:16.373Z</time></trkpt><trkpt lat="46.6894624" lon="10.5233646"><ele>1036.7142857142858</ele><time>2026-03-24T13:25:18.377Z</time></trkpt><trkpt lat="46.6895209" lon="10.5233067"><ele>1037.5714285714287</ele><time>2026-03-24T13:25:20.372Z</time></trkpt><trkpt lat="46.6895809" lon="10.5232503"><ele>1038.4285714285716</ele><time>2026-03-24T13:25:22.379Z</time></trkpt><trkpt lat="46.6896393" lon="10.5231951"><ele>1039.2857142857144</ele><time>2026-03-24T13:25:24.374Z</time></trkpt><trkpt lat="46.6896963" lon="10.5231386"><ele>1040.142857142857</ele><time>2026-03-24T13:25:26.372Z</time></trkpt><trkpt lat="46.6897528" lon="10.5230829"><ele>1041.0</ele><time>2026-03-24T13:25:28.371Z</time></trkpt><trkpt lat="46.6898091" lon="10.5230277"><ele>1041.0</ele><time>2026-03-24T13:25:30.37Z</time></trkpt><trkpt lat="46.6898645" lon="10.5229735"><ele>1041.0</ele><time>2026-03-24T13:25:32.366Z</time></trkpt><trkpt lat="46.6899176" lon="10.5229153"><ele>1041.0</ele><time>2026-03-24T13:25:34.363Z</time></trkpt><trkpt lat="46.689973" lon="10.5228598"><ele>1041.0</ele><time>2026-03-24T13:25:36.377Z</time></trkpt><trkpt lat="46.6900324" lon="10.5228028"><ele>1041.0</ele><time>2026-03-24T13:25:38.373Z</time></trkpt><trkpt lat="46.6900913" lon="10.522751"><ele>1041.0</ele><time>2026-03-24T13:25:40.37Z</time></trkpt><trkpt lat="46.6901442" lon="10.5226969"><ele>1041.0</ele><time>2026-03-24T13:25:42.368Z</time></trkpt><trkpt lat="46.6902001" lon="10.5226502"><ele>1041.6666666666667</ele><time>2026-03-24T13:25:44.381Z</time></trkpt><trkpt lat="46.6902548" lon="10.5226011"><ele>1042.3333333333333</ele><time>2026-03-24T13:25:46.375Z</time></trkpt><trkpt lat="46.6903115" lon="10.5225576"><ele>1043.0</ele><time>2026-03-24T13:25:48.371Z</time></trkpt><trkpt lat="46.690391" lon="10.5225"><ele>1043.6666666666665</ele><time>2026-03-24T13:25:51.37Z</time></trkpt><trkpt lat="46.6904686" lon="10.5224302"><ele>1044.3333333333333</ele><time>2026-03-24T13:25:54.373Z</time></trkpt><trkpt lat="46.690544" lon="10.5223566"><ele>1045.0</ele><time>2026-03-24T13:25:57.374Z</time></trkpt><trkpt lat="46.6906166" lon="10.5222797"><ele>1045.0</ele><time>2026-03-24T13:26:00.371Z</time></trkpt><trkpt lat="46.6906857" lon="10.5221963"><ele>1045.0</ele><time>2026-03-24T13:26:03.366Z</time></trkpt><trkpt lat="46.690748" lon="10.522106"><ele>1045.0</ele><time>2026-03-24T13:26:06.366Z</time></trkpt><trkpt lat="46.690809" lon="10.5220172"><ele>1045.0</ele><time>2026-03-24T13:26:09.373Z</time></trkpt><trkpt lat="46.6908694" lon="10.5219302"><ele>1045.0</ele><time>2026-03-24T13:26:12.372Z</time></trkpt><trkpt lat="46.6909337" lon="10.5218466"><ele>1045.0</ele><time>2026-03-24T13:26:15.365Z</time></trkpt><trkpt lat="46.6910153" lon="10.5217841"><ele>1045.8333333333333</ele><time>2026-03-24T13:26:18.371Z</time></trkpt><trkpt lat="46.6910948" lon="10.5217381"><ele>1046.6666666666665</ele><time>2026-03-24T13:26:21.365Z</time></trkpt><trkpt lat="46.6911759" lon="10.521688"><ele>1047.5</ele><time>2026-03-24T13:26:24.382Z</time></trkpt><trkpt lat="46.6912553" lon="10.5216334"><ele>1048.3333333333333</ele><time>2026-03-24T13:26:27.366Z</time></trkpt><trkpt lat="46.6913318" lon="10.5215953"><ele>1049.1666666666667</ele><time>2026-03-24T13:26:30.368Z</time></trkpt><trkpt lat="46.6914101" lon="10.5215522"><ele>1050.0</ele><time>2026-03-24T13:26:33.374Z</time></trkpt><trkpt lat="46.6914836" lon="10.5214982"><ele>1050.0</ele><time>2026-03-24T13:26:36.369Z</time></trkpt><trkpt lat="46.6915366" lon="10.5214116"><ele>1050.0</ele><time>2026-03-24T13:26:39.365Z</time></trkpt><trkpt lat="46.691519" lon="10.5212931"><ele>1050.0</ele><time>2026-03-24T13:26:42.378Z</time></trkpt><trkpt lat="46.69149" lon="10.5212004"><ele>1050.0</ele><time>2026-03-24T13:26:45.38Z</time></trkpt><trkpt lat="46.6914757" lon="10.5210737"><ele>1050.0</ele><time>2026-03-24T13:26:48.371Z</time></trkpt><trkpt lat="46.6915203" lon="10.5210038"><ele>1050.0</ele><time>2026-03-24T13:26:50.371Z</time></trkpt><trkpt lat="46.6915973" lon="10.5209401"><ele>1050.5714285714287</ele><time>2026-03-24T13:26:53.364Z</time></trkpt><trkpt lat="46.6916597" lon="10.5208798"><ele>1051.142857142857</ele><time>2026-03-24T13:26:56.362Z</time></trkpt><trkpt lat="46.6917197" lon="10.5208081"><ele>1051.7142857142858</ele><time>2026-03-24T13:26:59.364Z</time></trkpt><trkpt lat="46.6917815" lon="10.520756"><ele>1052.2857142857142</ele><time>2026-03-24T13:27:02.375Z</time></trkpt><trkpt lat="46.6918403" lon="10.5207174"><ele>1052.857142857143</ele><time>2026-03-24T13:27:05.37Z</time></trkpt><trkpt lat="46.6919058" lon="10.520658"><ele>1053.4285714285716</ele><time>2026-03-24T13:27:08.357Z</time></trkpt><trkpt lat="46.6919607" lon="10.5206081"><ele>1054.0</ele><time>2026-03-24T13:27:11.377Z</time></trkpt><trkpt lat="46.6920178" lon="10.5205534"><ele>1054.0</ele><time>2026-03-24T13:27:13.374Z</time></trkpt><trkpt lat="46.6920881" lon="10.5204922"><ele>1054.0</ele><time>2026-03-24T13:27:15.379Z</time></trkpt><trkpt lat="46.692165" lon="10.5204366"><ele>1054.0</ele><time>2026-03-24T13:27:18.374Z</time></trkpt><trkpt lat="46.6922494" lon="10.5203652"><ele>1054.0</ele><time>2026-03-24T13:27:22.375Z</time></trkpt><trkpt lat="46.6923061" lon="10.5203183"><ele>1054.0</ele><time>2026-03-24T13:27:24.376Z</time></trkpt><trkpt lat="46.6923636" lon="10.5202631"><ele>1054.0</ele><time>2026-03-24T13:27:26.37Z</time></trkpt><trkpt lat="46.6924303" lon="10.5202233"><ele>1055.6666666666665</ele><time>2026-03-24T13:27:28.368Z</time></trkpt><trkpt lat="46.6925018" lon="10.5202085"><ele>1057.3333333333333</ele><time>2026-03-24T13:27:30.369Z</time></trkpt><trkpt lat="46.6925663" lon="10.5201951"><ele>1059.0</ele><time>2026-03-24T13:27:32.38Z</time></trkpt><trkpt lat="46.6926546" lon="10.5201824"><ele>1060.6666666666667</ele><time>2026-03-24T13:27:35.369Z</time></trkpt><trkpt lat="46.6927396" lon="10.520177"><ele>1062.3333333333335</ele><time>2026-03-24T13:27:38.382Z</time></trkpt><trkpt lat="46.6928157" lon="10.520228"><ele>1064.0</ele><time>2026-03-24T13:27:41.37Z</time></trkpt><trkpt lat="46.6928478" lon="10.5203259"><ele>1063.6666666666667</ele><time>2026-03-24T13:27:43.371Z</time></trkpt><trkpt lat="46.6928917" lon="10.5204586"><ele>1063.3333333333335</ele><time>2026-03-24T13:27:45.363Z</time></trkpt><trkpt lat="46.692913" lon="10.5205678"><ele>1063.0</ele><time>2026-03-24T13:27:47.383Z</time></trkpt><trkpt lat="46.6929343" lon="10.5206777"><ele>1062.6666666666667</ele><time>2026-03-24T13:27:49.382Z</time></trkpt><trkpt lat="46.6929604" lon="10.5208141"><ele>1062.3333333333333</ele><time>2026-03-24T13:27:51.37Z</time></trkpt><trkpt lat="46.6929822" lon="10.5209463"><ele>1062.0</ele><time>2026-03-24T13:27:53.369Z</time></trkpt><trkpt lat="46.6929949" lon="10.5210739"><ele>1062.0</ele><time>2026-03-24T13:27:55.383Z</time></trkpt><trkpt lat="46.6930089" lon="10.5212163"><ele>1062.0</ele><time>2026-03-24T13:27:57.375Z</time></trkpt><trkpt lat="46.6930395" lon="10.5213787"><ele>1062.0</ele><time>2026-03-24T13:27:59.383Z</time></trkpt><trkpt lat="46.6930902" lon="10.5215316"><ele>1062.0</ele><time>2026-03-24T13:28:01.375Z</time></trkpt><trkpt lat="46.6931239" lon="10.5216679"><ele>1062.0</ele><time>2026-03-24T13:28:03.374Z</time></trkpt><trkpt lat="46.6931114" lon="10.5218038"><ele>1061.8333333333333</ele><time>2026-03-24T13:28:05.378Z</time></trkpt><trkpt lat="46.6930747" lon="10.5219166"><ele>1061.6666666666667</ele><time>2026-03-24T13:28:07.382Z</time></trkpt><trkpt lat="46.6930324" lon="10.5220225"><ele>1061.5</ele><time>2026-03-24T13:28:09.373Z</time></trkpt><trkpt lat="46.6929816" lon="10.5221359"><ele>1061.3333333333335</ele><time>2026-03-24T13:28:11.369Z</time></trkpt><trkpt lat="46.69293" lon="10.5222452"><ele>1061.1666666666667</ele><time>2026-03-24T13:28:13.371Z</time></trkpt><trkpt lat="46.6928629" lon="10.5223374"><ele>1061.0</ele><time>2026-03-24T13:28:15.363Z</time></trkpt><trkpt lat="46.6927874" lon="10.5223955"><ele>1060.3333333333335</ele><time>2026-03-24T13:28:17.372Z</time></trkpt><trkpt lat="46.6927085" lon="10.5224419"><ele>1059.6666666666667</ele><time>2026-03-24T13:28:19.378Z</time></trkpt><trkpt lat="46.692636" lon="10.5224853"><ele>1059.0</ele><time>2026-03-24T13:28:21.382Z</time></trkpt><trkpt lat="46.6925769" lon="10.522529"><ele>1058.3333333333333</ele><time>2026-03-24T13:28:23.376Z</time></trkpt><trkpt lat="46.692543" lon="10.522632"><ele>1057.6666666666665</ele><time>2026-03-24T13:28:27.387Z</time></trkpt><trkpt lat="46.6925367" lon="10.5227444"><ele>1057.0</ele><time>2026-03-24T13:28:30.356Z</time></trkpt><trkpt lat="46.6925333" lon="10.5228709"><ele>1058.3333333333333</ele><time>2026-03-24T13:28:33.377Z</time></trkpt><trkpt lat="46.6925262" lon="10.5229823"><ele>1059.6666666666665</ele><time>2026-03-24T13:28:36.37Z</time></trkpt><trkpt lat="46.6925077" lon="10.5231091"><ele>1061.0</ele><time>2026-03-24T13:28:39.385Z</time></trkpt><trkpt lat="46.6924987" lon="10.52323"><ele>1062.3333333333333</ele><time>2026-03-24T13:28:41.383Z</time></trkpt><trkpt lat="46.6924894" lon="10.5233218"><ele>1063.6666666666667</ele><time>2026-03-24T13:28:43.374Z</time></trkpt><trkpt lat="46.6924831" lon="10.5234189"><ele>1065.0</ele><time>2026-03-24T13:28:45.371Z</time></trkpt><trkpt lat="46.6924916" lon="10.5235402"><ele>1065.0</ele><time>2026-03-24T13:28:47.367Z</time></trkpt><trkpt lat="46.6924946" lon="10.5236452"><ele>1065.0</ele><time>2026-03-24T13:28:49.373Z</time></trkpt><trkpt lat="46.6924899" lon="10.5237711"><ele>1065.0</ele><time>2026-03-24T13:28:52.368Z</time></trkpt><trkpt lat="46.6924767" lon="10.5239001"><ele>1065.0</ele><time>2026-03-24T13:28:55.384Z</time></trkpt><trkpt lat="46.6924646" lon="10.5240332"><ele>1065.0</ele><time>2026-03-24T13:28:58.369Z</time></trkpt><trkpt lat="46.6924583" lon="10.5241348"><ele>1065.0</ele><time>2026-03-24T13:29:00.377Z</time></trkpt><trkpt lat="46.6924544" lon="10.5242289"><ele>1065.4285714285716</ele><time>2026-03-24T13:29:02.369Z</time></trkpt><trkpt lat="46.6924479" lon="10.5243221"><ele>1065.857142857143</ele><time>2026-03-24T13:29:04.371Z</time></trkpt><trkpt lat="46.6924391" lon="10.5244144"><ele>1066.2857142857142</ele><time>2026-03-24T13:29:06.373Z</time></trkpt><trkpt lat="46.6924282" lon="10.5245085"><ele>1066.7142857142858</ele><time>2026-03-24T13:29:08.374Z</time></trkpt><trkpt lat="46.6924215" lon="10.5246028"><ele>1067.142857142857</ele><time>2026-03-24T13:29:10.365Z</time></trkpt><trkpt lat="46.6924145" lon="10.5246998"><ele>1067.5714285714287</ele><time>2026-03-24T13:29:12.365Z</time></trkpt><trkpt lat="46.6924023" lon="10.5247972"><ele>1068.0</ele><time>2026-03-24T13:29:14.378Z</time></trkpt><trkpt lat="46.6923941" lon="10.5248926"><ele>1068.5</ele><time>2026-03-24T13:29:16.37Z</time></trkpt><trkpt lat="46.6923886" lon="10.5250303"><ele>1069.0</ele><time>2026-03-24T13:29:19.383Z</time></trkpt><trkpt lat="46.6923834" lon="10.5251568"><ele>1069.5</ele><time>2026-03-24T13:29:22.377Z</time></trkpt><trkpt lat="46.6923598" lon="10.5252726"><ele>1070.0</ele><time>2026-03-24T13:29:25.368Z</time></trkpt><trkpt lat="46.6923296" lon="10.5253554"><ele>1070.5</ele><time>2026-03-24T13:29:27.37Z</time></trkpt><trkpt lat="46.6922912" lon="10.5254292"><ele>1071.0</ele><time>2026-03-24T13:29:29.374Z</time></trkpt><trkpt lat="46.6922367" lon="10.5255366"><ele>1071.142857142857</ele><time>2026-03-24T13:29:32.359Z</time></trkpt><trkpt lat="46.692194" lon="10.5256149"><ele>1071.2857142857142</ele><time>2026-03-24T13:29:34.366Z</time></trkpt><trkpt lat="46.6921524" lon="10.5256984"><ele>1071.4285714285716</ele><time>2026-03-24T13:29:36.383Z</time></trkpt><trkpt lat="46.6921114" lon="10.5257877"><ele>1071.5714285714284</ele><time>2026-03-24T13:29:38.378Z</time></trkpt><trkpt lat="46.6920743" lon="10.5258767"><ele>1071.7142857142858</ele><time>2026-03-24T13:29:40.367Z</time></trkpt><trkpt lat="46.6920481" lon="10.525963"><ele>1071.857142857143</ele><time>2026-03-24T13:29:42.37Z</time></trkpt><trkpt lat="46.6920216" lon="10.5260463"><ele>1072.0</ele><time>2026-03-24T13:29:44.371Z</time></trkpt><trkpt lat="46.6919822" lon="10.5261573"><ele>1072.0</ele><time>2026-03-24T13:29:47.383Z</time></trkpt><trkpt lat="46.6920394" lon="10.5261028"><ele>1072.0</ele><time>2026-03-24T13:29:53.375Z</time></trkpt><trkpt lat="46.6920622" lon="10.5259875"><ele>1072.0</ele><time>2026-03-24T13:29:56.37Z</time></trkpt><trkpt lat="46.6920163" lon="10.5260988"><ele>1072.0</ele><time>2026-03-24T13:30:53.389Z</time></trkpt><trkpt lat="46.6919723" lon="10.5262102"><ele>1072.0</ele><time>2026-03-24T13:30:56.364Z</time></trkpt><trkpt lat="46.691918" lon="10.5263162"><ele>1072.0</ele><time>2026-03-24T13:30:59.377Z</time></trkpt><trkpt lat="46.6918896" lon="10.5264131"><ele>1070.8</ele><time>2026-03-24T13:31:01.383Z</time></trkpt><trkpt lat="46.691858" lon="10.526524"><ele>1069.6</ele><time>2026-03-24T13:31:03.382Z</time></trkpt><trkpt lat="46.6918207" lon="10.5266436"><ele>1068.3999999999999</ele><time>2026-03-24T13:31:05.374Z</time></trkpt><trkpt lat="46.6917872" lon="10.5267729"><ele>1067.2</ele><time>2026-03-24T13:31:07.368Z</time></trkpt><trkpt lat="46.6917575" lon="10.5269134"><ele>1066.0</ele><time>2026-03-24T13:31:09.386Z</time></trkpt><trkpt lat="46.6917331" lon="10.5270636"><ele>1066.0</ele><time>2026-03-24T13:31:11.364Z</time></trkpt><trkpt lat="46.6917116" lon="10.5272198"><ele>1066.0</ele><time>2026-03-24T13:31:13.367Z</time></trkpt><trkpt lat="46.6916925" lon="10.5273789"><ele>1066.0</ele><time>2026-03-24T13:31:15.361Z</time></trkpt><trkpt lat="46.6916783" lon="10.5275429"><ele>1066.0</ele><time>2026-03-24T13:31:17.368Z</time></trkpt><trkpt lat="46.691663" lon="10.5277148"><ele>1066.0</ele><time>2026-03-24T13:31:19.363Z</time></trkpt><trkpt lat="46.6916508" lon="10.5278919"><ele>1066.0</ele><time>2026-03-24T13:31:21.363Z</time></trkpt><trkpt lat="46.6916369" lon="10.5280719"><ele>1066.0</ele><time>2026-03-24T13:31:23.372Z</time></trkpt><trkpt lat="46.691618" lon="10.5282524"><ele>1066.0</ele><time>2026-03-24T13:31:25.381Z</time></trkpt><trkpt lat="46.6916046" lon="10.5283438"><ele>1066.0</ele><time>2026-03-24T13:31:26.373Z</time></trkpt><trkpt lat="46.6915878" lon="10.5284351"><ele>1066.3999999999999</ele><time>2026-03-24T13:31:27.378Z</time></trkpt><trkpt lat="46.6915696" lon="10.528524"><ele>1066.8</ele><time>2026-03-24T13:31:28.365Z</time></trkpt><trkpt lat="46.691534" lon="10.5286954"><ele>1067.1999999999998</ele><time>2026-03-24T13:31:30.371Z</time></trkpt><trkpt lat="46.6915015" lon="10.5288616"><ele>1067.6</ele><time>2026-03-24T13:31:32.385Z</time></trkpt><trkpt lat="46.6914687" lon="10.5290217"><ele>1068.0</ele><time>2026-03-24T13:31:34.383Z</time></trkpt><trkpt lat="46.6914329" lon="10.529186"><ele>1068.0</ele><time>2026-03-24T13:31:36.386Z</time></trkpt><trkpt lat="46.6913968" lon="10.5293529"><ele>1068.0</ele><time>2026-03-24T13:31:38.369Z</time></trkpt><trkpt lat="46.6913595" lon="10.529529"><ele>1068.0</ele><time>2026-03-24T13:31:40.384Z</time></trkpt><trkpt lat="46.6913416" lon="10.529618"><ele>1068.0</ele><time>2026-03-24T13:31:41.384Z</time></trkpt><trkpt lat="46.6913224" lon="10.529709"><ele>1068.0</ele><time>2026-03-24T13:31:42.37Z</time></trkpt><trkpt lat="46.6913028" lon="10.5298001"><ele>1068.0</ele><time>2026-03-24T13:31:43.374Z</time></trkpt><trkpt lat="46.6912843" lon="10.5298936"><ele>1067.7142857142858</ele><time>2026-03-24T13:31:44.358Z</time></trkpt><trkpt lat="46.6912669" lon="10.5299876"><ele>1067.4285714285716</ele><time>2026-03-24T13:31:45.383Z</time></trkpt><trkpt lat="46.6912495" lon="10.530082"><ele>1067.142857142857</ele><time>2026-03-24T13:31:46.364Z</time></trkpt><trkpt lat="46.6912337" lon="10.5301768"><ele>1066.857142857143</ele><time>2026-03-24T13:31:47.378Z</time></trkpt><trkpt lat="46.6912181" lon="10.5302707"><ele>1066.5714285714284</ele><time>2026-03-24T13:31:48.379Z</time></trkpt><trkpt lat="46.6912016" lon="10.5303649"><ele>1066.2857142857142</ele><time>2026-03-24T13:31:49.374Z</time></trkpt><trkpt lat="46.6911863" lon="10.5304588"><ele>1066.0</ele><time>2026-03-24T13:31:50.38Z</time></trkpt><trkpt lat="46.6911717" lon="10.5305533"><ele>1066.0</ele><time>2026-03-24T13:31:51.384Z</time></trkpt><trkpt lat="46.6911583" lon="10.5306488"><ele>1066.0</ele><time>2026-03-24T13:31:52.37Z</time></trkpt><trkpt lat="46.6911461" lon="10.530744"><ele>1066.0</ele><time>2026-03-24T13:31:53.375Z</time></trkpt><trkpt lat="46.691133" lon="10.5308389"><ele>1066.0</ele><time>2026-03-24T13:31:54.373Z</time></trkpt><trkpt lat="46.6911209" lon="10.5309346"><ele>1066.0</ele><time>2026-03-24T13:31:55.372Z</time></trkpt><trkpt lat="46.6911087" lon="10.5310303"><ele>1066.0</ele><time>2026-03-24T13:31:56.387Z</time></trkpt><trkpt lat="46.6910984" lon="10.5311265"><ele>1066.0</ele><time>2026-03-24T13:31:57.383Z</time></trkpt><trkpt lat="46.6910885" lon="10.5312233"><ele>1065.4285714285713</ele><time>2026-03-24T13:31:58.383Z</time></trkpt><trkpt lat="46.6910786" lon="10.53132"><ele>1064.8571428571427</ele><time>2026-03-24T13:31:59.372Z</time></trkpt><trkpt lat="46.6910698" lon="10.531416"><ele>1064.2857142857142</ele><time>2026-03-24T13:32:00.383Z</time></trkpt><trkpt lat="46.69106" lon="10.5315105"><ele>1063.7142857142858</ele><time>2026-03-24T13:32:01.381Z</time></trkpt><trkpt lat="46.6910507" lon="10.5316041"><ele>1063.1428571428573</ele><time>2026-03-24T13:32:02.391Z</time></trkpt><trkpt lat="46.6910412" lon="10.531698"><ele>1062.5714285714287</ele><time>2026-03-24T13:32:03.375Z</time></trkpt><trkpt lat="46.6910321" lon="10.531791"><ele>1062.0</ele><time>2026-03-24T13:32:04.384Z</time></trkpt><trkpt lat="46.6910247" lon="10.5318832"><ele>1062.0</ele><time>2026-03-24T13:32:05.375Z</time></trkpt><trkpt lat="46.691016" lon="10.5319753"><ele>1062.0</ele><time>2026-03-24T13:32:06.377Z</time></trkpt><trkpt lat="46.6910069" lon="10.5320663"><ele>1062.0</ele><time>2026-03-24T13:32:07.371Z</time></trkpt><trkpt lat="46.690991" lon="10.5322477"><ele>1062.0</ele><time>2026-03-24T13:32:09.379Z</time></trkpt><trkpt lat="46.6909755" lon="10.532426"><ele>1062.0</ele><time>2026-03-24T13:32:11.373Z</time></trkpt><trkpt lat="46.6909638" lon="10.5326051"><ele>1062.5</ele><time>2026-03-24T13:32:13.37Z</time></trkpt><trkpt lat="46.6909561" lon="10.5327841"><ele>1063.0</ele><time>2026-03-24T13:32:15.369Z</time></trkpt><trkpt lat="46.6909502" lon="10.5329637"><ele>1063.5</ele><time>2026-03-24T13:32:17.371Z</time></trkpt><trkpt lat="46.6909477" lon="10.5331436"><ele>1064.0</ele><time>2026-03-24T13:32:19.377Z</time></trkpt><trkpt lat="46.6909487" lon="10.5333239"><ele>1064.0</ele><time>2026-03-24T13:32:21.373Z</time></trkpt><trkpt lat="46.6909467" lon="10.5335041"><ele>1064.0</ele><time>2026-03-24T13:32:23.375Z</time></trkpt><trkpt lat="46.6909411" lon="10.5336843"><ele>1064.0</ele><time>2026-03-24T13:32:25.383Z</time></trkpt><trkpt lat="46.6909236" lon="10.5338614"><ele>1064.0</ele><time>2026-03-24T13:32:27.377Z</time></trkpt><trkpt lat="46.6908964" lon="10.5340329"><ele>1064.0</ele><time>2026-03-24T13:32:29.389Z</time></trkpt><trkpt lat="46.6908679" lon="10.5342017"><ele>1064.0</ele><time>2026-03-24T13:32:31.374Z</time></trkpt><trkpt lat="46.6908376" lon="10.5343674"><ele>1064.0</ele><time>2026-03-24T13:32:33.373Z</time></trkpt><trkpt lat="46.6908075" lon="10.5345304"><ele>1064.0</ele><time>2026-03-24T13:32:35.38Z</time></trkpt><trkpt lat="46.6907783" lon="10.5346827"><ele>1064.75</ele><time>2026-03-24T13:32:37.387Z</time></trkpt><trkpt lat="46.6907543" lon="10.5348319"><ele>1065.5</ele><time>2026-03-24T13:32:39.372Z</time></trkpt><trkpt lat="46.690732" lon="10.5349935"><ele>1066.25</ele><time>2026-03-24T13:32:41.385Z</time></trkpt><trkpt lat="46.6907108" lon="10.5351601"><ele>1067.0</ele><time>2026-03-24T13:32:43.39Z</time></trkpt><trkpt lat="46.6906896" lon="10.5353251"><ele>1067.0</ele><time>2026-03-24T13:32:45.382Z</time></trkpt><trkpt lat="46.6906684" lon="10.5354926"><ele>1067.0</ele><time>2026-03-24T13:32:47.368Z</time></trkpt><trkpt lat="46.6906461" lon="10.5356615"><ele>1067.0</ele><time>2026-03-24T13:32:49.378Z</time></trkpt><trkpt lat="46.6906273" lon="10.5358355"><ele>1067.0</ele><time>2026-03-24T13:32:51.378Z</time></trkpt><trkpt lat="46.6906053" lon="10.536011"><ele>1067.0</ele><time>2026-03-24T13:32:53.375Z</time></trkpt><trkpt lat="46.6905855" lon="10.5361929"><ele>1067.0</ele><time>2026-03-24T13:32:55.37Z</time></trkpt><trkpt lat="46.6905783" lon="10.5362865"><ele>1067.0</ele><time>2026-03-24T13:32:56.382Z</time></trkpt><trkpt lat="46.6905696" lon="10.5363822"><ele>1067.0</ele><time>2026-03-24T13:32:57.398Z</time></trkpt><trkpt lat="46.6905594" lon="10.5364787"><ele>1067.0</ele><time>2026-03-24T13:32:58.371Z</time></trkpt><trkpt lat="46.690548" lon="10.5365763"><ele>1067.0</ele><time>2026-03-24T13:32:59.37Z</time></trkpt><trkpt lat="46.6905347" lon="10.5366738"><ele>1067.0</ele><time>2026-03-24T13:33:00.383Z</time></trkpt><trkpt lat="46.690522" lon="10.5367708"><ele>1067.0</ele><time>2026-03-24T13:33:01.388Z</time></trkpt><trkpt lat="46.6905111" lon="10.5368697"><ele>1067.0</ele><time>2026-03-24T13:33:02.376Z</time></trkpt><trkpt lat="46.6905017" lon="10.5369679"><ele>1067.0</ele><time>2026-03-24T13:33:03.38Z</time></trkpt><trkpt lat="46.6904925" lon="10.5370605"><ele>1067.0</ele><time>2026-03-24T13:33:04.366Z</time></trkpt><trkpt lat="46.6904738" lon="10.5372327"><ele>1067.0</ele><time>2026-03-24T13:33:06.377Z</time></trkpt><trkpt lat="46.6904599" lon="10.5373703"><ele>1067.142857142857</ele><time>2026-03-24T13:33:08.384Z</time></trkpt><trkpt lat="46.6904507" lon="10.5374818"><ele>1067.2857142857142</ele><time>2026-03-24T13:33:10.371Z</time></trkpt><trkpt lat="46.6904489" lon="10.5375827"><ele>1067.4285714285716</ele><time>2026-03-24T13:33:12.364Z</time></trkpt><trkpt lat="46.6905017" lon="10.5376845"><ele>1067.5714285714284</ele><time>2026-03-24T13:33:15.385Z</time></trkpt><trkpt lat="46.6905508" lon="10.5377516"><ele>1067.7142857142858</ele><time>2026-03-24T13:33:17.369Z</time></trkpt><trkpt lat="46.6905982" lon="10.5378256"><ele>1067.857142857143</ele><time>2026-03-24T13:33:19.387Z</time></trkpt><trkpt lat="46.6906458" lon="10.5378873"><ele>1068.0</ele><time>2026-03-24T13:33:21.37Z</time></trkpt><trkpt lat="46.6907168" lon="10.5379735"><ele>1068.1428571428573</ele><time>2026-03-24T13:33:24.381Z</time></trkpt><trkpt lat="46.6907656" lon="10.5380414"><ele>1068.2857142857142</ele><time>2026-03-24T13:33:26.372Z</time></trkpt><trkpt lat="46.690816" lon="10.5381087"><ele>1068.4285714285716</ele><time>2026-03-24T13:33:28.379Z</time></trkpt><trkpt lat="46.6908659" lon="10.5381723"><ele>1068.5714285714287</ele><time>2026-03-24T13:33:30.384Z</time></trkpt><trkpt lat="46.6909168" lon="10.5382349"><ele>1068.7142857142858</ele><time>2026-03-24T13:33:32.378Z</time></trkpt><trkpt lat="46.6909665" lon="10.5382959"><ele>1068.857142857143</ele><time>2026-03-24T13:33:34.378Z</time></trkpt><trkpt lat="46.6910155" lon="10.5383594"><ele>1069.0</ele><time>2026-03-24T13:33:36.382Z</time></trkpt><trkpt lat="46.6910663" lon="10.5384204"><ele>1069.7142857142858</ele><time>2026-03-24T13:33:38.367Z</time></trkpt><trkpt lat="46.6911157" lon="10.5384807"><ele>1070.4285714285716</ele><time>2026-03-24T13:33:40.38Z</time></trkpt><trkpt lat="46.691163" lon="10.5385443"><ele>1071.142857142857</ele><time>2026-03-24T13:33:42.372Z</time></trkpt><trkpt lat="46.6912136" lon="10.5386111"><ele>1071.857142857143</ele><time>2026-03-24T13:33:44.378Z</time></trkpt><trkpt lat="46.691265" lon="10.5386767"><ele>1072.5714285714284</ele><time>2026-03-24T13:33:46.386Z</time></trkpt><trkpt lat="46.6913122" lon="10.5387434"><ele>1073.2857142857142</ele><time>2026-03-24T13:33:48.368Z</time></trkpt><trkpt lat="46.6913595" lon="10.538807"><ele>1074.0</ele><time>2026-03-24T13:33:50.365Z</time></trkpt><trkpt lat="46.6914066" lon="10.5388684"><ele>1073.9999999999998</ele><time>2026-03-24T13:33:52.378Z</time></trkpt><trkpt lat="46.6914548" lon="10.538928"><ele>1074.0</ele><time>2026-03-24T13:33:54.378Z</time></trkpt><trkpt lat="46.6915224" lon="10.5390244"><ele>1074.0</ele><time>2026-03-24T13:33:57.378Z</time></trkpt><trkpt lat="46.6915706" lon="10.5390836"><ele>1074.0</ele><time>2026-03-24T13:33:59.371Z</time></trkpt><trkpt lat="46.6916175" lon="10.5391451"><ele>1074.0</ele><time>2026-03-24T13:34:01.372Z</time></trkpt><trkpt lat="46.6916647" lon="10.5392063"><ele>1073.9999999999998</ele><time>2026-03-24T13:34:03.383Z</time></trkpt><trkpt lat="46.6917144" lon="10.5392673"><ele>1074.0</ele><time>2026-03-24T13:34:05.386Z</time></trkpt><trkpt lat="46.6917862" lon="10.539356"><ele>1074.0</ele><time>2026-03-24T13:34:08.369Z</time></trkpt><trkpt lat="46.6918343" lon="10.5394161"><ele>1074.0</ele><time>2026-03-24T13:34:10.367Z</time></trkpt><trkpt lat="46.6919048" lon="10.5395072"><ele>1074.0</ele><time>2026-03-24T13:34:13.38Z</time></trkpt><trkpt lat="46.6919742" lon="10.5395953"><ele>1074.0</ele><time>2026-03-24T13:34:16.383Z</time></trkpt><trkpt lat="46.6920424" lon="10.539684"><ele>1074.0</ele><time>2026-03-24T13:34:19.361Z</time></trkpt><trkpt lat="46.6921119" lon="10.5397708"><ele>1074.0</ele><time>2026-03-24T13:34:22.374Z</time></trkpt><trkpt lat="46.6921801" lon="10.5398578"><ele>1075.4</ele><time>2026-03-24T13:34:25.383Z</time></trkpt><trkpt lat="46.6922511" lon="10.5399452"><ele>1076.8000000000002</ele><time>2026-03-24T13:34:28.38Z</time></trkpt><trkpt lat="46.6923195" lon="10.540031"><ele>1078.1999999999998</ele><time>2026-03-24T13:34:31.383Z</time></trkpt><trkpt lat="46.6923885" lon="10.5401197"><ele>1079.6</ele><time>2026-03-24T13:34:34.384Z</time></trkpt><trkpt lat="46.6924598" lon="10.5402009"><ele>1081.0</ele><time>2026-03-24T13:34:37.369Z</time></trkpt><trkpt lat="46.6925263" lon="10.5402874"><ele>1081.0</ele><time>2026-03-24T13:34:40.373Z</time></trkpt><trkpt lat="46.6925926" lon="10.5403712"><ele>1081.0</ele><time>2026-03-24T13:34:43.383Z</time></trkpt><trkpt lat="46.6926582" lon="10.5404523"><ele>1081.0</ele><time>2026-03-24T13:34:46.375Z</time></trkpt><trkpt lat="46.6927227" lon="10.5405375"><ele>1081.0</ele><time>2026-03-24T13:34:49.369Z</time></trkpt><trkpt lat="46.6927909" lon="10.540614"><ele>1081.0</ele><time>2026-03-24T13:34:52.373Z</time></trkpt><trkpt lat="46.6928646" lon="10.5406825"><ele>1081.0</ele><time>2026-03-24T13:34:55.376Z</time></trkpt><trkpt lat="46.6929426" lon="10.5407413"><ele>1082.1666666666665</ele><time>2026-03-24T13:34:58.387Z</time></trkpt><trkpt lat="46.6930249" lon="10.5407867"><ele>1083.3333333333333</ele><time>2026-03-24T13:35:01.382Z</time></trkpt><trkpt lat="46.6931108" lon="10.5408189"><ele>1084.5</ele><time>2026-03-24T13:35:04.382Z</time></trkpt><trkpt lat="46.6932014" lon="10.5408322"><ele>1085.6666666666667</ele><time>2026-03-24T13:35:07.374Z</time></trkpt><trkpt lat="46.6932922" lon="10.5408337"><ele>1086.8333333333335</ele><time>2026-03-24T13:35:10.387Z</time></trkpt><trkpt lat="46.6933811" lon="10.5408239"><ele>1088.0</ele><time>2026-03-24T13:35:13.382Z</time></trkpt><trkpt lat="46.6934666" lon="10.5407934"><ele>1088.0</ele><time>2026-03-24T13:35:16.378Z</time></trkpt><trkpt lat="46.6935482" lon="10.540746"><ele>1088.0</ele><time>2026-03-24T13:35:19.376Z</time></trkpt><trkpt lat="46.6936256" lon="10.5406877"><ele>1088.0</ele><time>2026-03-24T13:35:22.365Z</time></trkpt><trkpt lat="46.6937008" lon="10.5406199"><ele>1088.0</ele><time>2026-03-24T13:35:25.378Z</time></trkpt><trkpt lat="46.6937695" lon="10.5405387"><ele>1088.0</ele><time>2026-03-24T13:35:28.387Z</time></trkpt><trkpt lat="46.6938334" lon="10.5404512"><ele>1088.0</ele><time>2026-03-24T13:35:31.376Z</time></trkpt><trkpt lat="46.6938938" lon="10.5403592"><ele>1089.5</ele><time>2026-03-24T13:35:34.391Z</time></trkpt><trkpt lat="46.6939543" lon="10.5402716"><ele>1091.0</ele><time>2026-03-24T13:35:37.383Z</time></trkpt><trkpt lat="46.6940167" lon="10.5401842"><ele>1092.5</ele><time>2026-03-24T13:35:40.376Z</time></trkpt><trkpt lat="46.6940816" lon="10.5400998"><ele>1094.0</ele><time>2026-03-24T13:35:43.375Z</time></trkpt><trkpt lat="46.6941469" lon="10.5400167"><ele>1095.5</ele><time>2026-03-24T13:35:46.366Z</time></trkpt><trkpt lat="46.694211" lon="10.5399313"><ele>1097.0</ele><time>2026-03-24T13:35:49.386Z</time></trkpt><trkpt lat="46.6942729" lon="10.5398496"><ele>1097.0</ele><time>2026-03-24T13:35:52.369Z</time></trkpt><trkpt lat="46.6943342" lon="10.5397637"><ele>1097.0</ele><time>2026-03-24T13:35:55.391Z</time></trkpt><trkpt lat="46.6943934" lon="10.5396715"><ele>1097.0</ele><time>2026-03-24T13:35:58.369Z</time></trkpt><trkpt lat="46.6944516" lon="10.539575"><ele>1097.0</ele><time>2026-03-24T13:36:01.376Z</time></trkpt><trkpt lat="46.6945143" lon="10.5394822"><ele>1097.0</ele><time>2026-03-24T13:36:04.367Z</time></trkpt><trkpt lat="46.6945763" lon="10.5393922"><ele>1097.0</ele><time>2026-03-24T13:36:07.375Z</time></trkpt><trkpt lat="46.6946379" lon="10.5393038"><ele>1098.5</ele><time>2026-03-24T13:36:10.386Z</time></trkpt><trkpt lat="46.6946999" lon="10.5392173"><ele>1100.0</ele><time>2026-03-24T13:36:13.377Z</time></trkpt><trkpt lat="46.6947579" lon="10.5391296"><ele>1101.5</ele><time>2026-03-24T13:36:16.378Z</time></trkpt><trkpt lat="46.694812" lon="10.5390364"><ele>1103.0</ele><time>2026-03-24T13:36:19.377Z</time></trkpt><trkpt lat="46.6948618" lon="10.5389422"><ele>1104.5</ele><time>2026-03-24T13:36:22.38Z</time></trkpt><trkpt lat="46.694913" lon="10.5388537"><ele>1106.0</ele><time>2026-03-24T13:36:25.371Z</time></trkpt><trkpt lat="46.6949629" lon="10.5387628"><ele>1106.0</ele><time>2026-03-24T13:36:28.38Z</time></trkpt><trkpt lat="46.6950152" lon="10.5386746"><ele>1106.0</ele><time>2026-03-24T13:36:31.377Z</time></trkpt><trkpt lat="46.6950677" lon="10.5385877"><ele>1106.0</ele><time>2026-03-24T13:36:34.382Z</time></trkpt><trkpt lat="46.6951187" lon="10.5385041"><ele>1106.0</ele><time>2026-03-24T13:36:37.373Z</time></trkpt><trkpt lat="46.6951787" lon="10.5384232"><ele>1106.0</ele><time>2026-03-24T13:36:40.375Z</time></trkpt><trkpt lat="46.6952329" lon="10.5383411"><ele>1106.0</ele><time>2026-03-24T13:36:43.385Z</time></trkpt><trkpt lat="46.6952871" lon="10.5382621"><ele>1107.1666666666667</ele><time>2026-03-24T13:36:46.371Z</time></trkpt><trkpt lat="46.6953421" lon="10.5381819"><ele>1108.3333333333335</ele><time>2026-03-24T13:36:49.366Z</time></trkpt><trkpt lat="46.695395" lon="10.5381017"><ele>1109.5</ele><time>2026-03-24T13:36:52.371Z</time></trkpt><trkpt lat="46.6954477" lon="10.5380228"><ele>1110.6666666666667</ele><time>2026-03-24T13:36:55.367Z</time></trkpt><trkpt lat="46.6954998" lon="10.5379403"><ele>1111.8333333333333</ele><time>2026-03-24T13:36:58.374Z</time></trkpt><trkpt lat="46.6955534" lon="10.5378588"><ele>1113.0</ele><time>2026-03-24T13:37:01.377Z</time></trkpt><trkpt lat="46.6956069" lon="10.5377821"><ele>1113.5</ele><time>2026-03-24T13:37:04.373Z</time></trkpt><trkpt lat="46.6956603" lon="10.5377003"><ele>1114.0</ele><time>2026-03-24T13:37:07.373Z</time></trkpt><trkpt lat="46.6957164" lon="10.5376166"><ele>1114.5</ele><time>2026-03-24T13:37:10.383Z</time></trkpt><trkpt lat="46.6957704" lon="10.5375325"><ele>1115.0</ele><time>2026-03-24T13:37:13.38Z</time></trkpt><trkpt lat="46.6958254" lon="10.5374506"><ele>1115.5</ele><time>2026-03-24T13:37:16.38Z</time></trkpt><trkpt lat="46.6958788" lon="10.5373668"><ele>1116.0</ele><time>2026-03-24T13:37:19.377Z</time></trkpt><trkpt lat="46.6959303" lon="10.537285"><ele>1116.0</ele><time>2026-03-24T13:37:22.371Z</time></trkpt><trkpt lat="46.6959843" lon="10.5372034"><ele>1116.0</ele><time>2026-03-24T13:37:25.37Z</time></trkpt><trkpt lat="46.696037" lon="10.537121"><ele>1116.0</ele><time>2026-03-24T13:37:28.387Z</time></trkpt><trkpt lat="46.6960906" lon="10.5370424"><ele>1116.0</ele><time>2026-03-24T13:37:31.382Z</time></trkpt><trkpt lat="46.6961428" lon="10.5369625"><ele>1116.0</ele><time>2026-03-24T13:37:34.373Z</time></trkpt><trkpt lat="46.6961959" lon="10.5368845"><ele>1116.0</ele><time>2026-03-24T13:37:37.381Z</time></trkpt><trkpt lat="46.6962502" lon="10.536809"><ele>1117.1666666666667</ele><time>2026-03-24T13:37:40.376Z</time></trkpt><trkpt lat="46.6963047" lon="10.5367285"><ele>1118.3333333333333</ele><time>2026-03-24T13:37:43.38Z</time></trkpt><trkpt lat="46.6963573" lon="10.536647"><ele>1119.5</ele><time>2026-03-24T13:37:46.373Z</time></trkpt><trkpt lat="46.6964097" lon="10.5365645"><ele>1120.6666666666665</ele><time>2026-03-24T13:37:49.378Z</time></trkpt><trkpt lat="46.696464" lon="10.5364841"><ele>1121.8333333333333</ele><time>2026-03-24T13:37:52.373Z</time></trkpt><trkpt lat="46.6965216" lon="10.53641"><ele>1123.0</ele><time>2026-03-24T13:37:55.366Z</time></trkpt><trkpt lat="46.6965808" lon="10.5363384"><ele>1123.0</ele><time>2026-03-24T13:37:58.361Z</time></trkpt><trkpt lat="46.6966435" lon="10.5362729"><ele>1123.0</ele><time>2026-03-24T13:38:01.374Z</time></trkpt><trkpt lat="46.6967092" lon="10.536214"><ele>1123.0</ele><time>2026-03-24T13:38:04.385Z</time></trkpt><trkpt lat="46.6967776" lon="10.5361603"><ele>1123.0</ele><time>2026-03-24T13:38:07.383Z</time></trkpt><trkpt lat="46.6968469" lon="10.5361143"><ele>1123.0</ele><time>2026-03-24T13:38:10.368Z</time></trkpt><trkpt lat="46.6969211" lon="10.5360806"><ele>1123.0</ele><time>2026-03-24T13:38:13.385Z</time></trkpt><trkpt lat="46.6969974" lon="10.5360517"><ele>1124.1666666666665</ele><time>2026-03-24T13:38:16.363Z</time></trkpt><trkpt lat="46.6970764" lon="10.5360309"><ele>1125.3333333333333</ele><time>2026-03-24T13:38:19.384Z</time></trkpt><trkpt lat="46.6971552" lon="10.5360233"><ele>1126.5</ele><time>2026-03-24T13:38:22.367Z</time></trkpt><trkpt lat="46.6972346" lon="10.5360248"><ele>1127.6666666666667</ele><time>2026-03-24T13:38:25.382Z</time></trkpt><trkpt lat="46.6973131" lon="10.5360323"><ele>1128.8333333333335</ele><time>2026-03-24T13:38:28.371Z</time></trkpt><trkpt lat="46.6973919" lon="10.5360518"><ele>1130.0</ele><time>2026-03-24T13:38:31.381Z</time></trkpt><trkpt lat="46.697468" lon="10.53608"><ele>1130.0</ele><time>2026-03-24T13:38:34.367Z</time></trkpt><trkpt lat="46.6975408" lon="10.53612"><ele>1130.0</ele><time>2026-03-24T13:38:37.375Z</time></trkpt><trkpt lat="46.6976152" lon="10.5361691"><ele>1130.0</ele><time>2026-03-24T13:38:40.374Z</time></trkpt><trkpt lat="46.6976877" lon="10.5362216"><ele>1130.0</ele><time>2026-03-24T13:38:43.386Z</time></trkpt><trkpt lat="46.6977593" lon="10.5362717"><ele>1130.0</ele><time>2026-03-24T13:38:46.362Z</time></trkpt><trkpt lat="46.6978285" lon="10.5363199"><ele>1130.0</ele><time>2026-03-24T13:38:49.376Z</time></trkpt><trkpt lat="46.6979004" lon="10.53637"><ele>1131.3333333333335</ele><time>2026-03-24T13:38:52.381Z</time></trkpt><trkpt lat="46.6979719" lon="10.5364201"><ele>1132.6666666666667</ele><time>2026-03-24T13:38:55.384Z</time></trkpt><trkpt lat="46.6980459" lon="10.536458"><ele>1134.0</ele><time>2026-03-24T13:38:58.366Z</time></trkpt><trkpt lat="46.6981183" lon="10.5364864"><ele>1135.3333333333333</ele><time>2026-03-24T13:39:01.374Z</time></trkpt><trkpt lat="46.6981929" lon="10.5365067"><ele>1136.6666666666665</ele><time>2026-03-24T13:39:04.375Z</time></trkpt><trkpt lat="46.6982686" lon="10.5365229"><ele>1138.0</ele><time>2026-03-24T13:39:07.388Z</time></trkpt><trkpt lat="46.6983468" lon="10.536527"><ele>1138.0</ele><time>2026-03-24T13:39:10.38Z</time></trkpt><trkpt lat="46.6984254" lon="10.536513"><ele>1138.0</ele><time>2026-03-24T13:39:13.383Z</time></trkpt><trkpt lat="46.698501" lon="10.536473"><ele>1138.0</ele><time>2026-03-24T13:39:16.359Z</time></trkpt><trkpt lat="46.6985735" lon="10.5364298"><ele>1138.0</ele><time>2026-03-24T13:39:19.377Z</time></trkpt><trkpt lat="46.6986472" lon="10.5363853"><ele>1138.0</ele><time>2026-03-24T13:39:22.377Z</time></trkpt><trkpt lat="46.6987204" lon="10.5363432"><ele>1138.0</ele><time>2026-03-24T13:39:25.39Z</time></trkpt><trkpt lat="46.6987941" lon="10.5362977"><ele>1138.8333333333333</ele><time>2026-03-24T13:39:28.375Z</time></trkpt><trkpt lat="46.6988648" lon="10.5362477"><ele>1139.6666666666665</ele><time>2026-03-24T13:39:31.38Z</time></trkpt><trkpt lat="46.6989369" lon="10.5361931"><ele>1140.5</ele><time>2026-03-24T13:39:34.369Z</time></trkpt><trkpt lat="46.6990113" lon="10.5361466"><ele>1141.3333333333333</ele><time>2026-03-24T13:39:37.384Z</time></trkpt><trkpt lat="46.6990901" lon="10.5361198"><ele>1142.1666666666667</ele><time>2026-03-24T13:39:40.378Z</time></trkpt><trkpt lat="46.6991662" lon="10.5360771"><ele>1143.0</ele><time>2026-03-24T13:39:43.372Z</time></trkpt><trkpt lat="46.6992402" lon="10.5360356"><ele>1143.1666666666667</ele><time>2026-03-24T13:39:46.381Z</time></trkpt><trkpt lat="46.6993136" lon="10.5359912"><ele>1143.3333333333333</ele><time>2026-03-24T13:39:49.394Z</time></trkpt><trkpt lat="46.6993893" lon="10.5359483"><ele>1143.5</ele><time>2026-03-24T13:39:52.365Z</time></trkpt><trkpt lat="46.6994629" lon="10.5359035"><ele>1143.6666666666665</ele><time>2026-03-24T13:39:55.369Z</time></trkpt><trkpt lat="46.6995375" lon="10.5358564"><ele>1143.8333333333333</ele><time>2026-03-24T13:39:58.374Z</time></trkpt><trkpt lat="46.699612" lon="10.5358094"><ele>1144.0</ele><time>2026-03-24T13:40:01.364Z</time></trkpt><trkpt lat="46.6996852" lon="10.5357582"><ele>1145.1666666666665</ele><time>2026-03-24T13:40:04.376Z</time></trkpt><trkpt lat="46.699758" lon="10.5357035"><ele>1146.3333333333333</ele><time>2026-03-24T13:40:07.38Z</time></trkpt><trkpt lat="46.6998296" lon="10.5356422"><ele>1147.5</ele><time>2026-03-24T13:40:10.38Z</time></trkpt><trkpt lat="46.6999002" lon="10.5355811"><ele>1148.6666666666667</ele><time>2026-03-24T13:40:13.381Z</time></trkpt><trkpt lat="46.6999702" lon="10.5355171"><ele>1149.8333333333335</ele><time>2026-03-24T13:40:16.376Z</time></trkpt><trkpt lat="46.7000398" lon="10.5354537"><ele>1151.0</ele><time>2026-03-24T13:40:19.377Z</time></trkpt><trkpt lat="46.700111" lon="10.5353863"><ele>1151.0</ele><time>2026-03-24T13:40:22.375Z</time></trkpt><trkpt lat="46.7001788" lon="10.5353112"><ele>1151.0</ele><time>2026-03-24T13:40:25.372Z</time></trkpt><trkpt lat="46.7002459" lon="10.5352348"><ele>1151.0</ele><time>2026-03-24T13:40:28.377Z</time></trkpt><trkpt lat="46.7003111" lon="10.535153"><ele>1151.0</ele><time>2026-03-24T13:40:31.38Z</time></trkpt><trkpt lat="46.7003736" lon="10.5350659"><ele>1151.0</ele><time>2026-03-24T13:40:34.379Z</time></trkpt><trkpt lat="46.7004392" lon="10.534977"><ele>1151.0</ele><time>2026-03-24T13:40:37.377Z</time></trkpt><trkpt lat="46.7005039" lon="10.5348922"><ele>1151.8333333333335</ele><time>2026-03-24T13:40:40.369Z</time></trkpt><trkpt lat="46.7005659" lon="10.5348093"><ele>1152.6666666666667</ele><time>2026-03-24T13:40:43.375Z</time></trkpt><trkpt lat="46.7006308" lon="10.5347289"><ele>1153.5</ele><time>2026-03-24T13:40:46.372Z</time></trkpt><trkpt lat="46.7006979" lon="10.5346463"><ele>1154.3333333333333</ele><time>2026-03-24T13:40:49.37Z</time></trkpt><trkpt lat="46.7007686" lon="10.5345721"><ele>1155.1666666666665</ele><time>2026-03-24T13:40:52.375Z</time></trkpt><trkpt lat="46.7008391" lon="10.5344998"><ele>1156.0</ele><time>2026-03-24T13:40:55.365Z</time></trkpt><trkpt lat="46.7009126" lon="10.5344327"><ele>1156.0</ele><time>2026-03-24T13:40:58.372Z</time></trkpt><trkpt lat="46.7009863" lon="10.5343639"><ele>1156.0</ele><time>2026-03-24T13:41:01.377Z</time></trkpt><trkpt lat="46.7010594" lon="10.534298"><ele>1156.0</ele><time>2026-03-24T13:41:04.369Z</time></trkpt><trkpt lat="46.7011332" lon="10.5342312"><ele>1156.0</ele><time>2026-03-24T13:41:07.363Z</time></trkpt><trkpt lat="46.7012091" lon="10.534161"><ele>1156.0</ele><time>2026-03-24T13:41:10.374Z</time></trkpt><trkpt lat="46.701285" lon="10.5340933"><ele>1156.0</ele><time>2026-03-24T13:41:13.371Z</time></trkpt><trkpt lat="46.7013596" lon="10.5340244"><ele>1156.8333333333333</ele><time>2026-03-24T13:41:16.381Z</time></trkpt><trkpt lat="46.7014342" lon="10.5339574"><ele>1157.6666666666665</ele><time>2026-03-24T13:41:19.389Z</time></trkpt><trkpt lat="46.701508" lon="10.5338885"><ele>1158.5</ele><time>2026-03-24T13:41:22.38Z</time></trkpt><trkpt lat="46.7015811" lon="10.5338204"><ele>1159.3333333333333</ele><time>2026-03-24T13:41:25.374Z</time></trkpt><trkpt lat="46.7016528" lon="10.5337518"><ele>1160.1666666666667</ele><time>2026-03-24T13:41:28.385Z</time></trkpt><trkpt lat="46.7017243" lon="10.5336816"><ele>1161.0</ele><time>2026-03-24T13:41:31.375Z</time></trkpt><trkpt lat="46.7017947" lon="10.5336094"><ele>1161.0</ele><time>2026-03-24T13:41:34.378Z</time></trkpt><trkpt lat="46.7018671" lon="10.5335314"><ele>1161.0</ele><time>2026-03-24T13:41:37.371Z</time></trkpt><trkpt lat="46.7019334" lon="10.5334509"><ele>1161.0</ele><time>2026-03-24T13:41:40.374Z</time></trkpt><trkpt lat="46.7019982" lon="10.5333675"><ele>1161.0</ele><time>2026-03-24T13:41:43.378Z</time></trkpt><trkpt lat="46.7020633" lon="10.5332818"><ele>1161.0</ele><time>2026-03-24T13:41:46.37Z</time></trkpt><trkpt lat="46.702128" lon="10.5331994"><ele>1161.0</ele><time>2026-03-24T13:41:49.375Z</time></trkpt><trkpt lat="46.702193" lon="10.5331165"><ele>1162.3333333333333</ele><time>2026-03-24T13:41:52.385Z</time></trkpt><trkpt lat="46.702259" lon="10.5330389"><ele>1163.6666666666667</ele><time>2026-03-24T13:41:55.374Z</time></trkpt><trkpt lat="46.7023298" lon="10.5329639"><ele>1165.0</ele><time>2026-03-24T13:41:58.378Z</time></trkpt><trkpt lat="46.7024012" lon="10.5328924"><ele>1166.3333333333335</ele><time>2026-03-24T13:42:01.378Z</time></trkpt><trkpt lat="46.7024727" lon="10.532823"><ele>1167.6666666666667</ele><time>2026-03-24T13:42:04.361Z</time></trkpt><trkpt lat="46.7025462" lon="10.5327542"><ele>1169.0</ele><time>2026-03-24T13:42:07.374Z</time></trkpt><trkpt lat="46.702619" lon="10.5326867"><ele>1169.0</ele><time>2026-03-24T13:42:10.36Z</time></trkpt><trkpt lat="46.7026928" lon="10.532622"><ele>1169.0</ele><time>2026-03-24T13:42:13.375Z</time></trkpt><trkpt lat="46.7027663" lon="10.5325571"><ele>1169.0</ele><time>2026-03-24T13:42:16.371Z</time></trkpt><trkpt lat="46.70284" lon="10.5324913"><ele>1169.0</ele><time>2026-03-24T13:42:19.365Z</time></trkpt><trkpt lat="46.7029129" lon="10.5324287"><ele>1169.0</ele><time>2026-03-24T13:42:22.371Z</time></trkpt><trkpt lat="46.7029837" lon="10.5323647"><ele>1169.0</ele><time>2026-03-24T13:42:25.364Z</time></trkpt><trkpt lat="46.7030547" lon="10.5323006"><ele>1169.3333333333335</ele><time>2026-03-24T13:42:28.367Z</time></trkpt><trkpt lat="46.7031295" lon="10.5322361"><ele>1169.6666666666667</ele><time>2026-03-24T13:42:31.365Z</time></trkpt><trkpt lat="46.7032029" lon="10.5321712"><ele>1170.0</ele><time>2026-03-24T13:42:34.38Z</time></trkpt><trkpt lat="46.7032755" lon="10.5321077"><ele>1170.3333333333333</ele><time>2026-03-24T13:42:37.38Z</time></trkpt><trkpt lat="46.7033514" lon="10.5320467"><ele>1170.6666666666665</ele><time>2026-03-24T13:42:40.38Z</time></trkpt><trkpt lat="46.7034329" lon="10.5319956"><ele>1171.0</ele><time>2026-03-24T13:42:43.384Z</time></trkpt><trkpt lat="46.7035169" lon="10.5319648"><ele>1172.3333333333333</ele><time>2026-03-24T13:42:46.371Z</time></trkpt><trkpt lat="46.7036034" lon="10.5319624"><ele>1173.6666666666665</ele><time>2026-03-24T13:42:49.371Z</time></trkpt><trkpt lat="46.703686" lon="10.5319996"><ele>1175.0</ele><time>2026-03-24T13:42:52.371Z</time></trkpt><trkpt lat="46.7037578" lon="10.53207"><ele>1176.3333333333333</ele><time>2026-03-24T13:42:55.363Z</time></trkpt><trkpt lat="46.7038146" lon="10.5321723"><ele>1177.6666666666667</ele><time>2026-03-24T13:42:58.369Z</time></trkpt><trkpt lat="46.7038468" lon="10.5322931"><ele>1179.0</ele><time>2026-03-24T13:43:01.368Z</time></trkpt><trkpt lat="46.7038598" lon="10.5324244"><ele>1179.1666666666667</ele><time>2026-03-24T13:43:04.381Z</time></trkpt><trkpt lat="46.7038541" lon="10.5325614"><ele>1179.3333333333333</ele><time>2026-03-24T13:43:07.36Z</time></trkpt><trkpt lat="46.7038439" lon="10.5326815"><ele>1179.5</ele><time>2026-03-24T13:43:10.376Z</time></trkpt><trkpt lat="46.7038282" lon="10.5327843"><ele>1179.6666666666665</ele><time>2026-03-24T13:43:12.372Z</time></trkpt><trkpt lat="46.7038155" lon="10.532882"><ele>1179.8333333333333</ele><time>2026-03-24T13:43:14.374Z</time></trkpt><trkpt lat="46.703797" lon="10.532997"><ele>1180.0</ele><time>2026-03-24T13:43:17.377Z</time></trkpt><trkpt lat="46.7037766" lon="10.5331235"><ele>1180.0000000000002</ele><time>2026-03-24T13:43:20.374Z</time></trkpt><trkpt lat="46.7037548" lon="10.5332441"><ele>1180.0</ele><time>2026-03-24T13:43:23.368Z</time></trkpt><trkpt lat="46.7037372" lon="10.5333786"><ele>1180.0</ele><time>2026-03-24T13:43:26.365Z</time></trkpt><trkpt lat="46.703727" lon="10.5334698"><ele>1180.0</ele><time>2026-03-24T13:43:28.373Z</time></trkpt><trkpt lat="46.7037218" lon="10.5335631"><ele>1180.0</ele><time>2026-03-24T13:43:30.363Z</time></trkpt><trkpt lat="46.7037211" lon="10.5336576"><ele>1180.0000000000002</ele><time>2026-03-24T13:43:32.374Z</time></trkpt><trkpt lat="46.7037249" lon="10.5337497"><ele>1180.0</ele><time>2026-03-24T13:43:34.381Z</time></trkpt><trkpt lat="46.7037325" lon="10.5338417"><ele>1180.7142857142858</ele><time>2026-03-24T13:43:36.386Z</time></trkpt><trkpt lat="46.7037468" lon="10.53397"><ele>1181.4285714285716</ele><time>2026-03-24T13:43:39.366Z</time></trkpt><trkpt lat="46.703752" lon="10.5340641"><ele>1182.142857142857</ele><time>2026-03-24T13:43:41.363Z</time></trkpt><trkpt lat="46.7037614" lon="10.5341599"><ele>1182.857142857143</ele><time>2026-03-24T13:43:43.367Z</time></trkpt><trkpt lat="46.7037712" lon="10.5342539"><ele>1183.5714285714284</ele><time>2026-03-24T13:43:45.386Z</time></trkpt><trkpt lat="46.7037808" lon="10.5343511"><ele>1184.2857142857142</ele><time>2026-03-24T13:43:47.374Z</time></trkpt><trkpt lat="46.7037926" lon="10.5344501"><ele>1185.0</ele><time>2026-03-24T13:43:49.369Z</time></trkpt><trkpt lat="46.7038033" lon="10.5345443"><ele>1185.8333333333333</ele><time>2026-03-24T13:43:51.386Z</time></trkpt><trkpt lat="46.7038149" lon="10.5346369"><ele>1186.6666666666667</ele><time>2026-03-24T13:43:53.36Z</time></trkpt><trkpt lat="46.703834" lon="10.5347686"><ele>1187.5</ele><time>2026-03-24T13:43:56.377Z</time></trkpt><trkpt lat="46.7038458" lon="10.5349052"><ele>1188.3333333333335</ele><time>2026-03-24T13:43:59.366Z</time></trkpt><trkpt lat="46.7038595" lon="10.5350382"><ele>1189.1666666666667</ele><time>2026-03-24T13:44:02.383Z</time></trkpt><trkpt lat="46.7038721" lon="10.5351709"><ele>1190.0</ele><time>2026-03-24T13:44:05.373Z</time></trkpt><trkpt lat="46.7038855" lon="10.5352947"><ele>1190.0</ele><time>2026-03-24T13:44:08.369Z</time></trkpt><trkpt lat="46.703897" lon="10.5354229"><ele>1190.0</ele><time>2026-03-24T13:44:11.379Z</time></trkpt><trkpt lat="46.7039123" lon="10.535551"><ele>1190.0</ele><time>2026-03-24T13:44:14.379Z</time></trkpt><trkpt lat="46.7039261" lon="10.5356845"><ele>1190.0</ele><time>2026-03-24T13:44:17.371Z</time></trkpt><trkpt lat="46.7039395" lon="10.5358171"><ele>1190.0</ele><time>2026-03-24T13:44:20.36Z</time></trkpt><trkpt lat="46.7039542" lon="10.5359497"><ele>1190.0</ele><time>2026-03-24T13:44:23.368Z</time></trkpt><trkpt lat="46.7039714" lon="10.5360808"><ele>1190.0</ele><time>2026-03-24T13:44:26.375Z</time></trkpt><trkpt lat="46.7039855" lon="10.5362114"><ele>1190.0</ele><time>2026-03-24T13:44:29.378Z</time></trkpt><trkpt lat="46.7039984" lon="10.536346"><ele>1190.0</ele><time>2026-03-24T13:44:32.367Z</time></trkpt><trkpt lat="46.7040158" lon="10.5364794"><ele>1190.0</ele><time>2026-03-24T13:44:35.362Z</time></trkpt><trkpt lat="46.7040291" lon="10.5366084"><ele>1190.1666666666667</ele><time>2026-03-24T13:44:38.373Z</time></trkpt><trkpt lat="46.7040437" lon="10.5367395"><ele>1190.3333333333335</ele><time>2026-03-24T13:44:41.38Z</time></trkpt><trkpt lat="46.704059" lon="10.5368735"><ele>1190.5</ele><time>2026-03-24T13:44:44.388Z</time></trkpt><trkpt lat="46.7040687" lon="10.5369644"><ele>1190.6666666666667</ele><time>2026-03-24T13:44:46.378Z</time></trkpt><trkpt lat="46.704082" lon="10.5371002"><ele>1190.8333333333333</ele><time>2026-03-24T13:44:49.378Z</time></trkpt><trkpt lat="46.7040944" lon="10.5371914"><ele>1191.0</ele><time>2026-03-24T13:44:51.384Z</time></trkpt><trkpt lat="46.7041036" lon="10.5372844"><ele>1191.0</ele><time>2026-03-24T13:44:53.365Z</time></trkpt><trkpt lat="46.7041212" lon="10.5374197"><ele>1191.0</ele><time>2026-03-24T13:44:56.38Z</time></trkpt><trkpt lat="46.7041286" lon="10.5375118"><ele>1191.0</ele><time>2026-03-24T13:44:58.376Z</time></trkpt><trkpt lat="46.704137" lon="10.5376028"><ele>1191.0</ele><time>2026-03-24T13:45:00.373Z</time></trkpt><trkpt lat="46.7041522" lon="10.537739"><ele>1191.0</ele><time>2026-03-24T13:45:03.369Z</time></trkpt><trkpt lat="46.7041617" lon="10.5378307"><ele>1191.0</ele><time>2026-03-24T13:45:05.378Z</time></trkpt><trkpt lat="46.7041753" lon="10.5379648"><ele>1191.1666666666667</ele><time>2026-03-24T13:45:08.372Z</time></trkpt><trkpt lat="46.7041872" lon="10.5381004"><ele>1191.3333333333333</ele><time>2026-03-24T13:45:11.376Z</time></trkpt><trkpt lat="46.7041945" lon="10.5382345"><ele>1191.5</ele><time>2026-03-24T13:45:14.371Z</time></trkpt><trkpt lat="46.704202" lon="10.538371"><ele>1191.6666666666665</ele><time>2026-03-24T13:45:17.379Z</time></trkpt><trkpt lat="46.7042062" lon="10.5384636"><ele>1191.8333333333333</ele><time>2026-03-24T13:45:19.369Z</time></trkpt><trkpt lat="46.7042144" lon="10.5385986"><ele>1192.0</ele><time>2026-03-24T13:45:22.37Z</time></trkpt><trkpt lat="46.7042188" lon="10.5386904"><ele>1192.6666666666665</ele><time>2026-03-24T13:45:24.37Z</time></trkpt><trkpt lat="46.7042163" lon="10.5388277"><ele>1193.3333333333333</ele><time>2026-03-24T13:45:27.379Z</time></trkpt><trkpt lat="46.7042063" lon="10.5389645"><ele>1194.0</ele><time>2026-03-24T13:45:30.374Z</time></trkpt><trkpt lat="46.7041939" lon="10.5390561"><ele>1194.6666666666667</ele><time>2026-03-24T13:45:32.377Z</time></trkpt><trkpt lat="46.7041771" lon="10.5391457"><ele>1195.3333333333335</ele><time>2026-03-24T13:45:34.364Z</time></trkpt><trkpt lat="46.7041481" lon="10.5392809"><ele>1196.0</ele><time>2026-03-24T13:45:37.375Z</time></trkpt><trkpt lat="46.7041152" lon="10.5394017"><ele>1196.0</ele><time>2026-03-24T13:45:40.374Z</time></trkpt><trkpt lat="46.7040812" lon="10.5395232"><ele>1196.0</ele><time>2026-03-24T13:45:43.368Z</time></trkpt><trkpt lat="46.7040501" lon="10.5396479"><ele>1196.0</ele><time>2026-03-24T13:45:46.369Z</time></trkpt><trkpt lat="46.7040272" lon="10.5397784"><ele>1196.0</ele><time>2026-03-24T13:45:49.371Z</time></trkpt><trkpt lat="46.7040255" lon="10.5399113"><ele>1196.0</ele><time>2026-03-24T13:45:52.349Z</time></trkpt><trkpt lat="46.704035" lon="10.5400411"><ele>1196.8</ele><time>2026-03-24T13:45:55.367Z</time></trkpt><trkpt lat="46.7040704" lon="10.540163"><ele>1197.6</ele><time>2026-03-24T13:45:58.367Z</time></trkpt><trkpt lat="46.7041223" lon="10.5402729"><ele>1198.4</ele><time>2026-03-24T13:46:01.376Z</time></trkpt><trkpt lat="46.7041869" lon="10.5403642"><ele>1199.2</ele><time>2026-03-24T13:46:04.371Z</time></trkpt><trkpt lat="46.7042593" lon="10.5404372"><ele>1200.0</ele><time>2026-03-24T13:46:07.37Z</time></trkpt><trkpt lat="46.7043432" lon="10.5404863"><ele>1201.142857142857</ele><time>2026-03-24T13:46:10.373Z</time></trkpt><trkpt lat="46.7044374" lon="10.5404854"><ele>1202.2857142857142</ele><time>2026-03-24T13:46:13.371Z</time></trkpt><trkpt lat="46.7045004" lon="10.5404623"><ele>1203.4285714285716</ele><time>2026-03-24T13:46:15.378Z</time></trkpt><trkpt lat="46.7045857" lon="10.5404083"><ele>1204.5714285714284</ele><time>2026-03-24T13:46:18.368Z</time></trkpt><trkpt lat="46.7046409" lon="10.5403601"><ele>1205.7142857142858</ele><time>2026-03-24T13:46:20.375Z</time></trkpt><trkpt lat="46.7046919" lon="10.5403062"><ele>1206.857142857143</ele><time>2026-03-24T13:46:22.364Z</time></trkpt><trkpt lat="46.7047396" lon="10.5402459"><ele>1208.0</ele><time>2026-03-24T13:46:24.37Z</time></trkpt><trkpt lat="46.70481" lon="10.5401566"><ele>1208.0</ele><time>2026-03-24T13:46:27.367Z</time></trkpt><trkpt lat="46.7048818" lon="10.5400704"><ele>1208.0</ele><time>2026-03-24T13:46:30.368Z</time></trkpt><trkpt lat="46.704929" lon="10.5400092"><ele>1208.0</ele><time>2026-03-24T13:46:32.376Z</time></trkpt><trkpt lat="46.7049996" lon="10.5399216"><ele>1208.0</ele><time>2026-03-24T13:46:35.368Z</time></trkpt><trkpt lat="46.7050694" lon="10.5398383"><ele>1208.0</ele><time>2026-03-24T13:46:38.375Z</time></trkpt><trkpt lat="46.7051388" lon="10.5397581"><ele>1208.0</ele><time>2026-03-24T13:46:41.374Z</time></trkpt><trkpt lat="46.7052092" lon="10.5396772"><ele>1209.0</ele><time>2026-03-24T13:46:44.378Z</time></trkpt><trkpt lat="46.7052813" lon="10.5396004"><ele>1210.0</ele><time>2026-03-24T13:46:47.378Z</time></trkpt><trkpt lat="46.7053526" lon="10.5395203"><ele>1211.0</ele><time>2026-03-24T13:46:50.373Z</time></trkpt><trkpt lat="46.7054241" lon="10.5394395"><ele>1212.0</ele><time>2026-03-24T13:46:53.379Z</time></trkpt><trkpt lat="46.7054955" lon="10.53936"><ele>1213.0</ele><time>2026-03-24T13:46:56.376Z</time></trkpt><trkpt lat="46.7055671" lon="10.5392815"><ele>1214.0</ele><time>2026-03-24T13:46:59.372Z</time></trkpt><trkpt lat="46.7056352" lon="10.5392012"><ele>1214.0</ele><time>2026-03-24T13:47:02.358Z</time></trkpt><trkpt lat="46.7057041" lon="10.5391226"><ele>1214.0</ele><time>2026-03-24T13:47:05.364Z</time></trkpt><trkpt lat="46.7057739" lon="10.5390449"><ele>1214.0</ele><time>2026-03-24T13:47:08.365Z</time></trkpt><trkpt lat="46.705845" lon="10.538968"><ele>1214.0</ele><time>2026-03-24T13:47:11.355Z</time></trkpt><trkpt lat="46.7059147" lon="10.5388912"><ele>1214.0</ele><time>2026-03-24T13:47:14.37Z</time></trkpt><trkpt lat="46.705966" lon="10.5388352"><ele>1214.0</ele><time>2026-03-24T13:47:16.377Z</time></trkpt><trkpt lat="46.7060331" lon="10.538756"><ele>1215.3333333333335</ele><time>2026-03-24T13:47:19.371Z</time></trkpt><trkpt lat="46.706101" lon="10.538683"><ele>1216.6666666666667</ele><time>2026-03-24T13:47:22.382Z</time></trkpt><trkpt lat="46.7061692" lon="10.5386058"><ele>1218.0</ele><time>2026-03-24T13:47:25.368Z</time></trkpt><trkpt lat="46.706238" lon="10.5385289"><ele>1219.3333333333333</ele><time>2026-03-24T13:47:28.368Z</time></trkpt><trkpt lat="46.706305" lon="10.5384511"><ele>1220.6666666666665</ele><time>2026-03-24T13:47:31.375Z</time></trkpt><trkpt lat="46.7063726" lon="10.5383755"><ele>1222.0</ele><time>2026-03-24T13:47:34.378Z</time></trkpt><trkpt lat="46.7064391" lon="10.5383017"><ele>1222.0</ele><time>2026-03-24T13:47:37.38Z</time></trkpt><trkpt lat="46.7065068" lon="10.5382241"><ele>1222.0</ele><time>2026-03-24T13:47:40.371Z</time></trkpt><trkpt lat="46.7065723" lon="10.5381522"><ele>1222.0</ele><time>2026-03-24T13:47:43.366Z</time></trkpt><trkpt lat="46.7066371" lon="10.5380799"><ele>1222.0</ele><time>2026-03-24T13:47:46.377Z</time></trkpt><trkpt lat="46.7067013" lon="10.5380099"><ele>1222.0</ele><time>2026-03-24T13:47:49.381Z</time></trkpt><trkpt lat="46.7067657" lon="10.5379372"><ele>1222.0</ele><time>2026-03-24T13:47:52.376Z</time></trkpt><trkpt lat="46.7068322" lon="10.5378667"><ele>1222.5</ele><time>2026-03-24T13:47:55.378Z</time></trkpt><trkpt lat="46.7068981" lon="10.5377943"><ele>1223.0</ele><time>2026-03-24T13:47:58.376Z</time></trkpt><trkpt lat="46.7069649" lon="10.5377218"><ele>1223.5</ele><time>2026-03-24T13:48:01.374Z</time></trkpt><trkpt lat="46.7070334" lon="10.5376481"><ele>1224.0</ele><time>2026-03-24T13:48:04.378Z</time></trkpt><trkpt lat="46.7071" lon="10.5375706"><ele>1224.5</ele><time>2026-03-24T13:48:07.366Z</time></trkpt><trkpt lat="46.7071664" lon="10.5374961"><ele>1225.0</ele><time>2026-03-24T13:48:10.376Z</time></trkpt><trkpt lat="46.7072356" lon="10.5374204"><ele>1225.0</ele><time>2026-03-24T13:48:13.383Z</time></trkpt><trkpt lat="46.7073088" lon="10.5373478"><ele>1225.0</ele><time>2026-03-24T13:48:16.365Z</time></trkpt><trkpt lat="46.7073831" lon="10.5372775"><ele>1225.0</ele><time>2026-03-24T13:48:19.377Z</time></trkpt><trkpt lat="46.7074564" lon="10.5372143"><ele>1225.0</ele><time>2026-03-24T13:48:22.371Z</time></trkpt><trkpt lat="46.7075344" lon="10.5371617"><ele>1225.0</ele><time>2026-03-24T13:48:25.39Z</time></trkpt><trkpt lat="46.7076106" lon="10.5371085"><ele>1225.0</ele><time>2026-03-24T13:48:28.374Z</time></trkpt><trkpt lat="46.7076884" lon="10.5370604"><ele>1226.0</ele><time>2026-03-24T13:48:31.367Z</time></trkpt><trkpt lat="46.7077667" lon="10.5370173"><ele>1227.0</ele><time>2026-03-24T13:48:34.383Z</time></trkpt><trkpt lat="46.7078459" lon="10.5369813"><ele>1228.0</ele><time>2026-03-24T13:48:37.378Z</time></trkpt><trkpt lat="46.7079304" lon="10.5369522"><ele>1229.0</ele><time>2026-03-24T13:48:40.378Z</time></trkpt><trkpt lat="46.7080116" lon="10.5369312"><ele>1230.0</ele><time>2026-03-24T13:48:43.382Z</time></trkpt><trkpt lat="46.7080878" lon="10.5369141"><ele>1231.0</ele><time>2026-03-24T13:48:46.367Z</time></trkpt><trkpt lat="46.7081624" lon="10.5369059"><ele>1231.0</ele><time>2026-03-24T13:48:49.378Z</time></trkpt><trkpt lat="46.7082375" lon="10.5369016"><ele>1231.0</ele><time>2026-03-24T13:48:52.38Z</time></trkpt><trkpt lat="46.7083143" lon="10.5368909"><ele>1231.0</ele><time>2026-03-24T13:48:55.374Z</time></trkpt><trkpt lat="46.7083896" lon="10.5368888"><ele>1231.0</ele><time>2026-03-24T13:48:58.384Z</time></trkpt><trkpt lat="46.7084598" lon="10.5368777"><ele>1231.0</ele><time>2026-03-24T13:49:01.384Z</time></trkpt><trkpt lat="46.7085284" lon="10.5368585"><ele>1231.0</ele><time>2026-03-24T13:49:04.389Z</time></trkpt><trkpt lat="46.7085997" lon="10.5368364"><ele>1231.0</ele><time>2026-03-24T13:49:07.377Z</time></trkpt><trkpt lat="46.7086704" lon="10.5367987"><ele>1232.5</ele><time>2026-03-24T13:49:10.359Z</time></trkpt><trkpt lat="46.7087448" lon="10.5367673"><ele>1234.0</ele><time>2026-03-24T13:49:13.375Z</time></trkpt><trkpt lat="46.708818" lon="10.5367284"><ele>1235.5</ele><time>2026-03-24T13:49:16.375Z</time></trkpt><trkpt lat="46.7088892" lon="10.5366844"><ele>1237.0</ele><time>2026-03-24T13:49:19.361Z</time></trkpt><trkpt lat="46.7089613" lon="10.5366382"><ele>1238.5</ele><time>2026-03-24T13:49:22.376Z</time></trkpt><trkpt lat="46.7090355" lon="10.5365954"><ele>1240.0</ele><time>2026-03-24T13:49:25.38Z</time></trkpt><trkpt lat="46.709108" lon="10.5365474"><ele>1240.0</ele><time>2026-03-24T13:49:28.381Z</time></trkpt><trkpt lat="46.7091805" lon="10.5365048"><ele>1240.0</ele><time>2026-03-24T13:49:31.369Z</time></trkpt><trkpt lat="46.7092526" lon="10.5364591"><ele>1240.0</ele><time>2026-03-24T13:49:34.373Z</time></trkpt><trkpt lat="46.7093283" lon="10.5364151"><ele>1240.0</ele><time>2026-03-24T13:49:37.389Z</time></trkpt><trkpt lat="46.7094036" lon="10.5363669"><ele>1240.0</ele><time>2026-03-24T13:49:40.376Z</time></trkpt><trkpt lat="46.7094786" lon="10.536322"><ele>1240.0</ele><time>2026-03-24T13:49:43.375Z</time></trkpt><trkpt lat="46.7095523" lon="10.5362735"><ele>1240.5</ele><time>2026-03-24T13:49:46.377Z</time></trkpt><trkpt lat="46.7096255" lon="10.5362306"><ele>1241.0</ele><time>2026-03-24T13:49:49.38Z</time></trkpt><trkpt lat="46.7096986" lon="10.53619"><ele>1241.5</ele><time>2026-03-24T13:49:52.381Z</time></trkpt><trkpt lat="46.7097733" lon="10.5361465"><ele>1242.0</ele><time>2026-03-24T13:49:55.376Z</time></trkpt><trkpt lat="46.7098498" lon="10.5361018"><ele>1242.5</ele><time>2026-03-24T13:49:58.372Z</time></trkpt><trkpt lat="46.7099251" lon="10.536054"><ele>1243.0</ele><time>2026-03-24T13:50:01.385Z</time></trkpt><trkpt lat="46.7100016" lon="10.5360094"><ele>1243.0</ele><time>2026-03-24T13:50:04.384Z</time></trkpt><trkpt lat="46.7100763" lon="10.5359618"><ele>1243.0</ele><time>2026-03-24T13:50:07.386Z</time></trkpt><trkpt lat="46.7101474" lon="10.5359197"><ele>1243.0</ele><time>2026-03-24T13:50:10.381Z</time></trkpt><trkpt lat="46.7102231" lon="10.5358768"><ele>1243.0</ele><time>2026-03-24T13:50:13.368Z</time></trkpt><trkpt lat="46.7102981" lon="10.5358339"><ele>1243.0</ele><time>2026-03-24T13:50:16.375Z</time></trkpt><trkpt lat="46.7103742" lon="10.5357916"><ele>1243.0</ele><time>2026-03-24T13:50:19.375Z</time></trkpt><trkpt lat="46.7104502" lon="10.5357501"><ele>1244.1666666666665</ele><time>2026-03-24T13:50:22.382Z</time></trkpt><trkpt lat="46.710526" lon="10.5357062"><ele>1245.3333333333333</ele><time>2026-03-24T13:50:25.381Z</time></trkpt><trkpt lat="46.7106023" lon="10.5356662"><ele>1246.5</ele><time>2026-03-24T13:50:28.378Z</time></trkpt><trkpt lat="46.7106759" lon="10.535621"><ele>1247.6666666666667</ele><time>2026-03-24T13:50:31.38Z</time></trkpt><trkpt lat="46.7107522" lon="10.5355763"><ele>1248.8333333333335</ele><time>2026-03-24T13:50:34.374Z</time></trkpt><trkpt lat="46.7108271" lon="10.5355254"><ele>1250.0</ele><time>2026-03-24T13:50:37.382Z</time></trkpt><trkpt lat="46.7109028" lon="10.535471"><ele>1250.0</ele><time>2026-03-24T13:50:40.371Z</time></trkpt><trkpt lat="46.7109809" lon="10.5354111"><ele>1250.0</ele><time>2026-03-24T13:50:43.37Z</time></trkpt><trkpt lat="46.7110531" lon="10.5353422"><ele>1250.0</ele><time>2026-03-24T13:50:46.381Z</time></trkpt><trkpt lat="46.7111222" lon="10.5352689"><ele>1250.0</ele><time>2026-03-24T13:50:49.384Z</time></trkpt><trkpt lat="46.7111886" lon="10.5351935"><ele>1250.0</ele><time>2026-03-24T13:50:52.38Z</time></trkpt><trkpt lat="46.7112541" lon="10.5351097"><ele>1250.0</ele><time>2026-03-24T13:50:55.374Z</time></trkpt><trkpt lat="46.7113144" lon="10.5350171"><ele>1251.0</ele><time>2026-03-24T13:50:58.371Z</time></trkpt><trkpt lat="46.7113709" lon="10.5349205"><ele>1252.0</ele><time>2026-03-24T13:51:01.377Z</time></trkpt><trkpt lat="46.7114291" lon="10.5348228"><ele>1253.0</ele><time>2026-03-24T13:51:04.38Z</time></trkpt><trkpt lat="46.7114862" lon="10.5347234"><ele>1254.0</ele><time>2026-03-24T13:51:07.386Z</time></trkpt><trkpt lat="46.7115527" lon="10.5346346"><ele>1255.0</ele><time>2026-03-24T13:51:10.374Z</time></trkpt><trkpt lat="46.7116333" lon="10.5345781"><ele>1256.0</ele><time>2026-03-24T13:51:13.383Z</time></trkpt><trkpt lat="46.7117049" lon="10.5345008"><ele>1256.0</ele><time>2026-03-24T13:51:16.373Z</time></trkpt><trkpt lat="46.7117599" lon="10.5343907"><ele>1256.0</ele><time>2026-03-24T13:51:19.382Z</time></trkpt><trkpt lat="46.7117748" lon="10.534261"><ele>1256.0</ele><time>2026-03-24T13:51:22.375Z</time></trkpt><trkpt lat="46.7117582" lon="10.5341419"><ele>1256.0</ele><time>2026-03-24T13:51:25.383Z</time></trkpt><trkpt lat="46.7117503" lon="10.5340257"><ele>1256.0</ele><time>2026-03-24T13:51:28.36Z</time></trkpt><trkpt lat="46.7117809" lon="10.5339011"><ele>1256.0</ele><time>2026-03-24T13:51:31.378Z</time></trkpt><trkpt lat="46.7118345" lon="10.5337906"><ele>1256.5</ele><time>2026-03-24T13:51:34.376Z</time></trkpt><trkpt lat="46.7118971" lon="10.5337054"><ele>1257.0</ele><time>2026-03-24T13:51:37.385Z</time></trkpt><trkpt lat="46.7119705" lon="10.5336341"><ele>1257.5</ele><time>2026-03-24T13:51:40.379Z</time></trkpt><trkpt lat="46.712053" lon="10.5335821"><ele>1258.0</ele><time>2026-03-24T13:51:43.383Z</time></trkpt><trkpt lat="46.7121378" lon="10.5335444"><ele>1258.5</ele><time>2026-03-24T13:51:46.373Z</time></trkpt><trkpt lat="46.7122255" lon="10.5335123"><ele>1259.0</ele><time>2026-03-24T13:51:49.379Z</time></trkpt><trkpt lat="46.7123109" lon="10.5334931"><ele>1259.0</ele><time>2026-03-24T13:51:52.373Z</time></trkpt><trkpt lat="46.7123977" lon="10.5334836"><ele>1259.0</ele><time>2026-03-24T13:51:55.377Z</time></trkpt><trkpt lat="46.7124862" lon="10.5334723"><ele>1259.0</ele><time>2026-03-24T13:51:58.373Z</time></trkpt><trkpt lat="46.7125716" lon="10.5334534"><ele>1259.0</ele><time>2026-03-24T13:52:01.381Z</time></trkpt><trkpt lat="46.7126572" lon="10.533434"><ele>1259.0</ele><time>2026-03-24T13:52:04.383Z</time></trkpt><trkpt lat="46.7127423" lon="10.5334134"><ele>1259.0</ele><time>2026-03-24T13:52:07.374Z</time></trkpt><trkpt lat="46.7128262" lon="10.5333891"><ele>1260.3333333333335</ele><time>2026-03-24T13:52:10.376Z</time></trkpt><trkpt lat="46.7129098" lon="10.5333635"><ele>1261.6666666666667</ele><time>2026-03-24T13:52:13.381Z</time></trkpt><trkpt lat="46.7129915" lon="10.5333366"><ele>1263.0</ele><time>2026-03-24T13:52:16.373Z</time></trkpt><trkpt lat="46.7130732" lon="10.5333085"><ele>1264.3333333333333</ele><time>2026-03-24T13:52:19.366Z</time></trkpt><trkpt lat="46.7131482" lon="10.5332802"><ele>1265.6666666666665</ele><time>2026-03-24T13:52:22.38Z</time></trkpt><trkpt lat="46.7132183" lon="10.5332613"><ele>1267.0</ele><time>2026-03-24T13:52:25.385Z</time></trkpt><trkpt lat="46.7132949" lon="10.5332306"><ele>1267.0</ele><time>2026-03-24T13:52:28.38Z</time></trkpt><trkpt lat="46.7133735" lon="10.5331988"><ele>1267.0</ele><time>2026-03-24T13:52:31.389Z</time></trkpt><trkpt lat="46.7134512" lon="10.5331585"><ele>1267.0</ele><time>2026-03-24T13:52:34.377Z</time></trkpt><trkpt lat="46.7135225" lon="10.5331343"><ele>1267.0</ele><time>2026-03-24T13:52:37.382Z</time></trkpt><trkpt lat="46.7136035" lon="10.5331163"><ele>1267.0</ele><time>2026-03-24T13:52:40.374Z</time></trkpt><trkpt lat="46.7136788" lon="10.533089"><ele>1267.0</ele><time>2026-03-24T13:52:43.369Z</time></trkpt><trkpt lat="46.7137542" lon="10.5330681"><ele>1268.0</ele><time>2026-03-24T13:52:46.373Z</time></trkpt><trkpt lat="46.7138291" lon="10.5330454"><ele>1269.0</ele><time>2026-03-24T13:52:49.373Z</time></trkpt><trkpt lat="46.7139041" lon="10.5330192"><ele>1270.0</ele><time>2026-03-24T13:52:52.37Z</time></trkpt><trkpt lat="46.7139813" lon="10.5329945"><ele>1271.0</ele><time>2026-03-24T13:52:55.374Z</time></trkpt><trkpt lat="46.714058" lon="10.5329667"><ele>1272.0</ele><time>2026-03-24T13:52:58.382Z</time></trkpt><trkpt lat="46.7141335" lon="10.5329402"><ele>1273.0</ele><time>2026-03-24T13:53:01.372Z</time></trkpt><trkpt lat="46.7142079" lon="10.532917"><ele>1273.0</ele><time>2026-03-24T13:53:04.38Z</time></trkpt><trkpt lat="46.7142823" lon="10.5328915"><ele>1273.0</ele><time>2026-03-24T13:53:07.387Z</time></trkpt><trkpt lat="46.7143563" lon="10.5328671"><ele>1273.0</ele><time>2026-03-24T13:53:10.373Z</time></trkpt><trkpt lat="46.7144311" lon="10.5328427"><ele>1273.0</ele><time>2026-03-24T13:53:13.377Z</time></trkpt><trkpt lat="46.7145062" lon="10.5328193"><ele>1273.0</ele><time>2026-03-24T13:53:16.374Z</time></trkpt><trkpt lat="46.7145814" lon="10.5327957"><ele>1273.0</ele><time>2026-03-24T13:53:19.38Z</time></trkpt><trkpt lat="46.7146558" lon="10.5327685"><ele>1273.5</ele><time>2026-03-24T13:53:22.389Z</time></trkpt><trkpt lat="46.7147293" lon="10.5327379"><ele>1274.0</ele><time>2026-03-24T13:53:25.376Z</time></trkpt><trkpt lat="46.7148028" lon="10.5327075"><ele>1274.5</ele><time>2026-03-24T13:53:28.373Z</time></trkpt><trkpt lat="46.7148777" lon="10.5326736"><ele>1275.0</ele><time>2026-03-24T13:53:31.369Z</time></trkpt><trkpt lat="46.71495" lon="10.532632"><ele>1275.5</ele><time>2026-03-24T13:53:34.365Z</time></trkpt><trkpt lat="46.7150197" lon="10.532586"><ele>1276.0</ele><time>2026-03-24T13:53:37.373Z</time></trkpt><trkpt lat="46.7150937" lon="10.5325327"><ele>1276.0</ele><time>2026-03-24T13:53:40.388Z</time></trkpt><trkpt lat="46.7151685" lon="10.5324746"><ele>1276.0</ele><time>2026-03-24T13:53:43.379Z</time></trkpt><trkpt lat="46.7152396" lon="10.5324138"><ele>1276.0</ele><time>2026-03-24T13:53:46.386Z</time></trkpt><trkpt lat="46.7153098" lon="10.5323495"><ele>1276.0</ele><time>2026-03-24T13:53:49.378Z</time></trkpt><trkpt lat="46.7153769" lon="10.5322806"><ele>1276.0</ele><time>2026-03-24T13:53:52.371Z</time></trkpt><trkpt lat="46.7154409" lon="10.5322066"><ele>1276.0</ele><time>2026-03-24T13:53:55.376Z</time></trkpt><trkpt lat="46.7155028" lon="10.5321309"><ele>1277.1666666666665</ele><time>2026-03-24T13:53:58.377Z</time></trkpt><trkpt lat="46.7155637" lon="10.5320558"><ele>1278.3333333333333</ele><time>2026-03-24T13:54:01.38Z</time></trkpt><trkpt lat="46.7156188" lon="10.5319756"><ele>1279.5</ele><time>2026-03-24T13:54:04.377Z</time></trkpt><trkpt lat="46.7156755" lon="10.5318969"><ele>1280.6666666666667</ele><time>2026-03-24T13:54:07.38Z</time></trkpt><trkpt lat="46.7157322" lon="10.5318181"><ele>1281.8333333333335</ele><time>2026-03-24T13:54:10.384Z</time></trkpt><trkpt lat="46.7157867" lon="10.5317416"><ele>1283.0</ele><time>2026-03-24T13:54:13.382Z</time></trkpt><trkpt lat="46.7158407" lon="10.5316619"><ele>1283.0</ele><time>2026-03-24T13:54:16.377Z</time></trkpt><trkpt lat="46.7158972" lon="10.5315852"><ele>1283.0</ele><time>2026-03-24T13:54:19.385Z</time></trkpt><trkpt lat="46.7159506" lon="10.5315056"><ele>1283.0</ele><time>2026-03-24T13:54:22.373Z</time></trkpt><trkpt lat="46.7160075" lon="10.5314281"><ele>1283.0</ele><time>2026-03-24T13:54:25.369Z</time></trkpt><trkpt lat="46.7160626" lon="10.5313485"><ele>1283.0</ele><time>2026-03-24T13:54:28.388Z</time></trkpt><trkpt lat="46.716117" lon="10.5312732"><ele>1283.0</ele><time>2026-03-24T13:54:31.378Z</time></trkpt><trkpt lat="46.7161721" lon="10.5311983"><ele>1284.1666666666667</ele><time>2026-03-24T13:54:34.371Z</time></trkpt><trkpt lat="46.7162315" lon="10.5311261"><ele>1285.3333333333335</ele><time>2026-03-24T13:54:37.373Z</time></trkpt><trkpt lat="46.7163086" lon="10.5310748"><ele>1286.5</ele><time>2026-03-24T13:54:40.376Z</time></trkpt><trkpt lat="46.7163895" lon="10.5310828"><ele>1287.6666666666667</ele><time>2026-03-24T13:54:43.38Z</time></trkpt><trkpt lat="46.7164576" lon="10.5311457"><ele>1288.8333333333333</ele><time>2026-03-24T13:54:46.393Z</time></trkpt><trkpt lat="46.7165062" lon="10.5312484"><ele>1290.0</ele><time>2026-03-24T13:54:49.385Z</time></trkpt><trkpt lat="46.7165258" lon="10.5313755"><ele>1290.8</ele><time>2026-03-24T13:54:52.378Z</time></trkpt><trkpt lat="46.7165239" lon="10.5315089"><ele>1291.6</ele><time>2026-03-24T13:54:55.366Z</time></trkpt><trkpt lat="46.716519" lon="10.5316422"><ele>1292.4</ele><time>2026-03-24T13:54:58.379Z</time></trkpt><trkpt lat="46.7165134" lon="10.5317791"><ele>1293.2</ele><time>2026-03-24T13:55:01.375Z</time></trkpt><trkpt lat="46.7165048" lon="10.5319152"><ele>1294.0</ele><time>2026-03-24T13:55:04.365Z</time></trkpt><trkpt lat="46.7165015" lon="10.5320515"><ele>1294.2857142857142</ele><time>2026-03-24T13:55:07.382Z</time></trkpt><trkpt lat="46.7164973" lon="10.5321441"><ele>1294.5714285714287</ele><time>2026-03-24T13:55:09.37Z</time></trkpt><trkpt lat="46.7164908" lon="10.5322377"><ele>1294.857142857143</ele><time>2026-03-24T13:55:11.368Z</time></trkpt><trkpt lat="46.7164856" lon="10.5323331"><ele>1295.142857142857</ele><time>2026-03-24T13:55:13.37Z</time></trkpt><trkpt lat="46.716481" lon="10.5324294"><ele>1295.4285714285713</ele><time>2026-03-24T13:55:15.386Z</time></trkpt><trkpt lat="46.7164775" lon="10.5325257"><ele>1295.7142857142858</ele><time>2026-03-24T13:55:17.367Z</time></trkpt><trkpt lat="46.7164731" lon="10.5326233"><ele>1296.0</ele><time>2026-03-24T13:55:19.374Z</time></trkpt><trkpt lat="46.7164675" lon="10.5327188"><ele>1296.0</ele><time>2026-03-24T13:55:21.369Z</time></trkpt><trkpt lat="46.7164626" lon="10.5328147"><ele>1296.0</ele><time>2026-03-24T13:55:23.371Z</time></trkpt><trkpt lat="46.7164572" lon="10.5329107"><ele>1296.0</ele><time>2026-03-24T13:55:25.385Z</time></trkpt><trkpt lat="46.716452" lon="10.5330078"><ele>1296.0</ele><time>2026-03-24T13:55:27.383Z</time></trkpt><trkpt lat="46.7164476" lon="10.5331042"><ele>1296.0</ele><time>2026-03-24T13:55:29.377Z</time></trkpt><trkpt lat="46.7164421" lon="10.5331994"><ele>1296.0</ele><time>2026-03-24T13:55:31.37Z</time></trkpt><trkpt lat="46.716436" lon="10.5332941"><ele>1296.0</ele><time>2026-03-24T13:55:33.378Z</time></trkpt><trkpt lat="46.7164321" lon="10.5333886"><ele>1296.5</ele><time>2026-03-24T13:55:35.37Z</time></trkpt><trkpt lat="46.7164283" lon="10.5334838"><ele>1297.0</ele><time>2026-03-24T13:55:37.372Z</time></trkpt><trkpt lat="46.716423" lon="10.5335812"><ele>1297.5</ele><time>2026-03-24T13:55:39.382Z</time></trkpt><trkpt lat="46.7164203" lon="10.5336797"><ele>1298.0</ele><time>2026-03-24T13:55:41.375Z</time></trkpt><trkpt lat="46.7164144" lon="10.5338142"><ele>1298.5</ele><time>2026-03-24T13:55:44.383Z</time></trkpt><trkpt lat="46.7164102" lon="10.5339083"><ele>1299.0</ele><time>2026-03-24T13:55:46.381Z</time></trkpt><trkpt lat="46.7164036" lon="10.5340446"><ele>1299.6666666666667</ele><time>2026-03-24T13:55:49.366Z</time></trkpt><trkpt lat="46.7163988" lon="10.534179"><ele>1300.3333333333333</ele><time>2026-03-24T13:55:52.37Z</time></trkpt><trkpt lat="46.7163911" lon="10.5343101"><ele>1301.0</ele><time>2026-03-24T13:55:55.365Z</time></trkpt><trkpt lat="46.7163842" lon="10.5344421"><ele>1301.6666666666665</ele><time>2026-03-24T13:55:58.374Z</time></trkpt><trkpt lat="46.7163774" lon="10.5345699"><ele>1302.3333333333333</ele><time>2026-03-24T13:56:01.378Z</time></trkpt><trkpt lat="46.7163711" lon="10.5346941"><ele>1303.0</ele><time>2026-03-24T13:56:04.366Z</time></trkpt><trkpt lat="46.7163637" lon="10.5348194"><ele>1303.5</ele><time>2026-03-24T13:56:07.381Z</time></trkpt><trkpt lat="46.7163576" lon="10.534945"><ele>1304.0</ele><time>2026-03-24T13:56:10.377Z</time></trkpt><trkpt lat="46.7163528" lon="10.5350703"><ele>1304.5</ele><time>2026-03-24T13:56:13.374Z</time></trkpt><trkpt lat="46.7163452" lon="10.5351897"><ele>1305.0</ele><time>2026-03-24T13:56:16.387Z</time></trkpt><trkpt lat="46.7163358" lon="10.5353066"><ele>1305.5</ele><time>2026-03-24T13:56:19.371Z</time></trkpt><trkpt lat="46.7163297" lon="10.5354216"><ele>1306.0</ele><time>2026-03-24T13:56:22.376Z</time></trkpt><trkpt lat="46.7163285" lon="10.5355267"><ele>1306.3333333333333</ele><time>2026-03-24T13:56:25.368Z</time></trkpt><trkpt lat="46.7163197" lon="10.5356408"><ele>1306.6666666666665</ele><time>2026-03-24T13:56:28.372Z</time></trkpt><trkpt lat="46.716311" lon="10.5357549"><ele>1307.0</ele><time>2026-03-24T13:56:31.385Z</time></trkpt><trkpt lat="46.716306" lon="10.5358595"><ele>1307.3333333333333</ele><time>2026-03-24T13:56:34.375Z</time></trkpt><trkpt lat="46.7162947" lon="10.5359702"><ele>1307.6666666666667</ele><time>2026-03-24T13:56:37.37Z</time></trkpt><trkpt lat="46.716286" lon="10.5360702"><ele>1308.0</ele><time>2026-03-24T13:56:40.382Z</time></trkpt><trkpt lat="46.716273" lon="10.536178"><ele>1308.5714285714284</ele><time>2026-03-24T13:56:43.381Z</time></trkpt><trkpt lat="46.7162655" lon="10.5362828"><ele>1309.142857142857</ele><time>2026-03-24T13:56:46.372Z</time></trkpt><trkpt lat="46.7162536" lon="10.5363899"><ele>1309.7142857142858</ele><time>2026-03-24T13:56:49.366Z</time></trkpt><trkpt lat="46.7162469" lon="10.5364956"><ele>1310.2857142857142</ele><time>2026-03-24T13:56:52.381Z</time></trkpt><trkpt lat="46.7162381" lon="10.536601"><ele>1310.857142857143</ele><time>2026-03-24T13:56:55.373Z</time></trkpt><trkpt lat="46.7162307" lon="10.5367032"><ele>1311.4285714285713</ele><time>2026-03-24T13:56:58.375Z</time></trkpt><trkpt lat="46.7162176" lon="10.5368059"><ele>1312.0</ele><time>2026-03-24T13:57:01.379Z</time></trkpt><trkpt lat="46.7162095" lon="10.5369095"><ele>1311.9999999999998</ele><time>2026-03-24T13:57:04.383Z</time></trkpt><trkpt lat="46.7161997" lon="10.5370151"><ele>1312.0</ele><time>2026-03-24T13:57:07.372Z</time></trkpt><trkpt lat="46.7161955" lon="10.5371218"><ele>1312.0</ele><time>2026-03-24T13:57:10.374Z</time></trkpt><trkpt lat="46.7162031" lon="10.5372306"><ele>1312.0</ele><time>2026-03-24T13:57:13.384Z</time></trkpt><trkpt lat="46.7162196" lon="10.5373334"><ele>1312.0</ele><time>2026-03-24T13:57:16.367Z</time></trkpt><trkpt lat="46.716249" lon="10.5374294"><ele>1311.9999999999998</ele><time>2026-03-24T13:57:19.377Z</time></trkpt><trkpt lat="46.7162909" lon="10.5375149"><ele>1312.0</ele><time>2026-03-24T13:57:22.381Z</time></trkpt><trkpt lat="46.7163468" lon="10.5375893"><ele>1312.8333333333333</ele><time>2026-03-24T13:57:25.37Z</time></trkpt><trkpt lat="46.7164133" lon="10.5376491"><ele>1313.6666666666665</ele><time>2026-03-24T13:57:28.366Z</time></trkpt><trkpt lat="46.7164855" lon="10.5376959"><ele>1314.5</ele><time>2026-03-24T13:57:31.376Z</time></trkpt><trkpt lat="46.7165657" lon="10.537718"><ele>1315.3333333333333</ele><time>2026-03-24T13:57:34.37Z</time></trkpt><trkpt lat="46.7166446" lon="10.5377238"><ele>1316.1666666666667</ele><time>2026-03-24T13:57:37.385Z</time></trkpt><trkpt lat="46.7167193" lon="10.5376869"><ele>1317.0</ele><time>2026-03-24T13:57:40.374Z</time></trkpt><trkpt lat="46.7167925" lon="10.5376283"><ele>1317.0</ele><time>2026-03-24T13:57:43.379Z</time></trkpt><trkpt lat="46.7168678" lon="10.5375613"><ele>1317.0</ele><time>2026-03-24T13:57:46.372Z</time></trkpt><trkpt lat="46.7169439" lon="10.5374837"><ele>1317.0</ele><time>2026-03-24T13:57:49.363Z</time></trkpt><trkpt lat="46.7169969" lon="10.5374311"><ele>1317.0</ele><time>2026-03-24T13:57:51.367Z</time></trkpt><trkpt lat="46.7170748" lon="10.5373551"><ele>1317.0</ele><time>2026-03-24T13:57:54.365Z</time></trkpt><trkpt lat="46.7171521" lon="10.5372758"><ele>1317.0</ele><time>2026-03-24T13:57:57.365Z</time></trkpt><trkpt lat="46.7172265" lon="10.537197"><ele>1318.3999999999999</ele><time>2026-03-24T13:58:00.376Z</time></trkpt><trkpt lat="46.7173011" lon="10.5371244"><ele>1319.8</ele><time>2026-03-24T13:58:03.366Z</time></trkpt><trkpt lat="46.7173731" lon="10.5370506"><ele>1321.2</ele><time>2026-03-24T13:58:06.372Z</time></trkpt><trkpt lat="46.7174472" lon="10.5369736"><ele>1322.6</ele><time>2026-03-24T13:58:09.37Z</time></trkpt><trkpt lat="46.7175219" lon="10.5368997"><ele>1324.0</ele><time>2026-03-24T13:58:12.369Z</time></trkpt><trkpt lat="46.7175979" lon="10.5368272"><ele>1324.0</ele><time>2026-03-24T13:58:15.377Z</time></trkpt><trkpt lat="46.7176736" lon="10.536748"><ele>1324.0</ele><time>2026-03-24T13:58:18.382Z</time></trkpt><trkpt lat="46.7177518" lon="10.5366731"><ele>1324.0</ele><time>2026-03-24T13:58:21.374Z</time></trkpt><trkpt lat="46.7178045" lon="10.5366199"><ele>1324.0</ele><time>2026-03-24T13:58:23.374Z</time></trkpt><trkpt lat="46.717857" lon="10.536564"><ele>1324.0</ele><time>2026-03-24T13:58:25.373Z</time></trkpt><trkpt lat="46.7179092" lon="10.5365113"><ele>1324.0</ele><time>2026-03-24T13:58:27.372Z</time></trkpt><trkpt lat="46.7179629" lon="10.5364626"><ele>1324.0</ele><time>2026-03-24T13:58:29.37Z</time></trkpt><trkpt lat="46.718018" lon="10.5364103"><ele>1324.2857142857142</ele><time>2026-03-24T13:58:31.374Z</time></trkpt><trkpt lat="46.7180747" lon="10.5363585"><ele>1324.5714285714284</ele><time>2026-03-24T13:58:33.369Z</time></trkpt><trkpt lat="46.7181303" lon="10.5363054"><ele>1324.8571428571427</ele><time>2026-03-24T13:58:35.373Z</time></trkpt><trkpt lat="46.7181856" lon="10.5362537"><ele>1325.142857142857</ele><time>2026-03-24T13:58:37.388Z</time></trkpt><trkpt lat="46.7182417" lon="10.5361985"><ele>1325.4285714285713</ele><time>2026-03-24T13:58:39.369Z</time></trkpt><trkpt lat="46.7182966" lon="10.5361494"><ele>1325.7142857142856</ele><time>2026-03-24T13:58:41.373Z</time></trkpt><trkpt lat="46.7183496" lon="10.5360976"><ele>1326.0</ele><time>2026-03-24T13:58:43.373Z</time></trkpt><trkpt lat="46.7184297" lon="10.5360241"><ele>1326.0</ele><time>2026-03-24T13:58:46.368Z</time></trkpt><trkpt lat="46.7184827" lon="10.5359694"><ele>1326.0</ele><time>2026-03-24T13:58:48.381Z</time></trkpt><trkpt lat="46.7185396" lon="10.5359203"><ele>1326.0</ele><time>2026-03-24T13:58:50.376Z</time></trkpt><trkpt lat="46.718594" lon="10.5358719"><ele>1326.0</ele><time>2026-03-24T13:58:52.376Z</time></trkpt><trkpt lat="46.7186724" lon="10.5357968"><ele>1326.0</ele><time>2026-03-24T13:58:55.384Z</time></trkpt><trkpt lat="46.71875" lon="10.5357213"><ele>1326.0</ele><time>2026-03-24T13:58:58.383Z</time></trkpt><trkpt lat="46.7188283" lon="10.5356514"><ele>1326.8333333333333</ele><time>2026-03-24T13:59:01.376Z</time></trkpt><trkpt lat="46.7189039" lon="10.5355802"><ele>1327.6666666666667</ele><time>2026-03-24T13:59:04.373Z</time></trkpt><trkpt lat="46.7189789" lon="10.5355104"><ele>1328.5</ele><time>2026-03-24T13:59:07.39Z</time></trkpt><trkpt lat="46.7190537" lon="10.5354383"><ele>1329.3333333333335</ele><time>2026-03-24T13:59:10.373Z</time></trkpt><trkpt lat="46.7191291" lon="10.5353661"><ele>1330.1666666666667</ele><time>2026-03-24T13:59:13.356Z</time></trkpt><trkpt lat="46.7192039" lon="10.5352925"><ele>1331.0</ele><time>2026-03-24T13:59:16.372Z</time></trkpt><trkpt lat="46.7192802" lon="10.5352197"><ele>1331.0</ele><time>2026-03-24T13:59:19.389Z</time></trkpt><trkpt lat="46.7193557" lon="10.5351485"><ele>1331.0</ele><time>2026-03-24T13:59:22.368Z</time></trkpt><trkpt lat="46.7194297" lon="10.5350792"><ele>1331.0</ele><time>2026-03-24T13:59:25.37Z</time></trkpt><trkpt lat="46.7195047" lon="10.5350088"><ele>1331.0</ele><time>2026-03-24T13:59:28.368Z</time></trkpt><trkpt lat="46.7195775" lon="10.5349407"><ele>1331.0</ele><time>2026-03-24T13:59:31.374Z</time></trkpt><trkpt lat="46.7196526" lon="10.5348735"><ele>1331.0</ele><time>2026-03-24T13:59:34.357Z</time></trkpt><trkpt lat="46.7197259" lon="10.5348071"><ele>1331.5</ele><time>2026-03-24T13:59:37.371Z</time></trkpt><trkpt lat="46.7198012" lon="10.5347357"><ele>1332.0</ele><time>2026-03-24T13:59:40.378Z</time></trkpt><trkpt lat="46.7198736" lon="10.5346632"><ele>1332.5</ele><time>2026-03-24T13:59:43.37Z</time></trkpt><trkpt lat="46.7199447" lon="10.5345954"><ele>1333.0</ele><time>2026-03-24T13:59:46.386Z</time></trkpt><trkpt lat="46.7200152" lon="10.5345321"><ele>1333.5</ele><time>2026-03-24T13:59:49.375Z</time></trkpt><trkpt lat="46.7200857" lon="10.5344671"><ele>1334.0</ele><time>2026-03-24T13:59:52.381Z</time></trkpt><trkpt lat="46.7201579" lon="10.5344054"><ele>1334.0</ele><time>2026-03-24T13:59:55.374Z</time></trkpt><trkpt lat="46.7202299" lon="10.53434"><ele>1334.0</ele><time>2026-03-24T13:59:58.378Z</time></trkpt><trkpt lat="46.7203045" lon="10.5342778"><ele>1334.0</ele><time>2026-03-24T14:00:01.375Z</time></trkpt><trkpt lat="46.7203824" lon="10.5342157"><ele>1334.0</ele><time>2026-03-24T14:00:04.366Z</time></trkpt><trkpt lat="46.720459" lon="10.5341557"><ele>1334.0</ele><time>2026-03-24T14:00:07.375Z</time></trkpt><trkpt lat="46.7205346" lon="10.5341019"><ele>1334.0</ele><time>2026-03-24T14:00:10.364Z</time></trkpt><trkpt lat="46.720612" lon="10.5340532"><ele>1335.5</ele><time>2026-03-24T14:00:13.373Z</time></trkpt><trkpt lat="46.7206881" lon="10.5340082"><ele>1337.0</ele><time>2026-03-24T14:00:16.379Z</time></trkpt><trkpt lat="46.7207648" lon="10.5339642"><ele>1338.5</ele><time>2026-03-24T14:00:19.364Z</time></trkpt><trkpt lat="46.7208368" lon="10.5339293"><ele>1340.0</ele><time>2026-03-24T14:00:22.373Z</time></trkpt><trkpt lat="46.7209074" lon="10.5338979"><ele>1341.5</ele><time>2026-03-24T14:00:25.386Z</time></trkpt><trkpt lat="46.7209882" lon="10.5338628"><ele>1343.0</ele><time>2026-03-24T14:00:28.373Z</time></trkpt><trkpt lat="46.7210692" lon="10.5338294"><ele>1343.6666666666667</ele><time>2026-03-24T14:00:31.379Z</time></trkpt><trkpt lat="46.7211598" lon="10.533793"><ele>1344.3333333333335</ele><time>2026-03-24T14:00:34.377Z</time></trkpt><trkpt lat="46.7212237" lon="10.5337753"><ele>1345.0</ele><time>2026-03-24T14:00:36.369Z</time></trkpt><trkpt lat="46.7213129" lon="10.5337448"><ele>1345.6666666666667</ele><time>2026-03-24T14:00:39.376Z</time></trkpt><trkpt lat="46.7213965" lon="10.5337155"><ele>1346.3333333333333</ele><time>2026-03-24T14:00:42.381Z</time></trkpt><trkpt lat="46.7214797" lon="10.5336846"><ele>1347.0</ele><time>2026-03-24T14:00:45.371Z</time></trkpt><trkpt lat="46.7215637" lon="10.5336555"><ele>1347.0</ele><time>2026-03-24T14:00:48.373Z</time></trkpt><trkpt lat="46.7216454" lon="10.5336291"><ele>1347.0</ele><time>2026-03-24T14:00:51.386Z</time></trkpt><trkpt lat="46.7217287" lon="10.5336077"><ele>1347.0</ele><time>2026-03-24T14:00:54.374Z</time></trkpt><trkpt lat="46.7218076" lon="10.5335812"><ele>1347.0</ele><time>2026-03-24T14:00:57.373Z</time></trkpt><trkpt lat="46.7218876" lon="10.5335537"><ele>1347.0</ele><time>2026-03-24T14:01:00.382Z</time></trkpt><trkpt lat="46.7219657" lon="10.5335277"><ele>1347.0</ele><time>2026-03-24T14:01:03.376Z</time></trkpt><trkpt lat="46.7220446" lon="10.5335028"><ele>1348.1666666666667</ele><time>2026-03-24T14:01:06.367Z</time></trkpt><trkpt lat="46.7221203" lon="10.5334773"><ele>1349.3333333333333</ele><time>2026-03-24T14:01:09.372Z</time></trkpt><trkpt lat="46.7221956" lon="10.5334501"><ele>1350.5</ele><time>2026-03-24T14:01:12.384Z</time></trkpt><trkpt lat="46.7222712" lon="10.5334246"><ele>1351.6666666666665</ele><time>2026-03-24T14:01:15.378Z</time></trkpt><trkpt lat="46.722346" lon="10.5334006"><ele>1352.8333333333333</ele><time>2026-03-24T14:01:18.369Z</time></trkpt><trkpt lat="46.7224207" lon="10.5333756"><ele>1354.0</ele><time>2026-03-24T14:01:21.378Z</time></trkpt><trkpt lat="46.7224955" lon="10.5333511"><ele>1354.0</ele><time>2026-03-24T14:01:24.37Z</time></trkpt><trkpt lat="46.7225713" lon="10.5333278"><ele>1354.0</ele><time>2026-03-24T14:01:27.379Z</time></trkpt><trkpt lat="46.7226459" lon="10.5333021"><ele>1354.0</ele><time>2026-03-24T14:01:30.376Z</time></trkpt><trkpt lat="46.7227235" lon="10.5332779"><ele>1354.0</ele><time>2026-03-24T14:01:33.381Z</time></trkpt><trkpt lat="46.7228023" lon="10.5332524"><ele>1354.0</ele><time>2026-03-24T14:01:36.38Z</time></trkpt><trkpt lat="46.7228807" lon="10.5332273"><ele>1354.0</ele><time>2026-03-24T14:01:39.377Z</time></trkpt><trkpt lat="46.7229574" lon="10.5332018"><ele>1354.6666666666665</ele><time>2026-03-24T14:01:42.374Z</time></trkpt><trkpt lat="46.7230329" lon="10.533176"><ele>1355.3333333333333</ele><time>2026-03-24T14:01:45.388Z</time></trkpt><trkpt lat="46.7231106" lon="10.5331529"><ele>1356.0</ele><time>2026-03-24T14:01:48.376Z</time></trkpt><trkpt lat="46.7231878" lon="10.5331261"><ele>1356.6666666666667</ele><time>2026-03-24T14:01:51.383Z</time></trkpt><trkpt lat="46.7232652" lon="10.5331005"><ele>1357.3333333333335</ele><time>2026-03-24T14:01:54.388Z</time></trkpt><trkpt lat="46.7233411" lon="10.5330802"><ele>1358.0</ele><time>2026-03-24T14:01:57.383Z</time></trkpt><trkpt lat="46.7234145" lon="10.5330538"><ele>1358.0</ele><time>2026-03-24T14:02:00.371Z</time></trkpt><trkpt lat="46.7234872" lon="10.533028"><ele>1358.0</ele><time>2026-03-24T14:02:03.377Z</time></trkpt><trkpt lat="46.7235609" lon="10.5330074"><ele>1358.0</ele><time>2026-03-24T14:02:06.365Z</time></trkpt><trkpt lat="46.723634" lon="10.5329818"><ele>1358.0</ele><time>2026-03-24T14:02:09.38Z</time></trkpt><trkpt lat="46.7237072" lon="10.5329585"><ele>1358.0</ele><time>2026-03-24T14:02:12.373Z</time></trkpt><trkpt lat="46.7237799" lon="10.532933"><ele>1358.0</ele><time>2026-03-24T14:02:15.372Z</time></trkpt><trkpt lat="46.7238548" lon="10.532907"><ele>1358.5</ele><time>2026-03-24T14:02:18.38Z</time></trkpt><trkpt lat="46.7239286" lon="10.5328823"><ele>1359.0</ele><time>2026-03-24T14:02:21.369Z</time></trkpt><trkpt lat="46.724002" lon="10.5328537"><ele>1359.5</ele><time>2026-03-24T14:02:24.373Z</time></trkpt><trkpt lat="46.7240773" lon="10.5328274"><ele>1360.0</ele><time>2026-03-24T14:02:27.384Z</time></trkpt><trkpt lat="46.7241524" lon="10.5328048"><ele>1360.5</ele><time>2026-03-24T14:02:30.376Z</time></trkpt><trkpt lat="46.7242288" lon="10.5327791"><ele>1361.0</ele><time>2026-03-24T14:02:33.372Z</time></trkpt><trkpt lat="46.724305" lon="10.5327541"><ele>1361.0</ele><time>2026-03-24T14:02:36.366Z</time></trkpt><trkpt lat="46.7243786" lon="10.5327286"><ele>1361.0</ele><time>2026-03-24T14:02:39.383Z</time></trkpt><trkpt lat="46.7244592" lon="10.5327004"><ele>1361.0</ele><time>2026-03-24T14:02:42.378Z</time></trkpt><trkpt lat="46.7245322" lon="10.5326653"><ele>1361.0</ele><time>2026-03-24T14:02:45.374Z</time></trkpt><trkpt lat="46.7246055" lon="10.5326365"><ele>1361.0</ele><time>2026-03-24T14:02:48.375Z</time></trkpt><trkpt lat="46.7246814" lon="10.5326101"><ele>1361.0</ele><time>2026-03-24T14:02:51.371Z</time></trkpt><trkpt lat="46.7247557" lon="10.5325834"><ele>1362.3333333333335</ele><time>2026-03-24T14:02:54.379Z</time></trkpt><trkpt lat="46.7248325" lon="10.532558"><ele>1363.6666666666667</ele><time>2026-03-24T14:02:57.378Z</time></trkpt><trkpt lat="46.7249093" lon="10.5325305"><ele>1365.0</ele><time>2026-03-24T14:03:00.38Z</time></trkpt><trkpt lat="46.7249862" lon="10.5325032"><ele>1366.3333333333333</ele><time>2026-03-24T14:03:03.371Z</time></trkpt><trkpt lat="46.7250609" lon="10.5324759"><ele>1367.6666666666665</ele><time>2026-03-24T14:03:06.36Z</time></trkpt><trkpt lat="46.7251375" lon="10.532449"><ele>1369.0</ele><time>2026-03-24T14:03:09.368Z</time></trkpt><trkpt lat="46.7252132" lon="10.5324215"><ele>1369.6666666666665</ele><time>2026-03-24T14:03:12.368Z</time></trkpt><trkpt lat="46.7252895" lon="10.532404"><ele>1370.3333333333333</ele><time>2026-03-24T14:03:15.378Z</time></trkpt><trkpt lat="46.7253697" lon="10.532407"><ele>1371.0</ele><time>2026-03-24T14:03:18.361Z</time></trkpt><trkpt lat="46.7254472" lon="10.532433"><ele>1371.6666666666667</ele><time>2026-03-24T14:03:21.379Z</time></trkpt><trkpt lat="46.725521" lon="10.532483"><ele>1372.3333333333335</ele><time>2026-03-24T14:03:24.378Z</time></trkpt><trkpt lat="46.7255878" lon="10.5325559"><ele>1373.0</ele><time>2026-03-24T14:03:27.38Z</time></trkpt><trkpt lat="46.7256439" lon="10.532648"><ele>1373.0</ele><time>2026-03-24T14:03:30.37Z</time></trkpt><trkpt lat="46.7256892" lon="10.5327539"><ele>1373.0</ele><time>2026-03-24T14:03:33.383Z</time></trkpt><trkpt lat="46.7257248" lon="10.5328715"><ele>1373.0</ele><time>2026-03-24T14:03:36.386Z</time></trkpt><trkpt lat="46.7257444" lon="10.5329992"><ele>1373.0</ele><time>2026-03-24T14:03:39.386Z</time></trkpt><trkpt lat="46.725742" lon="10.533135"><ele>1373.0</ele><time>2026-03-24T14:03:42.388Z</time></trkpt><trkpt lat="46.7257261" lon="10.5332645"><ele>1373.0</ele><time>2026-03-24T14:03:45.382Z</time></trkpt><trkpt lat="46.7257016" lon="10.5333802"><ele>1373.8333333333335</ele><time>2026-03-24T14:03:48.377Z</time></trkpt><trkpt lat="46.7256769" lon="10.5334933"><ele>1374.6666666666667</ele><time>2026-03-24T14:03:51.371Z</time></trkpt><trkpt lat="46.7256493" lon="10.5336022"><ele>1375.5</ele><time>2026-03-24T14:03:54.367Z</time></trkpt><trkpt lat="46.7256226" lon="10.5337045"><ele>1376.3333333333333</ele><time>2026-03-24T14:03:57.375Z</time></trkpt><trkpt lat="46.7255969" lon="10.5338094"><ele>1377.1666666666665</ele><time>2026-03-24T14:04:00.377Z</time></trkpt><trkpt lat="46.7255712" lon="10.5339133"><ele>1378.0</ele><time>2026-03-24T14:04:03.381Z</time></trkpt><trkpt lat="46.7255423" lon="10.5340158"><ele>1379.0</ele><time>2026-03-24T14:04:06.376Z</time></trkpt><trkpt lat="46.7255185" lon="10.5341128"><ele>1380.0</ele><time>2026-03-24T14:04:09.376Z</time></trkpt><trkpt lat="46.7254943" lon="10.5342115"><ele>1381.0</ele><time>2026-03-24T14:04:12.377Z</time></trkpt><trkpt lat="46.7254696" lon="10.5343076"><ele>1382.0</ele><time>2026-03-24T14:04:15.379Z</time></trkpt><trkpt lat="46.7254451" lon="10.534408"><ele>1383.0</ele><time>2026-03-24T14:04:18.382Z</time></trkpt><trkpt lat="46.7254197" lon="10.5345043"><ele>1384.0</ele><time>2026-03-24T14:04:21.376Z</time></trkpt><trkpt lat="46.7253914" lon="10.5346008"><ele>1385.0</ele><time>2026-03-24T14:04:24.377Z</time></trkpt><trkpt lat="46.7253643" lon="10.5346971"><ele>1384.857142857143</ele><time>2026-03-24T14:04:27.377Z</time></trkpt><trkpt lat="46.7253406" lon="10.5347912"><ele>1384.7142857142858</ele><time>2026-03-24T14:04:30.375Z</time></trkpt><trkpt lat="46.7253158" lon="10.5348858"><ele>1384.5714285714284</ele><time>2026-03-24T14:04:33.381Z</time></trkpt><trkpt lat="46.7252902" lon="10.5349812"><ele>1384.4285714285716</ele><time>2026-03-24T14:04:36.37Z</time></trkpt><trkpt lat="46.7252623" lon="10.5350692"><ele>1384.2857142857144</ele><time>2026-03-24T14:04:39.38Z</time></trkpt><trkpt lat="46.7252409" lon="10.5351648"><ele>1384.142857142857</ele><time>2026-03-24T14:04:42.379Z</time></trkpt><trkpt lat="46.7252204" lon="10.5352624"><ele>1384.0</ele><time>2026-03-24T14:04:45.386Z</time></trkpt><trkpt lat="46.7252039" lon="10.5353606"><ele>1384.4285714285713</ele><time>2026-03-24T14:04:48.372Z</time></trkpt><trkpt lat="46.7251904" lon="10.5354612"><ele>1384.857142857143</ele><time>2026-03-24T14:04:51.374Z</time></trkpt><trkpt lat="46.7251784" lon="10.5355658"><ele>1385.2857142857142</ele><time>2026-03-24T14:04:54.383Z</time></trkpt><trkpt lat="46.7251705" lon="10.535671"><ele>1385.7142857142858</ele><time>2026-03-24T14:04:57.376Z</time></trkpt><trkpt lat="46.7251647" lon="10.5357728"><ele>1386.142857142857</ele><time>2026-03-24T14:05:00.363Z</time></trkpt><trkpt lat="46.7251605" lon="10.5358813"><ele>1386.5714285714287</ele><time>2026-03-24T14:05:03.37Z</time></trkpt><trkpt lat="46.7251545" lon="10.5359894"><ele>1387.0</ele><time>2026-03-24T14:05:06.367Z</time></trkpt><trkpt lat="46.7251493" lon="10.5360971"><ele>1387.0</ele><time>2026-03-24T14:05:09.368Z</time></trkpt><trkpt lat="46.7251452" lon="10.5362031"><ele>1387.0</ele><time>2026-03-24T14:05:12.373Z</time></trkpt><trkpt lat="46.7251407" lon="10.5363116"><ele>1387.0</ele><time>2026-03-24T14:05:15.382Z</time></trkpt><trkpt lat="46.7251355" lon="10.5364227"><ele>1387.0</ele><time>2026-03-24T14:05:18.378Z</time></trkpt><trkpt lat="46.7251305" lon="10.5365335"><ele>1387.0</ele><time>2026-03-24T14:05:21.359Z</time></trkpt><trkpt lat="46.7251281" lon="10.5366446"><ele>1387.0</ele><time>2026-03-24T14:05:24.373Z</time></trkpt><trkpt lat="46.7251224" lon="10.5367576"><ele>1387.6666666666665</ele><time>2026-03-24T14:05:27.373Z</time></trkpt><trkpt lat="46.7251172" lon="10.5368664"><ele>1388.3333333333333</ele><time>2026-03-24T14:05:30.367Z</time></trkpt><trkpt lat="46.7251133" lon="10.5369769"><ele>1389.0</ele><time>2026-03-24T14:05:33.386Z</time></trkpt><trkpt lat="46.7251097" lon="10.5370862"><ele>1389.6666666666667</ele><time>2026-03-24T14:05:36.371Z</time></trkpt><trkpt lat="46.7251056" lon="10.5371956"><ele>1390.3333333333335</ele><time>2026-03-24T14:05:39.363Z</time></trkpt><trkpt lat="46.7251026" lon="10.5373043"><ele>1391.0</ele><time>2026-03-24T14:05:42.357Z</time></trkpt><trkpt lat="46.7250978" lon="10.537413"><ele>1391.5714285714284</ele><time>2026-03-24T14:05:45.375Z</time></trkpt><trkpt lat="46.7250958" lon="10.5375185"><ele>1392.1428571428573</ele><time>2026-03-24T14:05:48.367Z</time></trkpt><trkpt lat="46.7250913" lon="10.5376232"><ele>1392.7142857142858</ele><time>2026-03-24T14:05:51.376Z</time></trkpt><trkpt lat="46.725086" lon="10.5377281"><ele>1393.2857142857142</ele><time>2026-03-24T14:05:54.372Z</time></trkpt><trkpt lat="46.7250829" lon="10.5378346"><ele>1393.8571428571427</ele><time>2026-03-24T14:05:57.378Z</time></trkpt><trkpt lat="46.7250795" lon="10.5379426"><ele>1394.4285714285716</ele><time>2026-03-24T14:06:00.377Z</time></trkpt><trkpt lat="46.7250751" lon="10.53805"><ele>1395.0</ele><time>2026-03-24T14:06:03.386Z</time></trkpt><trkpt lat="46.7250707" lon="10.5381574"><ele>1396.0</ele><time>2026-03-24T14:06:06.369Z</time></trkpt><trkpt lat="46.7250659" lon="10.5382635"><ele>1397.0</ele><time>2026-03-24T14:06:09.38Z</time></trkpt><trkpt lat="46.7250614" lon="10.5383741"><ele>1398.0</ele><time>2026-03-24T14:06:12.365Z</time></trkpt><trkpt lat="46.7250529" lon="10.5384855"><ele>1399.0</ele><time>2026-03-24T14:06:15.374Z</time></trkpt><trkpt lat="46.7250439" lon="10.538596"><ele>1400.0</ele><time>2026-03-24T14:06:18.364Z</time></trkpt><trkpt lat="46.7250312" lon="10.5387024"><ele>1401.0</ele><time>2026-03-24T14:06:21.362Z</time></trkpt><trkpt lat="46.7250191" lon="10.5388079"><ele>1402.0</ele><time>2026-03-24T14:06:24.367Z</time></trkpt><trkpt lat="46.7250037" lon="10.5389122"><ele>1402.4285714285716</ele><time>2026-03-24T14:06:27.372Z</time></trkpt><trkpt lat="46.7249889" lon="10.5390169"><ele>1402.8571428571427</ele><time>2026-03-24T14:06:30.376Z</time></trkpt><trkpt lat="46.724973" lon="10.5391179"><ele>1403.2857142857142</ele><time>2026-03-24T14:06:33.37Z</time></trkpt><trkpt lat="46.724958" lon="10.5392197"><ele>1403.7142857142858</ele><time>2026-03-24T14:06:36.383Z</time></trkpt><trkpt lat="46.7249377" lon="10.5393349"><ele>1404.1428571428573</ele><time>2026-03-24T14:06:40.374Z</time></trkpt><trkpt lat="46.724919" lon="10.5394539"><ele>1404.5714285714284</ele><time>2026-03-24T14:06:44.38Z</time></trkpt><trkpt lat="46.7249033" lon="10.5395456"><ele>1405.0</ele><time>2026-03-24T14:06:47.375Z</time></trkpt><trkpt lat="46.7248823" lon="10.539652"><ele>1405.3333333333333</ele><time>2026-03-24T14:06:50.378Z</time></trkpt><trkpt lat="46.7248678" lon="10.539759"><ele>1405.6666666666665</ele><time>2026-03-24T14:06:53.375Z</time></trkpt><trkpt lat="46.7248484" lon="10.5398665"><ele>1406.0</ele><time>2026-03-24T14:06:56.367Z</time></trkpt><trkpt lat="46.7248295" lon="10.5399835"><ele>1406.3333333333333</ele><time>2026-03-24T14:07:00.388Z</time></trkpt><trkpt lat="46.7248092" lon="10.5400966"><ele>1406.6666666666667</ele><time>2026-03-24T14:07:04.37Z</time></trkpt><trkpt lat="46.7247905" lon="10.5401929"><ele>1407.0</ele><time>2026-03-24T14:07:07.374Z</time></trkpt><trkpt lat="46.7247764" lon="10.5402918"><ele>1407.7142857142858</ele><time>2026-03-24T14:07:10.367Z</time></trkpt><trkpt lat="46.7247699" lon="10.5404091"><ele>1408.4285714285716</ele><time>2026-03-24T14:07:14.382Z</time></trkpt><trkpt lat="46.7247706" lon="10.5405012"><ele>1409.142857142857</ele><time>2026-03-24T14:07:17.384Z</time></trkpt><trkpt lat="46.724786" lon="10.5406002"><ele>1409.857142857143</ele><time>2026-03-24T14:07:20.373Z</time></trkpt><trkpt lat="46.7248164" lon="10.5406939"><ele>1410.5714285714287</ele><time>2026-03-24T14:07:23.375Z</time></trkpt><trkpt lat="46.7248592" lon="10.5407794"><ele>1411.2857142857142</ele><time>2026-03-24T14:07:26.369Z</time></trkpt><trkpt lat="46.7249142" lon="10.5408461"><ele>1412.0</ele><time>2026-03-24T14:07:29.379Z</time></trkpt><trkpt lat="46.7249803" lon="10.5408959"><ele>1412.0</ele><time>2026-03-24T14:07:32.373Z</time></trkpt><trkpt lat="46.7250541" lon="10.540928"><ele>1412.0</ele><time>2026-03-24T14:07:35.372Z</time></trkpt><trkpt lat="46.7251241" lon="10.5409259"><ele>1412.0</ele><time>2026-03-24T14:07:38.375Z</time></trkpt><trkpt lat="46.7251975" lon="10.5408907"><ele>1412.0</ele><time>2026-03-24T14:07:41.375Z</time></trkpt><trkpt lat="46.7252704" lon="10.5408425"><ele>1412.0</ele><time>2026-03-24T14:07:44.387Z</time></trkpt><trkpt lat="46.7253391" lon="10.5407853"><ele>1412.0</ele><time>2026-03-24T14:07:47.375Z</time></trkpt><trkpt lat="46.7254102" lon="10.5407307"><ele>1413.1666666666667</ele><time>2026-03-24T14:07:50.36Z</time></trkpt><trkpt lat="46.7254807" lon="10.5406775"><ele>1414.3333333333335</ele><time>2026-03-24T14:07:53.365Z</time></trkpt><trkpt lat="46.7255527" lon="10.5406263"><ele>1415.5</ele><time>2026-03-24T14:07:56.373Z</time></trkpt><trkpt lat="46.7256266" lon="10.5405754"><ele>1416.6666666666667</ele><time>2026-03-24T14:07:59.387Z</time></trkpt><trkpt lat="46.7256995" lon="10.5405212"><ele>1417.8333333333333</ele><time>2026-03-24T14:08:02.38Z</time></trkpt><trkpt lat="46.7257717" lon="10.5404704"><ele>1419.0</ele><time>2026-03-24T14:08:05.374Z</time></trkpt><trkpt lat="46.7258453" lon="10.5404165"><ele>1418.3333333333333</ele><time>2026-03-24T14:08:08.375Z</time></trkpt><trkpt lat="46.725922" lon="10.5403717"><ele>1417.6666666666667</ele><time>2026-03-24T14:08:11.38Z</time></trkpt><trkpt lat="46.7259948" lon="10.5403233"><ele>1417.0</ele><time>2026-03-24T14:08:14.376Z</time></trkpt><trkpt lat="46.7260634" lon="10.5402744"><ele>1416.3333333333335</ele><time>2026-03-24T14:08:17.384Z</time></trkpt><trkpt lat="46.726134" lon="10.5402257"><ele>1415.6666666666667</ele><time>2026-03-24T14:08:20.391Z</time></trkpt><trkpt lat="46.7262054" lon="10.5401718"><ele>1415.0</ele><time>2026-03-24T14:08:23.376Z</time></trkpt><trkpt lat="46.7262794" lon="10.5401233"><ele>1416.5</ele><time>2026-03-24T14:08:26.373Z</time></trkpt><trkpt lat="46.7263535" lon="10.5400716"><ele>1418.0</ele><time>2026-03-24T14:08:29.374Z</time></trkpt><trkpt lat="46.7264266" lon="10.5400225"><ele>1419.5</ele><time>2026-03-24T14:08:32.381Z</time></trkpt><trkpt lat="46.7265001" lon="10.5399713"><ele>1421.0</ele><time>2026-03-24T14:08:35.375Z</time></trkpt><trkpt lat="46.7265747" lon="10.5399219"><ele>1422.5</ele><time>2026-03-24T14:08:38.383Z</time></trkpt><trkpt lat="46.7266481" lon="10.5398683"><ele>1424.0</ele><time>2026-03-24T14:08:41.376Z</time></trkpt><trkpt lat="46.7267236" lon="10.5398154"><ele>1424.0</ele><time>2026-03-24T14:08:44.361Z</time></trkpt><trkpt lat="46.7268019" lon="10.5397615"><ele>1424.0</ele><time>2026-03-24T14:08:47.374Z</time></trkpt><trkpt lat="46.7268821" lon="10.5397031"><ele>1424.0</ele><time>2026-03-24T14:08:50.38Z</time></trkpt><trkpt lat="46.7269577" lon="10.539651"><ele>1424.0</ele><time>2026-03-24T14:08:53.38Z</time></trkpt><trkpt lat="46.7270392" lon="10.539602"><ele>1424.0</ele><time>2026-03-24T14:08:56.375Z</time></trkpt><trkpt lat="46.7271179" lon="10.539544"><ele>1424.0</ele><time>2026-03-24T14:08:59.376Z</time></trkpt><trkpt lat="46.7271969" lon="10.5394914"><ele>1424.3333333333335</ele><time>2026-03-24T14:09:02.383Z</time></trkpt><trkpt lat="46.727274" lon="10.5394372"><ele>1424.6666666666667</ele><time>2026-03-24T14:09:05.378Z</time></trkpt><trkpt lat="46.7273547" lon="10.5393842"><ele>1425.0</ele><time>2026-03-24T14:09:08.378Z</time></trkpt><trkpt lat="46.7274357" lon="10.5393315"><ele>1425.3333333333333</ele><time>2026-03-24T14:09:11.376Z</time></trkpt><trkpt lat="46.7275144" lon="10.5392759"><ele>1425.6666666666665</ele><time>2026-03-24T14:09:14.383Z</time></trkpt><trkpt lat="46.7275957" lon="10.5392209"><ele>1426.0</ele><time>2026-03-24T14:09:17.36Z</time></trkpt><trkpt lat="46.7276756" lon="10.5391636"><ele>1427.1666666666665</ele><time>2026-03-24T14:09:20.374Z</time></trkpt><trkpt lat="46.7277583" lon="10.5391072"><ele>1428.3333333333333</ele><time>2026-03-24T14:09:23.379Z</time></trkpt><trkpt lat="46.7278384" lon="10.5390517"><ele>1429.5</ele><time>2026-03-24T14:09:26.372Z</time></trkpt><trkpt lat="46.7279201" lon="10.5389974"><ele>1430.6666666666667</ele><time>2026-03-24T14:09:29.387Z</time></trkpt><trkpt lat="46.7279998" lon="10.5389434"><ele>1431.8333333333335</ele><time>2026-03-24T14:09:32.383Z</time></trkpt><trkpt lat="46.7280779" lon="10.5388888"><ele>1433.0</ele><time>2026-03-24T14:09:35.375Z</time></trkpt><trkpt lat="46.7281595" lon="10.5388361"><ele>1433.0</ele><time>2026-03-24T14:09:38.377Z</time></trkpt><trkpt lat="46.7282432" lon="10.5387884"><ele>1433.0</ele><time>2026-03-24T14:09:41.378Z</time></trkpt><trkpt lat="46.7283288" lon="10.5387449"><ele>1433.0</ele><time>2026-03-24T14:09:44.369Z</time></trkpt><trkpt lat="46.7284157" lon="10.5387088"><ele>1433.0</ele><time>2026-03-24T14:09:47.389Z</time></trkpt><trkpt lat="46.728502" lon="10.5386763"><ele>1433.0</ele><time>2026-03-24T14:09:50.376Z</time></trkpt><trkpt lat="46.7285926" lon="10.5386536"><ele>1433.1666666666667</ele><time>2026-03-24T14:09:53.374Z</time></trkpt><trkpt lat="46.7286804" lon="10.538638"><ele>1433.3333333333335</ele><time>2026-03-24T14:09:56.377Z</time></trkpt><trkpt lat="46.7287672" lon="10.5386247"><ele>1433.5</ele><time>2026-03-24T14:09:59.376Z</time></trkpt><trkpt lat="46.7288509" lon="10.5386161"><ele>1433.6666666666667</ele><time>2026-03-24T14:10:02.381Z</time></trkpt><trkpt lat="46.7289335" lon="10.5386082"><ele>1433.8333333333333</ele><time>2026-03-24T14:10:05.379Z</time></trkpt><trkpt lat="46.7290198" lon="10.5386031"><ele>1434.0</ele><time>2026-03-24T14:10:08.371Z</time></trkpt><trkpt lat="46.7291066" lon="10.5385933"><ele>1434.0</ele><time>2026-03-24T14:10:11.373Z</time></trkpt><trkpt lat="46.7291946" lon="10.5385849"><ele>1434.0</ele><time>2026-03-24T14:10:14.372Z</time></trkpt><trkpt lat="46.7292826" lon="10.5385752"><ele>1434.0</ele><time>2026-03-24T14:10:17.374Z</time></trkpt><trkpt lat="46.7293703" lon="10.5385681"><ele>1434.0</ele><time>2026-03-24T14:10:20.386Z</time></trkpt><trkpt lat="46.729457" lon="10.5385594"><ele>1434.0</ele><time>2026-03-24T14:10:23.379Z</time></trkpt><trkpt lat="46.7295441" lon="10.5385512"><ele>1434.0</ele><time>2026-03-24T14:10:26.379Z</time></trkpt><trkpt lat="46.7296305" lon="10.5385438"><ele>1434.3333333333333</ele><time>2026-03-24T14:10:29.377Z</time></trkpt><trkpt lat="46.7297165" lon="10.5385334"><ele>1434.6666666666667</ele><time>2026-03-24T14:10:32.367Z</time></trkpt><trkpt lat="46.7298022" lon="10.5385266"><ele>1435.0</ele><time>2026-03-24T14:10:35.374Z</time></trkpt><trkpt lat="46.7298881" lon="10.5385169"><ele>1435.3333333333335</ele><time>2026-03-24T14:10:38.377Z</time></trkpt><trkpt lat="46.729976" lon="10.5385099"><ele>1435.6666666666667</ele><time>2026-03-24T14:10:41.369Z</time></trkpt><trkpt lat="46.7300603" lon="10.5384977"><ele>1436.0</ele><time>2026-03-24T14:10:44.381Z</time></trkpt><trkpt lat="46.7301495" lon="10.5384881"><ele>1437.1999999999998</ele><time>2026-03-24T14:10:47.363Z</time></trkpt><trkpt lat="46.7302358" lon="10.5384782"><ele>1438.3999999999999</ele><time>2026-03-24T14:10:50.376Z</time></trkpt><trkpt lat="46.7303257" lon="10.5384632"><ele>1439.6</ele><time>2026-03-24T14:10:53.386Z</time></trkpt><trkpt lat="46.7304149" lon="10.5384451"><ele>1440.8</ele><time>2026-03-24T14:10:56.384Z</time></trkpt><trkpt lat="46.7305039" lon="10.5384203"><ele>1442.0</ele><time>2026-03-24T14:10:59.382Z</time></trkpt><trkpt lat="46.7305937" lon="10.5383857"><ele>1442.0</ele><time>2026-03-24T14:11:02.379Z</time></trkpt><trkpt lat="46.730681" lon="10.5383305"><ele>1442.0</ele><time>2026-03-24T14:11:05.379Z</time></trkpt><trkpt lat="46.7307434" lon="10.5382888"><ele>1442.0</ele><time>2026-03-24T14:11:07.38Z</time></trkpt><trkpt lat="46.7307997" lon="10.5382461"><ele>1442.0</ele><time>2026-03-24T14:11:09.376Z</time></trkpt><trkpt lat="46.7308763" lon="10.5381834"><ele>1442.0</ele><time>2026-03-24T14:11:12.375Z</time></trkpt><trkpt lat="46.7309635" lon="10.5381138"><ele>1442.0</ele><time>2026-03-24T14:11:15.391Z</time></trkpt><trkpt lat="46.7310321" lon="10.538063"><ele>1442.1666666666667</ele><time>2026-03-24T14:11:17.379Z</time></trkpt><trkpt lat="46.7310979" lon="10.5380026"><ele>1442.3333333333335</ele><time>2026-03-24T14:11:19.384Z</time></trkpt><trkpt lat="46.7311627" lon="10.5379413"><ele>1442.5</ele><time>2026-03-24T14:11:21.376Z</time></trkpt><trkpt lat="46.7312278" lon="10.5378856"><ele>1442.6666666666667</ele><time>2026-03-24T14:11:23.39Z</time></trkpt><trkpt lat="46.7312905" lon="10.5378251"><ele>1442.8333333333333</ele><time>2026-03-24T14:11:25.379Z</time></trkpt><trkpt lat="46.7313534" lon="10.537762"><ele>1443.0</ele><time>2026-03-24T14:11:27.384Z</time></trkpt><trkpt lat="46.7314155" lon="10.5377017"><ele>1443.0</ele><time>2026-03-24T14:11:29.377Z</time></trkpt><trkpt lat="46.7314778" lon="10.537642"><ele>1443.0</ele><time>2026-03-24T14:11:31.387Z</time></trkpt><trkpt lat="46.73154" lon="10.5375826"><ele>1443.0</ele><time>2026-03-24T14:11:33.375Z</time></trkpt><trkpt lat="46.7316035" lon="10.537524"><ele>1443.0</ele><time>2026-03-24T14:11:35.382Z</time></trkpt><trkpt lat="46.7316673" lon="10.5374651"><ele>1443.0</ele><time>2026-03-24T14:11:37.386Z</time></trkpt><trkpt lat="46.7317349" lon="10.5374106"><ele>1443.0</ele><time>2026-03-24T14:11:39.389Z</time></trkpt><trkpt lat="46.7318051" lon="10.5373568"><ele>1443.0</ele><time>2026-03-24T14:11:41.373Z</time></trkpt><trkpt lat="46.7318772" lon="10.5373061"><ele>1443.0</ele><time>2026-03-24T14:11:43.377Z</time></trkpt><trkpt lat="46.7319503" lon="10.5372574"><ele>1443.0</ele><time>2026-03-24T14:11:45.377Z</time></trkpt><trkpt lat="46.7320257" lon="10.5372168"><ele>1443.0</ele><time>2026-03-24T14:11:47.37Z</time></trkpt><trkpt lat="46.7321032" lon="10.5371756"><ele>1443.0</ele><time>2026-03-24T14:11:49.381Z</time></trkpt><trkpt lat="46.7321825" lon="10.5371395"><ele>1443.0</ele><time>2026-03-24T14:11:51.382Z</time></trkpt><trkpt lat="46.7322619" lon="10.5370991"><ele>1443.5</ele><time>2026-03-24T14:11:53.369Z</time></trkpt><trkpt lat="46.7323431" lon="10.5370632"><ele>1444.0</ele><time>2026-03-24T14:11:55.384Z</time></trkpt><trkpt lat="46.7324254" lon="10.5370262"><ele>1444.5</ele><time>2026-03-24T14:11:57.378Z</time></trkpt><trkpt lat="46.7325061" lon="10.5369877"><ele>1445.0</ele><time>2026-03-24T14:11:59.384Z</time></trkpt><trkpt lat="46.7325857" lon="10.5369547"><ele>1445.5</ele><time>2026-03-24T14:12:01.373Z</time></trkpt><trkpt lat="46.7326638" lon="10.5369211"><ele>1446.0</ele><time>2026-03-24T14:12:03.387Z</time></trkpt><trkpt lat="46.7327399" lon="10.5368874"><ele>1446.1666666666667</ele><time>2026-03-24T14:12:05.377Z</time></trkpt><trkpt lat="46.7328163" lon="10.5368541"><ele>1446.3333333333333</ele><time>2026-03-24T14:12:07.381Z</time></trkpt><trkpt lat="46.7328928" lon="10.5368192"><ele>1446.5</ele><time>2026-03-24T14:12:09.385Z</time></trkpt><trkpt lat="46.7329692" lon="10.5367855"><ele>1446.6666666666665</ele><time>2026-03-24T14:12:11.379Z</time></trkpt><trkpt lat="46.733047" lon="10.5367548"><ele>1446.8333333333333</ele><time>2026-03-24T14:12:13.377Z</time></trkpt><trkpt lat="46.7331239" lon="10.5367223"><ele>1447.0</ele><time>2026-03-24T14:12:15.383Z</time></trkpt><trkpt lat="46.7331993" lon="10.5366876"><ele>1447.0</ele><time>2026-03-24T14:12:17.382Z</time></trkpt><trkpt lat="46.7332748" lon="10.536654"><ele>1447.0</ele><time>2026-03-24T14:12:19.368Z</time></trkpt><trkpt lat="46.7333499" lon="10.5366221"><ele>1447.0</ele><time>2026-03-24T14:12:21.372Z</time></trkpt><trkpt lat="46.7334254" lon="10.5365892"><ele>1447.0</ele><time>2026-03-24T14:12:23.382Z</time></trkpt><trkpt lat="46.733501" lon="10.536556"><ele>1447.0</ele><time>2026-03-24T14:12:25.383Z</time></trkpt><trkpt lat="46.7335758" lon="10.5365211"><ele>1447.0</ele><time>2026-03-24T14:12:27.371Z</time></trkpt><trkpt lat="46.7336515" lon="10.5364895"><ele>1447.6666666666665</ele><time>2026-03-24T14:12:29.379Z</time></trkpt><trkpt lat="46.7337276" lon="10.536458"><ele>1448.3333333333333</ele><time>2026-03-24T14:12:31.371Z</time></trkpt><trkpt lat="46.7338047" lon="10.5364247"><ele>1449.0</ele><time>2026-03-24T14:12:33.376Z</time></trkpt><trkpt lat="46.7338814" lon="10.5363908"><ele>1449.6666666666667</ele><time>2026-03-24T14:12:35.381Z</time></trkpt><trkpt lat="46.733957" lon="10.5363589"><ele>1450.3333333333335</ele><time>2026-03-24T14:12:37.38Z</time></trkpt><trkpt lat="46.7340358" lon="10.5363251"><ele>1451.0</ele><time>2026-03-24T14:12:39.372Z</time></trkpt><trkpt lat="46.7341135" lon="10.5362923"><ele>1451.0</ele><time>2026-03-24T14:12:41.385Z</time></trkpt><trkpt lat="46.7341932" lon="10.5362586"><ele>1451.0</ele><time>2026-03-24T14:12:43.376Z</time></trkpt><trkpt lat="46.734273" lon="10.5362231"><ele>1451.0</ele><time>2026-03-24T14:12:45.376Z</time></trkpt><trkpt lat="46.7343536" lon="10.5361848"><ele>1451.0</ele><time>2026-03-24T14:12:47.375Z</time></trkpt><trkpt lat="46.7344353" lon="10.5361521"><ele>1451.0</ele><time>2026-03-24T14:12:49.384Z</time></trkpt><trkpt lat="46.7345183" lon="10.5361139"><ele>1451.0</ele><time>2026-03-24T14:12:51.368Z</time></trkpt><trkpt lat="46.7345991" lon="10.536078"><ele>1450.5</ele><time>2026-03-24T14:12:53.386Z</time></trkpt><trkpt lat="46.7346818" lon="10.536045"><ele>1450.0</ele><time>2026-03-24T14:12:55.373Z</time></trkpt><trkpt lat="46.7347655" lon="10.536009"><ele>1449.5</ele><time>2026-03-24T14:12:57.38Z</time></trkpt><trkpt lat="46.734849" lon="10.5359693"><ele>1449.0</ele><time>2026-03-24T14:12:59.378Z</time></trkpt><trkpt lat="46.7349313" lon="10.5359317"><ele>1448.5</ele><time>2026-03-24T14:13:01.361Z</time></trkpt><trkpt lat="46.7350135" lon="10.5358988"><ele>1448.0</ele><time>2026-03-24T14:13:03.374Z</time></trkpt><trkpt lat="46.7350933" lon="10.5358579"><ele>1448.0</ele><time>2026-03-24T14:13:05.369Z</time></trkpt><trkpt lat="46.7351718" lon="10.5358161"><ele>1448.0</ele><time>2026-03-24T14:13:07.368Z</time></trkpt><trkpt lat="46.7352487" lon="10.5357656"><ele>1448.0</ele><time>2026-03-24T14:13:09.368Z</time></trkpt><trkpt lat="46.735325" lon="10.5357088"><ele>1448.0</ele><time>2026-03-24T14:13:11.378Z</time></trkpt><trkpt lat="46.7353994" lon="10.5356489"><ele>1448.0</ele><time>2026-03-24T14:13:13.375Z</time></trkpt><trkpt lat="46.7354739" lon="10.5355827"><ele>1448.0</ele><time>2026-03-24T14:13:15.382Z</time></trkpt><trkpt lat="46.7355474" lon="10.5355118"><ele>1448.0</ele><time>2026-03-24T14:13:17.381Z</time></trkpt><trkpt lat="46.7356201" lon="10.5354381"><ele>1448.0</ele><time>2026-03-24T14:13:19.378Z</time></trkpt><trkpt lat="46.7356943" lon="10.5353633"><ele>1448.0</ele><time>2026-03-24T14:13:21.373Z</time></trkpt><trkpt lat="46.7357688" lon="10.5352834"><ele>1448.0</ele><time>2026-03-24T14:13:23.382Z</time></trkpt><trkpt lat="46.7358482" lon="10.535204"><ele>1448.0</ele><time>2026-03-24T14:13:25.371Z</time></trkpt><trkpt lat="46.7359309" lon="10.5351188"><ele>1448.0</ele><time>2026-03-24T14:13:27.375Z</time></trkpt><trkpt lat="46.7360153" lon="10.5350308"><ele>1448.0</ele><time>2026-03-24T14:13:29.381Z</time></trkpt><trkpt lat="46.7361026" lon="10.5349455"><ele>1448.0</ele><time>2026-03-24T14:13:31.384Z</time></trkpt><trkpt lat="46.7361937" lon="10.5348629"><ele>1448.0</ele><time>2026-03-24T14:13:33.379Z</time></trkpt><trkpt lat="46.7362879" lon="10.5347824"><ele>1448.0</ele><time>2026-03-24T14:13:35.381Z</time></trkpt><trkpt lat="46.7363832" lon="10.5347048"><ele>1447.4</ele><time>2026-03-24T14:13:37.378Z</time></trkpt><trkpt lat="46.7364799" lon="10.5346327"><ele>1446.8000000000002</ele><time>2026-03-24T14:13:39.374Z</time></trkpt><trkpt lat="46.7365742" lon="10.5345711"><ele>1446.2</ele><time>2026-03-24T14:13:41.371Z</time></trkpt><trkpt lat="46.7366679" lon="10.5345156"><ele>1445.6</ele><time>2026-03-24T14:13:43.37Z</time></trkpt><trkpt lat="46.7367622" lon="10.5344618"><ele>1445.0</ele><time>2026-03-24T14:13:45.377Z</time></trkpt><trkpt lat="46.7368595" lon="10.5344146"><ele>1445.4</ele><time>2026-03-24T14:13:47.379Z</time></trkpt><trkpt lat="46.7369555" lon="10.5343699"><ele>1445.8</ele><time>2026-03-24T14:13:49.379Z</time></trkpt><trkpt lat="46.7370509" lon="10.5343337"><ele>1446.1999999999998</ele><time>2026-03-24T14:13:51.383Z</time></trkpt><trkpt lat="46.7371457" lon="10.534302"><ele>1446.6</ele><time>2026-03-24T14:13:53.374Z</time></trkpt><trkpt lat="46.7372405" lon="10.5342766"><ele>1447.0</ele><time>2026-03-24T14:13:55.381Z</time></trkpt><trkpt lat="46.7373334" lon="10.5342518"><ele>1447.0</ele><time>2026-03-24T14:13:57.384Z</time></trkpt><trkpt lat="46.737427" lon="10.5342323"><ele>1447.0</ele><time>2026-03-24T14:13:59.386Z</time></trkpt><trkpt lat="46.7375211" lon="10.5342165"><ele>1447.0</ele><time>2026-03-24T14:14:01.385Z</time></trkpt><trkpt lat="46.737615" lon="10.5342049"><ele>1447.0</ele><time>2026-03-24T14:14:03.38Z</time></trkpt><trkpt lat="46.7377079" lon="10.5341988"><ele>1447.0</ele><time>2026-03-24T14:14:05.38Z</time></trkpt><trkpt lat="46.7378007" lon="10.5341964"><ele>1447.6</ele><time>2026-03-24T14:14:07.378Z</time></trkpt><trkpt lat="46.7378946" lon="10.5341998"><ele>1448.1999999999998</ele><time>2026-03-24T14:14:09.382Z</time></trkpt><trkpt lat="46.7379904" lon="10.5342051"><ele>1448.8</ele><time>2026-03-24T14:14:11.377Z</time></trkpt><trkpt lat="46.7380889" lon="10.5342109"><ele>1449.4</ele><time>2026-03-24T14:14:13.363Z</time></trkpt><trkpt lat="46.7381888" lon="10.5342168"><ele>1450.0</ele><time>2026-03-24T14:14:15.383Z</time></trkpt><trkpt lat="46.7382873" lon="10.534224"><ele>1450.0</ele><time>2026-03-24T14:14:17.393Z</time></trkpt><trkpt lat="46.738385" lon="10.5342291"><ele>1450.0</ele><time>2026-03-24T14:14:19.367Z</time></trkpt><trkpt lat="46.7384808" lon="10.5342346"><ele>1450.0</ele><time>2026-03-24T14:14:21.374Z</time></trkpt><trkpt lat="46.7385761" lon="10.5342409"><ele>1450.0</ele><time>2026-03-24T14:14:23.374Z</time></trkpt><trkpt lat="46.7386718" lon="10.5342456"><ele>1450.0</ele><time>2026-03-24T14:14:25.373Z</time></trkpt><trkpt lat="46.7387681" lon="10.5342532"><ele>1449.8</ele><time>2026-03-24T14:14:27.378Z</time></trkpt><trkpt lat="46.7388651" lon="10.5342589"><ele>1449.6</ele><time>2026-03-24T14:14:29.382Z</time></trkpt><trkpt lat="46.738962" lon="10.5342654"><ele>1449.4</ele><time>2026-03-24T14:14:31.38Z</time></trkpt><trkpt lat="46.7390581" lon="10.5342729"><ele>1449.2</ele><time>2026-03-24T14:14:33.375Z</time></trkpt><trkpt lat="46.7391539" lon="10.5342783"><ele>1449.0</ele><time>2026-03-24T14:14:35.382Z</time></trkpt><trkpt lat="46.7392516" lon="10.5342827"><ele>1449.0</ele><time>2026-03-24T14:14:37.368Z</time></trkpt><trkpt lat="46.7393494" lon="10.5342887"><ele>1449.0</ele><time>2026-03-24T14:14:39.38Z</time></trkpt><trkpt lat="46.7394467" lon="10.5342946"><ele>1449.0</ele><time>2026-03-24T14:14:41.366Z</time></trkpt><trkpt lat="46.739542" lon="10.5343003"><ele>1449.0</ele><time>2026-03-24T14:14:43.378Z</time></trkpt><trkpt lat="46.7396342" lon="10.5343066"><ele>1449.0</ele><time>2026-03-24T14:14:45.375Z</time></trkpt><trkpt lat="46.739726" lon="10.5343124"><ele>1449.0</ele><time>2026-03-24T14:14:47.373Z</time></trkpt><trkpt lat="46.7398157" lon="10.5343148"><ele>1449.0</ele><time>2026-03-24T14:14:49.376Z</time></trkpt><trkpt lat="46.7399052" lon="10.5343205"><ele>1449.0</ele><time>2026-03-24T14:14:51.373Z</time></trkpt><trkpt lat="46.7399979" lon="10.5343267"><ele>1449.0</ele><time>2026-03-24T14:14:53.368Z</time></trkpt><trkpt lat="46.7400933" lon="10.534332"><ele>1449.0</ele><time>2026-03-24T14:14:55.373Z</time></trkpt><trkpt lat="46.7401887" lon="10.5343375"><ele>1449.6</ele><time>2026-03-24T14:14:57.371Z</time></trkpt><trkpt lat="46.7402846" lon="10.5343386"><ele>1450.2</ele><time>2026-03-24T14:14:59.369Z</time></trkpt><trkpt lat="46.7403797" lon="10.5343488"><ele>1450.8</ele><time>2026-03-24T14:15:01.376Z</time></trkpt><trkpt lat="46.7404716" lon="10.5343555"><ele>1451.3999999999999</ele><time>2026-03-24T14:15:03.378Z</time></trkpt><trkpt lat="46.7405609" lon="10.5343619"><ele>1452.0</ele><time>2026-03-24T14:15:05.376Z</time></trkpt><trkpt lat="46.7406471" lon="10.5343666"><ele>1452.0</ele><time>2026-03-24T14:15:07.389Z</time></trkpt><trkpt lat="46.7407314" lon="10.5343704"><ele>1452.0</ele><time>2026-03-24T14:15:09.374Z</time></trkpt><trkpt lat="46.740802" lon="10.534376"><ele>1452.0</ele><time>2026-03-24T14:15:11.369Z</time></trkpt><trkpt lat="46.7408767" lon="10.5343811"><ele>1452.0</ele><time>2026-03-24T14:15:13.386Z</time></trkpt><trkpt lat="46.7409588" lon="10.5343891"><ele>1452.0</ele><time>2026-03-24T14:15:15.39Z</time></trkpt><trkpt lat="46.7410458" lon="10.5343914"><ele>1452.0</ele><time>2026-03-24T14:15:17.375Z</time></trkpt><trkpt lat="46.7411301" lon="10.534399"><ele>1452.5</ele><time>2026-03-24T14:15:19.38Z</time></trkpt><trkpt lat="46.7412105" lon="10.534407"><ele>1453.0</ele><time>2026-03-24T14:15:21.366Z</time></trkpt><trkpt lat="46.7412908" lon="10.5344135"><ele>1453.5</ele><time>2026-03-24T14:15:23.384Z</time></trkpt><trkpt lat="46.7413704" lon="10.5344228"><ele>1454.0</ele><time>2026-03-24T14:15:25.368Z</time></trkpt><trkpt lat="46.7414511" lon="10.5344349"><ele>1454.5</ele><time>2026-03-24T14:15:27.388Z</time></trkpt><trkpt lat="46.7415299" lon="10.5344497"><ele>1455.0</ele><time>2026-03-24T14:15:29.372Z</time></trkpt><trkpt lat="46.7416103" lon="10.5344675"><ele>1455.0</ele><time>2026-03-24T14:15:31.375Z</time></trkpt><trkpt lat="46.7416918" lon="10.5344894"><ele>1455.0</ele><time>2026-03-24T14:15:33.384Z</time></trkpt><trkpt lat="46.7417752" lon="10.5345149"><ele>1455.0</ele><time>2026-03-24T14:15:35.367Z</time></trkpt><trkpt lat="46.7418602" lon="10.5345413"><ele>1455.0</ele><time>2026-03-24T14:15:37.372Z</time></trkpt><trkpt lat="46.741947" lon="10.5345729"><ele>1455.0</ele><time>2026-03-24T14:15:39.373Z</time></trkpt><trkpt lat="46.7420354" lon="10.5346059"><ele>1455.0</ele><time>2026-03-24T14:15:41.393Z</time></trkpt><trkpt lat="46.7421262" lon="10.5346379"><ele>1455.0</ele><time>2026-03-24T14:15:43.375Z</time></trkpt><trkpt lat="46.7422158" lon="10.534673"><ele>1455.0</ele><time>2026-03-24T14:15:45.381Z</time></trkpt><trkpt lat="46.7423075" lon="10.5347073"><ele>1455.0</ele><time>2026-03-24T14:15:47.374Z</time></trkpt><trkpt lat="46.7423994" lon="10.5347438"><ele>1455.0</ele><time>2026-03-24T14:15:49.376Z</time></trkpt><trkpt lat="46.7424947" lon="10.5347825"><ele>1455.0</ele><time>2026-03-24T14:15:51.372Z</time></trkpt><trkpt lat="46.7425917" lon="10.5348217"><ele>1455.0</ele><time>2026-03-24T14:15:53.381Z</time></trkpt><trkpt lat="46.7426876" lon="10.5348584"><ele>1455.0</ele><time>2026-03-24T14:15:55.374Z</time></trkpt><trkpt lat="46.7427826" lon="10.5348969"><ele>1455.0</ele><time>2026-03-24T14:15:57.38Z</time></trkpt><trkpt lat="46.7428781" lon="10.5349334"><ele>1455.0</ele><time>2026-03-24T14:15:59.386Z</time></trkpt><trkpt lat="46.7429745" lon="10.5349668"><ele>1455.0</ele><time>2026-03-24T14:16:01.369Z</time></trkpt><trkpt lat="46.7430713" lon="10.5349971"><ele>1454.8</ele><time>2026-03-24T14:16:03.378Z</time></trkpt><trkpt lat="46.7431675" lon="10.5350266"><ele>1454.6</ele><time>2026-03-24T14:16:05.377Z</time></trkpt><trkpt lat="46.7432635" lon="10.5350541"><ele>1454.4</ele><time>2026-03-24T14:16:07.378Z</time></trkpt><trkpt lat="46.7433618" lon="10.5350797"><ele>1454.2</ele><time>2026-03-24T14:16:09.38Z</time></trkpt><trkpt lat="46.7434634" lon="10.5351049"><ele>1454.0</ele><time>2026-03-24T14:16:11.375Z</time></trkpt><trkpt lat="46.7435691" lon="10.5351244"><ele>1454.5</ele><time>2026-03-24T14:16:13.379Z</time></trkpt><trkpt lat="46.7436777" lon="10.5351438"><ele>1455.0</ele><time>2026-03-24T14:16:15.381Z</time></trkpt><trkpt lat="46.7437902" lon="10.535163"><ele>1455.5</ele><time>2026-03-24T14:16:17.378Z</time></trkpt><trkpt lat="46.743904" lon="10.5351775"><ele>1456.0</ele><time>2026-03-24T14:16:19.374Z</time></trkpt><trkpt lat="46.7440186" lon="10.535194"><ele>1456.0</ele><time>2026-03-24T14:16:21.379Z</time></trkpt><trkpt lat="46.7441358" lon="10.5352086"><ele>1456.0</ele><time>2026-03-24T14:16:23.367Z</time></trkpt><trkpt lat="46.7442531" lon="10.5352216"><ele>1456.0</ele><time>2026-03-24T14:16:25.387Z</time></trkpt><trkpt lat="46.7443657" lon="10.5352334"><ele>1456.0</ele><time>2026-03-24T14:16:27.369Z</time></trkpt><trkpt lat="46.7444736" lon="10.5352502"><ele>1456.0</ele><time>2026-03-24T14:16:29.377Z</time></trkpt><trkpt lat="46.7445785" lon="10.5352632"><ele>1456.0</ele><time>2026-03-24T14:16:31.369Z</time></trkpt><trkpt lat="46.7446839" lon="10.5352773"><ele>1456.0</ele><time>2026-03-24T14:16:33.373Z</time></trkpt><trkpt lat="46.7447927" lon="10.53529"><ele>1456.0</ele><time>2026-03-24T14:16:35.377Z</time></trkpt><trkpt lat="46.7449037" lon="10.5353083"><ele>1456.0</ele><time>2026-03-24T14:16:37.375Z</time></trkpt><trkpt lat="46.745014" lon="10.5353244"><ele>1456.0</ele><time>2026-03-24T14:16:39.373Z</time></trkpt><trkpt lat="46.7451286" lon="10.5353401"><ele>1456.0</ele><time>2026-03-24T14:16:41.368Z</time></trkpt><trkpt lat="46.745244" lon="10.5353557"><ele>1456.0</ele><time>2026-03-24T14:16:43.374Z</time></trkpt><trkpt lat="46.7453631" lon="10.5353724"><ele>1456.0</ele><time>2026-03-24T14:16:45.376Z</time></trkpt><trkpt lat="46.7454824" lon="10.5353885"><ele>1456.5</ele><time>2026-03-24T14:16:47.385Z</time></trkpt><trkpt lat="46.7456011" lon="10.5354051"><ele>1457.0</ele><time>2026-03-24T14:16:49.373Z</time></trkpt><trkpt lat="46.7457212" lon="10.5354224"><ele>1457.5</ele><time>2026-03-24T14:16:51.377Z</time></trkpt><trkpt lat="46.7458406" lon="10.5354393"><ele>1458.0</ele><time>2026-03-24T14:16:53.378Z</time></trkpt><trkpt lat="46.7459606" lon="10.5354527"><ele>1458.5</ele><time>2026-03-24T14:16:55.382Z</time></trkpt><trkpt lat="46.7460802" lon="10.5354688"><ele>1459.0</ele><time>2026-03-24T14:16:57.368Z</time></trkpt><trkpt lat="46.7462018" lon="10.5354877"><ele>1459.5</ele><time>2026-03-24T14:16:59.372Z</time></trkpt><trkpt lat="46.7463255" lon="10.5355032"><ele>1460.0</ele><time>2026-03-24T14:17:01.378Z</time></trkpt><trkpt lat="46.7464491" lon="10.5355207"><ele>1460.0</ele><time>2026-03-24T14:17:03.376Z</time></trkpt><trkpt lat="46.7465691" lon="10.5355315"><ele>1460.0</ele><time>2026-03-24T14:17:05.378Z</time></trkpt><trkpt lat="46.7466842" lon="10.5355496"><ele>1460.0</ele><time>2026-03-24T14:17:07.376Z</time></trkpt><trkpt lat="46.7467997" lon="10.5355612"><ele>1460.0</ele><time>2026-03-24T14:17:09.373Z</time></trkpt><trkpt lat="46.7469151" lon="10.535569"><ele>1459.0</ele><time>2026-03-24T14:17:11.379Z</time></trkpt><trkpt lat="46.7470349" lon="10.5355713"><ele>1458.0</ele><time>2026-03-24T14:17:13.373Z</time></trkpt><trkpt lat="46.747157" lon="10.5355725"><ele>1457.0</ele><time>2026-03-24T14:17:15.378Z</time></trkpt><trkpt lat="46.7472735" lon="10.5355683"><ele>1456.0</ele><time>2026-03-24T14:17:17.376Z</time></trkpt><trkpt lat="46.7473925" lon="10.5355586"><ele>1456.0</ele><time>2026-03-24T14:17:19.372Z</time></trkpt><trkpt lat="46.7475107" lon="10.5355504"><ele>1456.0</ele><time>2026-03-24T14:17:21.38Z</time></trkpt><trkpt lat="46.7476296" lon="10.5355427"><ele>1456.0</ele><time>2026-03-24T14:17:23.384Z</time></trkpt><trkpt lat="46.74775" lon="10.5355362"><ele>1456.0</ele><time>2026-03-24T14:17:25.371Z</time></trkpt><trkpt lat="46.7478737" lon="10.535532"><ele>1456.142857142857</ele><time>2026-03-24T14:17:27.367Z</time></trkpt><trkpt lat="46.7480003" lon="10.5355268"><ele>1456.2857142857142</ele><time>2026-03-24T14:17:29.38Z</time></trkpt><trkpt lat="46.7480646" lon="10.5355248"><ele>1456.4285714285716</ele><time>2026-03-24T14:17:30.378Z</time></trkpt><trkpt lat="46.7481293" lon="10.5355249"><ele>1456.5714285714284</ele><time>2026-03-24T14:17:31.378Z</time></trkpt><trkpt lat="46.7481938" lon="10.5355232"><ele>1456.7142857142858</ele><time>2026-03-24T14:17:32.372Z</time></trkpt><trkpt lat="46.7482583" lon="10.5355252"><ele>1456.857142857143</ele><time>2026-03-24T14:17:33.38Z</time></trkpt><trkpt lat="46.7483216" lon="10.5355323"><ele>1457.0</ele><time>2026-03-24T14:17:34.373Z</time></trkpt><trkpt lat="46.7483851" lon="10.53554"><ele>1457.0</ele><time>2026-03-24T14:17:35.377Z</time></trkpt><trkpt lat="46.7484477" lon="10.5355498"><ele>1457.0</ele><time>2026-03-24T14:17:36.376Z</time></trkpt><trkpt lat="46.7485693" lon="10.5355727"><ele>1457.0</ele><time>2026-03-24T14:17:38.377Z</time></trkpt><trkpt lat="46.7486896" lon="10.5356053"><ele>1457.0</ele><time>2026-03-24T14:17:40.374Z</time></trkpt><trkpt lat="46.7488092" lon="10.5356373"><ele>1457.0</ele><time>2026-03-24T14:17:42.389Z</time></trkpt><trkpt lat="46.7488717" lon="10.5356548"><ele>1456.4285714285716</ele><time>2026-03-24T14:17:43.386Z</time></trkpt><trkpt lat="46.7489368" lon="10.535674"><ele>1455.857142857143</ele><time>2026-03-24T14:17:44.378Z</time></trkpt><trkpt lat="46.749002" lon="10.5356925"><ele>1455.2857142857142</ele><time>2026-03-24T14:17:45.376Z</time></trkpt><trkpt lat="46.7490664" lon="10.5357103"><ele>1454.7142857142858</ele><time>2026-03-24T14:17:46.379Z</time></trkpt><trkpt lat="46.7491303" lon="10.5357279"><ele>1454.142857142857</ele><time>2026-03-24T14:17:47.383Z</time></trkpt><trkpt lat="46.7491938" lon="10.5357462"><ele>1453.5714285714287</ele><time>2026-03-24T14:17:48.383Z</time></trkpt><trkpt lat="46.7492584" lon="10.5357606"><ele>1453.0</ele><time>2026-03-24T14:17:49.381Z</time></trkpt><trkpt lat="46.7493235" lon="10.5357793"><ele>1453.1666666666665</ele><time>2026-03-24T14:17:50.374Z</time></trkpt><trkpt lat="46.7493885" lon="10.5357968"><ele>1453.3333333333333</ele><time>2026-03-24T14:17:51.377Z</time></trkpt><trkpt lat="46.7494517" lon="10.5358137"><ele>1453.5</ele><time>2026-03-24T14:17:52.376Z</time></trkpt><trkpt lat="46.749515" lon="10.5358264"><ele>1453.6666666666667</ele><time>2026-03-24T14:17:53.385Z</time></trkpt><trkpt lat="46.7496358" lon="10.5358431"><ele>1453.8333333333335</ele><time>2026-03-24T14:17:55.372Z</time></trkpt><trkpt lat="46.7497499" lon="10.5358354"><ele>1454.0</ele><time>2026-03-24T14:17:57.38Z</time></trkpt><trkpt lat="46.7498618" lon="10.5358206"><ele>1454.0</ele><time>2026-03-24T14:17:59.369Z</time></trkpt><trkpt lat="46.7499706" lon="10.5358017"><ele>1454.0</ele><time>2026-03-24T14:18:01.381Z</time></trkpt><trkpt lat="46.7500771" lon="10.5357834"><ele>1454.0</ele><time>2026-03-24T14:18:03.368Z</time></trkpt><trkpt lat="46.7501816" lon="10.5357622"><ele>1454.0</ele><time>2026-03-24T14:18:05.37Z</time></trkpt><trkpt lat="46.7502853" lon="10.5357459"><ele>1454.0</ele><time>2026-03-24T14:18:07.366Z</time></trkpt><trkpt lat="46.7503864" lon="10.5357286"><ele>1454.2</ele><time>2026-03-24T14:18:09.378Z</time></trkpt><trkpt lat="46.750485" lon="10.5357117"><ele>1454.4</ele><time>2026-03-24T14:18:11.385Z</time></trkpt><trkpt lat="46.7505843" lon="10.5356989"><ele>1454.6</ele><time>2026-03-24T14:18:13.382Z</time></trkpt><trkpt lat="46.7506842" lon="10.5356909"><ele>1454.8</ele><time>2026-03-24T14:18:15.364Z</time></trkpt><trkpt lat="46.7507831" lon="10.5356896"><ele>1455.0</ele><time>2026-03-24T14:18:17.376Z</time></trkpt><trkpt lat="46.7508826" lon="10.5356897"><ele>1455.0</ele><time>2026-03-24T14:18:19.382Z</time></trkpt><trkpt lat="46.7509825" lon="10.5356983"><ele>1455.0</ele><time>2026-03-24T14:18:21.375Z</time></trkpt><trkpt lat="46.7510828" lon="10.5357102"><ele>1455.0</ele><time>2026-03-24T14:18:23.376Z</time></trkpt><trkpt lat="46.7511798" lon="10.535726"><ele>1455.0</ele><time>2026-03-24T14:18:25.373Z</time></trkpt><trkpt lat="46.751265" lon="10.5357441"><ele>1455.0</ele><time>2026-03-24T14:18:27.369Z</time></trkpt><trkpt lat="46.7513485" lon="10.5357663"><ele>1454.8</ele><time>2026-03-24T14:18:29.38Z</time></trkpt><trkpt lat="46.7514426" lon="10.5357883"><ele>1454.6</ele><time>2026-03-24T14:18:31.379Z</time></trkpt><trkpt lat="46.751548" lon="10.5358237"><ele>1454.4</ele><time>2026-03-24T14:18:33.381Z</time></trkpt><trkpt lat="46.7516498" lon="10.5358638"><ele>1454.2</ele><time>2026-03-24T14:18:35.373Z</time></trkpt><trkpt lat="46.751749" lon="10.5359018"><ele>1454.0</ele><time>2026-03-24T14:18:37.378Z</time></trkpt><trkpt lat="46.7518477" lon="10.5359378"><ele>1453.8000000000002</ele><time>2026-03-24T14:18:39.377Z</time></trkpt><trkpt lat="46.7519468" lon="10.5359768"><ele>1453.6000000000001</ele><time>2026-03-24T14:18:41.378Z</time></trkpt><trkpt lat="46.7520462" lon="10.5360127"><ele>1453.4</ele><time>2026-03-24T14:18:43.383Z</time></trkpt><trkpt lat="46.7521471" lon="10.5360465"><ele>1453.2</ele><time>2026-03-24T14:18:45.382Z</time></trkpt><trkpt lat="46.752249" lon="10.5360815"><ele>1453.0</ele><time>2026-03-24T14:18:47.389Z</time></trkpt><trkpt lat="46.7523522" lon="10.5361161"><ele>1453.0</ele><time>2026-03-24T14:18:49.387Z</time></trkpt><trkpt lat="46.7524549" lon="10.5361511"><ele>1453.0</ele><time>2026-03-24T14:18:51.367Z</time></trkpt><trkpt lat="46.7525556" lon="10.5361859"><ele>1453.0</ele><time>2026-03-24T14:18:53.368Z</time></trkpt><trkpt lat="46.752655" lon="10.5362186"><ele>1453.0</ele><time>2026-03-24T14:18:55.384Z</time></trkpt><trkpt lat="46.7527534" lon="10.5362524"><ele>1453.0</ele><time>2026-03-24T14:18:57.382Z</time></trkpt><trkpt lat="46.7528521" lon="10.5362867"><ele>1454.0</ele><time>2026-03-24T14:18:59.378Z</time></trkpt><trkpt lat="46.7529494" lon="10.5363216"><ele>1455.0</ele><time>2026-03-24T14:19:01.384Z</time></trkpt><trkpt lat="46.7530465" lon="10.5363568"><ele>1456.0</ele><time>2026-03-24T14:19:03.375Z</time></trkpt><trkpt lat="46.753145" lon="10.5363904"><ele>1457.0</ele><time>2026-03-24T14:19:05.378Z</time></trkpt><trkpt lat="46.7532438" lon="10.5364237"><ele>1458.0</ele><time>2026-03-24T14:19:07.378Z</time></trkpt><trkpt lat="46.7533401" lon="10.5364575"><ele>1458.0</ele><time>2026-03-24T14:19:09.388Z</time></trkpt><trkpt lat="46.7534377" lon="10.5364882"><ele>1458.0</ele><time>2026-03-24T14:19:11.38Z</time></trkpt><trkpt lat="46.7535361" lon="10.5365172"><ele>1458.0</ele><time>2026-03-24T14:19:13.38Z</time></trkpt><trkpt lat="46.7536351" lon="10.536545"><ele>1458.0</ele><time>2026-03-24T14:19:15.384Z</time></trkpt><trkpt lat="46.7537359" lon="10.5365741"><ele>1458.0</ele><time>2026-03-24T14:19:17.38Z</time></trkpt><trkpt lat="46.7538395" lon="10.5365995"><ele>1457.4</ele><time>2026-03-24T14:19:19.381Z</time></trkpt><trkpt lat="46.7539448" lon="10.5366262"><ele>1456.8000000000002</ele><time>2026-03-24T14:19:21.376Z</time></trkpt><trkpt lat="46.7540521" lon="10.5366484"><ele>1456.2</ele><time>2026-03-24T14:19:23.379Z</time></trkpt><trkpt lat="46.7541609" lon="10.5366693"><ele>1455.6</ele><time>2026-03-24T14:19:25.374Z</time></trkpt><trkpt lat="46.7542689" lon="10.5366917"><ele>1455.0</ele><time>2026-03-24T14:19:27.379Z</time></trkpt><trkpt lat="46.7543778" lon="10.5367135"><ele>1455.0</ele><time>2026-03-24T14:19:29.385Z</time></trkpt><trkpt lat="46.7544888" lon="10.5367378"><ele>1455.0</ele><time>2026-03-24T14:19:31.383Z</time></trkpt><trkpt lat="46.7546014" lon="10.5367581"><ele>1455.0</ele><time>2026-03-24T14:19:33.377Z</time></trkpt><trkpt lat="46.7547182" lon="10.5367785"><ele>1455.0</ele><time>2026-03-24T14:19:35.387Z</time></trkpt><trkpt lat="46.7548364" lon="10.5368009"><ele>1455.0</ele><time>2026-03-24T14:19:37.385Z</time></trkpt><trkpt lat="46.754954" lon="10.5368214"><ele>1455.0</ele><time>2026-03-24T14:19:39.38Z</time></trkpt><trkpt lat="46.7550701" lon="10.5368454"><ele>1455.0</ele><time>2026-03-24T14:19:41.376Z</time></trkpt><trkpt lat="46.7551876" lon="10.5368659"><ele>1455.0</ele><time>2026-03-24T14:19:43.379Z</time></trkpt><trkpt lat="46.7553088" lon="10.5368861"><ele>1455.0</ele><time>2026-03-24T14:19:45.37Z</time></trkpt><trkpt lat="46.7553715" lon="10.5368974"><ele>1455.0</ele><time>2026-03-24T14:19:46.371Z</time></trkpt><trkpt lat="46.7554943" lon="10.5369181"><ele>1455.0</ele><time>2026-03-24T14:19:48.378Z</time></trkpt><trkpt lat="46.7556112" lon="10.5369372"><ele>1455.0</ele><time>2026-03-24T14:19:50.383Z</time></trkpt><trkpt lat="46.7557279" lon="10.5369569"><ele>1455.0</ele><time>2026-03-24T14:19:52.382Z</time></trkpt><trkpt lat="46.7558498" lon="10.5369772"><ele>1455.0</ele><time>2026-03-24T14:19:54.376Z</time></trkpt><trkpt lat="46.7559747" lon="10.5369959"><ele>1455.0</ele><time>2026-03-24T14:19:56.377Z</time></trkpt><trkpt lat="46.7560384" lon="10.5370077"><ele>1455.0</ele><time>2026-03-24T14:19:57.372Z</time></trkpt><trkpt lat="46.7561036" lon="10.5370195"><ele>1455.0</ele><time>2026-03-24T14:19:58.374Z</time></trkpt><trkpt lat="46.7561696" lon="10.5370313"><ele>1455.0</ele><time>2026-03-24T14:19:59.373Z</time></trkpt><trkpt lat="46.7562364" lon="10.5370439"><ele>1455.0</ele><time>2026-03-24T14:20:00.379Z</time></trkpt><trkpt lat="46.7563043" lon="10.5370585"><ele>1455.142857142857</ele><time>2026-03-24T14:20:01.382Z</time></trkpt><trkpt lat="46.7563738" lon="10.5370733"><ele>1455.2857142857142</ele><time>2026-03-24T14:20:02.38Z</time></trkpt><trkpt lat="46.7564445" lon="10.5370896"><ele>1455.4285714285716</ele><time>2026-03-24T14:20:03.375Z</time></trkpt><trkpt lat="46.7565153" lon="10.5371069"><ele>1455.5714285714284</ele><time>2026-03-24T14:20:04.372Z</time></trkpt><trkpt lat="46.7565852" lon="10.5371256"><ele>1455.7142857142858</ele><time>2026-03-24T14:20:05.382Z</time></trkpt><trkpt lat="46.756654" lon="10.5371467"><ele>1455.857142857143</ele><time>2026-03-24T14:20:06.378Z</time></trkpt><trkpt lat="46.7567231" lon="10.5371663"><ele>1456.0</ele><time>2026-03-24T14:20:07.382Z</time></trkpt><trkpt lat="46.7567918" lon="10.5371845"><ele>1456.0</ele><time>2026-03-24T14:20:08.385Z</time></trkpt><trkpt lat="46.756861" lon="10.5372032"><ele>1456.0</ele><time>2026-03-24T14:20:09.382Z</time></trkpt><trkpt lat="46.7569286" lon="10.5372254"><ele>1456.0</ele><time>2026-03-24T14:20:10.372Z</time></trkpt><trkpt lat="46.7569938" lon="10.5372463"><ele>1456.0</ele><time>2026-03-24T14:20:11.371Z</time></trkpt><trkpt lat="46.7570624" lon="10.5372698"><ele>1456.0</ele><time>2026-03-24T14:20:12.381Z</time></trkpt><trkpt lat="46.757132" lon="10.5372941"><ele>1456.0</ele><time>2026-03-24T14:20:13.379Z</time></trkpt><trkpt lat="46.7572013" lon="10.537317"><ele>1456.0</ele><time>2026-03-24T14:20:14.377Z</time></trkpt><trkpt lat="46.7572717" lon="10.5373399"><ele>1455.857142857143</ele><time>2026-03-24T14:20:15.378Z</time></trkpt><trkpt lat="46.757342" lon="10.5373633"><ele>1455.7142857142858</ele><time>2026-03-24T14:20:16.375Z</time></trkpt><trkpt lat="46.7574135" lon="10.5373868"><ele>1455.5714285714284</ele><time>2026-03-24T14:20:17.376Z</time></trkpt><trkpt lat="46.7574844" lon="10.5374118"><ele>1455.4285714285716</ele><time>2026-03-24T14:20:18.379Z</time></trkpt><trkpt lat="46.7575552" lon="10.5374376"><ele>1455.2857142857142</ele><time>2026-03-24T14:20:19.371Z</time></trkpt><trkpt lat="46.7576263" lon="10.5374618"><ele>1455.142857142857</ele><time>2026-03-24T14:20:20.383Z</time></trkpt><trkpt lat="46.7576961" lon="10.537481"><ele>1455.0</ele><time>2026-03-24T14:20:21.372Z</time></trkpt><trkpt lat="46.7577629" lon="10.5375018"><ele>1455.0</ele><time>2026-03-24T14:20:22.375Z</time></trkpt><trkpt lat="46.7578266" lon="10.5375249"><ele>1455.0</ele><time>2026-03-24T14:20:23.373Z</time></trkpt><trkpt lat="46.7579463" lon="10.5375664"><ele>1455.0</ele><time>2026-03-24T14:20:25.369Z</time></trkpt><trkpt lat="46.7580643" lon="10.5375961"><ele>1455.0</ele><time>2026-03-24T14:20:27.377Z</time></trkpt><trkpt lat="46.7581818" lon="10.5376171"><ele>1455.0</ele><time>2026-03-24T14:20:29.375Z</time></trkpt><trkpt lat="46.758298" lon="10.5376275"><ele>1455.0</ele><time>2026-03-24T14:20:31.384Z</time></trkpt><trkpt lat="46.7584145" lon="10.5376213"><ele>1455.0</ele><time>2026-03-24T14:20:33.385Z</time></trkpt><trkpt lat="46.758531" lon="10.5375996"><ele>1455.0</ele><time>2026-03-24T14:20:35.387Z</time></trkpt><trkpt lat="46.7586442" lon="10.5375604"><ele>1455.0</ele><time>2026-03-24T14:20:37.381Z</time></trkpt><trkpt lat="46.7587573" lon="10.5375106"><ele>1455.5</ele><time>2026-03-24T14:20:39.373Z</time></trkpt><trkpt lat="46.7588708" lon="10.5374452"><ele>1456.0</ele><time>2026-03-24T14:20:41.375Z</time></trkpt><trkpt lat="46.7589771" lon="10.5373658"><ele>1456.5</ele><time>2026-03-24T14:20:43.38Z</time></trkpt><trkpt lat="46.7590749" lon="10.5372768"><ele>1457.0</ele><time>2026-03-24T14:20:45.378Z</time></trkpt><trkpt lat="46.7591697" lon="10.5371749"><ele>1457.0</ele><time>2026-03-24T14:20:47.376Z</time></trkpt><trkpt lat="46.7592604" lon="10.5370626"><ele>1457.0</ele><time>2026-03-24T14:20:49.376Z</time></trkpt><trkpt lat="46.7593498" lon="10.5369478"><ele>1457.0</ele><time>2026-03-24T14:20:51.373Z</time></trkpt><trkpt lat="46.7594365" lon="10.5368296"><ele>1457.0</ele><time>2026-03-24T14:20:53.38Z</time></trkpt><trkpt lat="46.7595253" lon="10.5367148"><ele>1457.75</ele><time>2026-03-24T14:20:55.377Z</time></trkpt><trkpt lat="46.7596115" lon="10.5366016"><ele>1458.5</ele><time>2026-03-24T14:20:57.381Z</time></trkpt><trkpt lat="46.759696" lon="10.536491"><ele>1459.25</ele><time>2026-03-24T14:20:59.378Z</time></trkpt><trkpt lat="46.7597793" lon="10.53638"><ele>1460.0</ele><time>2026-03-24T14:21:01.386Z</time></trkpt><trkpt lat="46.7598621" lon="10.5362713"><ele>1460.0</ele><time>2026-03-24T14:21:03.377Z</time></trkpt><trkpt lat="46.7599442" lon="10.5361646"><ele>1460.0</ele><time>2026-03-24T14:21:05.367Z</time></trkpt><trkpt lat="46.7600245" lon="10.5360564"><ele>1460.0</ele><time>2026-03-24T14:21:07.371Z</time></trkpt><trkpt lat="46.7601063" lon="10.5359494"><ele>1460.0</ele><time>2026-03-24T14:21:09.368Z</time></trkpt><trkpt lat="46.7601854" lon="10.5358385"><ele>1460.0</ele><time>2026-03-24T14:21:11.376Z</time></trkpt><trkpt lat="46.7602651" lon="10.5357354"><ele>1460.0</ele><time>2026-03-24T14:21:13.378Z</time></trkpt><trkpt lat="46.7603453" lon="10.5356404"><ele>1460.0</ele><time>2026-03-24T14:21:15.376Z</time></trkpt><trkpt lat="46.7604236" lon="10.5355454"><ele>1460.0</ele><time>2026-03-24T14:21:17.38Z</time></trkpt><trkpt lat="46.7605062" lon="10.5354599"><ele>1460.0</ele><time>2026-03-24T14:21:19.377Z</time></trkpt><trkpt lat="46.7605893" lon="10.5353763"><ele>1460.0</ele><time>2026-03-24T14:21:21.374Z</time></trkpt><trkpt lat="46.7606707" lon="10.535291"><ele>1460.6</ele><time>2026-03-24T14:21:23.374Z</time></trkpt><trkpt lat="46.760752" lon="10.5352112"><ele>1461.2</ele><time>2026-03-24T14:21:25.37Z</time></trkpt><trkpt lat="46.7608315" lon="10.5351312"><ele>1461.8000000000002</ele><time>2026-03-24T14:21:27.372Z</time></trkpt><trkpt lat="46.760908" lon="10.5350482"><ele>1462.4</ele><time>2026-03-24T14:21:29.383Z</time></trkpt><trkpt lat="46.7609871" lon="10.5349685"><ele>1463.0</ele><time>2026-03-24T14:21:31.384Z</time></trkpt><trkpt lat="46.7610688" lon="10.534891"><ele>1463.0</ele><time>2026-03-24T14:21:33.374Z</time></trkpt><trkpt lat="46.7611511" lon="10.5348147"><ele>1463.0</ele><time>2026-03-24T14:21:35.378Z</time></trkpt><trkpt lat="46.7612352" lon="10.5347445"><ele>1463.0</ele><time>2026-03-24T14:21:37.389Z</time></trkpt><trkpt lat="46.7613215" lon="10.5346786"><ele>1463.0</ele><time>2026-03-24T14:21:39.377Z</time></trkpt><trkpt lat="46.7614061" lon="10.5346249"><ele>1463.0</ele><time>2026-03-24T14:21:41.386Z</time></trkpt><trkpt lat="46.7614927" lon="10.5345721"><ele>1462.6000000000001</ele><time>2026-03-24T14:21:43.376Z</time></trkpt><trkpt lat="46.7615783" lon="10.5345268"><ele>1462.2</ele><time>2026-03-24T14:21:45.379Z</time></trkpt><trkpt lat="46.7616644" lon="10.5344817"><ele>1461.8</ele><time>2026-03-24T14:21:47.375Z</time></trkpt><trkpt lat="46.7617522" lon="10.5344445"><ele>1461.4</ele><time>2026-03-24T14:21:49.376Z</time></trkpt><trkpt lat="46.7618392" lon="10.534412"><ele>1461.0</ele><time>2026-03-24T14:21:51.379Z</time></trkpt><trkpt lat="46.7619254" lon="10.5343826"><ele>1461.0</ele><time>2026-03-24T14:21:53.382Z</time></trkpt><trkpt lat="46.7620096" lon="10.5343534"><ele>1461.0</ele><time>2026-03-24T14:21:55.371Z</time></trkpt><trkpt lat="46.7620894" lon="10.5343212"><ele>1461.0</ele><time>2026-03-24T14:21:57.376Z</time></trkpt><trkpt lat="46.7621658" lon="10.5342943"><ele>1461.0</ele><time>2026-03-24T14:21:59.37Z</time></trkpt><trkpt lat="46.7622435" lon="10.5342712"><ele>1461.0</ele><time>2026-03-24T14:22:01.373Z</time></trkpt><trkpt lat="46.7623213" lon="10.5342444"><ele>1461.0</ele><time>2026-03-24T14:22:03.382Z</time></trkpt><trkpt lat="46.7623978" lon="10.5342159"><ele>1461.0</ele><time>2026-03-24T14:22:05.374Z</time></trkpt><trkpt lat="46.7624753" lon="10.5341876"><ele>1461.0</ele><time>2026-03-24T14:22:07.371Z</time></trkpt><trkpt lat="46.7625542" lon="10.53416"><ele>1461.0</ele><time>2026-03-24T14:22:09.378Z</time></trkpt><trkpt lat="46.7626304" lon="10.5341341"><ele>1461.0</ele><time>2026-03-24T14:22:11.372Z</time></trkpt><trkpt lat="46.7627048" lon="10.5341096"><ele>1461.0</ele><time>2026-03-24T14:22:13.374Z</time></trkpt><trkpt lat="46.762778" lon="10.5340836"><ele>1461.0</ele><time>2026-03-24T14:22:15.38Z</time></trkpt><trkpt lat="46.7628493" lon="10.5340568"><ele>1462.142857142857</ele><time>2026-03-24T14:22:17.382Z</time></trkpt><trkpt lat="46.7629198" lon="10.5340322"><ele>1463.2857142857144</ele><time>2026-03-24T14:22:19.382Z</time></trkpt><trkpt lat="46.7629905" lon="10.5340086"><ele>1464.4285714285716</ele><time>2026-03-24T14:22:21.38Z</time></trkpt><trkpt lat="46.7630632" lon="10.533985"><ele>1465.5714285714284</ele><time>2026-03-24T14:22:23.377Z</time></trkpt><trkpt lat="46.7631341" lon="10.5339604"><ele>1466.7142857142858</ele><time>2026-03-24T14:22:25.367Z</time></trkpt><trkpt lat="46.7632026" lon="10.5339332"><ele>1467.857142857143</ele><time>2026-03-24T14:22:27.374Z</time></trkpt><trkpt lat="46.7632722" lon="10.5339145"><ele>1469.0</ele><time>2026-03-24T14:22:29.374Z</time></trkpt><trkpt lat="46.7633402" lon="10.533905"><ele>1469.0</ele><time>2026-03-24T14:22:31.376Z</time></trkpt><trkpt lat="46.7634087" lon="10.5338944"><ele>1469.0</ele><time>2026-03-24T14:22:33.363Z</time></trkpt><trkpt lat="46.7634787" lon="10.533883"><ele>1469.0</ele><time>2026-03-24T14:22:35.382Z</time></trkpt><trkpt lat="46.763546" lon="10.5338762"><ele>1469.0</ele><time>2026-03-24T14:22:37.367Z</time></trkpt><trkpt lat="46.7636143" lon="10.5338648"><ele>1469.0</ele><time>2026-03-24T14:22:39.38Z</time></trkpt><trkpt lat="46.7636827" lon="10.5338595"><ele>1469.0</ele><time>2026-03-24T14:22:41.38Z</time></trkpt><trkpt lat="46.7637493" lon="10.5338446"><ele>1469.0</ele><time>2026-03-24T14:22:43.374Z</time></trkpt><trkpt lat="46.7638204" lon="10.5338252"><ele>1469.142857142857</ele><time>2026-03-24T14:22:45.374Z</time></trkpt><trkpt lat="46.7638915" lon="10.5338001"><ele>1469.2857142857142</ele><time>2026-03-24T14:22:47.385Z</time></trkpt><trkpt lat="46.7639614" lon="10.5337738"><ele>1469.4285714285716</ele><time>2026-03-24T14:22:49.356Z</time></trkpt><trkpt lat="46.7640265" lon="10.5337376"><ele>1469.5714285714284</ele><time>2026-03-24T14:22:51.377Z</time></trkpt><trkpt lat="46.7640885" lon="10.5336879"><ele>1469.7142857142858</ele><time>2026-03-24T14:22:53.372Z</time></trkpt><trkpt lat="46.7641441" lon="10.5336299"><ele>1469.857142857143</ele><time>2026-03-24T14:22:55.381Z</time></trkpt><trkpt lat="46.7642043" lon="10.5335807"><ele>1470.0</ele><time>2026-03-24T14:22:57.374Z</time></trkpt><trkpt lat="46.7642696" lon="10.5335452"><ele>1470.2857142857142</ele><time>2026-03-24T14:22:59.38Z</time></trkpt><trkpt lat="46.7643367" lon="10.5335198"><ele>1470.5714285714284</ele><time>2026-03-24T14:23:01.375Z</time></trkpt><trkpt lat="46.7644049" lon="10.5335001"><ele>1470.857142857143</ele><time>2026-03-24T14:23:03.373Z</time></trkpt><trkpt lat="46.7644713" lon="10.5334812"><ele>1471.142857142857</ele><time>2026-03-24T14:23:05.379Z</time></trkpt><trkpt lat="46.7645391" lon="10.5334565"><ele>1471.4285714285713</ele><time>2026-03-24T14:23:07.38Z</time></trkpt><trkpt lat="46.7646027" lon="10.5334347"><ele>1471.7142857142858</ele><time>2026-03-24T14:23:09.393Z</time></trkpt><trkpt lat="46.7646673" lon="10.5334145"><ele>1472.0</ele><time>2026-03-24T14:23:11.372Z</time></trkpt><trkpt lat="46.7647347" lon="10.5333965"><ele>1472.0</ele><time>2026-03-24T14:23:13.378Z</time></trkpt><trkpt lat="46.7648004" lon="10.5333843"><ele>1472.0</ele><time>2026-03-24T14:23:15.381Z</time></trkpt><trkpt lat="46.7648679" lon="10.5333702"><ele>1472.0</ele><time>2026-03-24T14:23:17.374Z</time></trkpt><trkpt lat="46.7649381" lon="10.5333576"><ele>1472.0</ele><time>2026-03-24T14:23:19.378Z</time></trkpt><trkpt lat="46.7650079" lon="10.5333405"><ele>1472.0</ele><time>2026-03-24T14:23:21.388Z</time></trkpt><trkpt lat="46.7650768" lon="10.5333297"><ele>1472.0</ele><time>2026-03-24T14:23:23.383Z</time></trkpt><trkpt lat="46.7651443" lon="10.5333289"><ele>1472.0</ele><time>2026-03-24T14:23:25.368Z</time></trkpt><trkpt lat="46.7652133" lon="10.5333192"><ele>1472.4285714285716</ele><time>2026-03-24T14:23:27.371Z</time></trkpt><trkpt lat="46.7652801" lon="10.5333097"><ele>1472.8571428571427</ele><time>2026-03-24T14:23:29.382Z</time></trkpt><trkpt lat="46.7653501" lon="10.5332988"><ele>1473.2857142857142</ele><time>2026-03-24T14:23:31.37Z</time></trkpt><trkpt lat="46.7654218" lon="10.533293"><ele>1473.7142857142858</ele><time>2026-03-24T14:23:33.371Z</time></trkpt><trkpt lat="46.7654919" lon="10.5332886"><ele>1474.1428571428573</ele><time>2026-03-24T14:23:35.375Z</time></trkpt><trkpt lat="46.7655625" lon="10.5332845"><ele>1474.5714285714284</ele><time>2026-03-24T14:23:37.368Z</time></trkpt><trkpt lat="46.7656313" lon="10.5332835"><ele>1475.0</ele><time>2026-03-24T14:23:39.371Z</time></trkpt><trkpt lat="46.7656969" lon="10.5332738"><ele>1475.0</ele><time>2026-03-24T14:23:41.378Z</time></trkpt><trkpt lat="46.7657614" lon="10.5332546"><ele>1475.0</ele><time>2026-03-24T14:23:43.376Z</time></trkpt><trkpt lat="46.7658372" lon="10.5332477"><ele>1475.0</ele><time>2026-03-24T14:23:45.36Z</time></trkpt><trkpt lat="46.7659083" lon="10.5332399"><ele>1475.0</ele><time>2026-03-24T14:23:47.375Z</time></trkpt><trkpt lat="46.7659782" lon="10.5332332"><ele>1475.0</ele><time>2026-03-24T14:23:49.383Z</time></trkpt><trkpt lat="46.766047" lon="10.5332259"><ele>1475.0</ele><time>2026-03-24T14:23:51.379Z</time></trkpt><trkpt lat="46.7661142" lon="10.5332175"><ele>1475.0</ele><time>2026-03-24T14:23:53.373Z</time></trkpt><trkpt lat="46.766194" lon="10.5331986"><ele>1475.5714285714284</ele><time>2026-03-24T14:23:56.371Z</time></trkpt><trkpt lat="46.7662709" lon="10.5331882"><ele>1476.1428571428573</ele><time>2026-03-24T14:24:00.362Z</time></trkpt><trkpt lat="46.7663415" lon="10.533178"><ele>1476.7142857142858</ele><time>2026-03-24T14:24:11.36Z</time></trkpt><trkpt lat="46.7663951" lon="10.5330994"><ele>1477.2857142857142</ele><time>2026-03-24T14:27:07.365Z</time></trkpt><trkpt lat="46.7664623" lon="10.5330895"><ele>1477.8571428571427</ele><time>2026-03-24T14:27:10.367Z</time></trkpt><trkpt lat="46.766549" lon="10.5330743"><ele>1478.4285714285716</ele><time>2026-03-24T14:27:13.37Z</time></trkpt><trkpt lat="46.7666131" lon="10.5330651"><ele>1479.0</ele><time>2026-03-24T14:27:15.369Z</time></trkpt><trkpt lat="46.7666824" lon="10.5330578"><ele>1479.0</ele><time>2026-03-24T14:27:17.361Z</time></trkpt><trkpt lat="46.766757" lon="10.5330566"><ele>1479.0</ele><time>2026-03-24T14:27:19.366Z</time></trkpt><trkpt lat="46.7668328" lon="10.5330499"><ele>1479.0</ele><time>2026-03-24T14:27:21.369Z</time></trkpt><trkpt lat="46.7669046" lon="10.5330368"><ele>1479.0</ele><time>2026-03-24T14:27:23.372Z</time></trkpt><trkpt lat="46.766974" lon="10.533029"><ele>1479.0</ele><time>2026-03-24T14:27:25.378Z</time></trkpt><trkpt lat="46.7670438" lon="10.5330127"><ele>1479.0</ele><time>2026-03-24T14:27:27.369Z</time></trkpt><trkpt lat="46.7671117" lon="10.5329935"><ele>1479.0</ele><time>2026-03-24T14:27:29.371Z</time></trkpt><trkpt lat="46.7671782" lon="10.5329743"><ele>1479.4285714285716</ele><time>2026-03-24T14:27:31.381Z</time></trkpt><trkpt lat="46.7672478" lon="10.5329625"><ele>1479.8571428571427</ele><time>2026-03-24T14:27:33.366Z</time></trkpt><trkpt lat="46.7673223" lon="10.5329645"><ele>1480.2857142857142</ele><time>2026-03-24T14:27:35.369Z</time></trkpt><trkpt lat="46.7673852" lon="10.53297"><ele>1480.7142857142858</ele><time>2026-03-24T14:27:37.375Z</time></trkpt><trkpt lat="46.7674629" lon="10.5329584"><ele>1481.1428571428573</ele><time>2026-03-24T14:27:40.372Z</time></trkpt><trkpt lat="46.7675361" lon="10.5329392"><ele>1481.5714285714284</ele><time>2026-03-24T14:27:44.37Z</time></trkpt><trkpt lat="46.7676074" lon="10.5329173"><ele>1482.0</ele><time>2026-03-24T14:27:49.373Z</time></trkpt><trkpt lat="46.7676873" lon="10.5328922"><ele>1481.0</ele><time>2026-03-24T14:27:52.372Z</time></trkpt><trkpt lat="46.7677795" lon="10.5328731"><ele>1480.0</ele><time>2026-03-24T14:27:55.372Z</time></trkpt><trkpt lat="46.7678509" lon="10.5328603"><ele>1479.0</ele><time>2026-03-24T14:27:57.364Z</time></trkpt><trkpt lat="46.7679204" lon="10.5328449"><ele>1478.0</ele><time>2026-03-24T14:27:59.372Z</time></trkpt><trkpt lat="46.7679947" lon="10.5328292"><ele>1477.0</ele><time>2026-03-24T14:28:01.377Z</time></trkpt><trkpt lat="46.7680691" lon="10.5328169"><ele>1476.0</ele><time>2026-03-24T14:28:03.384Z</time></trkpt><trkpt lat="46.7681439" lon="10.53281"><ele>1476.0</ele><time>2026-03-24T14:28:05.369Z</time></trkpt><trkpt lat="46.7682233" lon="10.5328139"><ele>1476.0</ele><time>2026-03-24T14:28:07.375Z</time></trkpt><trkpt lat="46.7683025" lon="10.532823"><ele>1476.0</ele><time>2026-03-24T14:28:09.374Z</time></trkpt><trkpt lat="46.7683849" lon="10.5328338"><ele>1476.0</ele><time>2026-03-24T14:28:11.375Z</time></trkpt><trkpt lat="46.7684685" lon="10.5328432"><ele>1476.0</ele><time>2026-03-24T14:28:13.372Z</time></trkpt><trkpt lat="46.7685473" lon="10.5328582"><ele>1476.0</ele><time>2026-03-24T14:28:15.366Z</time></trkpt><trkpt lat="46.7686223" lon="10.5328749"><ele>1476.857142857143</ele><time>2026-03-24T14:28:17.372Z</time></trkpt><trkpt lat="46.7686931" lon="10.5328956"><ele>1477.7142857142858</ele><time>2026-03-24T14:28:19.378Z</time></trkpt><trkpt lat="46.7687643" lon="10.5329164"><ele>1478.5714285714284</ele><time>2026-03-24T14:28:21.366Z</time></trkpt><trkpt lat="46.7688351" lon="10.5329366"><ele>1479.4285714285716</ele><time>2026-03-24T14:28:23.368Z</time></trkpt><trkpt lat="46.7689059" lon="10.5329618"><ele>1480.2857142857144</ele><time>2026-03-24T14:28:25.376Z</time></trkpt><trkpt lat="46.768973" lon="10.5329905"><ele>1481.142857142857</ele><time>2026-03-24T14:28:27.367Z</time></trkpt><trkpt lat="46.76904" lon="10.5330169"><ele>1482.0</ele><time>2026-03-24T14:28:29.369Z</time></trkpt><trkpt lat="46.7691064" lon="10.5330402"><ele>1482.0</ele><time>2026-03-24T14:28:31.37Z</time></trkpt><trkpt lat="46.7691714" lon="10.5330667"><ele>1482.0</ele><time>2026-03-24T14:28:33.376Z</time></trkpt><trkpt lat="46.7692356" lon="10.5330937"><ele>1482.0</ele><time>2026-03-24T14:28:35.364Z</time></trkpt><trkpt lat="46.7692998" lon="10.5331231"><ele>1482.0</ele><time>2026-03-24T14:28:37.363Z</time></trkpt><trkpt lat="46.769362" lon="10.5331527"><ele>1482.0</ele><time>2026-03-24T14:28:39.368Z</time></trkpt><trkpt lat="46.7694254" lon="10.5331772"><ele>1482.0</ele><time>2026-03-24T14:28:41.376Z</time></trkpt><trkpt lat="46.7694888" lon="10.5332044"><ele>1482.0</ele><time>2026-03-24T14:28:43.379Z</time></trkpt><trkpt lat="46.7695512" lon="10.5332301"><ele>1482.5714285714284</ele><time>2026-03-24T14:28:45.377Z</time></trkpt><trkpt lat="46.7696145" lon="10.5332557"><ele>1483.1428571428573</ele><time>2026-03-24T14:28:47.37Z</time></trkpt><trkpt lat="46.7696767" lon="10.5332838"><ele>1483.7142857142858</ele><time>2026-03-24T14:28:49.369Z</time></trkpt><trkpt lat="46.7697384" lon="10.5333118"><ele>1484.2857142857142</ele><time>2026-03-24T14:28:51.374Z</time></trkpt><trkpt lat="46.7697992" lon="10.5333387"><ele>1484.8571428571427</ele><time>2026-03-24T14:28:53.374Z</time></trkpt><trkpt lat="46.7698611" lon="10.5333626"><ele>1485.4285714285716</ele><time>2026-03-24T14:28:55.391Z</time></trkpt><trkpt lat="46.7699512" lon="10.5333995"><ele>1486.0</ele><time>2026-03-24T14:28:58.368Z</time></trkpt><trkpt lat="46.770014" lon="10.5334245"><ele>1486.0</ele><time>2026-03-24T14:29:00.369Z</time></trkpt><trkpt lat="46.770076" lon="10.5334502"><ele>1486.0</ele><time>2026-03-24T14:29:02.375Z</time></trkpt><trkpt lat="46.7701681" lon="10.533487"><ele>1486.0</ele><time>2026-03-24T14:29:05.374Z</time></trkpt><trkpt lat="46.7702324" lon="10.5335145"><ele>1486.0</ele><time>2026-03-24T14:29:07.385Z</time></trkpt><trkpt lat="46.7702928" lon="10.5335405"><ele>1486.0</ele><time>2026-03-24T14:29:09.377Z</time></trkpt><trkpt lat="46.770383" lon="10.5335728"><ele>1486.0</ele><time>2026-03-24T14:29:12.372Z</time></trkpt><trkpt lat="46.7704451" lon="10.5335929"><ele>1486.0</ele><time>2026-03-24T14:29:14.377Z</time></trkpt><trkpt lat="46.7705055" lon="10.5336194"><ele>1486.2857142857144</ele><time>2026-03-24T14:29:16.373Z</time></trkpt><trkpt lat="46.770566" lon="10.533649"><ele>1486.5714285714284</ele><time>2026-03-24T14:29:18.37Z</time></trkpt><trkpt lat="46.770627" lon="10.5336774"><ele>1486.857142857143</ele><time>2026-03-24T14:29:20.371Z</time></trkpt><trkpt lat="46.7706886" lon="10.5337033"><ele>1487.1428571428573</ele><time>2026-03-24T14:29:22.384Z</time></trkpt><trkpt lat="46.7707793" lon="10.5337399"><ele>1487.4285714285716</ele><time>2026-03-24T14:29:25.38Z</time></trkpt><trkpt lat="46.7708407" lon="10.5337662"><ele>1487.7142857142858</ele><time>2026-03-24T14:29:27.378Z</time></trkpt><trkpt lat="46.7709015" lon="10.5337907"><ele>1488.0</ele><time>2026-03-24T14:29:29.37Z</time></trkpt><trkpt lat="46.7709923" lon="10.5338275"><ele>1488.857142857143</ele><time>2026-03-24T14:29:32.374Z</time></trkpt><trkpt lat="46.7710534" lon="10.5338515"><ele>1489.7142857142858</ele><time>2026-03-24T14:29:34.378Z</time></trkpt><trkpt lat="46.7711147" lon="10.5338758"><ele>1490.5714285714284</ele><time>2026-03-24T14:29:36.368Z</time></trkpt><trkpt lat="46.7711775" lon="10.5339023"><ele>1491.4285714285716</ele><time>2026-03-24T14:29:38.372Z</time></trkpt><trkpt lat="46.7712386" lon="10.5339292"><ele>1492.2857142857142</ele><time>2026-03-24T14:29:40.374Z</time></trkpt><trkpt lat="46.7713284" lon="10.533964"><ele>1493.142857142857</ele><time>2026-03-24T14:29:43.376Z</time></trkpt><trkpt lat="46.7714151" lon="10.5339973"><ele>1494.0</ele><time>2026-03-24T14:29:46.365Z</time></trkpt><trkpt lat="46.7714764" lon="10.5340231"><ele>1494.0</ele><time>2026-03-24T14:29:48.366Z</time></trkpt><trkpt lat="46.7715383" lon="10.5340444"><ele>1494.0</ele><time>2026-03-24T14:29:50.371Z</time></trkpt><trkpt lat="46.7716001" lon="10.5340667"><ele>1494.0</ele><time>2026-03-24T14:29:52.383Z</time></trkpt><trkpt lat="46.7716891" lon="10.534103"><ele>1494.0</ele><time>2026-03-24T14:29:55.375Z</time></trkpt><trkpt lat="46.7717795" lon="10.5341426"><ele>1494.0</ele><time>2026-03-24T14:29:58.376Z</time></trkpt><trkpt lat="46.7718697" lon="10.5341817"><ele>1494.0</ele><time>2026-03-24T14:30:01.382Z</time></trkpt><trkpt lat="46.7719559" lon="10.5342194"><ele>1494.4285714285713</ele><time>2026-03-24T14:30:04.382Z</time></trkpt><trkpt lat="46.7720189" lon="10.5342485"><ele>1494.857142857143</ele><time>2026-03-24T14:30:06.373Z</time></trkpt><trkpt lat="46.7721094" lon="10.5342852"><ele>1495.2857142857142</ele><time>2026-03-24T14:30:09.379Z</time></trkpt><trkpt lat="46.7721705" lon="10.5343092"><ele>1495.7142857142858</ele><time>2026-03-24T14:30:11.368Z</time></trkpt><trkpt lat="46.7722612" lon="10.5343468"><ele>1496.142857142857</ele><time>2026-03-24T14:30:14.369Z</time></trkpt><trkpt lat="46.7723241" lon="10.5343695"><ele>1496.5714285714284</ele><time>2026-03-24T14:30:16.366Z</time></trkpt><trkpt lat="46.7723861" lon="10.5343937"><ele>1497.0</ele><time>2026-03-24T14:30:18.383Z</time></trkpt><trkpt lat="46.7724469" lon="10.5344204"><ele>1497.0</ele><time>2026-03-24T14:30:20.371Z</time></trkpt><trkpt lat="46.772508" lon="10.5344432"><ele>1497.0</ele><time>2026-03-24T14:30:22.373Z</time></trkpt><trkpt lat="46.7725683" lon="10.5344696"><ele>1497.0</ele><time>2026-03-24T14:30:24.367Z</time></trkpt><trkpt lat="46.7726583" lon="10.5345012"><ele>1497.0</ele><time>2026-03-24T14:30:27.366Z</time></trkpt><trkpt lat="46.77272" lon="10.5345272"><ele>1497.0</ele><time>2026-03-24T14:30:29.378Z</time></trkpt><trkpt lat="46.7728101" lon="10.5345596"><ele>1497.0</ele><time>2026-03-24T14:30:32.39Z</time></trkpt><trkpt lat="46.7729016" lon="10.5345922"><ele>1497.5714285714284</ele><time>2026-03-24T14:30:35.373Z</time></trkpt><trkpt lat="46.772989" lon="10.5346281"><ele>1498.142857142857</ele><time>2026-03-24T14:30:38.373Z</time></trkpt><trkpt lat="46.7730792" lon="10.5346649"><ele>1498.7142857142858</ele><time>2026-03-24T14:30:41.378Z</time></trkpt><trkpt lat="46.7731429" lon="10.5346877"><ele>1499.2857142857142</ele><time>2026-03-24T14:30:43.367Z</time></trkpt><trkpt lat="46.7732072" lon="10.5347134"><ele>1499.857142857143</ele><time>2026-03-24T14:30:45.375Z</time></trkpt><trkpt lat="46.7732699" lon="10.5347362"><ele>1500.4285714285713</ele><time>2026-03-24T14:30:47.379Z</time></trkpt><trkpt lat="46.7733314" lon="10.5347601"><ele>1501.0</ele><time>2026-03-24T14:30:49.375Z</time></trkpt><trkpt lat="46.7733952" lon="10.5347838"><ele>1500.9999999999998</ele><time>2026-03-24T14:30:51.376Z</time></trkpt><trkpt lat="46.77346" lon="10.5348042"><ele>1501.0</ele><time>2026-03-24T14:30:53.372Z</time></trkpt><trkpt lat="46.7735238" lon="10.5348283"><ele>1501.0</ele><time>2026-03-24T14:30:55.378Z</time></trkpt><trkpt lat="46.7736161" lon="10.534859"><ele>1501.0</ele><time>2026-03-24T14:30:58.372Z</time></trkpt><trkpt lat="46.7736808" lon="10.5348813"><ele>1501.0</ele><time>2026-03-24T14:31:00.371Z</time></trkpt><trkpt lat="46.7737467" lon="10.5349027"><ele>1500.9999999999998</ele><time>2026-03-24T14:31:02.374Z</time></trkpt><trkpt lat="46.7738136" lon="10.5349146"><ele>1501.0</ele><time>2026-03-24T14:31:04.374Z</time></trkpt><trkpt lat="46.7738795" lon="10.5349216"><ele>1501.0</ele><time>2026-03-24T14:31:06.378Z</time></trkpt><trkpt lat="46.7739488" lon="10.534926"><ele>1501.0</ele><time>2026-03-24T14:31:08.373Z</time></trkpt><trkpt lat="46.774023" lon="10.5349321"><ele>1501.0</ele><time>2026-03-24T14:31:10.372Z</time></trkpt><trkpt lat="46.7740985" lon="10.5349349"><ele>1501.0</ele><time>2026-03-24T14:31:12.376Z</time></trkpt><trkpt lat="46.7741782" lon="10.5349405"><ele>1501.0</ele><time>2026-03-24T14:31:14.37Z</time></trkpt><trkpt lat="46.7742633" lon="10.5349407"><ele>1501.0</ele><time>2026-03-24T14:31:16.375Z</time></trkpt><trkpt lat="46.7743532" lon="10.5349417"><ele>1501.1999999999998</ele><time>2026-03-24T14:31:18.372Z</time></trkpt><trkpt lat="46.7744444" lon="10.5349463"><ele>1501.3999999999999</ele><time>2026-03-24T14:31:20.383Z</time></trkpt><trkpt lat="46.7745408" lon="10.5349464"><ele>1501.6</ele><time>2026-03-24T14:31:22.365Z</time></trkpt><trkpt lat="46.7746378" lon="10.5349494"><ele>1501.8</ele><time>2026-03-24T14:31:24.375Z</time></trkpt><trkpt lat="46.7747357" lon="10.534952"><ele>1502.0</ele><time>2026-03-24T14:31:26.374Z</time></trkpt><trkpt lat="46.7748389" lon="10.5349509"><ele>1502.0</ele><time>2026-03-24T14:31:28.372Z</time></trkpt><trkpt lat="46.7749463" lon="10.5349518"><ele>1502.0</ele><time>2026-03-24T14:31:30.374Z</time></trkpt><trkpt lat="46.7750565" lon="10.5349561"><ele>1502.0</ele><time>2026-03-24T14:31:32.371Z</time></trkpt><trkpt lat="46.7751679" lon="10.5349596"><ele>1502.0</ele><time>2026-03-24T14:31:34.376Z</time></trkpt><trkpt lat="46.7752795" lon="10.5349617"><ele>1502.0</ele><time>2026-03-24T14:31:36.38Z</time></trkpt><trkpt lat="46.7753915" lon="10.5349664"><ele>1501.3999999999999</ele><time>2026-03-24T14:31:38.368Z</time></trkpt><trkpt lat="46.7755021" lon="10.5349676"><ele>1500.8</ele><time>2026-03-24T14:31:40.378Z</time></trkpt><trkpt lat="46.7756136" lon="10.5349703"><ele>1500.2</ele><time>2026-03-24T14:31:42.378Z</time></trkpt><trkpt lat="46.7757237" lon="10.5349813"><ele>1499.6</ele><time>2026-03-24T14:31:44.366Z</time></trkpt><trkpt lat="46.7758333" lon="10.5349986"><ele>1499.0</ele><time>2026-03-24T14:31:46.366Z</time></trkpt><trkpt lat="46.7759427" lon="10.5350221"><ele>1498.6</ele><time>2026-03-24T14:31:48.37Z</time></trkpt><trkpt lat="46.7760512" lon="10.5350487"><ele>1498.2</ele><time>2026-03-24T14:31:50.373Z</time></trkpt><trkpt lat="46.7761587" lon="10.5350789"><ele>1497.8</ele><time>2026-03-24T14:31:52.375Z</time></trkpt><trkpt lat="46.7762675" lon="10.5351179"><ele>1497.3999999999999</ele><time>2026-03-24T14:31:54.378Z</time></trkpt><trkpt lat="46.7763753" lon="10.5351652"><ele>1497.0</ele><time>2026-03-24T14:31:56.374Z</time></trkpt><trkpt lat="46.7764842" lon="10.5352136"><ele>1497.0</ele><time>2026-03-24T14:31:58.375Z</time></trkpt><trkpt lat="46.7765924" lon="10.5352633"><ele>1497.0</ele><time>2026-03-24T14:32:00.372Z</time></trkpt><trkpt lat="46.7766993" lon="10.5353148"><ele>1497.0</ele><time>2026-03-24T14:32:02.373Z</time></trkpt><trkpt lat="46.7768054" lon="10.5353654"><ele>1497.0</ele><time>2026-03-24T14:32:04.37Z</time></trkpt><trkpt lat="46.7769119" lon="10.5354169"><ele>1498.5</ele><time>2026-03-24T14:32:06.371Z</time></trkpt><trkpt lat="46.7770209" lon="10.5354691"><ele>1500.0</ele><time>2026-03-24T14:32:08.376Z</time></trkpt><trkpt lat="46.7771297" lon="10.5355206"><ele>1501.5</ele><time>2026-03-24T14:32:10.376Z</time></trkpt><trkpt lat="46.7772382" lon="10.5355723"><ele>1503.0</ele><time>2026-03-24T14:32:12.373Z</time></trkpt><trkpt lat="46.7773466" lon="10.5356224"><ele>1503.0</ele><time>2026-03-24T14:32:14.379Z</time></trkpt><trkpt lat="46.7774533" lon="10.5356705"><ele>1503.0</ele><time>2026-03-24T14:32:16.368Z</time></trkpt><trkpt lat="46.7775609" lon="10.5357228"><ele>1503.0</ele><time>2026-03-24T14:32:18.372Z</time></trkpt><trkpt lat="46.7776671" lon="10.5357739"><ele>1503.0</ele><time>2026-03-24T14:32:20.382Z</time></trkpt><trkpt lat="46.7777723" lon="10.5358267"><ele>1503.0</ele><time>2026-03-24T14:32:22.373Z</time></trkpt><trkpt lat="46.777878" lon="10.5358751"><ele>1502.5</ele><time>2026-03-24T14:32:24.383Z</time></trkpt><trkpt lat="46.7779843" lon="10.5359247"><ele>1502.0</ele><time>2026-03-24T14:32:26.37Z</time></trkpt><trkpt lat="46.7780922" lon="10.5359767"><ele>1501.5</ele><time>2026-03-24T14:32:28.373Z</time></trkpt><trkpt lat="46.7782008" lon="10.5360282"><ele>1501.0</ele><time>2026-03-24T14:32:30.365Z</time></trkpt><trkpt lat="46.7783076" lon="10.5360823"><ele>1501.0</ele><time>2026-03-24T14:32:32.364Z</time></trkpt><trkpt lat="46.7784133" lon="10.5361392"><ele>1501.0</ele><time>2026-03-24T14:32:34.374Z</time></trkpt><trkpt lat="46.7785181" lon="10.5362047"><ele>1501.0</ele><time>2026-03-24T14:32:36.375Z</time></trkpt><trkpt lat="46.7786178" lon="10.5362748"><ele>1501.0</ele><time>2026-03-24T14:32:38.369Z</time></trkpt><trkpt lat="46.7787186" lon="10.5363498"><ele>1502.0</ele><time>2026-03-24T14:32:40.38Z</time></trkpt><trkpt lat="46.7788159" lon="10.5364306"><ele>1503.0</ele><time>2026-03-24T14:32:42.378Z</time></trkpt><trkpt lat="46.7789164" lon="10.5365103"><ele>1504.0</ele><time>2026-03-24T14:32:44.379Z</time></trkpt><trkpt lat="46.7790166" lon="10.5365887"><ele>1505.0</ele><time>2026-03-24T14:32:46.383Z</time></trkpt><trkpt lat="46.7791163" lon="10.5366688"><ele>1505.0</ele><time>2026-03-24T14:32:48.371Z</time></trkpt><trkpt lat="46.7792178" lon="10.5367483"><ele>1505.0</ele><time>2026-03-24T14:32:50.371Z</time></trkpt><trkpt lat="46.7793239" lon="10.5368298"><ele>1505.0</ele><time>2026-03-24T14:32:52.377Z</time></trkpt><trkpt lat="46.7794316" lon="10.5369097"><ele>1505.0</ele><time>2026-03-24T14:32:54.376Z</time></trkpt><trkpt lat="46.7795363" lon="10.5369863"><ele>1507.2</ele><time>2026-03-24T14:32:56.368Z</time></trkpt><trkpt lat="46.7796353" lon="10.5370614"><ele>1509.4</ele><time>2026-03-24T14:32:58.376Z</time></trkpt><trkpt lat="46.7797354" lon="10.5371356"><ele>1511.6</ele><time>2026-03-24T14:33:00.362Z</time></trkpt><trkpt lat="46.7798343" lon="10.5372088"><ele>1513.8</ele><time>2026-03-24T14:33:02.366Z</time></trkpt><trkpt lat="46.7799325" lon="10.5372846"><ele>1516.0</ele><time>2026-03-24T14:33:04.37Z</time></trkpt><trkpt lat="46.7800309" lon="10.5373606"><ele>1516.0</ele><time>2026-03-24T14:33:06.375Z</time></trkpt><trkpt lat="46.7801273" lon="10.5374364"><ele>1516.0</ele><time>2026-03-24T14:33:08.369Z</time></trkpt><trkpt lat="46.7802238" lon="10.5375124"><ele>1516.0</ele><time>2026-03-24T14:33:10.371Z</time></trkpt><trkpt lat="46.7803276" lon="10.5375965"><ele>1516.0</ele><time>2026-03-24T14:33:12.366Z</time></trkpt><trkpt lat="46.7804303" lon="10.5376866"><ele>1514.75</ele><time>2026-03-24T14:33:14.354Z</time></trkpt><trkpt lat="46.7805304" lon="10.537788"><ele>1513.5</ele><time>2026-03-24T14:33:16.37Z</time></trkpt><trkpt lat="46.7806295" lon="10.5378956"><ele>1512.25</ele><time>2026-03-24T14:33:18.369Z</time></trkpt><trkpt lat="46.7807234" lon="10.5380115"><ele>1511.0</ele><time>2026-03-24T14:33:20.359Z</time></trkpt><trkpt lat="46.7808153" lon="10.5381343"><ele>1511.0</ele><time>2026-03-24T14:33:22.369Z</time></trkpt><trkpt lat="46.7808586" lon="10.5382011"><ele>1511.0</ele><time>2026-03-24T14:33:23.369Z</time></trkpt><trkpt lat="46.7809027" lon="10.5382682"><ele>1511.0</ele><time>2026-03-24T14:33:24.373Z</time></trkpt><trkpt lat="46.7809472" lon="10.5383342"><ele>1511.0</ele><time>2026-03-24T14:33:25.367Z</time></trkpt><trkpt lat="46.7809904" lon="10.5384056"><ele>1511.0</ele><time>2026-03-24T14:33:26.361Z</time></trkpt><trkpt lat="46.7810334" lon="10.5384781"><ele>1511.0</ele><time>2026-03-24T14:33:27.365Z</time></trkpt><trkpt lat="46.7810755" lon="10.53855"><ele>1511.0</ele><time>2026-03-24T14:33:28.366Z</time></trkpt><trkpt lat="46.7811161" lon="10.5386232"><ele>1509.8333333333335</ele><time>2026-03-24T14:33:29.365Z</time></trkpt><trkpt lat="46.7811565" lon="10.5386959"><ele>1508.6666666666667</ele><time>2026-03-24T14:33:30.368Z</time></trkpt><trkpt lat="46.7811968" lon="10.5387669"><ele>1507.5</ele><time>2026-03-24T14:33:31.36Z</time></trkpt><trkpt lat="46.7812365" lon="10.5388399"><ele>1506.3333333333333</ele><time>2026-03-24T14:33:32.368Z</time></trkpt><trkpt lat="46.7813158" lon="10.5389804"><ele>1505.1666666666665</ele><time>2026-03-24T14:33:34.371Z</time></trkpt><trkpt lat="46.7813973" lon="10.5391191"><ele>1504.0</ele><time>2026-03-24T14:33:36.366Z</time></trkpt><trkpt lat="46.7814803" lon="10.5392591"><ele>1504.0</ele><time>2026-03-24T14:33:38.368Z</time></trkpt><trkpt lat="46.7815615" lon="10.5393933"><ele>1504.0</ele><time>2026-03-24T14:33:40.357Z</time></trkpt><trkpt lat="46.7816471" lon="10.5395165"><ele>1504.0</ele><time>2026-03-24T14:33:42.372Z</time></trkpt><trkpt lat="46.7817345" lon="10.5396363"><ele>1504.0</ele><time>2026-03-24T14:33:44.372Z</time></trkpt><trkpt lat="46.7818269" lon="10.5397511"><ele>1501.75</ele><time>2026-03-24T14:33:46.351Z</time></trkpt><trkpt lat="46.7819228" lon="10.5398611"><ele>1499.5</ele><time>2026-03-24T14:33:48.355Z</time></trkpt><trkpt lat="46.7820222" lon="10.5399687"><ele>1497.25</ele><time>2026-03-24T14:33:50.366Z</time></trkpt><trkpt lat="46.7821198" lon="10.5400722"><ele>1495.0</ele><time>2026-03-24T14:33:52.363Z</time></trkpt><trkpt lat="46.7822104" lon="10.5401707"><ele>1495.0</ele><time>2026-03-24T14:33:54.354Z</time></trkpt><trkpt lat="46.7822899" lon="10.5402571"><ele>1495.0</ele><time>2026-03-24T14:33:56.368Z</time></trkpt><trkpt lat="46.7823299" lon="10.5403354"><ele>1495.0</ele><time>2026-03-24T14:33:58.375Z</time></trkpt><trkpt lat="46.7823935" lon="10.5404021"><ele>1495.0</ele><time>2026-03-24T14:34:01.372Z</time></trkpt><trkpt lat="46.7823142" lon="10.5404666"><ele>1495.0</ele><time>2026-03-24T14:34:42.387Z</time></trkpt><trkpt lat="46.782398" lon="10.5405087"><ele>1495.0</ele><time>2026-03-24T14:35:57.365Z</time></trkpt><trkpt lat="46.7824582" lon="10.5405638"><ele>1495.0</ele><time>2026-03-24T14:35:59.381Z</time></trkpt><trkpt lat="46.7825255" lon="10.5406289"><ele>1495.0</ele><time>2026-03-24T14:36:01.367Z</time></trkpt><trkpt lat="46.7826012" lon="10.5407017"><ele>1495.0</ele><time>2026-03-24T14:36:03.379Z</time></trkpt><trkpt lat="46.7826801" lon="10.5407812"><ele>1495.0</ele><time>2026-03-24T14:36:05.372Z</time></trkpt><trkpt lat="46.7827661" lon="10.5408625"><ele>1495.0</ele><time>2026-03-24T14:36:07.37Z</time></trkpt><trkpt lat="46.7828472" lon="10.5409451"><ele>1495.0</ele><time>2026-03-24T14:36:09.369Z</time></trkpt><trkpt lat="46.7829296" lon="10.5410294"><ele>1495.0</ele><time>2026-03-24T14:36:11.363Z</time></trkpt><trkpt lat="46.783013" lon="10.5411172"><ele>1495.0</ele><time>2026-03-24T14:36:13.364Z</time></trkpt><trkpt lat="46.7830993" lon="10.5412055"><ele>1495.0</ele><time>2026-03-24T14:36:15.382Z</time></trkpt><trkpt lat="46.7831839" lon="10.5412988"><ele>1495.0</ele><time>2026-03-24T14:36:17.373Z</time></trkpt><trkpt lat="46.7832711" lon="10.5413944"><ele>1495.0</ele><time>2026-03-24T14:36:19.373Z</time></trkpt><trkpt lat="46.7833576" lon="10.5414904"><ele>1495.0</ele><time>2026-03-24T14:36:21.374Z</time></trkpt><trkpt lat="46.7834432" lon="10.5415833"><ele>1495.0</ele><time>2026-03-24T14:36:23.36Z</time></trkpt><trkpt lat="46.7835307" lon="10.5416699"><ele>1495.0</ele><time>2026-03-24T14:36:25.381Z</time></trkpt><trkpt lat="46.7836165" lon="10.5417599"><ele>1495.0</ele><time>2026-03-24T14:36:27.384Z</time></trkpt><trkpt lat="46.7837018" lon="10.5418516"><ele>1495.0</ele><time>2026-03-24T14:36:29.371Z</time></trkpt><trkpt lat="46.7837824" lon="10.5419433"><ele>1495.0</ele><time>2026-03-24T14:36:31.373Z</time></trkpt><trkpt lat="46.7838652" lon="10.5420396"><ele>1495.0</ele><time>2026-03-24T14:36:33.392Z</time></trkpt><trkpt lat="46.783956" lon="10.54213"><ele>1495.0</ele><time>2026-03-24T14:36:35.371Z</time></trkpt><trkpt lat="46.7840503" lon="10.542221"><ele>1495.0</ele><time>2026-03-24T14:36:37.372Z</time></trkpt><trkpt lat="46.7841488" lon="10.5422937"><ele>1497.2</ele><time>2026-03-24T14:36:39.373Z</time></trkpt><trkpt lat="46.7842519" lon="10.5423565"><ele>1499.4</ele><time>2026-03-24T14:36:41.36Z</time></trkpt><trkpt lat="46.7843536" lon="10.5423997"><ele>1501.6</ele><time>2026-03-24T14:36:43.372Z</time></trkpt><trkpt lat="46.7844558" lon="10.5424245"><ele>1503.8</ele><time>2026-03-24T14:36:45.371Z</time></trkpt><trkpt lat="46.784569" lon="10.5424292"><ele>1506.0</ele><time>2026-03-24T14:36:47.353Z</time></trkpt><trkpt lat="46.7846918" lon="10.5424203"><ele>1507.1666666666667</ele><time>2026-03-24T14:36:49.36Z</time></trkpt><trkpt lat="46.7847581" lon="10.5424071"><ele>1508.3333333333333</ele><time>2026-03-24T14:36:50.363Z</time></trkpt><trkpt lat="46.7848211" lon="10.5423983"><ele>1509.5</ele><time>2026-03-24T14:36:51.366Z</time></trkpt><trkpt lat="46.7848842" lon="10.5423876"><ele>1510.6666666666665</ele><time>2026-03-24T14:36:52.376Z</time></trkpt><trkpt lat="46.7849483" lon="10.5423641"><ele>1511.8333333333333</ele><time>2026-03-24T14:36:53.36Z</time></trkpt><trkpt lat="46.7850548" lon="10.5423225"><ele>1513.0</ele><time>2026-03-24T14:36:55.351Z</time></trkpt><trkpt lat="46.7851622" lon="10.5422766"><ele>1513.1666666666665</ele><time>2026-03-24T14:36:57.365Z</time></trkpt><trkpt lat="46.7852793" lon="10.5422368"><ele>1513.3333333333333</ele><time>2026-03-24T14:36:59.369Z</time></trkpt><trkpt lat="46.7854005" lon="10.5422028"><ele>1513.5</ele><time>2026-03-24T14:37:01.368Z</time></trkpt><trkpt lat="46.7854631" lon="10.5421818"><ele>1513.6666666666667</ele><time>2026-03-24T14:37:02.372Z</time></trkpt><trkpt lat="46.785526" lon="10.542163"><ele>1513.8333333333335</ele><time>2026-03-24T14:37:03.359Z</time></trkpt><trkpt lat="46.785589" lon="10.5421424"><ele>1514.0</ele><time>2026-03-24T14:37:04.389Z</time></trkpt><trkpt lat="46.7856524" lon="10.5421227"><ele>1514.0</ele><time>2026-03-24T14:37:05.367Z</time></trkpt><trkpt lat="46.7857173" lon="10.5421047"><ele>1514.0</ele><time>2026-03-24T14:37:06.366Z</time></trkpt><trkpt lat="46.7857842" lon="10.5420858"><ele>1514.0</ele><time>2026-03-24T14:37:07.37Z</time></trkpt><trkpt lat="46.7858493" lon="10.5420668"><ele>1514.0</ele><time>2026-03-24T14:37:08.374Z</time></trkpt><trkpt lat="46.785916" lon="10.5420456"><ele>1514.0</ele><time>2026-03-24T14:37:09.372Z</time></trkpt><trkpt lat="46.785983" lon="10.5420287"><ele>1514.0</ele><time>2026-03-24T14:37:10.371Z</time></trkpt><trkpt lat="46.7860496" lon="10.5420094"><ele>1514.0</ele><time>2026-03-24T14:37:11.362Z</time></trkpt><trkpt lat="46.7861169" lon="10.5419902"><ele>1511.0</ele><time>2026-03-24T14:37:12.367Z</time></trkpt><trkpt lat="46.7861819" lon="10.5419718"><ele>1508.0</ele><time>2026-03-24T14:37:13.378Z</time></trkpt><trkpt lat="46.7862942" lon="10.5419387"><ele>1505.0</ele><time>2026-03-24T14:37:15.367Z</time></trkpt><trkpt lat="46.7864092" lon="10.541907"><ele>1502.0</ele><time>2026-03-24T14:37:17.365Z</time></trkpt><trkpt lat="46.7864715" lon="10.5418777"><ele>1499.0</ele><time>2026-03-24T14:37:18.383Z</time></trkpt><trkpt lat="46.7865395" lon="10.5418324"><ele>1496.0</ele><time>2026-03-24T14:37:19.37Z</time></trkpt><trkpt lat="46.7865979" lon="10.5417887"><ele>1496.0</ele><time>2026-03-24T14:37:20.37Z</time></trkpt><trkpt lat="46.7866553" lon="10.5417415"><ele>1496.0</ele><time>2026-03-24T14:37:21.369Z</time></trkpt><trkpt lat="46.786718" lon="10.5416998"><ele>1496.0</ele><time>2026-03-24T14:37:22.371Z</time></trkpt><trkpt lat="46.7867805" lon="10.5416607"><ele>1496.0</ele><time>2026-03-24T14:37:23.37Z</time></trkpt><trkpt lat="46.7868447" lon="10.541619"><ele>1496.0</ele><time>2026-03-24T14:37:24.368Z</time></trkpt><trkpt lat="46.7869094" lon="10.5415693"><ele>1496.0</ele><time>2026-03-24T14:37:25.377Z</time></trkpt><trkpt lat="46.7870246" lon="10.5415093"><ele>1498.0</ele><time>2026-03-24T14:37:27.382Z</time></trkpt><trkpt lat="46.7871434" lon="10.5414416"><ele>1500.0</ele><time>2026-03-24T14:37:29.363Z</time></trkpt><trkpt lat="46.7872117" lon="10.5413903"><ele>1502.0</ele><time>2026-03-24T14:37:30.37Z</time></trkpt><trkpt lat="46.7873058" lon="10.5412825"><ele>1504.0</ele><time>2026-03-24T14:37:31.368Z</time></trkpt><trkpt lat="46.7875201" lon="10.5414955"><ele>1504.0</ele><time>2026-03-24T14:37:35.377Z</time></trkpt><trkpt lat="46.787614" lon="10.541507"><ele>1504.0</ele><time>2026-03-24T14:37:37.371Z</time></trkpt><trkpt lat="46.7877591" lon="10.5415004"><ele>1504.0</ele><time>2026-03-24T14:37:39.386Z</time></trkpt><trkpt lat="46.7878676" lon="10.5414809"><ele>1504.0</ele><time>2026-03-24T14:37:41.369Z</time></trkpt><trkpt lat="46.7879667" lon="10.5414498"><ele>1505.3333333333333</ele><time>2026-03-24T14:37:43.372Z</time></trkpt><trkpt lat="46.7880428" lon="10.5414289"><ele>1506.6666666666665</ele><time>2026-03-24T14:37:44.368Z</time></trkpt><trkpt lat="46.7881242" lon="10.5414055"><ele>1508.0</ele><time>2026-03-24T14:37:45.377Z</time></trkpt><trkpt lat="46.7882055" lon="10.5413963"><ele>1509.3333333333333</ele><time>2026-03-24T14:37:46.384Z</time></trkpt><trkpt lat="46.7882813" lon="10.5413883"><ele>1510.6666666666667</ele><time>2026-03-24T14:37:47.38Z</time></trkpt><trkpt lat="46.7883552" lon="10.5413739"><ele>1512.0</ele><time>2026-03-24T14:37:48.371Z</time></trkpt><trkpt lat="46.7884659" lon="10.5413496"><ele>1513.5</ele><time>2026-03-24T14:37:50.371Z</time></trkpt><trkpt lat="46.7885786" lon="10.5413361"><ele>1515.0</ele><time>2026-03-24T14:37:52.372Z</time></trkpt><trkpt lat="46.7886949" lon="10.5413234"><ele>1516.5</ele><time>2026-03-24T14:37:54.375Z</time></trkpt><trkpt lat="46.7888114" lon="10.5413044"><ele>1518.0</ele><time>2026-03-24T14:37:56.38Z</time></trkpt><trkpt lat="46.7889249" lon="10.5412869"><ele>1518.0</ele><time>2026-03-24T14:37:58.374Z</time></trkpt><trkpt lat="46.7890328" lon="10.541276"><ele>1518.0</ele><time>2026-03-24T14:38:00.368Z</time></trkpt><trkpt lat="46.7891313" lon="10.5412652"><ele>1518.0</ele><time>2026-03-24T14:38:02.371Z</time></trkpt><trkpt lat="46.789238" lon="10.541232"><ele>1518.0</ele><time>2026-03-24T14:38:04.364Z</time></trkpt><trkpt lat="46.7893363" lon="10.5411718"><ele>1518.0</ele><time>2026-03-24T14:38:06.364Z</time></trkpt><trkpt lat="46.789396" lon="10.5411293"><ele>1509.3333333333333</ele><time>2026-03-24T14:38:07.362Z</time></trkpt><trkpt lat="46.789499" lon="10.54108"><ele>1500.6666666666665</ele><time>2026-03-24T14:38:09.362Z</time></trkpt><trkpt lat="46.7895596" lon="10.5410495"><ele>1492.0</ele><time>2026-03-24T14:38:10.369Z</time></trkpt><trkpt lat="46.7898624" lon="10.541102"><ele>1492.0</ele><time>2026-03-24T14:38:14.369Z</time></trkpt><trkpt lat="46.7899298" lon="10.5411623"><ele>1492.0</ele><time>2026-03-24T14:38:15.377Z</time></trkpt><trkpt lat="46.7900361" lon="10.541201"><ele>1492.0</ele><time>2026-03-24T14:38:17.366Z</time></trkpt><trkpt lat="46.7901399" lon="10.5412326"><ele>1492.0</ele><time>2026-03-24T14:38:19.375Z</time></trkpt><trkpt lat="46.7902224" lon="10.541258"><ele>1492.0</ele><time>2026-03-24T14:38:20.367Z</time></trkpt><trkpt lat="46.7902971" lon="10.5412905"><ele>1495.1999999999998</ele><time>2026-03-24T14:38:21.367Z</time></trkpt><trkpt lat="46.7903705" lon="10.5413338"><ele>1498.4</ele><time>2026-03-24T14:38:22.368Z</time></trkpt><trkpt lat="46.7904446" lon="10.5413934"><ele>1501.6</ele><time>2026-03-24T14:38:23.364Z</time></trkpt><trkpt lat="46.7905616" lon="10.5414651"><ele>1504.8000000000002</ele><time>2026-03-24T14:38:25.368Z</time></trkpt><trkpt lat="46.7906555" lon="10.5415023"><ele>1508.0</ele><time>2026-03-24T14:38:27.375Z</time></trkpt><trkpt lat="46.7907752" lon="10.5415355"><ele>1508.0</ele><time>2026-03-24T14:38:29.369Z</time></trkpt><trkpt lat="46.7908449" lon="10.5415524"><ele>1508.0</ele><time>2026-03-24T14:38:30.375Z</time></trkpt><trkpt lat="46.7909177" lon="10.5415751"><ele>1508.0</ele><time>2026-03-24T14:38:31.375Z</time></trkpt><trkpt lat="46.7909824" lon="10.5415864"><ele>1508.0</ele><time>2026-03-24T14:38:32.362Z</time></trkpt><trkpt lat="46.7910876" lon="10.5416003"><ele>1508.0</ele><time>2026-03-24T14:38:34.383Z</time></trkpt><trkpt lat="46.7911542" lon="10.5416068"><ele>1508.0</ele><time>2026-03-24T14:38:36.376Z</time></trkpt><trkpt lat="46.7912341" lon="10.5415971"><ele>1508.5</ele><time>2026-03-24T14:38:38.372Z</time></trkpt><trkpt lat="46.7913494" lon="10.5415948"><ele>1509.0</ele><time>2026-03-24T14:38:40.378Z</time></trkpt><trkpt lat="46.7914316" lon="10.5415979"><ele>1509.5</ele><time>2026-03-24T14:38:41.369Z</time></trkpt><trkpt lat="46.7915101" lon="10.5415904"><ele>1510.0</ele><time>2026-03-24T14:38:42.368Z</time></trkpt><trkpt lat="46.7915865" lon="10.5415763"><ele>1510.5</ele><time>2026-03-24T14:38:43.374Z</time></trkpt><trkpt lat="46.7916566" lon="10.541565"><ele>1511.0</ele><time>2026-03-24T14:38:44.371Z</time></trkpt><trkpt lat="46.7917257" lon="10.5415533"><ele>1511.0</ele><time>2026-03-24T14:38:45.378Z</time></trkpt><trkpt lat="46.7917895" lon="10.5415454"><ele>1511.0</ele><time>2026-03-24T14:38:46.373Z</time></trkpt><trkpt lat="46.7918519" lon="10.5415329"><ele>1511.0</ele><time>2026-03-24T14:38:47.353Z</time></trkpt><trkpt lat="46.7919707" lon="10.5415169"><ele>1511.0</ele><time>2026-03-24T14:38:49.384Z</time></trkpt><trkpt lat="46.7920856" lon="10.541502"><ele>1511.0</ele><time>2026-03-24T14:38:51.382Z</time></trkpt><trkpt lat="46.7922026" lon="10.5414891"><ele>1511.0</ele><time>2026-03-24T14:38:53.365Z</time></trkpt><trkpt lat="46.7923268" lon="10.5415066"><ele>1511.0</ele><time>2026-03-24T14:38:55.382Z</time></trkpt><trkpt lat="46.792389" lon="10.5415236"><ele>1511.0</ele><time>2026-03-24T14:38:56.369Z</time></trkpt><trkpt lat="46.7925113" lon="10.5415654"><ele>1511.0</ele><time>2026-03-24T14:38:58.379Z</time></trkpt><trkpt lat="46.7926286" lon="10.5416098"><ele>1511.0</ele><time>2026-03-24T14:39:00.387Z</time></trkpt><trkpt lat="46.7927341" lon="10.5416491"><ele>1511.0</ele><time>2026-03-24T14:39:02.374Z</time></trkpt><trkpt lat="46.792864" lon="10.5416836"><ele>1511.0</ele><time>2026-03-24T14:39:04.383Z</time></trkpt><trkpt lat="46.7929335" lon="10.5416942"><ele>1511.0</ele><time>2026-03-24T14:39:05.377Z</time></trkpt><trkpt lat="46.7930034" lon="10.5417041"><ele>1511.0</ele><time>2026-03-24T14:39:06.383Z</time></trkpt><trkpt lat="46.7930694" lon="10.5417067"><ele>1511.0</ele><time>2026-03-24T14:39:07.375Z</time></trkpt><trkpt lat="46.7931938" lon="10.5416922"><ele>1511.0</ele><time>2026-03-24T14:39:09.377Z</time></trkpt><trkpt lat="46.793302" lon="10.5416644"><ele>1511.0</ele><time>2026-03-24T14:39:11.376Z</time></trkpt><trkpt lat="46.7934171" lon="10.5416265"><ele>1511.0</ele><time>2026-03-24T14:39:13.374Z</time></trkpt><trkpt lat="46.793536" lon="10.5415864"><ele>1511.0</ele><time>2026-03-24T14:39:15.385Z</time></trkpt><trkpt lat="46.7936547" lon="10.541548"><ele>1510.25</ele><time>2026-03-24T14:39:17.38Z</time></trkpt><trkpt lat="46.7937688" lon="10.5415087"><ele>1509.5</ele><time>2026-03-24T14:39:19.376Z</time></trkpt><trkpt lat="46.793886" lon="10.5414673"><ele>1508.75</ele><time>2026-03-24T14:39:21.376Z</time></trkpt><trkpt lat="46.7940029" lon="10.5414346"><ele>1508.0</ele><time>2026-03-24T14:39:23.372Z</time></trkpt><trkpt lat="46.7941203" lon="10.541412"><ele>1508.0</ele><time>2026-03-24T14:39:25.381Z</time></trkpt><trkpt lat="46.7942404" lon="10.5414269"><ele>1508.0</ele><time>2026-03-24T14:39:27.379Z</time></trkpt><trkpt lat="46.7943594" lon="10.5414628"><ele>1508.0</ele><time>2026-03-24T14:39:29.386Z</time></trkpt><trkpt lat="46.7944228" lon="10.5414851"><ele>1508.0</ele><time>2026-03-24T14:39:30.378Z</time></trkpt><trkpt lat="46.794545" lon="10.5415266"><ele>1508.0</ele><time>2026-03-24T14:39:32.379Z</time></trkpt><trkpt lat="46.7946072" lon="10.5415483"><ele>1508.0</ele><time>2026-03-24T14:39:33.377Z</time></trkpt><trkpt lat="46.7947273" lon="10.5415892"><ele>1508.0</ele><time>2026-03-24T14:39:35.374Z</time></trkpt><trkpt lat="46.7948465" lon="10.5416279"><ele>1508.0</ele><time>2026-03-24T14:39:37.381Z</time></trkpt><trkpt lat="46.7949677" lon="10.5416712"><ele>1508.0</ele><time>2026-03-24T14:39:39.369Z</time></trkpt><trkpt lat="46.7950294" lon="10.5416934"><ele>1508.0</ele><time>2026-03-24T14:39:40.369Z</time></trkpt><trkpt lat="46.7950906" lon="10.5417164"><ele>1508.0</ele><time>2026-03-24T14:39:41.373Z</time></trkpt><trkpt lat="46.7951567" lon="10.5417399"><ele>1508.0</ele><time>2026-03-24T14:39:42.374Z</time></trkpt><trkpt lat="46.795221" lon="10.5417634"><ele>1508.0</ele><time>2026-03-24T14:39:43.378Z</time></trkpt><trkpt lat="46.795284" lon="10.5417867"><ele>1508.0</ele><time>2026-03-24T14:39:44.375Z</time></trkpt><trkpt lat="46.7954029" lon="10.541831"><ele>1508.0</ele><time>2026-03-24T14:39:46.367Z</time></trkpt><trkpt lat="46.7955221" lon="10.5418751"><ele>1508.0</ele><time>2026-03-24T14:39:48.366Z</time></trkpt><trkpt lat="46.795638" lon="10.5419219"><ele>1506.5</ele><time>2026-03-24T14:39:50.377Z</time></trkpt><trkpt lat="46.7957505" lon="10.5419658"><ele>1505.0</ele><time>2026-03-24T14:39:52.372Z</time></trkpt><trkpt lat="46.7958685" lon="10.5420091"><ele>1503.5</ele><time>2026-03-24T14:39:54.371Z</time></trkpt><trkpt lat="46.7959893" lon="10.5420327"><ele>1502.0</ele><time>2026-03-24T14:39:56.369Z</time></trkpt><trkpt lat="46.7961112" lon="10.5420483"><ele>1503.0</ele><time>2026-03-24T14:39:58.359Z</time></trkpt><trkpt lat="46.7962311" lon="10.5420505"><ele>1504.0</ele><time>2026-03-24T14:40:00.36Z</time></trkpt><trkpt lat="46.7963518" lon="10.5420409"><ele>1505.0</ele><time>2026-03-24T14:40:02.373Z</time></trkpt><trkpt lat="46.7964727" lon="10.5420168"><ele>1506.0</ele><time>2026-03-24T14:40:04.377Z</time></trkpt><trkpt lat="46.7965923" lon="10.5419836"><ele>1506.0</ele><time>2026-03-24T14:40:06.377Z</time></trkpt><trkpt lat="46.7967124" lon="10.5419484"><ele>1506.0</ele><time>2026-03-24T14:40:08.371Z</time></trkpt><trkpt lat="46.796832" lon="10.5419099"><ele>1506.0</ele><time>2026-03-24T14:40:10.364Z</time></trkpt><trkpt lat="46.7969503" lon="10.5418668"><ele>1506.0</ele><time>2026-03-24T14:40:12.37Z</time></trkpt><trkpt lat="46.7970679" lon="10.5418237"><ele>1506.75</ele><time>2026-03-24T14:40:14.365Z</time></trkpt><trkpt lat="46.7971856" lon="10.5417826"><ele>1507.5</ele><time>2026-03-24T14:40:16.363Z</time></trkpt><trkpt lat="46.7973024" lon="10.5417432"><ele>1508.25</ele><time>2026-03-24T14:40:18.383Z</time></trkpt><trkpt lat="46.7974167" lon="10.5417001"><ele>1509.0</ele><time>2026-03-24T14:40:20.369Z</time></trkpt><trkpt lat="46.7975323" lon="10.5416596"><ele>1509.0</ele><time>2026-03-24T14:40:22.38Z</time></trkpt><trkpt lat="46.7976464" lon="10.5416205"><ele>1509.0</ele><time>2026-03-24T14:40:24.375Z</time></trkpt><trkpt lat="46.7977583" lon="10.5415815"><ele>1509.0</ele><time>2026-03-24T14:40:26.352Z</time></trkpt><trkpt lat="46.7978696" lon="10.5415433"><ele>1509.0</ele><time>2026-03-24T14:40:28.375Z</time></trkpt><trkpt lat="46.7979812" lon="10.5415031"><ele>1513.0</ele><time>2026-03-24T14:40:30.375Z</time></trkpt><trkpt lat="46.7980954" lon="10.541469"><ele>1517.0</ele><time>2026-03-24T14:40:32.369Z</time></trkpt><trkpt lat="46.7982087" lon="10.5414305"><ele>1521.0</ele><time>2026-03-24T14:40:34.374Z</time></trkpt><trkpt lat="46.7983228" lon="10.5413945"><ele>1525.0</ele><time>2026-03-24T14:40:36.365Z</time></trkpt><trkpt lat="46.7984355" lon="10.5413563"><ele>1520.25</ele><time>2026-03-24T14:40:38.376Z</time></trkpt><trkpt lat="46.7985473" lon="10.5413181"><ele>1515.5</ele><time>2026-03-24T14:40:40.373Z</time></trkpt><trkpt lat="46.7986597" lon="10.5412788"><ele>1510.75</ele><time>2026-03-24T14:40:42.379Z</time></trkpt><trkpt lat="46.7987732" lon="10.5412359"><ele>1506.0</ele><time>2026-03-24T14:40:44.37Z</time></trkpt><trkpt lat="46.7988852" lon="10.5411962"><ele>1506.0</ele><time>2026-03-24T14:40:46.375Z</time></trkpt><trkpt lat="46.7989953" lon="10.5411484"><ele>1506.0</ele><time>2026-03-24T14:40:48.376Z</time></trkpt><trkpt lat="46.7991056" lon="10.5410927"><ele>1506.0</ele><time>2026-03-24T14:40:50.371Z</time></trkpt><trkpt lat="46.7992145" lon="10.5410289"><ele>1506.0</ele><time>2026-03-24T14:40:52.363Z</time></trkpt><trkpt lat="46.7993248" lon="10.5409625"><ele>1510.5</ele><time>2026-03-24T14:40:54.371Z</time></trkpt><trkpt lat="46.7994322" lon="10.5408877"><ele>1515.0</ele><time>2026-03-24T14:40:56.378Z</time></trkpt><trkpt lat="46.7995416" lon="10.5408157"><ele>1519.5</ele><time>2026-03-24T14:40:58.366Z</time></trkpt><trkpt lat="46.7996508" lon="10.5407413"><ele>1524.0</ele><time>2026-03-24T14:41:00.377Z</time></trkpt><trkpt lat="46.7997562" lon="10.5406682"><ele>1524.0</ele><time>2026-03-24T14:41:02.372Z</time></trkpt><trkpt lat="46.7998629" lon="10.540595"><ele>1524.0</ele><time>2026-03-24T14:41:04.37Z</time></trkpt><trkpt lat="46.799972" lon="10.54052"><ele>1524.0</ele><time>2026-03-24T14:41:06.378Z</time></trkpt><trkpt lat="46.8000842" lon="10.5404457"><ele>1524.0</ele><time>2026-03-24T14:41:08.375Z</time></trkpt><trkpt lat="46.800196" lon="10.5403685"><ele>1521.25</ele><time>2026-03-24T14:41:10.377Z</time></trkpt><trkpt lat="46.8003061" lon="10.5402954"><ele>1518.5</ele><time>2026-03-24T14:41:12.369Z</time></trkpt><trkpt lat="46.8004155" lon="10.5402248"><ele>1515.75</ele><time>2026-03-24T14:41:14.386Z</time></trkpt><trkpt lat="46.800527" lon="10.5401609"><ele>1513.0</ele><time>2026-03-24T14:41:16.376Z</time></trkpt><trkpt lat="46.8006391" lon="10.5400997"><ele>1513.0</ele><time>2026-03-24T14:41:18.355Z</time></trkpt><trkpt lat="46.8007517" lon="10.5400472"><ele>1513.0</ele><time>2026-03-24T14:41:20.368Z</time></trkpt><trkpt lat="46.8008664" lon="10.5400011"><ele>1513.0</ele><time>2026-03-24T14:41:22.369Z</time></trkpt><trkpt lat="46.8009858" lon="10.5399699"><ele>1513.0</ele><time>2026-03-24T14:41:24.365Z</time></trkpt><trkpt lat="46.8011091" lon="10.5399389"><ele>1513.75</ele><time>2026-03-24T14:41:26.362Z</time></trkpt><trkpt lat="46.8011714" lon="10.5399237"><ele>1514.5</ele><time>2026-03-24T14:41:27.368Z</time></trkpt><trkpt lat="46.8012336" lon="10.5399069"><ele>1515.25</ele><time>2026-03-24T14:41:28.37Z</time></trkpt><trkpt lat="46.8012966" lon="10.5398896"><ele>1516.0</ele><time>2026-03-24T14:41:29.376Z</time></trkpt><trkpt lat="46.8013598" lon="10.539876"><ele>1516.75</ele><time>2026-03-24T14:41:30.382Z</time></trkpt><trkpt lat="46.8014226" lon="10.5398605"><ele>1517.5</ele><time>2026-03-24T14:41:31.373Z</time></trkpt><trkpt lat="46.8014857" lon="10.5398459"><ele>1518.25</ele><time>2026-03-24T14:41:32.368Z</time></trkpt><trkpt lat="46.8015489" lon="10.5398295"><ele>1519.0</ele><time>2026-03-24T14:41:33.371Z</time></trkpt><trkpt lat="46.801612" lon="10.5398137"><ele>1519.0</ele><time>2026-03-24T14:41:34.36Z</time></trkpt><trkpt lat="46.8016746" lon="10.5397986"><ele>1519.0</ele><time>2026-03-24T14:41:35.367Z</time></trkpt><trkpt lat="46.8017989" lon="10.53977"><ele>1519.0</ele><time>2026-03-24T14:41:37.377Z</time></trkpt><trkpt lat="46.8019201" lon="10.5397406"><ele>1519.0</ele><time>2026-03-24T14:41:39.365Z</time></trkpt><trkpt lat="46.8020415" lon="10.5397121"><ele>1519.0</ele><time>2026-03-24T14:41:41.361Z</time></trkpt><trkpt lat="46.8021638" lon="10.5396809"><ele>1515.4</ele><time>2026-03-24T14:41:43.367Z</time></trkpt><trkpt lat="46.8022864" lon="10.5396456"><ele>1511.8000000000002</ele><time>2026-03-24T14:41:45.372Z</time></trkpt><trkpt lat="46.8024087" lon="10.5396167"><ele>1508.1999999999998</ele><time>2026-03-24T14:41:47.373Z</time></trkpt><trkpt lat="46.8024714" lon="10.5396028"><ele>1504.6</ele><time>2026-03-24T14:41:48.37Z</time></trkpt><trkpt lat="46.8025941" lon="10.5395759"><ele>1501.0</ele><time>2026-03-24T14:41:50.374Z</time></trkpt><trkpt lat="46.8027152" lon="10.5395492"><ele>1501.0</ele><time>2026-03-24T14:41:52.364Z</time></trkpt><trkpt lat="46.8028344" lon="10.5395261"><ele>1501.0</ele><time>2026-03-24T14:41:54.377Z</time></trkpt><trkpt lat="46.8029597" lon="10.5395238"><ele>1501.0</ele><time>2026-03-24T14:41:56.378Z</time></trkpt><trkpt lat="46.8030255" lon="10.5395265"><ele>1501.0</ele><time>2026-03-24T14:41:57.372Z</time></trkpt><trkpt lat="46.8030893" lon="10.5395417"><ele>1501.0</ele><time>2026-03-24T14:41:58.375Z</time></trkpt><trkpt lat="46.8031527" lon="10.5395638"><ele>1501.0</ele><time>2026-03-24T14:41:59.372Z</time></trkpt><trkpt lat="46.8032723" lon="10.5396257"><ele>1500.9999999999998</ele><time>2026-03-24T14:42:01.376Z</time></trkpt><trkpt lat="46.803332" lon="10.5396641"><ele>1501.0</ele><time>2026-03-24T14:42:02.369Z</time></trkpt><trkpt lat="46.8033911" lon="10.5397106"><ele>1501.0</ele><time>2026-03-24T14:42:03.376Z</time></trkpt><trkpt lat="46.8034462" lon="10.5397643"><ele>1501.0</ele><time>2026-03-24T14:42:04.372Z</time></trkpt><trkpt lat="46.8035012" lon="10.5398247"><ele>1501.0</ele><time>2026-03-24T14:42:05.374Z</time></trkpt><trkpt lat="46.8035544" lon="10.5398947"><ele>1500.9999999999998</ele><time>2026-03-24T14:42:06.375Z</time></trkpt><trkpt lat="46.803615" lon="10.5399738"><ele>1501.0</ele><time>2026-03-24T14:42:07.37Z</time></trkpt><trkpt lat="46.8036686" lon="10.5400564"><ele>1501.0</ele><time>2026-03-24T14:42:08.377Z</time></trkpt><trkpt lat="46.803718" lon="10.5401397"><ele>1501.0</ele><time>2026-03-24T14:42:09.375Z</time></trkpt><trkpt lat="46.8037628" lon="10.5402182"><ele>1501.0</ele><time>2026-03-24T14:42:10.371Z</time></trkpt><trkpt lat="46.8038061" lon="10.5402906"><ele>1501.0</ele><time>2026-03-24T14:42:11.373Z</time></trkpt><trkpt lat="46.8038485" lon="10.5403594"><ele>1501.0</ele><time>2026-03-24T14:42:12.375Z</time></trkpt><trkpt lat="46.8039332" lon="10.5404808"><ele>1501.0</ele><time>2026-03-24T14:42:14.371Z</time></trkpt><trkpt lat="46.8040188" lon="10.5405941"><ele>1501.0</ele><time>2026-03-24T14:42:16.372Z</time></trkpt><trkpt lat="46.8041135" lon="10.5406957"><ele>1501.0</ele><time>2026-03-24T14:42:18.369Z</time></trkpt><trkpt lat="46.804215" lon="10.5407836"><ele>1501.0</ele><time>2026-03-24T14:42:20.368Z</time></trkpt><trkpt lat="46.804325" lon="10.5408536"><ele>1501.0</ele><time>2026-03-24T14:42:22.367Z</time></trkpt><trkpt lat="46.8044446" lon="10.5409116"><ele>1501.0</ele><time>2026-03-24T14:42:24.364Z</time></trkpt><trkpt lat="46.8045058" lon="10.5409425"><ele>1501.0</ele><time>2026-03-24T14:42:25.372Z</time></trkpt><trkpt lat="46.8046249" lon="10.5410005"><ele>1501.0</ele><time>2026-03-24T14:42:27.379Z</time></trkpt><trkpt lat="46.8046848" lon="10.5410316"><ele>1501.0</ele><time>2026-03-24T14:42:28.365Z</time></trkpt><trkpt lat="46.8047466" lon="10.541061"><ele>1501.0</ele><time>2026-03-24T14:42:29.375Z</time></trkpt><trkpt lat="46.804812" lon="10.5411003"><ele>1501.0</ele><time>2026-03-24T14:42:30.38Z</time></trkpt><trkpt lat="46.8048744" lon="10.5411303"><ele>1501.0</ele><time>2026-03-24T14:42:31.368Z</time></trkpt><trkpt lat="46.8049359" lon="10.5411586"><ele>1501.0</ele><time>2026-03-24T14:42:32.371Z</time></trkpt><trkpt lat="46.8049956" lon="10.5411886"><ele>1501.0</ele><time>2026-03-24T14:42:33.383Z</time></trkpt><trkpt lat="46.805107" lon="10.5412505"><ele>1501.0</ele><time>2026-03-24T14:42:35.38Z</time></trkpt><trkpt lat="46.8052246" lon="10.5413163"><ele>1501.0</ele><time>2026-03-24T14:42:37.377Z</time></trkpt><trkpt lat="46.8053301" lon="10.5413772"><ele>1500.5</ele><time>2026-03-24T14:42:39.372Z</time></trkpt><trkpt lat="46.8054375" lon="10.5414329"><ele>1500.0</ele><time>2026-03-24T14:42:41.375Z</time></trkpt><trkpt lat="46.8055449" lon="10.5414889"><ele>1499.5</ele><time>2026-03-24T14:42:43.373Z</time></trkpt><trkpt lat="46.8056563" lon="10.5415439"><ele>1499.0</ele><time>2026-03-24T14:42:45.371Z</time></trkpt><trkpt lat="46.8057685" lon="10.5415992"><ele>1499.0</ele><time>2026-03-24T14:42:47.375Z</time></trkpt><trkpt lat="46.8058776" lon="10.5416496"><ele>1499.0</ele><time>2026-03-24T14:42:49.369Z</time></trkpt><trkpt lat="46.8059836" lon="10.5416949"><ele>1499.0</ele><time>2026-03-24T14:42:51.375Z</time></trkpt><trkpt lat="46.8060991" lon="10.5417443"><ele>1499.0</ele><time>2026-03-24T14:42:53.37Z</time></trkpt><trkpt lat="46.806211" lon="10.5417808"><ele>1499.25</ele><time>2026-03-24T14:42:55.379Z</time></trkpt><trkpt lat="46.8063231" lon="10.5418016"><ele>1499.5</ele><time>2026-03-24T14:42:57.374Z</time></trkpt><trkpt lat="46.8064403" lon="10.5418111"><ele>1499.75</ele><time>2026-03-24T14:42:59.374Z</time></trkpt><trkpt lat="46.8065619" lon="10.5418065"><ele>1500.0</ele><time>2026-03-24T14:43:01.372Z</time></trkpt><trkpt lat="46.8066846" lon="10.5417971"><ele>1500.0</ele><time>2026-03-24T14:43:03.382Z</time></trkpt><trkpt lat="46.8068043" lon="10.5418395"><ele>1500.0</ele><time>2026-03-24T14:43:05.38Z</time></trkpt><trkpt lat="46.8068551" lon="10.5418951"><ele>1500.0</ele><time>2026-03-24T14:43:06.381Z</time></trkpt><trkpt lat="46.8068976" lon="10.5419665"><ele>1500.0</ele><time>2026-03-24T14:43:07.376Z</time></trkpt><trkpt lat="46.8069302" lon="10.5420515"><ele>1500.0</ele><time>2026-03-24T14:43:08.384Z</time></trkpt><trkpt lat="46.8069563" lon="10.5421405"><ele>1500.0</ele><time>2026-03-24T14:43:09.373Z</time></trkpt><trkpt lat="46.8069799" lon="10.542229"><ele>1500.0</ele><time>2026-03-24T14:43:10.367Z</time></trkpt><trkpt lat="46.8070051" lon="10.5423167"><ele>1500.857142857143</ele><time>2026-03-24T14:43:11.372Z</time></trkpt><trkpt lat="46.8070291" lon="10.5424053"><ele>1501.7142857142856</ele><time>2026-03-24T14:43:12.376Z</time></trkpt><trkpt lat="46.807053" lon="10.5424938"><ele>1502.5714285714284</ele><time>2026-03-24T14:43:13.374Z</time></trkpt><trkpt lat="46.8070764" lon="10.542583"><ele>1503.4285714285716</ele><time>2026-03-24T14:43:14.369Z</time></trkpt><trkpt lat="46.8070999" lon="10.5426729"><ele>1504.2857142857142</ele><time>2026-03-24T14:43:15.375Z</time></trkpt><trkpt lat="46.8071232" lon="10.5427635"><ele>1505.142857142857</ele><time>2026-03-24T14:43:16.372Z</time></trkpt><trkpt lat="46.8071446" lon="10.5428558"><ele>1506.0</ele><time>2026-03-24T14:43:17.375Z</time></trkpt><trkpt lat="46.8071611" lon="10.54295"><ele>1506.0</ele><time>2026-03-24T14:43:18.377Z</time></trkpt><trkpt lat="46.8071729" lon="10.5430454"><ele>1506.0</ele><time>2026-03-24T14:43:19.381Z</time></trkpt><trkpt lat="46.8071783" lon="10.5431438"><ele>1506.0</ele><time>2026-03-24T14:43:20.388Z</time></trkpt><trkpt lat="46.8071763" lon="10.5432417"><ele>1506.0</ele><time>2026-03-24T14:43:21.378Z</time></trkpt><trkpt lat="46.8071687" lon="10.5433399"><ele>1506.0</ele><time>2026-03-24T14:43:22.371Z</time></trkpt><trkpt lat="46.8071569" lon="10.5434357"><ele>1506.0</ele><time>2026-03-24T14:43:23.38Z</time></trkpt><trkpt lat="46.8071459" lon="10.5435301"><ele>1506.0</ele><time>2026-03-24T14:43:24.382Z</time></trkpt><trkpt lat="46.8071374" lon="10.5436251"><ele>1506.0</ele><time>2026-03-24T14:43:25.382Z</time></trkpt><trkpt lat="46.8071306" lon="10.5437178"><ele>1506.0</ele><time>2026-03-24T14:43:26.377Z</time></trkpt><trkpt lat="46.8071268" lon="10.5438104"><ele>1506.0</ele><time>2026-03-24T14:43:27.376Z</time></trkpt><trkpt lat="46.8071209" lon="10.5439912"><ele>1506.0</ele><time>2026-03-24T14:43:29.362Z</time></trkpt><trkpt lat="46.807118" lon="10.5441666"><ele>1506.0</ele><time>2026-03-24T14:43:31.376Z</time></trkpt><trkpt lat="46.8071165" lon="10.5443369"><ele>1506.0</ele><time>2026-03-24T14:43:33.375Z</time></trkpt><trkpt lat="46.8071129" lon="10.5445019"><ele>1506.0</ele><time>2026-03-24T14:43:35.379Z</time></trkpt><trkpt lat="46.8071116" lon="10.5446731"><ele>1506.0</ele><time>2026-03-24T14:43:37.371Z</time></trkpt><trkpt lat="46.8071152" lon="10.5447665"><ele>1506.0</ele><time>2026-03-24T14:43:38.366Z</time></trkpt><trkpt lat="46.8071165" lon="10.5449385"><ele>1506.0</ele><time>2026-03-24T14:43:40.374Z</time></trkpt><trkpt lat="46.8071149" lon="10.5451054"><ele>1506.8</ele><time>2026-03-24T14:43:42.379Z</time></trkpt><trkpt lat="46.8071142" lon="10.5452649"><ele>1507.6</ele><time>2026-03-24T14:43:44.377Z</time></trkpt><trkpt lat="46.8071172" lon="10.5454193"><ele>1508.4</ele><time>2026-03-24T14:43:46.381Z</time></trkpt><trkpt lat="46.8071235" lon="10.5455687"><ele>1509.2</ele><time>2026-03-24T14:43:48.376Z</time></trkpt><trkpt lat="46.807129" lon="10.5457162"><ele>1510.0</ele><time>2026-03-24T14:43:50.372Z</time></trkpt><trkpt lat="46.8071388" lon="10.545859"><ele>1512.0</ele><time>2026-03-24T14:43:52.376Z</time></trkpt><trkpt lat="46.8071488" lon="10.5459974"><ele>1514.0</ele><time>2026-03-24T14:43:54.379Z</time></trkpt><trkpt lat="46.8071567" lon="10.5461342"><ele>1516.0</ele><time>2026-03-24T14:43:56.379Z</time></trkpt><trkpt lat="46.8071646" lon="10.5462672"><ele>1518.0</ele><time>2026-03-24T14:43:58.376Z</time></trkpt><trkpt lat="46.807174" lon="10.5463964"><ele>1520.0</ele><time>2026-03-24T14:44:00.378Z</time></trkpt><trkpt lat="46.8071815" lon="10.5465274"><ele>1520.3333333333335</ele><time>2026-03-24T14:44:02.377Z</time></trkpt><trkpt lat="46.8071878" lon="10.5466566"><ele>1520.6666666666667</ele><time>2026-03-24T14:44:04.368Z</time></trkpt><trkpt lat="46.8071957" lon="10.5467816"><ele>1521.0</ele><time>2026-03-24T14:44:06.379Z</time></trkpt><trkpt lat="46.8072031" lon="10.5469077"><ele>1521.3333333333333</ele><time>2026-03-24T14:44:08.386Z</time></trkpt><trkpt lat="46.8072129" lon="10.5470327"><ele>1521.6666666666665</ele><time>2026-03-24T14:44:10.381Z</time></trkpt><trkpt lat="46.8072201" lon="10.5471552"><ele>1522.0</ele><time>2026-03-24T14:44:12.373Z</time></trkpt><trkpt lat="46.807227" lon="10.5472784"><ele>1522.0</ele><time>2026-03-24T14:44:14.378Z</time></trkpt><trkpt lat="46.8072317" lon="10.5474011"><ele>1522.0</ele><time>2026-03-24T14:44:16.386Z</time></trkpt><trkpt lat="46.8072377" lon="10.5475213"><ele>1522.0</ele><time>2026-03-24T14:44:18.366Z</time></trkpt><trkpt lat="46.8072463" lon="10.5476447"><ele>1522.0</ele><time>2026-03-24T14:44:20.387Z</time></trkpt><trkpt lat="46.8072539" lon="10.5477651"><ele>1522.0</ele><time>2026-03-24T14:44:22.386Z</time></trkpt><trkpt lat="46.8072637" lon="10.5478795"><ele>1522.0</ele><time>2026-03-24T14:44:24.378Z</time></trkpt><trkpt lat="46.8072694" lon="10.5479864"><ele>1522.5714285714284</ele><time>2026-03-24T14:44:26.382Z</time></trkpt><trkpt lat="46.8072782" lon="10.5480883"><ele>1523.142857142857</ele><time>2026-03-24T14:44:28.382Z</time></trkpt><trkpt lat="46.8072868" lon="10.5481876"><ele>1523.7142857142858</ele><time>2026-03-24T14:44:30.378Z</time></trkpt><trkpt lat="46.8072971" lon="10.5482829"><ele>1524.2857142857142</ele><time>2026-03-24T14:44:32.376Z</time></trkpt><trkpt lat="46.8073106" lon="10.5483748"><ele>1524.857142857143</ele><time>2026-03-24T14:44:34.372Z</time></trkpt><trkpt lat="46.8073361" lon="10.5484839"><ele>1525.4285714285713</ele><time>2026-03-24T14:44:37.373Z</time></trkpt><trkpt lat="46.80735" lon="10.5485742"><ele>1526.0</ele><time>2026-03-24T14:44:40.371Z</time></trkpt><trkpt lat="46.8073924" lon="10.5484983"><ele>1526.0</ele><time>2026-03-24T14:44:45.365Z</time></trkpt><trkpt lat="46.80736" lon="10.5483954"><ele>1526.0</ele><time>2026-03-24T14:44:47.36Z</time></trkpt><trkpt lat="46.8073242" lon="10.5482876"><ele>1526.0</ele><time>2026-03-24T14:44:49.379Z</time></trkpt><trkpt lat="46.8073038" lon="10.5481474"><ele>1526.0</ele><time>2026-03-24T14:44:51.378Z</time></trkpt><trkpt lat="46.8072866" lon="10.547987"><ele>1526.0</ele><time>2026-03-24T14:44:53.387Z</time></trkpt><trkpt lat="46.8072685" lon="10.5478081"><ele>1525.4285714285713</ele><time>2026-03-24T14:44:55.374Z</time></trkpt><trkpt lat="46.8072596" lon="10.5477118"><ele>1524.857142857143</ele><time>2026-03-24T14:44:56.372Z</time></trkpt><trkpt lat="46.807252" lon="10.5476133"><ele>1524.2857142857142</ele><time>2026-03-24T14:44:57.374Z</time></trkpt><trkpt lat="46.8072434" lon="10.5475127"><ele>1523.7142857142858</ele><time>2026-03-24T14:44:58.381Z</time></trkpt><trkpt lat="46.8072347" lon="10.5474097"><ele>1523.142857142857</ele><time>2026-03-24T14:44:59.383Z</time></trkpt><trkpt lat="46.8072266" lon="10.5473022"><ele>1522.5714285714284</ele><time>2026-03-24T14:45:00.381Z</time></trkpt><trkpt lat="46.8072182" lon="10.5471925"><ele>1522.0</ele><time>2026-03-24T14:45:01.379Z</time></trkpt><trkpt lat="46.8072097" lon="10.5470818"><ele>1522.1666666666665</ele><time>2026-03-24T14:45:02.379Z</time></trkpt><trkpt lat="46.807201" lon="10.5469687"><ele>1522.3333333333333</ele><time>2026-03-24T14:45:03.378Z</time></trkpt><trkpt lat="46.807193" lon="10.5468541"><ele>1522.5</ele><time>2026-03-24T14:45:04.373Z</time></trkpt><trkpt lat="46.8071844" lon="10.5467366"><ele>1522.6666666666667</ele><time>2026-03-24T14:45:05.383Z</time></trkpt><trkpt lat="46.8071768" lon="10.546616"><ele>1522.8333333333335</ele><time>2026-03-24T14:45:06.37Z</time></trkpt><trkpt lat="46.8071693" lon="10.546493"><ele>1523.0</ele><time>2026-03-24T14:45:07.377Z</time></trkpt><trkpt lat="46.8071608" lon="10.546366"><ele>1523.0</ele><time>2026-03-24T14:45:08.371Z</time></trkpt><trkpt lat="46.8071527" lon="10.5462356"><ele>1523.0</ele><time>2026-03-24T14:45:09.382Z</time></trkpt><trkpt lat="46.8071441" lon="10.5461053"><ele>1523.0</ele><time>2026-03-24T14:45:10.373Z</time></trkpt><trkpt lat="46.8071358" lon="10.5459744"><ele>1523.0</ele><time>2026-03-24T14:45:11.369Z</time></trkpt><trkpt lat="46.8071284" lon="10.5458417"><ele>1523.0</ele><time>2026-03-24T14:45:12.371Z</time></trkpt><trkpt lat="46.8071235" lon="10.5457084"><ele>1522.4</ele><time>2026-03-24T14:45:13.374Z</time></trkpt><trkpt lat="46.8071184" lon="10.5455749"><ele>1521.8000000000002</ele><time>2026-03-24T14:45:14.376Z</time></trkpt><trkpt lat="46.8071152" lon="10.5454407"><ele>1521.2</ele><time>2026-03-24T14:45:15.381Z</time></trkpt><trkpt lat="46.8071146" lon="10.5453075"><ele>1520.6</ele><time>2026-03-24T14:45:16.37Z</time></trkpt><trkpt lat="46.8071136" lon="10.5451741"><ele>1520.0</ele><time>2026-03-24T14:45:17.378Z</time></trkpt><trkpt lat="46.8071133" lon="10.5450426"><ele>1518.3333333333335</ele><time>2026-03-24T14:45:18.375Z</time></trkpt><trkpt lat="46.8071149" lon="10.5449093"><ele>1516.6666666666667</ele><time>2026-03-24T14:45:19.382Z</time></trkpt><trkpt lat="46.807116" lon="10.5447783"><ele>1515.0</ele><time>2026-03-24T14:45:20.38Z</time></trkpt><trkpt lat="46.8071161" lon="10.5446476"><ele>1513.3333333333333</ele><time>2026-03-24T14:45:21.377Z</time></trkpt><trkpt lat="46.8071168" lon="10.5445178"><ele>1511.6666666666665</ele><time>2026-03-24T14:45:22.375Z</time></trkpt><trkpt lat="46.8071196" lon="10.54439"><ele>1510.0</ele><time>2026-03-24T14:45:23.375Z</time></trkpt><trkpt lat="46.8071229" lon="10.544265"><ele>1509.3333333333333</ele><time>2026-03-24T14:45:24.378Z</time></trkpt><trkpt lat="46.8071239" lon="10.5441401"><ele>1508.6666666666665</ele><time>2026-03-24T14:45:25.372Z</time></trkpt><trkpt lat="46.8071266" lon="10.5440166"><ele>1508.0</ele><time>2026-03-24T14:45:26.37Z</time></trkpt><trkpt lat="46.8071295" lon="10.5438956"><ele>1507.3333333333333</ele><time>2026-03-24T14:45:27.375Z</time></trkpt><trkpt lat="46.8071368" lon="10.543777"><ele>1506.6666666666667</ele><time>2026-03-24T14:45:28.38Z</time></trkpt><trkpt lat="46.8071479" lon="10.5436607"><ele>1506.0</ele><time>2026-03-24T14:45:29.366Z</time></trkpt><trkpt lat="46.8071607" lon="10.5435461"><ele>1506.0</ele><time>2026-03-24T14:45:30.379Z</time></trkpt><trkpt lat="46.8071707" lon="10.5434311"><ele>1506.0</ele><time>2026-03-24T14:45:31.368Z</time></trkpt><trkpt lat="46.8071818" lon="10.5433195"><ele>1506.0</ele><time>2026-03-24T14:45:32.379Z</time></trkpt><trkpt lat="46.8071905" lon="10.5432119"><ele>1506.0</ele><time>2026-03-24T14:45:33.37Z</time></trkpt><trkpt lat="46.8071932" lon="10.5431078"><ele>1506.0</ele><time>2026-03-24T14:45:34.377Z</time></trkpt><trkpt lat="46.8071901" lon="10.5430065"><ele>1506.0</ele><time>2026-03-24T14:45:35.385Z</time></trkpt><trkpt lat="46.8071782" lon="10.5429082"><ele>1506.0</ele><time>2026-03-24T14:45:36.37Z</time></trkpt><trkpt lat="46.8071672" lon="10.5428129"><ele>1507.25</ele><time>2026-03-24T14:45:37.381Z</time></trkpt><trkpt lat="46.8071274" lon="10.542641"><ele>1508.5</ele><time>2026-03-24T14:45:39.385Z</time></trkpt><trkpt lat="46.8070816" lon="10.5424793"><ele>1509.75</ele><time>2026-03-24T14:45:41.378Z</time></trkpt><trkpt lat="46.8070372" lon="10.5423178"><ele>1511.0</ele><time>2026-03-24T14:45:43.363Z</time></trkpt><trkpt lat="46.8069994" lon="10.5421639"><ele>1510.8</ele><time>2026-03-24T14:45:45.365Z</time></trkpt><trkpt lat="46.8069698" lon="10.5420184"><ele>1510.6</ele><time>2026-03-24T14:45:47.383Z</time></trkpt><trkpt lat="46.8069537" lon="10.5418736"><ele>1510.4</ele><time>2026-03-24T14:45:49.375Z</time></trkpt><trkpt lat="46.8069854" lon="10.5417234"><ele>1510.2</ele><time>2026-03-24T14:45:51.368Z</time></trkpt><trkpt lat="46.8070914" lon="10.5416534"><ele>1510.0</ele><time>2026-03-24T14:45:53.376Z</time></trkpt><trkpt lat="46.8072012" lon="10.5415819"><ele>1510.0</ele><time>2026-03-24T14:45:55.383Z</time></trkpt><trkpt lat="46.8073126" lon="10.541501"><ele>1510.0</ele><time>2026-03-24T14:45:57.376Z</time></trkpt><trkpt lat="46.8074189" lon="10.5414135"><ele>1510.0</ele><time>2026-03-24T14:45:59.384Z</time></trkpt><trkpt lat="46.8074731" lon="10.5413632"><ele>1510.0</ele><time>2026-03-24T14:46:00.378Z</time></trkpt><trkpt lat="46.8075281" lon="10.541314"><ele>1510.0</ele><time>2026-03-24T14:46:01.371Z</time></trkpt><trkpt lat="46.8075825" lon="10.5412614"><ele>1510.0</ele><time>2026-03-24T14:46:02.382Z</time></trkpt><trkpt lat="46.80769" lon="10.5411602"><ele>1509.2857142857142</ele><time>2026-03-24T14:46:04.376Z</time></trkpt><trkpt lat="46.8077474" lon="10.5411083"><ele>1508.5714285714287</ele><time>2026-03-24T14:46:05.386Z</time></trkpt><trkpt lat="46.807805" lon="10.5410548"><ele>1507.857142857143</ele><time>2026-03-24T14:46:06.375Z</time></trkpt><trkpt lat="46.8078643" lon="10.541001"><ele>1507.142857142857</ele><time>2026-03-24T14:46:07.379Z</time></trkpt><trkpt lat="46.8079241" lon="10.5409465"><ele>1506.4285714285716</ele><time>2026-03-24T14:46:08.381Z</time></trkpt><trkpt lat="46.8079833" lon="10.5408945"><ele>1505.7142857142858</ele><time>2026-03-24T14:46:09.376Z</time></trkpt><trkpt lat="46.8080428" lon="10.5408374"><ele>1505.0</ele><time>2026-03-24T14:46:10.377Z</time></trkpt><trkpt lat="46.8081012" lon="10.5407791"><ele>1505.0</ele><time>2026-03-24T14:46:11.378Z</time></trkpt><trkpt lat="46.8081596" lon="10.5407249"><ele>1505.0</ele><time>2026-03-24T14:46:12.375Z</time></trkpt><trkpt lat="46.8082172" lon="10.5406695"><ele>1505.0</ele><time>2026-03-24T14:46:13.368Z</time></trkpt><trkpt lat="46.8082761" lon="10.5406141"><ele>1505.0</ele><time>2026-03-24T14:46:14.365Z</time></trkpt><trkpt lat="46.8083356" lon="10.5405605"><ele>1505.0</ele><time>2026-03-24T14:46:15.377Z</time></trkpt><trkpt lat="46.8083937" lon="10.5405052"><ele>1505.0</ele><time>2026-03-24T14:46:16.378Z</time></trkpt><trkpt lat="46.8084505" lon="10.5404484"><ele>1505.0</ele><time>2026-03-24T14:46:17.375Z</time></trkpt><trkpt lat="46.8085071" lon="10.5403919"><ele>1507.142857142857</ele><time>2026-03-24T14:46:18.37Z</time></trkpt><trkpt lat="46.8085643" lon="10.5403377"><ele>1509.2857142857142</ele><time>2026-03-24T14:46:19.372Z</time></trkpt><trkpt lat="46.808622" lon="10.5402843"><ele>1511.4285714285716</ele><time>2026-03-24T14:46:20.379Z</time></trkpt><trkpt lat="46.8086781" lon="10.5402309"><ele>1513.5714285714284</ele><time>2026-03-24T14:46:21.37Z</time></trkpt><trkpt lat="46.8087334" lon="10.5401768"><ele>1515.7142857142858</ele><time>2026-03-24T14:46:22.378Z</time></trkpt><trkpt lat="46.8087877" lon="10.5401228"><ele>1517.857142857143</ele><time>2026-03-24T14:46:23.374Z</time></trkpt><trkpt lat="46.8088772" lon="10.5400393"><ele>1520.0</ele><time>2026-03-24T14:46:25.369Z</time></trkpt><trkpt lat="46.8089631" lon="10.5399629"><ele>1520.0</ele><time>2026-03-24T14:46:27.373Z</time></trkpt><trkpt lat="46.8090544" lon="10.539889"><ele>1520.0</ele><time>2026-03-24T14:46:29.372Z</time></trkpt><trkpt lat="46.8104077" lon="10.5387159"><ele>1518.5</ele><time>2026-03-24T14:46:52.361Z</time></trkpt><trkpt lat="46.8104746" lon="10.538583"><ele>1517.0</ele><time>2026-03-24T14:46:54.382Z</time></trkpt><trkpt lat="46.8105722" lon="10.5384835"><ele>1515.5</ele><time>2026-03-24T14:46:56.371Z</time></trkpt><trkpt lat="46.8106583" lon="10.5383906"><ele>1514.0</ele><time>2026-03-24T14:46:58.381Z</time></trkpt><trkpt lat="46.8107568" lon="10.5383027"><ele>1514.0</ele><time>2026-03-24T14:47:00.385Z</time></trkpt><trkpt lat="46.8108622" lon="10.5382115"><ele>1514.0</ele><time>2026-03-24T14:47:02.376Z</time></trkpt><trkpt lat="46.8109579" lon="10.5380987"><ele>1514.0</ele><time>2026-03-24T14:47:04.383Z</time></trkpt><trkpt lat="46.8110085" lon="10.5380337"><ele>1514.0</ele><time>2026-03-24T14:47:05.372Z</time></trkpt><trkpt lat="46.8110965" lon="10.5379079"><ele>1514.0</ele><time>2026-03-24T14:47:07.378Z</time></trkpt><trkpt lat="46.811139" lon="10.537837"><ele>1515.25</ele><time>2026-03-24T14:47:08.387Z</time></trkpt><trkpt lat="46.8112194" lon="10.5376949"><ele>1516.5</ele><time>2026-03-24T14:47:10.376Z</time></trkpt><trkpt lat="46.811284" lon="10.5375699"><ele>1517.75</ele><time>2026-03-24T14:47:12.374Z</time></trkpt><trkpt lat="46.8113464" lon="10.5374347"><ele>1519.0</ele><time>2026-03-24T14:47:14.38Z</time></trkpt><trkpt lat="46.81141" lon="10.5372735"><ele>1519.0</ele><time>2026-03-24T14:47:16.376Z</time></trkpt><trkpt lat="46.8114642" lon="10.5371179"><ele>1519.0</ele><time>2026-03-24T14:47:18.371Z</time></trkpt><trkpt lat="46.81152" lon="10.5369541"><ele>1519.0</ele><time>2026-03-24T14:47:20.38Z</time></trkpt><trkpt lat="46.811577" lon="10.5367948"><ele>1519.0</ele><time>2026-03-24T14:47:22.378Z</time></trkpt><trkpt lat="46.8116342" lon="10.5366277"><ele>1519.7142857142858</ele><time>2026-03-24T14:47:24.368Z</time></trkpt><trkpt lat="46.8116641" lon="10.5365428"><ele>1520.4285714285716</ele><time>2026-03-24T14:47:25.373Z</time></trkpt><trkpt lat="46.8116952" lon="10.5364602"><ele>1521.142857142857</ele><time>2026-03-24T14:47:26.375Z</time></trkpt><trkpt lat="46.8117279" lon="10.5363769"><ele>1521.857142857143</ele><time>2026-03-24T14:47:27.377Z</time></trkpt><trkpt lat="46.8117606" lon="10.536296"><ele>1522.5714285714287</ele><time>2026-03-24T14:47:28.377Z</time></trkpt><trkpt lat="46.811796" lon="10.536219"><ele>1523.2857142857142</ele><time>2026-03-24T14:47:29.381Z</time></trkpt><trkpt lat="46.8118354" lon="10.5361413"><ele>1524.0</ele><time>2026-03-24T14:47:30.385Z</time></trkpt><trkpt lat="46.8118783" lon="10.5360601"><ele>1524.0</ele><time>2026-03-24T14:47:31.373Z</time></trkpt><trkpt lat="46.8119216" lon="10.5359843"><ele>1524.0</ele><time>2026-03-24T14:47:32.378Z</time></trkpt><trkpt lat="46.8119692" lon="10.5359063"><ele>1524.0</ele><time>2026-03-24T14:47:33.393Z</time></trkpt><trkpt lat="46.8120169" lon="10.5358316"><ele>1524.0</ele><time>2026-03-24T14:47:34.377Z</time></trkpt><trkpt lat="46.8120641" lon="10.5357634"><ele>1524.0</ele><time>2026-03-24T14:47:35.381Z</time></trkpt><trkpt lat="46.812113" lon="10.5356936"><ele>1524.0</ele><time>2026-03-24T14:47:36.392Z</time></trkpt><trkpt lat="46.8121663" lon="10.5356208"><ele>1524.0</ele><time>2026-03-24T14:47:37.378Z</time></trkpt><trkpt lat="46.8122188" lon="10.5355487"><ele>1524.0</ele><time>2026-03-24T14:47:38.385Z</time></trkpt><trkpt lat="46.8122784" lon="10.5354776"><ele>1524.0</ele><time>2026-03-24T14:47:39.376Z</time></trkpt><trkpt lat="46.8123399" lon="10.5354098"><ele>1524.0</ele><time>2026-03-24T14:47:40.386Z</time></trkpt><trkpt lat="46.8123973" lon="10.5353477"><ele>1524.0</ele><time>2026-03-24T14:47:41.375Z</time></trkpt><trkpt lat="46.812486" lon="10.5352501"><ele>1524.0</ele><time>2026-03-24T14:47:43.378Z</time></trkpt><trkpt lat="46.8125798" lon="10.5351423"><ele>1524.3333333333333</ele><time>2026-03-24T14:47:45.377Z</time></trkpt><trkpt lat="46.8126862" lon="10.5350331"><ele>1524.6666666666667</ele><time>2026-03-24T14:47:47.377Z</time></trkpt><trkpt lat="46.8127436" lon="10.5349773"><ele>1525.0</ele><time>2026-03-24T14:47:48.387Z</time></trkpt><trkpt lat="46.8127956" lon="10.534917"><ele>1525.3333333333335</ele><time>2026-03-24T14:47:49.375Z</time></trkpt><trkpt lat="46.8128488" lon="10.5348577"><ele>1525.6666666666667</ele><time>2026-03-24T14:47:50.369Z</time></trkpt><trkpt lat="46.8129029" lon="10.5348024"><ele>1526.0</ele><time>2026-03-24T14:47:51.37Z</time></trkpt><trkpt lat="46.8129557" lon="10.5347465"><ele>1526.0</ele><time>2026-03-24T14:47:52.37Z</time></trkpt><trkpt lat="46.8130085" lon="10.5346895"><ele>1526.0</ele><time>2026-03-24T14:47:53.381Z</time></trkpt><trkpt lat="46.8130603" lon="10.5346322"><ele>1526.0</ele><time>2026-03-24T14:47:54.374Z</time></trkpt><trkpt lat="46.8131102" lon="10.5345743"><ele>1526.0</ele><time>2026-03-24T14:47:55.37Z</time></trkpt><trkpt lat="46.8131596" lon="10.534517"><ele>1526.0</ele><time>2026-03-24T14:47:56.386Z</time></trkpt><trkpt lat="46.8132088" lon="10.534459"><ele>1526.0</ele><time>2026-03-24T14:47:57.378Z</time></trkpt><trkpt lat="46.8133058" lon="10.5343466"><ele>1526.0</ele><time>2026-03-24T14:47:59.38Z</time></trkpt><trkpt lat="46.8134009" lon="10.5342261"><ele>1527.7142857142858</ele><time>2026-03-24T14:48:01.372Z</time></trkpt><trkpt lat="46.8134449" lon="10.5341602"><ele>1529.4285714285716</ele><time>2026-03-24T14:48:02.377Z</time></trkpt><trkpt lat="46.8134892" lon="10.5340915"><ele>1531.142857142857</ele><time>2026-03-24T14:48:03.388Z</time></trkpt><trkpt lat="46.8135332" lon="10.534023"><ele>1532.857142857143</ele><time>2026-03-24T14:48:04.379Z</time></trkpt><trkpt lat="46.8135768" lon="10.5339526"><ele>1534.5714285714287</ele><time>2026-03-24T14:48:05.382Z</time></trkpt><trkpt lat="46.8136217" lon="10.5338831"><ele>1536.2857142857142</ele><time>2026-03-24T14:48:06.377Z</time></trkpt><trkpt lat="46.8136667" lon="10.5338135"><ele>1538.0</ele><time>2026-03-24T14:48:07.37Z</time></trkpt><trkpt lat="46.8137112" lon="10.5337403"><ele>1533.4285714285713</ele><time>2026-03-24T14:48:08.368Z</time></trkpt><trkpt lat="46.8137565" lon="10.5336698"><ele>1528.857142857143</ele><time>2026-03-24T14:48:09.372Z</time></trkpt><trkpt lat="46.813801" lon="10.5335986"><ele>1524.2857142857142</ele><time>2026-03-24T14:48:10.379Z</time></trkpt><trkpt lat="46.8138447" lon="10.5335289"><ele>1519.7142857142858</ele><time>2026-03-24T14:48:11.383Z</time></trkpt><trkpt lat="46.8138879" lon="10.5334584"><ele>1515.1428571428573</ele><time>2026-03-24T14:48:12.371Z</time></trkpt><trkpt lat="46.8139328" lon="10.53339"><ele>1510.5714285714287</ele><time>2026-03-24T14:48:13.381Z</time></trkpt><trkpt lat="46.813977" lon="10.533322"><ele>1506.0</ele><time>2026-03-24T14:48:14.379Z</time></trkpt><trkpt lat="46.8140209" lon="10.5332526"><ele>1506.0</ele><time>2026-03-24T14:48:15.376Z</time></trkpt><trkpt lat="46.814064" lon="10.5331809"><ele>1506.0</ele><time>2026-03-24T14:48:16.374Z</time></trkpt><trkpt lat="46.8141077" lon="10.5331077"><ele>1506.0</ele><time>2026-03-24T14:48:17.374Z</time></trkpt><trkpt lat="46.8141516" lon="10.5330351"><ele>1506.0</ele><time>2026-03-24T14:48:18.379Z</time></trkpt><trkpt lat="46.8141953" lon="10.5329612"><ele>1506.0</ele><time>2026-03-24T14:48:19.375Z</time></trkpt><trkpt lat="46.81424" lon="10.5328878"><ele>1506.0</ele><time>2026-03-24T14:48:20.382Z</time></trkpt><trkpt lat="46.8142845" lon="10.5328144"><ele>1506.0</ele><time>2026-03-24T14:48:21.379Z</time></trkpt><trkpt lat="46.8143296" lon="10.5327413"><ele>1507.857142857143</ele><time>2026-03-24T14:48:22.375Z</time></trkpt><trkpt lat="46.814374" lon="10.5326683"><ele>1509.7142857142858</ele><time>2026-03-24T14:48:23.375Z</time></trkpt><trkpt lat="46.8144171" lon="10.5325964"><ele>1511.5714285714284</ele><time>2026-03-24T14:48:24.378Z</time></trkpt><trkpt lat="46.8144625" lon="10.5325259"><ele>1513.4285714285716</ele><time>2026-03-24T14:48:25.372Z</time></trkpt><trkpt lat="46.8145099" lon="10.5324587"><ele>1515.2857142857142</ele><time>2026-03-24T14:48:26.374Z</time></trkpt><trkpt lat="46.8145584" lon="10.5323936"><ele>1517.142857142857</ele><time>2026-03-24T14:48:27.377Z</time></trkpt><trkpt lat="46.8146092" lon="10.5323325"><ele>1519.0</ele><time>2026-03-24T14:48:28.373Z</time></trkpt><trkpt lat="46.8146625" lon="10.5322754"><ele>1519.0</ele><time>2026-03-24T14:48:29.373Z</time></trkpt><trkpt lat="46.8147183" lon="10.5322236"><ele>1519.0</ele><time>2026-03-24T14:48:30.372Z</time></trkpt><trkpt lat="46.8147755" lon="10.5321768"><ele>1519.0</ele><time>2026-03-24T14:48:31.38Z</time></trkpt><trkpt lat="46.8148341" lon="10.532131"><ele>1519.0</ele><time>2026-03-24T14:48:32.383Z</time></trkpt><trkpt lat="46.8148928" lon="10.5320866"><ele>1519.0</ele><time>2026-03-24T14:48:33.377Z</time></trkpt><trkpt lat="46.8149517" lon="10.5320427"><ele>1519.0</ele><time>2026-03-24T14:48:34.371Z</time></trkpt><trkpt lat="46.8150102" lon="10.5319994"><ele>1519.0</ele><time>2026-03-24T14:48:35.373Z</time></trkpt><trkpt lat="46.8150685" lon="10.5319563"><ele>1518.0</ele><time>2026-03-24T14:48:36.375Z</time></trkpt><trkpt lat="46.8151321" lon="10.5319082"><ele>1517.0</ele><time>2026-03-24T14:48:37.377Z</time></trkpt><trkpt lat="46.8151927" lon="10.5318612"><ele>1516.0</ele><time>2026-03-24T14:48:38.373Z</time></trkpt><trkpt lat="46.8152523" lon="10.531814"><ele>1515.0</ele><time>2026-03-24T14:48:39.379Z</time></trkpt><trkpt lat="46.8153121" lon="10.5317668"><ele>1514.0</ele><time>2026-03-24T14:48:40.383Z</time></trkpt><trkpt lat="46.8153723" lon="10.5317211"><ele>1513.0</ele><time>2026-03-24T14:48:41.376Z</time></trkpt><trkpt lat="46.8154319" lon="10.5316763"><ele>1512.0</ele><time>2026-03-24T14:48:42.375Z</time></trkpt><trkpt lat="46.8154923" lon="10.5316337"><ele>1512.0</ele><time>2026-03-24T14:48:43.371Z</time></trkpt><trkpt lat="46.8155527" lon="10.5315904"><ele>1512.0</ele><time>2026-03-24T14:48:44.372Z</time></trkpt><trkpt lat="46.8156124" lon="10.5315468"><ele>1512.0</ele><time>2026-03-24T14:48:45.376Z</time></trkpt><trkpt lat="46.8156708" lon="10.5315011"><ele>1512.0</ele><time>2026-03-24T14:48:46.369Z</time></trkpt><trkpt lat="46.8157302" lon="10.5314553"><ele>1512.0</ele><time>2026-03-24T14:48:47.377Z</time></trkpt><trkpt lat="46.8157901" lon="10.5314108"><ele>1512.0</ele><time>2026-03-24T14:48:48.371Z</time></trkpt><trkpt lat="46.8158493" lon="10.5313675"><ele>1512.0</ele><time>2026-03-24T14:48:49.38Z</time></trkpt><trkpt lat="46.8159094" lon="10.5313231"><ele>1512.0</ele><time>2026-03-24T14:48:50.376Z</time></trkpt><trkpt lat="46.8159689" lon="10.5312811"><ele>1512.0</ele><time>2026-03-24T14:48:51.378Z</time></trkpt><trkpt lat="46.8160287" lon="10.5312374"><ele>1512.0</ele><time>2026-03-24T14:48:52.384Z</time></trkpt><trkpt lat="46.8160877" lon="10.5311926"><ele>1512.0</ele><time>2026-03-24T14:48:53.369Z</time></trkpt><trkpt lat="46.8161479" lon="10.5311477"><ele>1512.0</ele><time>2026-03-24T14:48:54.377Z</time></trkpt><trkpt lat="46.8162069" lon="10.5311026"><ele>1512.0</ele><time>2026-03-24T14:48:55.381Z</time></trkpt><trkpt lat="46.8162671" lon="10.531058"><ele>1512.0</ele><time>2026-03-24T14:48:56.378Z</time></trkpt><trkpt lat="46.8163277" lon="10.5310131"><ele>1509.5714285714287</ele><time>2026-03-24T14:48:57.379Z</time></trkpt><trkpt lat="46.8163887" lon="10.5309706"><ele>1507.142857142857</ele><time>2026-03-24T14:48:58.374Z</time></trkpt><trkpt lat="46.8164498" lon="10.5309277"><ele>1504.7142857142858</ele><time>2026-03-24T14:48:59.379Z</time></trkpt><trkpt lat="46.8165112" lon="10.5308859"><ele>1502.2857142857142</ele><time>2026-03-24T14:49:00.38Z</time></trkpt><trkpt lat="46.8165743" lon="10.5308487"><ele>1499.857142857143</ele><time>2026-03-24T14:49:01.374Z</time></trkpt><trkpt lat="46.8166379" lon="10.530814"><ele>1497.4285714285716</ele><time>2026-03-24T14:49:02.378Z</time></trkpt><trkpt lat="46.8167023" lon="10.5307817"><ele>1495.0</ele><time>2026-03-24T14:49:03.372Z</time></trkpt><trkpt lat="46.8167676" lon="10.5307523"><ele>1498.1428571428573</ele><time>2026-03-24T14:49:04.376Z</time></trkpt><trkpt lat="46.8168326" lon="10.5307253"><ele>1501.2857142857142</ele><time>2026-03-24T14:49:05.376Z</time></trkpt><trkpt lat="46.8168981" lon="10.5306979"><ele>1504.4285714285716</ele><time>2026-03-24T14:49:06.378Z</time></trkpt><trkpt lat="46.8169647" lon="10.530677"><ele>1507.5714285714287</ele><time>2026-03-24T14:49:07.372Z</time></trkpt><trkpt lat="46.8170302" lon="10.5306535"><ele>1510.7142857142858</ele><time>2026-03-24T14:49:08.375Z</time></trkpt><trkpt lat="46.8170958" lon="10.5306272"><ele>1513.857142857143</ele><time>2026-03-24T14:49:09.379Z</time></trkpt><trkpt lat="46.817161" lon="10.5306026"><ele>1517.0</ele><time>2026-03-24T14:49:10.378Z</time></trkpt><trkpt lat="46.8172252" lon="10.530579"><ele>1517.0</ele><time>2026-03-24T14:49:11.376Z</time></trkpt><trkpt lat="46.8172899" lon="10.5305563"><ele>1517.0</ele><time>2026-03-24T14:49:12.373Z</time></trkpt><trkpt lat="46.8173531" lon="10.5305333"><ele>1517.0</ele><time>2026-03-24T14:49:13.364Z</time></trkpt><trkpt lat="46.8174149" lon="10.5305113"><ele>1517.0</ele><time>2026-03-24T14:49:14.377Z</time></trkpt><trkpt lat="46.817478" lon="10.5304858"><ele>1517.0</ele><time>2026-03-24T14:49:15.362Z</time></trkpt><trkpt lat="46.8175948" lon="10.5304359"><ele>1517.0</ele><time>2026-03-24T14:49:17.372Z</time></trkpt><trkpt lat="46.8177066" lon="10.5303794"><ele>1514.5</ele><time>2026-03-24T14:49:19.372Z</time></trkpt><trkpt lat="46.8178169" lon="10.5303049"><ele>1512.0</ele><time>2026-03-24T14:49:21.374Z</time></trkpt><trkpt lat="46.8179207" lon="10.5302096"><ele>1509.5</ele><time>2026-03-24T14:49:23.377Z</time></trkpt><trkpt lat="46.8180132" lon="10.5300936"><ele>1507.0</ele><time>2026-03-24T14:49:25.378Z</time></trkpt><trkpt lat="46.8180969" lon="10.5299609"><ele>1507.0</ele><time>2026-03-24T14:49:27.38Z</time></trkpt><trkpt lat="46.8181674" lon="10.5298117"><ele>1507.0</ele><time>2026-03-24T14:49:29.384Z</time></trkpt><trkpt lat="46.818198" lon="10.5297303"><ele>1507.0</ele><time>2026-03-24T14:49:30.377Z</time></trkpt><trkpt lat="46.8182258" lon="10.5296477"><ele>1507.0</ele><time>2026-03-24T14:49:31.381Z</time></trkpt><trkpt lat="46.8182676" lon="10.529479"><ele>1507.0</ele><time>2026-03-24T14:49:33.374Z</time></trkpt><trkpt lat="46.818295" lon="10.5293016"><ele>1506.1999999999998</ele><time>2026-03-24T14:49:35.371Z</time></trkpt><trkpt lat="46.8183062" lon="10.5292092"><ele>1505.4</ele><time>2026-03-24T14:49:36.376Z</time></trkpt><trkpt lat="46.8183285" lon="10.5290258"><ele>1504.6</ele><time>2026-03-24T14:49:38.375Z</time></trkpt><trkpt lat="46.8183434" lon="10.5288872"><ele>1503.8000000000002</ele><time>2026-03-24T14:49:40.375Z</time></trkpt><trkpt lat="46.8183646" lon="10.5287262"><ele>1503.0</ele><time>2026-03-24T14:49:42.373Z</time></trkpt><trkpt lat="46.8183885" lon="10.5285534"><ele>1502.7142857142856</ele><time>2026-03-24T14:49:44.378Z</time></trkpt><trkpt lat="46.8184005" lon="10.5284626"><ele>1502.4285714285716</ele><time>2026-03-24T14:49:45.375Z</time></trkpt><trkpt lat="46.8184105" lon="10.5283697"><ele>1502.142857142857</ele><time>2026-03-24T14:49:46.375Z</time></trkpt><trkpt lat="46.8184217" lon="10.5282773"><ele>1501.8571428571427</ele><time>2026-03-24T14:49:47.378Z</time></trkpt><trkpt lat="46.8184342" lon="10.528183"><ele>1501.5714285714284</ele><time>2026-03-24T14:49:48.367Z</time></trkpt><trkpt lat="46.8184461" lon="10.5280883"><ele>1501.2857142857142</ele><time>2026-03-24T14:49:49.384Z</time></trkpt><trkpt lat="46.8184588" lon="10.5279921"><ele>1501.0</ele><time>2026-03-24T14:49:50.376Z</time></trkpt><trkpt lat="46.818472" lon="10.5278959"><ele>1502.2857142857142</ele><time>2026-03-24T14:49:51.375Z</time></trkpt><trkpt lat="46.8184866" lon="10.5277985"><ele>1503.5714285714284</ele><time>2026-03-24T14:49:52.371Z</time></trkpt><trkpt lat="46.8185022" lon="10.5277011"><ele>1504.8571428571427</ele><time>2026-03-24T14:49:53.38Z</time></trkpt><trkpt lat="46.8185194" lon="10.5276034"><ele>1506.142857142857</ele><time>2026-03-24T14:49:54.375Z</time></trkpt><trkpt lat="46.8185379" lon="10.5275056"><ele>1507.4285714285716</ele><time>2026-03-24T14:49:55.378Z</time></trkpt><trkpt lat="46.8185587" lon="10.5274091"><ele>1508.7142857142856</ele><time>2026-03-24T14:49:56.377Z</time></trkpt><trkpt lat="46.8185802" lon="10.5273114"><ele>1510.0</ele><time>2026-03-24T14:49:57.379Z</time></trkpt><trkpt lat="46.8186036" lon="10.5272146"><ele>1510.0</ele><time>2026-03-24T14:49:58.377Z</time></trkpt><trkpt lat="46.8186303" lon="10.5271193"><ele>1510.0</ele><time>2026-03-24T14:49:59.38Z</time></trkpt><trkpt lat="46.8186589" lon="10.5270246"><ele>1510.0</ele><time>2026-03-24T14:50:00.383Z</time></trkpt><trkpt lat="46.818689" lon="10.5269302"><ele>1510.0</ele><time>2026-03-24T14:50:01.383Z</time></trkpt><trkpt lat="46.8187206" lon="10.5268371"><ele>1510.0</ele><time>2026-03-24T14:50:02.38Z</time></trkpt><trkpt lat="46.8187538" lon="10.5267459"><ele>1510.0</ele><time>2026-03-24T14:50:03.389Z</time></trkpt><trkpt lat="46.8187874" lon="10.5266558"><ele>1510.0</ele><time>2026-03-24T14:50:04.379Z</time></trkpt><trkpt lat="46.8188218" lon="10.5265656"><ele>1508.857142857143</ele><time>2026-03-24T14:50:05.375Z</time></trkpt><trkpt lat="46.8188561" lon="10.5264756"><ele>1507.7142857142858</ele><time>2026-03-24T14:50:06.385Z</time></trkpt><trkpt lat="46.8188898" lon="10.5263865"><ele>1506.5714285714287</ele><time>2026-03-24T14:50:07.372Z</time></trkpt><trkpt lat="46.8189228" lon="10.526298"><ele>1505.4285714285716</ele><time>2026-03-24T14:50:08.382Z</time></trkpt><trkpt lat="46.8189556" lon="10.5262102"><ele>1504.2857142857142</ele><time>2026-03-24T14:50:09.382Z</time></trkpt><trkpt lat="46.818988" lon="10.526124"><ele>1503.1428571428573</ele><time>2026-03-24T14:50:10.382Z</time></trkpt><trkpt lat="46.819021" lon="10.5260373"><ele>1502.0</ele><time>2026-03-24T14:50:11.382Z</time></trkpt><trkpt lat="46.8190547" lon="10.5259516"><ele>1501.4285714285716</ele><time>2026-03-24T14:50:12.372Z</time></trkpt><trkpt lat="46.8190877" lon="10.5258665"><ele>1500.857142857143</ele><time>2026-03-24T14:50:13.385Z</time></trkpt><trkpt lat="46.8191202" lon="10.5257785"><ele>1500.2857142857142</ele><time>2026-03-24T14:50:14.378Z</time></trkpt><trkpt lat="46.8191542" lon="10.5256911"><ele>1499.7142857142858</ele><time>2026-03-24T14:50:15.371Z</time></trkpt><trkpt lat="46.8191877" lon="10.5256032"><ele>1499.142857142857</ele><time>2026-03-24T14:50:16.377Z</time></trkpt><trkpt lat="46.819221" lon="10.525515"><ele>1498.5714285714287</ele><time>2026-03-24T14:50:17.384Z</time></trkpt><trkpt lat="46.8192561" lon="10.5254282"><ele>1498.0</ele><time>2026-03-24T14:50:18.378Z</time></trkpt><trkpt lat="46.8192911" lon="10.5253424"><ele>1499.142857142857</ele><time>2026-03-24T14:50:19.382Z</time></trkpt><trkpt lat="46.8193289" lon="10.525258"><ele>1500.2857142857142</ele><time>2026-03-24T14:50:20.379Z</time></trkpt><trkpt lat="46.8193681" lon="10.5251747"><ele>1501.4285714285716</ele><time>2026-03-24T14:50:21.376Z</time></trkpt><trkpt lat="46.8194103" lon="10.525095"><ele>1502.5714285714284</ele><time>2026-03-24T14:50:22.381Z</time></trkpt><trkpt lat="46.8194522" lon="10.5250152"><ele>1503.7142857142858</ele><time>2026-03-24T14:50:23.371Z</time></trkpt><trkpt lat="46.819496" lon="10.5249375"><ele>1504.857142857143</ele><time>2026-03-24T14:50:24.382Z</time></trkpt><trkpt lat="46.8195413" lon="10.5248627"><ele>1506.0</ele><time>2026-03-24T14:50:25.376Z</time></trkpt><trkpt lat="46.8195887" lon="10.5247893"><ele>1506.0</ele><time>2026-03-24T14:50:26.39Z</time></trkpt><trkpt lat="46.8196382" lon="10.5247172"><ele>1506.0</ele><time>2026-03-24T14:50:27.388Z</time></trkpt><trkpt lat="46.8196874" lon="10.5246457"><ele>1506.0</ele><time>2026-03-24T14:50:28.377Z</time></trkpt><trkpt lat="46.8197367" lon="10.5245737"><ele>1506.0</ele><time>2026-03-24T14:50:29.379Z</time></trkpt><trkpt lat="46.8197869" lon="10.5245032"><ele>1506.0</ele><time>2026-03-24T14:50:30.372Z</time></trkpt><trkpt lat="46.8198372" lon="10.5244341"><ele>1506.0</ele><time>2026-03-24T14:50:31.385Z</time></trkpt><trkpt lat="46.8198872" lon="10.5243651"><ele>1506.0</ele><time>2026-03-24T14:50:32.368Z</time></trkpt><trkpt lat="46.8199367" lon="10.5242957"><ele>1505.8333333333333</ele><time>2026-03-24T14:50:33.385Z</time></trkpt><trkpt lat="46.8199862" lon="10.5242291"><ele>1505.6666666666667</ele><time>2026-03-24T14:50:34.374Z</time></trkpt><trkpt lat="46.8200334" lon="10.5241631"><ele>1505.5</ele><time>2026-03-24T14:50:35.383Z</time></trkpt><trkpt lat="46.8200859" lon="10.5240871"><ele>1505.3333333333335</ele><time>2026-03-24T14:50:36.375Z</time></trkpt><trkpt lat="46.8201361" lon="10.5240147"><ele>1505.1666666666667</ele><time>2026-03-24T14:50:37.38Z</time></trkpt><trkpt lat="46.8201852" lon="10.5239417"><ele>1505.0</ele><time>2026-03-24T14:50:38.385Z</time></trkpt><trkpt lat="46.8202732" lon="10.5238144"><ele>1504.0</ele><time>2026-03-24T14:50:40.38Z</time></trkpt><trkpt lat="46.8203623" lon="10.5236864"><ele>1503.0</ele><time>2026-03-24T14:50:42.375Z</time></trkpt><trkpt lat="46.820409" lon="10.5236201"><ele>1502.0</ele><time>2026-03-24T14:50:43.375Z</time></trkpt><trkpt lat="46.8204571" lon="10.5235545"><ele>1501.0</ele><time>2026-03-24T14:50:44.371Z</time></trkpt><trkpt lat="46.8205065" lon="10.5234901"><ele>1500.0</ele><time>2026-03-24T14:50:45.375Z</time></trkpt><trkpt lat="46.8205547" lon="10.5234254"><ele>1499.0</ele><time>2026-03-24T14:50:46.384Z</time></trkpt><trkpt lat="46.8206043" lon="10.5233633"><ele>1499.0</ele><time>2026-03-24T14:50:47.373Z</time></trkpt><trkpt lat="46.8206545" lon="10.5233032"><ele>1499.0</ele><time>2026-03-24T14:50:48.375Z</time></trkpt><trkpt lat="46.8207052" lon="10.5232445"><ele>1499.0</ele><time>2026-03-24T14:50:49.376Z</time></trkpt><trkpt lat="46.8207579" lon="10.5231889"><ele>1499.0</ele><time>2026-03-24T14:50:50.381Z</time></trkpt><trkpt lat="46.820813" lon="10.5231354"><ele>1499.0</ele><time>2026-03-24T14:50:51.378Z</time></trkpt><trkpt lat="46.8208692" lon="10.5230848"><ele>1499.0</ele><time>2026-03-24T14:50:52.376Z</time></trkpt><trkpt lat="46.8209263" lon="10.5230347"><ele>1499.0</ele><time>2026-03-24T14:50:53.374Z</time></trkpt><trkpt lat="46.8209838" lon="10.5229869"><ele>1498.142857142857</ele><time>2026-03-24T14:50:54.374Z</time></trkpt><trkpt lat="46.8210428" lon="10.5229405"><ele>1497.2857142857142</ele><time>2026-03-24T14:50:55.378Z</time></trkpt><trkpt lat="46.8211016" lon="10.5228949"><ele>1496.4285714285716</ele><time>2026-03-24T14:50:56.384Z</time></trkpt><trkpt lat="46.8211605" lon="10.5228483"><ele>1495.5714285714284</ele><time>2026-03-24T14:50:57.377Z</time></trkpt><trkpt lat="46.8212194" lon="10.5228014"><ele>1494.7142857142856</ele><time>2026-03-24T14:50:58.383Z</time></trkpt><trkpt lat="46.821278" lon="10.5227548"><ele>1493.857142857143</ele><time>2026-03-24T14:50:59.386Z</time></trkpt><trkpt lat="46.8213366" lon="10.5227081"><ele>1493.0</ele><time>2026-03-24T14:51:00.374Z</time></trkpt><trkpt lat="46.8213958" lon="10.5226621"><ele>1493.0</ele><time>2026-03-24T14:51:01.392Z</time></trkpt><trkpt lat="46.8214544" lon="10.5226161"><ele>1493.0</ele><time>2026-03-24T14:51:02.371Z</time></trkpt><trkpt lat="46.8215135" lon="10.5225701"><ele>1493.0</ele><time>2026-03-24T14:51:03.372Z</time></trkpt><trkpt lat="46.8215727" lon="10.5225237"><ele>1493.0</ele><time>2026-03-24T14:51:04.374Z</time></trkpt><trkpt lat="46.8216327" lon="10.5224787"><ele>1493.0</ele><time>2026-03-24T14:51:05.37Z</time></trkpt><trkpt lat="46.8216908" lon="10.5224324"><ele>1493.0</ele><time>2026-03-24T14:51:06.381Z</time></trkpt><trkpt lat="46.8217501" lon="10.5223858"><ele>1493.0</ele><time>2026-03-24T14:51:07.377Z</time></trkpt><trkpt lat="46.8218095" lon="10.5223403"><ele>1493.5714285714287</ele><time>2026-03-24T14:51:08.376Z</time></trkpt><trkpt lat="46.8218683" lon="10.5222955"><ele>1494.142857142857</ele><time>2026-03-24T14:51:09.376Z</time></trkpt><trkpt lat="46.8219282" lon="10.5222514"><ele>1494.7142857142858</ele><time>2026-03-24T14:51:10.378Z</time></trkpt><trkpt lat="46.8219872" lon="10.5222059"><ele>1495.2857142857142</ele><time>2026-03-24T14:51:11.377Z</time></trkpt><trkpt lat="46.8220465" lon="10.5221598"><ele>1495.8571428571427</ele><time>2026-03-24T14:51:12.385Z</time></trkpt><trkpt lat="46.822106" lon="10.5221129"><ele>1496.4285714285713</ele><time>2026-03-24T14:51:13.37Z</time></trkpt><trkpt lat="46.8221649" lon="10.5220655"><ele>1497.0</ele><time>2026-03-24T14:51:14.377Z</time></trkpt><trkpt lat="46.8222231" lon="10.5220171"><ele>1497.0</ele><time>2026-03-24T14:51:15.379Z</time></trkpt><trkpt lat="46.8222814" lon="10.521971"><ele>1497.0</ele><time>2026-03-24T14:51:16.377Z</time></trkpt><trkpt lat="46.8223402" lon="10.5219261"><ele>1497.0</ele><time>2026-03-24T14:51:17.38Z</time></trkpt><trkpt lat="46.8223963" lon="10.5218819"><ele>1497.0</ele><time>2026-03-24T14:51:18.378Z</time></trkpt><trkpt lat="46.8224537" lon="10.5218439"><ele>1497.0</ele><time>2026-03-24T14:51:19.377Z</time></trkpt><trkpt lat="46.8225663" lon="10.5217672"><ele>1497.0</ele><time>2026-03-24T14:51:21.37Z</time></trkpt><trkpt lat="46.8226811" lon="10.5217008"><ele>1498.75</ele><time>2026-03-24T14:51:23.378Z</time></trkpt><trkpt lat="46.8227946" lon="10.5216416"><ele>1500.5</ele><time>2026-03-24T14:51:25.374Z</time></trkpt><trkpt lat="46.8229057" lon="10.5215906"><ele>1502.25</ele><time>2026-03-24T14:51:27.376Z</time></trkpt><trkpt lat="46.8230164" lon="10.5215475"><ele>1504.0</ele><time>2026-03-24T14:51:29.383Z</time></trkpt><trkpt lat="46.823123" lon="10.5215097"><ele>1504.0</ele><time>2026-03-24T14:51:31.352Z</time></trkpt><trkpt lat="46.8232276" lon="10.5214816"><ele>1504.0</ele><time>2026-03-24T14:51:33.382Z</time></trkpt><trkpt lat="46.823332" lon="10.521464"><ele>1504.0</ele><time>2026-03-24T14:51:35.379Z</time></trkpt><trkpt lat="46.8234374" lon="10.521447"><ele>1504.0</ele><time>2026-03-24T14:51:37.382Z</time></trkpt><trkpt lat="46.8235413" lon="10.5214401"><ele>1504.0</ele><time>2026-03-24T14:51:39.38Z</time></trkpt><trkpt lat="46.8236474" lon="10.5214314"><ele>1505.2</ele><time>2026-03-24T14:51:41.372Z</time></trkpt><trkpt lat="46.8237483" lon="10.5214314"><ele>1506.4</ele><time>2026-03-24T14:51:43.379Z</time></trkpt><trkpt lat="46.823853" lon="10.5214288"><ele>1507.6</ele><time>2026-03-24T14:51:45.377Z</time></trkpt><trkpt lat="46.8239573" lon="10.5214289"><ele>1508.8</ele><time>2026-03-24T14:51:47.37Z</time></trkpt><trkpt lat="46.8240598" lon="10.5214259"><ele>1510.0</ele><time>2026-03-24T14:51:49.374Z</time></trkpt><trkpt lat="46.8241632" lon="10.521425"><ele>1510.0</ele><time>2026-03-24T14:51:51.374Z</time></trkpt><trkpt lat="46.8242653" lon="10.5214207"><ele>1510.0</ele><time>2026-03-24T14:51:53.38Z</time></trkpt><trkpt lat="46.8243669" lon="10.5214185"><ele>1510.0</ele><time>2026-03-24T14:51:55.378Z</time></trkpt><trkpt lat="46.8244675" lon="10.5214135"><ele>1510.0</ele><time>2026-03-24T14:51:57.375Z</time></trkpt><trkpt lat="46.8245672" lon="10.5214124"><ele>1510.0</ele><time>2026-03-24T14:51:59.372Z</time></trkpt><trkpt lat="46.8246649" lon="10.5214087"><ele>1510.6</ele><time>2026-03-24T14:52:01.378Z</time></trkpt><trkpt lat="46.8247619" lon="10.5214071"><ele>1511.2</ele><time>2026-03-24T14:52:03.382Z</time></trkpt><trkpt lat="46.8248586" lon="10.5214068"><ele>1511.8000000000002</ele><time>2026-03-24T14:52:05.372Z</time></trkpt><trkpt lat="46.8249507" lon="10.5214043"><ele>1512.4</ele><time>2026-03-24T14:52:07.379Z</time></trkpt><trkpt lat="46.8250383" lon="10.5214021"><ele>1513.0</ele><time>2026-03-24T14:52:09.375Z</time></trkpt><trkpt lat="46.8251253" lon="10.5213971"><ele>1512.8333333333333</ele><time>2026-03-24T14:52:11.373Z</time></trkpt><trkpt lat="46.825213" lon="10.5213948"><ele>1512.6666666666665</ele><time>2026-03-24T14:52:13.381Z</time></trkpt><trkpt lat="46.8253007" lon="10.5213971"><ele>1512.5</ele><time>2026-03-24T14:52:15.38Z</time></trkpt><trkpt lat="46.8253864" lon="10.5213933"><ele>1512.3333333333333</ele><time>2026-03-24T14:52:17.377Z</time></trkpt><trkpt lat="46.8254705" lon="10.5213899"><ele>1512.1666666666667</ele><time>2026-03-24T14:52:19.363Z</time></trkpt><trkpt lat="46.825554" lon="10.5213866"><ele>1512.0</ele><time>2026-03-24T14:52:21.375Z</time></trkpt><trkpt lat="46.8256364" lon="10.5213861"><ele>1512.0</ele><time>2026-03-24T14:52:23.364Z</time></trkpt><trkpt lat="46.8257203" lon="10.521385"><ele>1512.0</ele><time>2026-03-24T14:52:25.365Z</time></trkpt><trkpt lat="46.8258037" lon="10.5213843"><ele>1512.0</ele><time>2026-03-24T14:52:27.388Z</time></trkpt><trkpt lat="46.8258869" lon="10.5213806"><ele>1512.0</ele><time>2026-03-24T14:52:29.372Z</time></trkpt><trkpt lat="46.8259646" lon="10.5213825"><ele>1512.0</ele><time>2026-03-24T14:52:31.38Z</time></trkpt><trkpt lat="46.8260466" lon="10.5213806"><ele>1512.0</ele><time>2026-03-24T14:52:33.381Z</time></trkpt><trkpt lat="46.8261329" lon="10.5213801"><ele>1512.5</ele><time>2026-03-24T14:52:35.365Z</time></trkpt><trkpt lat="46.8262203" lon="10.5213741"><ele>1513.0</ele><time>2026-03-24T14:52:37.371Z</time></trkpt><trkpt lat="46.8263055" lon="10.5213715"><ele>1513.5</ele><time>2026-03-24T14:52:39.378Z</time></trkpt><trkpt lat="46.8263905" lon="10.5213685"><ele>1514.0</ele><time>2026-03-24T14:52:41.378Z</time></trkpt><trkpt lat="46.8264722" lon="10.521363"><ele>1514.5</ele><time>2026-03-24T14:52:43.366Z</time></trkpt><trkpt lat="46.8265545" lon="10.5213589"><ele>1515.0</ele><time>2026-03-24T14:52:45.371Z</time></trkpt><trkpt lat="46.8266362" lon="10.5213548"><ele>1515.0</ele><time>2026-03-24T14:52:47.388Z</time></trkpt><trkpt lat="46.826716" lon="10.5213489"><ele>1515.0</ele><time>2026-03-24T14:52:49.371Z</time></trkpt><trkpt lat="46.8267966" lon="10.5213458"><ele>1515.0</ele><time>2026-03-24T14:52:51.373Z</time></trkpt><trkpt lat="46.8268787" lon="10.5213383"><ele>1515.0</ele><time>2026-03-24T14:52:53.372Z</time></trkpt><trkpt lat="46.8269602" lon="10.5213268"><ele>1515.0</ele><time>2026-03-24T14:52:55.385Z</time></trkpt><trkpt lat="46.8270385" lon="10.5213154"><ele>1515.0</ele><time>2026-03-24T14:52:57.37Z</time></trkpt><trkpt lat="46.8271147" lon="10.5212844"><ele>1515.1666666666667</ele><time>2026-03-24T14:52:59.381Z</time></trkpt><trkpt lat="46.8271914" lon="10.5212431"><ele>1515.3333333333333</ele><time>2026-03-24T14:53:01.378Z</time></trkpt><trkpt lat="46.8272659" lon="10.5211934"><ele>1515.5</ele><time>2026-03-24T14:53:03.37Z</time></trkpt><trkpt lat="46.8273419" lon="10.5211448"><ele>1515.6666666666665</ele><time>2026-03-24T14:53:05.381Z</time></trkpt><trkpt lat="46.8274154" lon="10.5210824"><ele>1515.8333333333333</ele><time>2026-03-24T14:53:07.384Z</time></trkpt><trkpt lat="46.8274907" lon="10.5210163"><ele>1516.0</ele><time>2026-03-24T14:53:09.375Z</time></trkpt><trkpt lat="46.8275592" lon="10.520947"><ele>1515.3333333333333</ele><time>2026-03-24T14:53:11.375Z</time></trkpt><trkpt lat="46.827624" lon="10.5208713"><ele>1514.6666666666665</ele><time>2026-03-24T14:53:13.379Z</time></trkpt><trkpt lat="46.8276829" lon="10.5207888"><ele>1514.0</ele><time>2026-03-24T14:53:15.383Z</time></trkpt><trkpt lat="46.8277408" lon="10.5207004"><ele>1513.3333333333333</ele><time>2026-03-24T14:53:17.386Z</time></trkpt><trkpt lat="46.8277923" lon="10.5206012"><ele>1512.6666666666667</ele><time>2026-03-24T14:53:19.378Z</time></trkpt><trkpt lat="46.8278383" lon="10.5204985"><ele>1512.0</ele><time>2026-03-24T14:53:21.386Z</time></trkpt><trkpt lat="46.827886" lon="10.520392"><ele>1514.1666666666667</ele><time>2026-03-24T14:53:23.382Z</time></trkpt><trkpt lat="46.8279321" lon="10.520283"><ele>1516.3333333333333</ele><time>2026-03-24T14:53:25.383Z</time></trkpt><trkpt lat="46.8279781" lon="10.5201696"><ele>1518.5</ele><time>2026-03-24T14:53:27.38Z</time></trkpt><trkpt lat="46.8280265" lon="10.520057"><ele>1520.6666666666665</ele><time>2026-03-24T14:53:29.378Z</time></trkpt><trkpt lat="46.8280718" lon="10.5199462"><ele>1522.8333333333333</ele><time>2026-03-24T14:53:31.384Z</time></trkpt><trkpt lat="46.828113" lon="10.5198353"><ele>1525.0</ele><time>2026-03-24T14:53:33.368Z</time></trkpt><trkpt lat="46.8281575" lon="10.5197288"><ele>1525.0</ele><time>2026-03-24T14:53:35.373Z</time></trkpt><trkpt lat="46.8282018" lon="10.5196283"><ele>1525.0</ele><time>2026-03-24T14:53:37.374Z</time></trkpt><trkpt lat="46.8282462" lon="10.5195183"><ele>1525.0</ele><time>2026-03-24T14:53:39.37Z</time></trkpt><trkpt lat="46.8282882" lon="10.5194122"><ele>1525.0</ele><time>2026-03-24T14:53:41.372Z</time></trkpt><trkpt lat="46.8283288" lon="10.5193031"><ele>1525.0</ele><time>2026-03-24T14:53:43.37Z</time></trkpt><trkpt lat="46.8283714" lon="10.5191905"><ele>1525.0</ele><time>2026-03-24T14:53:45.375Z</time></trkpt><trkpt lat="46.8284158" lon="10.5190712"><ele>1525.0</ele><time>2026-03-24T14:53:47.375Z</time></trkpt><trkpt lat="46.8284623" lon="10.5189523"><ele>1525.0</ele><time>2026-03-24T14:53:49.387Z</time></trkpt><trkpt lat="46.8285091" lon="10.5188297"><ele>1525.0</ele><time>2026-03-24T14:53:51.382Z</time></trkpt><trkpt lat="46.8285583" lon="10.5187025"><ele>1525.0</ele><time>2026-03-24T14:53:53.383Z</time></trkpt><trkpt lat="46.8286081" lon="10.5185705"><ele>1525.0</ele><time>2026-03-24T14:53:55.376Z</time></trkpt><trkpt lat="46.8286631" lon="10.5184355"><ele>1525.0</ele><time>2026-03-24T14:53:57.376Z</time></trkpt><trkpt lat="46.8287144" lon="10.5182974"><ele>1525.0</ele><time>2026-03-24T14:53:59.372Z</time></trkpt><trkpt lat="46.8287676" lon="10.5181643"><ele>1525.0</ele><time>2026-03-24T14:54:01.381Z</time></trkpt><trkpt lat="46.8288247" lon="10.5180322"><ele>1525.0</ele><time>2026-03-24T14:54:03.372Z</time></trkpt><trkpt lat="46.8288723" lon="10.5179109"><ele>1525.0</ele><time>2026-03-24T14:54:05.374Z</time></trkpt><trkpt lat="46.8289202" lon="10.5177967"><ele>1524.4285714285713</ele><time>2026-03-24T14:54:07.382Z</time></trkpt><trkpt lat="46.8289629" lon="10.5176884"><ele>1523.8571428571427</ele><time>2026-03-24T14:54:09.385Z</time></trkpt><trkpt lat="46.8289991" lon="10.517603"><ele>1523.2857142857142</ele><time>2026-03-24T14:54:11.382Z</time></trkpt><trkpt lat="46.829044" lon="10.517534"><ele>1522.7142857142858</ele><time>2026-03-24T14:54:14.371Z</time></trkpt><trkpt lat="46.8290742" lon="10.5174493"><ele>1522.142857142857</ele><time>2026-03-24T14:54:31.38Z</time></trkpt><trkpt lat="46.8291273" lon="10.5173912"><ele>1521.5714285714287</ele><time>2026-03-24T14:54:39.368Z</time></trkpt><trkpt lat="46.8291917" lon="10.5174241"><ele>1521.0</ele><time>2026-03-24T14:54:46.372Z</time></trkpt><trkpt lat="46.8292844" lon="10.5173743"><ele>1521.0</ele><time>2026-03-24T14:55:19.375Z</time></trkpt><trkpt lat="46.8293018" lon="10.5174777"><ele>1521.0</ele><time>2026-03-24T14:56:39.383Z</time></trkpt><trkpt lat="46.8292556" lon="10.5174022"><ele>1521.0</ele><time>2026-03-24T14:57:48.253Z</time></trkpt><trkpt lat="46.8291714" lon="10.5172672"><ele>1521.0</ele><time>2026-03-24T14:58:17.384Z</time></trkpt><trkpt lat="46.8290938" lon="10.5172115"><ele>1521.0</ele><time>2026-03-24T14:58:43.38Z</time></trkpt><trkpt lat="46.8290938" lon="10.5172115"><ele>1521.0</ele><time>2026-03-24T14:58:43.38Z</time></trkpt><trkpt lat="46.8290938" lon="10.5172115"><ele>1521.0</ele><time>2026-03-24T14:58:43.38Z</time></trkpt></trkseg></trk></gpx>